<?xml version="1.0" encoding="UTF-8" standalone="no" ?>
<gpx xmlns="http://www.topografix.com/GPX/1/1" xmlns:xsi="http://www.w3.org/2001/XMLSchema-instance" xsi:schemaLocation="http://www.topografix.com/GPX/1/1 http://www.topografix.com/GPX/1/1/gpx.xsd" version="1.1" creator="VisuGPX - https://www.visugpx.com">
  <metadata>
    <name>Gravel en Pays de Meslay-de-Grez</name>
    <desc><![CDATA[Certains secteurs ne sont pas entretenu... Il ne faut pas avoir peur de rouler dans l'herbe haute. 
Attention au KM 37, le chemin est difficilement praticable l'hiver, de l'eau jusqu'au genoux pendant 1.5km (impossible de rouler).]]></desc>
  </metadata>
  <trk>
    <name><![CDATA[Gravel en Pays de Meslay Grez]]></name>
    <trkseg>
      <trkpt lat="48.00169" lon="-0.48848">
        <ele>72.4</ele>
        <time>2024-04-14T08:33:31Z</time>
      </trkpt>
      <trkpt lat="48.00169" lon="-0.48848">
        <ele>72.4</ele>
        <time>2024-04-14T08:33:32Z</time>
      </trkpt>
      <trkpt lat="48.00169" lon="-0.48854">
        <ele>72.4</ele>
        <time>2024-04-14T08:33:33Z</time>
      </trkpt>
      <trkpt lat="48.00169" lon="-0.48861">
        <ele>73.4</ele>
        <time>2024-04-14T08:33:34Z</time>
      </trkpt>
      <trkpt lat="48.0017" lon="-0.48867">
        <ele>80.4</ele>
        <time>2024-04-14T08:33:35Z</time>
      </trkpt>
      <trkpt lat="48.00171" lon="-0.48873">
        <ele>80.4</ele>
        <time>2024-04-14T08:33:36Z</time>
      </trkpt>
      <trkpt lat="48.00171" lon="-0.48879">
        <ele>80.4</ele>
        <time>2024-04-14T08:33:37Z</time>
      </trkpt>
      <trkpt lat="48.00172" lon="-0.48885">
        <ele>80.4</ele>
        <time>2024-04-14T08:33:38Z</time>
      </trkpt>
      <trkpt lat="48.00173" lon="-0.48892">
        <ele>81.6</ele>
        <time>2024-04-14T08:33:39Z</time>
      </trkpt>
      <trkpt lat="48.00174" lon="-0.48898">
        <ele>81.6</ele>
        <time>2024-04-14T08:33:40Z</time>
      </trkpt>
      <trkpt lat="48.00175" lon="-0.48904">
        <ele>81.6</ele>
        <time>2024-04-14T08:33:41Z</time>
      </trkpt>
      <trkpt lat="48.00175" lon="-0.4891">
        <ele>81.4</ele>
        <time>2024-04-14T08:33:42Z</time>
      </trkpt>
      <trkpt lat="48.00176" lon="-0.48917">
        <ele>82.2</ele>
        <time>2024-04-14T08:33:43Z</time>
      </trkpt>
      <trkpt lat="48.00176" lon="-0.48923">
        <ele>82.2</ele>
        <time>2024-04-14T08:33:44Z</time>
      </trkpt>
      <trkpt lat="48.00176" lon="-0.4893">
        <ele>82.2</ele>
        <time>2024-04-14T08:33:45Z</time>
      </trkpt>
      <trkpt lat="48.00176" lon="-0.48936">
        <ele>82.2</ele>
        <time>2024-04-14T08:33:46Z</time>
      </trkpt>
      <trkpt lat="48.00182" lon="-0.49021">
        <ele>84</ele>
        <time>2024-04-14T08:33:59Z</time>
      </trkpt>
      <trkpt lat="48.00182" lon="-0.49026">
        <ele>84</ele>
        <time>2024-04-14T08:34:00Z</time>
      </trkpt>
      <trkpt lat="48.00182" lon="-0.4903">
        <ele>84</ele>
        <time>2024-04-14T08:34:01Z</time>
      </trkpt>
      <trkpt lat="48.00183" lon="-0.49036">
        <ele>84</ele>
        <time>2024-04-14T08:34:02Z</time>
      </trkpt>
      <trkpt lat="48.00183" lon="-0.49042">
        <ele>83.8</ele>
        <time>2024-04-14T08:34:03Z</time>
      </trkpt>
      <trkpt lat="48.00183" lon="-0.49047">
        <ele>83.8</ele>
        <time>2024-04-14T08:34:04Z</time>
      </trkpt>
      <trkpt lat="48.00183" lon="-0.49053">
        <ele>83.8</ele>
        <time>2024-04-14T08:34:05Z</time>
      </trkpt>
      <trkpt lat="48.00183" lon="-0.4906">
        <ele>83.6</ele>
        <time>2024-04-14T08:34:06Z</time>
      </trkpt>
      <trkpt lat="48.00183" lon="-0.49066">
        <ele>83.6</ele>
        <time>2024-04-14T08:34:07Z</time>
      </trkpt>
      <trkpt lat="48.00184" lon="-0.49072">
        <ele>83.6</ele>
        <time>2024-04-14T08:34:08Z</time>
      </trkpt>
      <trkpt lat="48.00186" lon="-0.49078">
        <ele>83.6</ele>
        <time>2024-04-14T08:34:09Z</time>
      </trkpt>
      <trkpt lat="48.0019" lon="-0.49083">
        <ele>83.6</ele>
        <time>2024-04-14T08:34:10Z</time>
      </trkpt>
      <trkpt lat="48.00194" lon="-0.49085">
        <ele>83</ele>
        <time>2024-04-14T08:34:11Z</time>
      </trkpt>
      <trkpt lat="48.00198" lon="-0.49088">
        <ele>83</ele>
        <time>2024-04-14T08:34:12Z</time>
      </trkpt>
      <trkpt lat="48.00203" lon="-0.4909">
        <ele>83</ele>
        <time>2024-04-14T08:34:13Z</time>
      </trkpt>
      <trkpt lat="48.00207" lon="-0.49092">
        <ele>83</ele>
        <time>2024-04-14T08:34:14Z</time>
      </trkpt>
      <trkpt lat="48.00212" lon="-0.49095">
        <ele>82.6</ele>
        <time>2024-04-14T08:34:15Z</time>
      </trkpt>
      <trkpt lat="48.00216" lon="-0.49096">
        <ele>82.6</ele>
        <time>2024-04-14T08:34:16Z</time>
      </trkpt>
      <trkpt lat="48.00221" lon="-0.49098">
        <ele>82.6</ele>
        <time>2024-04-14T08:34:17Z</time>
      </trkpt>
      <trkpt lat="48.00226" lon="-0.491">
        <ele>82.6</ele>
        <time>2024-04-14T08:34:18Z</time>
      </trkpt>
      <trkpt lat="48.00231" lon="-0.49102">
        <ele>83</ele>
        <time>2024-04-14T08:34:19Z</time>
      </trkpt>
      <trkpt lat="48.00236" lon="-0.49105">
        <ele>83</ele>
        <time>2024-04-14T08:34:20Z</time>
      </trkpt>
      <trkpt lat="48.0024" lon="-0.49107">
        <ele>83</ele>
        <time>2024-04-14T08:34:21Z</time>
      </trkpt>
      <trkpt lat="48.00245" lon="-0.49109">
        <ele>83.2</ele>
        <time>2024-04-14T08:34:22Z</time>
      </trkpt>
      <trkpt lat="48.0025" lon="-0.49111">
        <ele>83</ele>
        <time>2024-04-14T08:34:23Z</time>
      </trkpt>
      <trkpt lat="48.00255" lon="-0.49113">
        <ele>83</ele>
        <time>2024-04-14T08:34:24Z</time>
      </trkpt>
      <trkpt lat="48.0026" lon="-0.49115">
        <ele>83</ele>
        <time>2024-04-14T08:34:25Z</time>
      </trkpt>
      <trkpt lat="48.00264" lon="-0.49117">
        <ele>83</ele>
        <time>2024-04-14T08:34:26Z</time>
      </trkpt>
      <trkpt lat="48.00269" lon="-0.49119">
        <ele>82.4</ele>
        <time>2024-04-14T08:34:27Z</time>
      </trkpt>
      <trkpt lat="48.00274" lon="-0.49122">
        <ele>82.4</ele>
        <time>2024-04-14T08:34:28Z</time>
      </trkpt>
      <trkpt lat="48.0028" lon="-0.49124">
        <ele>82.4</ele>
        <time>2024-04-14T08:34:29Z</time>
      </trkpt>
      <trkpt lat="48.00285" lon="-0.49126">
        <ele>82.4</ele>
        <time>2024-04-14T08:34:30Z</time>
      </trkpt>
      <trkpt lat="48.0029" lon="-0.49128">
        <ele>82.8</ele>
        <time>2024-04-14T08:34:31Z</time>
      </trkpt>
      <trkpt lat="48.00295" lon="-0.49131">
        <ele>82.8</ele>
        <time>2024-04-14T08:34:32Z</time>
      </trkpt>
      <trkpt lat="48.003" lon="-0.49133">
        <ele>82.8</ele>
        <time>2024-04-14T08:34:33Z</time>
      </trkpt>
      <trkpt lat="48.00306" lon="-0.49134">
        <ele>83</ele>
        <time>2024-04-14T08:34:34Z</time>
      </trkpt>
      <trkpt lat="48.00311" lon="-0.49137">
        <ele>82.8</ele>
        <time>2024-04-14T08:34:35Z</time>
      </trkpt>
      <trkpt lat="48.00316" lon="-0.49139">
        <ele>82.8</ele>
        <time>2024-04-14T08:34:36Z</time>
      </trkpt>
      <trkpt lat="48.00321" lon="-0.49141">
        <ele>82.8</ele>
        <time>2024-04-14T08:34:37Z</time>
      </trkpt>
      <trkpt lat="48.00326" lon="-0.49143">
        <ele>83</ele>
        <time>2024-04-14T08:34:38Z</time>
      </trkpt>
      <trkpt lat="48.00332" lon="-0.49144">
        <ele>83.4</ele>
        <time>2024-04-14T08:34:39Z</time>
      </trkpt>
      <trkpt lat="48.00337" lon="-0.49146">
        <ele>83.4</ele>
        <time>2024-04-14T08:34:40Z</time>
      </trkpt>
      <trkpt lat="48.00342" lon="-0.49147">
        <ele>83.4</ele>
        <time>2024-04-14T08:34:41Z</time>
      </trkpt>
      <trkpt lat="48.00347" lon="-0.49149">
        <ele>83.4</ele>
        <time>2024-04-14T08:34:42Z</time>
      </trkpt>
      <trkpt lat="48.00352" lon="-0.49151">
        <ele>83.4</ele>
        <time>2024-04-14T08:34:43Z</time>
      </trkpt>
      <trkpt lat="48.00357" lon="-0.49153">
        <ele>83.4</ele>
        <time>2024-04-14T08:34:44Z</time>
      </trkpt>
      <trkpt lat="48.00362" lon="-0.49155">
        <ele>83.4</ele>
        <time>2024-04-14T08:34:45Z</time>
      </trkpt>
      <trkpt lat="48.00368" lon="-0.49157">
        <ele>83.4</ele>
        <time>2024-04-14T08:34:46Z</time>
      </trkpt>
      <trkpt lat="48.00373" lon="-0.4916">
        <ele>83.2</ele>
        <time>2024-04-14T08:34:47Z</time>
      </trkpt>
      <trkpt lat="48.00378" lon="-0.49162">
        <ele>83.2</ele>
        <time>2024-04-14T08:34:48Z</time>
      </trkpt>
      <trkpt lat="48.00383" lon="-0.49164">
        <ele>83.2</ele>
        <time>2024-04-14T08:34:49Z</time>
      </trkpt>
      <trkpt lat="48.00388" lon="-0.49166">
        <ele>83.2</ele>
        <time>2024-04-14T08:34:50Z</time>
      </trkpt>
      <trkpt lat="48.00394" lon="-0.49168">
        <ele>83.2</ele>
        <time>2024-04-14T08:34:51Z</time>
      </trkpt>
      <trkpt lat="48.00399" lon="-0.4917">
        <ele>83.2</ele>
        <time>2024-04-14T08:34:52Z</time>
      </trkpt>
      <trkpt lat="48.00405" lon="-0.49173">
        <ele>83.2</ele>
        <time>2024-04-14T08:34:53Z</time>
      </trkpt>
      <trkpt lat="48.0041" lon="-0.49175">
        <ele>83.8</ele>
        <time>2024-04-14T08:34:54Z</time>
      </trkpt>
      <trkpt lat="48.00415" lon="-0.49177">
        <ele>83.4</ele>
        <time>2024-04-14T08:34:55Z</time>
      </trkpt>
      <trkpt lat="48.0042" lon="-0.4918">
        <ele>83.4</ele>
        <time>2024-04-14T08:34:56Z</time>
      </trkpt>
      <trkpt lat="48.00425" lon="-0.49182">
        <ele>83.4</ele>
        <time>2024-04-14T08:34:57Z</time>
      </trkpt>
      <trkpt lat="48.0043" lon="-0.49184">
        <ele>83.4</ele>
        <time>2024-04-14T08:34:58Z</time>
      </trkpt>
      <trkpt lat="48.00436" lon="-0.49186">
        <ele>83.6</ele>
        <time>2024-04-14T08:34:59Z</time>
      </trkpt>
      <trkpt lat="48.00441" lon="-0.49188">
        <ele>83.6</ele>
        <time>2024-04-14T08:35:00Z</time>
      </trkpt>
      <trkpt lat="48.00446" lon="-0.49191">
        <ele>83.6</ele>
        <time>2024-04-14T08:35:01Z</time>
      </trkpt>
      <trkpt lat="48.00451" lon="-0.49193">
        <ele>83.6</ele>
        <time>2024-04-14T08:35:02Z</time>
      </trkpt>
      <trkpt lat="48.00456" lon="-0.49195">
        <ele>83.6</ele>
        <time>2024-04-14T08:35:03Z</time>
      </trkpt>
      <trkpt lat="48.00461" lon="-0.49197">
        <ele>83.6</ele>
        <time>2024-04-14T08:35:04Z</time>
      </trkpt>
      <trkpt lat="48.00467" lon="-0.492">
        <ele>83.6</ele>
        <time>2024-04-14T08:35:05Z</time>
      </trkpt>
      <trkpt lat="48.00472" lon="-0.49202">
        <ele>83.6</ele>
        <time>2024-04-14T08:35:06Z</time>
      </trkpt>
      <trkpt lat="48.00477" lon="-0.49204">
        <ele>84.4</ele>
        <time>2024-04-14T08:35:07Z</time>
      </trkpt>
      <trkpt lat="48.00482" lon="-0.49207">
        <ele>84.4</ele>
        <time>2024-04-14T08:35:08Z</time>
      </trkpt>
      <trkpt lat="48.00486" lon="-0.49212">
        <ele>84.4</ele>
        <time>2024-04-14T08:35:09Z</time>
      </trkpt>
      <trkpt lat="48.00489" lon="-0.49219">
        <ele>83.4</ele>
        <time>2024-04-14T08:35:10Z</time>
      </trkpt>
      <trkpt lat="48.00491" lon="-0.49226">
        <ele>83</ele>
        <time>2024-04-14T08:35:11Z</time>
      </trkpt>
      <trkpt lat="48.00492" lon="-0.49235">
        <ele>83</ele>
        <time>2024-04-14T08:35:12Z</time>
      </trkpt>
      <trkpt lat="48.00493" lon="-0.49243">
        <ele>83</ele>
        <time>2024-04-14T08:35:13Z</time>
      </trkpt>
      <trkpt lat="48.00493" lon="-0.49253">
        <ele>82.2</ele>
        <time>2024-04-14T08:35:14Z</time>
      </trkpt>
      <trkpt lat="48.00492" lon="-0.49262">
        <ele>82.2</ele>
        <time>2024-04-14T08:35:15Z</time>
      </trkpt>
      <trkpt lat="48.00491" lon="-0.49272">
        <ele>82.2</ele>
        <time>2024-04-14T08:35:16Z</time>
      </trkpt>
      <trkpt lat="48.00491" lon="-0.49282">
        <ele>82.2</ele>
        <time>2024-04-14T08:35:17Z</time>
      </trkpt>
      <trkpt lat="48.0049" lon="-0.49292">
        <ele>81.2</ele>
        <time>2024-04-14T08:35:18Z</time>
      </trkpt>
      <trkpt lat="48.0049" lon="-0.49302">
        <ele>80.8</ele>
        <time>2024-04-14T08:35:19Z</time>
      </trkpt>
      <trkpt lat="48.0049" lon="-0.49312">
        <ele>80.8</ele>
        <time>2024-04-14T08:35:20Z</time>
      </trkpt>
      <trkpt lat="48.0049" lon="-0.49323">
        <ele>80.8</ele>
        <time>2024-04-14T08:35:21Z</time>
      </trkpt>
      <trkpt lat="48.00491" lon="-0.49333">
        <ele>80</ele>
        <time>2024-04-14T08:35:22Z</time>
      </trkpt>
      <trkpt lat="48.00492" lon="-0.49343">
        <ele>80</ele>
        <time>2024-04-14T08:35:23Z</time>
      </trkpt>
      <trkpt lat="48.00494" lon="-0.49352">
        <ele>80</ele>
        <time>2024-04-14T08:35:24Z</time>
      </trkpt>
      <trkpt lat="48.00496" lon="-0.49361">
        <ele>80</ele>
        <time>2024-04-14T08:35:25Z</time>
      </trkpt>
      <trkpt lat="48.00498" lon="-0.4937">
        <ele>80</ele>
        <time>2024-04-14T08:35:26Z</time>
      </trkpt>
      <trkpt lat="48.005" lon="-0.49379">
        <ele>80.2</ele>
        <time>2024-04-14T08:35:27Z</time>
      </trkpt>
      <trkpt lat="48.00502" lon="-0.49387">
        <ele>80.2</ele>
        <time>2024-04-14T08:35:28Z</time>
      </trkpt>
      <trkpt lat="48.00504" lon="-0.49396">
        <ele>80.2</ele>
        <time>2024-04-14T08:35:29Z</time>
      </trkpt>
      <trkpt lat="48.00506" lon="-0.49404">
        <ele>80.8</ele>
        <time>2024-04-14T08:35:30Z</time>
      </trkpt>
      <trkpt lat="48.00509" lon="-0.49412">
        <ele>81.4</ele>
        <time>2024-04-14T08:35:31Z</time>
      </trkpt>
      <trkpt lat="48.00511" lon="-0.4942">
        <ele>81.4</ele>
        <time>2024-04-14T08:35:32Z</time>
      </trkpt>
      <trkpt lat="48.00513" lon="-0.49428">
        <ele>81.4</ele>
        <time>2024-04-14T08:35:33Z</time>
      </trkpt>
      <trkpt lat="48.00515" lon="-0.49435">
        <ele>81.4</ele>
        <time>2024-04-14T08:35:34Z</time>
      </trkpt>
      <trkpt lat="48.00517" lon="-0.49443">
        <ele>82</ele>
        <time>2024-04-14T08:35:35Z</time>
      </trkpt>
      <trkpt lat="48.00519" lon="-0.4945">
        <ele>82</ele>
        <time>2024-04-14T08:35:36Z</time>
      </trkpt>
      <trkpt lat="48.00522" lon="-0.49458">
        <ele>82</ele>
        <time>2024-04-14T08:35:37Z</time>
      </trkpt>
      <trkpt lat="48.00524" lon="-0.49465">
        <ele>82</ele>
        <time>2024-04-14T08:35:38Z</time>
      </trkpt>
      <trkpt lat="48.00525" lon="-0.49472">
        <ele>82.4</ele>
        <time>2024-04-14T08:35:39Z</time>
      </trkpt>
      <trkpt lat="48.00527" lon="-0.49479">
        <ele>82.4</ele>
        <time>2024-04-14T08:35:40Z</time>
      </trkpt>
      <trkpt lat="48.00529" lon="-0.49486">
        <ele>82.4</ele>
        <time>2024-04-14T08:35:41Z</time>
      </trkpt>
      <trkpt lat="48.00531" lon="-0.49492">
        <ele>82.4</ele>
        <time>2024-04-14T08:35:42Z</time>
      </trkpt>
      <trkpt lat="48.00533" lon="-0.49499">
        <ele>82.6</ele>
        <time>2024-04-14T08:35:43Z</time>
      </trkpt>
      <trkpt lat="48.00535" lon="-0.49506">
        <ele>82.6</ele>
        <time>2024-04-14T08:35:44Z</time>
      </trkpt>
      <trkpt lat="48.00537" lon="-0.49513">
        <ele>82.6</ele>
        <time>2024-04-14T08:35:45Z</time>
      </trkpt>
      <trkpt lat="48.00539" lon="-0.4952">
        <ele>82.8</ele>
        <time>2024-04-14T08:35:46Z</time>
      </trkpt>
      <trkpt lat="48.0054" lon="-0.49526">
        <ele>83</ele>
        <time>2024-04-14T08:35:47Z</time>
      </trkpt>
      <trkpt lat="48.00542" lon="-0.49533">
        <ele>83</ele>
        <time>2024-04-14T08:35:48Z</time>
      </trkpt>
      <trkpt lat="48.00544" lon="-0.4954">
        <ele>83</ele>
        <time>2024-04-14T08:35:49Z</time>
      </trkpt>
      <trkpt lat="48.00545" lon="-0.49547">
        <ele>83.4</ele>
        <time>2024-04-14T08:35:50Z</time>
      </trkpt>
      <trkpt lat="48.00547" lon="-0.49554">
        <ele>83.4</ele>
        <time>2024-04-14T08:35:51Z</time>
      </trkpt>
      <trkpt lat="48.00549" lon="-0.49561">
        <ele>83.4</ele>
        <time>2024-04-14T08:35:52Z</time>
      </trkpt>
      <trkpt lat="48.00551" lon="-0.49568">
        <ele>83.4</ele>
        <time>2024-04-14T08:35:53Z</time>
      </trkpt>
      <trkpt lat="48.00553" lon="-0.49575">
        <ele>83.4</ele>
        <time>2024-04-14T08:35:54Z</time>
      </trkpt>
      <trkpt lat="48.00554" lon="-0.49582">
        <ele>83.4</ele>
        <time>2024-04-14T08:35:55Z</time>
      </trkpt>
      <trkpt lat="48.00556" lon="-0.4959">
        <ele>83.4</ele>
        <time>2024-04-14T08:35:56Z</time>
      </trkpt>
      <trkpt lat="48.00558" lon="-0.49597">
        <ele>83.4</ele>
        <time>2024-04-14T08:35:57Z</time>
      </trkpt>
      <trkpt lat="48.0056" lon="-0.49605">
        <ele>83.4</ele>
        <time>2024-04-14T08:35:58Z</time>
      </trkpt>
      <trkpt lat="48.00561" lon="-0.49613">
        <ele>82.4</ele>
        <time>2024-04-14T08:35:59Z</time>
      </trkpt>
      <trkpt lat="48.00563" lon="-0.49621">
        <ele>82.4</ele>
        <time>2024-04-14T08:36:00Z</time>
      </trkpt>
      <trkpt lat="48.00565" lon="-0.49629">
        <ele>82.4</ele>
        <time>2024-04-14T08:36:01Z</time>
      </trkpt>
      <trkpt lat="48.00566" lon="-0.49637">
        <ele>83.4</ele>
        <time>2024-04-14T08:36:02Z</time>
      </trkpt>
      <trkpt lat="48.00568" lon="-0.49644">
        <ele>83.2</ele>
        <time>2024-04-14T08:36:03Z</time>
      </trkpt>
      <trkpt lat="48.0057" lon="-0.49652">
        <ele>83.2</ele>
        <time>2024-04-14T08:36:04Z</time>
      </trkpt>
      <trkpt lat="48.00572" lon="-0.4966">
        <ele>83.2</ele>
        <time>2024-04-14T08:36:05Z</time>
      </trkpt>
      <trkpt lat="48.00573" lon="-0.49668">
        <ele>83</ele>
        <time>2024-04-14T08:36:06Z</time>
      </trkpt>
      <trkpt lat="48.00575" lon="-0.49677">
        <ele>82.4</ele>
        <time>2024-04-14T08:36:07Z</time>
      </trkpt>
      <trkpt lat="48.00577" lon="-0.49685">
        <ele>82.4</ele>
        <time>2024-04-14T08:36:08Z</time>
      </trkpt>
      <trkpt lat="48.00579" lon="-0.49693">
        <ele>82.4</ele>
        <time>2024-04-14T08:36:09Z</time>
      </trkpt>
      <trkpt lat="48.0058" lon="-0.49702">
        <ele>82.4</ele>
        <time>2024-04-14T08:36:10Z</time>
      </trkpt>
      <trkpt lat="48.00582" lon="-0.4971">
        <ele>82.8</ele>
        <time>2024-04-14T08:36:11Z</time>
      </trkpt>
      <trkpt lat="48.00584" lon="-0.49718">
        <ele>82.8</ele>
        <time>2024-04-14T08:36:12Z</time>
      </trkpt>
      <trkpt lat="48.00586" lon="-0.49727">
        <ele>82.8</ele>
        <time>2024-04-14T08:36:13Z</time>
      </trkpt>
      <trkpt lat="48.00587" lon="-0.49735">
        <ele>83.2</ele>
        <time>2024-04-14T08:36:14Z</time>
      </trkpt>
      <trkpt lat="48.00589" lon="-0.49742">
        <ele>83.4</ele>
        <time>2024-04-14T08:36:15Z</time>
      </trkpt>
      <trkpt lat="48.00591" lon="-0.4975">
        <ele>83.4</ele>
        <time>2024-04-14T08:36:16Z</time>
      </trkpt>
      <trkpt lat="48.00593" lon="-0.49758">
        <ele>83.4</ele>
        <time>2024-04-14T08:36:17Z</time>
      </trkpt>
      <trkpt lat="48.00594" lon="-0.49765">
        <ele>83.4</ele>
        <time>2024-04-14T08:36:18Z</time>
      </trkpt>
      <trkpt lat="48.00596" lon="-0.49773">
        <ele>83.8</ele>
        <time>2024-04-14T08:36:19Z</time>
      </trkpt>
      <trkpt lat="48.00597" lon="-0.49781">
        <ele>83.8</ele>
        <time>2024-04-14T08:36:20Z</time>
      </trkpt>
      <trkpt lat="48.00599" lon="-0.49788">
        <ele>83.8</ele>
        <time>2024-04-14T08:36:21Z</time>
      </trkpt>
      <trkpt lat="48.006" lon="-0.49796">
        <ele>83.8</ele>
        <time>2024-04-14T08:36:22Z</time>
      </trkpt>
      <trkpt lat="48.00602" lon="-0.49804">
        <ele>83.8</ele>
        <time>2024-04-14T08:36:23Z</time>
      </trkpt>
      <trkpt lat="48.00603" lon="-0.49811">
        <ele>83.8</ele>
        <time>2024-04-14T08:36:24Z</time>
      </trkpt>
      <trkpt lat="48.00605" lon="-0.49819">
        <ele>83.8</ele>
        <time>2024-04-14T08:36:25Z</time>
      </trkpt>
      <trkpt lat="48.00606" lon="-0.49826">
        <ele>83.8</ele>
        <time>2024-04-14T08:36:26Z</time>
      </trkpt>
      <trkpt lat="48.00608" lon="-0.49834">
        <ele>83.8</ele>
        <time>2024-04-14T08:36:27Z</time>
      </trkpt>
      <trkpt lat="48.0061" lon="-0.49841">
        <ele>83.8</ele>
        <time>2024-04-14T08:36:28Z</time>
      </trkpt>
      <trkpt lat="48.00612" lon="-0.49849">
        <ele>83.8</ele>
        <time>2024-04-14T08:36:29Z</time>
      </trkpt>
      <trkpt lat="48.00613" lon="-0.49856">
        <ele>83.8</ele>
        <time>2024-04-14T08:36:30Z</time>
      </trkpt>
      <trkpt lat="48.00615" lon="-0.49864">
        <ele>83.8</ele>
        <time>2024-04-14T08:36:31Z</time>
      </trkpt>
      <trkpt lat="48.00616" lon="-0.49871">
        <ele>84.4</ele>
        <time>2024-04-14T08:36:32Z</time>
      </trkpt>
      <trkpt lat="48.00618" lon="-0.49879">
        <ele>84.4</ele>
        <time>2024-04-14T08:36:33Z</time>
      </trkpt>
      <trkpt lat="48.0062" lon="-0.49886">
        <ele>84.4</ele>
        <time>2024-04-14T08:36:34Z</time>
      </trkpt>
      <trkpt lat="48.00622" lon="-0.49893">
        <ele>84.2</ele>
        <time>2024-04-14T08:36:35Z</time>
      </trkpt>
      <trkpt lat="48.00624" lon="-0.49901">
        <ele>84.6</ele>
        <time>2024-04-14T08:36:36Z</time>
      </trkpt>
      <trkpt lat="48.00626" lon="-0.49908">
        <ele>84.6</ele>
        <time>2024-04-14T08:36:37Z</time>
      </trkpt>
      <trkpt lat="48.00628" lon="-0.49915">
        <ele>84.6</ele>
        <time>2024-04-14T08:36:38Z</time>
      </trkpt>
      <trkpt lat="48.0063" lon="-0.49922">
        <ele>84.4</ele>
        <time>2024-04-14T08:36:39Z</time>
      </trkpt>
      <trkpt lat="48.00632" lon="-0.49929">
        <ele>84.6</ele>
        <time>2024-04-14T08:36:40Z</time>
      </trkpt>
      <trkpt lat="48.00633" lon="-0.49936">
        <ele>84.6</ele>
        <time>2024-04-14T08:36:41Z</time>
      </trkpt>
      <trkpt lat="48.00635" lon="-0.49943">
        <ele>84.6</ele>
        <time>2024-04-14T08:36:42Z</time>
      </trkpt>
      <trkpt lat="48.00637" lon="-0.4995">
        <ele>84.4</ele>
        <time>2024-04-14T08:36:43Z</time>
      </trkpt>
      <trkpt lat="48.00639" lon="-0.49956">
        <ele>85.2</ele>
        <time>2024-04-14T08:36:44Z</time>
      </trkpt>
      <trkpt lat="48.0064" lon="-0.49963">
        <ele>85.2</ele>
        <time>2024-04-14T08:36:45Z</time>
      </trkpt>
      <trkpt lat="48.00642" lon="-0.4997">
        <ele>85.2</ele>
        <time>2024-04-14T08:36:46Z</time>
      </trkpt>
      <trkpt lat="48.00643" lon="-0.49977">
        <ele>85.2</ele>
        <time>2024-04-14T08:36:47Z</time>
      </trkpt>
      <trkpt lat="48.00645" lon="-0.49984">
        <ele>85.6</ele>
        <time>2024-04-14T08:36:48Z</time>
      </trkpt>
      <trkpt lat="48.00647" lon="-0.4999">
        <ele>85.6</ele>
        <time>2024-04-14T08:36:49Z</time>
      </trkpt>
      <trkpt lat="48.00649" lon="-0.49997">
        <ele>85.6</ele>
        <time>2024-04-14T08:36:50Z</time>
      </trkpt>
      <trkpt lat="48.0065" lon="-0.50004">
        <ele>86</ele>
        <time>2024-04-14T08:36:51Z</time>
      </trkpt>
      <trkpt lat="48.00652" lon="-0.5001">
        <ele>86.2</ele>
        <time>2024-04-14T08:36:52Z</time>
      </trkpt>
      <trkpt lat="48.00654" lon="-0.50017">
        <ele>86.2</ele>
        <time>2024-04-14T08:36:53Z</time>
      </trkpt>
      <trkpt lat="48.00655" lon="-0.50024">
        <ele>86.2</ele>
        <time>2024-04-14T08:36:54Z</time>
      </trkpt>
      <trkpt lat="48.00657" lon="-0.50031">
        <ele>86.2</ele>
        <time>2024-04-14T08:36:55Z</time>
      </trkpt>
      <trkpt lat="48.00659" lon="-0.50038">
        <ele>85.8</ele>
        <time>2024-04-14T08:36:56Z</time>
      </trkpt>
      <trkpt lat="48.0066" lon="-0.50045">
        <ele>85.8</ele>
        <time>2024-04-14T08:36:57Z</time>
      </trkpt>
      <trkpt lat="48.00662" lon="-0.50052">
        <ele>85.8</ele>
        <time>2024-04-14T08:36:58Z</time>
      </trkpt>
      <trkpt lat="48.00664" lon="-0.50059">
        <ele>86.8</ele>
        <time>2024-04-14T08:36:59Z</time>
      </trkpt>
      <trkpt lat="48.00666" lon="-0.50065">
        <ele>87</ele>
        <time>2024-04-14T08:37:00Z</time>
      </trkpt>
      <trkpt lat="48.00667" lon="-0.50072">
        <ele>87</ele>
        <time>2024-04-14T08:37:01Z</time>
      </trkpt>
      <trkpt lat="48.00669" lon="-0.50079">
        <ele>87</ele>
        <time>2024-04-14T08:37:02Z</time>
      </trkpt>
      <trkpt lat="48.00671" lon="-0.50086">
        <ele>87.6</ele>
        <time>2024-04-14T08:37:03Z</time>
      </trkpt>
      <trkpt lat="48.00673" lon="-0.50093">
        <ele>87.2</ele>
        <time>2024-04-14T08:37:04Z</time>
      </trkpt>
      <trkpt lat="48.00674" lon="-0.501">
        <ele>87.2</ele>
        <time>2024-04-14T08:37:05Z</time>
      </trkpt>
      <trkpt lat="48.00676" lon="-0.50107">
        <ele>87.2</ele>
        <time>2024-04-14T08:37:06Z</time>
      </trkpt>
      <trkpt lat="48.00677" lon="-0.50114">
        <ele>87.4</ele>
        <time>2024-04-14T08:37:07Z</time>
      </trkpt>
      <trkpt lat="48.00679" lon="-0.50122">
        <ele>87.2</ele>
        <time>2024-04-14T08:37:08Z</time>
      </trkpt>
      <trkpt lat="48.0068" lon="-0.50129">
        <ele>87.2</ele>
        <time>2024-04-14T08:37:09Z</time>
      </trkpt>
      <trkpt lat="48.00682" lon="-0.50136">
        <ele>87.2</ele>
        <time>2024-04-14T08:37:10Z</time>
      </trkpt>
      <trkpt lat="48.00683" lon="-0.50144">
        <ele>87.4</ele>
        <time>2024-04-14T08:37:11Z</time>
      </trkpt>
      <trkpt lat="48.00684" lon="-0.50152">
        <ele>87</ele>
        <time>2024-04-14T08:37:12Z</time>
      </trkpt>
      <trkpt lat="48.00685" lon="-0.50159">
        <ele>87</ele>
        <time>2024-04-14T08:37:13Z</time>
      </trkpt>
      <trkpt lat="48.00686" lon="-0.50167">
        <ele>87</ele>
        <time>2024-04-14T08:37:14Z</time>
      </trkpt>
      <trkpt lat="48.00687" lon="-0.50175">
        <ele>87.2</ele>
        <time>2024-04-14T08:37:15Z</time>
      </trkpt>
      <trkpt lat="48.00689" lon="-0.50183">
        <ele>87.4</ele>
        <time>2024-04-14T08:37:16Z</time>
      </trkpt>
      <trkpt lat="48.0069" lon="-0.5019">
        <ele>87.4</ele>
        <time>2024-04-14T08:37:17Z</time>
      </trkpt>
      <trkpt lat="48.00691" lon="-0.50198">
        <ele>87.4</ele>
        <time>2024-04-14T08:37:18Z</time>
      </trkpt>
      <trkpt lat="48.00692" lon="-0.50206">
        <ele>86.6</ele>
        <time>2024-04-14T08:37:19Z</time>
      </trkpt>
      <trkpt lat="48.00693" lon="-0.50214">
        <ele>86.8</ele>
        <time>2024-04-14T08:37:20Z</time>
      </trkpt>
      <trkpt lat="48.00694" lon="-0.50222">
        <ele>86.8</ele>
        <time>2024-04-14T08:37:21Z</time>
      </trkpt>
      <trkpt lat="48.00695" lon="-0.5023">
        <ele>86.8</ele>
        <time>2024-04-14T08:37:22Z</time>
      </trkpt>
      <trkpt lat="48.00696" lon="-0.50238">
        <ele>86.8</ele>
        <time>2024-04-14T08:37:23Z</time>
      </trkpt>
      <trkpt lat="48.00697" lon="-0.50246">
        <ele>86.8</ele>
        <time>2024-04-14T08:37:24Z</time>
      </trkpt>
      <trkpt lat="48.00698" lon="-0.50254">
        <ele>86.8</ele>
        <time>2024-04-14T08:37:25Z</time>
      </trkpt>
      <trkpt lat="48.00699" lon="-0.5026">
        <ele>86.8</ele>
        <time>2024-04-14T08:37:26Z</time>
      </trkpt>
      <trkpt lat="48.00699" lon="-0.50266">
        <ele>86.8</ele>
        <time>2024-04-14T08:37:27Z</time>
      </trkpt>
      <trkpt lat="48.00699" lon="-0.5027">
        <ele>87.4</ele>
        <time>2024-04-14T08:37:28Z</time>
      </trkpt>
      <trkpt lat="48.00698" lon="-0.50273">
        <ele>87.4</ele>
        <time>2024-04-14T08:37:29Z</time>
      </trkpt>
      <trkpt lat="48.00697" lon="-0.50274">
        <ele>87.4</ele>
        <time>2024-04-14T08:37:30Z</time>
      </trkpt>
      <trkpt lat="48.00695" lon="-0.50275">
        <ele>87.4</ele>
        <time>2024-04-14T08:37:31Z</time>
      </trkpt>
      <trkpt lat="48.00694" lon="-0.50276">
        <ele>87.4</ele>
        <time>2024-04-14T08:37:32Z</time>
      </trkpt>
      <trkpt lat="48.00692" lon="-0.50277">
        <ele>87.4</ele>
        <time>2024-04-14T08:37:33Z</time>
      </trkpt>
      <trkpt lat="48.00691" lon="-0.50278">
        <ele>87.4</ele>
        <time>2024-04-14T08:37:34Z</time>
      </trkpt>
      <trkpt lat="48.00689" lon="-0.50279">
        <ele>87.4</ele>
        <time>2024-04-14T08:37:35Z</time>
      </trkpt>
      <trkpt lat="48.00687" lon="-0.5028">
        <ele>87</ele>
        <time>2024-04-14T08:37:36Z</time>
      </trkpt>
      <trkpt lat="48.00686" lon="-0.5028">
        <ele>87</ele>
        <time>2024-04-14T08:37:37Z</time>
      </trkpt>
      <trkpt lat="48.00686" lon="-0.5028">
        <ele>87</ele>
        <time>2024-04-14T08:37:38Z</time>
      </trkpt>
      <trkpt lat="48.00686" lon="-0.5028">
        <ele>87</ele>
        <time>2024-04-14T08:37:39Z</time>
      </trkpt>
      <trkpt lat="48.0069" lon="-0.50282">
        <ele>86.8</ele>
        <time>2024-04-14T08:37:54Z</time>
      </trkpt>
      <trkpt lat="48.00692" lon="-0.50282">
        <ele>87.6</ele>
        <time>2024-04-14T08:37:55Z</time>
      </trkpt>
      <trkpt lat="48.00694" lon="-0.50281">
        <ele>87.4</ele>
        <time>2024-04-14T08:37:56Z</time>
      </trkpt>
      <trkpt lat="48.00696" lon="-0.5028">
        <ele>87.4</ele>
        <time>2024-04-14T08:37:57Z</time>
      </trkpt>
      <trkpt lat="48.00698" lon="-0.50281">
        <ele>87.4</ele>
        <time>2024-04-14T08:37:58Z</time>
      </trkpt>
      <trkpt lat="48.00699" lon="-0.50282">
        <ele>87.2</ele>
        <time>2024-04-14T08:37:59Z</time>
      </trkpt>
      <trkpt lat="48.007" lon="-0.50287">
        <ele>87.4</ele>
        <time>2024-04-14T08:38:00Z</time>
      </trkpt>
      <trkpt lat="48.00701" lon="-0.50292">
        <ele>87.4</ele>
        <time>2024-04-14T08:38:01Z</time>
      </trkpt>
      <trkpt lat="48.00701" lon="-0.50298">
        <ele>87.4</ele>
        <time>2024-04-14T08:38:02Z</time>
      </trkpt>
      <trkpt lat="48.00702" lon="-0.50304">
        <ele>86.8</ele>
        <time>2024-04-14T08:38:03Z</time>
      </trkpt>
      <trkpt lat="48.00703" lon="-0.50311">
        <ele>86</ele>
        <time>2024-04-14T08:38:04Z</time>
      </trkpt>
      <trkpt lat="48.00704" lon="-0.50318">
        <ele>86</ele>
        <time>2024-04-14T08:38:05Z</time>
      </trkpt>
      <trkpt lat="48.00705" lon="-0.50324">
        <ele>86</ele>
        <time>2024-04-14T08:38:06Z</time>
      </trkpt>
      <trkpt lat="48.00706" lon="-0.50331">
        <ele>86</ele>
        <time>2024-04-14T08:38:07Z</time>
      </trkpt>
      <trkpt lat="48.00707" lon="-0.50339">
        <ele>85.8</ele>
        <time>2024-04-14T08:38:08Z</time>
      </trkpt>
      <trkpt lat="48.00708" lon="-0.50346">
        <ele>85.8</ele>
        <time>2024-04-14T08:38:09Z</time>
      </trkpt>
      <trkpt lat="48.00709" lon="-0.50354">
        <ele>85.8</ele>
        <time>2024-04-14T08:38:10Z</time>
      </trkpt>
      <trkpt lat="48.0071" lon="-0.50361">
        <ele>85.8</ele>
        <time>2024-04-14T08:38:11Z</time>
      </trkpt>
      <trkpt lat="48.00712" lon="-0.50369">
        <ele>84.8</ele>
        <time>2024-04-14T08:38:12Z</time>
      </trkpt>
      <trkpt lat="48.00713" lon="-0.50377">
        <ele>84.8</ele>
        <time>2024-04-14T08:38:13Z</time>
      </trkpt>
      <trkpt lat="48.00714" lon="-0.50385">
        <ele>84.8</ele>
        <time>2024-04-14T08:38:14Z</time>
      </trkpt>
      <trkpt lat="48.00714" lon="-0.50393">
        <ele>84</ele>
        <time>2024-04-14T08:38:15Z</time>
      </trkpt>
      <trkpt lat="48.00716" lon="-0.50402">
        <ele>83.8</ele>
        <time>2024-04-14T08:38:16Z</time>
      </trkpt>
      <trkpt lat="48.00717" lon="-0.5041">
        <ele>83.8</ele>
        <time>2024-04-14T08:38:17Z</time>
      </trkpt>
      <trkpt lat="48.00718" lon="-0.50418">
        <ele>83.8</ele>
        <time>2024-04-14T08:38:18Z</time>
      </trkpt>
      <trkpt lat="48.00719" lon="-0.50426">
        <ele>83.8</ele>
        <time>2024-04-14T08:38:19Z</time>
      </trkpt>
      <trkpt lat="48.0072" lon="-0.50434">
        <ele>83.6</ele>
        <time>2024-04-14T08:38:20Z</time>
      </trkpt>
      <trkpt lat="48.00721" lon="-0.50442">
        <ele>83.6</ele>
        <time>2024-04-14T08:38:21Z</time>
      </trkpt>
      <trkpt lat="48.00722" lon="-0.5045">
        <ele>83.6</ele>
        <time>2024-04-14T08:38:22Z</time>
      </trkpt>
      <trkpt lat="48.00723" lon="-0.50458">
        <ele>83.4</ele>
        <time>2024-04-14T08:38:23Z</time>
      </trkpt>
      <trkpt lat="48.00724" lon="-0.50466">
        <ele>83</ele>
        <time>2024-04-14T08:38:24Z</time>
      </trkpt>
      <trkpt lat="48.00725" lon="-0.50474">
        <ele>83</ele>
        <time>2024-04-14T08:38:25Z</time>
      </trkpt>
      <trkpt lat="48.00726" lon="-0.50483">
        <ele>83</ele>
        <time>2024-04-14T08:38:26Z</time>
      </trkpt>
      <trkpt lat="48.00727" lon="-0.50491">
        <ele>83</ele>
        <time>2024-04-14T08:38:27Z</time>
      </trkpt>
      <trkpt lat="48.00728" lon="-0.505">
        <ele>82.4</ele>
        <time>2024-04-14T08:38:28Z</time>
      </trkpt>
      <trkpt lat="48.00729" lon="-0.50509">
        <ele>82.4</ele>
        <time>2024-04-14T08:38:29Z</time>
      </trkpt>
      <trkpt lat="48.00729" lon="-0.50518">
        <ele>82.4</ele>
        <time>2024-04-14T08:38:30Z</time>
      </trkpt>
      <trkpt lat="48.00731" lon="-0.50527">
        <ele>82.4</ele>
        <time>2024-04-14T08:38:31Z</time>
      </trkpt>
      <trkpt lat="48.00732" lon="-0.50536">
        <ele>81.6</ele>
        <time>2024-04-14T08:38:32Z</time>
      </trkpt>
      <trkpt lat="48.00733" lon="-0.50545">
        <ele>81.6</ele>
        <time>2024-04-14T08:38:33Z</time>
      </trkpt>
      <trkpt lat="48.00734" lon="-0.50553">
        <ele>81.6</ele>
        <time>2024-04-14T08:38:34Z</time>
      </trkpt>
      <trkpt lat="48.00735" lon="-0.50562">
        <ele>81.6</ele>
        <time>2024-04-14T08:38:35Z</time>
      </trkpt>
      <trkpt lat="48.00736" lon="-0.50571">
        <ele>80.6</ele>
        <time>2024-04-14T08:38:36Z</time>
      </trkpt>
      <trkpt lat="48.00737" lon="-0.50578">
        <ele>80.6</ele>
        <time>2024-04-14T08:38:37Z</time>
      </trkpt>
      <trkpt lat="48.00737" lon="-0.50585">
        <ele>80.6</ele>
        <time>2024-04-14T08:38:38Z</time>
      </trkpt>
      <trkpt lat="48.00736" lon="-0.5059">
        <ele>81.6</ele>
        <time>2024-04-14T08:38:39Z</time>
      </trkpt>
      <trkpt lat="48.00733" lon="-0.50594">
        <ele>82.6</ele>
        <time>2024-04-14T08:38:40Z</time>
      </trkpt>
      <trkpt lat="48.0073" lon="-0.50597">
        <ele>82.6</ele>
        <time>2024-04-14T08:38:41Z</time>
      </trkpt>
      <trkpt lat="48.00726" lon="-0.50599">
        <ele>82.6</ele>
        <time>2024-04-14T08:38:42Z</time>
      </trkpt>
      <trkpt lat="48.00723" lon="-0.50602">
        <ele>82.6</ele>
        <time>2024-04-14T08:38:43Z</time>
      </trkpt>
      <trkpt lat="48.0072" lon="-0.50604">
        <ele>82.4</ele>
        <time>2024-04-14T08:38:44Z</time>
      </trkpt>
      <trkpt lat="48.00717" lon="-0.50607">
        <ele>82.4</ele>
        <time>2024-04-14T08:38:45Z</time>
      </trkpt>
      <trkpt lat="48.00714" lon="-0.50609">
        <ele>82.4</ele>
        <time>2024-04-14T08:38:46Z</time>
      </trkpt>
      <trkpt lat="48.00711" lon="-0.5061">
        <ele>82.4</ele>
        <time>2024-04-14T08:38:47Z</time>
      </trkpt>
      <trkpt lat="48.00708" lon="-0.50613">
        <ele>82.2</ele>
        <time>2024-04-14T08:38:48Z</time>
      </trkpt>
      <trkpt lat="48.00705" lon="-0.50615">
        <ele>82.2</ele>
        <time>2024-04-14T08:38:49Z</time>
      </trkpt>
      <trkpt lat="48.00702" lon="-0.50617">
        <ele>82.2</ele>
        <time>2024-04-14T08:38:50Z</time>
      </trkpt>
      <trkpt lat="48.007" lon="-0.5062">
        <ele>82.2</ele>
        <time>2024-04-14T08:38:51Z</time>
      </trkpt>
      <trkpt lat="48.00697" lon="-0.50622">
        <ele>81.6</ele>
        <time>2024-04-14T08:38:52Z</time>
      </trkpt>
      <trkpt lat="48.00694" lon="-0.50625">
        <ele>81.6</ele>
        <time>2024-04-14T08:38:53Z</time>
      </trkpt>
      <trkpt lat="48.00691" lon="-0.50627">
        <ele>81.6</ele>
        <time>2024-04-14T08:38:54Z</time>
      </trkpt>
      <trkpt lat="48.00688" lon="-0.5063">
        <ele>81.6</ele>
        <time>2024-04-14T08:38:55Z</time>
      </trkpt>
      <trkpt lat="48.00685" lon="-0.50632">
        <ele>82.4</ele>
        <time>2024-04-14T08:38:56Z</time>
      </trkpt>
      <trkpt lat="48.00682" lon="-0.50634">
        <ele>82.4</ele>
        <time>2024-04-14T08:38:57Z</time>
      </trkpt>
      <trkpt lat="48.00679" lon="-0.50637">
        <ele>82.4</ele>
        <time>2024-04-14T08:38:58Z</time>
      </trkpt>
      <trkpt lat="48.00676" lon="-0.50639">
        <ele>82.4</ele>
        <time>2024-04-14T08:38:59Z</time>
      </trkpt>
      <trkpt lat="48.00673" lon="-0.50641">
        <ele>81.4</ele>
        <time>2024-04-14T08:39:00Z</time>
      </trkpt>
      <trkpt lat="48.00671" lon="-0.50643">
        <ele>81.4</ele>
        <time>2024-04-14T08:39:01Z</time>
      </trkpt>
      <trkpt lat="48.00668" lon="-0.50646">
        <ele>81.4</ele>
        <time>2024-04-14T08:39:02Z</time>
      </trkpt>
      <trkpt lat="48.00665" lon="-0.50648">
        <ele>82.2</ele>
        <time>2024-04-14T08:39:03Z</time>
      </trkpt>
      <trkpt lat="48.00663" lon="-0.5065">
        <ele>82.6</ele>
        <time>2024-04-14T08:39:04Z</time>
      </trkpt>
      <trkpt lat="48.00661" lon="-0.50651">
        <ele>82.6</ele>
        <time>2024-04-14T08:39:05Z</time>
      </trkpt>
      <trkpt lat="48.00658" lon="-0.50653">
        <ele>82.6</ele>
        <time>2024-04-14T08:39:06Z</time>
      </trkpt>
      <trkpt lat="48.00656" lon="-0.50655">
        <ele>82.6</ele>
        <time>2024-04-14T08:39:07Z</time>
      </trkpt>
      <trkpt lat="48.00654" lon="-0.50656">
        <ele>83.2</ele>
        <time>2024-04-14T08:39:08Z</time>
      </trkpt>
      <trkpt lat="48.00651" lon="-0.50658">
        <ele>83.2</ele>
        <time>2024-04-14T08:39:09Z</time>
      </trkpt>
      <trkpt lat="48.00649" lon="-0.50659">
        <ele>83.2</ele>
        <time>2024-04-14T08:39:10Z</time>
      </trkpt>
      <trkpt lat="48.00646" lon="-0.50661">
        <ele>82.2</ele>
        <time>2024-04-14T08:39:11Z</time>
      </trkpt>
      <trkpt lat="48.00643" lon="-0.50662">
        <ele>83</ele>
        <time>2024-04-14T08:39:12Z</time>
      </trkpt>
      <trkpt lat="48.0064" lon="-0.50664">
        <ele>83</ele>
        <time>2024-04-14T08:39:13Z</time>
      </trkpt>
      <trkpt lat="48.00637" lon="-0.50665">
        <ele>83</ele>
        <time>2024-04-14T08:39:14Z</time>
      </trkpt>
      <trkpt lat="48.00633" lon="-0.50666">
        <ele>83</ele>
        <time>2024-04-14T08:39:15Z</time>
      </trkpt>
      <trkpt lat="48.0063" lon="-0.50667">
        <ele>82.8</ele>
        <time>2024-04-14T08:39:16Z</time>
      </trkpt>
      <trkpt lat="48.00627" lon="-0.50669">
        <ele>82.8</ele>
        <time>2024-04-14T08:39:17Z</time>
      </trkpt>
      <trkpt lat="48.00625" lon="-0.50671">
        <ele>82.8</ele>
        <time>2024-04-14T08:39:18Z</time>
      </trkpt>
      <trkpt lat="48.00622" lon="-0.50672">
        <ele>82.8</ele>
        <time>2024-04-14T08:39:19Z</time>
      </trkpt>
      <trkpt lat="48.00619" lon="-0.50673">
        <ele>83.2</ele>
        <time>2024-04-14T08:39:20Z</time>
      </trkpt>
      <trkpt lat="48.00616" lon="-0.50675">
        <ele>83.2</ele>
        <time>2024-04-14T08:39:21Z</time>
      </trkpt>
      <trkpt lat="48.00614" lon="-0.50677">
        <ele>83.2</ele>
        <time>2024-04-14T08:39:22Z</time>
      </trkpt>
      <trkpt lat="48.0061" lon="-0.50678">
        <ele>83.2</ele>
        <time>2024-04-14T08:39:23Z</time>
      </trkpt>
      <trkpt lat="48.00607" lon="-0.50679">
        <ele>83.2</ele>
        <time>2024-04-14T08:39:24Z</time>
      </trkpt>
      <trkpt lat="48.00605" lon="-0.5068">
        <ele>83.2</ele>
        <time>2024-04-14T08:39:25Z</time>
      </trkpt>
      <trkpt lat="48.00602" lon="-0.5068">
        <ele>83.2</ele>
        <time>2024-04-14T08:39:26Z</time>
      </trkpt>
      <trkpt lat="48.00599" lon="-0.50681">
        <ele>83.2</ele>
        <time>2024-04-14T08:39:27Z</time>
      </trkpt>
      <trkpt lat="48.00596" lon="-0.50681">
        <ele>82.8</ele>
        <time>2024-04-14T08:39:28Z</time>
      </trkpt>
      <trkpt lat="48.00594" lon="-0.50682">
        <ele>82.8</ele>
        <time>2024-04-14T08:39:29Z</time>
      </trkpt>
      <trkpt lat="48.00591" lon="-0.50683">
        <ele>82.8</ele>
        <time>2024-04-14T08:39:30Z</time>
      </trkpt>
      <trkpt lat="48.00588" lon="-0.50684">
        <ele>82.6</ele>
        <time>2024-04-14T08:39:31Z</time>
      </trkpt>
      <trkpt lat="48.00586" lon="-0.50684">
        <ele>83.2</ele>
        <time>2024-04-14T08:39:32Z</time>
      </trkpt>
      <trkpt lat="48.00583" lon="-0.50685">
        <ele>83.2</ele>
        <time>2024-04-14T08:39:33Z</time>
      </trkpt>
      <trkpt lat="48.0058" lon="-0.50686">
        <ele>83.2</ele>
        <time>2024-04-14T08:39:34Z</time>
      </trkpt>
      <trkpt lat="48.00578" lon="-0.50687">
        <ele>83.2</ele>
        <time>2024-04-14T08:39:35Z</time>
      </trkpt>
      <trkpt lat="48.00575" lon="-0.50689">
        <ele>82.4</ele>
        <time>2024-04-14T08:39:36Z</time>
      </trkpt>
      <trkpt lat="48.00572" lon="-0.5069">
        <ele>82.4</ele>
        <time>2024-04-14T08:39:37Z</time>
      </trkpt>
      <trkpt lat="48.0057" lon="-0.50691">
        <ele>82.4</ele>
        <time>2024-04-14T08:39:38Z</time>
      </trkpt>
      <trkpt lat="48.00568" lon="-0.50691">
        <ele>82.4</ele>
        <time>2024-04-14T08:39:39Z</time>
      </trkpt>
      <trkpt lat="48.00566" lon="-0.50692">
        <ele>83</ele>
        <time>2024-04-14T08:39:40Z</time>
      </trkpt>
      <trkpt lat="48.00564" lon="-0.50693">
        <ele>83</ele>
        <time>2024-04-14T08:39:41Z</time>
      </trkpt>
      <trkpt lat="48.00561" lon="-0.50693">
        <ele>83</ele>
        <time>2024-04-14T08:39:42Z</time>
      </trkpt>
      <trkpt lat="48.00559" lon="-0.50693">
        <ele>83</ele>
        <time>2024-04-14T08:39:43Z</time>
      </trkpt>
      <trkpt lat="48.00557" lon="-0.50693">
        <ele>82.2</ele>
        <time>2024-04-14T08:39:44Z</time>
      </trkpt>
      <trkpt lat="48.00555" lon="-0.50694">
        <ele>82.2</ele>
        <time>2024-04-14T08:39:45Z</time>
      </trkpt>
      <trkpt lat="48.00553" lon="-0.50695">
        <ele>82.2</ele>
        <time>2024-04-14T08:39:46Z</time>
      </trkpt>
      <trkpt lat="48.00551" lon="-0.50696">
        <ele>82.2</ele>
        <time>2024-04-14T08:39:47Z</time>
      </trkpt>
      <trkpt lat="48.00549" lon="-0.50696">
        <ele>82</ele>
        <time>2024-04-14T08:39:48Z</time>
      </trkpt>
      <trkpt lat="48.00546" lon="-0.50697">
        <ele>82</ele>
        <time>2024-04-14T08:39:49Z</time>
      </trkpt>
      <trkpt lat="48.00544" lon="-0.50698">
        <ele>82</ele>
        <time>2024-04-14T08:39:50Z</time>
      </trkpt>
      <trkpt lat="48.00541" lon="-0.50699">
        <ele>82.4</ele>
        <time>2024-04-14T08:39:51Z</time>
      </trkpt>
      <trkpt lat="48.00539" lon="-0.507">
        <ele>82.2</ele>
        <time>2024-04-14T08:39:52Z</time>
      </trkpt>
      <trkpt lat="48.00536" lon="-0.50701">
        <ele>82.2</ele>
        <time>2024-04-14T08:39:53Z</time>
      </trkpt>
      <trkpt lat="48.00533" lon="-0.50701">
        <ele>82.2</ele>
        <time>2024-04-14T08:39:54Z</time>
      </trkpt>
      <trkpt lat="48.0053" lon="-0.50702">
        <ele>81.2</ele>
        <time>2024-04-14T08:39:55Z</time>
      </trkpt>
      <trkpt lat="48.00527" lon="-0.50703">
        <ele>81</ele>
        <time>2024-04-14T08:39:56Z</time>
      </trkpt>
      <trkpt lat="48.00524" lon="-0.50704">
        <ele>81</ele>
        <time>2024-04-14T08:39:57Z</time>
      </trkpt>
      <trkpt lat="48.00521" lon="-0.50704">
        <ele>81</ele>
        <time>2024-04-14T08:39:58Z</time>
      </trkpt>
      <trkpt lat="48.00518" lon="-0.50705">
        <ele>81</ele>
        <time>2024-04-14T08:39:59Z</time>
      </trkpt>
      <trkpt lat="48.00515" lon="-0.50705">
        <ele>81</ele>
        <time>2024-04-14T08:40:00Z</time>
      </trkpt>
      <trkpt lat="48.00512" lon="-0.50706">
        <ele>81</ele>
        <time>2024-04-14T08:40:01Z</time>
      </trkpt>
      <trkpt lat="48.00509" lon="-0.50706">
        <ele>81</ele>
        <time>2024-04-14T08:40:02Z</time>
      </trkpt>
      <trkpt lat="48.00507" lon="-0.50706">
        <ele>81</ele>
        <time>2024-04-14T08:40:03Z</time>
      </trkpt>
      <trkpt lat="48.00505" lon="-0.50707">
        <ele>80.4</ele>
        <time>2024-04-14T08:40:04Z</time>
      </trkpt>
      <trkpt lat="48.00503" lon="-0.50708">
        <ele>80.4</ele>
        <time>2024-04-14T08:40:05Z</time>
      </trkpt>
      <trkpt lat="48.005" lon="-0.50708">
        <ele>80.4</ele>
        <time>2024-04-14T08:40:06Z</time>
      </trkpt>
      <trkpt lat="48.00498" lon="-0.50709">
        <ele>81</ele>
        <time>2024-04-14T08:40:07Z</time>
      </trkpt>
      <trkpt lat="48.00496" lon="-0.50709">
        <ele>80</ele>
        <time>2024-04-14T08:40:08Z</time>
      </trkpt>
      <trkpt lat="48.00493" lon="-0.50709">
        <ele>80</ele>
        <time>2024-04-14T08:40:09Z</time>
      </trkpt>
      <trkpt lat="48.00491" lon="-0.50709">
        <ele>80</ele>
        <time>2024-04-14T08:40:10Z</time>
      </trkpt>
      <trkpt lat="48.00489" lon="-0.50709">
        <ele>80.6</ele>
        <time>2024-04-14T08:40:11Z</time>
      </trkpt>
      <trkpt lat="48.00487" lon="-0.50709">
        <ele>80.8</ele>
        <time>2024-04-14T08:40:12Z</time>
      </trkpt>
      <trkpt lat="48.00484" lon="-0.50709">
        <ele>80.8</ele>
        <time>2024-04-14T08:40:13Z</time>
      </trkpt>
      <trkpt lat="48.00482" lon="-0.50708">
        <ele>80.8</ele>
        <time>2024-04-14T08:40:14Z</time>
      </trkpt>
      <trkpt lat="48.0048" lon="-0.50709">
        <ele>80.4</ele>
        <time>2024-04-14T08:40:15Z</time>
      </trkpt>
      <trkpt lat="48.00479" lon="-0.50709">
        <ele>79.2</ele>
        <time>2024-04-14T08:40:16Z</time>
      </trkpt>
      <trkpt lat="48.00477" lon="-0.5071">
        <ele>79.2</ele>
        <time>2024-04-14T08:40:17Z</time>
      </trkpt>
      <trkpt lat="48.00476" lon="-0.50711">
        <ele>79.2</ele>
        <time>2024-04-14T08:40:18Z</time>
      </trkpt>
      <trkpt lat="48.00475" lon="-0.50712">
        <ele>79.2</ele>
        <time>2024-04-14T08:40:19Z</time>
      </trkpt>
      <trkpt lat="48.00473" lon="-0.50712">
        <ele>79.2</ele>
        <time>2024-04-14T08:40:20Z</time>
      </trkpt>
      <trkpt lat="48.00471" lon="-0.50713">
        <ele>79.2</ele>
        <time>2024-04-14T08:40:21Z</time>
      </trkpt>
      <trkpt lat="48.00468" lon="-0.50714">
        <ele>79.2</ele>
        <time>2024-04-14T08:40:22Z</time>
      </trkpt>
      <trkpt lat="48.00466" lon="-0.50715">
        <ele>79.2</ele>
        <time>2024-04-14T08:40:23Z</time>
      </trkpt>
      <trkpt lat="48.00464" lon="-0.50715">
        <ele>79</ele>
        <time>2024-04-14T08:40:24Z</time>
      </trkpt>
      <trkpt lat="48.00463" lon="-0.50715">
        <ele>79</ele>
        <time>2024-04-14T08:40:25Z</time>
      </trkpt>
      <trkpt lat="48.00461" lon="-0.50715">
        <ele>79</ele>
        <time>2024-04-14T08:40:26Z</time>
      </trkpt>
      <trkpt lat="48.00459" lon="-0.50715">
        <ele>79</ele>
        <time>2024-04-14T08:40:27Z</time>
      </trkpt>
      <trkpt lat="48.00458" lon="-0.50716">
        <ele>78.6</ele>
        <time>2024-04-14T08:40:28Z</time>
      </trkpt>
      <trkpt lat="48.00456" lon="-0.50716">
        <ele>78.6</ele>
        <time>2024-04-14T08:40:29Z</time>
      </trkpt>
      <trkpt lat="48.00454" lon="-0.50716">
        <ele>78.6</ele>
        <time>2024-04-14T08:40:30Z</time>
      </trkpt>
      <trkpt lat="48.00452" lon="-0.50716">
        <ele>78.4</ele>
        <time>2024-04-14T08:40:31Z</time>
      </trkpt>
      <trkpt lat="48.00451" lon="-0.50715">
        <ele>78</ele>
        <time>2024-04-14T08:40:32Z</time>
      </trkpt>
      <trkpt lat="48.0045" lon="-0.50715">
        <ele>78</ele>
        <time>2024-04-14T08:40:33Z</time>
      </trkpt>
      <trkpt lat="48.00449" lon="-0.50716">
        <ele>78</ele>
        <time>2024-04-14T08:40:34Z</time>
      </trkpt>
      <trkpt lat="48.00448" lon="-0.50716">
        <ele>78.2</ele>
        <time>2024-04-14T08:40:35Z</time>
      </trkpt>
      <trkpt lat="48.00447" lon="-0.50716">
        <ele>78.2</ele>
        <time>2024-04-14T08:40:36Z</time>
      </trkpt>
      <trkpt lat="48.00446" lon="-0.50716">
        <ele>78.2</ele>
        <time>2024-04-14T08:40:37Z</time>
      </trkpt>
      <trkpt lat="48.00445" lon="-0.50715">
        <ele>78.2</ele>
        <time>2024-04-14T08:40:38Z</time>
      </trkpt>
      <trkpt lat="48.00444" lon="-0.50715">
        <ele>78.2</ele>
        <time>2024-04-14T08:40:39Z</time>
      </trkpt>
      <trkpt lat="48.00442" lon="-0.50715">
        <ele>78.2</ele>
        <time>2024-04-14T08:40:40Z</time>
      </trkpt>
      <trkpt lat="48.0044" lon="-0.50716">
        <ele>78.2</ele>
        <time>2024-04-14T08:40:41Z</time>
      </trkpt>
      <trkpt lat="48.00439" lon="-0.50716">
        <ele>78.2</ele>
        <time>2024-04-14T08:40:42Z</time>
      </trkpt>
      <trkpt lat="48.00439" lon="-0.50716">
        <ele>78.4</ele>
        <time>2024-04-14T08:40:43Z</time>
      </trkpt>
      <trkpt lat="48.00438" lon="-0.50716">
        <ele>78.4</ele>
        <time>2024-04-14T08:40:44Z</time>
      </trkpt>
      <trkpt lat="48.00437" lon="-0.50715">
        <ele>78.4</ele>
        <time>2024-04-14T08:40:45Z</time>
      </trkpt>
      <trkpt lat="48.00437" lon="-0.50715">
        <ele>78.4</ele>
        <time>2024-04-14T08:40:46Z</time>
      </trkpt>
      <trkpt lat="48.00425" lon="-0.50715">
        <ele>78.4</ele>
        <time>2024-04-14T08:40:58Z</time>
      </trkpt>
      <trkpt lat="48.00423" lon="-0.50715">
        <ele>78.2</ele>
        <time>2024-04-14T08:40:59Z</time>
      </trkpt>
      <trkpt lat="48.0042" lon="-0.50716">
        <ele>78</ele>
        <time>2024-04-14T08:41:00Z</time>
      </trkpt>
      <trkpt lat="48.00419" lon="-0.50716">
        <ele>78</ele>
        <time>2024-04-14T08:41:01Z</time>
      </trkpt>
      <trkpt lat="48.00417" lon="-0.50717">
        <ele>78</ele>
        <time>2024-04-14T08:41:02Z</time>
      </trkpt>
      <trkpt lat="48.00415" lon="-0.50718">
        <ele>77.6</ele>
        <time>2024-04-14T08:41:03Z</time>
      </trkpt>
      <trkpt lat="48.00412" lon="-0.50718">
        <ele>78.2</ele>
        <time>2024-04-14T08:41:04Z</time>
      </trkpt>
      <trkpt lat="48.0041" lon="-0.50718">
        <ele>78.2</ele>
        <time>2024-04-14T08:41:05Z</time>
      </trkpt>
      <trkpt lat="48.00408" lon="-0.50718">
        <ele>78.2</ele>
        <time>2024-04-14T08:41:06Z</time>
      </trkpt>
      <trkpt lat="48.00406" lon="-0.50718">
        <ele>77.2</ele>
        <time>2024-04-14T08:41:07Z</time>
      </trkpt>
      <trkpt lat="48.00404" lon="-0.50718">
        <ele>77.2</ele>
        <time>2024-04-14T08:41:08Z</time>
      </trkpt>
      <trkpt lat="48.00402" lon="-0.50719">
        <ele>77.2</ele>
        <time>2024-04-14T08:41:09Z</time>
      </trkpt>
      <trkpt lat="48.00399" lon="-0.50719">
        <ele>77.2</ele>
        <time>2024-04-14T08:41:10Z</time>
      </trkpt>
      <trkpt lat="48.00397" lon="-0.5072">
        <ele>77.2</ele>
        <time>2024-04-14T08:41:11Z</time>
      </trkpt>
      <trkpt lat="48.00395" lon="-0.5072">
        <ele>77.6</ele>
        <time>2024-04-14T08:41:12Z</time>
      </trkpt>
      <trkpt lat="48.00393" lon="-0.50721">
        <ele>77.6</ele>
        <time>2024-04-14T08:41:13Z</time>
      </trkpt>
      <trkpt lat="48.00391" lon="-0.50722">
        <ele>77.6</ele>
        <time>2024-04-14T08:41:14Z</time>
      </trkpt>
      <trkpt lat="48.00388" lon="-0.50722">
        <ele>77.2</ele>
        <time>2024-04-14T08:41:15Z</time>
      </trkpt>
      <trkpt lat="48.00386" lon="-0.50722">
        <ele>76.4</ele>
        <time>2024-04-14T08:41:16Z</time>
      </trkpt>
      <trkpt lat="48.00384" lon="-0.50722">
        <ele>76.4</ele>
        <time>2024-04-14T08:41:17Z</time>
      </trkpt>
      <trkpt lat="48.00381" lon="-0.50722">
        <ele>76.4</ele>
        <time>2024-04-14T08:41:18Z</time>
      </trkpt>
      <trkpt lat="48.0038" lon="-0.50721">
        <ele>76.4</ele>
        <time>2024-04-14T08:41:19Z</time>
      </trkpt>
      <trkpt lat="48.00377" lon="-0.50722">
        <ele>76</ele>
        <time>2024-04-14T08:41:20Z</time>
      </trkpt>
      <trkpt lat="48.00375" lon="-0.50722">
        <ele>76</ele>
        <time>2024-04-14T08:41:21Z</time>
      </trkpt>
      <trkpt lat="48.00373" lon="-0.50723">
        <ele>76</ele>
        <time>2024-04-14T08:41:22Z</time>
      </trkpt>
      <trkpt lat="48.0037" lon="-0.50723">
        <ele>76</ele>
        <time>2024-04-14T08:41:23Z</time>
      </trkpt>
      <trkpt lat="48.00369" lon="-0.50723">
        <ele>75.8</ele>
        <time>2024-04-14T08:41:24Z</time>
      </trkpt>
      <trkpt lat="48.00367" lon="-0.50723">
        <ele>75.8</ele>
        <time>2024-04-14T08:41:25Z</time>
      </trkpt>
      <trkpt lat="48.00365" lon="-0.50724">
        <ele>75.8</ele>
        <time>2024-04-14T08:41:26Z</time>
      </trkpt>
      <trkpt lat="48.00363" lon="-0.50724">
        <ele>75.8</ele>
        <time>2024-04-14T08:41:27Z</time>
      </trkpt>
      <trkpt lat="48.00362" lon="-0.50725">
        <ele>76</ele>
        <time>2024-04-14T08:41:28Z</time>
      </trkpt>
      <trkpt lat="48.0036" lon="-0.50727">
        <ele>76</ele>
        <time>2024-04-14T08:41:29Z</time>
      </trkpt>
      <trkpt lat="48.00357" lon="-0.50729">
        <ele>76</ele>
        <time>2024-04-14T08:41:30Z</time>
      </trkpt>
      <trkpt lat="48.00355" lon="-0.5073">
        <ele>75.2</ele>
        <time>2024-04-14T08:41:31Z</time>
      </trkpt>
      <trkpt lat="48.00354" lon="-0.50732">
        <ele>74.8</ele>
        <time>2024-04-14T08:41:32Z</time>
      </trkpt>
      <trkpt lat="48.00352" lon="-0.50734">
        <ele>74.8</ele>
        <time>2024-04-14T08:41:33Z</time>
      </trkpt>
      <trkpt lat="48.0035" lon="-0.50736">
        <ele>74.8</ele>
        <time>2024-04-14T08:41:34Z</time>
      </trkpt>
      <trkpt lat="48.00348" lon="-0.50738">
        <ele>74.8</ele>
        <time>2024-04-14T08:41:35Z</time>
      </trkpt>
      <trkpt lat="48.00346" lon="-0.50739">
        <ele>75.4</ele>
        <time>2024-04-14T08:41:36Z</time>
      </trkpt>
      <trkpt lat="48.00345" lon="-0.50741">
        <ele>75.4</ele>
        <time>2024-04-14T08:41:37Z</time>
      </trkpt>
      <trkpt lat="48.00343" lon="-0.50743">
        <ele>75.4</ele>
        <time>2024-04-14T08:41:38Z</time>
      </trkpt>
      <trkpt lat="48.00342" lon="-0.50744">
        <ele>75.4</ele>
        <time>2024-04-14T08:41:39Z</time>
      </trkpt>
      <trkpt lat="48.0034" lon="-0.50746">
        <ele>75.4</ele>
        <time>2024-04-14T08:41:40Z</time>
      </trkpt>
      <trkpt lat="48.00338" lon="-0.50748">
        <ele>75.4</ele>
        <time>2024-04-14T08:41:41Z</time>
      </trkpt>
      <trkpt lat="48.00337" lon="-0.5075">
        <ele>75.4</ele>
        <time>2024-04-14T08:41:42Z</time>
      </trkpt>
      <trkpt lat="48.00335" lon="-0.50751">
        <ele>75.4</ele>
        <time>2024-04-14T08:41:43Z</time>
      </trkpt>
      <trkpt lat="48.00333" lon="-0.50753">
        <ele>75.6</ele>
        <time>2024-04-14T08:41:44Z</time>
      </trkpt>
      <trkpt lat="48.00332" lon="-0.50754">
        <ele>75.6</ele>
        <time>2024-04-14T08:41:45Z</time>
      </trkpt>
      <trkpt lat="48.0033" lon="-0.50756">
        <ele>75.6</ele>
        <time>2024-04-14T08:41:46Z</time>
      </trkpt>
      <trkpt lat="48.00328" lon="-0.50757">
        <ele>74.6</ele>
        <time>2024-04-14T08:41:47Z</time>
      </trkpt>
      <trkpt lat="48.00326" lon="-0.5076">
        <ele>75.6</ele>
        <time>2024-04-14T08:41:48Z</time>
      </trkpt>
      <trkpt lat="48.00323" lon="-0.50763">
        <ele>75.6</ele>
        <time>2024-04-14T08:41:49Z</time>
      </trkpt>
      <trkpt lat="48.00322" lon="-0.50765">
        <ele>75.6</ele>
        <time>2024-04-14T08:41:50Z</time>
      </trkpt>
      <trkpt lat="48.0032" lon="-0.50768">
        <ele>74.6</ele>
        <time>2024-04-14T08:41:51Z</time>
      </trkpt>
      <trkpt lat="48.00318" lon="-0.5077">
        <ele>75.8</ele>
        <time>2024-04-14T08:41:52Z</time>
      </trkpt>
      <trkpt lat="48.00316" lon="-0.50773">
        <ele>75.8</ele>
        <time>2024-04-14T08:41:53Z</time>
      </trkpt>
      <trkpt lat="48.00314" lon="-0.50775">
        <ele>75.8</ele>
        <time>2024-04-14T08:41:54Z</time>
      </trkpt>
      <trkpt lat="48.00311" lon="-0.50778">
        <ele>75.8</ele>
        <time>2024-04-14T08:41:55Z</time>
      </trkpt>
      <trkpt lat="48.00309" lon="-0.50779">
        <ele>77.6</ele>
        <time>2024-04-14T08:41:56Z</time>
      </trkpt>
      <trkpt lat="48.00306" lon="-0.50781">
        <ele>77.6</ele>
        <time>2024-04-14T08:41:57Z</time>
      </trkpt>
      <trkpt lat="48.00304" lon="-0.5078">
        <ele>77.6</ele>
        <time>2024-04-14T08:41:58Z</time>
      </trkpt>
      <trkpt lat="48.00302" lon="-0.50779">
        <ele>76.8</ele>
        <time>2024-04-14T08:41:59Z</time>
      </trkpt>
      <trkpt lat="48.003" lon="-0.50776">
        <ele>76.6</ele>
        <time>2024-04-14T08:42:00Z</time>
      </trkpt>
      <trkpt lat="48.00298" lon="-0.50772">
        <ele>76.6</ele>
        <time>2024-04-14T08:42:01Z</time>
      </trkpt>
      <trkpt lat="48.00297" lon="-0.50768">
        <ele>76.6</ele>
        <time>2024-04-14T08:42:02Z</time>
      </trkpt>
      <trkpt lat="48.00295" lon="-0.50764">
        <ele>76.2</ele>
        <time>2024-04-14T08:42:03Z</time>
      </trkpt>
      <trkpt lat="48.00294" lon="-0.50759">
        <ele>76.4</ele>
        <time>2024-04-14T08:42:04Z</time>
      </trkpt>
      <trkpt lat="48.00293" lon="-0.50754">
        <ele>76.4</ele>
        <time>2024-04-14T08:42:05Z</time>
      </trkpt>
      <trkpt lat="48.00292" lon="-0.50749">
        <ele>76.4</ele>
        <time>2024-04-14T08:42:06Z</time>
      </trkpt>
      <trkpt lat="48.00292" lon="-0.50744">
        <ele>76.2</ele>
        <time>2024-04-14T08:42:07Z</time>
      </trkpt>
      <trkpt lat="48.00291" lon="-0.50738">
        <ele>76.2</ele>
        <time>2024-04-14T08:42:08Z</time>
      </trkpt>
      <trkpt lat="48.0029" lon="-0.50733">
        <ele>76.2</ele>
        <time>2024-04-14T08:42:09Z</time>
      </trkpt>
      <trkpt lat="48.00288" lon="-0.50727">
        <ele>76.2</ele>
        <time>2024-04-14T08:42:10Z</time>
      </trkpt>
      <trkpt lat="48.00287" lon="-0.50722">
        <ele>76.2</ele>
        <time>2024-04-14T08:42:11Z</time>
      </trkpt>
      <trkpt lat="48.00286" lon="-0.50716">
        <ele>75.6</ele>
        <time>2024-04-14T08:42:12Z</time>
      </trkpt>
      <trkpt lat="48.00285" lon="-0.50709">
        <ele>75.6</ele>
        <time>2024-04-14T08:42:13Z</time>
      </trkpt>
      <trkpt lat="48.00284" lon="-0.50703">
        <ele>75.6</ele>
        <time>2024-04-14T08:42:14Z</time>
      </trkpt>
      <trkpt lat="48.00283" lon="-0.50697">
        <ele>76</ele>
        <time>2024-04-14T08:42:15Z</time>
      </trkpt>
      <trkpt lat="48.00282" lon="-0.50691">
        <ele>76.6</ele>
        <time>2024-04-14T08:42:16Z</time>
      </trkpt>
      <trkpt lat="48.00281" lon="-0.50685">
        <ele>76.6</ele>
        <time>2024-04-14T08:42:17Z</time>
      </trkpt>
      <trkpt lat="48.00279" lon="-0.50679">
        <ele>76.6</ele>
        <time>2024-04-14T08:42:18Z</time>
      </trkpt>
      <trkpt lat="48.00277" lon="-0.50673">
        <ele>77.2</ele>
        <time>2024-04-14T08:42:19Z</time>
      </trkpt>
      <trkpt lat="48.00274" lon="-0.50669">
        <ele>77.6</ele>
        <time>2024-04-14T08:42:20Z</time>
      </trkpt>
      <trkpt lat="48.0027" lon="-0.50665">
        <ele>77.6</ele>
        <time>2024-04-14T08:42:21Z</time>
      </trkpt>
      <trkpt lat="48.00266" lon="-0.50664">
        <ele>77.6</ele>
        <time>2024-04-14T08:42:22Z</time>
      </trkpt>
      <trkpt lat="48.00261" lon="-0.50664">
        <ele>77.6</ele>
        <time>2024-04-14T08:42:23Z</time>
      </trkpt>
      <trkpt lat="48.00256" lon="-0.50664">
        <ele>77.2</ele>
        <time>2024-04-14T08:42:24Z</time>
      </trkpt>
      <trkpt lat="48.00252" lon="-0.50664">
        <ele>77.2</ele>
        <time>2024-04-14T08:42:25Z</time>
      </trkpt>
      <trkpt lat="48.00247" lon="-0.50665">
        <ele>77.2</ele>
        <time>2024-04-14T08:42:26Z</time>
      </trkpt>
      <trkpt lat="48.00242" lon="-0.50666">
        <ele>77.2</ele>
        <time>2024-04-14T08:42:27Z</time>
      </trkpt>
      <trkpt lat="48.00237" lon="-0.50666">
        <ele>77.8</ele>
        <time>2024-04-14T08:42:28Z</time>
      </trkpt>
      <trkpt lat="48.00232" lon="-0.50666">
        <ele>77.8</ele>
        <time>2024-04-14T08:42:29Z</time>
      </trkpt>
      <trkpt lat="48.00227" lon="-0.50666">
        <ele>77.8</ele>
        <time>2024-04-14T08:42:30Z</time>
      </trkpt>
      <trkpt lat="48.00222" lon="-0.50666">
        <ele>78</ele>
        <time>2024-04-14T08:42:31Z</time>
      </trkpt>
      <trkpt lat="48.00217" lon="-0.50667">
        <ele>77.4</ele>
        <time>2024-04-14T08:42:32Z</time>
      </trkpt>
      <trkpt lat="48.00212" lon="-0.50667">
        <ele>77.4</ele>
        <time>2024-04-14T08:42:33Z</time>
      </trkpt>
      <trkpt lat="48.00207" lon="-0.50667">
        <ele>77.4</ele>
        <time>2024-04-14T08:42:34Z</time>
      </trkpt>
      <trkpt lat="48.00201" lon="-0.50667">
        <ele>77.4</ele>
        <time>2024-04-14T08:42:35Z</time>
      </trkpt>
      <trkpt lat="48.00196" lon="-0.50668">
        <ele>76.8</ele>
        <time>2024-04-14T08:42:36Z</time>
      </trkpt>
      <trkpt lat="48.0019" lon="-0.50669">
        <ele>76.8</ele>
        <time>2024-04-14T08:42:37Z</time>
      </trkpt>
      <trkpt lat="48.00185" lon="-0.5067">
        <ele>76.8</ele>
        <time>2024-04-14T08:42:38Z</time>
      </trkpt>
      <trkpt lat="48.00179" lon="-0.50671">
        <ele>77</ele>
        <time>2024-04-14T08:42:39Z</time>
      </trkpt>
      <trkpt lat="48.00173" lon="-0.50672">
        <ele>77</ele>
        <time>2024-04-14T08:42:40Z</time>
      </trkpt>
      <trkpt lat="48.00167" lon="-0.50672">
        <ele>77</ele>
        <time>2024-04-14T08:42:41Z</time>
      </trkpt>
      <trkpt lat="48.00161" lon="-0.50673">
        <ele>77</ele>
        <time>2024-04-14T08:42:42Z</time>
      </trkpt>
      <trkpt lat="48.00155" lon="-0.50674">
        <ele>76.6</ele>
        <time>2024-04-14T08:42:43Z</time>
      </trkpt>
      <trkpt lat="48.0015" lon="-0.50676">
        <ele>76.2</ele>
        <time>2024-04-14T08:42:44Z</time>
      </trkpt>
      <trkpt lat="48.00143" lon="-0.50677">
        <ele>76.2</ele>
        <time>2024-04-14T08:42:45Z</time>
      </trkpt>
      <trkpt lat="48.00137" lon="-0.50678">
        <ele>76.2</ele>
        <time>2024-04-14T08:42:46Z</time>
      </trkpt>
      <trkpt lat="48.00131" lon="-0.5068">
        <ele>76.2</ele>
        <time>2024-04-14T08:42:47Z</time>
      </trkpt>
      <trkpt lat="48.00124" lon="-0.50681">
        <ele>76</ele>
        <time>2024-04-14T08:42:48Z</time>
      </trkpt>
      <trkpt lat="48.00118" lon="-0.50682">
        <ele>76</ele>
        <time>2024-04-14T08:42:49Z</time>
      </trkpt>
      <trkpt lat="48.00111" lon="-0.50684">
        <ele>76</ele>
        <time>2024-04-14T08:42:50Z</time>
      </trkpt>
      <trkpt lat="48.00105" lon="-0.50686">
        <ele>75.2</ele>
        <time>2024-04-14T08:42:51Z</time>
      </trkpt>
      <trkpt lat="48.00098" lon="-0.50688">
        <ele>75.4</ele>
        <time>2024-04-14T08:42:52Z</time>
      </trkpt>
      <trkpt lat="48.00091" lon="-0.50689">
        <ele>75.4</ele>
        <time>2024-04-14T08:42:53Z</time>
      </trkpt>
      <trkpt lat="48.00084" lon="-0.50691">
        <ele>75.4</ele>
        <time>2024-04-14T08:42:54Z</time>
      </trkpt>
      <trkpt lat="48.00077" lon="-0.50692">
        <ele>74.8</ele>
        <time>2024-04-14T08:42:55Z</time>
      </trkpt>
      <trkpt lat="48.0007" lon="-0.50694">
        <ele>73.6</ele>
        <time>2024-04-14T08:42:56Z</time>
      </trkpt>
      <trkpt lat="48.00063" lon="-0.50695">
        <ele>73.6</ele>
        <time>2024-04-14T08:42:57Z</time>
      </trkpt>
      <trkpt lat="48.00056" lon="-0.50697">
        <ele>73.6</ele>
        <time>2024-04-14T08:42:58Z</time>
      </trkpt>
      <trkpt lat="48.00049" lon="-0.50698">
        <ele>73.6</ele>
        <time>2024-04-14T08:42:59Z</time>
      </trkpt>
      <trkpt lat="48.00042" lon="-0.507">
        <ele>72.6</ele>
        <time>2024-04-14T08:43:00Z</time>
      </trkpt>
      <trkpt lat="48.00035" lon="-0.50701">
        <ele>72.6</ele>
        <time>2024-04-14T08:43:01Z</time>
      </trkpt>
      <trkpt lat="48.00029" lon="-0.50703">
        <ele>72.6</ele>
        <time>2024-04-14T08:43:02Z</time>
      </trkpt>
      <trkpt lat="48.00022" lon="-0.50704">
        <ele>72.8</ele>
        <time>2024-04-14T08:43:03Z</time>
      </trkpt>
      <trkpt lat="48.00015" lon="-0.50706">
        <ele>73.6</ele>
        <time>2024-04-14T08:43:04Z</time>
      </trkpt>
      <trkpt lat="48.00007" lon="-0.50708">
        <ele>73.6</ele>
        <time>2024-04-14T08:43:05Z</time>
      </trkpt>
      <trkpt lat="48" lon="-0.50709">
        <ele>73.6</ele>
        <time>2024-04-14T08:43:06Z</time>
      </trkpt>
      <trkpt lat="47.99993" lon="-0.5071">
        <ele>72.6</ele>
        <time>2024-04-14T08:43:07Z</time>
      </trkpt>
      <trkpt lat="47.99986" lon="-0.50712">
        <ele>72.2</ele>
        <time>2024-04-14T08:43:08Z</time>
      </trkpt>
      <trkpt lat="47.99979" lon="-0.50714">
        <ele>72.2</ele>
        <time>2024-04-14T08:43:09Z</time>
      </trkpt>
      <trkpt lat="47.99972" lon="-0.50715">
        <ele>72.2</ele>
        <time>2024-04-14T08:43:10Z</time>
      </trkpt>
      <trkpt lat="47.99965" lon="-0.50717">
        <ele>71.2</ele>
        <time>2024-04-14T08:43:11Z</time>
      </trkpt>
      <trkpt lat="47.99958" lon="-0.50719">
        <ele>71.2</ele>
        <time>2024-04-14T08:43:12Z</time>
      </trkpt>
      <trkpt lat="47.99951" lon="-0.50721">
        <ele>71.2</ele>
        <time>2024-04-14T08:43:13Z</time>
      </trkpt>
      <trkpt lat="47.99944" lon="-0.50722">
        <ele>71.2</ele>
        <time>2024-04-14T08:43:14Z</time>
      </trkpt>
      <trkpt lat="47.99937" lon="-0.50724">
        <ele>71.2</ele>
        <time>2024-04-14T08:43:15Z</time>
      </trkpt>
      <trkpt lat="47.9993" lon="-0.50725">
        <ele>71.6</ele>
        <time>2024-04-14T08:43:16Z</time>
      </trkpt>
      <trkpt lat="47.99923" lon="-0.50727">
        <ele>71.6</ele>
        <time>2024-04-14T08:43:17Z</time>
      </trkpt>
      <trkpt lat="47.99916" lon="-0.50728">
        <ele>71.6</ele>
        <time>2024-04-14T08:43:18Z</time>
      </trkpt>
      <trkpt lat="47.99909" lon="-0.5073">
        <ele>71</ele>
        <time>2024-04-14T08:43:19Z</time>
      </trkpt>
      <trkpt lat="47.99903" lon="-0.50732">
        <ele>70.6</ele>
        <time>2024-04-14T08:43:20Z</time>
      </trkpt>
      <trkpt lat="47.99896" lon="-0.50733">
        <ele>70.6</ele>
        <time>2024-04-14T08:43:21Z</time>
      </trkpt>
      <trkpt lat="47.9989" lon="-0.50735">
        <ele>70.6</ele>
        <time>2024-04-14T08:43:22Z</time>
      </trkpt>
      <trkpt lat="47.99884" lon="-0.50736">
        <ele>71.6</ele>
        <time>2024-04-14T08:43:23Z</time>
      </trkpt>
      <trkpt lat="47.99877" lon="-0.50738">
        <ele>71.4</ele>
        <time>2024-04-14T08:43:24Z</time>
      </trkpt>
      <trkpt lat="47.99871" lon="-0.50739">
        <ele>71.4</ele>
        <time>2024-04-14T08:43:25Z</time>
      </trkpt>
      <trkpt lat="47.99866" lon="-0.5074">
        <ele>71.4</ele>
        <time>2024-04-14T08:43:26Z</time>
      </trkpt>
      <trkpt lat="47.9986" lon="-0.50741">
        <ele>72.4</ele>
        <time>2024-04-14T08:43:27Z</time>
      </trkpt>
      <trkpt lat="47.99854" lon="-0.50742">
        <ele>72.6</ele>
        <time>2024-04-14T08:43:28Z</time>
      </trkpt>
      <trkpt lat="47.99848" lon="-0.50743">
        <ele>72.6</ele>
        <time>2024-04-14T08:43:29Z</time>
      </trkpt>
      <trkpt lat="47.99842" lon="-0.50745">
        <ele>72.6</ele>
        <time>2024-04-14T08:43:30Z</time>
      </trkpt>
      <trkpt lat="47.99837" lon="-0.50746">
        <ele>73.2</ele>
        <time>2024-04-14T08:43:31Z</time>
      </trkpt>
      <trkpt lat="47.99831" lon="-0.50747">
        <ele>73</ele>
        <time>2024-04-14T08:43:32Z</time>
      </trkpt>
      <trkpt lat="47.99825" lon="-0.50749">
        <ele>73</ele>
        <time>2024-04-14T08:43:33Z</time>
      </trkpt>
      <trkpt lat="47.9982" lon="-0.5075">
        <ele>73</ele>
        <time>2024-04-14T08:43:34Z</time>
      </trkpt>
      <trkpt lat="47.99814" lon="-0.50751">
        <ele>73</ele>
        <time>2024-04-14T08:43:35Z</time>
      </trkpt>
      <trkpt lat="47.99809" lon="-0.50753">
        <ele>73.4</ele>
        <time>2024-04-14T08:43:36Z</time>
      </trkpt>
      <trkpt lat="47.99803" lon="-0.50754">
        <ele>73.4</ele>
        <time>2024-04-14T08:43:37Z</time>
      </trkpt>
      <trkpt lat="47.99797" lon="-0.50755">
        <ele>73.4</ele>
        <time>2024-04-14T08:43:38Z</time>
      </trkpt>
      <trkpt lat="47.99792" lon="-0.50756">
        <ele>74.4</ele>
        <time>2024-04-14T08:43:39Z</time>
      </trkpt>
      <trkpt lat="47.99786" lon="-0.50757">
        <ele>74.6</ele>
        <time>2024-04-14T08:43:40Z</time>
      </trkpt>
      <trkpt lat="47.99781" lon="-0.50758">
        <ele>74.6</ele>
        <time>2024-04-14T08:43:41Z</time>
      </trkpt>
      <trkpt lat="47.99775" lon="-0.5076">
        <ele>74.6</ele>
        <time>2024-04-14T08:43:42Z</time>
      </trkpt>
      <trkpt lat="47.9977" lon="-0.50761">
        <ele>74.6</ele>
        <time>2024-04-14T08:43:43Z</time>
      </trkpt>
      <trkpt lat="47.99765" lon="-0.50762">
        <ele>74.6</ele>
        <time>2024-04-14T08:43:44Z</time>
      </trkpt>
      <trkpt lat="47.99759" lon="-0.50763">
        <ele>74.6</ele>
        <time>2024-04-14T08:43:45Z</time>
      </trkpt>
      <trkpt lat="47.99754" lon="-0.50764">
        <ele>74.6</ele>
        <time>2024-04-14T08:43:46Z</time>
      </trkpt>
      <trkpt lat="47.99749" lon="-0.50765">
        <ele>75.4</ele>
        <time>2024-04-14T08:43:47Z</time>
      </trkpt>
      <trkpt lat="47.99743" lon="-0.50766">
        <ele>75.6</ele>
        <time>2024-04-14T08:43:48Z</time>
      </trkpt>
      <trkpt lat="47.99738" lon="-0.50767">
        <ele>75.6</ele>
        <time>2024-04-14T08:43:49Z</time>
      </trkpt>
      <trkpt lat="47.99733" lon="-0.50769">
        <ele>75.6</ele>
        <time>2024-04-14T08:43:50Z</time>
      </trkpt>
      <trkpt lat="47.99728" lon="-0.5077">
        <ele>75.6</ele>
        <time>2024-04-14T08:43:51Z</time>
      </trkpt>
      <trkpt lat="47.99722" lon="-0.50771">
        <ele>75.8</ele>
        <time>2024-04-14T08:43:52Z</time>
      </trkpt>
      <trkpt lat="47.99717" lon="-0.50772">
        <ele>75.8</ele>
        <time>2024-04-14T08:43:53Z</time>
      </trkpt>
      <trkpt lat="47.99711" lon="-0.50773">
        <ele>75.8</ele>
        <time>2024-04-14T08:43:54Z</time>
      </trkpt>
      <trkpt lat="47.99706" lon="-0.50774">
        <ele>75.8</ele>
        <time>2024-04-14T08:43:55Z</time>
      </trkpt>
      <trkpt lat="47.99701" lon="-0.50775">
        <ele>76.2</ele>
        <time>2024-04-14T08:43:56Z</time>
      </trkpt>
      <trkpt lat="47.99696" lon="-0.50776">
        <ele>76.2</ele>
        <time>2024-04-14T08:43:57Z</time>
      </trkpt>
      <trkpt lat="47.9969" lon="-0.50778">
        <ele>76.2</ele>
        <time>2024-04-14T08:43:58Z</time>
      </trkpt>
      <trkpt lat="47.99685" lon="-0.50779">
        <ele>76.2</ele>
        <time>2024-04-14T08:43:59Z</time>
      </trkpt>
      <trkpt lat="47.9968" lon="-0.5078">
        <ele>77</ele>
        <time>2024-04-14T08:44:00Z</time>
      </trkpt>
      <trkpt lat="47.99675" lon="-0.50782">
        <ele>77</ele>
        <time>2024-04-14T08:44:01Z</time>
      </trkpt>
      <trkpt lat="47.99669" lon="-0.50783">
        <ele>77</ele>
        <time>2024-04-14T08:44:02Z</time>
      </trkpt>
      <trkpt lat="47.99664" lon="-0.50784">
        <ele>76.8</ele>
        <time>2024-04-14T08:44:03Z</time>
      </trkpt>
      <trkpt lat="47.99659" lon="-0.50785">
        <ele>76.8</ele>
        <time>2024-04-14T08:44:04Z</time>
      </trkpt>
      <trkpt lat="47.99654" lon="-0.50787">
        <ele>76.8</ele>
        <time>2024-04-14T08:44:05Z</time>
      </trkpt>
      <trkpt lat="47.99649" lon="-0.50788">
        <ele>76.8</ele>
        <time>2024-04-14T08:44:06Z</time>
      </trkpt>
      <trkpt lat="47.99643" lon="-0.5079">
        <ele>76.8</ele>
        <time>2024-04-14T08:44:07Z</time>
      </trkpt>
      <trkpt lat="47.99638" lon="-0.50792">
        <ele>76.4</ele>
        <time>2024-04-14T08:44:08Z</time>
      </trkpt>
      <trkpt lat="47.99633" lon="-0.50795">
        <ele>76.4</ele>
        <time>2024-04-14T08:44:09Z</time>
      </trkpt>
      <trkpt lat="47.99628" lon="-0.50798">
        <ele>76.4</ele>
        <time>2024-04-14T08:44:10Z</time>
      </trkpt>
      <trkpt lat="47.99623" lon="-0.50801">
        <ele>76.8</ele>
        <time>2024-04-14T08:44:11Z</time>
      </trkpt>
      <trkpt lat="47.99618" lon="-0.50804">
        <ele>77.2</ele>
        <time>2024-04-14T08:44:12Z</time>
      </trkpt>
      <trkpt lat="47.99613" lon="-0.50808">
        <ele>77.2</ele>
        <time>2024-04-14T08:44:13Z</time>
      </trkpt>
      <trkpt lat="47.99609" lon="-0.50811">
        <ele>77.2</ele>
        <time>2024-04-14T08:44:14Z</time>
      </trkpt>
      <trkpt lat="47.99604" lon="-0.50816">
        <ele>77.2</ele>
        <time>2024-04-14T08:44:15Z</time>
      </trkpt>
      <trkpt lat="47.996" lon="-0.5082">
        <ele>77.2</ele>
        <time>2024-04-14T08:44:16Z</time>
      </trkpt>
      <trkpt lat="47.99596" lon="-0.50824">
        <ele>77.2</ele>
        <time>2024-04-14T08:44:17Z</time>
      </trkpt>
      <trkpt lat="47.99592" lon="-0.50829">
        <ele>77.2</ele>
        <time>2024-04-14T08:44:18Z</time>
      </trkpt>
      <trkpt lat="47.99587" lon="-0.50834">
        <ele>78.2</ele>
        <time>2024-04-14T08:44:19Z</time>
      </trkpt>
      <trkpt lat="47.99583" lon="-0.50839">
        <ele>78.4</ele>
        <time>2024-04-14T08:44:20Z</time>
      </trkpt>
      <trkpt lat="47.9958" lon="-0.50844">
        <ele>78.4</ele>
        <time>2024-04-14T08:44:21Z</time>
      </trkpt>
      <trkpt lat="47.99576" lon="-0.50848">
        <ele>78.4</ele>
        <time>2024-04-14T08:44:22Z</time>
      </trkpt>
      <trkpt lat="47.99572" lon="-0.50853">
        <ele>78.4</ele>
        <time>2024-04-14T08:44:23Z</time>
      </trkpt>
      <trkpt lat="47.99568" lon="-0.50857">
        <ele>79.2</ele>
        <time>2024-04-14T08:44:24Z</time>
      </trkpt>
      <trkpt lat="47.99564" lon="-0.50862">
        <ele>79.2</ele>
        <time>2024-04-14T08:44:25Z</time>
      </trkpt>
      <trkpt lat="47.9956" lon="-0.50867">
        <ele>79.2</ele>
        <time>2024-04-14T08:44:26Z</time>
      </trkpt>
      <trkpt lat="47.99556" lon="-0.50871">
        <ele>79.2</ele>
        <time>2024-04-14T08:44:27Z</time>
      </trkpt>
      <trkpt lat="47.99552" lon="-0.50876">
        <ele>79.6</ele>
        <time>2024-04-14T08:44:28Z</time>
      </trkpt>
      <trkpt lat="47.99548" lon="-0.50881">
        <ele>79.6</ele>
        <time>2024-04-14T08:44:29Z</time>
      </trkpt>
      <trkpt lat="47.99544" lon="-0.50886">
        <ele>79.6</ele>
        <time>2024-04-14T08:44:30Z</time>
      </trkpt>
      <trkpt lat="47.99541" lon="-0.5089">
        <ele>79.6</ele>
        <time>2024-04-14T08:44:31Z</time>
      </trkpt>
      <trkpt lat="47.99537" lon="-0.50895">
        <ele>79.2</ele>
        <time>2024-04-14T08:44:32Z</time>
      </trkpt>
      <trkpt lat="47.99533" lon="-0.509">
        <ele>79.2</ele>
        <time>2024-04-14T08:44:33Z</time>
      </trkpt>
      <trkpt lat="47.9953" lon="-0.50906">
        <ele>79.2</ele>
        <time>2024-04-14T08:44:34Z</time>
      </trkpt>
      <trkpt lat="47.99526" lon="-0.50912">
        <ele>80.2</ele>
        <time>2024-04-14T08:44:35Z</time>
      </trkpt>
      <trkpt lat="47.99524" lon="-0.50918">
        <ele>80.8</ele>
        <time>2024-04-14T08:44:36Z</time>
      </trkpt>
      <trkpt lat="47.99521" lon="-0.50924">
        <ele>80.8</ele>
        <time>2024-04-14T08:44:37Z</time>
      </trkpt>
      <trkpt lat="47.99518" lon="-0.5093">
        <ele>80.8</ele>
        <time>2024-04-14T08:44:38Z</time>
      </trkpt>
      <trkpt lat="47.99515" lon="-0.50934">
        <ele>80.8</ele>
        <time>2024-04-14T08:44:39Z</time>
      </trkpt>
      <trkpt lat="47.99511" lon="-0.50937">
        <ele>81.2</ele>
        <time>2024-04-14T08:44:40Z</time>
      </trkpt>
      <trkpt lat="47.99506" lon="-0.50939">
        <ele>81.2</ele>
        <time>2024-04-14T08:44:41Z</time>
      </trkpt>
      <trkpt lat="47.99502" lon="-0.50939">
        <ele>81.2</ele>
        <time>2024-04-14T08:44:42Z</time>
      </trkpt>
      <trkpt lat="47.99497" lon="-0.50938">
        <ele>81.2</ele>
        <time>2024-04-14T08:44:43Z</time>
      </trkpt>
      <trkpt lat="47.99493" lon="-0.50936">
        <ele>81.4</ele>
        <time>2024-04-14T08:44:44Z</time>
      </trkpt>
      <trkpt lat="47.99488" lon="-0.50935">
        <ele>81.4</ele>
        <time>2024-04-14T08:44:45Z</time>
      </trkpt>
      <trkpt lat="47.99484" lon="-0.50933">
        <ele>81.4</ele>
        <time>2024-04-14T08:44:46Z</time>
      </trkpt>
      <trkpt lat="47.99479" lon="-0.50932">
        <ele>81.4</ele>
        <time>2024-04-14T08:44:47Z</time>
      </trkpt>
      <trkpt lat="47.99474" lon="-0.5093">
        <ele>81.8</ele>
        <time>2024-04-14T08:44:48Z</time>
      </trkpt>
      <trkpt lat="47.99469" lon="-0.50929">
        <ele>81.8</ele>
        <time>2024-04-14T08:44:49Z</time>
      </trkpt>
      <trkpt lat="47.99465" lon="-0.50927">
        <ele>81.8</ele>
        <time>2024-04-14T08:44:50Z</time>
      </trkpt>
      <trkpt lat="47.9946" lon="-0.50925">
        <ele>81.8</ele>
        <time>2024-04-14T08:44:51Z</time>
      </trkpt>
      <trkpt lat="47.99455" lon="-0.50923">
        <ele>81.8</ele>
        <time>2024-04-14T08:44:52Z</time>
      </trkpt>
      <trkpt lat="47.99451" lon="-0.50921">
        <ele>81.8</ele>
        <time>2024-04-14T08:44:53Z</time>
      </trkpt>
      <trkpt lat="47.99446" lon="-0.5092">
        <ele>81.8</ele>
        <time>2024-04-14T08:44:54Z</time>
      </trkpt>
      <trkpt lat="47.99441" lon="-0.50919">
        <ele>81.8</ele>
        <time>2024-04-14T08:44:55Z</time>
      </trkpt>
      <trkpt lat="47.99436" lon="-0.50918">
        <ele>82.4</ele>
        <time>2024-04-14T08:44:56Z</time>
      </trkpt>
      <trkpt lat="47.99431" lon="-0.50917">
        <ele>82.4</ele>
        <time>2024-04-14T08:44:57Z</time>
      </trkpt>
      <trkpt lat="47.99426" lon="-0.50916">
        <ele>82.4</ele>
        <time>2024-04-14T08:44:58Z</time>
      </trkpt>
      <trkpt lat="47.99421" lon="-0.50916">
        <ele>82.2</ele>
        <time>2024-04-14T08:44:59Z</time>
      </trkpt>
      <trkpt lat="47.99416" lon="-0.50915">
        <ele>82</ele>
        <time>2024-04-14T08:45:00Z</time>
      </trkpt>
      <trkpt lat="47.99411" lon="-0.50915">
        <ele>82</ele>
        <time>2024-04-14T08:45:01Z</time>
      </trkpt>
      <trkpt lat="47.99406" lon="-0.50915">
        <ele>82</ele>
        <time>2024-04-14T08:45:02Z</time>
      </trkpt>
      <trkpt lat="47.99401" lon="-0.50916">
        <ele>82.4</ele>
        <time>2024-04-14T08:45:03Z</time>
      </trkpt>
      <trkpt lat="47.99395" lon="-0.50916">
        <ele>81.8</ele>
        <time>2024-04-14T08:45:04Z</time>
      </trkpt>
      <trkpt lat="47.9939" lon="-0.50916">
        <ele>81.8</ele>
        <time>2024-04-14T08:45:05Z</time>
      </trkpt>
      <trkpt lat="47.99385" lon="-0.50917">
        <ele>81.8</ele>
        <time>2024-04-14T08:45:06Z</time>
      </trkpt>
      <trkpt lat="47.9938" lon="-0.50918">
        <ele>82</ele>
        <time>2024-04-14T08:45:07Z</time>
      </trkpt>
      <trkpt lat="47.99375" lon="-0.50919">
        <ele>82.2</ele>
        <time>2024-04-14T08:45:08Z</time>
      </trkpt>
      <trkpt lat="47.9937" lon="-0.50921">
        <ele>82.2</ele>
        <time>2024-04-14T08:45:09Z</time>
      </trkpt>
      <trkpt lat="47.99364" lon="-0.50922">
        <ele>82.2</ele>
        <time>2024-04-14T08:45:10Z</time>
      </trkpt>
      <trkpt lat="47.99359" lon="-0.50924">
        <ele>82.2</ele>
        <time>2024-04-14T08:45:11Z</time>
      </trkpt>
      <trkpt lat="47.99354" lon="-0.50925">
        <ele>82.4</ele>
        <time>2024-04-14T08:45:12Z</time>
      </trkpt>
      <trkpt lat="47.99349" lon="-0.50927">
        <ele>82.4</ele>
        <time>2024-04-14T08:45:13Z</time>
      </trkpt>
      <trkpt lat="47.99344" lon="-0.50928">
        <ele>82.4</ele>
        <time>2024-04-14T08:45:14Z</time>
      </trkpt>
      <trkpt lat="47.99339" lon="-0.5093">
        <ele>82.4</ele>
        <time>2024-04-14T08:45:15Z</time>
      </trkpt>
      <trkpt lat="47.99334" lon="-0.50932">
        <ele>82.4</ele>
        <time>2024-04-14T08:45:16Z</time>
      </trkpt>
      <trkpt lat="47.99329" lon="-0.50933">
        <ele>82.4</ele>
        <time>2024-04-14T08:45:17Z</time>
      </trkpt>
      <trkpt lat="47.99323" lon="-0.50935">
        <ele>82.4</ele>
        <time>2024-04-14T08:45:18Z</time>
      </trkpt>
      <trkpt lat="47.99318" lon="-0.50936">
        <ele>82.4</ele>
        <time>2024-04-14T08:45:19Z</time>
      </trkpt>
      <trkpt lat="47.99313" lon="-0.50937">
        <ele>82.6</ele>
        <time>2024-04-14T08:45:20Z</time>
      </trkpt>
      <trkpt lat="47.99308" lon="-0.50938">
        <ele>82.6</ele>
        <time>2024-04-14T08:45:21Z</time>
      </trkpt>
      <trkpt lat="47.99303" lon="-0.50939">
        <ele>82.6</ele>
        <time>2024-04-14T08:45:22Z</time>
      </trkpt>
      <trkpt lat="47.99298" lon="-0.5094">
        <ele>82</ele>
        <time>2024-04-14T08:45:23Z</time>
      </trkpt>
      <trkpt lat="47.99293" lon="-0.50941">
        <ele>82</ele>
        <time>2024-04-14T08:45:24Z</time>
      </trkpt>
      <trkpt lat="47.99287" lon="-0.50941">
        <ele>82</ele>
        <time>2024-04-14T08:45:25Z</time>
      </trkpt>
      <trkpt lat="47.99282" lon="-0.50942">
        <ele>82</ele>
        <time>2024-04-14T08:45:26Z</time>
      </trkpt>
      <trkpt lat="47.99277" lon="-0.50942">
        <ele>82.6</ele>
        <time>2024-04-14T08:45:27Z</time>
      </trkpt>
      <trkpt lat="47.99272" lon="-0.50943">
        <ele>82.4</ele>
        <time>2024-04-14T08:45:28Z</time>
      </trkpt>
      <trkpt lat="47.99266" lon="-0.50943">
        <ele>82.4</ele>
        <time>2024-04-14T08:45:29Z</time>
      </trkpt>
      <trkpt lat="47.99261" lon="-0.50943">
        <ele>82.4</ele>
        <time>2024-04-14T08:45:30Z</time>
      </trkpt>
      <trkpt lat="47.99256" lon="-0.50944">
        <ele>83</ele>
        <time>2024-04-14T08:45:31Z</time>
      </trkpt>
      <trkpt lat="47.99251" lon="-0.50943">
        <ele>83.2</ele>
        <time>2024-04-14T08:45:32Z</time>
      </trkpt>
      <trkpt lat="47.99245" lon="-0.50943">
        <ele>83.2</ele>
        <time>2024-04-14T08:45:33Z</time>
      </trkpt>
      <trkpt lat="47.9924" lon="-0.50942">
        <ele>83.2</ele>
        <time>2024-04-14T08:45:34Z</time>
      </trkpt>
      <trkpt lat="47.99234" lon="-0.50941">
        <ele>83.2</ele>
        <time>2024-04-14T08:45:35Z</time>
      </trkpt>
      <trkpt lat="47.99229" lon="-0.50941">
        <ele>84.2</ele>
        <time>2024-04-14T08:45:36Z</time>
      </trkpt>
      <trkpt lat="47.99224" lon="-0.5094">
        <ele>84.2</ele>
        <time>2024-04-14T08:45:37Z</time>
      </trkpt>
      <trkpt lat="47.99219" lon="-0.50941">
        <ele>84.2</ele>
        <time>2024-04-14T08:45:38Z</time>
      </trkpt>
      <trkpt lat="47.99214" lon="-0.50941">
        <ele>83.6</ele>
        <time>2024-04-14T08:45:39Z</time>
      </trkpt>
      <trkpt lat="47.99209" lon="-0.50942">
        <ele>82.6</ele>
        <time>2024-04-14T08:45:40Z</time>
      </trkpt>
      <trkpt lat="47.99205" lon="-0.50943">
        <ele>82.6</ele>
        <time>2024-04-14T08:45:41Z</time>
      </trkpt>
      <trkpt lat="47.992" lon="-0.50944">
        <ele>82.6</ele>
        <time>2024-04-14T08:45:42Z</time>
      </trkpt>
      <trkpt lat="47.99195" lon="-0.50945">
        <ele>83.2</ele>
        <time>2024-04-14T08:45:43Z</time>
      </trkpt>
      <trkpt lat="47.9919" lon="-0.50946">
        <ele>84.2</ele>
        <time>2024-04-14T08:45:44Z</time>
      </trkpt>
      <trkpt lat="47.99185" lon="-0.50947">
        <ele>84.2</ele>
        <time>2024-04-14T08:45:45Z</time>
      </trkpt>
      <trkpt lat="47.99181" lon="-0.50947">
        <ele>84.2</ele>
        <time>2024-04-14T08:45:46Z</time>
      </trkpt>
      <trkpt lat="47.99176" lon="-0.50948">
        <ele>84.2</ele>
        <time>2024-04-14T08:45:47Z</time>
      </trkpt>
      <trkpt lat="47.99171" lon="-0.50949">
        <ele>84.4</ele>
        <time>2024-04-14T08:45:48Z</time>
      </trkpt>
      <trkpt lat="47.99166" lon="-0.5095">
        <ele>84.4</ele>
        <time>2024-04-14T08:45:49Z</time>
      </trkpt>
      <trkpt lat="47.99161" lon="-0.50951">
        <ele>84.4</ele>
        <time>2024-04-14T08:45:50Z</time>
      </trkpt>
      <trkpt lat="47.99156" lon="-0.50951">
        <ele>84.4</ele>
        <time>2024-04-14T08:45:51Z</time>
      </trkpt>
      <trkpt lat="47.99151" lon="-0.50952">
        <ele>83.4</ele>
        <time>2024-04-14T08:45:52Z</time>
      </trkpt>
      <trkpt lat="47.99147" lon="-0.50952">
        <ele>83.4</ele>
        <time>2024-04-14T08:45:53Z</time>
      </trkpt>
      <trkpt lat="47.99142" lon="-0.50953">
        <ele>83.4</ele>
        <time>2024-04-14T08:45:54Z</time>
      </trkpt>
      <trkpt lat="47.99138" lon="-0.50953">
        <ele>84.4</ele>
        <time>2024-04-14T08:45:55Z</time>
      </trkpt>
      <trkpt lat="47.99133" lon="-0.50953">
        <ele>86.2</ele>
        <time>2024-04-14T08:45:56Z</time>
      </trkpt>
      <trkpt lat="47.99129" lon="-0.50954">
        <ele>86.2</ele>
        <time>2024-04-14T08:45:57Z</time>
      </trkpt>
      <trkpt lat="47.99124" lon="-0.50953">
        <ele>86.2</ele>
        <time>2024-04-14T08:45:58Z</time>
      </trkpt>
      <trkpt lat="47.9912" lon="-0.50953">
        <ele>86.2</ele>
        <time>2024-04-14T08:45:59Z</time>
      </trkpt>
      <trkpt lat="47.99115" lon="-0.50953">
        <ele>85.8</ele>
        <time>2024-04-14T08:46:00Z</time>
      </trkpt>
      <trkpt lat="47.9911" lon="-0.50953">
        <ele>85.8</ele>
        <time>2024-04-14T08:46:01Z</time>
      </trkpt>
      <trkpt lat="47.99105" lon="-0.50953">
        <ele>85.8</ele>
        <time>2024-04-14T08:46:02Z</time>
      </trkpt>
      <trkpt lat="47.991" lon="-0.50952">
        <ele>85.8</ele>
        <time>2024-04-14T08:46:03Z</time>
      </trkpt>
      <trkpt lat="47.99096" lon="-0.50951">
        <ele>84.8</ele>
        <time>2024-04-14T08:46:04Z</time>
      </trkpt>
      <trkpt lat="47.99091" lon="-0.5095">
        <ele>84.8</ele>
        <time>2024-04-14T08:46:05Z</time>
      </trkpt>
      <trkpt lat="47.99087" lon="-0.50949">
        <ele>84.8</ele>
        <time>2024-04-14T08:46:06Z</time>
      </trkpt>
      <trkpt lat="47.99082" lon="-0.50948">
        <ele>85.6</ele>
        <time>2024-04-14T08:46:07Z</time>
      </trkpt>
      <trkpt lat="47.99078" lon="-0.50947">
        <ele>84.8</ele>
        <time>2024-04-14T08:46:08Z</time>
      </trkpt>
      <trkpt lat="47.99074" lon="-0.50946">
        <ele>84.8</ele>
        <time>2024-04-14T08:46:09Z</time>
      </trkpt>
      <trkpt lat="47.99069" lon="-0.50946">
        <ele>84.8</ele>
        <time>2024-04-14T08:46:10Z</time>
      </trkpt>
      <trkpt lat="47.99065" lon="-0.50945">
        <ele>85.6</ele>
        <time>2024-04-14T08:46:11Z</time>
      </trkpt>
      <trkpt lat="47.99061" lon="-0.50945">
        <ele>87</ele>
        <time>2024-04-14T08:46:12Z</time>
      </trkpt>
      <trkpt lat="47.99057" lon="-0.50944">
        <ele>87</ele>
        <time>2024-04-14T08:46:13Z</time>
      </trkpt>
      <trkpt lat="47.99052" lon="-0.50944">
        <ele>87</ele>
        <time>2024-04-14T08:46:14Z</time>
      </trkpt>
      <trkpt lat="47.99048" lon="-0.50943">
        <ele>86</ele>
        <time>2024-04-14T08:46:15Z</time>
      </trkpt>
      <trkpt lat="47.99044" lon="-0.50943">
        <ele>86.2</ele>
        <time>2024-04-14T08:46:16Z</time>
      </trkpt>
      <trkpt lat="47.99041" lon="-0.50943">
        <ele>86.2</ele>
        <time>2024-04-14T08:46:17Z</time>
      </trkpt>
      <trkpt lat="47.99037" lon="-0.50943">
        <ele>86.2</ele>
        <time>2024-04-14T08:46:18Z</time>
      </trkpt>
      <trkpt lat="47.99033" lon="-0.50943">
        <ele>85.2</ele>
        <time>2024-04-14T08:46:19Z</time>
      </trkpt>
      <trkpt lat="47.99029" lon="-0.50943">
        <ele>85.2</ele>
        <time>2024-04-14T08:46:20Z</time>
      </trkpt>
      <trkpt lat="47.99025" lon="-0.50944">
        <ele>85.2</ele>
        <time>2024-04-14T08:46:21Z</time>
      </trkpt>
      <trkpt lat="47.99022" lon="-0.50944">
        <ele>85.2</ele>
        <time>2024-04-14T08:46:22Z</time>
      </trkpt>
      <trkpt lat="47.99018" lon="-0.50944">
        <ele>84.4</ele>
        <time>2024-04-14T08:46:23Z</time>
      </trkpt>
      <trkpt lat="47.99015" lon="-0.50945">
        <ele>83.8</ele>
        <time>2024-04-14T08:46:24Z</time>
      </trkpt>
      <trkpt lat="47.99011" lon="-0.50945">
        <ele>83.8</ele>
        <time>2024-04-14T08:46:25Z</time>
      </trkpt>
      <trkpt lat="47.99008" lon="-0.50946">
        <ele>83.8</ele>
        <time>2024-04-14T08:46:26Z</time>
      </trkpt>
      <trkpt lat="47.99004" lon="-0.50946">
        <ele>83.8</ele>
        <time>2024-04-14T08:46:27Z</time>
      </trkpt>
      <trkpt lat="47.99001" lon="-0.50946">
        <ele>83.8</ele>
        <time>2024-04-14T08:46:28Z</time>
      </trkpt>
      <trkpt lat="47.98997" lon="-0.50946">
        <ele>83.8</ele>
        <time>2024-04-14T08:46:29Z</time>
      </trkpt>
      <trkpt lat="47.98993" lon="-0.50946">
        <ele>83.8</ele>
        <time>2024-04-14T08:46:30Z</time>
      </trkpt>
      <trkpt lat="47.98989" lon="-0.50946">
        <ele>83</ele>
        <time>2024-04-14T08:46:31Z</time>
      </trkpt>
      <trkpt lat="47.98986" lon="-0.50946">
        <ele>85.2</ele>
        <time>2024-04-14T08:46:32Z</time>
      </trkpt>
      <trkpt lat="47.98982" lon="-0.50946">
        <ele>85.2</ele>
        <time>2024-04-14T08:46:33Z</time>
      </trkpt>
      <trkpt lat="47.98978" lon="-0.50947">
        <ele>85.2</ele>
        <time>2024-04-14T08:46:34Z</time>
      </trkpt>
      <trkpt lat="47.98974" lon="-0.50947">
        <ele>84.2</ele>
        <time>2024-04-14T08:46:35Z</time>
      </trkpt>
      <trkpt lat="47.9897" lon="-0.50947">
        <ele>82.4</ele>
        <time>2024-04-14T08:46:36Z</time>
      </trkpt>
      <trkpt lat="47.98967" lon="-0.50947">
        <ele>82.4</ele>
        <time>2024-04-14T08:46:37Z</time>
      </trkpt>
      <trkpt lat="47.98963" lon="-0.50947">
        <ele>82.4</ele>
        <time>2024-04-14T08:46:38Z</time>
      </trkpt>
      <trkpt lat="47.9896" lon="-0.50947">
        <ele>82.4</ele>
        <time>2024-04-14T08:46:39Z</time>
      </trkpt>
      <trkpt lat="47.98957" lon="-0.50947">
        <ele>83.6</ele>
        <time>2024-04-14T08:46:40Z</time>
      </trkpt>
      <trkpt lat="47.98953" lon="-0.50947">
        <ele>83.6</ele>
        <time>2024-04-14T08:46:41Z</time>
      </trkpt>
      <trkpt lat="47.9895" lon="-0.50947">
        <ele>83.6</ele>
        <time>2024-04-14T08:46:42Z</time>
      </trkpt>
      <trkpt lat="47.98946" lon="-0.50946">
        <ele>82.8</ele>
        <time>2024-04-14T08:46:43Z</time>
      </trkpt>
      <trkpt lat="47.98943" lon="-0.50946">
        <ele>83</ele>
        <time>2024-04-14T08:46:44Z</time>
      </trkpt>
      <trkpt lat="47.98939" lon="-0.50946">
        <ele>83</ele>
        <time>2024-04-14T08:46:45Z</time>
      </trkpt>
      <trkpt lat="47.98936" lon="-0.50946">
        <ele>83</ele>
        <time>2024-04-14T08:46:46Z</time>
      </trkpt>
      <trkpt lat="47.98932" lon="-0.50946">
        <ele>82.4</ele>
        <time>2024-04-14T08:46:47Z</time>
      </trkpt>
      <trkpt lat="47.98929" lon="-0.50946">
        <ele>80.8</ele>
        <time>2024-04-14T08:46:48Z</time>
      </trkpt>
      <trkpt lat="47.98925" lon="-0.50946">
        <ele>80.8</ele>
        <time>2024-04-14T08:46:49Z</time>
      </trkpt>
      <trkpt lat="47.98921" lon="-0.50946">
        <ele>80.8</ele>
        <time>2024-04-14T08:46:50Z</time>
      </trkpt>
      <trkpt lat="47.98917" lon="-0.50946">
        <ele>80.8</ele>
        <time>2024-04-14T08:46:51Z</time>
      </trkpt>
      <trkpt lat="47.98913" lon="-0.50945">
        <ele>81.6</ele>
        <time>2024-04-14T08:46:52Z</time>
      </trkpt>
      <trkpt lat="47.98909" lon="-0.50945">
        <ele>81.6</ele>
        <time>2024-04-14T08:46:53Z</time>
      </trkpt>
      <trkpt lat="47.98906" lon="-0.50945">
        <ele>81.6</ele>
        <time>2024-04-14T08:46:54Z</time>
      </trkpt>
      <trkpt lat="47.98902" lon="-0.50945">
        <ele>82.4</ele>
        <time>2024-04-14T08:46:55Z</time>
      </trkpt>
      <trkpt lat="47.98898" lon="-0.50945">
        <ele>81.2</ele>
        <time>2024-04-14T08:46:56Z</time>
      </trkpt>
      <trkpt lat="47.98894" lon="-0.50945">
        <ele>81.2</ele>
        <time>2024-04-14T08:46:57Z</time>
      </trkpt>
      <trkpt lat="47.9889" lon="-0.50945">
        <ele>81.2</ele>
        <time>2024-04-14T08:46:58Z</time>
      </trkpt>
      <trkpt lat="47.98886" lon="-0.50945">
        <ele>81.2</ele>
        <time>2024-04-14T08:46:59Z</time>
      </trkpt>
      <trkpt lat="47.98882" lon="-0.50944">
        <ele>81.4</ele>
        <time>2024-04-14T08:47:00Z</time>
      </trkpt>
      <trkpt lat="47.98878" lon="-0.50944">
        <ele>81.4</ele>
        <time>2024-04-14T08:47:01Z</time>
      </trkpt>
      <trkpt lat="47.98875" lon="-0.50944">
        <ele>81.4</ele>
        <time>2024-04-14T08:47:02Z</time>
      </trkpt>
      <trkpt lat="47.98871" lon="-0.50944">
        <ele>81</ele>
        <time>2024-04-14T08:47:03Z</time>
      </trkpt>
      <trkpt lat="47.98867" lon="-0.50944">
        <ele>81.4</ele>
        <time>2024-04-14T08:47:04Z</time>
      </trkpt>
      <trkpt lat="47.98863" lon="-0.50943">
        <ele>81.4</ele>
        <time>2024-04-14T08:47:05Z</time>
      </trkpt>
      <trkpt lat="47.98859" lon="-0.50943">
        <ele>81.4</ele>
        <time>2024-04-14T08:47:06Z</time>
      </trkpt>
      <trkpt lat="47.98855" lon="-0.50942">
        <ele>80.8</ele>
        <time>2024-04-14T08:47:07Z</time>
      </trkpt>
      <trkpt lat="47.98851" lon="-0.50941">
        <ele>82.2</ele>
        <time>2024-04-14T08:47:08Z</time>
      </trkpt>
      <trkpt lat="47.98847" lon="-0.50941">
        <ele>82.2</ele>
        <time>2024-04-14T08:47:09Z</time>
      </trkpt>
      <trkpt lat="47.98843" lon="-0.5094">
        <ele>82.2</ele>
        <time>2024-04-14T08:47:10Z</time>
      </trkpt>
      <trkpt lat="47.98839" lon="-0.5094">
        <ele>81.2</ele>
        <time>2024-04-14T08:47:11Z</time>
      </trkpt>
      <trkpt lat="47.98835" lon="-0.50939">
        <ele>81.2</ele>
        <time>2024-04-14T08:47:12Z</time>
      </trkpt>
      <trkpt lat="47.98831" lon="-0.50938">
        <ele>81.2</ele>
        <time>2024-04-14T08:47:13Z</time>
      </trkpt>
      <trkpt lat="47.98827" lon="-0.50938">
        <ele>81.2</ele>
        <time>2024-04-14T08:47:14Z</time>
      </trkpt>
      <trkpt lat="47.98823" lon="-0.50937">
        <ele>80.6</ele>
        <time>2024-04-14T08:47:15Z</time>
      </trkpt>
      <trkpt lat="47.98819" lon="-0.50937">
        <ele>80</ele>
        <time>2024-04-14T08:47:16Z</time>
      </trkpt>
      <trkpt lat="47.98816" lon="-0.50937">
        <ele>80</ele>
        <time>2024-04-14T08:47:17Z</time>
      </trkpt>
      <trkpt lat="47.98812" lon="-0.50937">
        <ele>80</ele>
        <time>2024-04-14T08:47:18Z</time>
      </trkpt>
      <trkpt lat="47.98807" lon="-0.50938">
        <ele>80</ele>
        <time>2024-04-14T08:47:19Z</time>
      </trkpt>
      <trkpt lat="47.98803" lon="-0.50938">
        <ele>80.8</ele>
        <time>2024-04-14T08:47:20Z</time>
      </trkpt>
      <trkpt lat="47.98799" lon="-0.50939">
        <ele>80.8</ele>
        <time>2024-04-14T08:47:21Z</time>
      </trkpt>
      <trkpt lat="47.98795" lon="-0.50941">
        <ele>80.8</ele>
        <time>2024-04-14T08:47:22Z</time>
      </trkpt>
      <trkpt lat="47.98791" lon="-0.50943">
        <ele>80</ele>
        <time>2024-04-14T08:47:23Z</time>
      </trkpt>
      <trkpt lat="47.98787" lon="-0.50944">
        <ele>79.6</ele>
        <time>2024-04-14T08:47:24Z</time>
      </trkpt>
      <trkpt lat="47.98783" lon="-0.50946">
        <ele>79.6</ele>
        <time>2024-04-14T08:47:25Z</time>
      </trkpt>
      <trkpt lat="47.98779" lon="-0.50948">
        <ele>79.6</ele>
        <time>2024-04-14T08:47:26Z</time>
      </trkpt>
      <trkpt lat="47.98775" lon="-0.5095">
        <ele>79.6</ele>
        <time>2024-04-14T08:47:27Z</time>
      </trkpt>
      <trkpt lat="47.98771" lon="-0.50952">
        <ele>78.6</ele>
        <time>2024-04-14T08:47:28Z</time>
      </trkpt>
      <trkpt lat="47.98767" lon="-0.50954">
        <ele>78.6</ele>
        <time>2024-04-14T08:47:29Z</time>
      </trkpt>
      <trkpt lat="47.98763" lon="-0.50956">
        <ele>78.6</ele>
        <time>2024-04-14T08:47:30Z</time>
      </trkpt>
      <trkpt lat="47.9876" lon="-0.50957">
        <ele>78.6</ele>
        <time>2024-04-14T08:47:31Z</time>
      </trkpt>
      <trkpt lat="47.98756" lon="-0.50959">
        <ele>80</ele>
        <time>2024-04-14T08:47:32Z</time>
      </trkpt>
      <trkpt lat="47.98752" lon="-0.50961">
        <ele>80</ele>
        <time>2024-04-14T08:47:33Z</time>
      </trkpt>
      <trkpt lat="47.98749" lon="-0.50963">
        <ele>80</ele>
        <time>2024-04-14T08:47:34Z</time>
      </trkpt>
      <trkpt lat="47.98745" lon="-0.50965">
        <ele>80</ele>
        <time>2024-04-14T08:47:35Z</time>
      </trkpt>
      <trkpt lat="47.98741" lon="-0.50967">
        <ele>78.6</ele>
        <time>2024-04-14T08:47:36Z</time>
      </trkpt>
      <trkpt lat="47.98737" lon="-0.5097">
        <ele>78.6</ele>
        <time>2024-04-14T08:47:37Z</time>
      </trkpt>
      <trkpt lat="47.98734" lon="-0.50973">
        <ele>78.6</ele>
        <time>2024-04-14T08:47:38Z</time>
      </trkpt>
      <trkpt lat="47.9873" lon="-0.50976">
        <ele>78.6</ele>
        <time>2024-04-14T08:47:39Z</time>
      </trkpt>
      <trkpt lat="47.98727" lon="-0.50979">
        <ele>79.2</ele>
        <time>2024-04-14T08:47:40Z</time>
      </trkpt>
      <trkpt lat="47.98723" lon="-0.50982">
        <ele>79.2</ele>
        <time>2024-04-14T08:47:41Z</time>
      </trkpt>
      <trkpt lat="47.9872" lon="-0.50984">
        <ele>79.2</ele>
        <time>2024-04-14T08:47:42Z</time>
      </trkpt>
      <trkpt lat="47.98717" lon="-0.50987">
        <ele>79.2</ele>
        <time>2024-04-14T08:47:43Z</time>
      </trkpt>
      <trkpt lat="47.98713" lon="-0.50991">
        <ele>80.2</ele>
        <time>2024-04-14T08:47:44Z</time>
      </trkpt>
      <trkpt lat="47.9871" lon="-0.50994">
        <ele>80.2</ele>
        <time>2024-04-14T08:47:45Z</time>
      </trkpt>
      <trkpt lat="47.98706" lon="-0.50997">
        <ele>80.2</ele>
        <time>2024-04-14T08:47:46Z</time>
      </trkpt>
      <trkpt lat="47.98703" lon="-0.51">
        <ele>79.2</ele>
        <time>2024-04-14T08:47:47Z</time>
      </trkpt>
      <trkpt lat="47.98699" lon="-0.51004">
        <ele>79.6</ele>
        <time>2024-04-14T08:47:48Z</time>
      </trkpt>
      <trkpt lat="47.98696" lon="-0.51007">
        <ele>79.6</ele>
        <time>2024-04-14T08:47:49Z</time>
      </trkpt>
      <trkpt lat="47.98693" lon="-0.5101">
        <ele>79.6</ele>
        <time>2024-04-14T08:47:50Z</time>
      </trkpt>
      <trkpt lat="47.9869" lon="-0.51013">
        <ele>79.6</ele>
        <time>2024-04-14T08:47:51Z</time>
      </trkpt>
      <trkpt lat="47.98687" lon="-0.51016">
        <ele>78.6</ele>
        <time>2024-04-14T08:47:52Z</time>
      </trkpt>
      <trkpt lat="47.98684" lon="-0.51019">
        <ele>78.6</ele>
        <time>2024-04-14T08:47:53Z</time>
      </trkpt>
      <trkpt lat="47.98681" lon="-0.51023">
        <ele>78.6</ele>
        <time>2024-04-14T08:47:54Z</time>
      </trkpt>
      <trkpt lat="47.9868" lon="-0.51028">
        <ele>78.6</ele>
        <time>2024-04-14T08:47:55Z</time>
      </trkpt>
      <trkpt lat="47.9868" lon="-0.51034">
        <ele>79.2</ele>
        <time>2024-04-14T08:47:56Z</time>
      </trkpt>
      <trkpt lat="47.98679" lon="-0.5104">
        <ele>79.2</ele>
        <time>2024-04-14T08:47:57Z</time>
      </trkpt>
      <trkpt lat="47.98679" lon="-0.51046">
        <ele>79.2</ele>
        <time>2024-04-14T08:47:58Z</time>
      </trkpt>
      <trkpt lat="47.98679" lon="-0.51052">
        <ele>79.2</ele>
        <time>2024-04-14T08:47:59Z</time>
      </trkpt>
      <trkpt lat="47.98679" lon="-0.51058">
        <ele>78.6</ele>
        <time>2024-04-14T08:48:00Z</time>
      </trkpt>
      <trkpt lat="47.98679" lon="-0.51065">
        <ele>78.6</ele>
        <time>2024-04-14T08:48:01Z</time>
      </trkpt>
      <trkpt lat="47.98679" lon="-0.51071">
        <ele>78.6</ele>
        <time>2024-04-14T08:48:02Z</time>
      </trkpt>
      <trkpt lat="47.98679" lon="-0.51078">
        <ele>79.6</ele>
        <time>2024-04-14T08:48:03Z</time>
      </trkpt>
      <trkpt lat="47.9868" lon="-0.51085">
        <ele>79</ele>
        <time>2024-04-14T08:48:04Z</time>
      </trkpt>
      <trkpt lat="47.9868" lon="-0.51091">
        <ele>79</ele>
        <time>2024-04-14T08:48:05Z</time>
      </trkpt>
      <trkpt lat="47.9868" lon="-0.51098">
        <ele>79</ele>
        <time>2024-04-14T08:48:06Z</time>
      </trkpt>
      <trkpt lat="47.9868" lon="-0.51105">
        <ele>79</ele>
        <time>2024-04-14T08:48:07Z</time>
      </trkpt>
      <trkpt lat="47.9868" lon="-0.51112">
        <ele>78.4</ele>
        <time>2024-04-14T08:48:08Z</time>
      </trkpt>
      <trkpt lat="47.98681" lon="-0.51119">
        <ele>78.4</ele>
        <time>2024-04-14T08:48:09Z</time>
      </trkpt>
      <trkpt lat="47.98681" lon="-0.51126">
        <ele>78.4</ele>
        <time>2024-04-14T08:48:10Z</time>
      </trkpt>
      <trkpt lat="47.98681" lon="-0.51133">
        <ele>78.4</ele>
        <time>2024-04-14T08:48:11Z</time>
      </trkpt>
      <trkpt lat="47.98681" lon="-0.51141">
        <ele>79</ele>
        <time>2024-04-14T08:48:12Z</time>
      </trkpt>
      <trkpt lat="47.98681" lon="-0.51148">
        <ele>79</ele>
        <time>2024-04-14T08:48:13Z</time>
      </trkpt>
      <trkpt lat="47.98682" lon="-0.51155">
        <ele>79</ele>
        <time>2024-04-14T08:48:14Z</time>
      </trkpt>
      <trkpt lat="47.98682" lon="-0.51162">
        <ele>79</ele>
        <time>2024-04-14T08:48:15Z</time>
      </trkpt>
      <trkpt lat="47.98681" lon="-0.51169">
        <ele>78.2</ele>
        <time>2024-04-14T08:48:16Z</time>
      </trkpt>
      <trkpt lat="47.9868" lon="-0.51176">
        <ele>78.2</ele>
        <time>2024-04-14T08:48:17Z</time>
      </trkpt>
      <trkpt lat="47.98677" lon="-0.51183">
        <ele>78.2</ele>
        <time>2024-04-14T08:48:18Z</time>
      </trkpt>
      <trkpt lat="47.98674" lon="-0.51189">
        <ele>78.2</ele>
        <time>2024-04-14T08:48:19Z</time>
      </trkpt>
      <trkpt lat="47.9867" lon="-0.51193">
        <ele>78.4</ele>
        <time>2024-04-14T08:48:20Z</time>
      </trkpt>
      <trkpt lat="47.98665" lon="-0.51195">
        <ele>78.4</ele>
        <time>2024-04-14T08:48:21Z</time>
      </trkpt>
      <trkpt lat="47.98659" lon="-0.51196">
        <ele>78.4</ele>
        <time>2024-04-14T08:48:22Z</time>
      </trkpt>
      <trkpt lat="47.98654" lon="-0.51196">
        <ele>77.8</ele>
        <time>2024-04-14T08:48:23Z</time>
      </trkpt>
      <trkpt lat="47.98648" lon="-0.51196">
        <ele>77.2</ele>
        <time>2024-04-14T08:48:24Z</time>
      </trkpt>
      <trkpt lat="47.98643" lon="-0.51196">
        <ele>77.2</ele>
        <time>2024-04-14T08:48:25Z</time>
      </trkpt>
      <trkpt lat="47.98637" lon="-0.51196">
        <ele>77.2</ele>
        <time>2024-04-14T08:48:26Z</time>
      </trkpt>
      <trkpt lat="47.98631" lon="-0.51195">
        <ele>78.2</ele>
        <time>2024-04-14T08:48:27Z</time>
      </trkpt>
      <trkpt lat="47.98625" lon="-0.51195">
        <ele>77.6</ele>
        <time>2024-04-14T08:48:28Z</time>
      </trkpt>
      <trkpt lat="47.9862" lon="-0.51194">
        <ele>77.6</ele>
        <time>2024-04-14T08:48:29Z</time>
      </trkpt>
      <trkpt lat="47.98613" lon="-0.51194">
        <ele>77.6</ele>
        <time>2024-04-14T08:48:30Z</time>
      </trkpt>
      <trkpt lat="47.98607" lon="-0.51193">
        <ele>77.6</ele>
        <time>2024-04-14T08:48:31Z</time>
      </trkpt>
      <trkpt lat="47.98601" lon="-0.51193">
        <ele>77.2</ele>
        <time>2024-04-14T08:48:32Z</time>
      </trkpt>
      <trkpt lat="47.98595" lon="-0.51192">
        <ele>77.2</ele>
        <time>2024-04-14T08:48:33Z</time>
      </trkpt>
      <trkpt lat="47.98589" lon="-0.51192">
        <ele>77.2</ele>
        <time>2024-04-14T08:48:34Z</time>
      </trkpt>
      <trkpt lat="47.98583" lon="-0.51192">
        <ele>76.6</ele>
        <time>2024-04-14T08:48:35Z</time>
      </trkpt>
      <trkpt lat="47.98576" lon="-0.51191">
        <ele>76.8</ele>
        <time>2024-04-14T08:48:36Z</time>
      </trkpt>
      <trkpt lat="47.9857" lon="-0.51191">
        <ele>76.8</ele>
        <time>2024-04-14T08:48:37Z</time>
      </trkpt>
      <trkpt lat="47.98563" lon="-0.5119">
        <ele>76.8</ele>
        <time>2024-04-14T08:48:38Z</time>
      </trkpt>
      <trkpt lat="47.98557" lon="-0.51189">
        <ele>76.8</ele>
        <time>2024-04-14T08:48:39Z</time>
      </trkpt>
      <trkpt lat="47.9855" lon="-0.51189">
        <ele>76.6</ele>
        <time>2024-04-14T08:48:40Z</time>
      </trkpt>
      <trkpt lat="47.98544" lon="-0.51189">
        <ele>76.6</ele>
        <time>2024-04-14T08:48:41Z</time>
      </trkpt>
      <trkpt lat="47.98537" lon="-0.51188">
        <ele>76.6</ele>
        <time>2024-04-14T08:48:42Z</time>
      </trkpt>
      <trkpt lat="47.98531" lon="-0.51187">
        <ele>76.4</ele>
        <time>2024-04-14T08:48:43Z</time>
      </trkpt>
      <trkpt lat="47.98524" lon="-0.51187">
        <ele>76.2</ele>
        <time>2024-04-14T08:48:44Z</time>
      </trkpt>
      <trkpt lat="47.98517" lon="-0.51187">
        <ele>76.2</ele>
        <time>2024-04-14T08:48:45Z</time>
      </trkpt>
      <trkpt lat="47.98511" lon="-0.51186">
        <ele>76.2</ele>
        <time>2024-04-14T08:48:46Z</time>
      </trkpt>
      <trkpt lat="47.98504" lon="-0.51186">
        <ele>76.2</ele>
        <time>2024-04-14T08:48:47Z</time>
      </trkpt>
      <trkpt lat="47.98498" lon="-0.51187">
        <ele>75.4</ele>
        <time>2024-04-14T08:48:48Z</time>
      </trkpt>
      <trkpt lat="47.98491" lon="-0.51188">
        <ele>75.4</ele>
        <time>2024-04-14T08:48:49Z</time>
      </trkpt>
      <trkpt lat="47.98485" lon="-0.5119">
        <ele>75.4</ele>
        <time>2024-04-14T08:48:50Z</time>
      </trkpt>
      <trkpt lat="47.98479" lon="-0.51192">
        <ele>75.4</ele>
        <time>2024-04-14T08:48:51Z</time>
      </trkpt>
      <trkpt lat="47.98473" lon="-0.51196">
        <ele>75</ele>
        <time>2024-04-14T08:48:52Z</time>
      </trkpt>
      <trkpt lat="47.98467" lon="-0.512">
        <ele>75</ele>
        <time>2024-04-14T08:48:53Z</time>
      </trkpt>
      <trkpt lat="47.98461" lon="-0.51204">
        <ele>75</ele>
        <time>2024-04-14T08:48:54Z</time>
      </trkpt>
      <trkpt lat="47.98455" lon="-0.51208">
        <ele>74</ele>
        <time>2024-04-14T08:48:55Z</time>
      </trkpt>
      <trkpt lat="47.98449" lon="-0.51212">
        <ele>73.6</ele>
        <time>2024-04-14T08:48:56Z</time>
      </trkpt>
      <trkpt lat="47.98443" lon="-0.51215">
        <ele>73.6</ele>
        <time>2024-04-14T08:48:57Z</time>
      </trkpt>
      <trkpt lat="47.98437" lon="-0.51219">
        <ele>73.6</ele>
        <time>2024-04-14T08:48:58Z</time>
      </trkpt>
      <trkpt lat="47.98431" lon="-0.51223">
        <ele>73.6</ele>
        <time>2024-04-14T08:48:59Z</time>
      </trkpt>
      <trkpt lat="47.98425" lon="-0.51228">
        <ele>72.8</ele>
        <time>2024-04-14T08:49:00Z</time>
      </trkpt>
      <trkpt lat="47.98419" lon="-0.51232">
        <ele>72.8</ele>
        <time>2024-04-14T08:49:01Z</time>
      </trkpt>
      <trkpt lat="47.98413" lon="-0.51236">
        <ele>72.8</ele>
        <time>2024-04-14T08:49:02Z</time>
      </trkpt>
      <trkpt lat="47.98407" lon="-0.51239">
        <ele>72.8</ele>
        <time>2024-04-14T08:49:03Z</time>
      </trkpt>
      <trkpt lat="47.984" lon="-0.51243">
        <ele>73.2</ele>
        <time>2024-04-14T08:49:04Z</time>
      </trkpt>
      <trkpt lat="47.98394" lon="-0.51247">
        <ele>73.2</ele>
        <time>2024-04-14T08:49:05Z</time>
      </trkpt>
      <trkpt lat="47.98388" lon="-0.51251">
        <ele>73.2</ele>
        <time>2024-04-14T08:49:06Z</time>
      </trkpt>
      <trkpt lat="47.98382" lon="-0.51255">
        <ele>72.2</ele>
        <time>2024-04-14T08:49:07Z</time>
      </trkpt>
      <trkpt lat="47.98376" lon="-0.51259">
        <ele>71.6</ele>
        <time>2024-04-14T08:49:08Z</time>
      </trkpt>
      <trkpt lat="47.9837" lon="-0.51262">
        <ele>71.6</ele>
        <time>2024-04-14T08:49:09Z</time>
      </trkpt>
      <trkpt lat="47.98364" lon="-0.51266">
        <ele>71.6</ele>
        <time>2024-04-14T08:49:10Z</time>
      </trkpt>
      <trkpt lat="47.98358" lon="-0.5127">
        <ele>71.6</ele>
        <time>2024-04-14T08:49:11Z</time>
      </trkpt>
      <trkpt lat="47.98352" lon="-0.51274">
        <ele>71.2</ele>
        <time>2024-04-14T08:49:12Z</time>
      </trkpt>
      <trkpt lat="47.98346" lon="-0.51277">
        <ele>71.2</ele>
        <time>2024-04-14T08:49:13Z</time>
      </trkpt>
      <trkpt lat="47.9834" lon="-0.51281">
        <ele>71.2</ele>
        <time>2024-04-14T08:49:14Z</time>
      </trkpt>
      <trkpt lat="47.98334" lon="-0.51284">
        <ele>71.2</ele>
        <time>2024-04-14T08:49:15Z</time>
      </trkpt>
      <trkpt lat="47.98328" lon="-0.51288">
        <ele>71.2</ele>
        <time>2024-04-14T08:49:16Z</time>
      </trkpt>
      <trkpt lat="47.98322" lon="-0.51292">
        <ele>71.2</ele>
        <time>2024-04-14T08:49:17Z</time>
      </trkpt>
      <trkpt lat="47.98316" lon="-0.51294">
        <ele>71.2</ele>
        <time>2024-04-14T08:49:18Z</time>
      </trkpt>
      <trkpt lat="47.9831" lon="-0.51296">
        <ele>71.2</ele>
        <time>2024-04-14T08:49:19Z</time>
      </trkpt>
      <trkpt lat="47.98303" lon="-0.51297">
        <ele>71.2</ele>
        <time>2024-04-14T08:49:20Z</time>
      </trkpt>
      <trkpt lat="47.98297" lon="-0.51296">
        <ele>71.2</ele>
        <time>2024-04-14T08:49:21Z</time>
      </trkpt>
      <trkpt lat="47.98291" lon="-0.51293">
        <ele>71.2</ele>
        <time>2024-04-14T08:49:22Z</time>
      </trkpt>
      <trkpt lat="47.98285" lon="-0.51289">
        <ele>71.2</ele>
        <time>2024-04-14T08:49:23Z</time>
      </trkpt>
      <trkpt lat="47.9828" lon="-0.51284">
        <ele>71.4</ele>
        <time>2024-04-14T08:49:24Z</time>
      </trkpt>
      <trkpt lat="47.98275" lon="-0.51279">
        <ele>71.4</ele>
        <time>2024-04-14T08:49:25Z</time>
      </trkpt>
      <trkpt lat="47.9827" lon="-0.51273">
        <ele>71.4</ele>
        <time>2024-04-14T08:49:26Z</time>
      </trkpt>
      <trkpt lat="47.98266" lon="-0.51267">
        <ele>71.4</ele>
        <time>2024-04-14T08:49:27Z</time>
      </trkpt>
      <trkpt lat="47.98261" lon="-0.5126">
        <ele>71.2</ele>
        <time>2024-04-14T08:49:28Z</time>
      </trkpt>
      <trkpt lat="47.98257" lon="-0.51253">
        <ele>71.2</ele>
        <time>2024-04-14T08:49:29Z</time>
      </trkpt>
      <trkpt lat="47.98254" lon="-0.51245">
        <ele>71.2</ele>
        <time>2024-04-14T08:49:30Z</time>
      </trkpt>
      <trkpt lat="47.98252" lon="-0.51236">
        <ele>71.2</ele>
        <time>2024-04-14T08:49:31Z</time>
      </trkpt>
      <trkpt lat="47.9825" lon="-0.51226">
        <ele>71</ele>
        <time>2024-04-14T08:49:32Z</time>
      </trkpt>
      <trkpt lat="47.98251" lon="-0.51216">
        <ele>71</ele>
        <time>2024-04-14T08:49:33Z</time>
      </trkpt>
      <trkpt lat="47.98252" lon="-0.51206">
        <ele>71</ele>
        <time>2024-04-14T08:49:34Z</time>
      </trkpt>
      <trkpt lat="47.98255" lon="-0.51197">
        <ele>70.6</ele>
        <time>2024-04-14T08:49:35Z</time>
      </trkpt>
      <trkpt lat="47.98258" lon="-0.51189">
        <ele>70.4</ele>
        <time>2024-04-14T08:49:36Z</time>
      </trkpt>
      <trkpt lat="47.98261" lon="-0.51181">
        <ele>70.4</ele>
        <time>2024-04-14T08:49:37Z</time>
      </trkpt>
      <trkpt lat="47.98264" lon="-0.51174">
        <ele>70.4</ele>
        <time>2024-04-14T08:49:38Z</time>
      </trkpt>
      <trkpt lat="47.98268" lon="-0.51166">
        <ele>70.4</ele>
        <time>2024-04-14T08:49:39Z</time>
      </trkpt>
      <trkpt lat="47.98271" lon="-0.51159">
        <ele>71.4</ele>
        <time>2024-04-14T08:49:40Z</time>
      </trkpt>
      <trkpt lat="47.98274" lon="-0.51152">
        <ele>71.4</ele>
        <time>2024-04-14T08:49:41Z</time>
      </trkpt>
      <trkpt lat="47.98276" lon="-0.51144">
        <ele>71.4</ele>
        <time>2024-04-14T08:49:42Z</time>
      </trkpt>
      <trkpt lat="47.98278" lon="-0.51136">
        <ele>71.4</ele>
        <time>2024-04-14T08:49:43Z</time>
      </trkpt>
      <trkpt lat="47.98279" lon="-0.51128">
        <ele>71</ele>
        <time>2024-04-14T08:49:44Z</time>
      </trkpt>
      <trkpt lat="47.98278" lon="-0.5112">
        <ele>71</ele>
        <time>2024-04-14T08:49:45Z</time>
      </trkpt>
      <trkpt lat="47.98275" lon="-0.51112">
        <ele>71</ele>
        <time>2024-04-14T08:49:46Z</time>
      </trkpt>
      <trkpt lat="47.98271" lon="-0.51107">
        <ele>71</ele>
        <time>2024-04-14T08:49:47Z</time>
      </trkpt>
      <trkpt lat="47.98266" lon="-0.51106">
        <ele>71.6</ele>
        <time>2024-04-14T08:49:48Z</time>
      </trkpt>
      <trkpt lat="47.98261" lon="-0.51108">
        <ele>71.6</ele>
        <time>2024-04-14T08:49:49Z</time>
      </trkpt>
      <trkpt lat="47.98257" lon="-0.51114">
        <ele>71.6</ele>
        <time>2024-04-14T08:49:50Z</time>
      </trkpt>
      <trkpt lat="47.98254" lon="-0.51121">
        <ele>70.6</ele>
        <time>2024-04-14T08:49:51Z</time>
      </trkpt>
      <trkpt lat="47.98251" lon="-0.51128">
        <ele>69.8</ele>
        <time>2024-04-14T08:49:52Z</time>
      </trkpt>
      <trkpt lat="47.98247" lon="-0.51136">
        <ele>69.8</ele>
        <time>2024-04-14T08:49:53Z</time>
      </trkpt>
      <trkpt lat="47.98244" lon="-0.51144">
        <ele>69.8</ele>
        <time>2024-04-14T08:49:54Z</time>
      </trkpt>
      <trkpt lat="47.9824" lon="-0.51152">
        <ele>68.8</ele>
        <time>2024-04-14T08:49:55Z</time>
      </trkpt>
      <trkpt lat="47.98237" lon="-0.5116">
        <ele>68.6</ele>
        <time>2024-04-14T08:49:56Z</time>
      </trkpt>
      <trkpt lat="47.98233" lon="-0.51169">
        <ele>68.6</ele>
        <time>2024-04-14T08:49:57Z</time>
      </trkpt>
      <trkpt lat="47.98229" lon="-0.51177">
        <ele>68.6</ele>
        <time>2024-04-14T08:49:58Z</time>
      </trkpt>
      <trkpt lat="47.98225" lon="-0.51186">
        <ele>67.6</ele>
        <time>2024-04-14T08:49:59Z</time>
      </trkpt>
      <trkpt lat="47.98221" lon="-0.51195">
        <ele>66.2</ele>
        <time>2024-04-14T08:50:00Z</time>
      </trkpt>
      <trkpt lat="47.98216" lon="-0.51205">
        <ele>66.2</ele>
        <time>2024-04-14T08:50:01Z</time>
      </trkpt>
      <trkpt lat="47.98212" lon="-0.51214">
        <ele>66.2</ele>
        <time>2024-04-14T08:50:02Z</time>
      </trkpt>
      <trkpt lat="47.98208" lon="-0.51223">
        <ele>66.2</ele>
        <time>2024-04-14T08:50:03Z</time>
      </trkpt>
      <trkpt lat="47.98203" lon="-0.51233">
        <ele>64.8</ele>
        <time>2024-04-14T08:50:04Z</time>
      </trkpt>
      <trkpt lat="47.98199" lon="-0.51243">
        <ele>64.8</ele>
        <time>2024-04-14T08:50:05Z</time>
      </trkpt>
      <trkpt lat="47.98195" lon="-0.51253">
        <ele>64.8</ele>
        <time>2024-04-14T08:50:06Z</time>
      </trkpt>
      <trkpt lat="47.98191" lon="-0.51262">
        <ele>64.8</ele>
        <time>2024-04-14T08:50:07Z</time>
      </trkpt>
      <trkpt lat="47.98186" lon="-0.51271">
        <ele>64.8</ele>
        <time>2024-04-14T08:50:08Z</time>
      </trkpt>
      <trkpt lat="47.98182" lon="-0.5128">
        <ele>64.8</ele>
        <time>2024-04-14T08:50:09Z</time>
      </trkpt>
      <trkpt lat="47.98176" lon="-0.51288">
        <ele>64.8</ele>
        <time>2024-04-14T08:50:10Z</time>
      </trkpt>
      <trkpt lat="47.98171" lon="-0.51296">
        <ele>65.2</ele>
        <time>2024-04-14T08:50:11Z</time>
      </trkpt>
      <trkpt lat="47.98167" lon="-0.51305">
        <ele>65</ele>
        <time>2024-04-14T08:50:12Z</time>
      </trkpt>
      <trkpt lat="47.98164" lon="-0.51313">
        <ele>65</ele>
        <time>2024-04-14T08:50:13Z</time>
      </trkpt>
      <trkpt lat="47.9816" lon="-0.51322">
        <ele>65</ele>
        <time>2024-04-14T08:50:14Z</time>
      </trkpt>
      <trkpt lat="47.98157" lon="-0.51331">
        <ele>65</ele>
        <time>2024-04-14T08:50:15Z</time>
      </trkpt>
      <trkpt lat="47.98154" lon="-0.5134">
        <ele>65.4</ele>
        <time>2024-04-14T08:50:16Z</time>
      </trkpt>
      <trkpt lat="47.9815" lon="-0.51348">
        <ele>65.4</ele>
        <time>2024-04-14T08:50:17Z</time>
      </trkpt>
      <trkpt lat="47.98147" lon="-0.51356">
        <ele>65.4</ele>
        <time>2024-04-14T08:50:18Z</time>
      </trkpt>
      <trkpt lat="47.98143" lon="-0.51364">
        <ele>66</ele>
        <time>2024-04-14T08:50:19Z</time>
      </trkpt>
      <trkpt lat="47.98139" lon="-0.51372">
        <ele>66</ele>
        <time>2024-04-14T08:50:20Z</time>
      </trkpt>
      <trkpt lat="47.98135" lon="-0.51379">
        <ele>66</ele>
        <time>2024-04-14T08:50:21Z</time>
      </trkpt>
      <trkpt lat="47.98131" lon="-0.51387">
        <ele>66</ele>
        <time>2024-04-14T08:50:22Z</time>
      </trkpt>
      <trkpt lat="47.98127" lon="-0.51394">
        <ele>66</ele>
        <time>2024-04-14T08:50:23Z</time>
      </trkpt>
      <trkpt lat="47.98122" lon="-0.51401">
        <ele>66.4</ele>
        <time>2024-04-14T08:50:24Z</time>
      </trkpt>
      <trkpt lat="47.98118" lon="-0.51408">
        <ele>66.4</ele>
        <time>2024-04-14T08:50:25Z</time>
      </trkpt>
      <trkpt lat="47.98113" lon="-0.51415">
        <ele>66.4</ele>
        <time>2024-04-14T08:50:26Z</time>
      </trkpt>
      <trkpt lat="47.98108" lon="-0.51422">
        <ele>66.4</ele>
        <time>2024-04-14T08:50:27Z</time>
      </trkpt>
      <trkpt lat="47.98103" lon="-0.51429">
        <ele>65.6</ele>
        <time>2024-04-14T08:50:28Z</time>
      </trkpt>
      <trkpt lat="47.98098" lon="-0.51435">
        <ele>65.6</ele>
        <time>2024-04-14T08:50:29Z</time>
      </trkpt>
      <trkpt lat="47.98092" lon="-0.51441">
        <ele>65.6</ele>
        <time>2024-04-14T08:50:30Z</time>
      </trkpt>
      <trkpt lat="47.98087" lon="-0.51447">
        <ele>66.6</ele>
        <time>2024-04-14T08:50:31Z</time>
      </trkpt>
      <trkpt lat="47.98082" lon="-0.51452">
        <ele>66.6</ele>
        <time>2024-04-14T08:50:32Z</time>
      </trkpt>
      <trkpt lat="47.98076" lon="-0.51458">
        <ele>66.6</ele>
        <time>2024-04-14T08:50:33Z</time>
      </trkpt>
      <trkpt lat="47.9807" lon="-0.51463">
        <ele>66.6</ele>
        <time>2024-04-14T08:50:34Z</time>
      </trkpt>
      <trkpt lat="47.98065" lon="-0.51468">
        <ele>67.6</ele>
        <time>2024-04-14T08:50:35Z</time>
      </trkpt>
      <trkpt lat="47.98059" lon="-0.51473">
        <ele>67.6</ele>
        <time>2024-04-14T08:50:36Z</time>
      </trkpt>
      <trkpt lat="47.98053" lon="-0.51478">
        <ele>67.6</ele>
        <time>2024-04-14T08:50:37Z</time>
      </trkpt>
      <trkpt lat="47.98047" lon="-0.51482">
        <ele>67.6</ele>
        <time>2024-04-14T08:50:38Z</time>
      </trkpt>
      <trkpt lat="47.98041" lon="-0.51486">
        <ele>67.2</ele>
        <time>2024-04-14T08:50:39Z</time>
      </trkpt>
      <trkpt lat="47.98034" lon="-0.5149">
        <ele>67.4</ele>
        <time>2024-04-14T08:50:40Z</time>
      </trkpt>
      <trkpt lat="47.98028" lon="-0.51494">
        <ele>67.4</ele>
        <time>2024-04-14T08:50:41Z</time>
      </trkpt>
      <trkpt lat="47.98021" lon="-0.51497">
        <ele>67.4</ele>
        <time>2024-04-14T08:50:42Z</time>
      </trkpt>
      <trkpt lat="47.98015" lon="-0.515">
        <ele>67.4</ele>
        <time>2024-04-14T08:50:43Z</time>
      </trkpt>
      <trkpt lat="47.98008" lon="-0.51503">
        <ele>67.4</ele>
        <time>2024-04-14T08:50:44Z</time>
      </trkpt>
      <trkpt lat="47.98002" lon="-0.51506">
        <ele>67.4</ele>
        <time>2024-04-14T08:50:45Z</time>
      </trkpt>
      <trkpt lat="47.97995" lon="-0.51509">
        <ele>67.4</ele>
        <time>2024-04-14T08:50:46Z</time>
      </trkpt>
      <trkpt lat="47.97988" lon="-0.51511">
        <ele>67.2</ele>
        <time>2024-04-14T08:50:47Z</time>
      </trkpt>
      <trkpt lat="47.97981" lon="-0.51514">
        <ele>66.4</ele>
        <time>2024-04-14T08:50:48Z</time>
      </trkpt>
      <trkpt lat="47.97974" lon="-0.51516">
        <ele>66.4</ele>
        <time>2024-04-14T08:50:49Z</time>
      </trkpt>
      <trkpt lat="47.97967" lon="-0.51519">
        <ele>66.4</ele>
        <time>2024-04-14T08:50:50Z</time>
      </trkpt>
      <trkpt lat="47.9796" lon="-0.51521">
        <ele>66.2</ele>
        <time>2024-04-14T08:50:51Z</time>
      </trkpt>
      <trkpt lat="47.97954" lon="-0.51524">
        <ele>66.6</ele>
        <time>2024-04-14T08:50:52Z</time>
      </trkpt>
      <trkpt lat="47.97947" lon="-0.51526">
        <ele>66.6</ele>
        <time>2024-04-14T08:50:53Z</time>
      </trkpt>
      <trkpt lat="47.9794" lon="-0.51528">
        <ele>66.6</ele>
        <time>2024-04-14T08:50:54Z</time>
      </trkpt>
      <trkpt lat="47.97933" lon="-0.51529">
        <ele>66.6</ele>
        <time>2024-04-14T08:50:55Z</time>
      </trkpt>
      <trkpt lat="47.97927" lon="-0.51531">
        <ele>66.8</ele>
        <time>2024-04-14T08:50:56Z</time>
      </trkpt>
      <trkpt lat="47.9792" lon="-0.51532">
        <ele>66.8</ele>
        <time>2024-04-14T08:50:57Z</time>
      </trkpt>
      <trkpt lat="47.97913" lon="-0.51533">
        <ele>66.8</ele>
        <time>2024-04-14T08:50:58Z</time>
      </trkpt>
      <trkpt lat="47.97906" lon="-0.51534">
        <ele>66.4</ele>
        <time>2024-04-14T08:50:59Z</time>
      </trkpt>
      <trkpt lat="47.97899" lon="-0.51534">
        <ele>66.4</ele>
        <time>2024-04-14T08:51:00Z</time>
      </trkpt>
      <trkpt lat="47.97892" lon="-0.51535">
        <ele>66.4</ele>
        <time>2024-04-14T08:51:01Z</time>
      </trkpt>
      <trkpt lat="47.97885" lon="-0.51535">
        <ele>66.4</ele>
        <time>2024-04-14T08:51:02Z</time>
      </trkpt>
      <trkpt lat="47.97878" lon="-0.51535">
        <ele>66.4</ele>
        <time>2024-04-14T08:51:03Z</time>
      </trkpt>
      <trkpt lat="47.97872" lon="-0.51536">
        <ele>66.4</ele>
        <time>2024-04-14T08:51:04Z</time>
      </trkpt>
      <trkpt lat="47.97865" lon="-0.51536">
        <ele>66.4</ele>
        <time>2024-04-14T08:51:05Z</time>
      </trkpt>
      <trkpt lat="47.97859" lon="-0.51536">
        <ele>66.4</ele>
        <time>2024-04-14T08:51:06Z</time>
      </trkpt>
      <trkpt lat="47.97852" lon="-0.51537">
        <ele>66.4</ele>
        <time>2024-04-14T08:51:07Z</time>
      </trkpt>
      <trkpt lat="47.97845" lon="-0.51538">
        <ele>66.4</ele>
        <time>2024-04-14T08:51:08Z</time>
      </trkpt>
      <trkpt lat="47.97839" lon="-0.51538">
        <ele>66.4</ele>
        <time>2024-04-14T08:51:09Z</time>
      </trkpt>
      <trkpt lat="47.97831" lon="-0.51538">
        <ele>66.4</ele>
        <time>2024-04-14T08:51:10Z</time>
      </trkpt>
      <trkpt lat="47.97824" lon="-0.51538">
        <ele>66.4</ele>
        <time>2024-04-14T08:51:11Z</time>
      </trkpt>
      <trkpt lat="47.97817" lon="-0.51539">
        <ele>66.4</ele>
        <time>2024-04-14T08:51:12Z</time>
      </trkpt>
      <trkpt lat="47.97811" lon="-0.5154">
        <ele>66.4</ele>
        <time>2024-04-14T08:51:13Z</time>
      </trkpt>
      <trkpt lat="47.97804" lon="-0.51541">
        <ele>66.4</ele>
        <time>2024-04-14T08:51:14Z</time>
      </trkpt>
      <trkpt lat="47.97797" lon="-0.51542">
        <ele>66</ele>
        <time>2024-04-14T08:51:15Z</time>
      </trkpt>
      <trkpt lat="47.9779" lon="-0.51545">
        <ele>65.2</ele>
        <time>2024-04-14T08:51:16Z</time>
      </trkpt>
      <trkpt lat="47.97783" lon="-0.51548">
        <ele>65.2</ele>
        <time>2024-04-14T08:51:17Z</time>
      </trkpt>
      <trkpt lat="47.97777" lon="-0.51551">
        <ele>65.2</ele>
        <time>2024-04-14T08:51:18Z</time>
      </trkpt>
      <trkpt lat="47.9777" lon="-0.51555">
        <ele>65.8</ele>
        <time>2024-04-14T08:51:19Z</time>
      </trkpt>
      <trkpt lat="47.97764" lon="-0.5156">
        <ele>66</ele>
        <time>2024-04-14T08:51:20Z</time>
      </trkpt>
      <trkpt lat="47.97758" lon="-0.51564">
        <ele>66</ele>
        <time>2024-04-14T08:51:21Z</time>
      </trkpt>
      <trkpt lat="47.97752" lon="-0.51568">
        <ele>66</ele>
        <time>2024-04-14T08:51:22Z</time>
      </trkpt>
      <trkpt lat="47.97747" lon="-0.51572">
        <ele>66</ele>
        <time>2024-04-14T08:51:23Z</time>
      </trkpt>
      <trkpt lat="47.97741" lon="-0.51576">
        <ele>66.8</ele>
        <time>2024-04-14T08:51:24Z</time>
      </trkpt>
      <trkpt lat="47.97735" lon="-0.5158">
        <ele>66.8</ele>
        <time>2024-04-14T08:51:25Z</time>
      </trkpt>
      <trkpt lat="47.97729" lon="-0.51583">
        <ele>66.8</ele>
        <time>2024-04-14T08:51:26Z</time>
      </trkpt>
      <trkpt lat="47.97723" lon="-0.51585">
        <ele>66.8</ele>
        <time>2024-04-14T08:51:27Z</time>
      </trkpt>
      <trkpt lat="47.97717" lon="-0.51587">
        <ele>67.8</ele>
        <time>2024-04-14T08:51:28Z</time>
      </trkpt>
      <trkpt lat="47.97711" lon="-0.51588">
        <ele>67.8</ele>
        <time>2024-04-14T08:51:29Z</time>
      </trkpt>
      <trkpt lat="47.97705" lon="-0.51589">
        <ele>67.8</ele>
        <time>2024-04-14T08:51:30Z</time>
      </trkpt>
      <trkpt lat="47.97699" lon="-0.5159">
        <ele>67.8</ele>
        <time>2024-04-14T08:51:31Z</time>
      </trkpt>
      <trkpt lat="47.97693" lon="-0.51591">
        <ele>67.2</ele>
        <time>2024-04-14T08:51:32Z</time>
      </trkpt>
      <trkpt lat="47.97687" lon="-0.51592">
        <ele>67.2</ele>
        <time>2024-04-14T08:51:33Z</time>
      </trkpt>
      <trkpt lat="47.97681" lon="-0.51592">
        <ele>67.2</ele>
        <time>2024-04-14T08:51:34Z</time>
      </trkpt>
      <trkpt lat="47.97675" lon="-0.51593">
        <ele>68.2</ele>
        <time>2024-04-14T08:51:35Z</time>
      </trkpt>
      <trkpt lat="47.97669" lon="-0.51594">
        <ele>68.2</ele>
        <time>2024-04-14T08:51:36Z</time>
      </trkpt>
      <trkpt lat="47.97663" lon="-0.51595">
        <ele>68.2</ele>
        <time>2024-04-14T08:51:37Z</time>
      </trkpt>
      <trkpt lat="47.97658" lon="-0.51596">
        <ele>68.2</ele>
        <time>2024-04-14T08:51:38Z</time>
      </trkpt>
      <trkpt lat="47.97652" lon="-0.51597">
        <ele>68.2</ele>
        <time>2024-04-14T08:51:39Z</time>
      </trkpt>
      <trkpt lat="47.97647" lon="-0.51599">
        <ele>68.6</ele>
        <time>2024-04-14T08:51:40Z</time>
      </trkpt>
      <trkpt lat="47.97641" lon="-0.51601">
        <ele>68.6</ele>
        <time>2024-04-14T08:51:41Z</time>
      </trkpt>
      <trkpt lat="47.97636" lon="-0.51603">
        <ele>68.6</ele>
        <time>2024-04-14T08:51:42Z</time>
      </trkpt>
      <trkpt lat="47.97631" lon="-0.51606">
        <ele>69.4</ele>
        <time>2024-04-14T08:51:43Z</time>
      </trkpt>
      <trkpt lat="47.97626" lon="-0.51609">
        <ele>70.2</ele>
        <time>2024-04-14T08:51:44Z</time>
      </trkpt>
      <trkpt lat="47.97621" lon="-0.51613">
        <ele>70.2</ele>
        <time>2024-04-14T08:51:45Z</time>
      </trkpt>
      <trkpt lat="47.97617" lon="-0.51617">
        <ele>70.2</ele>
        <time>2024-04-14T08:51:46Z</time>
      </trkpt>
      <trkpt lat="47.97613" lon="-0.51622">
        <ele>70.2</ele>
        <time>2024-04-14T08:51:47Z</time>
      </trkpt>
      <trkpt lat="47.97608" lon="-0.51627">
        <ele>70.2</ele>
        <time>2024-04-14T08:51:48Z</time>
      </trkpt>
      <trkpt lat="47.97604" lon="-0.51632">
        <ele>70.2</ele>
        <time>2024-04-14T08:51:49Z</time>
      </trkpt>
      <trkpt lat="47.976" lon="-0.51636">
        <ele>70.2</ele>
        <time>2024-04-14T08:51:50Z</time>
      </trkpt>
      <trkpt lat="47.97595" lon="-0.51641">
        <ele>70.8</ele>
        <time>2024-04-14T08:51:51Z</time>
      </trkpt>
      <trkpt lat="47.97591" lon="-0.51646">
        <ele>70.2</ele>
        <time>2024-04-14T08:51:52Z</time>
      </trkpt>
      <trkpt lat="47.97587" lon="-0.5165">
        <ele>70.2</ele>
        <time>2024-04-14T08:51:53Z</time>
      </trkpt>
      <trkpt lat="47.97582" lon="-0.51655">
        <ele>70.2</ele>
        <time>2024-04-14T08:51:54Z</time>
      </trkpt>
      <trkpt lat="47.97578" lon="-0.51659">
        <ele>71.2</ele>
        <time>2024-04-14T08:51:55Z</time>
      </trkpt>
      <trkpt lat="47.97573" lon="-0.51664">
        <ele>71.6</ele>
        <time>2024-04-14T08:51:56Z</time>
      </trkpt>
      <trkpt lat="47.97569" lon="-0.51669">
        <ele>71.6</ele>
        <time>2024-04-14T08:51:57Z</time>
      </trkpt>
      <trkpt lat="47.97564" lon="-0.51674">
        <ele>71.6</ele>
        <time>2024-04-14T08:51:58Z</time>
      </trkpt>
      <trkpt lat="47.9756" lon="-0.51679">
        <ele>71.6</ele>
        <time>2024-04-14T08:51:59Z</time>
      </trkpt>
      <trkpt lat="47.97556" lon="-0.51684">
        <ele>71</ele>
        <time>2024-04-14T08:52:00Z</time>
      </trkpt>
      <trkpt lat="47.97551" lon="-0.51689">
        <ele>71</ele>
        <time>2024-04-14T08:52:01Z</time>
      </trkpt>
      <trkpt lat="47.97546" lon="-0.51694">
        <ele>71</ele>
        <time>2024-04-14T08:52:02Z</time>
      </trkpt>
      <trkpt lat="47.97542" lon="-0.51699">
        <ele>71.8</ele>
        <time>2024-04-14T08:52:03Z</time>
      </trkpt>
      <trkpt lat="47.97537" lon="-0.51704">
        <ele>71.4</ele>
        <time>2024-04-14T08:52:04Z</time>
      </trkpt>
      <trkpt lat="47.97533" lon="-0.51709">
        <ele>71.4</ele>
        <time>2024-04-14T08:52:05Z</time>
      </trkpt>
      <trkpt lat="47.97528" lon="-0.51713">
        <ele>71.4</ele>
        <time>2024-04-14T08:52:06Z</time>
      </trkpt>
      <trkpt lat="47.97524" lon="-0.51718">
        <ele>71.4</ele>
        <time>2024-04-14T08:52:07Z</time>
      </trkpt>
      <trkpt lat="47.9752" lon="-0.51723">
        <ele>72</ele>
        <time>2024-04-14T08:52:08Z</time>
      </trkpt>
      <trkpt lat="47.97515" lon="-0.51728">
        <ele>72</ele>
        <time>2024-04-14T08:52:09Z</time>
      </trkpt>
      <trkpt lat="47.97511" lon="-0.51733">
        <ele>72</ele>
        <time>2024-04-14T08:52:10Z</time>
      </trkpt>
      <trkpt lat="47.97507" lon="-0.51738">
        <ele>72</ele>
        <time>2024-04-14T08:52:11Z</time>
      </trkpt>
      <trkpt lat="47.97502" lon="-0.51743">
        <ele>71.6</ele>
        <time>2024-04-14T08:52:12Z</time>
      </trkpt>
      <trkpt lat="47.97498" lon="-0.51748">
        <ele>71.6</ele>
        <time>2024-04-14T08:52:13Z</time>
      </trkpt>
      <trkpt lat="47.97493" lon="-0.51754">
        <ele>71.6</ele>
        <time>2024-04-14T08:52:14Z</time>
      </trkpt>
      <trkpt lat="47.97489" lon="-0.51759">
        <ele>72.6</ele>
        <time>2024-04-14T08:52:15Z</time>
      </trkpt>
      <trkpt lat="47.97485" lon="-0.51765">
        <ele>72.6</ele>
        <time>2024-04-14T08:52:16Z</time>
      </trkpt>
      <trkpt lat="47.97481" lon="-0.51771">
        <ele>72.6</ele>
        <time>2024-04-14T08:52:17Z</time>
      </trkpt>
      <trkpt lat="47.97478" lon="-0.51778">
        <ele>72.6</ele>
        <time>2024-04-14T08:52:18Z</time>
      </trkpt>
      <trkpt lat="47.97475" lon="-0.51785">
        <ele>72.6</ele>
        <time>2024-04-14T08:52:19Z</time>
      </trkpt>
      <trkpt lat="47.97473" lon="-0.51793">
        <ele>72.6</ele>
        <time>2024-04-14T08:52:20Z</time>
      </trkpt>
      <trkpt lat="47.9747" lon="-0.51801">
        <ele>72.6</ele>
        <time>2024-04-14T08:52:21Z</time>
      </trkpt>
      <trkpt lat="47.97469" lon="-0.51808">
        <ele>72.6</ele>
        <time>2024-04-14T08:52:22Z</time>
      </trkpt>
      <trkpt lat="47.97467" lon="-0.51816">
        <ele>72.6</ele>
        <time>2024-04-14T08:52:23Z</time>
      </trkpt>
      <trkpt lat="47.97465" lon="-0.51824">
        <ele>72.8</ele>
        <time>2024-04-14T08:52:24Z</time>
      </trkpt>
      <trkpt lat="47.97464" lon="-0.51832">
        <ele>72.8</ele>
        <time>2024-04-14T08:52:25Z</time>
      </trkpt>
      <trkpt lat="47.97462" lon="-0.5184">
        <ele>72.8</ele>
        <time>2024-04-14T08:52:26Z</time>
      </trkpt>
      <trkpt lat="47.9746" lon="-0.51848">
        <ele>73.4</ele>
        <time>2024-04-14T08:52:27Z</time>
      </trkpt>
      <trkpt lat="47.97459" lon="-0.51855">
        <ele>73.4</ele>
        <time>2024-04-14T08:52:28Z</time>
      </trkpt>
      <trkpt lat="47.97457" lon="-0.51863">
        <ele>73.4</ele>
        <time>2024-04-14T08:52:29Z</time>
      </trkpt>
      <trkpt lat="47.97456" lon="-0.5187">
        <ele>73.4</ele>
        <time>2024-04-14T08:52:30Z</time>
      </trkpt>
      <trkpt lat="47.97454" lon="-0.51878">
        <ele>73.4</ele>
        <time>2024-04-14T08:52:31Z</time>
      </trkpt>
      <trkpt lat="47.97453" lon="-0.51885">
        <ele>74</ele>
        <time>2024-04-14T08:52:32Z</time>
      </trkpt>
      <trkpt lat="47.97451" lon="-0.51893">
        <ele>74</ele>
        <time>2024-04-14T08:52:33Z</time>
      </trkpt>
      <trkpt lat="47.9745" lon="-0.519">
        <ele>74</ele>
        <time>2024-04-14T08:52:34Z</time>
      </trkpt>
      <trkpt lat="47.97448" lon="-0.51908">
        <ele>74</ele>
        <time>2024-04-14T08:52:35Z</time>
      </trkpt>
      <trkpt lat="47.97447" lon="-0.51915">
        <ele>74</ele>
        <time>2024-04-14T08:52:36Z</time>
      </trkpt>
      <trkpt lat="47.97445" lon="-0.51923">
        <ele>74</ele>
        <time>2024-04-14T08:52:37Z</time>
      </trkpt>
      <trkpt lat="47.97444" lon="-0.51931">
        <ele>74</ele>
        <time>2024-04-14T08:52:38Z</time>
      </trkpt>
      <trkpt lat="47.97442" lon="-0.51938">
        <ele>74.8</ele>
        <time>2024-04-14T08:52:39Z</time>
      </trkpt>
      <trkpt lat="47.97441" lon="-0.51946">
        <ele>75.8</ele>
        <time>2024-04-14T08:52:40Z</time>
      </trkpt>
      <trkpt lat="47.97439" lon="-0.51954">
        <ele>75.8</ele>
        <time>2024-04-14T08:52:41Z</time>
      </trkpt>
      <trkpt lat="47.97437" lon="-0.51962">
        <ele>75.8</ele>
        <time>2024-04-14T08:52:42Z</time>
      </trkpt>
      <trkpt lat="47.97436" lon="-0.51969">
        <ele>74.8</ele>
        <time>2024-04-14T08:52:43Z</time>
      </trkpt>
      <trkpt lat="47.97434" lon="-0.51977">
        <ele>75.6</ele>
        <time>2024-04-14T08:52:44Z</time>
      </trkpt>
      <trkpt lat="47.97432" lon="-0.51985">
        <ele>75.6</ele>
        <time>2024-04-14T08:52:45Z</time>
      </trkpt>
      <trkpt lat="47.9743" lon="-0.51992">
        <ele>75.6</ele>
        <time>2024-04-14T08:52:46Z</time>
      </trkpt>
      <trkpt lat="47.97429" lon="-0.51999">
        <ele>75.6</ele>
        <time>2024-04-14T08:52:47Z</time>
      </trkpt>
      <trkpt lat="47.97426" lon="-0.52006">
        <ele>75.8</ele>
        <time>2024-04-14T08:52:48Z</time>
      </trkpt>
      <trkpt lat="47.97424" lon="-0.52013">
        <ele>75.8</ele>
        <time>2024-04-14T08:52:49Z</time>
      </trkpt>
      <trkpt lat="47.97422" lon="-0.5202">
        <ele>75.8</ele>
        <time>2024-04-14T08:52:50Z</time>
      </trkpt>
      <trkpt lat="47.9742" lon="-0.52026">
        <ele>75.8</ele>
        <time>2024-04-14T08:52:51Z</time>
      </trkpt>
      <trkpt lat="47.97417" lon="-0.52033">
        <ele>75</ele>
        <time>2024-04-14T08:52:52Z</time>
      </trkpt>
      <trkpt lat="47.97415" lon="-0.52039">
        <ele>75</ele>
        <time>2024-04-14T08:52:53Z</time>
      </trkpt>
      <trkpt lat="47.97412" lon="-0.52045">
        <ele>75</ele>
        <time>2024-04-14T08:52:54Z</time>
      </trkpt>
      <trkpt lat="47.97409" lon="-0.52052">
        <ele>76</ele>
        <time>2024-04-14T08:52:55Z</time>
      </trkpt>
      <trkpt lat="47.97406" lon="-0.52059">
        <ele>75.8</ele>
        <time>2024-04-14T08:52:56Z</time>
      </trkpt>
      <trkpt lat="47.97403" lon="-0.52065">
        <ele>75.8</ele>
        <time>2024-04-14T08:52:57Z</time>
      </trkpt>
      <trkpt lat="47.974" lon="-0.52072">
        <ele>75.8</ele>
        <time>2024-04-14T08:52:58Z</time>
      </trkpt>
      <trkpt lat="47.97397" lon="-0.52079">
        <ele>75.8</ele>
        <time>2024-04-14T08:52:59Z</time>
      </trkpt>
      <trkpt lat="47.97394" lon="-0.52085">
        <ele>76.6</ele>
        <time>2024-04-14T08:53:00Z</time>
      </trkpt>
      <trkpt lat="47.97391" lon="-0.52092">
        <ele>76.6</ele>
        <time>2024-04-14T08:53:01Z</time>
      </trkpt>
      <trkpt lat="47.97388" lon="-0.52098">
        <ele>76.6</ele>
        <time>2024-04-14T08:53:02Z</time>
      </trkpt>
      <trkpt lat="47.97384" lon="-0.52105">
        <ele>76.6</ele>
        <time>2024-04-14T08:53:03Z</time>
      </trkpt>
      <trkpt lat="47.97381" lon="-0.52112">
        <ele>77</ele>
        <time>2024-04-14T08:53:04Z</time>
      </trkpt>
      <trkpt lat="47.97378" lon="-0.52118">
        <ele>77</ele>
        <time>2024-04-14T08:53:05Z</time>
      </trkpt>
      <trkpt lat="47.97375" lon="-0.52125">
        <ele>77</ele>
        <time>2024-04-14T08:53:06Z</time>
      </trkpt>
      <trkpt lat="47.97371" lon="-0.52131">
        <ele>77</ele>
        <time>2024-04-14T08:53:07Z</time>
      </trkpt>
      <trkpt lat="47.97367" lon="-0.52137">
        <ele>77.2</ele>
        <time>2024-04-14T08:53:08Z</time>
      </trkpt>
      <trkpt lat="47.97364" lon="-0.52142">
        <ele>77.2</ele>
        <time>2024-04-14T08:53:09Z</time>
      </trkpt>
      <trkpt lat="47.9736" lon="-0.52148">
        <ele>77.2</ele>
        <time>2024-04-14T08:53:10Z</time>
      </trkpt>
      <trkpt lat="47.97356" lon="-0.52154">
        <ele>77.2</ele>
        <time>2024-04-14T08:53:11Z</time>
      </trkpt>
      <trkpt lat="47.97352" lon="-0.52159">
        <ele>76.6</ele>
        <time>2024-04-14T08:53:12Z</time>
      </trkpt>
      <trkpt lat="47.97347" lon="-0.52164">
        <ele>76.6</ele>
        <time>2024-04-14T08:53:13Z</time>
      </trkpt>
      <trkpt lat="47.97343" lon="-0.52168">
        <ele>76.6</ele>
        <time>2024-04-14T08:53:14Z</time>
      </trkpt>
      <trkpt lat="47.97338" lon="-0.52173">
        <ele>76.6</ele>
        <time>2024-04-14T08:53:15Z</time>
      </trkpt>
      <trkpt lat="47.97333" lon="-0.52177">
        <ele>76.8</ele>
        <time>2024-04-14T08:53:16Z</time>
      </trkpt>
      <trkpt lat="47.97328" lon="-0.5218">
        <ele>76.8</ele>
        <time>2024-04-14T08:53:17Z</time>
      </trkpt>
      <trkpt lat="47.97323" lon="-0.52184">
        <ele>76.8</ele>
        <time>2024-04-14T08:53:18Z</time>
      </trkpt>
      <trkpt lat="47.97318" lon="-0.52187">
        <ele>77</ele>
        <time>2024-04-14T08:53:19Z</time>
      </trkpt>
      <trkpt lat="47.97313" lon="-0.5219">
        <ele>77.4</ele>
        <time>2024-04-14T08:53:20Z</time>
      </trkpt>
      <trkpt lat="47.97307" lon="-0.52193">
        <ele>77.4</ele>
        <time>2024-04-14T08:53:21Z</time>
      </trkpt>
      <trkpt lat="47.97302" lon="-0.52196">
        <ele>77.4</ele>
        <time>2024-04-14T08:53:22Z</time>
      </trkpt>
      <trkpt lat="47.97296" lon="-0.52198">
        <ele>76.8</ele>
        <time>2024-04-14T08:53:23Z</time>
      </trkpt>
      <trkpt lat="47.9729" lon="-0.522">
        <ele>76.6</ele>
        <time>2024-04-14T08:53:24Z</time>
      </trkpt>
      <trkpt lat="47.97285" lon="-0.52202">
        <ele>76.6</ele>
        <time>2024-04-14T08:53:25Z</time>
      </trkpt>
      <trkpt lat="47.97278" lon="-0.52204">
        <ele>76.6</ele>
        <time>2024-04-14T08:53:26Z</time>
      </trkpt>
      <trkpt lat="47.97272" lon="-0.52206">
        <ele>75.8</ele>
        <time>2024-04-14T08:53:27Z</time>
      </trkpt>
      <trkpt lat="47.97266" lon="-0.52208">
        <ele>75.6</ele>
        <time>2024-04-14T08:53:28Z</time>
      </trkpt>
      <trkpt lat="47.97259" lon="-0.52209">
        <ele>75.6</ele>
        <time>2024-04-14T08:53:29Z</time>
      </trkpt>
      <trkpt lat="47.97253" lon="-0.52211">
        <ele>75.6</ele>
        <time>2024-04-14T08:53:30Z</time>
      </trkpt>
      <trkpt lat="47.97246" lon="-0.52213">
        <ele>75.4</ele>
        <time>2024-04-14T08:53:31Z</time>
      </trkpt>
      <trkpt lat="47.9724" lon="-0.52215">
        <ele>75.4</ele>
        <time>2024-04-14T08:53:32Z</time>
      </trkpt>
      <trkpt lat="47.97233" lon="-0.52217">
        <ele>75.4</ele>
        <time>2024-04-14T08:53:33Z</time>
      </trkpt>
      <trkpt lat="47.97226" lon="-0.52219">
        <ele>75.4</ele>
        <time>2024-04-14T08:53:34Z</time>
      </trkpt>
      <trkpt lat="47.9722" lon="-0.5222">
        <ele>75.4</ele>
        <time>2024-04-14T08:53:35Z</time>
      </trkpt>
      <trkpt lat="47.97213" lon="-0.52222">
        <ele>75.4</ele>
        <time>2024-04-14T08:53:36Z</time>
      </trkpt>
      <trkpt lat="47.97207" lon="-0.52224">
        <ele>75.4</ele>
        <time>2024-04-14T08:53:37Z</time>
      </trkpt>
      <trkpt lat="47.972" lon="-0.52225">
        <ele>75.4</ele>
        <time>2024-04-14T08:53:38Z</time>
      </trkpt>
      <trkpt lat="47.97194" lon="-0.52227">
        <ele>76</ele>
        <time>2024-04-14T08:53:39Z</time>
      </trkpt>
      <trkpt lat="47.97188" lon="-0.52228">
        <ele>75.6</ele>
        <time>2024-04-14T08:53:40Z</time>
      </trkpt>
      <trkpt lat="47.97182" lon="-0.5223">
        <ele>75.6</ele>
        <time>2024-04-14T08:53:41Z</time>
      </trkpt>
      <trkpt lat="47.97175" lon="-0.52231">
        <ele>75.6</ele>
        <time>2024-04-14T08:53:42Z</time>
      </trkpt>
      <trkpt lat="47.97169" lon="-0.52233">
        <ele>75.6</ele>
        <time>2024-04-14T08:53:43Z</time>
      </trkpt>
      <trkpt lat="47.97163" lon="-0.52234">
        <ele>76.2</ele>
        <time>2024-04-14T08:53:44Z</time>
      </trkpt>
      <trkpt lat="47.97157" lon="-0.52236">
        <ele>76.2</ele>
        <time>2024-04-14T08:53:45Z</time>
      </trkpt>
      <trkpt lat="47.97151" lon="-0.52237">
        <ele>76.2</ele>
        <time>2024-04-14T08:53:46Z</time>
      </trkpt>
      <trkpt lat="47.97145" lon="-0.52239">
        <ele>76.2</ele>
        <time>2024-04-14T08:53:47Z</time>
      </trkpt>
      <trkpt lat="47.97139" lon="-0.5224">
        <ele>77</ele>
        <time>2024-04-14T08:53:48Z</time>
      </trkpt>
      <trkpt lat="47.97133" lon="-0.52242">
        <ele>77</ele>
        <time>2024-04-14T08:53:49Z</time>
      </trkpt>
      <trkpt lat="47.97127" lon="-0.52244">
        <ele>77</ele>
        <time>2024-04-14T08:53:50Z</time>
      </trkpt>
      <trkpt lat="47.97121" lon="-0.52246">
        <ele>77</ele>
        <time>2024-04-14T08:53:51Z</time>
      </trkpt>
      <trkpt lat="47.97116" lon="-0.52247">
        <ele>77.8</ele>
        <time>2024-04-14T08:53:52Z</time>
      </trkpt>
      <trkpt lat="47.9711" lon="-0.5225">
        <ele>77.8</ele>
        <time>2024-04-14T08:53:53Z</time>
      </trkpt>
      <trkpt lat="47.97104" lon="-0.52252">
        <ele>77.8</ele>
        <time>2024-04-14T08:53:54Z</time>
      </trkpt>
      <trkpt lat="47.97099" lon="-0.52255">
        <ele>77.2</ele>
        <time>2024-04-14T08:53:55Z</time>
      </trkpt>
      <trkpt lat="47.97093" lon="-0.52258">
        <ele>77</ele>
        <time>2024-04-14T08:53:56Z</time>
      </trkpt>
      <trkpt lat="47.97088" lon="-0.52262">
        <ele>77</ele>
        <time>2024-04-14T08:53:57Z</time>
      </trkpt>
      <trkpt lat="47.97082" lon="-0.52265">
        <ele>77</ele>
        <time>2024-04-14T08:53:58Z</time>
      </trkpt>
      <trkpt lat="47.97077" lon="-0.52269">
        <ele>77.8</ele>
        <time>2024-04-14T08:53:59Z</time>
      </trkpt>
      <trkpt lat="47.97072" lon="-0.52272">
        <ele>77.6</ele>
        <time>2024-04-14T08:54:00Z</time>
      </trkpt>
      <trkpt lat="47.97066" lon="-0.52276">
        <ele>77.6</ele>
        <time>2024-04-14T08:54:01Z</time>
      </trkpt>
      <trkpt lat="47.97061" lon="-0.5228">
        <ele>77.6</ele>
        <time>2024-04-14T08:54:02Z</time>
      </trkpt>
      <trkpt lat="47.97056" lon="-0.52283">
        <ele>77.6</ele>
        <time>2024-04-14T08:54:03Z</time>
      </trkpt>
      <trkpt lat="47.9705" lon="-0.52286">
        <ele>78</ele>
        <time>2024-04-14T08:54:04Z</time>
      </trkpt>
      <trkpt lat="47.97045" lon="-0.5229">
        <ele>78</ele>
        <time>2024-04-14T08:54:05Z</time>
      </trkpt>
      <trkpt lat="47.9704" lon="-0.52294">
        <ele>78</ele>
        <time>2024-04-14T08:54:06Z</time>
      </trkpt>
      <trkpt lat="47.97034" lon="-0.52297">
        <ele>78</ele>
        <time>2024-04-14T08:54:07Z</time>
      </trkpt>
      <trkpt lat="47.97029" lon="-0.52301">
        <ele>77.8</ele>
        <time>2024-04-14T08:54:08Z</time>
      </trkpt>
      <trkpt lat="47.97024" lon="-0.52305">
        <ele>77.8</ele>
        <time>2024-04-14T08:54:09Z</time>
      </trkpt>
      <trkpt lat="47.97019" lon="-0.52309">
        <ele>77.8</ele>
        <time>2024-04-14T08:54:10Z</time>
      </trkpt>
      <trkpt lat="47.97014" lon="-0.52313">
        <ele>78.8</ele>
        <time>2024-04-14T08:54:11Z</time>
      </trkpt>
      <trkpt lat="47.9701" lon="-0.52318">
        <ele>78.6</ele>
        <time>2024-04-14T08:54:12Z</time>
      </trkpt>
      <trkpt lat="47.97005" lon="-0.52324">
        <ele>78.6</ele>
        <time>2024-04-14T08:54:13Z</time>
      </trkpt>
      <trkpt lat="47.97" lon="-0.52329">
        <ele>78.6</ele>
        <time>2024-04-14T08:54:14Z</time>
      </trkpt>
      <trkpt lat="47.96996" lon="-0.52334">
        <ele>78.6</ele>
        <time>2024-04-14T08:54:15Z</time>
      </trkpt>
      <trkpt lat="47.96992" lon="-0.5234">
        <ele>78.6</ele>
        <time>2024-04-14T08:54:16Z</time>
      </trkpt>
      <trkpt lat="47.96988" lon="-0.52346">
        <ele>78.6</ele>
        <time>2024-04-14T08:54:17Z</time>
      </trkpt>
      <trkpt lat="47.96984" lon="-0.52351">
        <ele>78.6</ele>
        <time>2024-04-14T08:54:18Z</time>
      </trkpt>
      <trkpt lat="47.9698" lon="-0.52357">
        <ele>79.4</ele>
        <time>2024-04-14T08:54:19Z</time>
      </trkpt>
      <trkpt lat="47.96976" lon="-0.52362">
        <ele>79.8</ele>
        <time>2024-04-14T08:54:20Z</time>
      </trkpt>
      <trkpt lat="47.96972" lon="-0.52368">
        <ele>79.8</ele>
        <time>2024-04-14T08:54:21Z</time>
      </trkpt>
      <trkpt lat="47.96968" lon="-0.52373">
        <ele>79.8</ele>
        <time>2024-04-14T08:54:22Z</time>
      </trkpt>
      <trkpt lat="47.96965" lon="-0.52379">
        <ele>80.6</ele>
        <time>2024-04-14T08:54:23Z</time>
      </trkpt>
      <trkpt lat="47.96961" lon="-0.52384">
        <ele>80</ele>
        <time>2024-04-14T08:54:24Z</time>
      </trkpt>
      <trkpt lat="47.96957" lon="-0.52389">
        <ele>80</ele>
        <time>2024-04-14T08:54:25Z</time>
      </trkpt>
      <trkpt lat="47.96954" lon="-0.52395">
        <ele>80</ele>
        <time>2024-04-14T08:54:26Z</time>
      </trkpt>
      <trkpt lat="47.9695" lon="-0.524">
        <ele>81</ele>
        <time>2024-04-14T08:54:27Z</time>
      </trkpt>
      <trkpt lat="47.96946" lon="-0.52405">
        <ele>81.6</ele>
        <time>2024-04-14T08:54:28Z</time>
      </trkpt>
      <trkpt lat="47.96943" lon="-0.52411">
        <ele>81.6</ele>
        <time>2024-04-14T08:54:29Z</time>
      </trkpt>
      <trkpt lat="47.96939" lon="-0.52416">
        <ele>81.6</ele>
        <time>2024-04-14T08:54:30Z</time>
      </trkpt>
      <trkpt lat="47.96935" lon="-0.52422">
        <ele>81.6</ele>
        <time>2024-04-14T08:54:31Z</time>
      </trkpt>
      <trkpt lat="47.96932" lon="-0.52427">
        <ele>81.8</ele>
        <time>2024-04-14T08:54:32Z</time>
      </trkpt>
      <trkpt lat="47.96929" lon="-0.52431">
        <ele>81.8</ele>
        <time>2024-04-14T08:54:33Z</time>
      </trkpt>
      <trkpt lat="47.96925" lon="-0.52436">
        <ele>81.8</ele>
        <time>2024-04-14T08:54:34Z</time>
      </trkpt>
      <trkpt lat="47.96922" lon="-0.52441">
        <ele>82.6</ele>
        <time>2024-04-14T08:54:35Z</time>
      </trkpt>
      <trkpt lat="47.96919" lon="-0.52446">
        <ele>82.8</ele>
        <time>2024-04-14T08:54:36Z</time>
      </trkpt>
      <trkpt lat="47.96916" lon="-0.5245">
        <ele>82.8</ele>
        <time>2024-04-14T08:54:37Z</time>
      </trkpt>
      <trkpt lat="47.96913" lon="-0.52455">
        <ele>82.8</ele>
        <time>2024-04-14T08:54:38Z</time>
      </trkpt>
      <trkpt lat="47.9691" lon="-0.5246">
        <ele>82.6</ele>
        <time>2024-04-14T08:54:39Z</time>
      </trkpt>
      <trkpt lat="47.96907" lon="-0.52466">
        <ele>82.4</ele>
        <time>2024-04-14T08:54:40Z</time>
      </trkpt>
      <trkpt lat="47.96903" lon="-0.52471">
        <ele>82.4</ele>
        <time>2024-04-14T08:54:41Z</time>
      </trkpt>
      <trkpt lat="47.96899" lon="-0.52477">
        <ele>82.4</ele>
        <time>2024-04-14T08:54:42Z</time>
      </trkpt>
      <trkpt lat="47.96896" lon="-0.52482">
        <ele>82.6</ele>
        <time>2024-04-14T08:54:43Z</time>
      </trkpt>
      <trkpt lat="47.96892" lon="-0.52488">
        <ele>82.4</ele>
        <time>2024-04-14T08:54:44Z</time>
      </trkpt>
      <trkpt lat="47.96888" lon="-0.52493">
        <ele>82.4</ele>
        <time>2024-04-14T08:54:45Z</time>
      </trkpt>
      <trkpt lat="47.96884" lon="-0.52498">
        <ele>82.4</ele>
        <time>2024-04-14T08:54:46Z</time>
      </trkpt>
      <trkpt lat="47.96879" lon="-0.52503">
        <ele>82.6</ele>
        <time>2024-04-14T08:54:47Z</time>
      </trkpt>
      <trkpt lat="47.96875" lon="-0.52508">
        <ele>83.6</ele>
        <time>2024-04-14T08:54:48Z</time>
      </trkpt>
      <trkpt lat="47.9687" lon="-0.52512">
        <ele>83.6</ele>
        <time>2024-04-14T08:54:49Z</time>
      </trkpt>
      <trkpt lat="47.96865" lon="-0.52517">
        <ele>83.6</ele>
        <time>2024-04-14T08:54:50Z</time>
      </trkpt>
      <trkpt lat="47.9686" lon="-0.5252">
        <ele>82.6</ele>
        <time>2024-04-14T08:54:51Z</time>
      </trkpt>
      <trkpt lat="47.96855" lon="-0.52524">
        <ele>82.4</ele>
        <time>2024-04-14T08:54:52Z</time>
      </trkpt>
      <trkpt lat="47.9685" lon="-0.52527">
        <ele>82.4</ele>
        <time>2024-04-14T08:54:53Z</time>
      </trkpt>
      <trkpt lat="47.96845" lon="-0.5253">
        <ele>82.4</ele>
        <time>2024-04-14T08:54:54Z</time>
      </trkpt>
      <trkpt lat="47.9684" lon="-0.52533">
        <ele>83.2</ele>
        <time>2024-04-14T08:54:55Z</time>
      </trkpt>
      <trkpt lat="47.96835" lon="-0.52536">
        <ele>81.8</ele>
        <time>2024-04-14T08:54:56Z</time>
      </trkpt>
      <trkpt lat="47.9683" lon="-0.52539">
        <ele>81.8</ele>
        <time>2024-04-14T08:54:57Z</time>
      </trkpt>
      <trkpt lat="47.96825" lon="-0.52542">
        <ele>81.8</ele>
        <time>2024-04-14T08:54:58Z</time>
      </trkpt>
      <trkpt lat="47.9682" lon="-0.52545">
        <ele>82</ele>
        <time>2024-04-14T08:54:59Z</time>
      </trkpt>
      <trkpt lat="47.96815" lon="-0.52549">
        <ele>81.8</ele>
        <time>2024-04-14T08:55:00Z</time>
      </trkpt>
      <trkpt lat="47.9681" lon="-0.52552">
        <ele>81.8</ele>
        <time>2024-04-14T08:55:01Z</time>
      </trkpt>
      <trkpt lat="47.96804" lon="-0.52556">
        <ele>81.8</ele>
        <time>2024-04-14T08:55:02Z</time>
      </trkpt>
      <trkpt lat="47.96799" lon="-0.52559">
        <ele>81.8</ele>
        <time>2024-04-14T08:55:03Z</time>
      </trkpt>
      <trkpt lat="47.96794" lon="-0.52562">
        <ele>81.4</ele>
        <time>2024-04-14T08:55:04Z</time>
      </trkpt>
      <trkpt lat="47.96788" lon="-0.52565">
        <ele>81.4</ele>
        <time>2024-04-14T08:55:05Z</time>
      </trkpt>
      <trkpt lat="47.96782" lon="-0.52568">
        <ele>81.4</ele>
        <time>2024-04-14T08:55:06Z</time>
      </trkpt>
      <trkpt lat="47.96777" lon="-0.52572">
        <ele>81.4</ele>
        <time>2024-04-14T08:55:07Z</time>
      </trkpt>
      <trkpt lat="47.96771" lon="-0.52576">
        <ele>80.8</ele>
        <time>2024-04-14T08:55:08Z</time>
      </trkpt>
      <trkpt lat="47.96765" lon="-0.52579">
        <ele>80.8</ele>
        <time>2024-04-14T08:55:09Z</time>
      </trkpt>
      <trkpt lat="47.9676" lon="-0.52583">
        <ele>80.8</ele>
        <time>2024-04-14T08:55:10Z</time>
      </trkpt>
      <trkpt lat="47.96755" lon="-0.52586">
        <ele>80.8</ele>
        <time>2024-04-14T08:55:11Z</time>
      </trkpt>
      <trkpt lat="47.96749" lon="-0.5259">
        <ele>81</ele>
        <time>2024-04-14T08:55:12Z</time>
      </trkpt>
      <trkpt lat="47.96745" lon="-0.52594">
        <ele>81</ele>
        <time>2024-04-14T08:55:13Z</time>
      </trkpt>
      <trkpt lat="47.96741" lon="-0.52597">
        <ele>81</ele>
        <time>2024-04-14T08:55:14Z</time>
      </trkpt>
      <trkpt lat="47.96738" lon="-0.526">
        <ele>82</ele>
        <time>2024-04-14T08:55:15Z</time>
      </trkpt>
      <trkpt lat="47.96736" lon="-0.52602">
        <ele>82.2</ele>
        <time>2024-04-14T08:55:16Z</time>
      </trkpt>
      <trkpt lat="47.96735" lon="-0.52604">
        <ele>82.2</ele>
        <time>2024-04-14T08:55:17Z</time>
      </trkpt>
      <trkpt lat="47.96734" lon="-0.52608">
        <ele>82.2</ele>
        <time>2024-04-14T08:55:18Z</time>
      </trkpt>
      <trkpt lat="47.96735" lon="-0.52611">
        <ele>82.2</ele>
        <time>2024-04-14T08:55:19Z</time>
      </trkpt>
      <trkpt lat="47.96736" lon="-0.52616">
        <ele>81.8</ele>
        <time>2024-04-14T08:55:20Z</time>
      </trkpt>
      <trkpt lat="47.96737" lon="-0.52621">
        <ele>81.8</ele>
        <time>2024-04-14T08:55:21Z</time>
      </trkpt>
      <trkpt lat="47.96739" lon="-0.52627">
        <ele>81.8</ele>
        <time>2024-04-14T08:55:22Z</time>
      </trkpt>
      <trkpt lat="47.96742" lon="-0.52632">
        <ele>81.8</ele>
        <time>2024-04-14T08:55:23Z</time>
      </trkpt>
      <trkpt lat="47.96745" lon="-0.52638">
        <ele>81.8</ele>
        <time>2024-04-14T08:55:24Z</time>
      </trkpt>
      <trkpt lat="47.96748" lon="-0.52644">
        <ele>81.8</ele>
        <time>2024-04-14T08:55:25Z</time>
      </trkpt>
      <trkpt lat="47.96751" lon="-0.52649">
        <ele>81.8</ele>
        <time>2024-04-14T08:55:26Z</time>
      </trkpt>
      <trkpt lat="47.96754" lon="-0.52655">
        <ele>80.8</ele>
        <time>2024-04-14T08:55:27Z</time>
      </trkpt>
      <trkpt lat="47.96758" lon="-0.52661">
        <ele>81.6</ele>
        <time>2024-04-14T08:55:28Z</time>
      </trkpt>
      <trkpt lat="47.96762" lon="-0.52667">
        <ele>81.6</ele>
        <time>2024-04-14T08:55:29Z</time>
      </trkpt>
      <trkpt lat="47.96765" lon="-0.52674">
        <ele>81.6</ele>
        <time>2024-04-14T08:55:30Z</time>
      </trkpt>
      <trkpt lat="47.96769" lon="-0.52679">
        <ele>80.6</ele>
        <time>2024-04-14T08:55:31Z</time>
      </trkpt>
      <trkpt lat="47.96773" lon="-0.52685">
        <ele>79.8</ele>
        <time>2024-04-14T08:55:32Z</time>
      </trkpt>
      <trkpt lat="47.96777" lon="-0.52691">
        <ele>79.8</ele>
        <time>2024-04-14T08:55:33Z</time>
      </trkpt>
      <trkpt lat="47.96781" lon="-0.52696">
        <ele>79.8</ele>
        <time>2024-04-14T08:55:34Z</time>
      </trkpt>
      <trkpt lat="47.96785" lon="-0.52701">
        <ele>80</ele>
        <time>2024-04-14T08:55:35Z</time>
      </trkpt>
      <trkpt lat="47.96789" lon="-0.52705">
        <ele>80.6</ele>
        <time>2024-04-14T08:55:36Z</time>
      </trkpt>
      <trkpt lat="47.96792" lon="-0.5271">
        <ele>80.6</ele>
        <time>2024-04-14T08:55:37Z</time>
      </trkpt>
      <trkpt lat="47.96795" lon="-0.52716">
        <ele>80.6</ele>
        <time>2024-04-14T08:55:38Z</time>
      </trkpt>
      <trkpt lat="47.96796" lon="-0.52723">
        <ele>80.6</ele>
        <time>2024-04-14T08:55:39Z</time>
      </trkpt>
      <trkpt lat="47.96798" lon="-0.52729">
        <ele>81.2</ele>
        <time>2024-04-14T08:55:40Z</time>
      </trkpt>
      <trkpt lat="47.96799" lon="-0.52737">
        <ele>81.2</ele>
        <time>2024-04-14T08:55:41Z</time>
      </trkpt>
      <trkpt lat="47.96799" lon="-0.52745">
        <ele>81.2</ele>
        <time>2024-04-14T08:55:42Z</time>
      </trkpt>
      <trkpt lat="47.968" lon="-0.52754">
        <ele>81.2</ele>
        <time>2024-04-14T08:55:43Z</time>
      </trkpt>
      <trkpt lat="47.968" lon="-0.52763">
        <ele>78.6</ele>
        <time>2024-04-14T08:55:44Z</time>
      </trkpt>
      <trkpt lat="47.96801" lon="-0.52772">
        <ele>78.6</ele>
        <time>2024-04-14T08:55:45Z</time>
      </trkpt>
      <trkpt lat="47.96801" lon="-0.52782">
        <ele>78.6</ele>
        <time>2024-04-14T08:55:46Z</time>
      </trkpt>
      <trkpt lat="47.96799" lon="-0.52791">
        <ele>78.6</ele>
        <time>2024-04-14T08:55:47Z</time>
      </trkpt>
      <trkpt lat="47.96798" lon="-0.52801">
        <ele>75.8</ele>
        <time>2024-04-14T08:55:48Z</time>
      </trkpt>
      <trkpt lat="47.96796" lon="-0.52811">
        <ele>75.8</ele>
        <time>2024-04-14T08:55:49Z</time>
      </trkpt>
      <trkpt lat="47.96794" lon="-0.52822">
        <ele>75.8</ele>
        <time>2024-04-14T08:55:50Z</time>
      </trkpt>
      <trkpt lat="47.96793" lon="-0.52831">
        <ele>75.8</ele>
        <time>2024-04-14T08:55:51Z</time>
      </trkpt>
      <trkpt lat="47.96791" lon="-0.5284">
        <ele>73.2</ele>
        <time>2024-04-14T08:55:52Z</time>
      </trkpt>
      <trkpt lat="47.96789" lon="-0.52849">
        <ele>73.2</ele>
        <time>2024-04-14T08:55:53Z</time>
      </trkpt>
      <trkpt lat="47.96787" lon="-0.52858">
        <ele>73.2</ele>
        <time>2024-04-14T08:55:54Z</time>
      </trkpt>
      <trkpt lat="47.96784" lon="-0.52867">
        <ele>72.2</ele>
        <time>2024-04-14T08:55:55Z</time>
      </trkpt>
      <trkpt lat="47.96781" lon="-0.52875">
        <ele>72</ele>
        <time>2024-04-14T08:55:56Z</time>
      </trkpt>
      <trkpt lat="47.96779" lon="-0.52882">
        <ele>72</ele>
        <time>2024-04-14T08:55:57Z</time>
      </trkpt>
      <trkpt lat="47.96777" lon="-0.52887">
        <ele>72</ele>
        <time>2024-04-14T08:55:58Z</time>
      </trkpt>
      <trkpt lat="47.96776" lon="-0.52893">
        <ele>72</ele>
        <time>2024-04-14T08:55:59Z</time>
      </trkpt>
      <trkpt lat="47.96774" lon="-0.529">
        <ele>71.6</ele>
        <time>2024-04-14T08:56:00Z</time>
      </trkpt>
      <trkpt lat="47.96774" lon="-0.52907">
        <ele>71.6</ele>
        <time>2024-04-14T08:56:01Z</time>
      </trkpt>
      <trkpt lat="47.96773" lon="-0.52915">
        <ele>71.6</ele>
        <time>2024-04-14T08:56:02Z</time>
      </trkpt>
      <trkpt lat="47.96772" lon="-0.52924">
        <ele>71.6</ele>
        <time>2024-04-14T08:56:03Z</time>
      </trkpt>
      <trkpt lat="47.96771" lon="-0.52932">
        <ele>71.4</ele>
        <time>2024-04-14T08:56:04Z</time>
      </trkpt>
      <trkpt lat="47.96769" lon="-0.52941">
        <ele>71.4</ele>
        <time>2024-04-14T08:56:05Z</time>
      </trkpt>
      <trkpt lat="47.96766" lon="-0.5295">
        <ele>71.4</ele>
        <time>2024-04-14T08:56:06Z</time>
      </trkpt>
      <trkpt lat="47.96763" lon="-0.52959">
        <ele>71</ele>
        <time>2024-04-14T08:56:07Z</time>
      </trkpt>
      <trkpt lat="47.9676" lon="-0.52968">
        <ele>70.8</ele>
        <time>2024-04-14T08:56:08Z</time>
      </trkpt>
      <trkpt lat="47.96757" lon="-0.52977">
        <ele>70.8</ele>
        <time>2024-04-14T08:56:09Z</time>
      </trkpt>
      <trkpt lat="47.96754" lon="-0.52986">
        <ele>70.8</ele>
        <time>2024-04-14T08:56:10Z</time>
      </trkpt>
      <trkpt lat="47.9675" lon="-0.52995">
        <ele>69.8</ele>
        <time>2024-04-14T08:56:11Z</time>
      </trkpt>
      <trkpt lat="47.96746" lon="-0.53003">
        <ele>69.8</ele>
        <time>2024-04-14T08:56:12Z</time>
      </trkpt>
      <trkpt lat="47.96742" lon="-0.53011">
        <ele>69.8</ele>
        <time>2024-04-14T08:56:13Z</time>
      </trkpt>
      <trkpt lat="47.96737" lon="-0.53018">
        <ele>69.8</ele>
        <time>2024-04-14T08:56:14Z</time>
      </trkpt>
      <trkpt lat="47.96733" lon="-0.53026">
        <ele>69.4</ele>
        <time>2024-04-14T08:56:15Z</time>
      </trkpt>
      <trkpt lat="47.96729" lon="-0.53035">
        <ele>69.2</ele>
        <time>2024-04-14T08:56:16Z</time>
      </trkpt>
      <trkpt lat="47.96725" lon="-0.53043">
        <ele>69.2</ele>
        <time>2024-04-14T08:56:17Z</time>
      </trkpt>
      <trkpt lat="47.96723" lon="-0.53051">
        <ele>69.2</ele>
        <time>2024-04-14T08:56:18Z</time>
      </trkpt>
      <trkpt lat="47.96722" lon="-0.5306">
        <ele>69.4</ele>
        <time>2024-04-14T08:56:19Z</time>
      </trkpt>
      <trkpt lat="47.96721" lon="-0.53069">
        <ele>68.8</ele>
        <time>2024-04-14T08:56:20Z</time>
      </trkpt>
      <trkpt lat="47.96719" lon="-0.53078">
        <ele>68.8</ele>
        <time>2024-04-14T08:56:21Z</time>
      </trkpt>
      <trkpt lat="47.96717" lon="-0.53086">
        <ele>68.8</ele>
        <time>2024-04-14T08:56:22Z</time>
      </trkpt>
      <trkpt lat="47.96714" lon="-0.53094">
        <ele>68.8</ele>
        <time>2024-04-14T08:56:23Z</time>
      </trkpt>
      <trkpt lat="47.96711" lon="-0.53102">
        <ele>68.8</ele>
        <time>2024-04-14T08:56:24Z</time>
      </trkpt>
      <trkpt lat="47.96709" lon="-0.5311">
        <ele>68.8</ele>
        <time>2024-04-14T08:56:25Z</time>
      </trkpt>
      <trkpt lat="47.96708" lon="-0.53119">
        <ele>68.8</ele>
        <time>2024-04-14T08:56:26Z</time>
      </trkpt>
      <trkpt lat="47.96707" lon="-0.53127">
        <ele>68.8</ele>
        <time>2024-04-14T08:56:27Z</time>
      </trkpt>
      <trkpt lat="47.96704" lon="-0.53132">
        <ele>70</ele>
        <time>2024-04-14T08:56:28Z</time>
      </trkpt>
      <trkpt lat="47.967" lon="-0.53135">
        <ele>70</ele>
        <time>2024-04-14T08:56:29Z</time>
      </trkpt>
      <trkpt lat="47.96695" lon="-0.53137">
        <ele>70</ele>
        <time>2024-04-14T08:56:30Z</time>
      </trkpt>
      <trkpt lat="47.9669" lon="-0.53139">
        <ele>70</ele>
        <time>2024-04-14T08:56:31Z</time>
      </trkpt>
      <trkpt lat="47.96685" lon="-0.53141">
        <ele>69</ele>
        <time>2024-04-14T08:56:32Z</time>
      </trkpt>
      <trkpt lat="47.96679" lon="-0.53143">
        <ele>69</ele>
        <time>2024-04-14T08:56:33Z</time>
      </trkpt>
      <trkpt lat="47.96673" lon="-0.53144">
        <ele>69</ele>
        <time>2024-04-14T08:56:34Z</time>
      </trkpt>
      <trkpt lat="47.96667" lon="-0.53146">
        <ele>68</ele>
        <time>2024-04-14T08:56:35Z</time>
      </trkpt>
      <trkpt lat="47.9666" lon="-0.53147">
        <ele>67.2</ele>
        <time>2024-04-14T08:56:36Z</time>
      </trkpt>
      <trkpt lat="47.96654" lon="-0.53149">
        <ele>67.2</ele>
        <time>2024-04-14T08:56:37Z</time>
      </trkpt>
      <trkpt lat="47.96648" lon="-0.53151">
        <ele>67.2</ele>
        <time>2024-04-14T08:56:38Z</time>
      </trkpt>
      <trkpt lat="47.96643" lon="-0.53152">
        <ele>67.6</ele>
        <time>2024-04-14T08:56:39Z</time>
      </trkpt>
      <trkpt lat="47.96639" lon="-0.53154">
        <ele>67.8</ele>
        <time>2024-04-14T08:56:40Z</time>
      </trkpt>
      <trkpt lat="47.96636" lon="-0.53157">
        <ele>67.8</ele>
        <time>2024-04-14T08:56:41Z</time>
      </trkpt>
      <trkpt lat="47.96635" lon="-0.53162">
        <ele>67.8</ele>
        <time>2024-04-14T08:56:42Z</time>
      </trkpt>
      <trkpt lat="47.96636" lon="-0.53168">
        <ele>67.8</ele>
        <time>2024-04-14T08:56:43Z</time>
      </trkpt>
      <trkpt lat="47.96637" lon="-0.53175">
        <ele>67.6</ele>
        <time>2024-04-14T08:56:44Z</time>
      </trkpt>
      <trkpt lat="47.96638" lon="-0.53183">
        <ele>67.6</ele>
        <time>2024-04-14T08:56:45Z</time>
      </trkpt>
      <trkpt lat="47.96638" lon="-0.53191">
        <ele>67.6</ele>
        <time>2024-04-14T08:56:46Z</time>
      </trkpt>
      <trkpt lat="47.96637" lon="-0.53198">
        <ele>67.6</ele>
        <time>2024-04-14T08:56:47Z</time>
      </trkpt>
      <trkpt lat="47.96634" lon="-0.53207">
        <ele>66.2</ele>
        <time>2024-04-14T08:56:48Z</time>
      </trkpt>
      <trkpt lat="47.96632" lon="-0.53215">
        <ele>66.2</ele>
        <time>2024-04-14T08:56:49Z</time>
      </trkpt>
      <trkpt lat="47.96629" lon="-0.53223">
        <ele>66.2</ele>
        <time>2024-04-14T08:56:50Z</time>
      </trkpt>
      <trkpt lat="47.96626" lon="-0.53231">
        <ele>66.4</ele>
        <time>2024-04-14T08:56:51Z</time>
      </trkpt>
      <trkpt lat="47.96622" lon="-0.53239">
        <ele>65.6</ele>
        <time>2024-04-14T08:56:52Z</time>
      </trkpt>
      <trkpt lat="47.96619" lon="-0.53247">
        <ele>65.6</ele>
        <time>2024-04-14T08:56:53Z</time>
      </trkpt>
      <trkpt lat="47.96616" lon="-0.53255">
        <ele>65.6</ele>
        <time>2024-04-14T08:56:54Z</time>
      </trkpt>
      <trkpt lat="47.96612" lon="-0.53263">
        <ele>66.4</ele>
        <time>2024-04-14T08:56:55Z</time>
      </trkpt>
      <trkpt lat="47.96609" lon="-0.53271">
        <ele>66.6</ele>
        <time>2024-04-14T08:56:56Z</time>
      </trkpt>
      <trkpt lat="47.96606" lon="-0.53279">
        <ele>66.6</ele>
        <time>2024-04-14T08:56:57Z</time>
      </trkpt>
      <trkpt lat="47.96602" lon="-0.53286">
        <ele>66.6</ele>
        <time>2024-04-14T08:56:58Z</time>
      </trkpt>
      <trkpt lat="47.96598" lon="-0.53293">
        <ele>66.6</ele>
        <time>2024-04-14T08:56:59Z</time>
      </trkpt>
      <trkpt lat="47.96594" lon="-0.533">
        <ele>66.4</ele>
        <time>2024-04-14T08:57:00Z</time>
      </trkpt>
      <trkpt lat="47.96589" lon="-0.53307">
        <ele>66.4</ele>
        <time>2024-04-14T08:57:01Z</time>
      </trkpt>
      <trkpt lat="47.96585" lon="-0.53313">
        <ele>66.4</ele>
        <time>2024-04-14T08:57:02Z</time>
      </trkpt>
      <trkpt lat="47.9658" lon="-0.53319">
        <ele>66.4</ele>
        <time>2024-04-14T08:57:03Z</time>
      </trkpt>
      <trkpt lat="47.96575" lon="-0.53325">
        <ele>66</ele>
        <time>2024-04-14T08:57:04Z</time>
      </trkpt>
      <trkpt lat="47.9657" lon="-0.53331">
        <ele>66</ele>
        <time>2024-04-14T08:57:05Z</time>
      </trkpt>
      <trkpt lat="47.96565" lon="-0.53336">
        <ele>66</ele>
        <time>2024-04-14T08:57:06Z</time>
      </trkpt>
      <trkpt lat="47.96559" lon="-0.5334">
        <ele>67</ele>
        <time>2024-04-14T08:57:07Z</time>
      </trkpt>
      <trkpt lat="47.96554" lon="-0.53345">
        <ele>67.2</ele>
        <time>2024-04-14T08:57:08Z</time>
      </trkpt>
      <trkpt lat="47.96549" lon="-0.5335">
        <ele>67.2</ele>
        <time>2024-04-14T08:57:09Z</time>
      </trkpt>
      <trkpt lat="47.96544" lon="-0.53356">
        <ele>67.2</ele>
        <time>2024-04-14T08:57:10Z</time>
      </trkpt>
      <trkpt lat="47.96539" lon="-0.53362">
        <ele>67.2</ele>
        <time>2024-04-14T08:57:11Z</time>
      </trkpt>
      <trkpt lat="47.96534" lon="-0.53367">
        <ele>65.4</ele>
        <time>2024-04-14T08:57:12Z</time>
      </trkpt>
      <trkpt lat="47.96529" lon="-0.53373">
        <ele>65.4</ele>
        <time>2024-04-14T08:57:13Z</time>
      </trkpt>
      <trkpt lat="47.96524" lon="-0.53379">
        <ele>65.4</ele>
        <time>2024-04-14T08:57:14Z</time>
      </trkpt>
      <trkpt lat="47.96519" lon="-0.53384">
        <ele>65.4</ele>
        <time>2024-04-14T08:57:15Z</time>
      </trkpt>
      <trkpt lat="47.96514" lon="-0.53389">
        <ele>66.4</ele>
        <time>2024-04-14T08:57:16Z</time>
      </trkpt>
      <trkpt lat="47.96509" lon="-0.53394">
        <ele>66.4</ele>
        <time>2024-04-14T08:57:17Z</time>
      </trkpt>
      <trkpt lat="47.96504" lon="-0.53398">
        <ele>66.4</ele>
        <time>2024-04-14T08:57:18Z</time>
      </trkpt>
      <trkpt lat="47.96499" lon="-0.534">
        <ele>66.4</ele>
        <time>2024-04-14T08:57:19Z</time>
      </trkpt>
      <trkpt lat="47.96494" lon="-0.53401">
        <ele>67.4</ele>
        <time>2024-04-14T08:57:20Z</time>
      </trkpt>
      <trkpt lat="47.96489" lon="-0.53401">
        <ele>67.4</ele>
        <time>2024-04-14T08:57:21Z</time>
      </trkpt>
      <trkpt lat="47.96485" lon="-0.53403">
        <ele>67.4</ele>
        <time>2024-04-14T08:57:22Z</time>
      </trkpt>
      <trkpt lat="47.96481" lon="-0.53406">
        <ele>67.4</ele>
        <time>2024-04-14T08:57:23Z</time>
      </trkpt>
      <trkpt lat="47.96476" lon="-0.5341">
        <ele>67.4</ele>
        <time>2024-04-14T08:57:24Z</time>
      </trkpt>
      <trkpt lat="47.96472" lon="-0.53413">
        <ele>67.4</ele>
        <time>2024-04-14T08:57:25Z</time>
      </trkpt>
      <trkpt lat="47.96467" lon="-0.53416">
        <ele>67.4</ele>
        <time>2024-04-14T08:57:26Z</time>
      </trkpt>
      <trkpt lat="47.96462" lon="-0.53419">
        <ele>67</ele>
        <time>2024-04-14T08:57:27Z</time>
      </trkpt>
      <trkpt lat="47.96457" lon="-0.53423">
        <ele>67</ele>
        <time>2024-04-14T08:57:28Z</time>
      </trkpt>
      <trkpt lat="47.96452" lon="-0.53426">
        <ele>67</ele>
        <time>2024-04-14T08:57:29Z</time>
      </trkpt>
      <trkpt lat="47.96446" lon="-0.53429">
        <ele>67</ele>
        <time>2024-04-14T08:57:30Z</time>
      </trkpt>
      <trkpt lat="47.96441" lon="-0.53433">
        <ele>66.8</ele>
        <time>2024-04-14T08:57:31Z</time>
      </trkpt>
      <trkpt lat="47.96436" lon="-0.53436">
        <ele>66.8</ele>
        <time>2024-04-14T08:57:32Z</time>
      </trkpt>
      <trkpt lat="47.96431" lon="-0.5344">
        <ele>66.8</ele>
        <time>2024-04-14T08:57:33Z</time>
      </trkpt>
      <trkpt lat="47.96426" lon="-0.53444">
        <ele>66.8</ele>
        <time>2024-04-14T08:57:34Z</time>
      </trkpt>
      <trkpt lat="47.96421" lon="-0.53447">
        <ele>66.8</ele>
        <time>2024-04-14T08:57:35Z</time>
      </trkpt>
      <trkpt lat="47.96415" lon="-0.53451">
        <ele>67.6</ele>
        <time>2024-04-14T08:57:36Z</time>
      </trkpt>
      <trkpt lat="47.9641" lon="-0.53455">
        <ele>67.6</ele>
        <time>2024-04-14T08:57:37Z</time>
      </trkpt>
      <trkpt lat="47.96405" lon="-0.53458">
        <ele>67.6</ele>
        <time>2024-04-14T08:57:38Z</time>
      </trkpt>
      <trkpt lat="47.964" lon="-0.53461">
        <ele>67.4</ele>
        <time>2024-04-14T08:57:39Z</time>
      </trkpt>
      <trkpt lat="47.96395" lon="-0.53464">
        <ele>67.6</ele>
        <time>2024-04-14T08:57:40Z</time>
      </trkpt>
      <trkpt lat="47.96391" lon="-0.53468">
        <ele>67.6</ele>
        <time>2024-04-14T08:57:41Z</time>
      </trkpt>
      <trkpt lat="47.96388" lon="-0.53473">
        <ele>67.6</ele>
        <time>2024-04-14T08:57:42Z</time>
      </trkpt>
      <trkpt lat="47.96387" lon="-0.53479">
        <ele>67.6</ele>
        <time>2024-04-14T08:57:43Z</time>
      </trkpt>
      <trkpt lat="47.96388" lon="-0.53485">
        <ele>69.4</ele>
        <time>2024-04-14T08:57:44Z</time>
      </trkpt>
      <trkpt lat="47.96389" lon="-0.53491">
        <ele>69.4</ele>
        <time>2024-04-14T08:57:45Z</time>
      </trkpt>
      <trkpt lat="47.9639" lon="-0.53498">
        <ele>69.4</ele>
        <time>2024-04-14T08:57:46Z</time>
      </trkpt>
      <trkpt lat="47.9639" lon="-0.53504">
        <ele>69.4</ele>
        <time>2024-04-14T08:57:47Z</time>
      </trkpt>
      <trkpt lat="47.9639" lon="-0.5351">
        <ele>67</ele>
        <time>2024-04-14T08:57:48Z</time>
      </trkpt>
      <trkpt lat="47.96392" lon="-0.53517">
        <ele>67</ele>
        <time>2024-04-14T08:57:49Z</time>
      </trkpt>
      <trkpt lat="47.96393" lon="-0.53524">
        <ele>67</ele>
        <time>2024-04-14T08:57:50Z</time>
      </trkpt>
      <trkpt lat="47.96395" lon="-0.53531">
        <ele>67</ele>
        <time>2024-04-14T08:57:51Z</time>
      </trkpt>
      <trkpt lat="47.96397" lon="-0.53538">
        <ele>66.8</ele>
        <time>2024-04-14T08:57:52Z</time>
      </trkpt>
      <trkpt lat="47.96398" lon="-0.53545">
        <ele>66.8</ele>
        <time>2024-04-14T08:57:53Z</time>
      </trkpt>
      <trkpt lat="47.96398" lon="-0.53552">
        <ele>66.8</ele>
        <time>2024-04-14T08:57:54Z</time>
      </trkpt>
      <trkpt lat="47.96395" lon="-0.53558">
        <ele>67</ele>
        <time>2024-04-14T08:57:55Z</time>
      </trkpt>
      <trkpt lat="47.96391" lon="-0.53562">
        <ele>67.2</ele>
        <time>2024-04-14T08:57:56Z</time>
      </trkpt>
      <trkpt lat="47.96386" lon="-0.53566">
        <ele>67.2</ele>
        <time>2024-04-14T08:57:57Z</time>
      </trkpt>
      <trkpt lat="47.96381" lon="-0.5357">
        <ele>67.2</ele>
        <time>2024-04-14T08:57:58Z</time>
      </trkpt>
      <trkpt lat="47.96376" lon="-0.53575">
        <ele>66.2</ele>
        <time>2024-04-14T08:57:59Z</time>
      </trkpt>
      <trkpt lat="47.96372" lon="-0.53579">
        <ele>66</ele>
        <time>2024-04-14T08:58:00Z</time>
      </trkpt>
      <trkpt lat="47.96367" lon="-0.53583">
        <ele>66</ele>
        <time>2024-04-14T08:58:01Z</time>
      </trkpt>
      <trkpt lat="47.96363" lon="-0.53587">
        <ele>66</ele>
        <time>2024-04-14T08:58:02Z</time>
      </trkpt>
      <trkpt lat="47.96358" lon="-0.53591">
        <ele>66</ele>
        <time>2024-04-14T08:58:03Z</time>
      </trkpt>
      <trkpt lat="47.96354" lon="-0.53594">
        <ele>65.8</ele>
        <time>2024-04-14T08:58:04Z</time>
      </trkpt>
      <trkpt lat="47.9635" lon="-0.53597">
        <ele>65.8</ele>
        <time>2024-04-14T08:58:05Z</time>
      </trkpt>
      <trkpt lat="47.96346" lon="-0.53598">
        <ele>65.8</ele>
        <time>2024-04-14T08:58:06Z</time>
      </trkpt>
      <trkpt lat="47.96342" lon="-0.53598">
        <ele>65.8</ele>
        <time>2024-04-14T08:58:07Z</time>
      </trkpt>
      <trkpt lat="47.96338" lon="-0.53598">
        <ele>66.2</ele>
        <time>2024-04-14T08:58:08Z</time>
      </trkpt>
      <trkpt lat="47.96334" lon="-0.53599">
        <ele>66.2</ele>
        <time>2024-04-14T08:58:09Z</time>
      </trkpt>
      <trkpt lat="47.9633" lon="-0.53598">
        <ele>66.2</ele>
        <time>2024-04-14T08:58:10Z</time>
      </trkpt>
      <trkpt lat="47.96326" lon="-0.53598">
        <ele>66.8</ele>
        <time>2024-04-14T08:58:11Z</time>
      </trkpt>
      <trkpt lat="47.96324" lon="-0.53599">
        <ele>67.4</ele>
        <time>2024-04-14T08:58:12Z</time>
      </trkpt>
      <trkpt lat="47.96323" lon="-0.53601">
        <ele>67.4</ele>
        <time>2024-04-14T08:58:13Z</time>
      </trkpt>
      <trkpt lat="47.96321" lon="-0.53603">
        <ele>67.4</ele>
        <time>2024-04-14T08:58:14Z</time>
      </trkpt>
      <trkpt lat="47.9632" lon="-0.53607">
        <ele>67.4</ele>
        <time>2024-04-14T08:58:15Z</time>
      </trkpt>
      <trkpt lat="47.96319" lon="-0.53611">
        <ele>67.8</ele>
        <time>2024-04-14T08:58:16Z</time>
      </trkpt>
      <trkpt lat="47.96315" lon="-0.53615">
        <ele>67.8</ele>
        <time>2024-04-14T08:58:17Z</time>
      </trkpt>
      <trkpt lat="47.96312" lon="-0.53618">
        <ele>67.8</ele>
        <time>2024-04-14T08:58:18Z</time>
      </trkpt>
      <trkpt lat="47.96308" lon="-0.53622">
        <ele>67</ele>
        <time>2024-04-14T08:58:19Z</time>
      </trkpt>
      <trkpt lat="47.96303" lon="-0.53625">
        <ele>66.6</ele>
        <time>2024-04-14T08:58:20Z</time>
      </trkpt>
      <trkpt lat="47.96299" lon="-0.53628">
        <ele>66.6</ele>
        <time>2024-04-14T08:58:21Z</time>
      </trkpt>
      <trkpt lat="47.96296" lon="-0.53631">
        <ele>66.6</ele>
        <time>2024-04-14T08:58:22Z</time>
      </trkpt>
      <trkpt lat="47.96292" lon="-0.53634">
        <ele>66.6</ele>
        <time>2024-04-14T08:58:23Z</time>
      </trkpt>
      <trkpt lat="47.96289" lon="-0.53638">
        <ele>67.4</ele>
        <time>2024-04-14T08:58:24Z</time>
      </trkpt>
      <trkpt lat="47.96285" lon="-0.5364">
        <ele>67.4</ele>
        <time>2024-04-14T08:58:25Z</time>
      </trkpt>
      <trkpt lat="47.96282" lon="-0.53643">
        <ele>67.4</ele>
        <time>2024-04-14T08:58:26Z</time>
      </trkpt>
      <trkpt lat="47.96278" lon="-0.53646">
        <ele>67.4</ele>
        <time>2024-04-14T08:58:27Z</time>
      </trkpt>
      <trkpt lat="47.96273" lon="-0.53649">
        <ele>67.4</ele>
        <time>2024-04-14T08:58:28Z</time>
      </trkpt>
      <trkpt lat="47.96268" lon="-0.53652">
        <ele>67.4</ele>
        <time>2024-04-14T08:58:29Z</time>
      </trkpt>
      <trkpt lat="47.96263" lon="-0.53654">
        <ele>67.4</ele>
        <time>2024-04-14T08:58:30Z</time>
      </trkpt>
      <trkpt lat="47.96257" lon="-0.53657">
        <ele>67.4</ele>
        <time>2024-04-14T08:58:31Z</time>
      </trkpt>
      <trkpt lat="47.96252" lon="-0.53659">
        <ele>66.8</ele>
        <time>2024-04-14T08:58:32Z</time>
      </trkpt>
      <trkpt lat="47.96246" lon="-0.53661">
        <ele>66.8</ele>
        <time>2024-04-14T08:58:33Z</time>
      </trkpt>
      <trkpt lat="47.96241" lon="-0.53662">
        <ele>66.8</ele>
        <time>2024-04-14T08:58:34Z</time>
      </trkpt>
      <trkpt lat="47.96236" lon="-0.53663">
        <ele>67.8</ele>
        <time>2024-04-14T08:58:35Z</time>
      </trkpt>
      <trkpt lat="47.96231" lon="-0.53664">
        <ele>70.2</ele>
        <time>2024-04-14T08:58:36Z</time>
      </trkpt>
      <trkpt lat="47.96226" lon="-0.53666">
        <ele>70.2</ele>
        <time>2024-04-14T08:58:37Z</time>
      </trkpt>
      <trkpt lat="47.96221" lon="-0.53667">
        <ele>70.2</ele>
        <time>2024-04-14T08:58:38Z</time>
      </trkpt>
      <trkpt lat="47.96216" lon="-0.53669">
        <ele>69.6</ele>
        <time>2024-04-14T08:58:39Z</time>
      </trkpt>
      <trkpt lat="47.96212" lon="-0.53672">
        <ele>68.4</ele>
        <time>2024-04-14T08:58:40Z</time>
      </trkpt>
      <trkpt lat="47.96207" lon="-0.53675">
        <ele>68.4</ele>
        <time>2024-04-14T08:58:41Z</time>
      </trkpt>
      <trkpt lat="47.96203" lon="-0.53679">
        <ele>68.4</ele>
        <time>2024-04-14T08:58:42Z</time>
      </trkpt>
      <trkpt lat="47.96199" lon="-0.53681">
        <ele>69.4</ele>
        <time>2024-04-14T08:58:43Z</time>
      </trkpt>
      <trkpt lat="47.96194" lon="-0.53683">
        <ele>69.2</ele>
        <time>2024-04-14T08:58:44Z</time>
      </trkpt>
      <trkpt lat="47.9619" lon="-0.53684">
        <ele>69.2</ele>
        <time>2024-04-14T08:58:45Z</time>
      </trkpt>
      <trkpt lat="47.96185" lon="-0.53686">
        <ele>69.2</ele>
        <time>2024-04-14T08:58:46Z</time>
      </trkpt>
      <trkpt lat="47.9618" lon="-0.53689">
        <ele>70</ele>
        <time>2024-04-14T08:58:47Z</time>
      </trkpt>
      <trkpt lat="47.96176" lon="-0.53691">
        <ele>70.6</ele>
        <time>2024-04-14T08:58:48Z</time>
      </trkpt>
      <trkpt lat="47.96171" lon="-0.53692">
        <ele>70.6</ele>
        <time>2024-04-14T08:58:49Z</time>
      </trkpt>
      <trkpt lat="47.96167" lon="-0.53693">
        <ele>70.6</ele>
        <time>2024-04-14T08:58:50Z</time>
      </trkpt>
      <trkpt lat="47.96162" lon="-0.53695">
        <ele>70.6</ele>
        <time>2024-04-14T08:58:51Z</time>
      </trkpt>
      <trkpt lat="47.96159" lon="-0.53698">
        <ele>71.2</ele>
        <time>2024-04-14T08:58:52Z</time>
      </trkpt>
      <trkpt lat="47.96156" lon="-0.53702">
        <ele>71.2</ele>
        <time>2024-04-14T08:58:53Z</time>
      </trkpt>
      <trkpt lat="47.96152" lon="-0.53707">
        <ele>71.2</ele>
        <time>2024-04-14T08:58:54Z</time>
      </trkpt>
      <trkpt lat="47.9615" lon="-0.53712">
        <ele>71.2</ele>
        <time>2024-04-14T08:58:55Z</time>
      </trkpt>
      <trkpt lat="47.96148" lon="-0.53718">
        <ele>72</ele>
        <time>2024-04-14T08:58:56Z</time>
      </trkpt>
      <trkpt lat="47.96146" lon="-0.53723">
        <ele>72</ele>
        <time>2024-04-14T08:58:57Z</time>
      </trkpt>
      <trkpt lat="47.96142" lon="-0.53727">
        <ele>72</ele>
        <time>2024-04-14T08:58:58Z</time>
      </trkpt>
      <trkpt lat="47.96138" lon="-0.53731">
        <ele>72</ele>
        <time>2024-04-14T08:58:59Z</time>
      </trkpt>
      <trkpt lat="47.96133" lon="-0.53735">
        <ele>72</ele>
        <time>2024-04-14T08:59:00Z</time>
      </trkpt>
      <trkpt lat="47.96129" lon="-0.53739">
        <ele>72</ele>
        <time>2024-04-14T08:59:01Z</time>
      </trkpt>
      <trkpt lat="47.96124" lon="-0.53743">
        <ele>72</ele>
        <time>2024-04-14T08:59:02Z</time>
      </trkpt>
      <trkpt lat="47.9612" lon="-0.53747">
        <ele>71.6</ele>
        <time>2024-04-14T08:59:03Z</time>
      </trkpt>
      <trkpt lat="47.96116" lon="-0.53751">
        <ele>71.4</ele>
        <time>2024-04-14T08:59:04Z</time>
      </trkpt>
      <trkpt lat="47.96112" lon="-0.53755">
        <ele>71.4</ele>
        <time>2024-04-14T08:59:05Z</time>
      </trkpt>
      <trkpt lat="47.96108" lon="-0.53758">
        <ele>71.4</ele>
        <time>2024-04-14T08:59:06Z</time>
      </trkpt>
      <trkpt lat="47.96104" lon="-0.53762">
        <ele>72.4</ele>
        <time>2024-04-14T08:59:07Z</time>
      </trkpt>
      <trkpt lat="47.961" lon="-0.53765">
        <ele>72</ele>
        <time>2024-04-14T08:59:08Z</time>
      </trkpt>
      <trkpt lat="47.96096" lon="-0.53769">
        <ele>72</ele>
        <time>2024-04-14T08:59:09Z</time>
      </trkpt>
      <trkpt lat="47.96092" lon="-0.53772">
        <ele>72</ele>
        <time>2024-04-14T08:59:10Z</time>
      </trkpt>
      <trkpt lat="47.96088" lon="-0.53775">
        <ele>73</ele>
        <time>2024-04-14T08:59:11Z</time>
      </trkpt>
      <trkpt lat="47.96084" lon="-0.53777">
        <ele>72.8</ele>
        <time>2024-04-14T08:59:12Z</time>
      </trkpt>
      <trkpt lat="47.96079" lon="-0.5378">
        <ele>72.8</ele>
        <time>2024-04-14T08:59:13Z</time>
      </trkpt>
      <trkpt lat="47.96074" lon="-0.53783">
        <ele>72.8</ele>
        <time>2024-04-14T08:59:14Z</time>
      </trkpt>
      <trkpt lat="47.96069" lon="-0.53785">
        <ele>73.4</ele>
        <time>2024-04-14T08:59:15Z</time>
      </trkpt>
      <trkpt lat="47.96064" lon="-0.53787">
        <ele>73.4</ele>
        <time>2024-04-14T08:59:16Z</time>
      </trkpt>
      <trkpt lat="47.9606" lon="-0.53789">
        <ele>73.4</ele>
        <time>2024-04-14T08:59:17Z</time>
      </trkpt>
      <trkpt lat="47.96056" lon="-0.53791">
        <ele>73.4</ele>
        <time>2024-04-14T08:59:18Z</time>
      </trkpt>
      <trkpt lat="47.96051" lon="-0.53793">
        <ele>73.4</ele>
        <time>2024-04-14T08:59:19Z</time>
      </trkpt>
      <trkpt lat="47.96045" lon="-0.53796">
        <ele>73.4</ele>
        <time>2024-04-14T08:59:20Z</time>
      </trkpt>
      <trkpt lat="47.9604" lon="-0.53799">
        <ele>73.4</ele>
        <time>2024-04-14T08:59:21Z</time>
      </trkpt>
      <trkpt lat="47.96034" lon="-0.53802">
        <ele>73.4</ele>
        <time>2024-04-14T08:59:22Z</time>
      </trkpt>
      <trkpt lat="47.96029" lon="-0.53803">
        <ele>73.4</ele>
        <time>2024-04-14T08:59:23Z</time>
      </trkpt>
      <trkpt lat="47.96023" lon="-0.53803">
        <ele>73.6</ele>
        <time>2024-04-14T08:59:24Z</time>
      </trkpt>
      <trkpt lat="47.96017" lon="-0.53801">
        <ele>73.6</ele>
        <time>2024-04-14T08:59:25Z</time>
      </trkpt>
      <trkpt lat="47.96012" lon="-0.53799">
        <ele>73.6</ele>
        <time>2024-04-14T08:59:26Z</time>
      </trkpt>
      <trkpt lat="47.96006" lon="-0.53798">
        <ele>72.6</ele>
        <time>2024-04-14T08:59:27Z</time>
      </trkpt>
      <trkpt lat="47.96" lon="-0.53797">
        <ele>73</ele>
        <time>2024-04-14T08:59:28Z</time>
      </trkpt>
      <trkpt lat="47.95994" lon="-0.53796">
        <ele>73</ele>
        <time>2024-04-14T08:59:29Z</time>
      </trkpt>
      <trkpt lat="47.95988" lon="-0.53796">
        <ele>73</ele>
        <time>2024-04-14T08:59:30Z</time>
      </trkpt>
      <trkpt lat="47.95982" lon="-0.53797">
        <ele>72.6</ele>
        <time>2024-04-14T08:59:31Z</time>
      </trkpt>
      <trkpt lat="47.95976" lon="-0.53799">
        <ele>72.6</ele>
        <time>2024-04-14T08:59:32Z</time>
      </trkpt>
      <trkpt lat="47.9597" lon="-0.53802">
        <ele>72.6</ele>
        <time>2024-04-14T08:59:33Z</time>
      </trkpt>
      <trkpt lat="47.95966" lon="-0.53803">
        <ele>72.6</ele>
        <time>2024-04-14T08:59:34Z</time>
      </trkpt>
      <trkpt lat="47.9596" lon="-0.53805">
        <ele>71.6</ele>
        <time>2024-04-14T08:59:35Z</time>
      </trkpt>
      <trkpt lat="47.95954" lon="-0.53807">
        <ele>71.8</ele>
        <time>2024-04-14T08:59:36Z</time>
      </trkpt>
      <trkpt lat="47.95948" lon="-0.53809">
        <ele>71.8</ele>
        <time>2024-04-14T08:59:37Z</time>
      </trkpt>
      <trkpt lat="47.95942" lon="-0.53811">
        <ele>71.8</ele>
        <time>2024-04-14T08:59:38Z</time>
      </trkpt>
      <trkpt lat="47.95935" lon="-0.53813">
        <ele>72</ele>
        <time>2024-04-14T08:59:39Z</time>
      </trkpt>
      <trkpt lat="47.95929" lon="-0.53814">
        <ele>69.6</ele>
        <time>2024-04-14T08:59:40Z</time>
      </trkpt>
      <trkpt lat="47.95923" lon="-0.53813">
        <ele>69.6</ele>
        <time>2024-04-14T08:59:41Z</time>
      </trkpt>
      <trkpt lat="47.95917" lon="-0.53811">
        <ele>69.6</ele>
        <time>2024-04-14T08:59:42Z</time>
      </trkpt>
      <trkpt lat="47.9591" lon="-0.53809">
        <ele>69.6</ele>
        <time>2024-04-14T08:59:43Z</time>
      </trkpt>
      <trkpt lat="47.95904" lon="-0.53807">
        <ele>69</ele>
        <time>2024-04-14T08:59:44Z</time>
      </trkpt>
      <trkpt lat="47.95897" lon="-0.53806">
        <ele>69</ele>
        <time>2024-04-14T08:59:45Z</time>
      </trkpt>
      <trkpt lat="47.95891" lon="-0.53808">
        <ele>69</ele>
        <time>2024-04-14T08:59:46Z</time>
      </trkpt>
      <trkpt lat="47.95887" lon="-0.53813">
        <ele>70</ele>
        <time>2024-04-14T08:59:47Z</time>
      </trkpt>
      <trkpt lat="47.95884" lon="-0.53819">
        <ele>70.2</ele>
        <time>2024-04-14T08:59:48Z</time>
      </trkpt>
      <trkpt lat="47.95881" lon="-0.53825">
        <ele>70.2</ele>
        <time>2024-04-14T08:59:49Z</time>
      </trkpt>
      <trkpt lat="47.95877" lon="-0.5383">
        <ele>70.2</ele>
        <time>2024-04-14T08:59:50Z</time>
      </trkpt>
      <trkpt lat="47.95871" lon="-0.53832">
        <ele>70.2</ele>
        <time>2024-04-14T08:59:51Z</time>
      </trkpt>
      <trkpt lat="47.95866" lon="-0.53833">
        <ele>70</ele>
        <time>2024-04-14T08:59:52Z</time>
      </trkpt>
      <trkpt lat="47.95859" lon="-0.53832">
        <ele>70</ele>
        <time>2024-04-14T08:59:53Z</time>
      </trkpt>
      <trkpt lat="47.95853" lon="-0.53831">
        <ele>70</ele>
        <time>2024-04-14T08:59:54Z</time>
      </trkpt>
      <trkpt lat="47.95847" lon="-0.5383">
        <ele>70</ele>
        <time>2024-04-14T08:59:55Z</time>
      </trkpt>
      <trkpt lat="47.95842" lon="-0.53833">
        <ele>70.6</ele>
        <time>2024-04-14T08:59:56Z</time>
      </trkpt>
      <trkpt lat="47.95838" lon="-0.53839">
        <ele>70.6</ele>
        <time>2024-04-14T08:59:57Z</time>
      </trkpt>
      <trkpt lat="47.95834" lon="-0.53845">
        <ele>70.6</ele>
        <time>2024-04-14T08:59:58Z</time>
      </trkpt>
      <trkpt lat="47.9583" lon="-0.53851">
        <ele>70.6</ele>
        <time>2024-04-14T08:59:59Z</time>
      </trkpt>
      <trkpt lat="47.95827" lon="-0.53859">
        <ele>70.6</ele>
        <time>2024-04-14T09:00:00Z</time>
      </trkpt>
      <trkpt lat="47.95824" lon="-0.53865">
        <ele>70.6</ele>
        <time>2024-04-14T09:00:01Z</time>
      </trkpt>
      <trkpt lat="47.9582" lon="-0.53871">
        <ele>70.6</ele>
        <time>2024-04-14T09:00:02Z</time>
      </trkpt>
      <trkpt lat="47.95815" lon="-0.53876">
        <ele>70.6</ele>
        <time>2024-04-14T09:00:03Z</time>
      </trkpt>
      <trkpt lat="47.95809" lon="-0.53878">
        <ele>70.8</ele>
        <time>2024-04-14T09:00:04Z</time>
      </trkpt>
      <trkpt lat="47.95804" lon="-0.5388">
        <ele>70.8</ele>
        <time>2024-04-14T09:00:05Z</time>
      </trkpt>
      <trkpt lat="47.95798" lon="-0.53882">
        <ele>70.8</ele>
        <time>2024-04-14T09:00:06Z</time>
      </trkpt>
      <trkpt lat="47.95792" lon="-0.53884">
        <ele>70.8</ele>
        <time>2024-04-14T09:00:07Z</time>
      </trkpt>
      <trkpt lat="47.95786" lon="-0.53888">
        <ele>70.2</ele>
        <time>2024-04-14T09:00:08Z</time>
      </trkpt>
      <trkpt lat="47.95782" lon="-0.53893">
        <ele>70.2</ele>
        <time>2024-04-14T09:00:09Z</time>
      </trkpt>
      <trkpt lat="47.95778" lon="-0.539">
        <ele>70.2</ele>
        <time>2024-04-14T09:00:10Z</time>
      </trkpt>
      <trkpt lat="47.95775" lon="-0.53908">
        <ele>70.2</ele>
        <time>2024-04-14T09:00:11Z</time>
      </trkpt>
      <trkpt lat="47.95773" lon="-0.53915">
        <ele>69.6</ele>
        <time>2024-04-14T09:00:12Z</time>
      </trkpt>
      <trkpt lat="47.95773" lon="-0.53922">
        <ele>69.6</ele>
        <time>2024-04-14T09:00:13Z</time>
      </trkpt>
      <trkpt lat="47.95773" lon="-0.5393">
        <ele>69.6</ele>
        <time>2024-04-14T09:00:14Z</time>
      </trkpt>
      <trkpt lat="47.95772" lon="-0.53938">
        <ele>69.6</ele>
        <time>2024-04-14T09:00:15Z</time>
      </trkpt>
      <trkpt lat="47.95771" lon="-0.53946">
        <ele>70.6</ele>
        <time>2024-04-14T09:00:16Z</time>
      </trkpt>
      <trkpt lat="47.95769" lon="-0.53954">
        <ele>70.6</ele>
        <time>2024-04-14T09:00:17Z</time>
      </trkpt>
      <trkpt lat="47.95766" lon="-0.53961">
        <ele>70.6</ele>
        <time>2024-04-14T09:00:18Z</time>
      </trkpt>
      <trkpt lat="47.95762" lon="-0.53968">
        <ele>70.6</ele>
        <time>2024-04-14T09:00:19Z</time>
      </trkpt>
      <trkpt lat="47.95758" lon="-0.53975">
        <ele>71</ele>
        <time>2024-04-14T09:00:20Z</time>
      </trkpt>
      <trkpt lat="47.95755" lon="-0.53984">
        <ele>71</ele>
        <time>2024-04-14T09:00:21Z</time>
      </trkpt>
      <trkpt lat="47.95753" lon="-0.53992">
        <ele>71</ele>
        <time>2024-04-14T09:00:22Z</time>
      </trkpt>
      <trkpt lat="47.95751" lon="-0.54001">
        <ele>70.6</ele>
        <time>2024-04-14T09:00:23Z</time>
      </trkpt>
      <trkpt lat="47.9575" lon="-0.5401">
        <ele>70.2</ele>
        <time>2024-04-14T09:00:24Z</time>
      </trkpt>
      <trkpt lat="47.95749" lon="-0.54019">
        <ele>70.2</ele>
        <time>2024-04-14T09:00:25Z</time>
      </trkpt>
      <trkpt lat="47.95748" lon="-0.54028">
        <ele>70.2</ele>
        <time>2024-04-14T09:00:26Z</time>
      </trkpt>
      <trkpt lat="47.95746" lon="-0.54036">
        <ele>70.6</ele>
        <time>2024-04-14T09:00:27Z</time>
      </trkpt>
      <trkpt lat="47.95746" lon="-0.54044">
        <ele>71</ele>
        <time>2024-04-14T09:00:28Z</time>
      </trkpt>
      <trkpt lat="47.95746" lon="-0.54053">
        <ele>71</ele>
        <time>2024-04-14T09:00:29Z</time>
      </trkpt>
      <trkpt lat="47.95747" lon="-0.54061">
        <ele>71</ele>
        <time>2024-04-14T09:00:30Z</time>
      </trkpt>
      <trkpt lat="47.95749" lon="-0.54067">
        <ele>71</ele>
        <time>2024-04-14T09:00:31Z</time>
      </trkpt>
      <trkpt lat="47.95753" lon="-0.54072">
        <ele>71.6</ele>
        <time>2024-04-14T09:00:32Z</time>
      </trkpt>
      <trkpt lat="47.95756" lon="-0.54076">
        <ele>71.6</ele>
        <time>2024-04-14T09:00:33Z</time>
      </trkpt>
      <trkpt lat="47.95758" lon="-0.5408">
        <ele>71.6</ele>
        <time>2024-04-14T09:00:34Z</time>
      </trkpt>
      <trkpt lat="47.95758" lon="-0.54086">
        <ele>71.6</ele>
        <time>2024-04-14T09:00:35Z</time>
      </trkpt>
      <trkpt lat="47.95757" lon="-0.54091">
        <ele>73.4</ele>
        <time>2024-04-14T09:00:36Z</time>
      </trkpt>
      <trkpt lat="47.95755" lon="-0.54095">
        <ele>73.4</ele>
        <time>2024-04-14T09:00:37Z</time>
      </trkpt>
      <trkpt lat="47.95753" lon="-0.54101">
        <ele>73.4</ele>
        <time>2024-04-14T09:00:38Z</time>
      </trkpt>
      <trkpt lat="47.9575" lon="-0.54107">
        <ele>72.8</ele>
        <time>2024-04-14T09:00:39Z</time>
      </trkpt>
      <trkpt lat="47.95745" lon="-0.54113">
        <ele>73</ele>
        <time>2024-04-14T09:00:40Z</time>
      </trkpt>
      <trkpt lat="47.9574" lon="-0.54119">
        <ele>73</ele>
        <time>2024-04-14T09:00:41Z</time>
      </trkpt>
      <trkpt lat="47.95735" lon="-0.54124">
        <ele>73</ele>
        <time>2024-04-14T09:00:42Z</time>
      </trkpt>
      <trkpt lat="47.9573" lon="-0.54129">
        <ele>73</ele>
        <time>2024-04-14T09:00:43Z</time>
      </trkpt>
      <trkpt lat="47.95725" lon="-0.54133">
        <ele>72.4</ele>
        <time>2024-04-14T09:00:44Z</time>
      </trkpt>
      <trkpt lat="47.95721" lon="-0.54139">
        <ele>72.4</ele>
        <time>2024-04-14T09:00:45Z</time>
      </trkpt>
      <trkpt lat="47.95717" lon="-0.54146">
        <ele>72.4</ele>
        <time>2024-04-14T09:00:46Z</time>
      </trkpt>
      <trkpt lat="47.95714" lon="-0.54154">
        <ele>71.6</ele>
        <time>2024-04-14T09:00:47Z</time>
      </trkpt>
      <trkpt lat="47.95713" lon="-0.54163">
        <ele>72</ele>
        <time>2024-04-14T09:00:48Z</time>
      </trkpt>
      <trkpt lat="47.95712" lon="-0.54171">
        <ele>72</ele>
        <time>2024-04-14T09:00:49Z</time>
      </trkpt>
      <trkpt lat="47.95711" lon="-0.5418">
        <ele>72</ele>
        <time>2024-04-14T09:00:50Z</time>
      </trkpt>
      <trkpt lat="47.9571" lon="-0.54188">
        <ele>72</ele>
        <time>2024-04-14T09:00:51Z</time>
      </trkpt>
      <trkpt lat="47.95709" lon="-0.54196">
        <ele>72.4</ele>
        <time>2024-04-14T09:00:52Z</time>
      </trkpt>
      <trkpt lat="47.95708" lon="-0.54204">
        <ele>72.4</ele>
        <time>2024-04-14T09:00:53Z</time>
      </trkpt>
      <trkpt lat="47.95707" lon="-0.54212">
        <ele>72.4</ele>
        <time>2024-04-14T09:00:54Z</time>
      </trkpt>
      <trkpt lat="47.95706" lon="-0.54219">
        <ele>72.4</ele>
        <time>2024-04-14T09:00:55Z</time>
      </trkpt>
      <trkpt lat="47.95706" lon="-0.54227">
        <ele>72.4</ele>
        <time>2024-04-14T09:00:56Z</time>
      </trkpt>
      <trkpt lat="47.95706" lon="-0.54234">
        <ele>72.4</ele>
        <time>2024-04-14T09:00:57Z</time>
      </trkpt>
      <trkpt lat="47.95706" lon="-0.54242">
        <ele>72.4</ele>
        <time>2024-04-14T09:00:58Z</time>
      </trkpt>
      <trkpt lat="47.95707" lon="-0.5425">
        <ele>72.6</ele>
        <time>2024-04-14T09:00:59Z</time>
      </trkpt>
      <trkpt lat="47.95707" lon="-0.54257">
        <ele>73.2</ele>
        <time>2024-04-14T09:01:00Z</time>
      </trkpt>
      <trkpt lat="47.95705" lon="-0.54264">
        <ele>73.2</ele>
        <time>2024-04-14T09:01:01Z</time>
      </trkpt>
      <trkpt lat="47.95702" lon="-0.5427">
        <ele>73.2</ele>
        <time>2024-04-14T09:01:02Z</time>
      </trkpt>
      <trkpt lat="47.95697" lon="-0.54274">
        <ele>72.4</ele>
        <time>2024-04-14T09:01:03Z</time>
      </trkpt>
      <trkpt lat="47.95692" lon="-0.54278">
        <ele>71.8</ele>
        <time>2024-04-14T09:01:04Z</time>
      </trkpt>
      <trkpt lat="47.95687" lon="-0.54282">
        <ele>71.8</ele>
        <time>2024-04-14T09:01:05Z</time>
      </trkpt>
      <trkpt lat="47.95681" lon="-0.54285">
        <ele>71.8</ele>
        <time>2024-04-14T09:01:06Z</time>
      </trkpt>
      <trkpt lat="47.95676" lon="-0.54288">
        <ele>71.8</ele>
        <time>2024-04-14T09:01:07Z</time>
      </trkpt>
      <trkpt lat="47.95671" lon="-0.54292">
        <ele>72.8</ele>
        <time>2024-04-14T09:01:08Z</time>
      </trkpt>
      <trkpt lat="47.95665" lon="-0.54294">
        <ele>72.8</ele>
        <time>2024-04-14T09:01:09Z</time>
      </trkpt>
      <trkpt lat="47.9566" lon="-0.54296">
        <ele>72.8</ele>
        <time>2024-04-14T09:01:10Z</time>
      </trkpt>
      <trkpt lat="47.95654" lon="-0.54297">
        <ele>72.8</ele>
        <time>2024-04-14T09:01:11Z</time>
      </trkpt>
      <trkpt lat="47.95649" lon="-0.54297">
        <ele>73.2</ele>
        <time>2024-04-14T09:01:12Z</time>
      </trkpt>
      <trkpt lat="47.95643" lon="-0.54298">
        <ele>73.2</ele>
        <time>2024-04-14T09:01:13Z</time>
      </trkpt>
      <trkpt lat="47.95637" lon="-0.54298">
        <ele>73.2</ele>
        <time>2024-04-14T09:01:14Z</time>
      </trkpt>
      <trkpt lat="47.95631" lon="-0.54299">
        <ele>73.2</ele>
        <time>2024-04-14T09:01:15Z</time>
      </trkpt>
      <trkpt lat="47.95626" lon="-0.54302">
        <ele>73</ele>
        <time>2024-04-14T09:01:16Z</time>
      </trkpt>
      <trkpt lat="47.95622" lon="-0.54305">
        <ele>73</ele>
        <time>2024-04-14T09:01:17Z</time>
      </trkpt>
      <trkpt lat="47.95617" lon="-0.54309">
        <ele>73</ele>
        <time>2024-04-14T09:01:18Z</time>
      </trkpt>
      <trkpt lat="47.95613" lon="-0.54313">
        <ele>73.6</ele>
        <time>2024-04-14T09:01:19Z</time>
      </trkpt>
      <trkpt lat="47.95608" lon="-0.54318">
        <ele>73.4</ele>
        <time>2024-04-14T09:01:20Z</time>
      </trkpt>
      <trkpt lat="47.95604" lon="-0.54322">
        <ele>73.4</ele>
        <time>2024-04-14T09:01:21Z</time>
      </trkpt>
      <trkpt lat="47.95599" lon="-0.54326">
        <ele>73.4</ele>
        <time>2024-04-14T09:01:22Z</time>
      </trkpt>
      <trkpt lat="47.95594" lon="-0.5433">
        <ele>73.2</ele>
        <time>2024-04-14T09:01:23Z</time>
      </trkpt>
      <trkpt lat="47.95589" lon="-0.54335">
        <ele>72.8</ele>
        <time>2024-04-14T09:01:24Z</time>
      </trkpt>
      <trkpt lat="47.95585" lon="-0.54341">
        <ele>72.8</ele>
        <time>2024-04-14T09:01:25Z</time>
      </trkpt>
      <trkpt lat="47.95582" lon="-0.54347">
        <ele>72.8</ele>
        <time>2024-04-14T09:01:26Z</time>
      </trkpt>
      <trkpt lat="47.95578" lon="-0.54353">
        <ele>72.8</ele>
        <time>2024-04-14T09:01:27Z</time>
      </trkpt>
      <trkpt lat="47.95575" lon="-0.54358">
        <ele>72.8</ele>
        <time>2024-04-14T09:01:28Z</time>
      </trkpt>
      <trkpt lat="47.95572" lon="-0.54364">
        <ele>72.8</ele>
        <time>2024-04-14T09:01:29Z</time>
      </trkpt>
      <trkpt lat="47.95569" lon="-0.5437">
        <ele>72.8</ele>
        <time>2024-04-14T09:01:30Z</time>
      </trkpt>
      <trkpt lat="47.95566" lon="-0.54375">
        <ele>73.4</ele>
        <time>2024-04-14T09:01:31Z</time>
      </trkpt>
      <trkpt lat="47.95562" lon="-0.54381">
        <ele>73.4</ele>
        <time>2024-04-14T09:01:32Z</time>
      </trkpt>
      <trkpt lat="47.9556" lon="-0.54387">
        <ele>73.4</ele>
        <time>2024-04-14T09:01:33Z</time>
      </trkpt>
      <trkpt lat="47.95557" lon="-0.54393">
        <ele>73.4</ele>
        <time>2024-04-14T09:01:34Z</time>
      </trkpt>
      <trkpt lat="47.95556" lon="-0.544">
        <ele>73</ele>
        <time>2024-04-14T09:01:35Z</time>
      </trkpt>
      <trkpt lat="47.95554" lon="-0.54407">
        <ele>73</ele>
        <time>2024-04-14T09:01:36Z</time>
      </trkpt>
      <trkpt lat="47.95551" lon="-0.54414">
        <ele>73</ele>
        <time>2024-04-14T09:01:37Z</time>
      </trkpt>
      <trkpt lat="47.95549" lon="-0.5442">
        <ele>73</ele>
        <time>2024-04-14T09:01:38Z</time>
      </trkpt>
      <trkpt lat="47.95545" lon="-0.54426">
        <ele>73.4</ele>
        <time>2024-04-14T09:01:39Z</time>
      </trkpt>
      <trkpt lat="47.95542" lon="-0.54432">
        <ele>73.2</ele>
        <time>2024-04-14T09:01:40Z</time>
      </trkpt>
      <trkpt lat="47.95538" lon="-0.54439">
        <ele>73.2</ele>
        <time>2024-04-14T09:01:41Z</time>
      </trkpt>
      <trkpt lat="47.95536" lon="-0.54446">
        <ele>73.2</ele>
        <time>2024-04-14T09:01:42Z</time>
      </trkpt>
      <trkpt lat="47.95533" lon="-0.54453">
        <ele>73.2</ele>
        <time>2024-04-14T09:01:43Z</time>
      </trkpt>
      <trkpt lat="47.95531" lon="-0.5446">
        <ele>73.6</ele>
        <time>2024-04-14T09:01:44Z</time>
      </trkpt>
      <trkpt lat="47.95528" lon="-0.54467">
        <ele>73.6</ele>
        <time>2024-04-14T09:01:45Z</time>
      </trkpt>
      <trkpt lat="47.95525" lon="-0.54472">
        <ele>73.6</ele>
        <time>2024-04-14T09:01:46Z</time>
      </trkpt>
      <trkpt lat="47.95521" lon="-0.54478">
        <ele>73.6</ele>
        <time>2024-04-14T09:01:47Z</time>
      </trkpt>
      <trkpt lat="47.95518" lon="-0.54482">
        <ele>74</ele>
        <time>2024-04-14T09:01:48Z</time>
      </trkpt>
      <trkpt lat="47.95516" lon="-0.54487">
        <ele>74</ele>
        <time>2024-04-14T09:01:49Z</time>
      </trkpt>
      <trkpt lat="47.95513" lon="-0.54493">
        <ele>74</ele>
        <time>2024-04-14T09:01:50Z</time>
      </trkpt>
      <trkpt lat="47.95511" lon="-0.54498">
        <ele>74</ele>
        <time>2024-04-14T09:01:51Z</time>
      </trkpt>
      <trkpt lat="47.95508" lon="-0.54504">
        <ele>74</ele>
        <time>2024-04-14T09:01:52Z</time>
      </trkpt>
      <trkpt lat="47.95506" lon="-0.5451">
        <ele>74</ele>
        <time>2024-04-14T09:01:53Z</time>
      </trkpt>
      <trkpt lat="47.95502" lon="-0.54515">
        <ele>74</ele>
        <time>2024-04-14T09:01:54Z</time>
      </trkpt>
      <trkpt lat="47.95499" lon="-0.5452">
        <ele>74</ele>
        <time>2024-04-14T09:01:55Z</time>
      </trkpt>
      <trkpt lat="47.95495" lon="-0.54526">
        <ele>74.6</ele>
        <time>2024-04-14T09:01:56Z</time>
      </trkpt>
      <trkpt lat="47.95491" lon="-0.54533">
        <ele>74.6</ele>
        <time>2024-04-14T09:01:57Z</time>
      </trkpt>
      <trkpt lat="47.95487" lon="-0.54539">
        <ele>74.6</ele>
        <time>2024-04-14T09:01:58Z</time>
      </trkpt>
      <trkpt lat="47.95484" lon="-0.54545">
        <ele>74.6</ele>
        <time>2024-04-14T09:01:59Z</time>
      </trkpt>
      <trkpt lat="47.95482" lon="-0.54551">
        <ele>75</ele>
        <time>2024-04-14T09:02:00Z</time>
      </trkpt>
      <trkpt lat="47.95483" lon="-0.54558">
        <ele>75</ele>
        <time>2024-04-14T09:02:01Z</time>
      </trkpt>
      <trkpt lat="47.95485" lon="-0.54566">
        <ele>75</ele>
        <time>2024-04-14T09:02:02Z</time>
      </trkpt>
      <trkpt lat="47.95488" lon="-0.54573">
        <ele>74.8</ele>
        <time>2024-04-14T09:02:03Z</time>
      </trkpt>
      <trkpt lat="47.95491" lon="-0.54579">
        <ele>74.4</ele>
        <time>2024-04-14T09:02:04Z</time>
      </trkpt>
      <trkpt lat="47.95494" lon="-0.54586">
        <ele>74.4</ele>
        <time>2024-04-14T09:02:05Z</time>
      </trkpt>
      <trkpt lat="47.95496" lon="-0.54594">
        <ele>74.4</ele>
        <time>2024-04-14T09:02:06Z</time>
      </trkpt>
      <trkpt lat="47.95499" lon="-0.54601">
        <ele>74.4</ele>
        <time>2024-04-14T09:02:07Z</time>
      </trkpt>
      <trkpt lat="47.95502" lon="-0.54608">
        <ele>74.8</ele>
        <time>2024-04-14T09:02:08Z</time>
      </trkpt>
      <trkpt lat="47.95505" lon="-0.54615">
        <ele>74.8</ele>
        <time>2024-04-14T09:02:09Z</time>
      </trkpt>
      <trkpt lat="47.95508" lon="-0.54622">
        <ele>74.8</ele>
        <time>2024-04-14T09:02:10Z</time>
      </trkpt>
      <trkpt lat="47.95511" lon="-0.54629">
        <ele>74.8</ele>
        <time>2024-04-14T09:02:11Z</time>
      </trkpt>
      <trkpt lat="47.95514" lon="-0.54636">
        <ele>75.6</ele>
        <time>2024-04-14T09:02:12Z</time>
      </trkpt>
      <trkpt lat="47.95516" lon="-0.54642">
        <ele>75.6</ele>
        <time>2024-04-14T09:02:13Z</time>
      </trkpt>
      <trkpt lat="47.95519" lon="-0.54649">
        <ele>75.6</ele>
        <time>2024-04-14T09:02:14Z</time>
      </trkpt>
      <trkpt lat="47.95522" lon="-0.54656">
        <ele>75.6</ele>
        <time>2024-04-14T09:02:15Z</time>
      </trkpt>
      <trkpt lat="47.95525" lon="-0.54663">
        <ele>75.4</ele>
        <time>2024-04-14T09:02:16Z</time>
      </trkpt>
      <trkpt lat="47.95528" lon="-0.54669">
        <ele>75.4</ele>
        <time>2024-04-14T09:02:17Z</time>
      </trkpt>
      <trkpt lat="47.95531" lon="-0.54676">
        <ele>75.4</ele>
        <time>2024-04-14T09:02:18Z</time>
      </trkpt>
      <trkpt lat="47.95534" lon="-0.54682">
        <ele>75.8</ele>
        <time>2024-04-14T09:02:19Z</time>
      </trkpt>
      <trkpt lat="47.95537" lon="-0.54689">
        <ele>75.8</ele>
        <time>2024-04-14T09:02:20Z</time>
      </trkpt>
      <trkpt lat="47.9554" lon="-0.54695">
        <ele>75.8</ele>
        <time>2024-04-14T09:02:21Z</time>
      </trkpt>
      <trkpt lat="47.95543" lon="-0.54702">
        <ele>75.8</ele>
        <time>2024-04-14T09:02:22Z</time>
      </trkpt>
      <trkpt lat="47.95546" lon="-0.54709">
        <ele>76.2</ele>
        <time>2024-04-14T09:02:23Z</time>
      </trkpt>
      <trkpt lat="47.95549" lon="-0.54715">
        <ele>76</ele>
        <time>2024-04-14T09:02:24Z</time>
      </trkpt>
      <trkpt lat="47.95552" lon="-0.54722">
        <ele>76</ele>
        <time>2024-04-14T09:02:25Z</time>
      </trkpt>
      <trkpt lat="47.95555" lon="-0.54729">
        <ele>76</ele>
        <time>2024-04-14T09:02:26Z</time>
      </trkpt>
      <trkpt lat="47.95558" lon="-0.54736">
        <ele>76.2</ele>
        <time>2024-04-14T09:02:27Z</time>
      </trkpt>
      <trkpt lat="47.95561" lon="-0.54742">
        <ele>76.2</ele>
        <time>2024-04-14T09:02:28Z</time>
      </trkpt>
      <trkpt lat="47.95563" lon="-0.54749">
        <ele>76.2</ele>
        <time>2024-04-14T09:02:29Z</time>
      </trkpt>
      <trkpt lat="47.95566" lon="-0.54756">
        <ele>76.2</ele>
        <time>2024-04-14T09:02:30Z</time>
      </trkpt>
      <trkpt lat="47.95569" lon="-0.54763">
        <ele>76.2</ele>
        <time>2024-04-14T09:02:31Z</time>
      </trkpt>
      <trkpt lat="47.95572" lon="-0.54769">
        <ele>76.8</ele>
        <time>2024-04-14T09:02:32Z</time>
      </trkpt>
      <trkpt lat="47.95575" lon="-0.54776">
        <ele>76.8</ele>
        <time>2024-04-14T09:02:33Z</time>
      </trkpt>
      <trkpt lat="47.95578" lon="-0.54783">
        <ele>76.8</ele>
        <time>2024-04-14T09:02:34Z</time>
      </trkpt>
      <trkpt lat="47.95581" lon="-0.54789">
        <ele>76.8</ele>
        <time>2024-04-14T09:02:35Z</time>
      </trkpt>
      <trkpt lat="47.95584" lon="-0.54796">
        <ele>76.8</ele>
        <time>2024-04-14T09:02:36Z</time>
      </trkpt>
      <trkpt lat="47.95587" lon="-0.54802">
        <ele>76.8</ele>
        <time>2024-04-14T09:02:37Z</time>
      </trkpt>
      <trkpt lat="47.9559" lon="-0.54809">
        <ele>76.8</ele>
        <time>2024-04-14T09:02:38Z</time>
      </trkpt>
      <trkpt lat="47.95593" lon="-0.54815">
        <ele>76.8</ele>
        <time>2024-04-14T09:02:39Z</time>
      </trkpt>
      <trkpt lat="47.95596" lon="-0.5482">
        <ele>76.8</ele>
        <time>2024-04-14T09:02:40Z</time>
      </trkpt>
      <trkpt lat="47.95599" lon="-0.54826">
        <ele>76.8</ele>
        <time>2024-04-14T09:02:41Z</time>
      </trkpt>
      <trkpt lat="47.95602" lon="-0.54832">
        <ele>76.8</ele>
        <time>2024-04-14T09:02:42Z</time>
      </trkpt>
      <trkpt lat="47.95604" lon="-0.54838">
        <ele>76.8</ele>
        <time>2024-04-14T09:02:43Z</time>
      </trkpt>
      <trkpt lat="47.95607" lon="-0.54844">
        <ele>77.4</ele>
        <time>2024-04-14T09:02:44Z</time>
      </trkpt>
      <trkpt lat="47.9561" lon="-0.5485">
        <ele>77.4</ele>
        <time>2024-04-14T09:02:45Z</time>
      </trkpt>
      <trkpt lat="47.95613" lon="-0.54856">
        <ele>77.4</ele>
        <time>2024-04-14T09:02:46Z</time>
      </trkpt>
      <trkpt lat="47.95616" lon="-0.54862">
        <ele>77.4</ele>
        <time>2024-04-14T09:02:47Z</time>
      </trkpt>
      <trkpt lat="47.95619" lon="-0.54868">
        <ele>77.4</ele>
        <time>2024-04-14T09:02:48Z</time>
      </trkpt>
      <trkpt lat="47.95623" lon="-0.54874">
        <ele>77.8</ele>
        <time>2024-04-14T09:02:49Z</time>
      </trkpt>
      <trkpt lat="47.95626" lon="-0.54879">
        <ele>77.8</ele>
        <time>2024-04-14T09:02:50Z</time>
      </trkpt>
      <trkpt lat="47.9563" lon="-0.54884">
        <ele>77.8</ele>
        <time>2024-04-14T09:02:51Z</time>
      </trkpt>
      <trkpt lat="47.95634" lon="-0.54888">
        <ele>78.6</ele>
        <time>2024-04-14T09:02:52Z</time>
      </trkpt>
      <trkpt lat="47.95637" lon="-0.5489">
        <ele>78.6</ele>
        <time>2024-04-14T09:02:53Z</time>
      </trkpt>
      <trkpt lat="47.95641" lon="-0.54893">
        <ele>78.6</ele>
        <time>2024-04-14T09:02:54Z</time>
      </trkpt>
      <trkpt lat="47.95646" lon="-0.54895">
        <ele>78.6</ele>
        <time>2024-04-14T09:02:55Z</time>
      </trkpt>
      <trkpt lat="47.95649" lon="-0.54899">
        <ele>78.6</ele>
        <time>2024-04-14T09:02:56Z</time>
      </trkpt>
      <trkpt lat="47.95653" lon="-0.54904">
        <ele>77.8</ele>
        <time>2024-04-14T09:02:57Z</time>
      </trkpt>
      <trkpt lat="47.95657" lon="-0.5491">
        <ele>77.8</ele>
        <time>2024-04-14T09:02:58Z</time>
      </trkpt>
      <trkpt lat="47.9566" lon="-0.54916">
        <ele>77.8</ele>
        <time>2024-04-14T09:02:59Z</time>
      </trkpt>
      <trkpt lat="47.95662" lon="-0.54923">
        <ele>78.2</ele>
        <time>2024-04-14T09:03:00Z</time>
      </trkpt>
      <trkpt lat="47.95665" lon="-0.5493">
        <ele>78.8</ele>
        <time>2024-04-14T09:03:01Z</time>
      </trkpt>
      <trkpt lat="47.95667" lon="-0.54937">
        <ele>78.8</ele>
        <time>2024-04-14T09:03:02Z</time>
      </trkpt>
      <trkpt lat="47.95669" lon="-0.54944">
        <ele>78.8</ele>
        <time>2024-04-14T09:03:03Z</time>
      </trkpt>
      <trkpt lat="47.95671" lon="-0.54951">
        <ele>78.2</ele>
        <time>2024-04-14T09:03:04Z</time>
      </trkpt>
      <trkpt lat="47.95673" lon="-0.54957">
        <ele>78.6</ele>
        <time>2024-04-14T09:03:05Z</time>
      </trkpt>
      <trkpt lat="47.95676" lon="-0.54963">
        <ele>78.6</ele>
        <time>2024-04-14T09:03:06Z</time>
      </trkpt>
      <trkpt lat="47.95678" lon="-0.5497">
        <ele>78.6</ele>
        <time>2024-04-14T09:03:07Z</time>
      </trkpt>
      <trkpt lat="47.95681" lon="-0.54976">
        <ele>78.4</ele>
        <time>2024-04-14T09:03:08Z</time>
      </trkpt>
      <trkpt lat="47.95684" lon="-0.54982">
        <ele>78.4</ele>
        <time>2024-04-14T09:03:09Z</time>
      </trkpt>
      <trkpt lat="47.95687" lon="-0.54988">
        <ele>78.4</ele>
        <time>2024-04-14T09:03:10Z</time>
      </trkpt>
      <trkpt lat="47.9569" lon="-0.54994">
        <ele>78.4</ele>
        <time>2024-04-14T09:03:11Z</time>
      </trkpt>
      <trkpt lat="47.95692" lon="-0.55">
        <ele>78.4</ele>
        <time>2024-04-14T09:03:12Z</time>
      </trkpt>
      <trkpt lat="47.95695" lon="-0.55005">
        <ele>78.4</ele>
        <time>2024-04-14T09:03:13Z</time>
      </trkpt>
      <trkpt lat="47.95698" lon="-0.55009">
        <ele>78.4</ele>
        <time>2024-04-14T09:03:14Z</time>
      </trkpt>
      <trkpt lat="47.957" lon="-0.55013">
        <ele>78.4</ele>
        <time>2024-04-14T09:03:15Z</time>
      </trkpt>
      <trkpt lat="47.95702" lon="-0.55018">
        <ele>79.4</ele>
        <time>2024-04-14T09:03:16Z</time>
      </trkpt>
      <trkpt lat="47.95704" lon="-0.55023">
        <ele>80.6</ele>
        <time>2024-04-14T09:03:17Z</time>
      </trkpt>
      <trkpt lat="47.95706" lon="-0.55028">
        <ele>80.6</ele>
        <time>2024-04-14T09:03:18Z</time>
      </trkpt>
      <trkpt lat="47.95709" lon="-0.55033">
        <ele>80.6</ele>
        <time>2024-04-14T09:03:19Z</time>
      </trkpt>
      <trkpt lat="47.95711" lon="-0.55039">
        <ele>81.4</ele>
        <time>2024-04-14T09:03:20Z</time>
      </trkpt>
      <trkpt lat="47.95713" lon="-0.55044">
        <ele>80</ele>
        <time>2024-04-14T09:03:21Z</time>
      </trkpt>
      <trkpt lat="47.95716" lon="-0.5505">
        <ele>80</ele>
        <time>2024-04-14T09:03:22Z</time>
      </trkpt>
      <trkpt lat="47.95719" lon="-0.55054">
        <ele>80</ele>
        <time>2024-04-14T09:03:23Z</time>
      </trkpt>
      <trkpt lat="47.95722" lon="-0.55059">
        <ele>80.6</ele>
        <time>2024-04-14T09:03:24Z</time>
      </trkpt>
      <trkpt lat="47.95725" lon="-0.55062">
        <ele>81</ele>
        <time>2024-04-14T09:03:25Z</time>
      </trkpt>
      <trkpt lat="47.95728" lon="-0.55067">
        <ele>81</ele>
        <time>2024-04-14T09:03:26Z</time>
      </trkpt>
      <trkpt lat="47.95731" lon="-0.55071">
        <ele>81</ele>
        <time>2024-04-14T09:03:27Z</time>
      </trkpt>
      <trkpt lat="47.95734" lon="-0.55076">
        <ele>81</ele>
        <time>2024-04-14T09:03:28Z</time>
      </trkpt>
      <trkpt lat="47.95738" lon="-0.5508">
        <ele>80.6</ele>
        <time>2024-04-14T09:03:29Z</time>
      </trkpt>
      <trkpt lat="47.95741" lon="-0.55084">
        <ele>80.6</ele>
        <time>2024-04-14T09:03:30Z</time>
      </trkpt>
      <trkpt lat="47.95744" lon="-0.55088">
        <ele>80.6</ele>
        <time>2024-04-14T09:03:31Z</time>
      </trkpt>
      <trkpt lat="47.95746" lon="-0.55092">
        <ele>81.6</ele>
        <time>2024-04-14T09:03:32Z</time>
      </trkpt>
      <trkpt lat="47.95749" lon="-0.55097">
        <ele>81.6</ele>
        <time>2024-04-14T09:03:33Z</time>
      </trkpt>
      <trkpt lat="47.95752" lon="-0.55101">
        <ele>81.6</ele>
        <time>2024-04-14T09:03:34Z</time>
      </trkpt>
      <trkpt lat="47.95754" lon="-0.55105">
        <ele>81.6</ele>
        <time>2024-04-14T09:03:35Z</time>
      </trkpt>
      <trkpt lat="47.95757" lon="-0.5511">
        <ele>82.6</ele>
        <time>2024-04-14T09:03:36Z</time>
      </trkpt>
      <trkpt lat="47.95759" lon="-0.55115">
        <ele>81.2</ele>
        <time>2024-04-14T09:03:37Z</time>
      </trkpt>
      <trkpt lat="47.95762" lon="-0.5512">
        <ele>81.2</ele>
        <time>2024-04-14T09:03:38Z</time>
      </trkpt>
      <trkpt lat="47.95764" lon="-0.55125">
        <ele>81.2</ele>
        <time>2024-04-14T09:03:39Z</time>
      </trkpt>
      <trkpt lat="47.95767" lon="-0.5513">
        <ele>82.2</ele>
        <time>2024-04-14T09:03:40Z</time>
      </trkpt>
      <trkpt lat="47.95769" lon="-0.55134">
        <ele>84.4</ele>
        <time>2024-04-14T09:03:41Z</time>
      </trkpt>
      <trkpt lat="47.95771" lon="-0.55138">
        <ele>84.4</ele>
        <time>2024-04-14T09:03:42Z</time>
      </trkpt>
      <trkpt lat="47.95773" lon="-0.55143">
        <ele>84.4</ele>
        <time>2024-04-14T09:03:43Z</time>
      </trkpt>
      <trkpt lat="47.95775" lon="-0.55148">
        <ele>83.4</ele>
        <time>2024-04-14T09:03:44Z</time>
      </trkpt>
      <trkpt lat="47.95776" lon="-0.55153">
        <ele>83.8</ele>
        <time>2024-04-14T09:03:45Z</time>
      </trkpt>
      <trkpt lat="47.95778" lon="-0.55158">
        <ele>83.8</ele>
        <time>2024-04-14T09:03:46Z</time>
      </trkpt>
      <trkpt lat="47.95779" lon="-0.55162">
        <ele>83.8</ele>
        <time>2024-04-14T09:03:47Z</time>
      </trkpt>
      <trkpt lat="47.9578" lon="-0.55167">
        <ele>83.8</ele>
        <time>2024-04-14T09:03:48Z</time>
      </trkpt>
      <trkpt lat="47.95782" lon="-0.55172">
        <ele>83.6</ele>
        <time>2024-04-14T09:03:49Z</time>
      </trkpt>
      <trkpt lat="47.95783" lon="-0.55177">
        <ele>83.6</ele>
        <time>2024-04-14T09:03:50Z</time>
      </trkpt>
      <trkpt lat="47.95785" lon="-0.55182">
        <ele>83.6</ele>
        <time>2024-04-14T09:03:51Z</time>
      </trkpt>
      <trkpt lat="47.95786" lon="-0.55188">
        <ele>83.8</ele>
        <time>2024-04-14T09:03:52Z</time>
      </trkpt>
      <trkpt lat="47.95788" lon="-0.55194">
        <ele>84.4</ele>
        <time>2024-04-14T09:03:53Z</time>
      </trkpt>
      <trkpt lat="47.95789" lon="-0.552">
        <ele>84.4</ele>
        <time>2024-04-14T09:03:54Z</time>
      </trkpt>
      <trkpt lat="47.9579" lon="-0.55204">
        <ele>84.4</ele>
        <time>2024-04-14T09:03:55Z</time>
      </trkpt>
      <trkpt lat="47.95791" lon="-0.5521">
        <ele>84.4</ele>
        <time>2024-04-14T09:03:56Z</time>
      </trkpt>
      <trkpt lat="47.95791" lon="-0.55214">
        <ele>84</ele>
        <time>2024-04-14T09:03:57Z</time>
      </trkpt>
      <trkpt lat="47.95792" lon="-0.55219">
        <ele>84</ele>
        <time>2024-04-14T09:03:58Z</time>
      </trkpt>
      <trkpt lat="47.95794" lon="-0.55224">
        <ele>84</ele>
        <time>2024-04-14T09:03:59Z</time>
      </trkpt>
      <trkpt lat="47.95795" lon="-0.5523">
        <ele>84</ele>
        <time>2024-04-14T09:04:00Z</time>
      </trkpt>
      <trkpt lat="47.95797" lon="-0.55236">
        <ele>84</ele>
        <time>2024-04-14T09:04:01Z</time>
      </trkpt>
      <trkpt lat="47.95799" lon="-0.55241">
        <ele>84</ele>
        <time>2024-04-14T09:04:02Z</time>
      </trkpt>
      <trkpt lat="47.95801" lon="-0.55248">
        <ele>84</ele>
        <time>2024-04-14T09:04:03Z</time>
      </trkpt>
      <trkpt lat="47.95803" lon="-0.55254">
        <ele>84</ele>
        <time>2024-04-14T09:04:04Z</time>
      </trkpt>
      <trkpt lat="47.95804" lon="-0.55262">
        <ele>83.4</ele>
        <time>2024-04-14T09:04:05Z</time>
      </trkpt>
      <trkpt lat="47.95806" lon="-0.55269">
        <ele>83.4</ele>
        <time>2024-04-14T09:04:06Z</time>
      </trkpt>
      <trkpt lat="47.95808" lon="-0.55278">
        <ele>83.4</ele>
        <time>2024-04-14T09:04:07Z</time>
      </trkpt>
      <trkpt lat="47.9581" lon="-0.55287">
        <ele>83.4</ele>
        <time>2024-04-14T09:04:08Z</time>
      </trkpt>
      <trkpt lat="47.95812" lon="-0.55295">
        <ele>84.4</ele>
        <time>2024-04-14T09:04:09Z</time>
      </trkpt>
      <trkpt lat="47.95814" lon="-0.55303">
        <ele>84.4</ele>
        <time>2024-04-14T09:04:10Z</time>
      </trkpt>
      <trkpt lat="47.95816" lon="-0.5531">
        <ele>84.4</ele>
        <time>2024-04-14T09:04:11Z</time>
      </trkpt>
      <trkpt lat="47.95817" lon="-0.55317">
        <ele>83.8</ele>
        <time>2024-04-14T09:04:12Z</time>
      </trkpt>
      <trkpt lat="47.95819" lon="-0.55324">
        <ele>83.8</ele>
        <time>2024-04-14T09:04:13Z</time>
      </trkpt>
      <trkpt lat="47.95821" lon="-0.55331">
        <ele>83.8</ele>
        <time>2024-04-14T09:04:14Z</time>
      </trkpt>
      <trkpt lat="47.95823" lon="-0.55338">
        <ele>83.8</ele>
        <time>2024-04-14T09:04:15Z</time>
      </trkpt>
      <trkpt lat="47.95825" lon="-0.55345">
        <ele>83.8</ele>
        <time>2024-04-14T09:04:16Z</time>
      </trkpt>
      <trkpt lat="47.95827" lon="-0.55352">
        <ele>83.2</ele>
        <time>2024-04-14T09:04:17Z</time>
      </trkpt>
      <trkpt lat="47.95828" lon="-0.5536">
        <ele>83.2</ele>
        <time>2024-04-14T09:04:18Z</time>
      </trkpt>
      <trkpt lat="47.9583" lon="-0.55368">
        <ele>83.2</ele>
        <time>2024-04-14T09:04:19Z</time>
      </trkpt>
      <trkpt lat="47.95832" lon="-0.55375">
        <ele>82.6</ele>
        <time>2024-04-14T09:04:20Z</time>
      </trkpt>
      <trkpt lat="47.95833" lon="-0.55381">
        <ele>83.6</ele>
        <time>2024-04-14T09:04:21Z</time>
      </trkpt>
      <trkpt lat="47.95834" lon="-0.55387">
        <ele>83.6</ele>
        <time>2024-04-14T09:04:22Z</time>
      </trkpt>
      <trkpt lat="47.95834" lon="-0.55394">
        <ele>83.6</ele>
        <time>2024-04-14T09:04:23Z</time>
      </trkpt>
      <trkpt lat="47.95835" lon="-0.55401">
        <ele>83.6</ele>
        <time>2024-04-14T09:04:24Z</time>
      </trkpt>
      <trkpt lat="47.95835" lon="-0.55408">
        <ele>83.8</ele>
        <time>2024-04-14T09:04:25Z</time>
      </trkpt>
      <trkpt lat="47.95836" lon="-0.55415">
        <ele>83.8</ele>
        <time>2024-04-14T09:04:26Z</time>
      </trkpt>
      <trkpt lat="47.95837" lon="-0.55421">
        <ele>83.8</ele>
        <time>2024-04-14T09:04:27Z</time>
      </trkpt>
      <trkpt lat="47.95838" lon="-0.55429">
        <ele>82.8</ele>
        <time>2024-04-14T09:04:28Z</time>
      </trkpt>
      <trkpt lat="47.95839" lon="-0.55436">
        <ele>82</ele>
        <time>2024-04-14T09:04:29Z</time>
      </trkpt>
      <trkpt lat="47.95841" lon="-0.55444">
        <ele>82</ele>
        <time>2024-04-14T09:04:30Z</time>
      </trkpt>
      <trkpt lat="47.95843" lon="-0.55451">
        <ele>82</ele>
        <time>2024-04-14T09:04:31Z</time>
      </trkpt>
      <trkpt lat="47.95845" lon="-0.55458">
        <ele>82</ele>
        <time>2024-04-14T09:04:32Z</time>
      </trkpt>
      <trkpt lat="47.95846" lon="-0.55465">
        <ele>82.4</ele>
        <time>2024-04-14T09:04:33Z</time>
      </trkpt>
      <trkpt lat="47.95848" lon="-0.55473">
        <ele>82.4</ele>
        <time>2024-04-14T09:04:34Z</time>
      </trkpt>
      <trkpt lat="47.9585" lon="-0.55479">
        <ele>82.4</ele>
        <time>2024-04-14T09:04:35Z</time>
      </trkpt>
      <trkpt lat="47.95852" lon="-0.55486">
        <ele>82.4</ele>
        <time>2024-04-14T09:04:36Z</time>
      </trkpt>
      <trkpt lat="47.95854" lon="-0.55492">
        <ele>81.6</ele>
        <time>2024-04-14T09:04:37Z</time>
      </trkpt>
      <trkpt lat="47.95856" lon="-0.55499">
        <ele>81.6</ele>
        <time>2024-04-14T09:04:38Z</time>
      </trkpt>
      <trkpt lat="47.95858" lon="-0.55506">
        <ele>81.6</ele>
        <time>2024-04-14T09:04:39Z</time>
      </trkpt>
      <trkpt lat="47.9586" lon="-0.55512">
        <ele>81.6</ele>
        <time>2024-04-14T09:04:40Z</time>
      </trkpt>
      <trkpt lat="47.95861" lon="-0.55519">
        <ele>81.4</ele>
        <time>2024-04-14T09:04:41Z</time>
      </trkpt>
      <trkpt lat="47.95863" lon="-0.55526">
        <ele>81.4</ele>
        <time>2024-04-14T09:04:42Z</time>
      </trkpt>
      <trkpt lat="47.95866" lon="-0.55532">
        <ele>81.4</ele>
        <time>2024-04-14T09:04:43Z</time>
      </trkpt>
      <trkpt lat="47.95868" lon="-0.55539">
        <ele>81.4</ele>
        <time>2024-04-14T09:04:44Z</time>
      </trkpt>
      <trkpt lat="47.95871" lon="-0.55546">
        <ele>81.6</ele>
        <time>2024-04-14T09:04:45Z</time>
      </trkpt>
      <trkpt lat="47.95873" lon="-0.55553">
        <ele>81.6</ele>
        <time>2024-04-14T09:04:46Z</time>
      </trkpt>
      <trkpt lat="47.95875" lon="-0.5556">
        <ele>81.6</ele>
        <time>2024-04-14T09:04:47Z</time>
      </trkpt>
      <trkpt lat="47.95877" lon="-0.55568">
        <ele>80.6</ele>
        <time>2024-04-14T09:04:48Z</time>
      </trkpt>
      <trkpt lat="47.95879" lon="-0.55576">
        <ele>82</ele>
        <time>2024-04-14T09:04:49Z</time>
      </trkpt>
      <trkpt lat="47.95882" lon="-0.55585">
        <ele>82</ele>
        <time>2024-04-14T09:04:50Z</time>
      </trkpt>
      <trkpt lat="47.95884" lon="-0.55593">
        <ele>82</ele>
        <time>2024-04-14T09:04:51Z</time>
      </trkpt>
      <trkpt lat="47.95885" lon="-0.55602">
        <ele>81</ele>
        <time>2024-04-14T09:04:52Z</time>
      </trkpt>
      <trkpt lat="47.95887" lon="-0.55609">
        <ele>80.8</ele>
        <time>2024-04-14T09:04:53Z</time>
      </trkpt>
      <trkpt lat="47.9589" lon="-0.55616">
        <ele>80.8</ele>
        <time>2024-04-14T09:04:54Z</time>
      </trkpt>
      <trkpt lat="47.95893" lon="-0.55621">
        <ele>80.8</ele>
        <time>2024-04-14T09:04:55Z</time>
      </trkpt>
      <trkpt lat="47.95898" lon="-0.55625">
        <ele>80.2</ele>
        <time>2024-04-14T09:04:56Z</time>
      </trkpt>
      <trkpt lat="47.95902" lon="-0.55629">
        <ele>80.2</ele>
        <time>2024-04-14T09:04:57Z</time>
      </trkpt>
      <trkpt lat="47.95907" lon="-0.55633">
        <ele>80.2</ele>
        <time>2024-04-14T09:04:58Z</time>
      </trkpt>
      <trkpt lat="47.95912" lon="-0.55637">
        <ele>80.2</ele>
        <time>2024-04-14T09:04:59Z</time>
      </trkpt>
      <trkpt lat="47.95917" lon="-0.55641">
        <ele>80.2</ele>
        <time>2024-04-14T09:05:00Z</time>
      </trkpt>
      <trkpt lat="47.95922" lon="-0.55645">
        <ele>80.6</ele>
        <time>2024-04-14T09:05:01Z</time>
      </trkpt>
      <trkpt lat="47.95927" lon="-0.55649">
        <ele>80.6</ele>
        <time>2024-04-14T09:05:02Z</time>
      </trkpt>
      <trkpt lat="47.95932" lon="-0.55653">
        <ele>80.6</ele>
        <time>2024-04-14T09:05:03Z</time>
      </trkpt>
      <trkpt lat="47.95937" lon="-0.55656">
        <ele>80.6</ele>
        <time>2024-04-14T09:05:04Z</time>
      </trkpt>
      <trkpt lat="47.95942" lon="-0.5566">
        <ele>80</ele>
        <time>2024-04-14T09:05:05Z</time>
      </trkpt>
      <trkpt lat="47.95947" lon="-0.55663">
        <ele>80</ele>
        <time>2024-04-14T09:05:06Z</time>
      </trkpt>
      <trkpt lat="47.95953" lon="-0.55666">
        <ele>80</ele>
        <time>2024-04-14T09:05:07Z</time>
      </trkpt>
      <trkpt lat="47.95958" lon="-0.55668">
        <ele>80</ele>
        <time>2024-04-14T09:05:08Z</time>
      </trkpt>
      <trkpt lat="47.95963" lon="-0.5567">
        <ele>79</ele>
        <time>2024-04-14T09:05:09Z</time>
      </trkpt>
      <trkpt lat="47.95968" lon="-0.55673">
        <ele>79</ele>
        <time>2024-04-14T09:05:10Z</time>
      </trkpt>
      <trkpt lat="47.95973" lon="-0.55675">
        <ele>79</ele>
        <time>2024-04-14T09:05:11Z</time>
      </trkpt>
      <trkpt lat="47.95978" lon="-0.55678">
        <ele>79.8</ele>
        <time>2024-04-14T09:05:12Z</time>
      </trkpt>
      <trkpt lat="47.95983" lon="-0.5568">
        <ele>80</ele>
        <time>2024-04-14T09:05:13Z</time>
      </trkpt>
      <trkpt lat="47.95988" lon="-0.55683">
        <ele>80</ele>
        <time>2024-04-14T09:05:14Z</time>
      </trkpt>
      <trkpt lat="47.95993" lon="-0.55686">
        <ele>80</ele>
        <time>2024-04-14T09:05:15Z</time>
      </trkpt>
      <trkpt lat="47.95998" lon="-0.55689">
        <ele>79.6</ele>
        <time>2024-04-14T09:05:16Z</time>
      </trkpt>
      <trkpt lat="47.96003" lon="-0.55692">
        <ele>79.4</ele>
        <time>2024-04-14T09:05:17Z</time>
      </trkpt>
      <trkpt lat="47.96008" lon="-0.55696">
        <ele>79.4</ele>
        <time>2024-04-14T09:05:18Z</time>
      </trkpt>
      <trkpt lat="47.96013" lon="-0.557">
        <ele>79.4</ele>
        <time>2024-04-14T09:05:19Z</time>
      </trkpt>
      <trkpt lat="47.96018" lon="-0.55704">
        <ele>79.4</ele>
        <time>2024-04-14T09:05:20Z</time>
      </trkpt>
      <trkpt lat="47.96023" lon="-0.55708">
        <ele>80.4</ele>
        <time>2024-04-14T09:05:21Z</time>
      </trkpt>
      <trkpt lat="47.96028" lon="-0.55712">
        <ele>80.4</ele>
        <time>2024-04-14T09:05:22Z</time>
      </trkpt>
      <trkpt lat="47.96033" lon="-0.55716">
        <ele>80.4</ele>
        <time>2024-04-14T09:05:23Z</time>
      </trkpt>
      <trkpt lat="47.96038" lon="-0.5572">
        <ele>79.4</ele>
        <time>2024-04-14T09:05:24Z</time>
      </trkpt>
      <trkpt lat="47.96043" lon="-0.55724">
        <ele>79.6</ele>
        <time>2024-04-14T09:05:25Z</time>
      </trkpt>
      <trkpt lat="47.96047" lon="-0.55727">
        <ele>79.6</ele>
        <time>2024-04-14T09:05:26Z</time>
      </trkpt>
      <trkpt lat="47.96052" lon="-0.55731">
        <ele>79.6</ele>
        <time>2024-04-14T09:05:27Z</time>
      </trkpt>
      <trkpt lat="47.96056" lon="-0.55737">
        <ele>79.6</ele>
        <time>2024-04-14T09:05:28Z</time>
      </trkpt>
      <trkpt lat="47.96059" lon="-0.55744">
        <ele>79.4</ele>
        <time>2024-04-14T09:05:29Z</time>
      </trkpt>
      <trkpt lat="47.9606" lon="-0.55752">
        <ele>79.4</ele>
        <time>2024-04-14T09:05:30Z</time>
      </trkpt>
      <trkpt lat="47.96061" lon="-0.5576">
        <ele>79.4</ele>
        <time>2024-04-14T09:05:31Z</time>
      </trkpt>
      <trkpt lat="47.96063" lon="-0.55768">
        <ele>80</ele>
        <time>2024-04-14T09:05:32Z</time>
      </trkpt>
      <trkpt lat="47.96064" lon="-0.55776">
        <ele>80.2</ele>
        <time>2024-04-14T09:05:33Z</time>
      </trkpt>
      <trkpt lat="47.96066" lon="-0.55785">
        <ele>80.2</ele>
        <time>2024-04-14T09:05:34Z</time>
      </trkpt>
      <trkpt lat="47.96067" lon="-0.55793">
        <ele>80.2</ele>
        <time>2024-04-14T09:05:35Z</time>
      </trkpt>
      <trkpt lat="47.96068" lon="-0.55801">
        <ele>80.8</ele>
        <time>2024-04-14T09:05:36Z</time>
      </trkpt>
      <trkpt lat="47.96069" lon="-0.55809">
        <ele>80.6</ele>
        <time>2024-04-14T09:05:37Z</time>
      </trkpt>
      <trkpt lat="47.96071" lon="-0.55817">
        <ele>80.6</ele>
        <time>2024-04-14T09:05:38Z</time>
      </trkpt>
      <trkpt lat="47.96073" lon="-0.55825">
        <ele>80.6</ele>
        <time>2024-04-14T09:05:39Z</time>
      </trkpt>
      <trkpt lat="47.96075" lon="-0.55834">
        <ele>80</ele>
        <time>2024-04-14T09:05:40Z</time>
      </trkpt>
      <trkpt lat="47.96076" lon="-0.55842">
        <ele>80</ele>
        <time>2024-04-14T09:05:41Z</time>
      </trkpt>
      <trkpt lat="47.96078" lon="-0.5585">
        <ele>80</ele>
        <time>2024-04-14T09:05:42Z</time>
      </trkpt>
      <trkpt lat="47.9608" lon="-0.55858">
        <ele>80</ele>
        <time>2024-04-14T09:05:43Z</time>
      </trkpt>
      <trkpt lat="47.96081" lon="-0.55866">
        <ele>80</ele>
        <time>2024-04-14T09:05:44Z</time>
      </trkpt>
      <trkpt lat="47.96083" lon="-0.55874">
        <ele>80.4</ele>
        <time>2024-04-14T09:05:45Z</time>
      </trkpt>
      <trkpt lat="47.96085" lon="-0.55882">
        <ele>80.4</ele>
        <time>2024-04-14T09:05:46Z</time>
      </trkpt>
      <trkpt lat="47.96086" lon="-0.5589">
        <ele>80.4</ele>
        <time>2024-04-14T09:05:47Z</time>
      </trkpt>
      <trkpt lat="47.96088" lon="-0.55898">
        <ele>80.8</ele>
        <time>2024-04-14T09:05:48Z</time>
      </trkpt>
      <trkpt lat="47.9609" lon="-0.55906">
        <ele>81.2</ele>
        <time>2024-04-14T09:05:49Z</time>
      </trkpt>
      <trkpt lat="47.96091" lon="-0.55914">
        <ele>81.2</ele>
        <time>2024-04-14T09:05:50Z</time>
      </trkpt>
      <trkpt lat="47.96093" lon="-0.55922">
        <ele>81.2</ele>
        <time>2024-04-14T09:05:51Z</time>
      </trkpt>
      <trkpt lat="47.96095" lon="-0.5593">
        <ele>81.6</ele>
        <time>2024-04-14T09:05:52Z</time>
      </trkpt>
      <trkpt lat="47.96096" lon="-0.55938">
        <ele>81.8</ele>
        <time>2024-04-14T09:05:53Z</time>
      </trkpt>
      <trkpt lat="47.96098" lon="-0.55946">
        <ele>81.8</ele>
        <time>2024-04-14T09:05:54Z</time>
      </trkpt>
      <trkpt lat="47.96099" lon="-0.55954">
        <ele>81.8</ele>
        <time>2024-04-14T09:05:55Z</time>
      </trkpt>
      <trkpt lat="47.96101" lon="-0.55962">
        <ele>81.8</ele>
        <time>2024-04-14T09:05:56Z</time>
      </trkpt>
      <trkpt lat="47.96103" lon="-0.5597">
        <ele>81.4</ele>
        <time>2024-04-14T09:05:57Z</time>
      </trkpt>
      <trkpt lat="47.96104" lon="-0.55978">
        <ele>81.4</ele>
        <time>2024-04-14T09:05:58Z</time>
      </trkpt>
      <trkpt lat="47.96106" lon="-0.55986">
        <ele>81.4</ele>
        <time>2024-04-14T09:05:59Z</time>
      </trkpt>
      <trkpt lat="47.96107" lon="-0.55994">
        <ele>81.4</ele>
        <time>2024-04-14T09:06:00Z</time>
      </trkpt>
      <trkpt lat="47.96109" lon="-0.56002">
        <ele>82</ele>
        <time>2024-04-14T09:06:01Z</time>
      </trkpt>
      <trkpt lat="47.96111" lon="-0.5601">
        <ele>82</ele>
        <time>2024-04-14T09:06:02Z</time>
      </trkpt>
      <trkpt lat="47.96112" lon="-0.56018">
        <ele>82</ele>
        <time>2024-04-14T09:06:03Z</time>
      </trkpt>
      <trkpt lat="47.96114" lon="-0.56026">
        <ele>81.8</ele>
        <time>2024-04-14T09:06:04Z</time>
      </trkpt>
      <trkpt lat="47.96116" lon="-0.56034">
        <ele>82</ele>
        <time>2024-04-14T09:06:05Z</time>
      </trkpt>
      <trkpt lat="47.96117" lon="-0.56042">
        <ele>82</ele>
        <time>2024-04-14T09:06:06Z</time>
      </trkpt>
      <trkpt lat="47.96119" lon="-0.5605">
        <ele>82</ele>
        <time>2024-04-14T09:06:07Z</time>
      </trkpt>
      <trkpt lat="47.9612" lon="-0.56058">
        <ele>82.2</ele>
        <time>2024-04-14T09:06:08Z</time>
      </trkpt>
      <trkpt lat="47.96122" lon="-0.56066">
        <ele>82.2</ele>
        <time>2024-04-14T09:06:09Z</time>
      </trkpt>
      <trkpt lat="47.96124" lon="-0.56074">
        <ele>82.2</ele>
        <time>2024-04-14T09:06:10Z</time>
      </trkpt>
      <trkpt lat="47.96126" lon="-0.56083">
        <ele>82.2</ele>
        <time>2024-04-14T09:06:11Z</time>
      </trkpt>
      <trkpt lat="47.96129" lon="-0.56091">
        <ele>82.2</ele>
        <time>2024-04-14T09:06:12Z</time>
      </trkpt>
      <trkpt lat="47.96131" lon="-0.56099">
        <ele>82</ele>
        <time>2024-04-14T09:06:13Z</time>
      </trkpt>
      <trkpt lat="47.96134" lon="-0.56107">
        <ele>82</ele>
        <time>2024-04-14T09:06:14Z</time>
      </trkpt>
      <trkpt lat="47.96137" lon="-0.56114">
        <ele>82</ele>
        <time>2024-04-14T09:06:15Z</time>
      </trkpt>
      <trkpt lat="47.9614" lon="-0.56122">
        <ele>81</ele>
        <time>2024-04-14T09:06:16Z</time>
      </trkpt>
      <trkpt lat="47.96143" lon="-0.56129">
        <ele>80.8</ele>
        <time>2024-04-14T09:06:17Z</time>
      </trkpt>
      <trkpt lat="47.96147" lon="-0.56136">
        <ele>80.8</ele>
        <time>2024-04-14T09:06:18Z</time>
      </trkpt>
      <trkpt lat="47.9615" lon="-0.56142">
        <ele>80.8</ele>
        <time>2024-04-14T09:06:19Z</time>
      </trkpt>
      <trkpt lat="47.96154" lon="-0.56149">
        <ele>81.8</ele>
        <time>2024-04-14T09:06:20Z</time>
      </trkpt>
      <trkpt lat="47.96158" lon="-0.56155">
        <ele>81.6</ele>
        <time>2024-04-14T09:06:21Z</time>
      </trkpt>
      <trkpt lat="47.96161" lon="-0.56161">
        <ele>81.6</ele>
        <time>2024-04-14T09:06:22Z</time>
      </trkpt>
      <trkpt lat="47.96165" lon="-0.56168">
        <ele>81.6</ele>
        <time>2024-04-14T09:06:23Z</time>
      </trkpt>
      <trkpt lat="47.96168" lon="-0.56174">
        <ele>82.4</ele>
        <time>2024-04-14T09:06:24Z</time>
      </trkpt>
      <trkpt lat="47.96171" lon="-0.56181">
        <ele>82.4</ele>
        <time>2024-04-14T09:06:25Z</time>
      </trkpt>
      <trkpt lat="47.96175" lon="-0.56188">
        <ele>82.4</ele>
        <time>2024-04-14T09:06:26Z</time>
      </trkpt>
      <trkpt lat="47.96178" lon="-0.56195">
        <ele>82.4</ele>
        <time>2024-04-14T09:06:27Z</time>
      </trkpt>
      <trkpt lat="47.96181" lon="-0.56202">
        <ele>83</ele>
        <time>2024-04-14T09:06:28Z</time>
      </trkpt>
      <trkpt lat="47.96184" lon="-0.56209">
        <ele>82.8</ele>
        <time>2024-04-14T09:06:29Z</time>
      </trkpt>
      <trkpt lat="47.96188" lon="-0.56216">
        <ele>82.8</ele>
        <time>2024-04-14T09:06:30Z</time>
      </trkpt>
      <trkpt lat="47.96191" lon="-0.56223">
        <ele>82.8</ele>
        <time>2024-04-14T09:06:31Z</time>
      </trkpt>
      <trkpt lat="47.96194" lon="-0.5623">
        <ele>83.6</ele>
        <time>2024-04-14T09:06:32Z</time>
      </trkpt>
      <trkpt lat="47.96197" lon="-0.56237">
        <ele>84</ele>
        <time>2024-04-14T09:06:33Z</time>
      </trkpt>
      <trkpt lat="47.962" lon="-0.56244">
        <ele>84</ele>
        <time>2024-04-14T09:06:34Z</time>
      </trkpt>
      <trkpt lat="47.96203" lon="-0.56251">
        <ele>84</ele>
        <time>2024-04-14T09:06:35Z</time>
      </trkpt>
      <trkpt lat="47.96206" lon="-0.56258">
        <ele>83</ele>
        <time>2024-04-14T09:06:36Z</time>
      </trkpt>
      <trkpt lat="47.96209" lon="-0.56266">
        <ele>83.6</ele>
        <time>2024-04-14T09:06:37Z</time>
      </trkpt>
      <trkpt lat="47.96211" lon="-0.56273">
        <ele>83.6</ele>
        <time>2024-04-14T09:06:38Z</time>
      </trkpt>
      <trkpt lat="47.96214" lon="-0.5628">
        <ele>83.6</ele>
        <time>2024-04-14T09:06:39Z</time>
      </trkpt>
      <trkpt lat="47.96217" lon="-0.56287">
        <ele>83.6</ele>
        <time>2024-04-14T09:06:40Z</time>
      </trkpt>
      <trkpt lat="47.96219" lon="-0.56294">
        <ele>83.6</ele>
        <time>2024-04-14T09:06:41Z</time>
      </trkpt>
      <trkpt lat="47.96221" lon="-0.56301">
        <ele>83.6</ele>
        <time>2024-04-14T09:06:42Z</time>
      </trkpt>
      <trkpt lat="47.96224" lon="-0.56309">
        <ele>83.6</ele>
        <time>2024-04-14T09:06:43Z</time>
      </trkpt>
      <trkpt lat="47.96226" lon="-0.56316">
        <ele>83.6</ele>
        <time>2024-04-14T09:06:44Z</time>
      </trkpt>
      <trkpt lat="47.96228" lon="-0.56323">
        <ele>84</ele>
        <time>2024-04-14T09:06:45Z</time>
      </trkpt>
      <trkpt lat="47.9623" lon="-0.5633">
        <ele>84</ele>
        <time>2024-04-14T09:06:46Z</time>
      </trkpt>
      <trkpt lat="47.96232" lon="-0.56337">
        <ele>84</ele>
        <time>2024-04-14T09:06:47Z</time>
      </trkpt>
      <trkpt lat="47.96234" lon="-0.56344">
        <ele>84</ele>
        <time>2024-04-14T09:06:48Z</time>
      </trkpt>
      <trkpt lat="47.96236" lon="-0.56352">
        <ele>84.4</ele>
        <time>2024-04-14T09:06:49Z</time>
      </trkpt>
      <trkpt lat="47.96238" lon="-0.56359">
        <ele>84.4</ele>
        <time>2024-04-14T09:06:50Z</time>
      </trkpt>
      <trkpt lat="47.9624" lon="-0.56366">
        <ele>84.4</ele>
        <time>2024-04-14T09:06:51Z</time>
      </trkpt>
      <trkpt lat="47.96242" lon="-0.56373">
        <ele>85</ele>
        <time>2024-04-14T09:06:52Z</time>
      </trkpt>
      <trkpt lat="47.96243" lon="-0.5638">
        <ele>85.2</ele>
        <time>2024-04-14T09:06:53Z</time>
      </trkpt>
      <trkpt lat="47.96245" lon="-0.56387">
        <ele>85.2</ele>
        <time>2024-04-14T09:06:54Z</time>
      </trkpt>
      <trkpt lat="47.96246" lon="-0.56393">
        <ele>85.2</ele>
        <time>2024-04-14T09:06:55Z</time>
      </trkpt>
      <trkpt lat="47.96248" lon="-0.564">
        <ele>85.2</ele>
        <time>2024-04-14T09:06:56Z</time>
      </trkpt>
      <trkpt lat="47.96249" lon="-0.56406">
        <ele>85.4</ele>
        <time>2024-04-14T09:06:57Z</time>
      </trkpt>
      <trkpt lat="47.9625" lon="-0.56412">
        <ele>85.4</ele>
        <time>2024-04-14T09:06:58Z</time>
      </trkpt>
      <trkpt lat="47.96251" lon="-0.56419">
        <ele>85.4</ele>
        <time>2024-04-14T09:06:59Z</time>
      </trkpt>
      <trkpt lat="47.96253" lon="-0.56426">
        <ele>85.4</ele>
        <time>2024-04-14T09:07:00Z</time>
      </trkpt>
      <trkpt lat="47.96254" lon="-0.56433">
        <ele>85.8</ele>
        <time>2024-04-14T09:07:01Z</time>
      </trkpt>
      <trkpt lat="47.96256" lon="-0.5644">
        <ele>85.8</ele>
        <time>2024-04-14T09:07:02Z</time>
      </trkpt>
      <trkpt lat="47.96257" lon="-0.56447">
        <ele>85.8</ele>
        <time>2024-04-14T09:07:03Z</time>
      </trkpt>
      <trkpt lat="47.96257" lon="-0.56454">
        <ele>85.8</ele>
        <time>2024-04-14T09:07:04Z</time>
      </trkpt>
      <trkpt lat="47.96258" lon="-0.56462">
        <ele>86.2</ele>
        <time>2024-04-14T09:07:05Z</time>
      </trkpt>
      <trkpt lat="47.96258" lon="-0.56468">
        <ele>86.2</ele>
        <time>2024-04-14T09:07:06Z</time>
      </trkpt>
      <trkpt lat="47.96259" lon="-0.56475">
        <ele>86.2</ele>
        <time>2024-04-14T09:07:07Z</time>
      </trkpt>
      <trkpt lat="47.9626" lon="-0.56481">
        <ele>87.2</ele>
        <time>2024-04-14T09:07:08Z</time>
      </trkpt>
      <trkpt lat="47.9626" lon="-0.56487">
        <ele>87.4</ele>
        <time>2024-04-14T09:07:09Z</time>
      </trkpt>
      <trkpt lat="47.96261" lon="-0.56492">
        <ele>87.4</ele>
        <time>2024-04-14T09:07:10Z</time>
      </trkpt>
      <trkpt lat="47.96262" lon="-0.56497">
        <ele>87.4</ele>
        <time>2024-04-14T09:07:11Z</time>
      </trkpt>
      <trkpt lat="47.96263" lon="-0.56501">
        <ele>87.4</ele>
        <time>2024-04-14T09:07:12Z</time>
      </trkpt>
      <trkpt lat="47.96263" lon="-0.56504">
        <ele>87.8</ele>
        <time>2024-04-14T09:07:13Z</time>
      </trkpt>
      <trkpt lat="47.96264" lon="-0.56506">
        <ele>87.8</ele>
        <time>2024-04-14T09:07:14Z</time>
      </trkpt>
      <trkpt lat="47.96264" lon="-0.56507">
        <ele>87.8</ele>
        <time>2024-04-14T09:07:15Z</time>
      </trkpt>
      <trkpt lat="47.96264" lon="-0.56507">
        <ele>88</ele>
        <time>2024-04-14T09:07:16Z</time>
      </trkpt>
      <trkpt lat="47.96264" lon="-0.56514">
        <ele>87.6</ele>
        <time>2024-04-14T09:07:59Z</time>
      </trkpt>
      <trkpt lat="47.96264" lon="-0.56518">
        <ele>87.6</ele>
        <time>2024-04-14T09:08:00Z</time>
      </trkpt>
      <trkpt lat="47.96265" lon="-0.56522">
        <ele>87.6</ele>
        <time>2024-04-14T09:08:01Z</time>
      </trkpt>
      <trkpt lat="47.96266" lon="-0.56527">
        <ele>87.6</ele>
        <time>2024-04-14T09:08:02Z</time>
      </trkpt>
      <trkpt lat="47.96266" lon="-0.56533">
        <ele>87.6</ele>
        <time>2024-04-14T09:08:03Z</time>
      </trkpt>
      <trkpt lat="47.96266" lon="-0.5654">
        <ele>86.8</ele>
        <time>2024-04-14T09:08:04Z</time>
      </trkpt>
      <trkpt lat="47.96267" lon="-0.56547">
        <ele>86.2</ele>
        <time>2024-04-14T09:08:05Z</time>
      </trkpt>
      <trkpt lat="47.96267" lon="-0.56554">
        <ele>86.2</ele>
        <time>2024-04-14T09:08:06Z</time>
      </trkpt>
      <trkpt lat="47.96268" lon="-0.56561">
        <ele>86.2</ele>
        <time>2024-04-14T09:08:07Z</time>
      </trkpt>
      <trkpt lat="47.96268" lon="-0.56569">
        <ele>86.2</ele>
        <time>2024-04-14T09:08:08Z</time>
      </trkpt>
      <trkpt lat="47.96268" lon="-0.56577">
        <ele>85.8</ele>
        <time>2024-04-14T09:08:09Z</time>
      </trkpt>
      <trkpt lat="47.96268" lon="-0.56584">
        <ele>85.8</ele>
        <time>2024-04-14T09:08:10Z</time>
      </trkpt>
      <trkpt lat="47.96268" lon="-0.56593">
        <ele>85.8</ele>
        <time>2024-04-14T09:08:11Z</time>
      </trkpt>
      <trkpt lat="47.96268" lon="-0.566">
        <ele>85.8</ele>
        <time>2024-04-14T09:08:12Z</time>
      </trkpt>
      <trkpt lat="47.96268" lon="-0.56609">
        <ele>86.2</ele>
        <time>2024-04-14T09:08:13Z</time>
      </trkpt>
      <trkpt lat="47.96268" lon="-0.56617">
        <ele>86.2</ele>
        <time>2024-04-14T09:08:14Z</time>
      </trkpt>
      <trkpt lat="47.96268" lon="-0.56625">
        <ele>86.2</ele>
        <time>2024-04-14T09:08:15Z</time>
      </trkpt>
      <trkpt lat="47.96267" lon="-0.56634">
        <ele>85.2</ele>
        <time>2024-04-14T09:08:16Z</time>
      </trkpt>
      <trkpt lat="47.96266" lon="-0.56643">
        <ele>85</ele>
        <time>2024-04-14T09:08:17Z</time>
      </trkpt>
      <trkpt lat="47.96265" lon="-0.56652">
        <ele>85</ele>
        <time>2024-04-14T09:08:18Z</time>
      </trkpt>
      <trkpt lat="47.96264" lon="-0.5666">
        <ele>85</ele>
        <time>2024-04-14T09:08:19Z</time>
      </trkpt>
      <trkpt lat="47.96263" lon="-0.5667">
        <ele>85</ele>
        <time>2024-04-14T09:08:20Z</time>
      </trkpt>
      <trkpt lat="47.96262" lon="-0.56679">
        <ele>85.2</ele>
        <time>2024-04-14T09:08:21Z</time>
      </trkpt>
      <trkpt lat="47.96262" lon="-0.56687">
        <ele>85.2</ele>
        <time>2024-04-14T09:08:22Z</time>
      </trkpt>
      <trkpt lat="47.96261" lon="-0.56696">
        <ele>85.2</ele>
        <time>2024-04-14T09:08:23Z</time>
      </trkpt>
      <trkpt lat="47.9626" lon="-0.56706">
        <ele>84.6</ele>
        <time>2024-04-14T09:08:24Z</time>
      </trkpt>
      <trkpt lat="47.96259" lon="-0.56715">
        <ele>83.8</ele>
        <time>2024-04-14T09:08:25Z</time>
      </trkpt>
      <trkpt lat="47.96258" lon="-0.56724">
        <ele>83.8</ele>
        <time>2024-04-14T09:08:26Z</time>
      </trkpt>
      <trkpt lat="47.96257" lon="-0.56733">
        <ele>83.8</ele>
        <time>2024-04-14T09:08:27Z</time>
      </trkpt>
      <trkpt lat="47.96257" lon="-0.56742">
        <ele>83.8</ele>
        <time>2024-04-14T09:08:28Z</time>
      </trkpt>
      <trkpt lat="47.96258" lon="-0.56752">
        <ele>82.6</ele>
        <time>2024-04-14T09:08:29Z</time>
      </trkpt>
      <trkpt lat="47.96259" lon="-0.56761">
        <ele>82.6</ele>
        <time>2024-04-14T09:08:30Z</time>
      </trkpt>
      <trkpt lat="47.9626" lon="-0.5677">
        <ele>82.6</ele>
        <time>2024-04-14T09:08:31Z</time>
      </trkpt>
      <trkpt lat="47.96261" lon="-0.56779">
        <ele>83</ele>
        <time>2024-04-14T09:08:32Z</time>
      </trkpt>
      <trkpt lat="47.96263" lon="-0.56788">
        <ele>83.4</ele>
        <time>2024-04-14T09:08:33Z</time>
      </trkpt>
      <trkpt lat="47.96264" lon="-0.56797">
        <ele>83.4</ele>
        <time>2024-04-14T09:08:34Z</time>
      </trkpt>
      <trkpt lat="47.96265" lon="-0.56805">
        <ele>83.4</ele>
        <time>2024-04-14T09:08:35Z</time>
      </trkpt>
      <trkpt lat="47.96265" lon="-0.56813">
        <ele>83.4</ele>
        <time>2024-04-14T09:08:36Z</time>
      </trkpt>
      <trkpt lat="47.96264" lon="-0.5682">
        <ele>83.8</ele>
        <time>2024-04-14T09:08:37Z</time>
      </trkpt>
      <trkpt lat="47.96263" lon="-0.56826">
        <ele>83.8</ele>
        <time>2024-04-14T09:08:38Z</time>
      </trkpt>
      <trkpt lat="47.96261" lon="-0.5683">
        <ele>83.8</ele>
        <time>2024-04-14T09:08:39Z</time>
      </trkpt>
      <trkpt lat="47.96257" lon="-0.56832">
        <ele>84.8</ele>
        <time>2024-04-14T09:08:40Z</time>
      </trkpt>
      <trkpt lat="47.96254" lon="-0.56831">
        <ele>85.2</ele>
        <time>2024-04-14T09:08:41Z</time>
      </trkpt>
      <trkpt lat="47.9625" lon="-0.56829">
        <ele>85.2</ele>
        <time>2024-04-14T09:08:42Z</time>
      </trkpt>
      <trkpt lat="47.96245" lon="-0.56826">
        <ele>85.2</ele>
        <time>2024-04-14T09:08:43Z</time>
      </trkpt>
      <trkpt lat="47.96241" lon="-0.56823">
        <ele>85.2</ele>
        <time>2024-04-14T09:08:44Z</time>
      </trkpt>
      <trkpt lat="47.96237" lon="-0.5682">
        <ele>83.8</ele>
        <time>2024-04-14T09:08:45Z</time>
      </trkpt>
      <trkpt lat="47.96233" lon="-0.56816">
        <ele>83.8</ele>
        <time>2024-04-14T09:08:46Z</time>
      </trkpt>
      <trkpt lat="47.96229" lon="-0.56813">
        <ele>83.8</ele>
        <time>2024-04-14T09:08:47Z</time>
      </trkpt>
      <trkpt lat="47.96225" lon="-0.5681">
        <ele>83.8</ele>
        <time>2024-04-14T09:08:48Z</time>
      </trkpt>
      <trkpt lat="47.96222" lon="-0.56808">
        <ele>84.2</ele>
        <time>2024-04-14T09:08:49Z</time>
      </trkpt>
      <trkpt lat="47.96219" lon="-0.56805">
        <ele>84.2</ele>
        <time>2024-04-14T09:08:50Z</time>
      </trkpt>
      <trkpt lat="47.96215" lon="-0.56802">
        <ele>84.2</ele>
        <time>2024-04-14T09:08:51Z</time>
      </trkpt>
      <trkpt lat="47.96211" lon="-0.56798">
        <ele>84.2</ele>
        <time>2024-04-14T09:08:52Z</time>
      </trkpt>
      <trkpt lat="47.96207" lon="-0.56794">
        <ele>84</ele>
        <time>2024-04-14T09:08:53Z</time>
      </trkpt>
      <trkpt lat="47.96203" lon="-0.56792">
        <ele>84</ele>
        <time>2024-04-14T09:08:54Z</time>
      </trkpt>
      <trkpt lat="47.96199" lon="-0.56788">
        <ele>84</ele>
        <time>2024-04-14T09:08:55Z</time>
      </trkpt>
      <trkpt lat="47.96195" lon="-0.56784">
        <ele>83.8</ele>
        <time>2024-04-14T09:08:56Z</time>
      </trkpt>
      <trkpt lat="47.96191" lon="-0.5678">
        <ele>84.8</ele>
        <time>2024-04-14T09:08:57Z</time>
      </trkpt>
      <trkpt lat="47.96188" lon="-0.56776">
        <ele>84.8</ele>
        <time>2024-04-14T09:08:58Z</time>
      </trkpt>
      <trkpt lat="47.96184" lon="-0.56773">
        <ele>84.8</ele>
        <time>2024-04-14T09:08:59Z</time>
      </trkpt>
      <trkpt lat="47.9618" lon="-0.5677">
        <ele>85.8</ele>
        <time>2024-04-14T09:09:00Z</time>
      </trkpt>
      <trkpt lat="47.96177" lon="-0.56766">
        <ele>86</ele>
        <time>2024-04-14T09:09:01Z</time>
      </trkpt>
      <trkpt lat="47.96173" lon="-0.56763">
        <ele>86</ele>
        <time>2024-04-14T09:09:02Z</time>
      </trkpt>
      <trkpt lat="47.9617" lon="-0.56759">
        <ele>86</ele>
        <time>2024-04-14T09:09:03Z</time>
      </trkpt>
      <trkpt lat="47.96166" lon="-0.56756">
        <ele>85</ele>
        <time>2024-04-14T09:09:04Z</time>
      </trkpt>
      <trkpt lat="47.96163" lon="-0.56752">
        <ele>84.4</ele>
        <time>2024-04-14T09:09:05Z</time>
      </trkpt>
      <trkpt lat="47.96159" lon="-0.56748">
        <ele>84.4</ele>
        <time>2024-04-14T09:09:06Z</time>
      </trkpt>
      <trkpt lat="47.96155" lon="-0.56744">
        <ele>84.4</ele>
        <time>2024-04-14T09:09:07Z</time>
      </trkpt>
      <trkpt lat="47.96152" lon="-0.5674">
        <ele>84.4</ele>
        <time>2024-04-14T09:09:08Z</time>
      </trkpt>
      <trkpt lat="47.96148" lon="-0.56737">
        <ele>84.6</ele>
        <time>2024-04-14T09:09:09Z</time>
      </trkpt>
      <trkpt lat="47.96144" lon="-0.56732">
        <ele>84.6</ele>
        <time>2024-04-14T09:09:10Z</time>
      </trkpt>
      <trkpt lat="47.9614" lon="-0.56727">
        <ele>84.6</ele>
        <time>2024-04-14T09:09:11Z</time>
      </trkpt>
      <trkpt lat="47.96136" lon="-0.56723">
        <ele>84.6</ele>
        <time>2024-04-14T09:09:12Z</time>
      </trkpt>
      <trkpt lat="47.96133" lon="-0.56719">
        <ele>85.4</ele>
        <time>2024-04-14T09:09:13Z</time>
      </trkpt>
      <trkpt lat="47.96128" lon="-0.56715">
        <ele>85.4</ele>
        <time>2024-04-14T09:09:14Z</time>
      </trkpt>
      <trkpt lat="47.96125" lon="-0.56711">
        <ele>85.4</ele>
        <time>2024-04-14T09:09:15Z</time>
      </trkpt>
      <trkpt lat="47.96121" lon="-0.56707">
        <ele>86.2</ele>
        <time>2024-04-14T09:09:16Z</time>
      </trkpt>
      <trkpt lat="47.96117" lon="-0.56704">
        <ele>85.6</ele>
        <time>2024-04-14T09:09:17Z</time>
      </trkpt>
      <trkpt lat="47.96112" lon="-0.567">
        <ele>85.6</ele>
        <time>2024-04-14T09:09:18Z</time>
      </trkpt>
      <trkpt lat="47.96108" lon="-0.56695">
        <ele>85.6</ele>
        <time>2024-04-14T09:09:19Z</time>
      </trkpt>
      <trkpt lat="47.96104" lon="-0.56691">
        <ele>85.6</ele>
        <time>2024-04-14T09:09:20Z</time>
      </trkpt>
      <trkpt lat="47.961" lon="-0.56688">
        <ele>86</ele>
        <time>2024-04-14T09:09:21Z</time>
      </trkpt>
      <trkpt lat="47.96096" lon="-0.56684">
        <ele>86</ele>
        <time>2024-04-14T09:09:22Z</time>
      </trkpt>
      <trkpt lat="47.96093" lon="-0.56681">
        <ele>86</ele>
        <time>2024-04-14T09:09:23Z</time>
      </trkpt>
      <trkpt lat="47.96089" lon="-0.56677">
        <ele>86</ele>
        <time>2024-04-14T09:09:24Z</time>
      </trkpt>
      <trkpt lat="47.96086" lon="-0.56674">
        <ele>85.8</ele>
        <time>2024-04-14T09:09:25Z</time>
      </trkpt>
      <trkpt lat="47.96083" lon="-0.5667">
        <ele>85.8</ele>
        <time>2024-04-14T09:09:26Z</time>
      </trkpt>
      <trkpt lat="47.96079" lon="-0.56666">
        <ele>85.8</ele>
        <time>2024-04-14T09:09:27Z</time>
      </trkpt>
      <trkpt lat="47.96076" lon="-0.56661">
        <ele>85.8</ele>
        <time>2024-04-14T09:09:28Z</time>
      </trkpt>
      <trkpt lat="47.96072" lon="-0.56657">
        <ele>86.2</ele>
        <time>2024-04-14T09:09:29Z</time>
      </trkpt>
      <trkpt lat="47.96068" lon="-0.56652">
        <ele>86.2</ele>
        <time>2024-04-14T09:09:30Z</time>
      </trkpt>
      <trkpt lat="47.96064" lon="-0.56647">
        <ele>86.2</ele>
        <time>2024-04-14T09:09:31Z</time>
      </trkpt>
      <trkpt lat="47.96061" lon="-0.56643">
        <ele>86.2</ele>
        <time>2024-04-14T09:09:32Z</time>
      </trkpt>
      <trkpt lat="47.96057" lon="-0.5664">
        <ele>85.8</ele>
        <time>2024-04-14T09:09:33Z</time>
      </trkpt>
      <trkpt lat="47.96055" lon="-0.56637">
        <ele>85.8</ele>
        <time>2024-04-14T09:09:34Z</time>
      </trkpt>
      <trkpt lat="47.96052" lon="-0.56633">
        <ele>85.8</ele>
        <time>2024-04-14T09:09:35Z</time>
      </trkpt>
      <trkpt lat="47.96049" lon="-0.56629">
        <ele>85.8</ele>
        <time>2024-04-14T09:09:36Z</time>
      </trkpt>
      <trkpt lat="47.96046" lon="-0.56625">
        <ele>86.4</ele>
        <time>2024-04-14T09:09:37Z</time>
      </trkpt>
      <trkpt lat="47.96042" lon="-0.56621">
        <ele>86.4</ele>
        <time>2024-04-14T09:09:38Z</time>
      </trkpt>
      <trkpt lat="47.96039" lon="-0.56617">
        <ele>86.4</ele>
        <time>2024-04-14T09:09:39Z</time>
      </trkpt>
      <trkpt lat="47.96036" lon="-0.56614">
        <ele>86.4</ele>
        <time>2024-04-14T09:09:40Z</time>
      </trkpt>
      <trkpt lat="47.96033" lon="-0.5661">
        <ele>87</ele>
        <time>2024-04-14T09:09:41Z</time>
      </trkpt>
      <trkpt lat="47.9603" lon="-0.56607">
        <ele>87</ele>
        <time>2024-04-14T09:09:42Z</time>
      </trkpt>
      <trkpt lat="47.96027" lon="-0.56604">
        <ele>87</ele>
        <time>2024-04-14T09:09:43Z</time>
      </trkpt>
      <trkpt lat="47.96024" lon="-0.566">
        <ele>86</ele>
        <time>2024-04-14T09:09:44Z</time>
      </trkpt>
      <trkpt lat="47.9602" lon="-0.56597">
        <ele>85.8</ele>
        <time>2024-04-14T09:09:45Z</time>
      </trkpt>
      <trkpt lat="47.96017" lon="-0.56594">
        <ele>85.8</ele>
        <time>2024-04-14T09:09:46Z</time>
      </trkpt>
      <trkpt lat="47.96014" lon="-0.56592">
        <ele>85.8</ele>
        <time>2024-04-14T09:09:47Z</time>
      </trkpt>
      <trkpt lat="47.9601" lon="-0.56589">
        <ele>85.8</ele>
        <time>2024-04-14T09:09:48Z</time>
      </trkpt>
      <trkpt lat="47.96007" lon="-0.56586">
        <ele>85.8</ele>
        <time>2024-04-14T09:09:49Z</time>
      </trkpt>
      <trkpt lat="47.96005" lon="-0.56584">
        <ele>85.8</ele>
        <time>2024-04-14T09:09:50Z</time>
      </trkpt>
      <trkpt lat="47.96001" lon="-0.56581">
        <ele>85.8</ele>
        <time>2024-04-14T09:09:51Z</time>
      </trkpt>
      <trkpt lat="47.95998" lon="-0.56577">
        <ele>85.8</ele>
        <time>2024-04-14T09:09:52Z</time>
      </trkpt>
      <trkpt lat="47.95995" lon="-0.56574">
        <ele>88</ele>
        <time>2024-04-14T09:09:53Z</time>
      </trkpt>
      <trkpt lat="47.95991" lon="-0.56572">
        <ele>88</ele>
        <time>2024-04-14T09:09:54Z</time>
      </trkpt>
      <trkpt lat="47.95987" lon="-0.56569">
        <ele>88</ele>
        <time>2024-04-14T09:09:55Z</time>
      </trkpt>
      <trkpt lat="47.95984" lon="-0.56566">
        <ele>87</ele>
        <time>2024-04-14T09:09:56Z</time>
      </trkpt>
      <trkpt lat="47.9598" lon="-0.56563">
        <ele>86</ele>
        <time>2024-04-14T09:09:57Z</time>
      </trkpt>
      <trkpt lat="47.95976" lon="-0.5656">
        <ele>86</ele>
        <time>2024-04-14T09:09:58Z</time>
      </trkpt>
      <trkpt lat="47.95972" lon="-0.56558">
        <ele>86</ele>
        <time>2024-04-14T09:09:59Z</time>
      </trkpt>
      <trkpt lat="47.95968" lon="-0.56554">
        <ele>86</ele>
        <time>2024-04-14T09:10:00Z</time>
      </trkpt>
      <trkpt lat="47.95964" lon="-0.56551">
        <ele>87</ele>
        <time>2024-04-14T09:10:01Z</time>
      </trkpt>
      <trkpt lat="47.9596" lon="-0.56549">
        <ele>87</ele>
        <time>2024-04-14T09:10:02Z</time>
      </trkpt>
      <trkpt lat="47.95956" lon="-0.56545">
        <ele>87</ele>
        <time>2024-04-14T09:10:03Z</time>
      </trkpt>
      <trkpt lat="47.95953" lon="-0.56542">
        <ele>86.4</ele>
        <time>2024-04-14T09:10:04Z</time>
      </trkpt>
      <trkpt lat="47.95949" lon="-0.56539">
        <ele>86.8</ele>
        <time>2024-04-14T09:10:05Z</time>
      </trkpt>
      <trkpt lat="47.95945" lon="-0.56535">
        <ele>86.8</ele>
        <time>2024-04-14T09:10:06Z</time>
      </trkpt>
      <trkpt lat="47.95941" lon="-0.56531">
        <ele>86.8</ele>
        <time>2024-04-14T09:10:07Z</time>
      </trkpt>
      <trkpt lat="47.95938" lon="-0.56527">
        <ele>86.8</ele>
        <time>2024-04-14T09:10:08Z</time>
      </trkpt>
      <trkpt lat="47.95935" lon="-0.56524">
        <ele>85.2</ele>
        <time>2024-04-14T09:10:09Z</time>
      </trkpt>
      <trkpt lat="47.95932" lon="-0.5652">
        <ele>85.2</ele>
        <time>2024-04-14T09:10:10Z</time>
      </trkpt>
      <trkpt lat="47.95929" lon="-0.56516">
        <ele>85.2</ele>
        <time>2024-04-14T09:10:11Z</time>
      </trkpt>
      <trkpt lat="47.95926" lon="-0.56513">
        <ele>86.2</ele>
        <time>2024-04-14T09:10:12Z</time>
      </trkpt>
      <trkpt lat="47.95923" lon="-0.56509">
        <ele>87.8</ele>
        <time>2024-04-14T09:10:13Z</time>
      </trkpt>
      <trkpt lat="47.95921" lon="-0.56506">
        <ele>87.8</ele>
        <time>2024-04-14T09:10:14Z</time>
      </trkpt>
      <trkpt lat="47.95918" lon="-0.56502">
        <ele>87.8</ele>
        <time>2024-04-14T09:10:15Z</time>
      </trkpt>
      <trkpt lat="47.95915" lon="-0.56499">
        <ele>87.8</ele>
        <time>2024-04-14T09:10:16Z</time>
      </trkpt>
      <trkpt lat="47.95912" lon="-0.56496">
        <ele>87.6</ele>
        <time>2024-04-14T09:10:17Z</time>
      </trkpt>
      <trkpt lat="47.95908" lon="-0.56493">
        <ele>87.6</ele>
        <time>2024-04-14T09:10:18Z</time>
      </trkpt>
      <trkpt lat="47.95904" lon="-0.56489">
        <ele>87.6</ele>
        <time>2024-04-14T09:10:19Z</time>
      </trkpt>
      <trkpt lat="47.95901" lon="-0.56486">
        <ele>86.6</ele>
        <time>2024-04-14T09:10:20Z</time>
      </trkpt>
      <trkpt lat="47.95897" lon="-0.56482">
        <ele>87.2</ele>
        <time>2024-04-14T09:10:21Z</time>
      </trkpt>
      <trkpt lat="47.95894" lon="-0.56479">
        <ele>87.2</ele>
        <time>2024-04-14T09:10:22Z</time>
      </trkpt>
      <trkpt lat="47.95891" lon="-0.56476">
        <ele>87.2</ele>
        <time>2024-04-14T09:10:23Z</time>
      </trkpt>
      <trkpt lat="47.95888" lon="-0.56474">
        <ele>87.2</ele>
        <time>2024-04-14T09:10:24Z</time>
      </trkpt>
      <trkpt lat="47.95885" lon="-0.56472">
        <ele>85.8</ele>
        <time>2024-04-14T09:10:25Z</time>
      </trkpt>
      <trkpt lat="47.95882" lon="-0.56469">
        <ele>85.8</ele>
        <time>2024-04-14T09:10:26Z</time>
      </trkpt>
      <trkpt lat="47.95878" lon="-0.56467">
        <ele>85.8</ele>
        <time>2024-04-14T09:10:27Z</time>
      </trkpt>
      <trkpt lat="47.95875" lon="-0.56464">
        <ele>86.8</ele>
        <time>2024-04-14T09:10:28Z</time>
      </trkpt>
      <trkpt lat="47.95872" lon="-0.56462">
        <ele>87.4</ele>
        <time>2024-04-14T09:10:29Z</time>
      </trkpt>
      <trkpt lat="47.95868" lon="-0.56459">
        <ele>87.4</ele>
        <time>2024-04-14T09:10:30Z</time>
      </trkpt>
      <trkpt lat="47.95865" lon="-0.56457">
        <ele>87.4</ele>
        <time>2024-04-14T09:10:31Z</time>
      </trkpt>
      <trkpt lat="47.95862" lon="-0.56455">
        <ele>87.4</ele>
        <time>2024-04-14T09:10:32Z</time>
      </trkpt>
      <trkpt lat="47.95859" lon="-0.56455">
        <ele>88.2</ele>
        <time>2024-04-14T09:10:33Z</time>
      </trkpt>
      <trkpt lat="47.95856" lon="-0.56454">
        <ele>88.2</ele>
        <time>2024-04-14T09:10:34Z</time>
      </trkpt>
      <trkpt lat="47.95853" lon="-0.56452">
        <ele>88.2</ele>
        <time>2024-04-14T09:10:35Z</time>
      </trkpt>
      <trkpt lat="47.95849" lon="-0.5645">
        <ele>88.2</ele>
        <time>2024-04-14T09:10:36Z</time>
      </trkpt>
      <trkpt lat="47.95846" lon="-0.56448">
        <ele>88.2</ele>
        <time>2024-04-14T09:10:37Z</time>
      </trkpt>
      <trkpt lat="47.95843" lon="-0.56447">
        <ele>88.2</ele>
        <time>2024-04-14T09:10:38Z</time>
      </trkpt>
      <trkpt lat="47.95839" lon="-0.56445">
        <ele>88.2</ele>
        <time>2024-04-14T09:10:39Z</time>
      </trkpt>
      <trkpt lat="47.95836" lon="-0.56444">
        <ele>88.2</ele>
        <time>2024-04-14T09:10:40Z</time>
      </trkpt>
      <trkpt lat="47.95833" lon="-0.56442">
        <ele>87.6</ele>
        <time>2024-04-14T09:10:41Z</time>
      </trkpt>
      <trkpt lat="47.95831" lon="-0.56441">
        <ele>87.6</ele>
        <time>2024-04-14T09:10:42Z</time>
      </trkpt>
      <trkpt lat="47.95829" lon="-0.5644">
        <ele>87.6</ele>
        <time>2024-04-14T09:10:43Z</time>
      </trkpt>
      <trkpt lat="47.95827" lon="-0.56437">
        <ele>88.2</ele>
        <time>2024-04-14T09:10:44Z</time>
      </trkpt>
      <trkpt lat="47.95825" lon="-0.56434">
        <ele>88.6</ele>
        <time>2024-04-14T09:10:45Z</time>
      </trkpt>
      <trkpt lat="47.95823" lon="-0.56432">
        <ele>88.6</ele>
        <time>2024-04-14T09:10:46Z</time>
      </trkpt>
      <trkpt lat="47.9582" lon="-0.56429">
        <ele>88.6</ele>
        <time>2024-04-14T09:10:47Z</time>
      </trkpt>
      <trkpt lat="47.95818" lon="-0.56426">
        <ele>88.6</ele>
        <time>2024-04-14T09:10:48Z</time>
      </trkpt>
      <trkpt lat="47.95814" lon="-0.56424">
        <ele>89.2</ele>
        <time>2024-04-14T09:10:49Z</time>
      </trkpt>
      <trkpt lat="47.95811" lon="-0.5642">
        <ele>89.2</ele>
        <time>2024-04-14T09:10:50Z</time>
      </trkpt>
      <trkpt lat="47.95808" lon="-0.56417">
        <ele>89.2</ele>
        <time>2024-04-14T09:10:51Z</time>
      </trkpt>
      <trkpt lat="47.95805" lon="-0.56416">
        <ele>89.2</ele>
        <time>2024-04-14T09:10:52Z</time>
      </trkpt>
      <trkpt lat="47.95801" lon="-0.56413">
        <ele>90</ele>
        <time>2024-04-14T09:10:53Z</time>
      </trkpt>
      <trkpt lat="47.95797" lon="-0.56411">
        <ele>90</ele>
        <time>2024-04-14T09:10:54Z</time>
      </trkpt>
      <trkpt lat="47.95793" lon="-0.56408">
        <ele>90</ele>
        <time>2024-04-14T09:10:55Z</time>
      </trkpt>
      <trkpt lat="47.9579" lon="-0.56406">
        <ele>89</ele>
        <time>2024-04-14T09:10:56Z</time>
      </trkpt>
      <trkpt lat="47.95785" lon="-0.56404">
        <ele>88.6</ele>
        <time>2024-04-14T09:10:57Z</time>
      </trkpt>
      <trkpt lat="47.95781" lon="-0.56401">
        <ele>88.6</ele>
        <time>2024-04-14T09:10:58Z</time>
      </trkpt>
      <trkpt lat="47.95776" lon="-0.56399">
        <ele>88.6</ele>
        <time>2024-04-14T09:10:59Z</time>
      </trkpt>
      <trkpt lat="47.95772" lon="-0.56397">
        <ele>88.6</ele>
        <time>2024-04-14T09:11:00Z</time>
      </trkpt>
      <trkpt lat="47.95769" lon="-0.56396">
        <ele>88.6</ele>
        <time>2024-04-14T09:11:01Z</time>
      </trkpt>
      <trkpt lat="47.95765" lon="-0.56395">
        <ele>88.6</ele>
        <time>2024-04-14T09:11:02Z</time>
      </trkpt>
      <trkpt lat="47.95762" lon="-0.56394">
        <ele>88.6</ele>
        <time>2024-04-14T09:11:03Z</time>
      </trkpt>
      <trkpt lat="47.95758" lon="-0.56392">
        <ele>88.6</ele>
        <time>2024-04-14T09:11:04Z</time>
      </trkpt>
      <trkpt lat="47.95754" lon="-0.5639">
        <ele>87.8</ele>
        <time>2024-04-14T09:11:05Z</time>
      </trkpt>
      <trkpt lat="47.9575" lon="-0.56387">
        <ele>87.8</ele>
        <time>2024-04-14T09:11:06Z</time>
      </trkpt>
      <trkpt lat="47.95747" lon="-0.56385">
        <ele>87.8</ele>
        <time>2024-04-14T09:11:07Z</time>
      </trkpt>
      <trkpt lat="47.95743" lon="-0.56383">
        <ele>88.6</ele>
        <time>2024-04-14T09:11:08Z</time>
      </trkpt>
      <trkpt lat="47.95739" lon="-0.56382">
        <ele>88.6</ele>
        <time>2024-04-14T09:11:09Z</time>
      </trkpt>
      <trkpt lat="47.95735" lon="-0.5638">
        <ele>88.6</ele>
        <time>2024-04-14T09:11:10Z</time>
      </trkpt>
      <trkpt lat="47.95732" lon="-0.56378">
        <ele>88.6</ele>
        <time>2024-04-14T09:11:11Z</time>
      </trkpt>
      <trkpt lat="47.95727" lon="-0.56375">
        <ele>88.6</ele>
        <time>2024-04-14T09:11:12Z</time>
      </trkpt>
      <trkpt lat="47.95723" lon="-0.56373">
        <ele>88.8</ele>
        <time>2024-04-14T09:11:13Z</time>
      </trkpt>
      <trkpt lat="47.95718" lon="-0.5637">
        <ele>88.8</ele>
        <time>2024-04-14T09:11:14Z</time>
      </trkpt>
      <trkpt lat="47.95713" lon="-0.56367">
        <ele>88.8</ele>
        <time>2024-04-14T09:11:15Z</time>
      </trkpt>
      <trkpt lat="47.95708" lon="-0.56364">
        <ele>88.8</ele>
        <time>2024-04-14T09:11:16Z</time>
      </trkpt>
      <trkpt lat="47.95704" lon="-0.56361">
        <ele>88.6</ele>
        <time>2024-04-14T09:11:17Z</time>
      </trkpt>
      <trkpt lat="47.957" lon="-0.56357">
        <ele>88.6</ele>
        <time>2024-04-14T09:11:18Z</time>
      </trkpt>
      <trkpt lat="47.95697" lon="-0.56354">
        <ele>88.6</ele>
        <time>2024-04-14T09:11:19Z</time>
      </trkpt>
      <trkpt lat="47.95694" lon="-0.56352">
        <ele>89.6</ele>
        <time>2024-04-14T09:11:20Z</time>
      </trkpt>
      <trkpt lat="47.95692" lon="-0.5635">
        <ele>89.6</ele>
        <time>2024-04-14T09:11:21Z</time>
      </trkpt>
      <trkpt lat="47.95689" lon="-0.56348">
        <ele>89.6</ele>
        <time>2024-04-14T09:11:22Z</time>
      </trkpt>
      <trkpt lat="47.95686" lon="-0.56346">
        <ele>89.6</ele>
        <time>2024-04-14T09:11:23Z</time>
      </trkpt>
      <trkpt lat="47.95683" lon="-0.56344">
        <ele>90.6</ele>
        <time>2024-04-14T09:11:24Z</time>
      </trkpt>
      <trkpt lat="47.9568" lon="-0.56342">
        <ele>90.8</ele>
        <time>2024-04-14T09:11:25Z</time>
      </trkpt>
      <trkpt lat="47.95676" lon="-0.5634">
        <ele>90.8</ele>
        <time>2024-04-14T09:11:26Z</time>
      </trkpt>
      <trkpt lat="47.95673" lon="-0.5634">
        <ele>90.8</ele>
        <time>2024-04-14T09:11:27Z</time>
      </trkpt>
      <trkpt lat="47.95669" lon="-0.56339">
        <ele>91.8</ele>
        <time>2024-04-14T09:11:28Z</time>
      </trkpt>
      <trkpt lat="47.95666" lon="-0.56339">
        <ele>92.2</ele>
        <time>2024-04-14T09:11:29Z</time>
      </trkpt>
      <trkpt lat="47.95662" lon="-0.56338">
        <ele>92.2</ele>
        <time>2024-04-14T09:11:30Z</time>
      </trkpt>
      <trkpt lat="47.95657" lon="-0.56335">
        <ele>92.2</ele>
        <time>2024-04-14T09:11:31Z</time>
      </trkpt>
      <trkpt lat="47.95653" lon="-0.56334">
        <ele>93.2</ele>
        <time>2024-04-14T09:11:32Z</time>
      </trkpt>
      <trkpt lat="47.9565" lon="-0.56333">
        <ele>93.8</ele>
        <time>2024-04-14T09:11:33Z</time>
      </trkpt>
      <trkpt lat="47.95646" lon="-0.56332">
        <ele>93.8</ele>
        <time>2024-04-14T09:11:34Z</time>
      </trkpt>
      <trkpt lat="47.95642" lon="-0.56331">
        <ele>93.8</ele>
        <time>2024-04-14T09:11:35Z</time>
      </trkpt>
      <trkpt lat="47.95638" lon="-0.5633">
        <ele>93.8</ele>
        <time>2024-04-14T09:11:36Z</time>
      </trkpt>
      <trkpt lat="47.95634" lon="-0.5633">
        <ele>95.6</ele>
        <time>2024-04-14T09:11:37Z</time>
      </trkpt>
      <trkpt lat="47.9563" lon="-0.56331">
        <ele>95.6</ele>
        <time>2024-04-14T09:11:38Z</time>
      </trkpt>
      <trkpt lat="47.95625" lon="-0.56332">
        <ele>95.6</ele>
        <time>2024-04-14T09:11:39Z</time>
      </trkpt>
      <trkpt lat="47.95621" lon="-0.56333">
        <ele>94.6</ele>
        <time>2024-04-14T09:11:40Z</time>
      </trkpt>
      <trkpt lat="47.95616" lon="-0.56335">
        <ele>94</ele>
        <time>2024-04-14T09:11:41Z</time>
      </trkpt>
      <trkpt lat="47.95613" lon="-0.56338">
        <ele>94</ele>
        <time>2024-04-14T09:11:42Z</time>
      </trkpt>
      <trkpt lat="47.95608" lon="-0.5634">
        <ele>94</ele>
        <time>2024-04-14T09:11:43Z</time>
      </trkpt>
      <trkpt lat="47.95605" lon="-0.56341">
        <ele>95</ele>
        <time>2024-04-14T09:11:44Z</time>
      </trkpt>
      <trkpt lat="47.95601" lon="-0.56342">
        <ele>95.6</ele>
        <time>2024-04-14T09:11:45Z</time>
      </trkpt>
      <trkpt lat="47.95598" lon="-0.56344">
        <ele>95.6</ele>
        <time>2024-04-14T09:11:46Z</time>
      </trkpt>
      <trkpt lat="47.95594" lon="-0.56345">
        <ele>95.6</ele>
        <time>2024-04-14T09:11:47Z</time>
      </trkpt>
      <trkpt lat="47.9559" lon="-0.56346">
        <ele>95.6</ele>
        <time>2024-04-14T09:11:48Z</time>
      </trkpt>
      <trkpt lat="47.95586" lon="-0.56347">
        <ele>95.6</ele>
        <time>2024-04-14T09:11:49Z</time>
      </trkpt>
      <trkpt lat="47.95583" lon="-0.56348">
        <ele>95.6</ele>
        <time>2024-04-14T09:11:50Z</time>
      </trkpt>
      <trkpt lat="47.9558" lon="-0.5635">
        <ele>95.6</ele>
        <time>2024-04-14T09:11:51Z</time>
      </trkpt>
      <trkpt lat="47.95578" lon="-0.56351">
        <ele>96.6</ele>
        <time>2024-04-14T09:11:52Z</time>
      </trkpt>
      <trkpt lat="47.95576" lon="-0.56353">
        <ele>96.6</ele>
        <time>2024-04-14T09:11:53Z</time>
      </trkpt>
      <trkpt lat="47.95575" lon="-0.56355">
        <ele>96.6</ele>
        <time>2024-04-14T09:11:54Z</time>
      </trkpt>
      <trkpt lat="47.95576" lon="-0.56358">
        <ele>96.6</ele>
        <time>2024-04-14T09:11:55Z</time>
      </trkpt>
      <trkpt lat="47.95577" lon="-0.56362">
        <ele>96.6</ele>
        <time>2024-04-14T09:11:56Z</time>
      </trkpt>
      <trkpt lat="47.9558" lon="-0.56365">
        <ele>95.8</ele>
        <time>2024-04-14T09:11:57Z</time>
      </trkpt>
      <trkpt lat="47.95582" lon="-0.5637">
        <ele>95.8</ele>
        <time>2024-04-14T09:11:58Z</time>
      </trkpt>
      <trkpt lat="47.95584" lon="-0.56375">
        <ele>95.8</ele>
        <time>2024-04-14T09:11:59Z</time>
      </trkpt>
      <trkpt lat="47.95587" lon="-0.56381">
        <ele>94.8</ele>
        <time>2024-04-14T09:12:00Z</time>
      </trkpt>
      <trkpt lat="47.95588" lon="-0.56387">
        <ele>94</ele>
        <time>2024-04-14T09:12:01Z</time>
      </trkpt>
      <trkpt lat="47.95588" lon="-0.56394">
        <ele>94</ele>
        <time>2024-04-14T09:12:02Z</time>
      </trkpt>
      <trkpt lat="47.95586" lon="-0.56401">
        <ele>94</ele>
        <time>2024-04-14T09:12:03Z</time>
      </trkpt>
      <trkpt lat="47.95583" lon="-0.56406">
        <ele>94.8</ele>
        <time>2024-04-14T09:12:04Z</time>
      </trkpt>
      <trkpt lat="47.95579" lon="-0.56409">
        <ele>96.8</ele>
        <time>2024-04-14T09:12:05Z</time>
      </trkpt>
      <trkpt lat="47.95574" lon="-0.5641">
        <ele>96.8</ele>
        <time>2024-04-14T09:12:06Z</time>
      </trkpt>
      <trkpt lat="47.9557" lon="-0.56412">
        <ele>96.8</ele>
        <time>2024-04-14T09:12:07Z</time>
      </trkpt>
      <trkpt lat="47.95565" lon="-0.56413">
        <ele>96.8</ele>
        <time>2024-04-14T09:12:08Z</time>
      </trkpt>
      <trkpt lat="47.9556" lon="-0.56414">
        <ele>96.8</ele>
        <time>2024-04-14T09:12:09Z</time>
      </trkpt>
      <trkpt lat="47.95556" lon="-0.56415">
        <ele>96.8</ele>
        <time>2024-04-14T09:12:10Z</time>
      </trkpt>
      <trkpt lat="47.95551" lon="-0.56417">
        <ele>96.8</ele>
        <time>2024-04-14T09:12:11Z</time>
      </trkpt>
      <trkpt lat="47.95546" lon="-0.56418">
        <ele>96.2</ele>
        <time>2024-04-14T09:12:12Z</time>
      </trkpt>
      <trkpt lat="47.95541" lon="-0.5642">
        <ele>95.8</ele>
        <time>2024-04-14T09:12:13Z</time>
      </trkpt>
      <trkpt lat="47.95536" lon="-0.56422">
        <ele>95.8</ele>
        <time>2024-04-14T09:12:14Z</time>
      </trkpt>
      <trkpt lat="47.95531" lon="-0.56425">
        <ele>95.8</ele>
        <time>2024-04-14T09:12:15Z</time>
      </trkpt>
      <trkpt lat="47.95526" lon="-0.56427">
        <ele>95.8</ele>
        <time>2024-04-14T09:12:16Z</time>
      </trkpt>
      <trkpt lat="47.95521" lon="-0.56429">
        <ele>95.2</ele>
        <time>2024-04-14T09:12:17Z</time>
      </trkpt>
      <trkpt lat="47.95516" lon="-0.5643">
        <ele>95.2</ele>
        <time>2024-04-14T09:12:18Z</time>
      </trkpt>
      <trkpt lat="47.9551" lon="-0.56432">
        <ele>95.2</ele>
        <time>2024-04-14T09:12:19Z</time>
      </trkpt>
      <trkpt lat="47.95505" lon="-0.56433">
        <ele>95.2</ele>
        <time>2024-04-14T09:12:20Z</time>
      </trkpt>
      <trkpt lat="47.95499" lon="-0.56435">
        <ele>95.2</ele>
        <time>2024-04-14T09:12:21Z</time>
      </trkpt>
      <trkpt lat="47.95493" lon="-0.56437">
        <ele>95.2</ele>
        <time>2024-04-14T09:12:22Z</time>
      </trkpt>
      <trkpt lat="47.95487" lon="-0.56439">
        <ele>95.2</ele>
        <time>2024-04-14T09:12:23Z</time>
      </trkpt>
      <trkpt lat="47.95481" lon="-0.56441">
        <ele>94.2</ele>
        <time>2024-04-14T09:12:24Z</time>
      </trkpt>
      <trkpt lat="47.95475" lon="-0.56443">
        <ele>94</ele>
        <time>2024-04-14T09:12:25Z</time>
      </trkpt>
      <trkpt lat="47.95469" lon="-0.56446">
        <ele>94</ele>
        <time>2024-04-14T09:12:26Z</time>
      </trkpt>
      <trkpt lat="47.95464" lon="-0.56448">
        <ele>94</ele>
        <time>2024-04-14T09:12:27Z</time>
      </trkpt>
      <trkpt lat="47.9546" lon="-0.5645">
        <ele>94</ele>
        <time>2024-04-14T09:12:28Z</time>
      </trkpt>
      <trkpt lat="47.95457" lon="-0.56453">
        <ele>92.4</ele>
        <time>2024-04-14T09:12:29Z</time>
      </trkpt>
      <trkpt lat="47.95454" lon="-0.56454">
        <ele>92.4</ele>
        <time>2024-04-14T09:12:30Z</time>
      </trkpt>
      <trkpt lat="47.9545" lon="-0.56457">
        <ele>92.4</ele>
        <time>2024-04-14T09:12:31Z</time>
      </trkpt>
      <trkpt lat="47.95446" lon="-0.56459">
        <ele>92.4</ele>
        <time>2024-04-14T09:12:32Z</time>
      </trkpt>
      <trkpt lat="47.95441" lon="-0.56461">
        <ele>92.6</ele>
        <time>2024-04-14T09:12:33Z</time>
      </trkpt>
      <trkpt lat="47.95436" lon="-0.56464">
        <ele>92.6</ele>
        <time>2024-04-14T09:12:34Z</time>
      </trkpt>
      <trkpt lat="47.95429" lon="-0.56466">
        <ele>92.6</ele>
        <time>2024-04-14T09:12:35Z</time>
      </trkpt>
      <trkpt lat="47.95424" lon="-0.56468">
        <ele>92.6</ele>
        <time>2024-04-14T09:12:36Z</time>
      </trkpt>
      <trkpt lat="47.95418" lon="-0.56471">
        <ele>91.8</ele>
        <time>2024-04-14T09:12:37Z</time>
      </trkpt>
      <trkpt lat="47.95411" lon="-0.56472">
        <ele>91.8</ele>
        <time>2024-04-14T09:12:38Z</time>
      </trkpt>
      <trkpt lat="47.95405" lon="-0.56475">
        <ele>91.8</ele>
        <time>2024-04-14T09:12:39Z</time>
      </trkpt>
      <trkpt lat="47.95399" lon="-0.56476">
        <ele>91.8</ele>
        <time>2024-04-14T09:12:40Z</time>
      </trkpt>
      <trkpt lat="47.95393" lon="-0.56478">
        <ele>91.4</ele>
        <time>2024-04-14T09:12:41Z</time>
      </trkpt>
      <trkpt lat="47.95386" lon="-0.5648">
        <ele>91.4</ele>
        <time>2024-04-14T09:12:42Z</time>
      </trkpt>
      <trkpt lat="47.9538" lon="-0.56481">
        <ele>91.4</ele>
        <time>2024-04-14T09:12:43Z</time>
      </trkpt>
      <trkpt lat="47.95373" lon="-0.56481">
        <ele>91.4</ele>
        <time>2024-04-14T09:12:44Z</time>
      </trkpt>
      <trkpt lat="47.95367" lon="-0.56481">
        <ele>90.6</ele>
        <time>2024-04-14T09:12:45Z</time>
      </trkpt>
      <trkpt lat="47.95361" lon="-0.56482">
        <ele>90.6</ele>
        <time>2024-04-14T09:12:46Z</time>
      </trkpt>
      <trkpt lat="47.95354" lon="-0.56483">
        <ele>90.6</ele>
        <time>2024-04-14T09:12:47Z</time>
      </trkpt>
      <trkpt lat="47.95348" lon="-0.56484">
        <ele>90</ele>
        <time>2024-04-14T09:12:48Z</time>
      </trkpt>
      <trkpt lat="47.95342" lon="-0.56484">
        <ele>91</ele>
        <time>2024-04-14T09:12:49Z</time>
      </trkpt>
      <trkpt lat="47.95336" lon="-0.56485">
        <ele>91</ele>
        <time>2024-04-14T09:12:50Z</time>
      </trkpt>
      <trkpt lat="47.9533" lon="-0.56486">
        <ele>91</ele>
        <time>2024-04-14T09:12:51Z</time>
      </trkpt>
      <trkpt lat="47.95323" lon="-0.56487">
        <ele>90.2</ele>
        <time>2024-04-14T09:12:52Z</time>
      </trkpt>
      <trkpt lat="47.95317" lon="-0.56488">
        <ele>87.8</ele>
        <time>2024-04-14T09:12:53Z</time>
      </trkpt>
      <trkpt lat="47.9531" lon="-0.56488">
        <ele>87.8</ele>
        <time>2024-04-14T09:12:54Z</time>
      </trkpt>
      <trkpt lat="47.95304" lon="-0.56489">
        <ele>87.8</ele>
        <time>2024-04-14T09:12:55Z</time>
      </trkpt>
      <trkpt lat="47.95299" lon="-0.56489">
        <ele>87.8</ele>
        <time>2024-04-14T09:12:56Z</time>
      </trkpt>
      <trkpt lat="47.95293" lon="-0.5649">
        <ele>87.2</ele>
        <time>2024-04-14T09:12:57Z</time>
      </trkpt>
      <trkpt lat="47.95286" lon="-0.56491">
        <ele>87.2</ele>
        <time>2024-04-14T09:12:58Z</time>
      </trkpt>
      <trkpt lat="47.9528" lon="-0.56493">
        <ele>87.2</ele>
        <time>2024-04-14T09:12:59Z</time>
      </trkpt>
      <trkpt lat="47.95275" lon="-0.56495">
        <ele>87.2</ele>
        <time>2024-04-14T09:13:00Z</time>
      </trkpt>
      <trkpt lat="47.95269" lon="-0.56498">
        <ele>87.8</ele>
        <time>2024-04-14T09:13:01Z</time>
      </trkpt>
      <trkpt lat="47.95263" lon="-0.56501">
        <ele>87.8</ele>
        <time>2024-04-14T09:13:02Z</time>
      </trkpt>
      <trkpt lat="47.95258" lon="-0.56504">
        <ele>87.8</ele>
        <time>2024-04-14T09:13:03Z</time>
      </trkpt>
      <trkpt lat="47.95252" lon="-0.56508">
        <ele>87.4</ele>
        <time>2024-04-14T09:13:04Z</time>
      </trkpt>
      <trkpt lat="47.95246" lon="-0.56512">
        <ele>86.2</ele>
        <time>2024-04-14T09:13:05Z</time>
      </trkpt>
      <trkpt lat="47.95241" lon="-0.56515">
        <ele>86.2</ele>
        <time>2024-04-14T09:13:06Z</time>
      </trkpt>
      <trkpt lat="47.95236" lon="-0.56519">
        <ele>86.2</ele>
        <time>2024-04-14T09:13:07Z</time>
      </trkpt>
      <trkpt lat="47.9523" lon="-0.56523">
        <ele>86.2</ele>
        <time>2024-04-14T09:13:08Z</time>
      </trkpt>
      <trkpt lat="47.95224" lon="-0.56527">
        <ele>85.4</ele>
        <time>2024-04-14T09:13:09Z</time>
      </trkpt>
      <trkpt lat="47.95219" lon="-0.56531">
        <ele>85.4</ele>
        <time>2024-04-14T09:13:10Z</time>
      </trkpt>
      <trkpt lat="47.95213" lon="-0.56536">
        <ele>85.4</ele>
        <time>2024-04-14T09:13:11Z</time>
      </trkpt>
      <trkpt lat="47.95208" lon="-0.56539">
        <ele>85.4</ele>
        <time>2024-04-14T09:13:12Z</time>
      </trkpt>
      <trkpt lat="47.95203" lon="-0.56544">
        <ele>84.8</ele>
        <time>2024-04-14T09:13:13Z</time>
      </trkpt>
      <trkpt lat="47.95198" lon="-0.56548">
        <ele>84.8</ele>
        <time>2024-04-14T09:13:14Z</time>
      </trkpt>
      <trkpt lat="47.95193" lon="-0.56551">
        <ele>84.8</ele>
        <time>2024-04-14T09:13:15Z</time>
      </trkpt>
      <trkpt lat="47.95188" lon="-0.56555">
        <ele>85.6</ele>
        <time>2024-04-14T09:13:16Z</time>
      </trkpt>
      <trkpt lat="47.95183" lon="-0.56558">
        <ele>85.6</ele>
        <time>2024-04-14T09:13:17Z</time>
      </trkpt>
      <trkpt lat="47.95178" lon="-0.56562">
        <ele>85.6</ele>
        <time>2024-04-14T09:13:18Z</time>
      </trkpt>
      <trkpt lat="47.95173" lon="-0.56566">
        <ele>85.6</ele>
        <time>2024-04-14T09:13:19Z</time>
      </trkpt>
      <trkpt lat="47.95168" lon="-0.56569">
        <ele>85.4</ele>
        <time>2024-04-14T09:13:20Z</time>
      </trkpt>
      <trkpt lat="47.95162" lon="-0.56572">
        <ele>85.2</ele>
        <time>2024-04-14T09:13:21Z</time>
      </trkpt>
      <trkpt lat="47.95156" lon="-0.56576">
        <ele>85.2</ele>
        <time>2024-04-14T09:13:22Z</time>
      </trkpt>
      <trkpt lat="47.95151" lon="-0.56579">
        <ele>85.2</ele>
        <time>2024-04-14T09:13:23Z</time>
      </trkpt>
      <trkpt lat="47.95145" lon="-0.56583">
        <ele>85.2</ele>
        <time>2024-04-14T09:13:24Z</time>
      </trkpt>
      <trkpt lat="47.9514" lon="-0.56586">
        <ele>83.6</ele>
        <time>2024-04-14T09:13:25Z</time>
      </trkpt>
      <trkpt lat="47.95134" lon="-0.5659">
        <ele>83.6</ele>
        <time>2024-04-14T09:13:26Z</time>
      </trkpt>
      <trkpt lat="47.95129" lon="-0.56594">
        <ele>83.6</ele>
        <time>2024-04-14T09:13:27Z</time>
      </trkpt>
      <trkpt lat="47.95125" lon="-0.56597">
        <ele>84.2</ele>
        <time>2024-04-14T09:13:28Z</time>
      </trkpt>
      <trkpt lat="47.95121" lon="-0.566">
        <ele>85</ele>
        <time>2024-04-14T09:13:29Z</time>
      </trkpt>
      <trkpt lat="47.95118" lon="-0.56602">
        <ele>85</ele>
        <time>2024-04-14T09:13:30Z</time>
      </trkpt>
      <trkpt lat="47.95116" lon="-0.56603">
        <ele>85</ele>
        <time>2024-04-14T09:13:31Z</time>
      </trkpt>
      <trkpt lat="47.95114" lon="-0.56603">
        <ele>85</ele>
        <time>2024-04-14T09:13:32Z</time>
      </trkpt>
      <trkpt lat="47.95112" lon="-0.56604">
        <ele>86.4</ele>
        <time>2024-04-14T09:13:33Z</time>
      </trkpt>
      <trkpt lat="47.9511" lon="-0.56606">
        <ele>86.4</ele>
        <time>2024-04-14T09:13:34Z</time>
      </trkpt>
      <trkpt lat="47.95108" lon="-0.56609">
        <ele>86.4</ele>
        <time>2024-04-14T09:13:35Z</time>
      </trkpt>
      <trkpt lat="47.95106" lon="-0.5661">
        <ele>86</ele>
        <time>2024-04-14T09:13:36Z</time>
      </trkpt>
      <trkpt lat="47.95103" lon="-0.56611">
        <ele>85.4</ele>
        <time>2024-04-14T09:13:37Z</time>
      </trkpt>
      <trkpt lat="47.951" lon="-0.5661">
        <ele>85.4</ele>
        <time>2024-04-14T09:13:38Z</time>
      </trkpt>
      <trkpt lat="47.95098" lon="-0.56609">
        <ele>85.4</ele>
        <time>2024-04-14T09:13:39Z</time>
      </trkpt>
      <trkpt lat="47.95095" lon="-0.56606">
        <ele>85.4</ele>
        <time>2024-04-14T09:13:40Z</time>
      </trkpt>
      <trkpt lat="47.95093" lon="-0.56602">
        <ele>85.8</ele>
        <time>2024-04-14T09:13:41Z</time>
      </trkpt>
      <trkpt lat="47.95091" lon="-0.56598">
        <ele>85.8</ele>
        <time>2024-04-14T09:13:42Z</time>
      </trkpt>
      <trkpt lat="47.95088" lon="-0.56593">
        <ele>85.8</ele>
        <time>2024-04-14T09:13:43Z</time>
      </trkpt>
      <trkpt lat="47.95086" lon="-0.56588">
        <ele>85.8</ele>
        <time>2024-04-14T09:13:44Z</time>
      </trkpt>
      <trkpt lat="47.95083" lon="-0.56582">
        <ele>86.2</ele>
        <time>2024-04-14T09:13:45Z</time>
      </trkpt>
      <trkpt lat="47.9508" lon="-0.56576">
        <ele>86.2</ele>
        <time>2024-04-14T09:13:46Z</time>
      </trkpt>
      <trkpt lat="47.95077" lon="-0.56569">
        <ele>86.2</ele>
        <time>2024-04-14T09:13:47Z</time>
      </trkpt>
      <trkpt lat="47.95075" lon="-0.56563">
        <ele>87</ele>
        <time>2024-04-14T09:13:48Z</time>
      </trkpt>
      <trkpt lat="47.95072" lon="-0.56557">
        <ele>87.4</ele>
        <time>2024-04-14T09:13:49Z</time>
      </trkpt>
      <trkpt lat="47.95069" lon="-0.56551">
        <ele>87.4</ele>
        <time>2024-04-14T09:13:50Z</time>
      </trkpt>
      <trkpt lat="47.95067" lon="-0.56544">
        <ele>87.4</ele>
        <time>2024-04-14T09:13:51Z</time>
      </trkpt>
      <trkpt lat="47.95065" lon="-0.56537">
        <ele>87.4</ele>
        <time>2024-04-14T09:13:52Z</time>
      </trkpt>
      <trkpt lat="47.95062" lon="-0.5653">
        <ele>87.4</ele>
        <time>2024-04-14T09:13:53Z</time>
      </trkpt>
      <trkpt lat="47.95061" lon="-0.56523">
        <ele>87.4</ele>
        <time>2024-04-14T09:13:54Z</time>
      </trkpt>
      <trkpt lat="47.95061" lon="-0.56517">
        <ele>87.4</ele>
        <time>2024-04-14T09:13:55Z</time>
      </trkpt>
      <trkpt lat="47.95065" lon="-0.56512">
        <ele>87.4</ele>
        <time>2024-04-14T09:13:56Z</time>
      </trkpt>
      <trkpt lat="47.95069" lon="-0.56507">
        <ele>87</ele>
        <time>2024-04-14T09:13:57Z</time>
      </trkpt>
      <trkpt lat="47.95072" lon="-0.56503">
        <ele>87</ele>
        <time>2024-04-14T09:13:58Z</time>
      </trkpt>
      <trkpt lat="47.95077" lon="-0.56499">
        <ele>87</ele>
        <time>2024-04-14T09:13:59Z</time>
      </trkpt>
      <trkpt lat="47.95081" lon="-0.56495">
        <ele>87.8</ele>
        <time>2024-04-14T09:14:00Z</time>
      </trkpt>
      <trkpt lat="47.95086" lon="-0.56491">
        <ele>87.4</ele>
        <time>2024-04-14T09:14:01Z</time>
      </trkpt>
      <trkpt lat="47.9509" lon="-0.56487">
        <ele>87.4</ele>
        <time>2024-04-14T09:14:02Z</time>
      </trkpt>
      <trkpt lat="47.95094" lon="-0.56483">
        <ele>87.4</ele>
        <time>2024-04-14T09:14:03Z</time>
      </trkpt>
      <trkpt lat="47.95098" lon="-0.56479">
        <ele>87.4</ele>
        <time>2024-04-14T09:14:04Z</time>
      </trkpt>
      <trkpt lat="47.95102" lon="-0.56474">
        <ele>88</ele>
        <time>2024-04-14T09:14:05Z</time>
      </trkpt>
      <trkpt lat="47.95106" lon="-0.5647">
        <ele>88</ele>
        <time>2024-04-14T09:14:06Z</time>
      </trkpt>
      <trkpt lat="47.9511" lon="-0.56466">
        <ele>88</ele>
        <time>2024-04-14T09:14:07Z</time>
      </trkpt>
      <trkpt lat="47.95114" lon="-0.56462">
        <ele>88.6</ele>
        <time>2024-04-14T09:14:08Z</time>
      </trkpt>
      <trkpt lat="47.95118" lon="-0.56457">
        <ele>88.6</ele>
        <time>2024-04-14T09:14:09Z</time>
      </trkpt>
      <trkpt lat="47.95119" lon="-0.5645">
        <ele>88.6</ele>
        <time>2024-04-14T09:14:10Z</time>
      </trkpt>
      <trkpt lat="47.95119" lon="-0.56443">
        <ele>88.6</ele>
        <time>2024-04-14T09:14:11Z</time>
      </trkpt>
      <trkpt lat="47.95116" lon="-0.56437">
        <ele>88.6</ele>
        <time>2024-04-14T09:14:12Z</time>
      </trkpt>
      <trkpt lat="47.95113" lon="-0.56431">
        <ele>89.6</ele>
        <time>2024-04-14T09:14:13Z</time>
      </trkpt>
      <trkpt lat="47.9511" lon="-0.56425">
        <ele>89.6</ele>
        <time>2024-04-14T09:14:14Z</time>
      </trkpt>
      <trkpt lat="47.95108" lon="-0.5642">
        <ele>89.6</ele>
        <time>2024-04-14T09:14:15Z</time>
      </trkpt>
      <trkpt lat="47.95105" lon="-0.56414">
        <ele>89.6</ele>
        <time>2024-04-14T09:14:16Z</time>
      </trkpt>
      <trkpt lat="47.95104" lon="-0.56408">
        <ele>90.6</ele>
        <time>2024-04-14T09:14:17Z</time>
      </trkpt>
      <trkpt lat="47.95105" lon="-0.56403">
        <ele>90.6</ele>
        <time>2024-04-14T09:14:18Z</time>
      </trkpt>
      <trkpt lat="47.95108" lon="-0.56398">
        <ele>90.6</ele>
        <time>2024-04-14T09:14:19Z</time>
      </trkpt>
      <trkpt lat="47.9511" lon="-0.56393">
        <ele>90.6</ele>
        <time>2024-04-14T09:14:20Z</time>
      </trkpt>
      <trkpt lat="47.95112" lon="-0.56387">
        <ele>90.4</ele>
        <time>2024-04-14T09:14:21Z</time>
      </trkpt>
      <trkpt lat="47.95112" lon="-0.5638">
        <ele>90.4</ele>
        <time>2024-04-14T09:14:22Z</time>
      </trkpt>
      <trkpt lat="47.95112" lon="-0.56373">
        <ele>90.4</ele>
        <time>2024-04-14T09:14:23Z</time>
      </trkpt>
      <trkpt lat="47.9511" lon="-0.56366">
        <ele>90.4</ele>
        <time>2024-04-14T09:14:24Z</time>
      </trkpt>
      <trkpt lat="47.95107" lon="-0.5636">
        <ele>90.8</ele>
        <time>2024-04-14T09:14:25Z</time>
      </trkpt>
      <trkpt lat="47.95105" lon="-0.56353">
        <ele>90.8</ele>
        <time>2024-04-14T09:14:26Z</time>
      </trkpt>
      <trkpt lat="47.95103" lon="-0.56347">
        <ele>90.8</ele>
        <time>2024-04-14T09:14:27Z</time>
      </trkpt>
      <trkpt lat="47.951" lon="-0.56341">
        <ele>90.8</ele>
        <time>2024-04-14T09:14:28Z</time>
      </trkpt>
      <trkpt lat="47.95097" lon="-0.56335">
        <ele>91</ele>
        <time>2024-04-14T09:14:29Z</time>
      </trkpt>
      <trkpt lat="47.95094" lon="-0.56329">
        <ele>91</ele>
        <time>2024-04-14T09:14:30Z</time>
      </trkpt>
      <trkpt lat="47.95091" lon="-0.56323">
        <ele>91</ele>
        <time>2024-04-14T09:14:31Z</time>
      </trkpt>
      <trkpt lat="47.95088" lon="-0.56317">
        <ele>91.6</ele>
        <time>2024-04-14T09:14:32Z</time>
      </trkpt>
      <trkpt lat="47.95085" lon="-0.56311">
        <ele>91.4</ele>
        <time>2024-04-14T09:14:33Z</time>
      </trkpt>
      <trkpt lat="47.95082" lon="-0.56306">
        <ele>91.4</ele>
        <time>2024-04-14T09:14:34Z</time>
      </trkpt>
      <trkpt lat="47.9508" lon="-0.56299">
        <ele>91.4</ele>
        <time>2024-04-14T09:14:35Z</time>
      </trkpt>
      <trkpt lat="47.95078" lon="-0.56292">
        <ele>91.4</ele>
        <time>2024-04-14T09:14:36Z</time>
      </trkpt>
      <trkpt lat="47.95076" lon="-0.56285">
        <ele>91.6</ele>
        <time>2024-04-14T09:14:37Z</time>
      </trkpt>
      <trkpt lat="47.95075" lon="-0.56278">
        <ele>91.6</ele>
        <time>2024-04-14T09:14:38Z</time>
      </trkpt>
      <trkpt lat="47.95074" lon="-0.56271">
        <ele>91.6</ele>
        <time>2024-04-14T09:14:39Z</time>
      </trkpt>
      <trkpt lat="47.95074" lon="-0.56264">
        <ele>91.6</ele>
        <time>2024-04-14T09:14:40Z</time>
      </trkpt>
      <trkpt lat="47.95074" lon="-0.56257">
        <ele>91.8</ele>
        <time>2024-04-14T09:14:41Z</time>
      </trkpt>
      <trkpt lat="47.95076" lon="-0.56249">
        <ele>91.8</ele>
        <time>2024-04-14T09:14:42Z</time>
      </trkpt>
      <trkpt lat="47.95078" lon="-0.56242">
        <ele>91.8</ele>
        <time>2024-04-14T09:14:43Z</time>
      </trkpt>
      <trkpt lat="47.9508" lon="-0.56236">
        <ele>92.2</ele>
        <time>2024-04-14T09:14:44Z</time>
      </trkpt>
      <trkpt lat="47.95083" lon="-0.56229">
        <ele>92</ele>
        <time>2024-04-14T09:14:45Z</time>
      </trkpt>
      <trkpt lat="47.95086" lon="-0.56222">
        <ele>92</ele>
        <time>2024-04-14T09:14:46Z</time>
      </trkpt>
      <trkpt lat="47.95089" lon="-0.56216">
        <ele>92</ele>
        <time>2024-04-14T09:14:47Z</time>
      </trkpt>
      <trkpt lat="47.95092" lon="-0.56209">
        <ele>91.6</ele>
        <time>2024-04-14T09:14:48Z</time>
      </trkpt>
      <trkpt lat="47.95095" lon="-0.56202">
        <ele>91.2</ele>
        <time>2024-04-14T09:14:49Z</time>
      </trkpt>
      <trkpt lat="47.95098" lon="-0.56196">
        <ele>91.2</ele>
        <time>2024-04-14T09:14:50Z</time>
      </trkpt>
      <trkpt lat="47.95101" lon="-0.56189">
        <ele>91.2</ele>
        <time>2024-04-14T09:14:51Z</time>
      </trkpt>
      <trkpt lat="47.95104" lon="-0.56182">
        <ele>91.4</ele>
        <time>2024-04-14T09:14:52Z</time>
      </trkpt>
      <trkpt lat="47.95106" lon="-0.56176">
        <ele>91.4</ele>
        <time>2024-04-14T09:14:53Z</time>
      </trkpt>
      <trkpt lat="47.95109" lon="-0.56169">
        <ele>91.4</ele>
        <time>2024-04-14T09:14:54Z</time>
      </trkpt>
      <trkpt lat="47.95112" lon="-0.56162">
        <ele>91.4</ele>
        <time>2024-04-14T09:14:55Z</time>
      </trkpt>
      <trkpt lat="47.95114" lon="-0.56155">
        <ele>91.4</ele>
        <time>2024-04-14T09:14:56Z</time>
      </trkpt>
      <trkpt lat="47.95117" lon="-0.56148">
        <ele>90.8</ele>
        <time>2024-04-14T09:14:57Z</time>
      </trkpt>
      <trkpt lat="47.9512" lon="-0.56141">
        <ele>90.8</ele>
        <time>2024-04-14T09:14:58Z</time>
      </trkpt>
      <trkpt lat="47.95122" lon="-0.56134">
        <ele>90.8</ele>
        <time>2024-04-14T09:14:59Z</time>
      </trkpt>
      <trkpt lat="47.95125" lon="-0.56127">
        <ele>90.8</ele>
        <time>2024-04-14T09:15:00Z</time>
      </trkpt>
      <trkpt lat="47.95127" lon="-0.56121">
        <ele>91.4</ele>
        <time>2024-04-14T09:15:01Z</time>
      </trkpt>
      <trkpt lat="47.95131" lon="-0.56115">
        <ele>91.4</ele>
        <time>2024-04-14T09:15:02Z</time>
      </trkpt>
      <trkpt lat="47.95134" lon="-0.5611">
        <ele>91.4</ele>
        <time>2024-04-14T09:15:03Z</time>
      </trkpt>
      <trkpt lat="47.95138" lon="-0.56108">
        <ele>91.4</ele>
        <time>2024-04-14T09:15:04Z</time>
      </trkpt>
      <trkpt lat="47.95143" lon="-0.56106">
        <ele>92.4</ele>
        <time>2024-04-14T09:15:05Z</time>
      </trkpt>
      <trkpt lat="47.95148" lon="-0.56103">
        <ele>92.4</ele>
        <time>2024-04-14T09:15:06Z</time>
      </trkpt>
      <trkpt lat="47.95152" lon="-0.56098">
        <ele>92.4</ele>
        <time>2024-04-14T09:15:07Z</time>
      </trkpt>
      <trkpt lat="47.95157" lon="-0.56093">
        <ele>92.4</ele>
        <time>2024-04-14T09:15:08Z</time>
      </trkpt>
      <trkpt lat="47.95161" lon="-0.56088">
        <ele>92</ele>
        <time>2024-04-14T09:15:09Z</time>
      </trkpt>
      <trkpt lat="47.95165" lon="-0.56082">
        <ele>92</ele>
        <time>2024-04-14T09:15:10Z</time>
      </trkpt>
      <trkpt lat="47.95169" lon="-0.56077">
        <ele>92</ele>
        <time>2024-04-14T09:15:11Z</time>
      </trkpt>
      <trkpt lat="47.95173" lon="-0.5607">
        <ele>92</ele>
        <time>2024-04-14T09:15:12Z</time>
      </trkpt>
      <trkpt lat="47.95174" lon="-0.56063">
        <ele>91.4</ele>
        <time>2024-04-14T09:15:13Z</time>
      </trkpt>
      <trkpt lat="47.95173" lon="-0.56055">
        <ele>91.4</ele>
        <time>2024-04-14T09:15:14Z</time>
      </trkpt>
      <trkpt lat="47.95172" lon="-0.56047">
        <ele>91.4</ele>
        <time>2024-04-14T09:15:15Z</time>
      </trkpt>
      <trkpt lat="47.95171" lon="-0.56039">
        <ele>90.8</ele>
        <time>2024-04-14T09:15:16Z</time>
      </trkpt>
      <trkpt lat="47.9517" lon="-0.56032">
        <ele>91.2</ele>
        <time>2024-04-14T09:15:17Z</time>
      </trkpt>
      <trkpt lat="47.95169" lon="-0.56026">
        <ele>91.2</ele>
        <time>2024-04-14T09:15:18Z</time>
      </trkpt>
      <trkpt lat="47.95168" lon="-0.56021">
        <ele>91.2</ele>
        <time>2024-04-14T09:15:19Z</time>
      </trkpt>
      <trkpt lat="47.95168" lon="-0.56018">
        <ele>90.8</ele>
        <time>2024-04-14T09:15:20Z</time>
      </trkpt>
      <trkpt lat="47.95167" lon="-0.56014">
        <ele>91</ele>
        <time>2024-04-14T09:15:21Z</time>
      </trkpt>
      <trkpt lat="47.95167" lon="-0.56012">
        <ele>91</ele>
        <time>2024-04-14T09:15:22Z</time>
      </trkpt>
      <trkpt lat="47.95167" lon="-0.56009">
        <ele>91</ele>
        <time>2024-04-14T09:15:23Z</time>
      </trkpt>
      <trkpt lat="47.95167" lon="-0.56005">
        <ele>92</ele>
        <time>2024-04-14T09:15:24Z</time>
      </trkpt>
      <trkpt lat="47.95167" lon="-0.56002">
        <ele>91.2</ele>
        <time>2024-04-14T09:15:25Z</time>
      </trkpt>
      <trkpt lat="47.95166" lon="-0.55997">
        <ele>91.2</ele>
        <time>2024-04-14T09:15:26Z</time>
      </trkpt>
      <trkpt lat="47.95164" lon="-0.55992">
        <ele>91.2</ele>
        <time>2024-04-14T09:15:27Z</time>
      </trkpt>
      <trkpt lat="47.95163" lon="-0.55987">
        <ele>91.2</ele>
        <time>2024-04-14T09:15:28Z</time>
      </trkpt>
      <trkpt lat="47.95162" lon="-0.55982">
        <ele>89.8</ele>
        <time>2024-04-14T09:15:29Z</time>
      </trkpt>
      <trkpt lat="47.95161" lon="-0.55975">
        <ele>89.8</ele>
        <time>2024-04-14T09:15:30Z</time>
      </trkpt>
      <trkpt lat="47.9516" lon="-0.55968">
        <ele>89.8</ele>
        <time>2024-04-14T09:15:31Z</time>
      </trkpt>
      <trkpt lat="47.9516" lon="-0.5596">
        <ele>88.8</ele>
        <time>2024-04-14T09:15:32Z</time>
      </trkpt>
      <trkpt lat="47.95159" lon="-0.55953">
        <ele>88.2</ele>
        <time>2024-04-14T09:15:33Z</time>
      </trkpt>
      <trkpt lat="47.95159" lon="-0.55947">
        <ele>88.2</ele>
        <time>2024-04-14T09:15:34Z</time>
      </trkpt>
      <trkpt lat="47.95158" lon="-0.55941">
        <ele>88.2</ele>
        <time>2024-04-14T09:15:35Z</time>
      </trkpt>
      <trkpt lat="47.95158" lon="-0.55937">
        <ele>88.2</ele>
        <time>2024-04-14T09:15:36Z</time>
      </trkpt>
      <trkpt lat="47.95156" lon="-0.55933">
        <ele>89.2</ele>
        <time>2024-04-14T09:15:37Z</time>
      </trkpt>
      <trkpt lat="47.95155" lon="-0.55927">
        <ele>89.2</ele>
        <time>2024-04-14T09:15:38Z</time>
      </trkpt>
      <trkpt lat="47.95153" lon="-0.55921">
        <ele>89.2</ele>
        <time>2024-04-14T09:15:39Z</time>
      </trkpt>
      <trkpt lat="47.95151" lon="-0.55914">
        <ele>89.2</ele>
        <time>2024-04-14T09:15:40Z</time>
      </trkpt>
      <trkpt lat="47.95148" lon="-0.55907">
        <ele>88.6</ele>
        <time>2024-04-14T09:15:41Z</time>
      </trkpt>
      <trkpt lat="47.95146" lon="-0.559">
        <ele>88.6</ele>
        <time>2024-04-14T09:15:42Z</time>
      </trkpt>
      <trkpt lat="47.95144" lon="-0.55893">
        <ele>88.6</ele>
        <time>2024-04-14T09:15:43Z</time>
      </trkpt>
      <trkpt lat="47.95142" lon="-0.55884">
        <ele>88.6</ele>
        <time>2024-04-14T09:15:44Z</time>
      </trkpt>
      <trkpt lat="47.95142" lon="-0.55875">
        <ele>88.6</ele>
        <time>2024-04-14T09:15:45Z</time>
      </trkpt>
      <trkpt lat="47.95142" lon="-0.55866">
        <ele>88.6</ele>
        <time>2024-04-14T09:15:46Z</time>
      </trkpt>
      <trkpt lat="47.95143" lon="-0.55857">
        <ele>88.6</ele>
        <time>2024-04-14T09:15:47Z</time>
      </trkpt>
      <trkpt lat="47.95142" lon="-0.55848">
        <ele>87.6</ele>
        <time>2024-04-14T09:15:48Z</time>
      </trkpt>
      <trkpt lat="47.95141" lon="-0.55839">
        <ele>86.8</ele>
        <time>2024-04-14T09:15:49Z</time>
      </trkpt>
      <trkpt lat="47.95138" lon="-0.55831">
        <ele>86.8</ele>
        <time>2024-04-14T09:15:50Z</time>
      </trkpt>
      <trkpt lat="47.95136" lon="-0.55823">
        <ele>86.8</ele>
        <time>2024-04-14T09:15:51Z</time>
      </trkpt>
      <trkpt lat="47.95133" lon="-0.55815">
        <ele>86.2</ele>
        <time>2024-04-14T09:15:52Z</time>
      </trkpt>
      <trkpt lat="47.9513" lon="-0.55807">
        <ele>86.8</ele>
        <time>2024-04-14T09:15:53Z</time>
      </trkpt>
      <trkpt lat="47.95127" lon="-0.55799">
        <ele>86.8</ele>
        <time>2024-04-14T09:15:54Z</time>
      </trkpt>
      <trkpt lat="47.95125" lon="-0.5579">
        <ele>86.8</ele>
        <time>2024-04-14T09:15:55Z</time>
      </trkpt>
      <trkpt lat="47.95122" lon="-0.55783">
        <ele>86.2</ele>
        <time>2024-04-14T09:15:56Z</time>
      </trkpt>
      <trkpt lat="47.9512" lon="-0.55776">
        <ele>86.8</ele>
        <time>2024-04-14T09:15:57Z</time>
      </trkpt>
      <trkpt lat="47.95118" lon="-0.55771">
        <ele>86.8</ele>
        <time>2024-04-14T09:15:58Z</time>
      </trkpt>
      <trkpt lat="47.95115" lon="-0.55768">
        <ele>86.8</ele>
        <time>2024-04-14T09:15:59Z</time>
      </trkpt>
      <trkpt lat="47.95114" lon="-0.55765">
        <ele>86.8</ele>
        <time>2024-04-14T09:16:00Z</time>
      </trkpt>
      <trkpt lat="47.95114" lon="-0.55762">
        <ele>87.6</ele>
        <time>2024-04-14T09:16:01Z</time>
      </trkpt>
      <trkpt lat="47.95116" lon="-0.55758">
        <ele>87.6</ele>
        <time>2024-04-14T09:16:02Z</time>
      </trkpt>
      <trkpt lat="47.95118" lon="-0.55753">
        <ele>87.6</ele>
        <time>2024-04-14T09:16:03Z</time>
      </trkpt>
      <trkpt lat="47.95118" lon="-0.55749">
        <ele>87.6</ele>
        <time>2024-04-14T09:16:04Z</time>
      </trkpt>
      <trkpt lat="47.95117" lon="-0.55744">
        <ele>87</ele>
        <time>2024-04-14T09:16:05Z</time>
      </trkpt>
      <trkpt lat="47.95115" lon="-0.55741">
        <ele>87</ele>
        <time>2024-04-14T09:16:06Z</time>
      </trkpt>
      <trkpt lat="47.95112" lon="-0.5574">
        <ele>87</ele>
        <time>2024-04-14T09:16:07Z</time>
      </trkpt>
      <trkpt lat="47.95108" lon="-0.55739">
        <ele>87.4</ele>
        <time>2024-04-14T09:16:08Z</time>
      </trkpt>
      <trkpt lat="47.95104" lon="-0.55737">
        <ele>86.8</ele>
        <time>2024-04-14T09:16:09Z</time>
      </trkpt>
      <trkpt lat="47.95098" lon="-0.55735">
        <ele>86.8</ele>
        <time>2024-04-14T09:16:10Z</time>
      </trkpt>
      <trkpt lat="47.95093" lon="-0.55733">
        <ele>86.8</ele>
        <time>2024-04-14T09:16:11Z</time>
      </trkpt>
      <trkpt lat="47.95088" lon="-0.55731">
        <ele>87.4</ele>
        <time>2024-04-14T09:16:12Z</time>
      </trkpt>
      <trkpt lat="47.95083" lon="-0.55728">
        <ele>87</ele>
        <time>2024-04-14T09:16:13Z</time>
      </trkpt>
      <trkpt lat="47.95078" lon="-0.55726">
        <ele>87</ele>
        <time>2024-04-14T09:16:14Z</time>
      </trkpt>
      <trkpt lat="47.95072" lon="-0.55724">
        <ele>87</ele>
        <time>2024-04-14T09:16:15Z</time>
      </trkpt>
      <trkpt lat="47.95067" lon="-0.55722">
        <ele>87.2</ele>
        <time>2024-04-14T09:16:16Z</time>
      </trkpt>
      <trkpt lat="47.95062" lon="-0.55719">
        <ele>87</ele>
        <time>2024-04-14T09:16:17Z</time>
      </trkpt>
      <trkpt lat="47.95057" lon="-0.55718">
        <ele>87</ele>
        <time>2024-04-14T09:16:18Z</time>
      </trkpt>
      <trkpt lat="47.95051" lon="-0.55719">
        <ele>87</ele>
        <time>2024-04-14T09:16:19Z</time>
      </trkpt>
      <trkpt lat="47.95046" lon="-0.55721">
        <ele>87.2</ele>
        <time>2024-04-14T09:16:20Z</time>
      </trkpt>
      <trkpt lat="47.95041" lon="-0.55723">
        <ele>87.6</ele>
        <time>2024-04-14T09:16:21Z</time>
      </trkpt>
      <trkpt lat="47.95036" lon="-0.55725">
        <ele>87.6</ele>
        <time>2024-04-14T09:16:22Z</time>
      </trkpt>
      <trkpt lat="47.95032" lon="-0.55726">
        <ele>87.6</ele>
        <time>2024-04-14T09:16:23Z</time>
      </trkpt>
      <trkpt lat="47.95027" lon="-0.55724">
        <ele>87</ele>
        <time>2024-04-14T09:16:24Z</time>
      </trkpt>
      <trkpt lat="47.95024" lon="-0.55718">
        <ele>87.4</ele>
        <time>2024-04-14T09:16:25Z</time>
      </trkpt>
      <trkpt lat="47.95022" lon="-0.55712">
        <ele>87.4</ele>
        <time>2024-04-14T09:16:26Z</time>
      </trkpt>
      <trkpt lat="47.95021" lon="-0.55704">
        <ele>87.4</ele>
        <time>2024-04-14T09:16:27Z</time>
      </trkpt>
      <trkpt lat="47.95018" lon="-0.55698">
        <ele>87.4</ele>
        <time>2024-04-14T09:16:28Z</time>
      </trkpt>
      <trkpt lat="47.95014" lon="-0.55694">
        <ele>86.8</ele>
        <time>2024-04-14T09:16:29Z</time>
      </trkpt>
      <trkpt lat="47.9501" lon="-0.5569">
        <ele>86.8</ele>
        <time>2024-04-14T09:16:30Z</time>
      </trkpt>
      <trkpt lat="47.95006" lon="-0.55684">
        <ele>86.8</ele>
        <time>2024-04-14T09:16:31Z</time>
      </trkpt>
      <trkpt lat="47.95003" lon="-0.55679">
        <ele>86.8</ele>
        <time>2024-04-14T09:16:32Z</time>
      </trkpt>
      <trkpt lat="47.95001" lon="-0.55674">
        <ele>87.8</ele>
        <time>2024-04-14T09:16:33Z</time>
      </trkpt>
      <trkpt lat="47.95" lon="-0.55672">
        <ele>87.8</ele>
        <time>2024-04-14T09:16:34Z</time>
      </trkpt>
      <trkpt lat="47.94998" lon="-0.55671">
        <ele>87.8</ele>
        <time>2024-04-14T09:16:35Z</time>
      </trkpt>
      <trkpt lat="47.94998" lon="-0.55671">
        <ele>88.2</ele>
        <time>2024-04-14T09:16:36Z</time>
      </trkpt>
      <trkpt lat="47.94998" lon="-0.55671">
        <ele>88.4</ele>
        <time>2024-04-14T09:16:37Z</time>
      </trkpt>
      <trkpt lat="47.94997" lon="-0.55671">
        <ele>88.4</ele>
        <time>2024-04-14T09:16:38Z</time>
      </trkpt>
      <trkpt lat="47.94996" lon="-0.55671">
        <ele>88.4</ele>
        <time>2024-04-14T09:16:39Z</time>
      </trkpt>
      <trkpt lat="47.94995" lon="-0.55672">
        <ele>88.4</ele>
        <time>2024-04-14T09:16:40Z</time>
      </trkpt>
      <trkpt lat="47.94994" lon="-0.55672">
        <ele>88</ele>
        <time>2024-04-14T09:16:41Z</time>
      </trkpt>
      <trkpt lat="47.94993" lon="-0.55672">
        <ele>88</ele>
        <time>2024-04-14T09:16:42Z</time>
      </trkpt>
      <trkpt lat="47.94992" lon="-0.55672">
        <ele>88</ele>
        <time>2024-04-14T09:16:43Z</time>
      </trkpt>
      <trkpt lat="47.94991" lon="-0.55672">
        <ele>87.4</ele>
        <time>2024-04-14T09:16:44Z</time>
      </trkpt>
      <trkpt lat="47.9499" lon="-0.55672">
        <ele>87.2</ele>
        <time>2024-04-14T09:16:45Z</time>
      </trkpt>
      <trkpt lat="47.9499" lon="-0.55672">
        <ele>87.2</ele>
        <time>2024-04-14T09:16:46Z</time>
      </trkpt>
      <trkpt lat="47.94989" lon="-0.55672">
        <ele>87.2</ele>
        <time>2024-04-14T09:16:47Z</time>
      </trkpt>
      <trkpt lat="47.94988" lon="-0.55672">
        <ele>87.2</ele>
        <time>2024-04-14T09:16:48Z</time>
      </trkpt>
      <trkpt lat="47.94987" lon="-0.55672">
        <ele>86.4</ele>
        <time>2024-04-14T09:16:49Z</time>
      </trkpt>
      <trkpt lat="47.94986" lon="-0.55672">
        <ele>86.4</ele>
        <time>2024-04-14T09:16:50Z</time>
      </trkpt>
      <trkpt lat="47.94985" lon="-0.55673">
        <ele>86.4</ele>
        <time>2024-04-14T09:16:51Z</time>
      </trkpt>
      <trkpt lat="47.94984" lon="-0.55673">
        <ele>86.4</ele>
        <time>2024-04-14T09:16:52Z</time>
      </trkpt>
      <trkpt lat="47.94982" lon="-0.55673">
        <ele>86.2</ele>
        <time>2024-04-14T09:16:53Z</time>
      </trkpt>
      <trkpt lat="47.94979" lon="-0.55674">
        <ele>86.2</ele>
        <time>2024-04-14T09:16:54Z</time>
      </trkpt>
      <trkpt lat="47.94977" lon="-0.55676">
        <ele>86.2</ele>
        <time>2024-04-14T09:16:55Z</time>
      </trkpt>
      <trkpt lat="47.94975" lon="-0.55678">
        <ele>85.4</ele>
        <time>2024-04-14T09:16:56Z</time>
      </trkpt>
      <trkpt lat="47.94972" lon="-0.5568">
        <ele>85</ele>
        <time>2024-04-14T09:16:57Z</time>
      </trkpt>
      <trkpt lat="47.94968" lon="-0.5568">
        <ele>85</ele>
        <time>2024-04-14T09:16:58Z</time>
      </trkpt>
      <trkpt lat="47.94964" lon="-0.5568">
        <ele>85</ele>
        <time>2024-04-14T09:16:59Z</time>
      </trkpt>
      <trkpt lat="47.9496" lon="-0.55681">
        <ele>85</ele>
        <time>2024-04-14T09:17:00Z</time>
      </trkpt>
      <trkpt lat="47.94956" lon="-0.55682">
        <ele>84.8</ele>
        <time>2024-04-14T09:17:01Z</time>
      </trkpt>
      <trkpt lat="47.94952" lon="-0.55684">
        <ele>84.8</ele>
        <time>2024-04-14T09:17:02Z</time>
      </trkpt>
      <trkpt lat="47.94947" lon="-0.55685">
        <ele>84.8</ele>
        <time>2024-04-14T09:17:03Z</time>
      </trkpt>
      <trkpt lat="47.94943" lon="-0.55686">
        <ele>84.8</ele>
        <time>2024-04-14T09:17:04Z</time>
      </trkpt>
      <trkpt lat="47.94938" lon="-0.55686">
        <ele>84.8</ele>
        <time>2024-04-14T09:17:05Z</time>
      </trkpt>
      <trkpt lat="47.94935" lon="-0.55687">
        <ele>84.8</ele>
        <time>2024-04-14T09:17:06Z</time>
      </trkpt>
      <trkpt lat="47.94931" lon="-0.55689">
        <ele>84.8</ele>
        <time>2024-04-14T09:17:07Z</time>
      </trkpt>
      <trkpt lat="47.94929" lon="-0.55693">
        <ele>84.8</ele>
        <time>2024-04-14T09:17:08Z</time>
      </trkpt>
      <trkpt lat="47.94927" lon="-0.55697">
        <ele>84.6</ele>
        <time>2024-04-14T09:17:09Z</time>
      </trkpt>
      <trkpt lat="47.94925" lon="-0.55702">
        <ele>84.6</ele>
        <time>2024-04-14T09:17:10Z</time>
      </trkpt>
      <trkpt lat="47.94922" lon="-0.55706">
        <ele>84.6</ele>
        <time>2024-04-14T09:17:11Z</time>
      </trkpt>
      <trkpt lat="47.94918" lon="-0.55709">
        <ele>84.8</ele>
        <time>2024-04-14T09:17:12Z</time>
      </trkpt>
      <trkpt lat="47.94913" lon="-0.55709">
        <ele>84.8</ele>
        <time>2024-04-14T09:17:13Z</time>
      </trkpt>
      <trkpt lat="47.94908" lon="-0.55709">
        <ele>84.8</ele>
        <time>2024-04-14T09:17:14Z</time>
      </trkpt>
      <trkpt lat="47.94903" lon="-0.55708">
        <ele>84.8</ele>
        <time>2024-04-14T09:17:15Z</time>
      </trkpt>
      <trkpt lat="47.94898" lon="-0.55709">
        <ele>83.8</ele>
        <time>2024-04-14T09:17:16Z</time>
      </trkpt>
      <trkpt lat="47.94893" lon="-0.55712">
        <ele>83.6</ele>
        <time>2024-04-14T09:17:17Z</time>
      </trkpt>
      <trkpt lat="47.94888" lon="-0.55716">
        <ele>83.6</ele>
        <time>2024-04-14T09:17:18Z</time>
      </trkpt>
      <trkpt lat="47.94882" lon="-0.55719">
        <ele>83.6</ele>
        <time>2024-04-14T09:17:19Z</time>
      </trkpt>
      <trkpt lat="47.94876" lon="-0.55723">
        <ele>83.6</ele>
        <time>2024-04-14T09:17:20Z</time>
      </trkpt>
      <trkpt lat="47.9487" lon="-0.55727">
        <ele>81.8</ele>
        <time>2024-04-14T09:17:21Z</time>
      </trkpt>
      <trkpt lat="47.94863" lon="-0.55729">
        <ele>81.8</ele>
        <time>2024-04-14T09:17:22Z</time>
      </trkpt>
      <trkpt lat="47.94855" lon="-0.5573">
        <ele>81.8</ele>
        <time>2024-04-14T09:17:23Z</time>
      </trkpt>
      <trkpt lat="47.94848" lon="-0.55729">
        <ele>80.8</ele>
        <time>2024-04-14T09:17:24Z</time>
      </trkpt>
      <trkpt lat="47.94841" lon="-0.55729">
        <ele>81</ele>
        <time>2024-04-14T09:17:25Z</time>
      </trkpt>
      <trkpt lat="47.94834" lon="-0.55729">
        <ele>81</ele>
        <time>2024-04-14T09:17:26Z</time>
      </trkpt>
      <trkpt lat="47.94826" lon="-0.55729">
        <ele>81</ele>
        <time>2024-04-14T09:17:27Z</time>
      </trkpt>
      <trkpt lat="47.94819" lon="-0.55729">
        <ele>80.2</ele>
        <time>2024-04-14T09:17:28Z</time>
      </trkpt>
      <trkpt lat="47.94813" lon="-0.55728">
        <ele>80.6</ele>
        <time>2024-04-14T09:17:29Z</time>
      </trkpt>
      <trkpt lat="47.94807" lon="-0.55728">
        <ele>80.6</ele>
        <time>2024-04-14T09:17:30Z</time>
      </trkpt>
      <trkpt lat="47.94802" lon="-0.55728">
        <ele>80.6</ele>
        <time>2024-04-14T09:17:31Z</time>
      </trkpt>
      <trkpt lat="47.94798" lon="-0.55727">
        <ele>81.6</ele>
        <time>2024-04-14T09:17:32Z</time>
      </trkpt>
      <trkpt lat="47.94794" lon="-0.55726">
        <ele>82.8</ele>
        <time>2024-04-14T09:17:33Z</time>
      </trkpt>
      <trkpt lat="47.9479" lon="-0.55723">
        <ele>82.8</ele>
        <time>2024-04-14T09:17:34Z</time>
      </trkpt>
      <trkpt lat="47.94787" lon="-0.5572">
        <ele>82.8</ele>
        <time>2024-04-14T09:17:35Z</time>
      </trkpt>
      <trkpt lat="47.94784" lon="-0.55716">
        <ele>81.8</ele>
        <time>2024-04-14T09:17:36Z</time>
      </trkpt>
      <trkpt lat="47.94783" lon="-0.55712">
        <ele>82.2</ele>
        <time>2024-04-14T09:17:37Z</time>
      </trkpt>
      <trkpt lat="47.94783" lon="-0.55707">
        <ele>82.2</ele>
        <time>2024-04-14T09:17:38Z</time>
      </trkpt>
      <trkpt lat="47.94782" lon="-0.55702">
        <ele>82.2</ele>
        <time>2024-04-14T09:17:39Z</time>
      </trkpt>
      <trkpt lat="47.94782" lon="-0.55697">
        <ele>82.2</ele>
        <time>2024-04-14T09:17:40Z</time>
      </trkpt>
      <trkpt lat="47.94781" lon="-0.55692">
        <ele>80.8</ele>
        <time>2024-04-14T09:17:41Z</time>
      </trkpt>
      <trkpt lat="47.9478" lon="-0.55686">
        <ele>80.8</ele>
        <time>2024-04-14T09:17:42Z</time>
      </trkpt>
      <trkpt lat="47.9478" lon="-0.55681">
        <ele>80.8</ele>
        <time>2024-04-14T09:17:43Z</time>
      </trkpt>
      <trkpt lat="47.94779" lon="-0.55675">
        <ele>80.8</ele>
        <time>2024-04-14T09:17:44Z</time>
      </trkpt>
      <trkpt lat="47.94779" lon="-0.55669">
        <ele>82.6</ele>
        <time>2024-04-14T09:17:45Z</time>
      </trkpt>
      <trkpt lat="47.94779" lon="-0.55663">
        <ele>82.6</ele>
        <time>2024-04-14T09:17:46Z</time>
      </trkpt>
      <trkpt lat="47.94779" lon="-0.55657">
        <ele>82.6</ele>
        <time>2024-04-14T09:17:47Z</time>
      </trkpt>
      <trkpt lat="47.94779" lon="-0.55651">
        <ele>82.6</ele>
        <time>2024-04-14T09:17:48Z</time>
      </trkpt>
      <trkpt lat="47.94779" lon="-0.55645">
        <ele>81.8</ele>
        <time>2024-04-14T09:17:49Z</time>
      </trkpt>
      <trkpt lat="47.94779" lon="-0.55639">
        <ele>81.8</ele>
        <time>2024-04-14T09:17:50Z</time>
      </trkpt>
      <trkpt lat="47.94778" lon="-0.55634">
        <ele>81.8</ele>
        <time>2024-04-14T09:17:51Z</time>
      </trkpt>
      <trkpt lat="47.94778" lon="-0.55628">
        <ele>81.8</ele>
        <time>2024-04-14T09:17:52Z</time>
      </trkpt>
      <trkpt lat="47.94777" lon="-0.55622">
        <ele>82</ele>
        <time>2024-04-14T09:17:53Z</time>
      </trkpt>
      <trkpt lat="47.94776" lon="-0.55616">
        <ele>82</ele>
        <time>2024-04-14T09:17:54Z</time>
      </trkpt>
      <trkpt lat="47.94773" lon="-0.55612">
        <ele>82</ele>
        <time>2024-04-14T09:17:55Z</time>
      </trkpt>
      <trkpt lat="47.9477" lon="-0.55609">
        <ele>82</ele>
        <time>2024-04-14T09:17:56Z</time>
      </trkpt>
      <trkpt lat="47.94765" lon="-0.55608">
        <ele>82</ele>
        <time>2024-04-14T09:17:57Z</time>
      </trkpt>
      <trkpt lat="47.94762" lon="-0.55608">
        <ele>82</ele>
        <time>2024-04-14T09:17:58Z</time>
      </trkpt>
      <trkpt lat="47.94758" lon="-0.5561">
        <ele>82</ele>
        <time>2024-04-14T09:17:59Z</time>
      </trkpt>
      <trkpt lat="47.94754" lon="-0.55612">
        <ele>82.8</ele>
        <time>2024-04-14T09:18:00Z</time>
      </trkpt>
      <trkpt lat="47.9475" lon="-0.55614">
        <ele>82.8</ele>
        <time>2024-04-14T09:18:01Z</time>
      </trkpt>
      <trkpt lat="47.94746" lon="-0.55615">
        <ele>82.8</ele>
        <time>2024-04-14T09:18:02Z</time>
      </trkpt>
      <trkpt lat="47.94742" lon="-0.55616">
        <ele>82.8</ele>
        <time>2024-04-14T09:18:03Z</time>
      </trkpt>
      <trkpt lat="47.94738" lon="-0.55618">
        <ele>82.8</ele>
        <time>2024-04-14T09:18:04Z</time>
      </trkpt>
      <trkpt lat="47.94733" lon="-0.5562">
        <ele>83</ele>
        <time>2024-04-14T09:18:05Z</time>
      </trkpt>
      <trkpt lat="47.94729" lon="-0.55622">
        <ele>83</ele>
        <time>2024-04-14T09:18:06Z</time>
      </trkpt>
      <trkpt lat="47.94725" lon="-0.55624">
        <ele>83</ele>
        <time>2024-04-14T09:18:07Z</time>
      </trkpt>
      <trkpt lat="47.9472" lon="-0.55626">
        <ele>82</ele>
        <time>2024-04-14T09:18:08Z</time>
      </trkpt>
      <trkpt lat="47.94716" lon="-0.55628">
        <ele>81.4</ele>
        <time>2024-04-14T09:18:09Z</time>
      </trkpt>
      <trkpt lat="47.94712" lon="-0.55632">
        <ele>81.4</ele>
        <time>2024-04-14T09:18:10Z</time>
      </trkpt>
      <trkpt lat="47.94708" lon="-0.55635">
        <ele>81.4</ele>
        <time>2024-04-14T09:18:11Z</time>
      </trkpt>
      <trkpt lat="47.94705" lon="-0.55638">
        <ele>80.4</ele>
        <time>2024-04-14T09:18:12Z</time>
      </trkpt>
      <trkpt lat="47.94701" lon="-0.5564">
        <ele>81.8</ele>
        <time>2024-04-14T09:18:13Z</time>
      </trkpt>
      <trkpt lat="47.94698" lon="-0.55641">
        <ele>81.8</ele>
        <time>2024-04-14T09:18:14Z</time>
      </trkpt>
      <trkpt lat="47.94694" lon="-0.55641">
        <ele>81.8</ele>
        <time>2024-04-14T09:18:15Z</time>
      </trkpt>
      <trkpt lat="47.9469" lon="-0.55642">
        <ele>80.8</ele>
        <time>2024-04-14T09:18:16Z</time>
      </trkpt>
      <trkpt lat="47.94686" lon="-0.55643">
        <ele>80</ele>
        <time>2024-04-14T09:18:17Z</time>
      </trkpt>
      <trkpt lat="47.94682" lon="-0.55646">
        <ele>80</ele>
        <time>2024-04-14T09:18:18Z</time>
      </trkpt>
      <trkpt lat="47.94678" lon="-0.55648">
        <ele>80</ele>
        <time>2024-04-14T09:18:19Z</time>
      </trkpt>
      <trkpt lat="47.94675" lon="-0.5565">
        <ele>80</ele>
        <time>2024-04-14T09:18:20Z</time>
      </trkpt>
      <trkpt lat="47.94671" lon="-0.55652">
        <ele>80.2</ele>
        <time>2024-04-14T09:18:21Z</time>
      </trkpt>
      <trkpt lat="47.94666" lon="-0.55654">
        <ele>80.2</ele>
        <time>2024-04-14T09:18:22Z</time>
      </trkpt>
      <trkpt lat="47.94662" lon="-0.55655">
        <ele>80.2</ele>
        <time>2024-04-14T09:18:23Z</time>
      </trkpt>
      <trkpt lat="47.94657" lon="-0.55657">
        <ele>79.2</ele>
        <time>2024-04-14T09:18:24Z</time>
      </trkpt>
      <trkpt lat="47.94653" lon="-0.55657">
        <ele>78.2</ele>
        <time>2024-04-14T09:18:25Z</time>
      </trkpt>
      <trkpt lat="47.94649" lon="-0.55658">
        <ele>78.2</ele>
        <time>2024-04-14T09:18:26Z</time>
      </trkpt>
      <trkpt lat="47.94645" lon="-0.5566">
        <ele>78.2</ele>
        <time>2024-04-14T09:18:27Z</time>
      </trkpt>
      <trkpt lat="47.94641" lon="-0.55661">
        <ele>78.2</ele>
        <time>2024-04-14T09:18:28Z</time>
      </trkpt>
      <trkpt lat="47.94637" lon="-0.55661">
        <ele>74.4</ele>
        <time>2024-04-14T09:18:29Z</time>
      </trkpt>
      <trkpt lat="47.94633" lon="-0.5566">
        <ele>74.4</ele>
        <time>2024-04-14T09:18:30Z</time>
      </trkpt>
      <trkpt lat="47.9463" lon="-0.55657">
        <ele>74.4</ele>
        <time>2024-04-14T09:18:31Z</time>
      </trkpt>
      <trkpt lat="47.94628" lon="-0.55654">
        <ele>74.4</ele>
        <time>2024-04-14T09:18:32Z</time>
      </trkpt>
      <trkpt lat="47.94625" lon="-0.55651">
        <ele>72</ele>
        <time>2024-04-14T09:18:33Z</time>
      </trkpt>
      <trkpt lat="47.94623" lon="-0.55647">
        <ele>72</ele>
        <time>2024-04-14T09:18:34Z</time>
      </trkpt>
      <trkpt lat="47.94621" lon="-0.55643">
        <ele>72</ele>
        <time>2024-04-14T09:18:35Z</time>
      </trkpt>
      <trkpt lat="47.94619" lon="-0.55639">
        <ele>73</ele>
        <time>2024-04-14T09:18:36Z</time>
      </trkpt>
      <trkpt lat="47.94617" lon="-0.55635">
        <ele>72.6</ele>
        <time>2024-04-14T09:18:37Z</time>
      </trkpt>
      <trkpt lat="47.94615" lon="-0.55631">
        <ele>72.6</ele>
        <time>2024-04-14T09:18:38Z</time>
      </trkpt>
      <trkpt lat="47.94613" lon="-0.55627">
        <ele>72.6</ele>
        <time>2024-04-14T09:18:39Z</time>
      </trkpt>
      <trkpt lat="47.94611" lon="-0.55623">
        <ele>73.2</ele>
        <time>2024-04-14T09:18:40Z</time>
      </trkpt>
      <trkpt lat="47.94609" lon="-0.55618">
        <ele>72.8</ele>
        <time>2024-04-14T09:18:41Z</time>
      </trkpt>
      <trkpt lat="47.94606" lon="-0.55614">
        <ele>72.8</ele>
        <time>2024-04-14T09:18:42Z</time>
      </trkpt>
      <trkpt lat="47.94604" lon="-0.5561">
        <ele>72.8</ele>
        <time>2024-04-14T09:18:43Z</time>
      </trkpt>
      <trkpt lat="47.94602" lon="-0.55605">
        <ele>72.8</ele>
        <time>2024-04-14T09:18:44Z</time>
      </trkpt>
      <trkpt lat="47.94599" lon="-0.556">
        <ele>73.2</ele>
        <time>2024-04-14T09:18:45Z</time>
      </trkpt>
      <trkpt lat="47.94597" lon="-0.55596">
        <ele>73.2</ele>
        <time>2024-04-14T09:18:46Z</time>
      </trkpt>
      <trkpt lat="47.94595" lon="-0.55592">
        <ele>73.2</ele>
        <time>2024-04-14T09:18:47Z</time>
      </trkpt>
      <trkpt lat="47.94592" lon="-0.55588">
        <ele>73.2</ele>
        <time>2024-04-14T09:18:48Z</time>
      </trkpt>
      <trkpt lat="47.94589" lon="-0.55584">
        <ele>73</ele>
        <time>2024-04-14T09:18:49Z</time>
      </trkpt>
      <trkpt lat="47.94587" lon="-0.55579">
        <ele>73</ele>
        <time>2024-04-14T09:18:50Z</time>
      </trkpt>
      <trkpt lat="47.94585" lon="-0.55574">
        <ele>73</ele>
        <time>2024-04-14T09:18:51Z</time>
      </trkpt>
      <trkpt lat="47.94583" lon="-0.5557">
        <ele>73</ele>
        <time>2024-04-14T09:18:52Z</time>
      </trkpt>
      <trkpt lat="47.94581" lon="-0.55566">
        <ele>73.8</ele>
        <time>2024-04-14T09:18:53Z</time>
      </trkpt>
      <trkpt lat="47.94579" lon="-0.55561">
        <ele>73.8</ele>
        <time>2024-04-14T09:18:54Z</time>
      </trkpt>
      <trkpt lat="47.94577" lon="-0.55556">
        <ele>73.8</ele>
        <time>2024-04-14T09:18:55Z</time>
      </trkpt>
      <trkpt lat="47.94574" lon="-0.55552">
        <ele>73.8</ele>
        <time>2024-04-14T09:18:56Z</time>
      </trkpt>
      <trkpt lat="47.94572" lon="-0.55548">
        <ele>72.6</ele>
        <time>2024-04-14T09:18:57Z</time>
      </trkpt>
      <trkpt lat="47.9457" lon="-0.55544">
        <ele>72.6</ele>
        <time>2024-04-14T09:18:58Z</time>
      </trkpt>
      <trkpt lat="47.94568" lon="-0.55539">
        <ele>72.6</ele>
        <time>2024-04-14T09:18:59Z</time>
      </trkpt>
      <trkpt lat="47.94566" lon="-0.55534">
        <ele>73.6</ele>
        <time>2024-04-14T09:19:00Z</time>
      </trkpt>
      <trkpt lat="47.94563" lon="-0.5553">
        <ele>73.8</ele>
        <time>2024-04-14T09:19:01Z</time>
      </trkpt>
      <trkpt lat="47.94561" lon="-0.55526">
        <ele>73.8</ele>
        <time>2024-04-14T09:19:02Z</time>
      </trkpt>
      <trkpt lat="47.94559" lon="-0.55521">
        <ele>73.8</ele>
        <time>2024-04-14T09:19:03Z</time>
      </trkpt>
      <trkpt lat="47.94556" lon="-0.55517">
        <ele>73.8</ele>
        <time>2024-04-14T09:19:04Z</time>
      </trkpt>
      <trkpt lat="47.94554" lon="-0.55513">
        <ele>74.6</ele>
        <time>2024-04-14T09:19:05Z</time>
      </trkpt>
      <trkpt lat="47.94552" lon="-0.55508">
        <ele>74.6</ele>
        <time>2024-04-14T09:19:06Z</time>
      </trkpt>
      <trkpt lat="47.9455" lon="-0.55504">
        <ele>74.6</ele>
        <time>2024-04-14T09:19:07Z</time>
      </trkpt>
      <trkpt lat="47.94548" lon="-0.555">
        <ele>74.6</ele>
        <time>2024-04-14T09:19:08Z</time>
      </trkpt>
      <trkpt lat="47.94546" lon="-0.55496">
        <ele>73.4</ele>
        <time>2024-04-14T09:19:09Z</time>
      </trkpt>
      <trkpt lat="47.94544" lon="-0.55492">
        <ele>73.4</ele>
        <time>2024-04-14T09:19:10Z</time>
      </trkpt>
      <trkpt lat="47.94543" lon="-0.55486">
        <ele>73.4</ele>
        <time>2024-04-14T09:19:11Z</time>
      </trkpt>
      <trkpt lat="47.9454" lon="-0.55482">
        <ele>73.4</ele>
        <time>2024-04-14T09:19:12Z</time>
      </trkpt>
      <trkpt lat="47.94538" lon="-0.55477">
        <ele>73.4</ele>
        <time>2024-04-14T09:19:13Z</time>
      </trkpt>
      <trkpt lat="47.94536" lon="-0.55472">
        <ele>73.4</ele>
        <time>2024-04-14T09:19:14Z</time>
      </trkpt>
      <trkpt lat="47.94535" lon="-0.55467">
        <ele>73.4</ele>
        <time>2024-04-14T09:19:15Z</time>
      </trkpt>
      <trkpt lat="47.94533" lon="-0.55462">
        <ele>74.4</ele>
        <time>2024-04-14T09:19:16Z</time>
      </trkpt>
      <trkpt lat="47.94532" lon="-0.55457">
        <ele>74.2</ele>
        <time>2024-04-14T09:19:17Z</time>
      </trkpt>
      <trkpt lat="47.9453" lon="-0.55453">
        <ele>74.2</ele>
        <time>2024-04-14T09:19:18Z</time>
      </trkpt>
      <trkpt lat="47.94528" lon="-0.55448">
        <ele>74.2</ele>
        <time>2024-04-14T09:19:19Z</time>
      </trkpt>
      <trkpt lat="47.94527" lon="-0.55443">
        <ele>73.6</ele>
        <time>2024-04-14T09:19:20Z</time>
      </trkpt>
      <trkpt lat="47.94525" lon="-0.55439">
        <ele>74.2</ele>
        <time>2024-04-14T09:19:21Z</time>
      </trkpt>
      <trkpt lat="47.94524" lon="-0.55434">
        <ele>74.2</ele>
        <time>2024-04-14T09:19:22Z</time>
      </trkpt>
      <trkpt lat="47.94522" lon="-0.55429">
        <ele>74.2</ele>
        <time>2024-04-14T09:19:23Z</time>
      </trkpt>
      <trkpt lat="47.9452" lon="-0.55424">
        <ele>73.6</ele>
        <time>2024-04-14T09:19:24Z</time>
      </trkpt>
      <trkpt lat="47.94519" lon="-0.5542">
        <ele>72.6</ele>
        <time>2024-04-14T09:19:25Z</time>
      </trkpt>
      <trkpt lat="47.94516" lon="-0.55415">
        <ele>72.6</ele>
        <time>2024-04-14T09:19:26Z</time>
      </trkpt>
      <trkpt lat="47.94514" lon="-0.5541">
        <ele>72.6</ele>
        <time>2024-04-14T09:19:27Z</time>
      </trkpt>
      <trkpt lat="47.94512" lon="-0.55406">
        <ele>73.6</ele>
        <time>2024-04-14T09:19:28Z</time>
      </trkpt>
      <trkpt lat="47.9451" lon="-0.55401">
        <ele>73.6</ele>
        <time>2024-04-14T09:19:29Z</time>
      </trkpt>
      <trkpt lat="47.94508" lon="-0.55397">
        <ele>73.6</ele>
        <time>2024-04-14T09:19:30Z</time>
      </trkpt>
      <trkpt lat="47.94506" lon="-0.55392">
        <ele>73.6</ele>
        <time>2024-04-14T09:19:31Z</time>
      </trkpt>
      <trkpt lat="47.94505" lon="-0.55387">
        <ele>73.6</ele>
        <time>2024-04-14T09:19:32Z</time>
      </trkpt>
      <trkpt lat="47.94504" lon="-0.55382">
        <ele>73.8</ele>
        <time>2024-04-14T09:19:33Z</time>
      </trkpt>
      <trkpt lat="47.94502" lon="-0.55378">
        <ele>73.8</ele>
        <time>2024-04-14T09:19:34Z</time>
      </trkpt>
      <trkpt lat="47.94501" lon="-0.55374">
        <ele>73.8</ele>
        <time>2024-04-14T09:19:35Z</time>
      </trkpt>
      <trkpt lat="47.945" lon="-0.55369">
        <ele>73.8</ele>
        <time>2024-04-14T09:19:36Z</time>
      </trkpt>
      <trkpt lat="47.94498" lon="-0.55364">
        <ele>73.4</ele>
        <time>2024-04-14T09:19:37Z</time>
      </trkpt>
      <trkpt lat="47.94497" lon="-0.55359">
        <ele>73.4</ele>
        <time>2024-04-14T09:19:38Z</time>
      </trkpt>
      <trkpt lat="47.94495" lon="-0.55354">
        <ele>73.4</ele>
        <time>2024-04-14T09:19:39Z</time>
      </trkpt>
      <trkpt lat="47.94494" lon="-0.55349">
        <ele>74.4</ele>
        <time>2024-04-14T09:19:40Z</time>
      </trkpt>
      <trkpt lat="47.94493" lon="-0.55344">
        <ele>74.8</ele>
        <time>2024-04-14T09:19:41Z</time>
      </trkpt>
      <trkpt lat="47.94493" lon="-0.55338">
        <ele>74.8</ele>
        <time>2024-04-14T09:19:42Z</time>
      </trkpt>
      <trkpt lat="47.94492" lon="-0.55333">
        <ele>74.8</ele>
        <time>2024-04-14T09:19:43Z</time>
      </trkpt>
      <trkpt lat="47.94491" lon="-0.55328">
        <ele>73.8</ele>
        <time>2024-04-14T09:19:44Z</time>
      </trkpt>
      <trkpt lat="47.94491" lon="-0.55322">
        <ele>74.2</ele>
        <time>2024-04-14T09:19:45Z</time>
      </trkpt>
      <trkpt lat="47.94491" lon="-0.55316">
        <ele>74.2</ele>
        <time>2024-04-14T09:19:46Z</time>
      </trkpt>
      <trkpt lat="47.9449" lon="-0.55311">
        <ele>74.2</ele>
        <time>2024-04-14T09:19:47Z</time>
      </trkpt>
      <trkpt lat="47.94491" lon="-0.55304">
        <ele>74.2</ele>
        <time>2024-04-14T09:19:48Z</time>
      </trkpt>
      <trkpt lat="47.94491" lon="-0.55298">
        <ele>73.4</ele>
        <time>2024-04-14T09:19:49Z</time>
      </trkpt>
      <trkpt lat="47.94492" lon="-0.55292">
        <ele>73.4</ele>
        <time>2024-04-14T09:19:50Z</time>
      </trkpt>
      <trkpt lat="47.94493" lon="-0.55286">
        <ele>73.4</ele>
        <time>2024-04-14T09:19:51Z</time>
      </trkpt>
      <trkpt lat="47.94494" lon="-0.5528">
        <ele>73.4</ele>
        <time>2024-04-14T09:19:52Z</time>
      </trkpt>
      <trkpt lat="47.94495" lon="-0.55275">
        <ele>73.4</ele>
        <time>2024-04-14T09:19:53Z</time>
      </trkpt>
      <trkpt lat="47.94496" lon="-0.55269">
        <ele>73.4</ele>
        <time>2024-04-14T09:19:54Z</time>
      </trkpt>
      <trkpt lat="47.94497" lon="-0.55264">
        <ele>73.4</ele>
        <time>2024-04-14T09:19:55Z</time>
      </trkpt>
      <trkpt lat="47.94498" lon="-0.55258">
        <ele>73.4</ele>
        <time>2024-04-14T09:19:56Z</time>
      </trkpt>
      <trkpt lat="47.94498" lon="-0.55253">
        <ele>72.8</ele>
        <time>2024-04-14T09:19:57Z</time>
      </trkpt>
      <trkpt lat="47.945" lon="-0.55247">
        <ele>72.8</ele>
        <time>2024-04-14T09:19:58Z</time>
      </trkpt>
      <trkpt lat="47.94501" lon="-0.55242">
        <ele>72.8</ele>
        <time>2024-04-14T09:19:59Z</time>
      </trkpt>
      <trkpt lat="47.94502" lon="-0.55237">
        <ele>73.4</ele>
        <time>2024-04-14T09:20:00Z</time>
      </trkpt>
      <trkpt lat="47.94503" lon="-0.55232">
        <ele>72.6</ele>
        <time>2024-04-14T09:20:01Z</time>
      </trkpt>
      <trkpt lat="47.94504" lon="-0.55227">
        <ele>72.6</ele>
        <time>2024-04-14T09:20:02Z</time>
      </trkpt>
      <trkpt lat="47.94504" lon="-0.55222">
        <ele>72.6</ele>
        <time>2024-04-14T09:20:03Z</time>
      </trkpt>
      <trkpt lat="47.94505" lon="-0.55216">
        <ele>73.6</ele>
        <time>2024-04-14T09:20:04Z</time>
      </trkpt>
      <trkpt lat="47.94506" lon="-0.55211">
        <ele>73.6</ele>
        <time>2024-04-14T09:20:05Z</time>
      </trkpt>
      <trkpt lat="47.94507" lon="-0.55205">
        <ele>73.6</ele>
        <time>2024-04-14T09:20:06Z</time>
      </trkpt>
      <trkpt lat="47.94508" lon="-0.552">
        <ele>73.6</ele>
        <time>2024-04-14T09:20:07Z</time>
      </trkpt>
      <trkpt lat="47.94509" lon="-0.55194">
        <ele>74.4</ele>
        <time>2024-04-14T09:20:08Z</time>
      </trkpt>
      <trkpt lat="47.9451" lon="-0.55189">
        <ele>73.2</ele>
        <time>2024-04-14T09:20:09Z</time>
      </trkpt>
      <trkpt lat="47.9451" lon="-0.55184">
        <ele>73.2</ele>
        <time>2024-04-14T09:20:10Z</time>
      </trkpt>
      <trkpt lat="47.9451" lon="-0.55179">
        <ele>73.2</ele>
        <time>2024-04-14T09:20:11Z</time>
      </trkpt>
      <trkpt lat="47.94509" lon="-0.55175">
        <ele>73.2</ele>
        <time>2024-04-14T09:20:12Z</time>
      </trkpt>
      <trkpt lat="47.94508" lon="-0.5517">
        <ele>71.8</ele>
        <time>2024-04-14T09:20:13Z</time>
      </trkpt>
      <trkpt lat="47.94508" lon="-0.55164">
        <ele>71.8</ele>
        <time>2024-04-14T09:20:14Z</time>
      </trkpt>
      <trkpt lat="47.94506" lon="-0.55159">
        <ele>71.8</ele>
        <time>2024-04-14T09:20:15Z</time>
      </trkpt>
      <trkpt lat="47.94506" lon="-0.55155">
        <ele>71.8</ele>
        <time>2024-04-14T09:20:16Z</time>
      </trkpt>
      <trkpt lat="47.94507" lon="-0.55151">
        <ele>72.8</ele>
        <time>2024-04-14T09:20:17Z</time>
      </trkpt>
      <trkpt lat="47.94509" lon="-0.55148">
        <ele>72.8</ele>
        <time>2024-04-14T09:20:18Z</time>
      </trkpt>
      <trkpt lat="47.94512" lon="-0.55146">
        <ele>72.8</ele>
        <time>2024-04-14T09:20:19Z</time>
      </trkpt>
      <trkpt lat="47.94515" lon="-0.55146">
        <ele>72.8</ele>
        <time>2024-04-14T09:20:20Z</time>
      </trkpt>
      <trkpt lat="47.94519" lon="-0.55146">
        <ele>73.6</ele>
        <time>2024-04-14T09:20:21Z</time>
      </trkpt>
      <trkpt lat="47.94522" lon="-0.55146">
        <ele>73.6</ele>
        <time>2024-04-14T09:20:22Z</time>
      </trkpt>
      <trkpt lat="47.94526" lon="-0.55146">
        <ele>73.6</ele>
        <time>2024-04-14T09:20:23Z</time>
      </trkpt>
      <trkpt lat="47.94529" lon="-0.55146">
        <ele>73.6</ele>
        <time>2024-04-14T09:20:24Z</time>
      </trkpt>
      <trkpt lat="47.94532" lon="-0.55146">
        <ele>74.6</ele>
        <time>2024-04-14T09:20:25Z</time>
      </trkpt>
      <trkpt lat="47.94536" lon="-0.55146">
        <ele>74.6</ele>
        <time>2024-04-14T09:20:26Z</time>
      </trkpt>
      <trkpt lat="47.94539" lon="-0.55146">
        <ele>74.6</ele>
        <time>2024-04-14T09:20:27Z</time>
      </trkpt>
      <trkpt lat="47.94543" lon="-0.55146">
        <ele>74.6</ele>
        <time>2024-04-14T09:20:28Z</time>
      </trkpt>
      <trkpt lat="47.94546" lon="-0.55145">
        <ele>75</ele>
        <time>2024-04-14T09:20:29Z</time>
      </trkpt>
      <trkpt lat="47.94549" lon="-0.55143">
        <ele>75</ele>
        <time>2024-04-14T09:20:30Z</time>
      </trkpt>
      <trkpt lat="47.94552" lon="-0.55141">
        <ele>75</ele>
        <time>2024-04-14T09:20:31Z</time>
      </trkpt>
      <trkpt lat="47.94555" lon="-0.55138">
        <ele>75.8</ele>
        <time>2024-04-14T09:20:32Z</time>
      </trkpt>
      <trkpt lat="47.94558" lon="-0.55136">
        <ele>75.4</ele>
        <time>2024-04-14T09:20:33Z</time>
      </trkpt>
      <trkpt lat="47.94562" lon="-0.55135">
        <ele>75.4</ele>
        <time>2024-04-14T09:20:34Z</time>
      </trkpt>
      <trkpt lat="47.94565" lon="-0.55135">
        <ele>75.4</ele>
        <time>2024-04-14T09:20:35Z</time>
      </trkpt>
      <trkpt lat="47.94568" lon="-0.55135">
        <ele>76</ele>
        <time>2024-04-14T09:20:36Z</time>
      </trkpt>
      <trkpt lat="47.94572" lon="-0.55135">
        <ele>76.2</ele>
        <time>2024-04-14T09:20:37Z</time>
      </trkpt>
      <trkpt lat="47.94575" lon="-0.55135">
        <ele>76.2</ele>
        <time>2024-04-14T09:20:38Z</time>
      </trkpt>
      <trkpt lat="47.94579" lon="-0.55135">
        <ele>76.2</ele>
        <time>2024-04-14T09:20:39Z</time>
      </trkpt>
      <trkpt lat="47.94582" lon="-0.55136">
        <ele>76.8</ele>
        <time>2024-04-14T09:20:40Z</time>
      </trkpt>
      <trkpt lat="47.94585" lon="-0.55136">
        <ele>76.8</ele>
        <time>2024-04-14T09:20:41Z</time>
      </trkpt>
      <trkpt lat="47.94589" lon="-0.55137">
        <ele>76.8</ele>
        <time>2024-04-14T09:20:42Z</time>
      </trkpt>
      <trkpt lat="47.94592" lon="-0.55138">
        <ele>76.8</ele>
        <time>2024-04-14T09:20:43Z</time>
      </trkpt>
      <trkpt lat="47.94595" lon="-0.55138">
        <ele>77.6</ele>
        <time>2024-04-14T09:20:44Z</time>
      </trkpt>
      <trkpt lat="47.94598" lon="-0.55138">
        <ele>78.4</ele>
        <time>2024-04-14T09:20:45Z</time>
      </trkpt>
      <trkpt lat="47.94601" lon="-0.55137">
        <ele>78.4</ele>
        <time>2024-04-14T09:20:46Z</time>
      </trkpt>
      <trkpt lat="47.94604" lon="-0.55135">
        <ele>78.4</ele>
        <time>2024-04-14T09:20:47Z</time>
      </trkpt>
      <trkpt lat="47.94606" lon="-0.55131">
        <ele>78.8</ele>
        <time>2024-04-14T09:20:48Z</time>
      </trkpt>
      <trkpt lat="47.94607" lon="-0.55127">
        <ele>79.2</ele>
        <time>2024-04-14T09:20:49Z</time>
      </trkpt>
      <trkpt lat="47.94608" lon="-0.55122">
        <ele>79.2</ele>
        <time>2024-04-14T09:20:50Z</time>
      </trkpt>
      <trkpt lat="47.94609" lon="-0.55117">
        <ele>79.2</ele>
        <time>2024-04-14T09:20:51Z</time>
      </trkpt>
      <trkpt lat="47.94609" lon="-0.55112">
        <ele>80</ele>
        <time>2024-04-14T09:20:52Z</time>
      </trkpt>
      <trkpt lat="47.94609" lon="-0.55106">
        <ele>80</ele>
        <time>2024-04-14T09:20:53Z</time>
      </trkpt>
      <trkpt lat="47.94609" lon="-0.55101">
        <ele>80</ele>
        <time>2024-04-14T09:20:54Z</time>
      </trkpt>
      <trkpt lat="47.94609" lon="-0.55096">
        <ele>80</ele>
        <time>2024-04-14T09:20:55Z</time>
      </trkpt>
      <trkpt lat="47.94609" lon="-0.55092">
        <ele>80.8</ele>
        <time>2024-04-14T09:20:56Z</time>
      </trkpt>
      <trkpt lat="47.94608" lon="-0.55087">
        <ele>80.6</ele>
        <time>2024-04-14T09:20:57Z</time>
      </trkpt>
      <trkpt lat="47.94608" lon="-0.55082">
        <ele>80.6</ele>
        <time>2024-04-14T09:20:58Z</time>
      </trkpt>
      <trkpt lat="47.94608" lon="-0.55078">
        <ele>80.6</ele>
        <time>2024-04-14T09:20:59Z</time>
      </trkpt>
      <trkpt lat="47.94607" lon="-0.55073">
        <ele>80.2</ele>
        <time>2024-04-14T09:21:00Z</time>
      </trkpt>
      <trkpt lat="47.94607" lon="-0.55068">
        <ele>79.6</ele>
        <time>2024-04-14T09:21:01Z</time>
      </trkpt>
      <trkpt lat="47.94606" lon="-0.55062">
        <ele>79.6</ele>
        <time>2024-04-14T09:21:02Z</time>
      </trkpt>
      <trkpt lat="47.94606" lon="-0.55055">
        <ele>79.6</ele>
        <time>2024-04-14T09:21:03Z</time>
      </trkpt>
      <trkpt lat="47.94606" lon="-0.55049">
        <ele>79</ele>
        <time>2024-04-14T09:21:04Z</time>
      </trkpt>
      <trkpt lat="47.94606" lon="-0.55043">
        <ele>78.6</ele>
        <time>2024-04-14T09:21:05Z</time>
      </trkpt>
      <trkpt lat="47.94607" lon="-0.55037">
        <ele>78.6</ele>
        <time>2024-04-14T09:21:06Z</time>
      </trkpt>
      <trkpt lat="47.94607" lon="-0.5503">
        <ele>78.6</ele>
        <time>2024-04-14T09:21:07Z</time>
      </trkpt>
      <trkpt lat="47.94607" lon="-0.55023">
        <ele>77.6</ele>
        <time>2024-04-14T09:21:08Z</time>
      </trkpt>
      <trkpt lat="47.94607" lon="-0.55016">
        <ele>78</ele>
        <time>2024-04-14T09:21:09Z</time>
      </trkpt>
      <trkpt lat="47.94607" lon="-0.55009">
        <ele>78</ele>
        <time>2024-04-14T09:21:10Z</time>
      </trkpt>
      <trkpt lat="47.94607" lon="-0.55001">
        <ele>78</ele>
        <time>2024-04-14T09:21:11Z</time>
      </trkpt>
      <trkpt lat="47.94606" lon="-0.54994">
        <ele>77.2</ele>
        <time>2024-04-14T09:21:12Z</time>
      </trkpt>
      <trkpt lat="47.94606" lon="-0.54985">
        <ele>77.6</ele>
        <time>2024-04-14T09:21:13Z</time>
      </trkpt>
      <trkpt lat="47.94606" lon="-0.54977">
        <ele>77.6</ele>
        <time>2024-04-14T09:21:14Z</time>
      </trkpt>
      <trkpt lat="47.94605" lon="-0.54969">
        <ele>77.6</ele>
        <time>2024-04-14T09:21:15Z</time>
      </trkpt>
      <trkpt lat="47.94605" lon="-0.5496">
        <ele>77.6</ele>
        <time>2024-04-14T09:21:16Z</time>
      </trkpt>
      <trkpt lat="47.94607" lon="-0.54952">
        <ele>75.4</ele>
        <time>2024-04-14T09:21:17Z</time>
      </trkpt>
      <trkpt lat="47.94612" lon="-0.54947">
        <ele>75.4</ele>
        <time>2024-04-14T09:21:18Z</time>
      </trkpt>
      <trkpt lat="47.94617" lon="-0.54944">
        <ele>75.4</ele>
        <time>2024-04-14T09:21:19Z</time>
      </trkpt>
      <trkpt lat="47.94622" lon="-0.54941">
        <ele>75.4</ele>
        <time>2024-04-14T09:21:20Z</time>
      </trkpt>
      <trkpt lat="47.94627" lon="-0.54939">
        <ele>75.6</ele>
        <time>2024-04-14T09:21:21Z</time>
      </trkpt>
      <trkpt lat="47.94631" lon="-0.54935">
        <ele>75.6</ele>
        <time>2024-04-14T09:21:22Z</time>
      </trkpt>
      <trkpt lat="47.94634" lon="-0.5493">
        <ele>75.6</ele>
        <time>2024-04-14T09:21:23Z</time>
      </trkpt>
      <trkpt lat="47.94636" lon="-0.54924">
        <ele>76.2</ele>
        <time>2024-04-14T09:21:24Z</time>
      </trkpt>
      <trkpt lat="47.94639" lon="-0.54919">
        <ele>76.6</ele>
        <time>2024-04-14T09:21:25Z</time>
      </trkpt>
      <trkpt lat="47.94642" lon="-0.54913">
        <ele>76.6</ele>
        <time>2024-04-14T09:21:26Z</time>
      </trkpt>
      <trkpt lat="47.94644" lon="-0.54907">
        <ele>76.6</ele>
        <time>2024-04-14T09:21:27Z</time>
      </trkpt>
      <trkpt lat="47.94647" lon="-0.54902">
        <ele>76.6</ele>
        <time>2024-04-14T09:21:28Z</time>
      </trkpt>
      <trkpt lat="47.9465" lon="-0.54896">
        <ele>77</ele>
        <time>2024-04-14T09:21:29Z</time>
      </trkpt>
      <trkpt lat="47.94652" lon="-0.5489">
        <ele>77</ele>
        <time>2024-04-14T09:21:30Z</time>
      </trkpt>
      <trkpt lat="47.94655" lon="-0.54884">
        <ele>77</ele>
        <time>2024-04-14T09:21:31Z</time>
      </trkpt>
      <trkpt lat="47.94658" lon="-0.54878">
        <ele>77</ele>
        <time>2024-04-14T09:21:32Z</time>
      </trkpt>
      <trkpt lat="47.94661" lon="-0.54872">
        <ele>76.4</ele>
        <time>2024-04-14T09:21:33Z</time>
      </trkpt>
      <trkpt lat="47.94664" lon="-0.54867">
        <ele>76.4</ele>
        <time>2024-04-14T09:21:34Z</time>
      </trkpt>
      <trkpt lat="47.94667" lon="-0.54861">
        <ele>76.4</ele>
        <time>2024-04-14T09:21:35Z</time>
      </trkpt>
      <trkpt lat="47.9467" lon="-0.54855">
        <ele>76.4</ele>
        <time>2024-04-14T09:21:36Z</time>
      </trkpt>
      <trkpt lat="47.94674" lon="-0.54849">
        <ele>76.4</ele>
        <time>2024-04-14T09:21:37Z</time>
      </trkpt>
      <trkpt lat="47.94677" lon="-0.54843">
        <ele>76.4</ele>
        <time>2024-04-14T09:21:38Z</time>
      </trkpt>
      <trkpt lat="47.94681" lon="-0.54837">
        <ele>76.4</ele>
        <time>2024-04-14T09:21:39Z</time>
      </trkpt>
      <trkpt lat="47.94684" lon="-0.5483">
        <ele>75.8</ele>
        <time>2024-04-14T09:21:40Z</time>
      </trkpt>
      <trkpt lat="47.94688" lon="-0.54824">
        <ele>76.6</ele>
        <time>2024-04-14T09:21:41Z</time>
      </trkpt>
      <trkpt lat="47.94692" lon="-0.54817">
        <ele>76.6</ele>
        <time>2024-04-14T09:21:42Z</time>
      </trkpt>
      <trkpt lat="47.94695" lon="-0.54811">
        <ele>76.6</ele>
        <time>2024-04-14T09:21:43Z</time>
      </trkpt>
      <trkpt lat="47.94698" lon="-0.54804">
        <ele>76.6</ele>
        <time>2024-04-14T09:21:44Z</time>
      </trkpt>
      <trkpt lat="47.94701" lon="-0.54797">
        <ele>75.8</ele>
        <time>2024-04-14T09:21:45Z</time>
      </trkpt>
      <trkpt lat="47.94703" lon="-0.54789">
        <ele>75.8</ele>
        <time>2024-04-14T09:21:46Z</time>
      </trkpt>
      <trkpt lat="47.94705" lon="-0.54781">
        <ele>75.8</ele>
        <time>2024-04-14T09:21:47Z</time>
      </trkpt>
      <trkpt lat="47.94707" lon="-0.54772">
        <ele>76</ele>
        <time>2024-04-14T09:21:48Z</time>
      </trkpt>
      <trkpt lat="47.94708" lon="-0.54763">
        <ele>76.2</ele>
        <time>2024-04-14T09:21:49Z</time>
      </trkpt>
      <trkpt lat="47.9471" lon="-0.54754">
        <ele>76.2</ele>
        <time>2024-04-14T09:21:50Z</time>
      </trkpt>
      <trkpt lat="47.94711" lon="-0.54746">
        <ele>76.2</ele>
        <time>2024-04-14T09:21:51Z</time>
      </trkpt>
      <trkpt lat="47.94713" lon="-0.54737">
        <ele>76.2</ele>
        <time>2024-04-14T09:21:52Z</time>
      </trkpt>
      <trkpt lat="47.94715" lon="-0.5473">
        <ele>76.8</ele>
        <time>2024-04-14T09:21:53Z</time>
      </trkpt>
      <trkpt lat="47.94718" lon="-0.54722">
        <ele>76.8</ele>
        <time>2024-04-14T09:21:54Z</time>
      </trkpt>
      <trkpt lat="47.94722" lon="-0.54716">
        <ele>76.8</ele>
        <time>2024-04-14T09:21:55Z</time>
      </trkpt>
      <trkpt lat="47.94726" lon="-0.54709">
        <ele>76.2</ele>
        <time>2024-04-14T09:21:56Z</time>
      </trkpt>
      <trkpt lat="47.9473" lon="-0.54703">
        <ele>75.4</ele>
        <time>2024-04-14T09:21:57Z</time>
      </trkpt>
      <trkpt lat="47.94733" lon="-0.54697">
        <ele>75.4</ele>
        <time>2024-04-14T09:21:58Z</time>
      </trkpt>
      <trkpt lat="47.94737" lon="-0.5469">
        <ele>75.4</ele>
        <time>2024-04-14T09:21:59Z</time>
      </trkpt>
      <trkpt lat="47.9474" lon="-0.54683">
        <ele>75.4</ele>
        <time>2024-04-14T09:22:00Z</time>
      </trkpt>
      <trkpt lat="47.94743" lon="-0.54675">
        <ele>75.4</ele>
        <time>2024-04-14T09:22:01Z</time>
      </trkpt>
      <trkpt lat="47.94745" lon="-0.54666">
        <ele>75.4</ele>
        <time>2024-04-14T09:22:02Z</time>
      </trkpt>
      <trkpt lat="47.94747" lon="-0.54658">
        <ele>75.4</ele>
        <time>2024-04-14T09:22:03Z</time>
      </trkpt>
      <trkpt lat="47.94749" lon="-0.54649">
        <ele>75.4</ele>
        <time>2024-04-14T09:22:04Z</time>
      </trkpt>
      <trkpt lat="47.94751" lon="-0.5464">
        <ele>75</ele>
        <time>2024-04-14T09:22:05Z</time>
      </trkpt>
      <trkpt lat="47.94753" lon="-0.54631">
        <ele>75</ele>
        <time>2024-04-14T09:22:06Z</time>
      </trkpt>
      <trkpt lat="47.94756" lon="-0.54623">
        <ele>75</ele>
        <time>2024-04-14T09:22:07Z</time>
      </trkpt>
      <trkpt lat="47.9476" lon="-0.54617">
        <ele>74</ele>
        <time>2024-04-14T09:22:08Z</time>
      </trkpt>
      <trkpt lat="47.94765" lon="-0.54613">
        <ele>74</ele>
        <time>2024-04-14T09:22:09Z</time>
      </trkpt>
      <trkpt lat="47.9477" lon="-0.5461">
        <ele>74</ele>
        <time>2024-04-14T09:22:10Z</time>
      </trkpt>
      <trkpt lat="47.94776" lon="-0.54609">
        <ele>74</ele>
        <time>2024-04-14T09:22:11Z</time>
      </trkpt>
      <trkpt lat="47.94782" lon="-0.54609">
        <ele>75</ele>
        <time>2024-04-14T09:22:12Z</time>
      </trkpt>
      <trkpt lat="47.94787" lon="-0.5461">
        <ele>76.8</ele>
        <time>2024-04-14T09:22:13Z</time>
      </trkpt>
      <trkpt lat="47.94793" lon="-0.5461">
        <ele>76.8</ele>
        <time>2024-04-14T09:22:14Z</time>
      </trkpt>
      <trkpt lat="47.94799" lon="-0.5461">
        <ele>76.8</ele>
        <time>2024-04-14T09:22:15Z</time>
      </trkpt>
      <trkpt lat="47.94804" lon="-0.54609">
        <ele>76.8</ele>
        <time>2024-04-14T09:22:16Z</time>
      </trkpt>
      <trkpt lat="47.9481" lon="-0.5461">
        <ele>76.8</ele>
        <time>2024-04-14T09:22:17Z</time>
      </trkpt>
      <trkpt lat="47.94816" lon="-0.54611">
        <ele>76.8</ele>
        <time>2024-04-14T09:22:18Z</time>
      </trkpt>
      <trkpt lat="47.94821" lon="-0.54611">
        <ele>76.8</ele>
        <time>2024-04-14T09:22:19Z</time>
      </trkpt>
      <trkpt lat="47.94827" lon="-0.54611">
        <ele>77.8</ele>
        <time>2024-04-14T09:22:20Z</time>
      </trkpt>
      <trkpt lat="47.94832" lon="-0.54611">
        <ele>79</ele>
        <time>2024-04-14T09:22:21Z</time>
      </trkpt>
      <trkpt lat="47.94837" lon="-0.54611">
        <ele>79</ele>
        <time>2024-04-14T09:22:22Z</time>
      </trkpt>
      <trkpt lat="47.94843" lon="-0.54612">
        <ele>79</ele>
        <time>2024-04-14T09:22:23Z</time>
      </trkpt>
      <trkpt lat="47.94848" lon="-0.54612">
        <ele>79</ele>
        <time>2024-04-14T09:22:24Z</time>
      </trkpt>
      <trkpt lat="47.94854" lon="-0.54612">
        <ele>79.4</ele>
        <time>2024-04-14T09:22:25Z</time>
      </trkpt>
      <trkpt lat="47.94859" lon="-0.54611">
        <ele>79.4</ele>
        <time>2024-04-14T09:22:26Z</time>
      </trkpt>
      <trkpt lat="47.94865" lon="-0.54611">
        <ele>79.4</ele>
        <time>2024-04-14T09:22:27Z</time>
      </trkpt>
      <trkpt lat="47.94869" lon="-0.54611">
        <ele>80.4</ele>
        <time>2024-04-14T09:22:28Z</time>
      </trkpt>
      <trkpt lat="47.94874" lon="-0.54611">
        <ele>80.6</ele>
        <time>2024-04-14T09:22:29Z</time>
      </trkpt>
      <trkpt lat="47.94879" lon="-0.5461">
        <ele>80.6</ele>
        <time>2024-04-14T09:22:30Z</time>
      </trkpt>
      <trkpt lat="47.94883" lon="-0.54609">
        <ele>80.6</ele>
        <time>2024-04-14T09:22:31Z</time>
      </trkpt>
      <trkpt lat="47.94887" lon="-0.54608">
        <ele>81.6</ele>
        <time>2024-04-14T09:22:32Z</time>
      </trkpt>
      <trkpt lat="47.94891" lon="-0.54607">
        <ele>82.2</ele>
        <time>2024-04-14T09:22:33Z</time>
      </trkpt>
      <trkpt lat="47.94894" lon="-0.54606">
        <ele>82.2</ele>
        <time>2024-04-14T09:22:34Z</time>
      </trkpt>
      <trkpt lat="47.94898" lon="-0.54605">
        <ele>82.2</ele>
        <time>2024-04-14T09:22:35Z</time>
      </trkpt>
      <trkpt lat="47.94901" lon="-0.54604">
        <ele>82.2</ele>
        <time>2024-04-14T09:22:36Z</time>
      </trkpt>
      <trkpt lat="47.94904" lon="-0.54602">
        <ele>82</ele>
        <time>2024-04-14T09:22:37Z</time>
      </trkpt>
      <trkpt lat="47.94906" lon="-0.54602">
        <ele>82</ele>
        <time>2024-04-14T09:22:38Z</time>
      </trkpt>
      <trkpt lat="47.94908" lon="-0.54601">
        <ele>82</ele>
        <time>2024-04-14T09:22:39Z</time>
      </trkpt>
      <trkpt lat="47.9491" lon="-0.54601">
        <ele>83</ele>
        <time>2024-04-14T09:22:40Z</time>
      </trkpt>
      <trkpt lat="47.94912" lon="-0.54602">
        <ele>82</ele>
        <time>2024-04-14T09:22:41Z</time>
      </trkpt>
      <trkpt lat="47.94914" lon="-0.54605">
        <ele>82</ele>
        <time>2024-04-14T09:22:42Z</time>
      </trkpt>
      <trkpt lat="47.94916" lon="-0.5461">
        <ele>82</ele>
        <time>2024-04-14T09:22:43Z</time>
      </trkpt>
      <trkpt lat="47.94917" lon="-0.54616">
        <ele>82.8</ele>
        <time>2024-04-14T09:22:44Z</time>
      </trkpt>
      <trkpt lat="47.94918" lon="-0.54622">
        <ele>82.6</ele>
        <time>2024-04-14T09:22:45Z</time>
      </trkpt>
      <trkpt lat="47.94919" lon="-0.5463">
        <ele>82.6</ele>
        <time>2024-04-14T09:22:46Z</time>
      </trkpt>
      <trkpt lat="47.9492" lon="-0.54637">
        <ele>82.6</ele>
        <time>2024-04-14T09:22:47Z</time>
      </trkpt>
      <trkpt lat="47.94921" lon="-0.54644">
        <ele>82.6</ele>
        <time>2024-04-14T09:22:48Z</time>
      </trkpt>
      <trkpt lat="47.94922" lon="-0.54651">
        <ele>83</ele>
        <time>2024-04-14T09:22:49Z</time>
      </trkpt>
      <trkpt lat="47.94923" lon="-0.54659">
        <ele>83</ele>
        <time>2024-04-14T09:22:50Z</time>
      </trkpt>
      <trkpt lat="47.94924" lon="-0.54666">
        <ele>83</ele>
        <time>2024-04-14T09:22:51Z</time>
      </trkpt>
      <trkpt lat="47.94926" lon="-0.54673">
        <ele>83</ele>
        <time>2024-04-14T09:22:52Z</time>
      </trkpt>
      <trkpt lat="47.94927" lon="-0.5468">
        <ele>83</ele>
        <time>2024-04-14T09:22:53Z</time>
      </trkpt>
      <trkpt lat="47.94929" lon="-0.54687">
        <ele>83</ele>
        <time>2024-04-14T09:22:54Z</time>
      </trkpt>
      <trkpt lat="47.9493" lon="-0.54694">
        <ele>83</ele>
        <time>2024-04-14T09:22:55Z</time>
      </trkpt>
      <trkpt lat="47.94931" lon="-0.54701">
        <ele>83</ele>
        <time>2024-04-14T09:22:56Z</time>
      </trkpt>
      <trkpt lat="47.94932" lon="-0.54708">
        <ele>83.2</ele>
        <time>2024-04-14T09:22:57Z</time>
      </trkpt>
      <trkpt lat="47.94933" lon="-0.54715">
        <ele>83.2</ele>
        <time>2024-04-14T09:22:58Z</time>
      </trkpt>
      <trkpt lat="47.94934" lon="-0.54722">
        <ele>83.2</ele>
        <time>2024-04-14T09:22:59Z</time>
      </trkpt>
      <trkpt lat="47.94937" lon="-0.54727">
        <ele>84.2</ele>
        <time>2024-04-14T09:23:00Z</time>
      </trkpt>
      <trkpt lat="47.9494" lon="-0.54728">
        <ele>83.8</ele>
        <time>2024-04-14T09:23:01Z</time>
      </trkpt>
      <trkpt lat="47.94944" lon="-0.54727">
        <ele>83.8</ele>
        <time>2024-04-14T09:23:02Z</time>
      </trkpt>
      <trkpt lat="47.94948" lon="-0.54725">
        <ele>83.8</ele>
        <time>2024-04-14T09:23:03Z</time>
      </trkpt>
      <trkpt lat="47.94951" lon="-0.54724">
        <ele>84.4</ele>
        <time>2024-04-14T09:23:04Z</time>
      </trkpt>
      <trkpt lat="47.94956" lon="-0.54723">
        <ele>84.8</ele>
        <time>2024-04-14T09:23:05Z</time>
      </trkpt>
      <trkpt lat="47.9496" lon="-0.54721">
        <ele>84.8</ele>
        <time>2024-04-14T09:23:06Z</time>
      </trkpt>
      <trkpt lat="47.94965" lon="-0.54719">
        <ele>84.8</ele>
        <time>2024-04-14T09:23:07Z</time>
      </trkpt>
      <trkpt lat="47.94969" lon="-0.54716">
        <ele>84.8</ele>
        <time>2024-04-14T09:23:08Z</time>
      </trkpt>
      <trkpt lat="47.94975" lon="-0.54714">
        <ele>84</ele>
        <time>2024-04-14T09:23:09Z</time>
      </trkpt>
      <trkpt lat="47.9498" lon="-0.54711">
        <ele>84</ele>
        <time>2024-04-14T09:23:10Z</time>
      </trkpt>
      <trkpt lat="47.94985" lon="-0.54709">
        <ele>84</ele>
        <time>2024-04-14T09:23:11Z</time>
      </trkpt>
      <trkpt lat="47.9499" lon="-0.54706">
        <ele>84</ele>
        <time>2024-04-14T09:23:12Z</time>
      </trkpt>
      <trkpt lat="47.94996" lon="-0.54702">
        <ele>82.4</ele>
        <time>2024-04-14T09:23:13Z</time>
      </trkpt>
      <trkpt lat="47.95001" lon="-0.547">
        <ele>82.4</ele>
        <time>2024-04-14T09:23:14Z</time>
      </trkpt>
      <trkpt lat="47.95007" lon="-0.54696">
        <ele>82.4</ele>
        <time>2024-04-14T09:23:15Z</time>
      </trkpt>
      <trkpt lat="47.95012" lon="-0.54692">
        <ele>82.4</ele>
        <time>2024-04-14T09:23:16Z</time>
      </trkpt>
      <trkpt lat="47.95017" lon="-0.54689">
        <ele>81.2</ele>
        <time>2024-04-14T09:23:17Z</time>
      </trkpt>
      <trkpt lat="47.95023" lon="-0.54686">
        <ele>81.2</ele>
        <time>2024-04-14T09:23:18Z</time>
      </trkpt>
      <trkpt lat="47.95029" lon="-0.54683">
        <ele>81.2</ele>
        <time>2024-04-14T09:23:19Z</time>
      </trkpt>
      <trkpt lat="47.95035" lon="-0.54681">
        <ele>81.2</ele>
        <time>2024-04-14T09:23:20Z</time>
      </trkpt>
      <trkpt lat="47.95041" lon="-0.54678">
        <ele>81.2</ele>
        <time>2024-04-14T09:23:21Z</time>
      </trkpt>
      <trkpt lat="47.95047" lon="-0.54675">
        <ele>81.2</ele>
        <time>2024-04-14T09:23:22Z</time>
      </trkpt>
      <trkpt lat="47.95053" lon="-0.54672">
        <ele>81.2</ele>
        <time>2024-04-14T09:23:23Z</time>
      </trkpt>
      <trkpt lat="47.95059" lon="-0.54669">
        <ele>80.2</ele>
        <time>2024-04-14T09:23:24Z</time>
      </trkpt>
      <trkpt lat="47.95066" lon="-0.54667">
        <ele>79.6</ele>
        <time>2024-04-14T09:23:25Z</time>
      </trkpt>
      <trkpt lat="47.95072" lon="-0.54664">
        <ele>79.6</ele>
        <time>2024-04-14T09:23:26Z</time>
      </trkpt>
      <trkpt lat="47.95078" lon="-0.54661">
        <ele>79.6</ele>
        <time>2024-04-14T09:23:27Z</time>
      </trkpt>
      <trkpt lat="47.95084" lon="-0.54659">
        <ele>79.6</ele>
        <time>2024-04-14T09:23:28Z</time>
      </trkpt>
      <trkpt lat="47.9509" lon="-0.54656">
        <ele>80</ele>
        <time>2024-04-14T09:23:29Z</time>
      </trkpt>
      <trkpt lat="47.95096" lon="-0.54654">
        <ele>80</ele>
        <time>2024-04-14T09:23:30Z</time>
      </trkpt>
      <trkpt lat="47.95102" lon="-0.54651">
        <ele>80</ele>
        <time>2024-04-14T09:23:31Z</time>
      </trkpt>
      <trkpt lat="47.95108" lon="-0.54649">
        <ele>80</ele>
        <time>2024-04-14T09:23:32Z</time>
      </trkpt>
      <trkpt lat="47.95114" lon="-0.54646">
        <ele>79.2</ele>
        <time>2024-04-14T09:23:33Z</time>
      </trkpt>
      <trkpt lat="47.95119" lon="-0.54644">
        <ele>79.2</ele>
        <time>2024-04-14T09:23:34Z</time>
      </trkpt>
      <trkpt lat="47.95125" lon="-0.54641">
        <ele>79.2</ele>
        <time>2024-04-14T09:23:35Z</time>
      </trkpt>
      <trkpt lat="47.9513" lon="-0.54638">
        <ele>79.2</ele>
        <time>2024-04-14T09:23:36Z</time>
      </trkpt>
      <trkpt lat="47.95133" lon="-0.54632">
        <ele>80.4</ele>
        <time>2024-04-14T09:23:37Z</time>
      </trkpt>
      <trkpt lat="47.95133" lon="-0.54625">
        <ele>80.4</ele>
        <time>2024-04-14T09:23:38Z</time>
      </trkpt>
      <trkpt lat="47.95132" lon="-0.54619">
        <ele>80.4</ele>
        <time>2024-04-14T09:23:39Z</time>
      </trkpt>
      <trkpt lat="47.9513" lon="-0.54612">
        <ele>80.4</ele>
        <time>2024-04-14T09:23:40Z</time>
      </trkpt>
      <trkpt lat="47.95128" lon="-0.54605">
        <ele>79.4</ele>
        <time>2024-04-14T09:23:41Z</time>
      </trkpt>
      <trkpt lat="47.95128" lon="-0.54598">
        <ele>79.4</ele>
        <time>2024-04-14T09:23:42Z</time>
      </trkpt>
      <trkpt lat="47.95129" lon="-0.54592">
        <ele>79.4</ele>
        <time>2024-04-14T09:23:43Z</time>
      </trkpt>
      <trkpt lat="47.95132" lon="-0.54585">
        <ele>79.4</ele>
        <time>2024-04-14T09:23:44Z</time>
      </trkpt>
      <trkpt lat="47.95136" lon="-0.5458">
        <ele>79.2</ele>
        <time>2024-04-14T09:23:45Z</time>
      </trkpt>
      <trkpt lat="47.9514" lon="-0.54576">
        <ele>79.2</ele>
        <time>2024-04-14T09:23:46Z</time>
      </trkpt>
      <trkpt lat="47.95145" lon="-0.54573">
        <ele>79.2</ele>
        <time>2024-04-14T09:23:47Z</time>
      </trkpt>
      <trkpt lat="47.9515" lon="-0.5457">
        <ele>79.2</ele>
        <time>2024-04-14T09:23:48Z</time>
      </trkpt>
      <trkpt lat="47.95155" lon="-0.54567">
        <ele>79.2</ele>
        <time>2024-04-14T09:23:49Z</time>
      </trkpt>
      <trkpt lat="47.9516" lon="-0.54564">
        <ele>79.2</ele>
        <time>2024-04-14T09:23:50Z</time>
      </trkpt>
      <trkpt lat="47.95166" lon="-0.54561">
        <ele>79.2</ele>
        <time>2024-04-14T09:23:51Z</time>
      </trkpt>
      <trkpt lat="47.95171" lon="-0.54558">
        <ele>79.2</ele>
        <time>2024-04-14T09:23:52Z</time>
      </trkpt>
      <trkpt lat="47.95176" lon="-0.54555">
        <ele>79.6</ele>
        <time>2024-04-14T09:23:53Z</time>
      </trkpt>
      <trkpt lat="47.9518" lon="-0.5455">
        <ele>79.6</ele>
        <time>2024-04-14T09:23:54Z</time>
      </trkpt>
      <trkpt lat="47.95181" lon="-0.54544">
        <ele>79.6</ele>
        <time>2024-04-14T09:23:55Z</time>
      </trkpt>
      <trkpt lat="47.95181" lon="-0.54537">
        <ele>79.6</ele>
        <time>2024-04-14T09:23:56Z</time>
      </trkpt>
      <trkpt lat="47.95181" lon="-0.5453">
        <ele>80.6</ele>
        <time>2024-04-14T09:23:57Z</time>
      </trkpt>
      <trkpt lat="47.95183" lon="-0.54523">
        <ele>80.6</ele>
        <time>2024-04-14T09:23:58Z</time>
      </trkpt>
      <trkpt lat="47.95188" lon="-0.5452">
        <ele>80.6</ele>
        <time>2024-04-14T09:23:59Z</time>
      </trkpt>
      <trkpt lat="47.95192" lon="-0.54517">
        <ele>79.6</ele>
        <time>2024-04-14T09:24:00Z</time>
      </trkpt>
      <trkpt lat="47.95197" lon="-0.54513">
        <ele>79.6</ele>
        <time>2024-04-14T09:24:01Z</time>
      </trkpt>
      <trkpt lat="47.95199" lon="-0.54509">
        <ele>79.6</ele>
        <time>2024-04-14T09:24:02Z</time>
      </trkpt>
      <trkpt lat="47.95201" lon="-0.54505">
        <ele>79.6</ele>
        <time>2024-04-14T09:24:03Z</time>
      </trkpt>
      <trkpt lat="47.95203" lon="-0.54504">
        <ele>80.2</ele>
        <time>2024-04-14T09:24:04Z</time>
      </trkpt>
      <trkpt lat="47.95204" lon="-0.54506">
        <ele>80.8</ele>
        <time>2024-04-14T09:24:05Z</time>
      </trkpt>
      <trkpt lat="47.95204" lon="-0.54509">
        <ele>80.8</ele>
        <time>2024-04-14T09:24:06Z</time>
      </trkpt>
      <trkpt lat="47.95203" lon="-0.54511">
        <ele>80.8</ele>
        <time>2024-04-14T09:24:07Z</time>
      </trkpt>
      <trkpt lat="47.95201" lon="-0.54512">
        <ele>80.8</ele>
        <time>2024-04-14T09:24:08Z</time>
      </trkpt>
      <trkpt lat="47.95199" lon="-0.54513">
        <ele>80.8</ele>
        <time>2024-04-14T09:24:09Z</time>
      </trkpt>
      <trkpt lat="47.95198" lon="-0.54513">
        <ele>80.8</ele>
        <time>2024-04-14T09:24:10Z</time>
      </trkpt>
      <trkpt lat="47.95196" lon="-0.54513">
        <ele>80.8</ele>
        <time>2024-04-14T09:24:11Z</time>
      </trkpt>
      <trkpt lat="47.95195" lon="-0.54514">
        <ele>81.2</ele>
        <time>2024-04-14T09:24:12Z</time>
      </trkpt>
      <trkpt lat="47.95193" lon="-0.54515">
        <ele>81</ele>
        <time>2024-04-14T09:24:13Z</time>
      </trkpt>
      <trkpt lat="47.95191" lon="-0.54516">
        <ele>81</ele>
        <time>2024-04-14T09:24:14Z</time>
      </trkpt>
      <trkpt lat="47.95188" lon="-0.54518">
        <ele>81</ele>
        <time>2024-04-14T09:24:15Z</time>
      </trkpt>
      <trkpt lat="47.95186" lon="-0.54519">
        <ele>81</ele>
        <time>2024-04-14T09:24:16Z</time>
      </trkpt>
      <trkpt lat="47.95184" lon="-0.54517">
        <ele>81.4</ele>
        <time>2024-04-14T09:24:17Z</time>
      </trkpt>
      <trkpt lat="47.95182" lon="-0.54513">
        <ele>81.4</ele>
        <time>2024-04-14T09:24:18Z</time>
      </trkpt>
      <trkpt lat="47.95181" lon="-0.54507">
        <ele>81.4</ele>
        <time>2024-04-14T09:24:19Z</time>
      </trkpt>
      <trkpt lat="47.95179" lon="-0.54501">
        <ele>80.4</ele>
        <time>2024-04-14T09:24:20Z</time>
      </trkpt>
      <trkpt lat="47.95178" lon="-0.54495">
        <ele>80.6</ele>
        <time>2024-04-14T09:24:21Z</time>
      </trkpt>
      <trkpt lat="47.95177" lon="-0.54489">
        <ele>80.6</ele>
        <time>2024-04-14T09:24:22Z</time>
      </trkpt>
      <trkpt lat="47.95178" lon="-0.54484">
        <ele>80.6</ele>
        <time>2024-04-14T09:24:23Z</time>
      </trkpt>
      <trkpt lat="47.9518" lon="-0.5448">
        <ele>80.6</ele>
        <time>2024-04-14T09:24:24Z</time>
      </trkpt>
      <trkpt lat="47.95181" lon="-0.54477">
        <ele>81.2</ele>
        <time>2024-04-14T09:24:25Z</time>
      </trkpt>
      <trkpt lat="47.95182" lon="-0.54473">
        <ele>81.2</ele>
        <time>2024-04-14T09:24:26Z</time>
      </trkpt>
      <trkpt lat="47.95184" lon="-0.54469">
        <ele>81.2</ele>
        <time>2024-04-14T09:24:27Z</time>
      </trkpt>
      <trkpt lat="47.95187" lon="-0.54466">
        <ele>80.2</ele>
        <time>2024-04-14T09:24:28Z</time>
      </trkpt>
      <trkpt lat="47.9519" lon="-0.54462">
        <ele>78.8</ele>
        <time>2024-04-14T09:24:29Z</time>
      </trkpt>
      <trkpt lat="47.95194" lon="-0.54458">
        <ele>78.8</ele>
        <time>2024-04-14T09:24:30Z</time>
      </trkpt>
      <trkpt lat="47.95197" lon="-0.54454">
        <ele>78.8</ele>
        <time>2024-04-14T09:24:31Z</time>
      </trkpt>
      <trkpt lat="47.95201" lon="-0.54451">
        <ele>79.6</ele>
        <time>2024-04-14T09:24:32Z</time>
      </trkpt>
      <trkpt lat="47.95204" lon="-0.54447">
        <ele>79</ele>
        <time>2024-04-14T09:24:33Z</time>
      </trkpt>
      <trkpt lat="47.95208" lon="-0.54443">
        <ele>79</ele>
        <time>2024-04-14T09:24:34Z</time>
      </trkpt>
      <trkpt lat="47.95211" lon="-0.5444">
        <ele>79</ele>
        <time>2024-04-14T09:24:35Z</time>
      </trkpt>
      <trkpt lat="47.95214" lon="-0.54441">
        <ele>80</ele>
        <time>2024-04-14T09:24:36Z</time>
      </trkpt>
      <trkpt lat="47.95216" lon="-0.54444">
        <ele>81.4</ele>
        <time>2024-04-14T09:24:37Z</time>
      </trkpt>
      <trkpt lat="47.95217" lon="-0.54448">
        <ele>81.4</ele>
        <time>2024-04-14T09:24:38Z</time>
      </trkpt>
      <trkpt lat="47.95218" lon="-0.54452">
        <ele>81.4</ele>
        <time>2024-04-14T09:24:39Z</time>
      </trkpt>
      <trkpt lat="47.95219" lon="-0.54455">
        <ele>80.4</ele>
        <time>2024-04-14T09:24:40Z</time>
      </trkpt>
      <trkpt lat="47.9522" lon="-0.54459">
        <ele>80.2</ele>
        <time>2024-04-14T09:24:41Z</time>
      </trkpt>
      <trkpt lat="47.95222" lon="-0.54464">
        <ele>80.2</ele>
        <time>2024-04-14T09:24:42Z</time>
      </trkpt>
      <trkpt lat="47.95224" lon="-0.54469">
        <ele>80.2</ele>
        <time>2024-04-14T09:24:43Z</time>
      </trkpt>
      <trkpt lat="47.95225" lon="-0.54475">
        <ele>80</ele>
        <time>2024-04-14T09:24:44Z</time>
      </trkpt>
      <trkpt lat="47.95226" lon="-0.5448">
        <ele>79.4</ele>
        <time>2024-04-14T09:24:45Z</time>
      </trkpt>
      <trkpt lat="47.95228" lon="-0.54485">
        <ele>79.4</ele>
        <time>2024-04-14T09:24:46Z</time>
      </trkpt>
      <trkpt lat="47.9523" lon="-0.5449">
        <ele>79.4</ele>
        <time>2024-04-14T09:24:47Z</time>
      </trkpt>
      <trkpt lat="47.95232" lon="-0.54496">
        <ele>79.4</ele>
        <time>2024-04-14T09:24:48Z</time>
      </trkpt>
      <trkpt lat="47.95233" lon="-0.54502">
        <ele>78.6</ele>
        <time>2024-04-14T09:24:49Z</time>
      </trkpt>
      <trkpt lat="47.95234" lon="-0.54507">
        <ele>78.6</ele>
        <time>2024-04-14T09:24:50Z</time>
      </trkpt>
      <trkpt lat="47.95235" lon="-0.54512">
        <ele>78.6</ele>
        <time>2024-04-14T09:24:51Z</time>
      </trkpt>
      <trkpt lat="47.95236" lon="-0.54517">
        <ele>79.6</ele>
        <time>2024-04-14T09:24:52Z</time>
      </trkpt>
      <trkpt lat="47.95238" lon="-0.54522">
        <ele>79.8</ele>
        <time>2024-04-14T09:24:53Z</time>
      </trkpt>
      <trkpt lat="47.95239" lon="-0.54528">
        <ele>79.8</ele>
        <time>2024-04-14T09:24:54Z</time>
      </trkpt>
      <trkpt lat="47.9524" lon="-0.54534">
        <ele>79.8</ele>
        <time>2024-04-14T09:24:55Z</time>
      </trkpt>
      <trkpt lat="47.95241" lon="-0.54539">
        <ele>79.8</ele>
        <time>2024-04-14T09:24:56Z</time>
      </trkpt>
      <trkpt lat="47.95242" lon="-0.54544">
        <ele>80</ele>
        <time>2024-04-14T09:24:57Z</time>
      </trkpt>
      <trkpt lat="47.95243" lon="-0.54549">
        <ele>80</ele>
        <time>2024-04-14T09:24:58Z</time>
      </trkpt>
      <trkpt lat="47.95245" lon="-0.54554">
        <ele>80</ele>
        <time>2024-04-14T09:24:59Z</time>
      </trkpt>
      <trkpt lat="47.95246" lon="-0.54558">
        <ele>80</ele>
        <time>2024-04-14T09:25:00Z</time>
      </trkpt>
      <trkpt lat="47.95247" lon="-0.54564">
        <ele>80</ele>
        <time>2024-04-14T09:25:01Z</time>
      </trkpt>
      <trkpt lat="47.95248" lon="-0.54568">
        <ele>80</ele>
        <time>2024-04-14T09:25:02Z</time>
      </trkpt>
      <trkpt lat="47.95249" lon="-0.54572">
        <ele>80</ele>
        <time>2024-04-14T09:25:03Z</time>
      </trkpt>
      <trkpt lat="47.9525" lon="-0.54576">
        <ele>80</ele>
        <time>2024-04-14T09:25:04Z</time>
      </trkpt>
      <trkpt lat="47.95251" lon="-0.54582">
        <ele>80.6</ele>
        <time>2024-04-14T09:25:05Z</time>
      </trkpt>
      <trkpt lat="47.95252" lon="-0.54587">
        <ele>80.6</ele>
        <time>2024-04-14T09:25:06Z</time>
      </trkpt>
      <trkpt lat="47.95253" lon="-0.54593">
        <ele>80.6</ele>
        <time>2024-04-14T09:25:07Z</time>
      </trkpt>
      <trkpt lat="47.95254" lon="-0.54598">
        <ele>80</ele>
        <time>2024-04-14T09:25:08Z</time>
      </trkpt>
      <trkpt lat="47.95256" lon="-0.54603">
        <ele>79.4</ele>
        <time>2024-04-14T09:25:09Z</time>
      </trkpt>
      <trkpt lat="47.95257" lon="-0.54607">
        <ele>79.4</ele>
        <time>2024-04-14T09:25:10Z</time>
      </trkpt>
      <trkpt lat="47.95258" lon="-0.54612">
        <ele>79.4</ele>
        <time>2024-04-14T09:25:11Z</time>
      </trkpt>
      <trkpt lat="47.95259" lon="-0.54616">
        <ele>80.4</ele>
        <time>2024-04-14T09:25:12Z</time>
      </trkpt>
      <trkpt lat="47.95261" lon="-0.54619">
        <ele>80.4</ele>
        <time>2024-04-14T09:25:13Z</time>
      </trkpt>
      <trkpt lat="47.95262" lon="-0.54623">
        <ele>80.4</ele>
        <time>2024-04-14T09:25:14Z</time>
      </trkpt>
      <trkpt lat="47.95264" lon="-0.54627">
        <ele>80.4</ele>
        <time>2024-04-14T09:25:15Z</time>
      </trkpt>
      <trkpt lat="47.95265" lon="-0.54631">
        <ele>79.4</ele>
        <time>2024-04-14T09:25:16Z</time>
      </trkpt>
      <trkpt lat="47.95266" lon="-0.54636">
        <ele>79.4</ele>
        <time>2024-04-14T09:25:17Z</time>
      </trkpt>
      <trkpt lat="47.95268" lon="-0.54641">
        <ele>79.4</ele>
        <time>2024-04-14T09:25:18Z</time>
      </trkpt>
      <trkpt lat="47.95269" lon="-0.54647">
        <ele>79.4</ele>
        <time>2024-04-14T09:25:19Z</time>
      </trkpt>
      <trkpt lat="47.9527" lon="-0.54652">
        <ele>79.8</ele>
        <time>2024-04-14T09:25:20Z</time>
      </trkpt>
      <trkpt lat="47.95271" lon="-0.54656">
        <ele>79.6</ele>
        <time>2024-04-14T09:25:21Z</time>
      </trkpt>
      <trkpt lat="47.95273" lon="-0.5466">
        <ele>79.6</ele>
        <time>2024-04-14T09:25:22Z</time>
      </trkpt>
      <trkpt lat="47.95274" lon="-0.54665">
        <ele>79.6</ele>
        <time>2024-04-14T09:25:23Z</time>
      </trkpt>
      <trkpt lat="47.95275" lon="-0.54669">
        <ele>80</ele>
        <time>2024-04-14T09:25:24Z</time>
      </trkpt>
      <trkpt lat="47.95276" lon="-0.54674">
        <ele>80.6</ele>
        <time>2024-04-14T09:25:25Z</time>
      </trkpt>
      <trkpt lat="47.95277" lon="-0.54679">
        <ele>80.6</ele>
        <time>2024-04-14T09:25:26Z</time>
      </trkpt>
      <trkpt lat="47.95277" lon="-0.54683">
        <ele>80.6</ele>
        <time>2024-04-14T09:25:27Z</time>
      </trkpt>
      <trkpt lat="47.95279" lon="-0.54688">
        <ele>80.6</ele>
        <time>2024-04-14T09:25:28Z</time>
      </trkpt>
      <trkpt lat="47.9528" lon="-0.54692">
        <ele>79.8</ele>
        <time>2024-04-14T09:25:29Z</time>
      </trkpt>
      <trkpt lat="47.95283" lon="-0.54694">
        <ele>79.8</ele>
        <time>2024-04-14T09:25:30Z</time>
      </trkpt>
      <trkpt lat="47.95286" lon="-0.54695">
        <ele>79.8</ele>
        <time>2024-04-14T09:25:31Z</time>
      </trkpt>
      <trkpt lat="47.95289" lon="-0.54696">
        <ele>78.8</ele>
        <time>2024-04-14T09:25:32Z</time>
      </trkpt>
      <trkpt lat="47.95293" lon="-0.54696">
        <ele>79</ele>
        <time>2024-04-14T09:25:33Z</time>
      </trkpt>
      <trkpt lat="47.95296" lon="-0.54695">
        <ele>79</ele>
        <time>2024-04-14T09:25:34Z</time>
      </trkpt>
      <trkpt lat="47.953" lon="-0.54694">
        <ele>79</ele>
        <time>2024-04-14T09:25:35Z</time>
      </trkpt>
      <trkpt lat="47.95304" lon="-0.54693">
        <ele>79</ele>
        <time>2024-04-14T09:25:36Z</time>
      </trkpt>
      <trkpt lat="47.95308" lon="-0.54692">
        <ele>79</ele>
        <time>2024-04-14T09:25:37Z</time>
      </trkpt>
      <trkpt lat="47.95312" lon="-0.54691">
        <ele>79</ele>
        <time>2024-04-14T09:25:38Z</time>
      </trkpt>
      <trkpt lat="47.95315" lon="-0.54689">
        <ele>79</ele>
        <time>2024-04-14T09:25:39Z</time>
      </trkpt>
      <trkpt lat="47.95319" lon="-0.54686">
        <ele>79</ele>
        <time>2024-04-14T09:25:40Z</time>
      </trkpt>
      <trkpt lat="47.95323" lon="-0.54683">
        <ele>80</ele>
        <time>2024-04-14T09:25:41Z</time>
      </trkpt>
      <trkpt lat="47.95327" lon="-0.54681">
        <ele>80</ele>
        <time>2024-04-14T09:25:42Z</time>
      </trkpt>
      <trkpt lat="47.95332" lon="-0.54678">
        <ele>80</ele>
        <time>2024-04-14T09:25:43Z</time>
      </trkpt>
      <trkpt lat="47.95336" lon="-0.54676">
        <ele>79</ele>
        <time>2024-04-14T09:25:44Z</time>
      </trkpt>
      <trkpt lat="47.95341" lon="-0.54674">
        <ele>76.8</ele>
        <time>2024-04-14T09:25:45Z</time>
      </trkpt>
      <trkpt lat="47.95347" lon="-0.54671">
        <ele>76.8</ele>
        <time>2024-04-14T09:25:46Z</time>
      </trkpt>
      <trkpt lat="47.95352" lon="-0.54669">
        <ele>76.8</ele>
        <time>2024-04-14T09:25:47Z</time>
      </trkpt>
      <trkpt lat="47.95358" lon="-0.54667">
        <ele>76.8</ele>
        <time>2024-04-14T09:25:48Z</time>
      </trkpt>
      <trkpt lat="47.95363" lon="-0.54665">
        <ele>75.4</ele>
        <time>2024-04-14T09:25:49Z</time>
      </trkpt>
      <trkpt lat="47.95369" lon="-0.54664">
        <ele>75.4</ele>
        <time>2024-04-14T09:25:50Z</time>
      </trkpt>
      <trkpt lat="47.95375" lon="-0.54662">
        <ele>75.4</ele>
        <time>2024-04-14T09:25:51Z</time>
      </trkpt>
      <trkpt lat="47.95381" lon="-0.54661">
        <ele>75.4</ele>
        <time>2024-04-14T09:25:52Z</time>
      </trkpt>
      <trkpt lat="47.95387" lon="-0.54659">
        <ele>73.6</ele>
        <time>2024-04-14T09:25:53Z</time>
      </trkpt>
      <trkpt lat="47.95392" lon="-0.54656">
        <ele>73.6</ele>
        <time>2024-04-14T09:25:54Z</time>
      </trkpt>
      <trkpt lat="47.95395" lon="-0.5465">
        <ele>73.6</ele>
        <time>2024-04-14T09:25:55Z</time>
      </trkpt>
      <trkpt lat="47.95398" lon="-0.54643">
        <ele>74.6</ele>
        <time>2024-04-14T09:25:56Z</time>
      </trkpt>
      <trkpt lat="47.95401" lon="-0.54636">
        <ele>75.2</ele>
        <time>2024-04-14T09:25:57Z</time>
      </trkpt>
      <trkpt lat="47.95404" lon="-0.54629">
        <ele>75.2</ele>
        <time>2024-04-14T09:25:58Z</time>
      </trkpt>
      <trkpt lat="47.95408" lon="-0.54622">
        <ele>75.2</ele>
        <time>2024-04-14T09:25:59Z</time>
      </trkpt>
      <trkpt lat="47.95411" lon="-0.54616">
        <ele>74.8</ele>
        <time>2024-04-14T09:26:00Z</time>
      </trkpt>
      <trkpt lat="47.95414" lon="-0.54609">
        <ele>74.4</ele>
        <time>2024-04-14T09:26:01Z</time>
      </trkpt>
      <trkpt lat="47.95417" lon="-0.54602">
        <ele>74.4</ele>
        <time>2024-04-14T09:26:02Z</time>
      </trkpt>
      <trkpt lat="47.95419" lon="-0.54596">
        <ele>74.4</ele>
        <time>2024-04-14T09:26:03Z</time>
      </trkpt>
      <trkpt lat="47.95423" lon="-0.54589">
        <ele>74.4</ele>
        <time>2024-04-14T09:26:04Z</time>
      </trkpt>
      <trkpt lat="47.95426" lon="-0.54583">
        <ele>74.6</ele>
        <time>2024-04-14T09:26:05Z</time>
      </trkpt>
      <trkpt lat="47.95429" lon="-0.54576">
        <ele>74.6</ele>
        <time>2024-04-14T09:26:06Z</time>
      </trkpt>
      <trkpt lat="47.95433" lon="-0.5457">
        <ele>74.6</ele>
        <time>2024-04-14T09:26:07Z</time>
      </trkpt>
      <trkpt lat="47.95437" lon="-0.54565">
        <ele>74.6</ele>
        <time>2024-04-14T09:26:08Z</time>
      </trkpt>
      <trkpt lat="47.95442" lon="-0.54562">
        <ele>74.4</ele>
        <time>2024-04-14T09:26:09Z</time>
      </trkpt>
      <trkpt lat="47.95445" lon="-0.5456">
        <ele>74.4</ele>
        <time>2024-04-14T09:26:10Z</time>
      </trkpt>
      <trkpt lat="47.95449" lon="-0.54559">
        <ele>74.4</ele>
        <time>2024-04-14T09:26:11Z</time>
      </trkpt>
      <trkpt lat="47.95451" lon="-0.54556">
        <ele>74.4</ele>
        <time>2024-04-14T09:26:12Z</time>
      </trkpt>
      <trkpt lat="47.95453" lon="-0.54554">
        <ele>75.8</ele>
        <time>2024-04-14T09:26:13Z</time>
      </trkpt>
      <trkpt lat="47.95454" lon="-0.54553">
        <ele>75.8</ele>
        <time>2024-04-14T09:26:14Z</time>
      </trkpt>
      <trkpt lat="47.95454" lon="-0.54552">
        <ele>75.8</ele>
        <time>2024-04-14T09:26:15Z</time>
      </trkpt>
      <trkpt lat="47.95455" lon="-0.54552">
        <ele>76</ele>
        <time>2024-04-14T09:26:16Z</time>
      </trkpt>
      <trkpt lat="47.95456" lon="-0.54552">
        <ele>75.8</ele>
        <time>2024-04-14T09:26:17Z</time>
      </trkpt>
      <trkpt lat="47.95456" lon="-0.54552">
        <ele>75.8</ele>
        <time>2024-04-14T09:26:18Z</time>
      </trkpt>
      <trkpt lat="47.95461" lon="-0.54555">
        <ele>75.6</ele>
        <time>2024-04-14T09:26:26Z</time>
      </trkpt>
      <trkpt lat="47.95464" lon="-0.54555">
        <ele>75.6</ele>
        <time>2024-04-14T09:26:27Z</time>
      </trkpt>
      <trkpt lat="47.95467" lon="-0.54553">
        <ele>75.4</ele>
        <time>2024-04-14T09:26:28Z</time>
      </trkpt>
      <trkpt lat="47.9547" lon="-0.5455">
        <ele>74.8</ele>
        <time>2024-04-14T09:26:29Z</time>
      </trkpt>
      <trkpt lat="47.95473" lon="-0.54546">
        <ele>74.8</ele>
        <time>2024-04-14T09:26:30Z</time>
      </trkpt>
      <trkpt lat="47.95476" lon="-0.54541">
        <ele>74.8</ele>
        <time>2024-04-14T09:26:31Z</time>
      </trkpt>
      <trkpt lat="47.95478" lon="-0.54536">
        <ele>74.8</ele>
        <time>2024-04-14T09:26:32Z</time>
      </trkpt>
      <trkpt lat="47.95481" lon="-0.54531">
        <ele>74.2</ele>
        <time>2024-04-14T09:26:33Z</time>
      </trkpt>
      <trkpt lat="47.95483" lon="-0.54527">
        <ele>74.2</ele>
        <time>2024-04-14T09:26:34Z</time>
      </trkpt>
      <trkpt lat="47.95486" lon="-0.54522">
        <ele>74.2</ele>
        <time>2024-04-14T09:26:35Z</time>
      </trkpt>
      <trkpt lat="47.95488" lon="-0.54517">
        <ele>75.2</ele>
        <time>2024-04-14T09:26:36Z</time>
      </trkpt>
      <trkpt lat="47.9549" lon="-0.54511">
        <ele>74.2</ele>
        <time>2024-04-14T09:26:37Z</time>
      </trkpt>
      <trkpt lat="47.95492" lon="-0.54505">
        <ele>74.2</ele>
        <time>2024-04-14T09:26:38Z</time>
      </trkpt>
      <trkpt lat="47.95495" lon="-0.545">
        <ele>74.2</ele>
        <time>2024-04-14T09:26:39Z</time>
      </trkpt>
      <trkpt lat="47.95498" lon="-0.54495">
        <ele>74.2</ele>
        <time>2024-04-14T09:26:40Z</time>
      </trkpt>
      <trkpt lat="47.955" lon="-0.54489">
        <ele>74.2</ele>
        <time>2024-04-14T09:26:41Z</time>
      </trkpt>
      <trkpt lat="47.95503" lon="-0.54484">
        <ele>74.2</ele>
        <time>2024-04-14T09:26:42Z</time>
      </trkpt>
      <trkpt lat="47.95505" lon="-0.54479">
        <ele>74.2</ele>
        <time>2024-04-14T09:26:43Z</time>
      </trkpt>
      <trkpt lat="47.95507" lon="-0.54473">
        <ele>73.4</ele>
        <time>2024-04-14T09:26:44Z</time>
      </trkpt>
      <trkpt lat="47.95509" lon="-0.54467">
        <ele>73</ele>
        <time>2024-04-14T09:26:45Z</time>
      </trkpt>
      <trkpt lat="47.95511" lon="-0.54462">
        <ele>73</ele>
        <time>2024-04-14T09:26:46Z</time>
      </trkpt>
      <trkpt lat="47.95514" lon="-0.54454">
        <ele>73</ele>
        <time>2024-04-14T09:26:47Z</time>
      </trkpt>
      <trkpt lat="47.95518" lon="-0.54447">
        <ele>74</ele>
        <time>2024-04-14T09:26:48Z</time>
      </trkpt>
      <trkpt lat="47.95521" lon="-0.5444">
        <ele>73.8</ele>
        <time>2024-04-14T09:26:49Z</time>
      </trkpt>
      <trkpt lat="47.95524" lon="-0.54433">
        <ele>73.8</ele>
        <time>2024-04-14T09:26:50Z</time>
      </trkpt>
      <trkpt lat="47.95526" lon="-0.54427">
        <ele>73.8</ele>
        <time>2024-04-14T09:26:51Z</time>
      </trkpt>
      <trkpt lat="47.95529" lon="-0.54419">
        <ele>73.8</ele>
        <time>2024-04-14T09:26:52Z</time>
      </trkpt>
      <trkpt lat="47.95532" lon="-0.54413">
        <ele>74</ele>
        <time>2024-04-14T09:26:53Z</time>
      </trkpt>
      <trkpt lat="47.95536" lon="-0.54406">
        <ele>74</ele>
        <time>2024-04-14T09:26:54Z</time>
      </trkpt>
      <trkpt lat="47.95539" lon="-0.54399">
        <ele>74</ele>
        <time>2024-04-14T09:26:55Z</time>
      </trkpt>
      <trkpt lat="47.95542" lon="-0.54393">
        <ele>74</ele>
        <time>2024-04-14T09:26:56Z</time>
      </trkpt>
      <trkpt lat="47.95544" lon="-0.54387">
        <ele>73.6</ele>
        <time>2024-04-14T09:26:57Z</time>
      </trkpt>
      <trkpt lat="47.95547" lon="-0.5438">
        <ele>73.6</ele>
        <time>2024-04-14T09:26:58Z</time>
      </trkpt>
      <trkpt lat="47.95551" lon="-0.54372">
        <ele>73.6</ele>
        <time>2024-04-14T09:26:59Z</time>
      </trkpt>
      <trkpt lat="47.95554" lon="-0.54365">
        <ele>73.8</ele>
        <time>2024-04-14T09:27:00Z</time>
      </trkpt>
      <trkpt lat="47.95558" lon="-0.54358">
        <ele>73.6</ele>
        <time>2024-04-14T09:27:01Z</time>
      </trkpt>
      <trkpt lat="47.95561" lon="-0.54351">
        <ele>73.6</ele>
        <time>2024-04-14T09:27:02Z</time>
      </trkpt>
      <trkpt lat="47.95564" lon="-0.54345">
        <ele>73.6</ele>
        <time>2024-04-14T09:27:03Z</time>
      </trkpt>
      <trkpt lat="47.95568" lon="-0.54338">
        <ele>73.6</ele>
        <time>2024-04-14T09:27:04Z</time>
      </trkpt>
      <trkpt lat="47.95572" lon="-0.54334">
        <ele>75.2</ele>
        <time>2024-04-14T09:27:05Z</time>
      </trkpt>
      <trkpt lat="47.95575" lon="-0.54329">
        <ele>75.2</ele>
        <time>2024-04-14T09:27:06Z</time>
      </trkpt>
      <trkpt lat="47.95576" lon="-0.54324">
        <ele>75.2</ele>
        <time>2024-04-14T09:27:07Z</time>
      </trkpt>
      <trkpt lat="47.95576" lon="-0.54319">
        <ele>75.2</ele>
        <time>2024-04-14T09:27:08Z</time>
      </trkpt>
      <trkpt lat="47.95576" lon="-0.54314">
        <ele>74.8</ele>
        <time>2024-04-14T09:27:09Z</time>
      </trkpt>
      <trkpt lat="47.95577" lon="-0.54308">
        <ele>74.8</ele>
        <time>2024-04-14T09:27:10Z</time>
      </trkpt>
      <trkpt lat="47.95579" lon="-0.54303">
        <ele>74.8</ele>
        <time>2024-04-14T09:27:11Z</time>
      </trkpt>
      <trkpt lat="47.95582" lon="-0.543">
        <ele>74.8</ele>
        <time>2024-04-14T09:27:12Z</time>
      </trkpt>
      <trkpt lat="47.95585" lon="-0.54296">
        <ele>75.2</ele>
        <time>2024-04-14T09:27:13Z</time>
      </trkpt>
      <trkpt lat="47.95588" lon="-0.54292">
        <ele>75.2</ele>
        <time>2024-04-14T09:27:14Z</time>
      </trkpt>
      <trkpt lat="47.95592" lon="-0.54287">
        <ele>75.2</ele>
        <time>2024-04-14T09:27:15Z</time>
      </trkpt>
      <trkpt lat="47.95595" lon="-0.54283">
        <ele>74.2</ele>
        <time>2024-04-14T09:27:16Z</time>
      </trkpt>
      <trkpt lat="47.95599" lon="-0.54279">
        <ele>72</ele>
        <time>2024-04-14T09:27:17Z</time>
      </trkpt>
      <trkpt lat="47.95602" lon="-0.54274">
        <ele>72</ele>
        <time>2024-04-14T09:27:18Z</time>
      </trkpt>
      <trkpt lat="47.95606" lon="-0.5427">
        <ele>72</ele>
        <time>2024-04-14T09:27:19Z</time>
      </trkpt>
      <trkpt lat="47.95609" lon="-0.54266">
        <ele>73</ele>
        <time>2024-04-14T09:27:20Z</time>
      </trkpt>
      <trkpt lat="47.95612" lon="-0.54261">
        <ele>74</ele>
        <time>2024-04-14T09:27:21Z</time>
      </trkpt>
      <trkpt lat="47.95615" lon="-0.54257">
        <ele>74</ele>
        <time>2024-04-14T09:27:22Z</time>
      </trkpt>
      <trkpt lat="47.95617" lon="-0.54252">
        <ele>74</ele>
        <time>2024-04-14T09:27:23Z</time>
      </trkpt>
      <trkpt lat="47.95619" lon="-0.54246">
        <ele>75</ele>
        <time>2024-04-14T09:27:24Z</time>
      </trkpt>
      <trkpt lat="47.95619" lon="-0.5424">
        <ele>73.6</ele>
        <time>2024-04-14T09:27:25Z</time>
      </trkpt>
      <trkpt lat="47.95618" lon="-0.54235">
        <ele>73.6</ele>
        <time>2024-04-14T09:27:26Z</time>
      </trkpt>
      <trkpt lat="47.95616" lon="-0.54229">
        <ele>73.6</ele>
        <time>2024-04-14T09:27:27Z</time>
      </trkpt>
      <trkpt lat="47.95615" lon="-0.54224">
        <ele>73.6</ele>
        <time>2024-04-14T09:27:28Z</time>
      </trkpt>
      <trkpt lat="47.95614" lon="-0.54218">
        <ele>74.8</ele>
        <time>2024-04-14T09:27:29Z</time>
      </trkpt>
      <trkpt lat="47.95613" lon="-0.54213">
        <ele>74.8</ele>
        <time>2024-04-14T09:27:30Z</time>
      </trkpt>
      <trkpt lat="47.95612" lon="-0.54207">
        <ele>74.8</ele>
        <time>2024-04-14T09:27:31Z</time>
      </trkpt>
      <trkpt lat="47.9561" lon="-0.54202">
        <ele>74.8</ele>
        <time>2024-04-14T09:27:32Z</time>
      </trkpt>
      <trkpt lat="47.95609" lon="-0.54196">
        <ele>74.4</ele>
        <time>2024-04-14T09:27:33Z</time>
      </trkpt>
      <trkpt lat="47.95608" lon="-0.5419">
        <ele>74.4</ele>
        <time>2024-04-14T09:27:34Z</time>
      </trkpt>
      <trkpt lat="47.95606" lon="-0.54185">
        <ele>74.4</ele>
        <time>2024-04-14T09:27:35Z</time>
      </trkpt>
      <trkpt lat="47.95605" lon="-0.54179">
        <ele>74.6</ele>
        <time>2024-04-14T09:27:36Z</time>
      </trkpt>
      <trkpt lat="47.95604" lon="-0.54174">
        <ele>76.2</ele>
        <time>2024-04-14T09:27:37Z</time>
      </trkpt>
      <trkpt lat="47.95603" lon="-0.54169">
        <ele>76.2</ele>
        <time>2024-04-14T09:27:38Z</time>
      </trkpt>
      <trkpt lat="47.95602" lon="-0.54163">
        <ele>76.2</ele>
        <time>2024-04-14T09:27:39Z</time>
      </trkpt>
      <trkpt lat="47.95601" lon="-0.54158">
        <ele>75.8</ele>
        <time>2024-04-14T09:27:40Z</time>
      </trkpt>
      <trkpt lat="47.956" lon="-0.54153">
        <ele>73.4</ele>
        <time>2024-04-14T09:27:41Z</time>
      </trkpt>
      <trkpt lat="47.95598" lon="-0.54148">
        <ele>73.4</ele>
        <time>2024-04-14T09:27:42Z</time>
      </trkpt>
      <trkpt lat="47.95597" lon="-0.54144">
        <ele>73.4</ele>
        <time>2024-04-14T09:27:43Z</time>
      </trkpt>
      <trkpt lat="47.95596" lon="-0.54139">
        <ele>74.2</ele>
        <time>2024-04-14T09:27:44Z</time>
      </trkpt>
      <trkpt lat="47.95595" lon="-0.54134">
        <ele>74</ele>
        <time>2024-04-14T09:27:45Z</time>
      </trkpt>
      <trkpt lat="47.95593" lon="-0.54128">
        <ele>74</ele>
        <time>2024-04-14T09:27:46Z</time>
      </trkpt>
      <trkpt lat="47.95592" lon="-0.54123">
        <ele>74</ele>
        <time>2024-04-14T09:27:47Z</time>
      </trkpt>
      <trkpt lat="47.95591" lon="-0.54118">
        <ele>74</ele>
        <time>2024-04-14T09:27:48Z</time>
      </trkpt>
      <trkpt lat="47.9559" lon="-0.54112">
        <ele>74.2</ele>
        <time>2024-04-14T09:27:49Z</time>
      </trkpt>
      <trkpt lat="47.95588" lon="-0.54107">
        <ele>74.2</ele>
        <time>2024-04-14T09:27:50Z</time>
      </trkpt>
      <trkpt lat="47.95587" lon="-0.54101">
        <ele>74.2</ele>
        <time>2024-04-14T09:27:51Z</time>
      </trkpt>
      <trkpt lat="47.95585" lon="-0.54096">
        <ele>74.2</ele>
        <time>2024-04-14T09:27:52Z</time>
      </trkpt>
      <trkpt lat="47.95584" lon="-0.5409">
        <ele>74.6</ele>
        <time>2024-04-14T09:27:53Z</time>
      </trkpt>
      <trkpt lat="47.95582" lon="-0.54084">
        <ele>74.6</ele>
        <time>2024-04-14T09:27:54Z</time>
      </trkpt>
      <trkpt lat="47.95581" lon="-0.54078">
        <ele>74.6</ele>
        <time>2024-04-14T09:27:55Z</time>
      </trkpt>
      <trkpt lat="47.9558" lon="-0.54072">
        <ele>73.8</ele>
        <time>2024-04-14T09:27:56Z</time>
      </trkpt>
      <trkpt lat="47.95578" lon="-0.54067">
        <ele>73.6</ele>
        <time>2024-04-14T09:27:57Z</time>
      </trkpt>
      <trkpt lat="47.95577" lon="-0.54061">
        <ele>73.6</ele>
        <time>2024-04-14T09:27:58Z</time>
      </trkpt>
      <trkpt lat="47.95576" lon="-0.54055">
        <ele>73.6</ele>
        <time>2024-04-14T09:27:59Z</time>
      </trkpt>
      <trkpt lat="47.95574" lon="-0.5405">
        <ele>72.6</ele>
        <time>2024-04-14T09:28:00Z</time>
      </trkpt>
      <trkpt lat="47.95573" lon="-0.54044">
        <ele>72.4</ele>
        <time>2024-04-14T09:28:01Z</time>
      </trkpt>
      <trkpt lat="47.95571" lon="-0.54039">
        <ele>72.4</ele>
        <time>2024-04-14T09:28:02Z</time>
      </trkpt>
      <trkpt lat="47.9557" lon="-0.54033">
        <ele>72.4</ele>
        <time>2024-04-14T09:28:03Z</time>
      </trkpt>
      <trkpt lat="47.95568" lon="-0.54028">
        <ele>73</ele>
        <time>2024-04-14T09:28:04Z</time>
      </trkpt>
      <trkpt lat="47.95567" lon="-0.54022">
        <ele>73.8</ele>
        <time>2024-04-14T09:28:05Z</time>
      </trkpt>
      <trkpt lat="47.95565" lon="-0.54017">
        <ele>73.8</ele>
        <time>2024-04-14T09:28:06Z</time>
      </trkpt>
      <trkpt lat="47.95564" lon="-0.54011">
        <ele>73.8</ele>
        <time>2024-04-14T09:28:07Z</time>
      </trkpt>
      <trkpt lat="47.95563" lon="-0.54005">
        <ele>73</ele>
        <time>2024-04-14T09:28:08Z</time>
      </trkpt>
      <trkpt lat="47.95561" lon="-0.54">
        <ele>71.6</ele>
        <time>2024-04-14T09:28:09Z</time>
      </trkpt>
      <trkpt lat="47.9556" lon="-0.53994">
        <ele>71.6</ele>
        <time>2024-04-14T09:28:10Z</time>
      </trkpt>
      <trkpt lat="47.95559" lon="-0.53989">
        <ele>71.6</ele>
        <time>2024-04-14T09:28:11Z</time>
      </trkpt>
      <trkpt lat="47.95557" lon="-0.53983">
        <ele>72.6</ele>
        <time>2024-04-14T09:28:12Z</time>
      </trkpt>
      <trkpt lat="47.95556" lon="-0.53978">
        <ele>72.4</ele>
        <time>2024-04-14T09:28:13Z</time>
      </trkpt>
      <trkpt lat="47.95554" lon="-0.53972">
        <ele>72.4</ele>
        <time>2024-04-14T09:28:14Z</time>
      </trkpt>
      <trkpt lat="47.95553" lon="-0.53966">
        <ele>72.4</ele>
        <time>2024-04-14T09:28:15Z</time>
      </trkpt>
      <trkpt lat="47.95551" lon="-0.53961">
        <ele>72.6</ele>
        <time>2024-04-14T09:28:16Z</time>
      </trkpt>
      <trkpt lat="47.95549" lon="-0.53956">
        <ele>74.6</ele>
        <time>2024-04-14T09:28:17Z</time>
      </trkpt>
      <trkpt lat="47.95548" lon="-0.53951">
        <ele>74.6</ele>
        <time>2024-04-14T09:28:18Z</time>
      </trkpt>
      <trkpt lat="47.95547" lon="-0.53946">
        <ele>74.6</ele>
        <time>2024-04-14T09:28:19Z</time>
      </trkpt>
      <trkpt lat="47.95545" lon="-0.5394">
        <ele>73.6</ele>
        <time>2024-04-14T09:28:20Z</time>
      </trkpt>
      <trkpt lat="47.95544" lon="-0.53935">
        <ele>71.6</ele>
        <time>2024-04-14T09:28:21Z</time>
      </trkpt>
      <trkpt lat="47.95543" lon="-0.5393">
        <ele>71.6</ele>
        <time>2024-04-14T09:28:22Z</time>
      </trkpt>
      <trkpt lat="47.95541" lon="-0.53924">
        <ele>71.6</ele>
        <time>2024-04-14T09:28:23Z</time>
      </trkpt>
      <trkpt lat="47.9554" lon="-0.53919">
        <ele>72.6</ele>
        <time>2024-04-14T09:28:24Z</time>
      </trkpt>
      <trkpt lat="47.95539" lon="-0.53913">
        <ele>72</ele>
        <time>2024-04-14T09:28:25Z</time>
      </trkpt>
      <trkpt lat="47.95538" lon="-0.53908">
        <ele>72</ele>
        <time>2024-04-14T09:28:26Z</time>
      </trkpt>
      <trkpt lat="47.95537" lon="-0.53903">
        <ele>72</ele>
        <time>2024-04-14T09:28:27Z</time>
      </trkpt>
      <trkpt lat="47.95536" lon="-0.53898">
        <ele>72</ele>
        <time>2024-04-14T09:28:28Z</time>
      </trkpt>
      <trkpt lat="47.95535" lon="-0.53893">
        <ele>71.8</ele>
        <time>2024-04-14T09:28:29Z</time>
      </trkpt>
      <trkpt lat="47.95534" lon="-0.53887">
        <ele>71.8</ele>
        <time>2024-04-14T09:28:30Z</time>
      </trkpt>
      <trkpt lat="47.95532" lon="-0.53882">
        <ele>71.8</ele>
        <time>2024-04-14T09:28:31Z</time>
      </trkpt>
      <trkpt lat="47.95531" lon="-0.53877">
        <ele>71.8</ele>
        <time>2024-04-14T09:28:32Z</time>
      </trkpt>
      <trkpt lat="47.95529" lon="-0.53872">
        <ele>72.2</ele>
        <time>2024-04-14T09:28:33Z</time>
      </trkpt>
      <trkpt lat="47.95528" lon="-0.53867">
        <ele>72.2</ele>
        <time>2024-04-14T09:28:34Z</time>
      </trkpt>
      <trkpt lat="47.95527" lon="-0.53862">
        <ele>72.2</ele>
        <time>2024-04-14T09:28:35Z</time>
      </trkpt>
      <trkpt lat="47.95526" lon="-0.53856">
        <ele>72.2</ele>
        <time>2024-04-14T09:28:36Z</time>
      </trkpt>
      <trkpt lat="47.95524" lon="-0.53851">
        <ele>71.8</ele>
        <time>2024-04-14T09:28:37Z</time>
      </trkpt>
      <trkpt lat="47.95523" lon="-0.53846">
        <ele>71.8</ele>
        <time>2024-04-14T09:28:38Z</time>
      </trkpt>
      <trkpt lat="47.95522" lon="-0.53841">
        <ele>71.8</ele>
        <time>2024-04-14T09:28:39Z</time>
      </trkpt>
      <trkpt lat="47.9552" lon="-0.53836">
        <ele>71.8</ele>
        <time>2024-04-14T09:28:40Z</time>
      </trkpt>
      <trkpt lat="47.95519" lon="-0.53832">
        <ele>70.6</ele>
        <time>2024-04-14T09:28:41Z</time>
      </trkpt>
      <trkpt lat="47.95518" lon="-0.53827">
        <ele>70.6</ele>
        <time>2024-04-14T09:28:42Z</time>
      </trkpt>
      <trkpt lat="47.95517" lon="-0.53823">
        <ele>70.6</ele>
        <time>2024-04-14T09:28:43Z</time>
      </trkpt>
      <trkpt lat="47.95517" lon="-0.53818">
        <ele>71.6</ele>
        <time>2024-04-14T09:28:44Z</time>
      </trkpt>
      <trkpt lat="47.95516" lon="-0.53814">
        <ele>71.2</ele>
        <time>2024-04-14T09:28:45Z</time>
      </trkpt>
      <trkpt lat="47.95516" lon="-0.53809">
        <ele>71.2</ele>
        <time>2024-04-14T09:28:46Z</time>
      </trkpt>
      <trkpt lat="47.95515" lon="-0.53806">
        <ele>71.2</ele>
        <time>2024-04-14T09:28:47Z</time>
      </trkpt>
      <trkpt lat="47.95514" lon="-0.53801">
        <ele>71.6</ele>
        <time>2024-04-14T09:28:48Z</time>
      </trkpt>
      <trkpt lat="47.95514" lon="-0.53797">
        <ele>72</ele>
        <time>2024-04-14T09:28:49Z</time>
      </trkpt>
      <trkpt lat="47.95513" lon="-0.53794">
        <ele>72</ele>
        <time>2024-04-14T09:28:50Z</time>
      </trkpt>
      <trkpt lat="47.95513" lon="-0.53789">
        <ele>72</ele>
        <time>2024-04-14T09:28:51Z</time>
      </trkpt>
      <trkpt lat="47.95513" lon="-0.53785">
        <ele>72</ele>
        <time>2024-04-14T09:28:52Z</time>
      </trkpt>
      <trkpt lat="47.95513" lon="-0.5378">
        <ele>73.6</ele>
        <time>2024-04-14T09:28:53Z</time>
      </trkpt>
      <trkpt lat="47.95513" lon="-0.53775">
        <ele>73.6</ele>
        <time>2024-04-14T09:28:54Z</time>
      </trkpt>
      <trkpt lat="47.95514" lon="-0.53771">
        <ele>73.6</ele>
        <time>2024-04-14T09:28:55Z</time>
      </trkpt>
      <trkpt lat="47.95514" lon="-0.53766">
        <ele>73</ele>
        <time>2024-04-14T09:28:56Z</time>
      </trkpt>
      <trkpt lat="47.95515" lon="-0.53761">
        <ele>72.6</ele>
        <time>2024-04-14T09:28:57Z</time>
      </trkpt>
      <trkpt lat="47.95515" lon="-0.53756">
        <ele>72.6</ele>
        <time>2024-04-14T09:28:58Z</time>
      </trkpt>
      <trkpt lat="47.95515" lon="-0.53752">
        <ele>72.6</ele>
        <time>2024-04-14T09:28:59Z</time>
      </trkpt>
      <trkpt lat="47.95515" lon="-0.53747">
        <ele>72.6</ele>
        <time>2024-04-14T09:29:00Z</time>
      </trkpt>
      <trkpt lat="47.95516" lon="-0.53742">
        <ele>72.6</ele>
        <time>2024-04-14T09:29:01Z</time>
      </trkpt>
      <trkpt lat="47.95516" lon="-0.53738">
        <ele>72.6</ele>
        <time>2024-04-14T09:29:02Z</time>
      </trkpt>
      <trkpt lat="47.95516" lon="-0.53734">
        <ele>72.6</ele>
        <time>2024-04-14T09:29:03Z</time>
      </trkpt>
      <trkpt lat="47.95516" lon="-0.5373">
        <ele>72</ele>
        <time>2024-04-14T09:29:04Z</time>
      </trkpt>
      <trkpt lat="47.95517" lon="-0.53726">
        <ele>71.8</ele>
        <time>2024-04-14T09:29:05Z</time>
      </trkpt>
      <trkpt lat="47.95517" lon="-0.53722">
        <ele>71.8</ele>
        <time>2024-04-14T09:29:06Z</time>
      </trkpt>
      <trkpt lat="47.95517" lon="-0.53717">
        <ele>71.8</ele>
        <time>2024-04-14T09:29:07Z</time>
      </trkpt>
      <trkpt lat="47.95517" lon="-0.53713">
        <ele>71.8</ele>
        <time>2024-04-14T09:29:08Z</time>
      </trkpt>
      <trkpt lat="47.95517" lon="-0.53708">
        <ele>71.8</ele>
        <time>2024-04-14T09:29:09Z</time>
      </trkpt>
      <trkpt lat="47.95517" lon="-0.53704">
        <ele>71.8</ele>
        <time>2024-04-14T09:29:10Z</time>
      </trkpt>
      <trkpt lat="47.95517" lon="-0.537">
        <ele>71.8</ele>
        <time>2024-04-14T09:29:11Z</time>
      </trkpt>
      <trkpt lat="47.95517" lon="-0.53696">
        <ele>72.6</ele>
        <time>2024-04-14T09:29:12Z</time>
      </trkpt>
      <trkpt lat="47.95517" lon="-0.53691">
        <ele>71.2</ele>
        <time>2024-04-14T09:29:13Z</time>
      </trkpt>
      <trkpt lat="47.95517" lon="-0.53687">
        <ele>71.2</ele>
        <time>2024-04-14T09:29:14Z</time>
      </trkpt>
      <trkpt lat="47.95517" lon="-0.53682">
        <ele>71.2</ele>
        <time>2024-04-14T09:29:15Z</time>
      </trkpt>
      <trkpt lat="47.95517" lon="-0.53678">
        <ele>72.2</ele>
        <time>2024-04-14T09:29:16Z</time>
      </trkpt>
      <trkpt lat="47.95517" lon="-0.53673">
        <ele>72.4</ele>
        <time>2024-04-14T09:29:17Z</time>
      </trkpt>
      <trkpt lat="47.95517" lon="-0.53668">
        <ele>72.4</ele>
        <time>2024-04-14T09:29:18Z</time>
      </trkpt>
      <trkpt lat="47.95517" lon="-0.53664">
        <ele>72.4</ele>
        <time>2024-04-14T09:29:19Z</time>
      </trkpt>
      <trkpt lat="47.95517" lon="-0.53659">
        <ele>72.4</ele>
        <time>2024-04-14T09:29:20Z</time>
      </trkpt>
      <trkpt lat="47.95517" lon="-0.53654">
        <ele>71.4</ele>
        <time>2024-04-14T09:29:21Z</time>
      </trkpt>
      <trkpt lat="47.95517" lon="-0.5365">
        <ele>71.4</ele>
        <time>2024-04-14T09:29:22Z</time>
      </trkpt>
      <trkpt lat="47.95517" lon="-0.53645">
        <ele>71.4</ele>
        <time>2024-04-14T09:29:23Z</time>
      </trkpt>
      <trkpt lat="47.95518" lon="-0.53641">
        <ele>72.2</ele>
        <time>2024-04-14T09:29:24Z</time>
      </trkpt>
      <trkpt lat="47.95518" lon="-0.53636">
        <ele>71.8</ele>
        <time>2024-04-14T09:29:25Z</time>
      </trkpt>
      <trkpt lat="47.95518" lon="-0.53631">
        <ele>71.8</ele>
        <time>2024-04-14T09:29:26Z</time>
      </trkpt>
      <trkpt lat="47.95518" lon="-0.53627">
        <ele>71.8</ele>
        <time>2024-04-14T09:29:27Z</time>
      </trkpt>
      <trkpt lat="47.95518" lon="-0.53622">
        <ele>71.8</ele>
        <time>2024-04-14T09:29:28Z</time>
      </trkpt>
      <trkpt lat="47.95518" lon="-0.53617">
        <ele>72.2</ele>
        <time>2024-04-14T09:29:29Z</time>
      </trkpt>
      <trkpt lat="47.95518" lon="-0.53613">
        <ele>72.2</ele>
        <time>2024-04-14T09:29:30Z</time>
      </trkpt>
      <trkpt lat="47.95518" lon="-0.53609">
        <ele>72.2</ele>
        <time>2024-04-14T09:29:31Z</time>
      </trkpt>
      <trkpt lat="47.95518" lon="-0.53605">
        <ele>72.6</ele>
        <time>2024-04-14T09:29:32Z</time>
      </trkpt>
      <trkpt lat="47.95519" lon="-0.53601">
        <ele>73</ele>
        <time>2024-04-14T09:29:33Z</time>
      </trkpt>
      <trkpt lat="47.95519" lon="-0.53597">
        <ele>73</ele>
        <time>2024-04-14T09:29:34Z</time>
      </trkpt>
      <trkpt lat="47.9552" lon="-0.53594">
        <ele>73</ele>
        <time>2024-04-14T09:29:35Z</time>
      </trkpt>
      <trkpt lat="47.9552" lon="-0.53591">
        <ele>73</ele>
        <time>2024-04-14T09:29:36Z</time>
      </trkpt>
      <trkpt lat="47.95519" lon="-0.5359">
        <ele>73.4</ele>
        <time>2024-04-14T09:29:37Z</time>
      </trkpt>
      <trkpt lat="47.95519" lon="-0.53589">
        <ele>73.4</ele>
        <time>2024-04-14T09:29:38Z</time>
      </trkpt>
      <trkpt lat="47.95518" lon="-0.53588">
        <ele>73.4</ele>
        <time>2024-04-14T09:29:39Z</time>
      </trkpt>
      <trkpt lat="47.95518" lon="-0.53587">
        <ele>73.4</ele>
        <time>2024-04-14T09:29:40Z</time>
      </trkpt>
      <trkpt lat="47.95518" lon="-0.53586">
        <ele>72.8</ele>
        <time>2024-04-14T09:29:41Z</time>
      </trkpt>
      <trkpt lat="47.95518" lon="-0.53585">
        <ele>72.8</ele>
        <time>2024-04-14T09:29:42Z</time>
      </trkpt>
      <trkpt lat="47.95517" lon="-0.53584">
        <ele>72.8</ele>
        <time>2024-04-14T09:29:43Z</time>
      </trkpt>
      <trkpt lat="47.95517" lon="-0.53583">
        <ele>73.2</ele>
        <time>2024-04-14T09:29:44Z</time>
      </trkpt>
      <trkpt lat="47.95518" lon="-0.53582">
        <ele>73.2</ele>
        <time>2024-04-14T09:29:45Z</time>
      </trkpt>
      <trkpt lat="47.95519" lon="-0.5358">
        <ele>73.2</ele>
        <time>2024-04-14T09:29:46Z</time>
      </trkpt>
      <trkpt lat="47.95521" lon="-0.53578">
        <ele>73.2</ele>
        <time>2024-04-14T09:29:47Z</time>
      </trkpt>
      <trkpt lat="47.95524" lon="-0.53577">
        <ele>72.6</ele>
        <time>2024-04-14T09:29:48Z</time>
      </trkpt>
      <trkpt lat="47.95526" lon="-0.53575">
        <ele>72.6</ele>
        <time>2024-04-14T09:29:49Z</time>
      </trkpt>
      <trkpt lat="47.95529" lon="-0.53573">
        <ele>72.6</ele>
        <time>2024-04-14T09:29:50Z</time>
      </trkpt>
      <trkpt lat="47.95532" lon="-0.53571">
        <ele>72.6</ele>
        <time>2024-04-14T09:29:51Z</time>
      </trkpt>
      <trkpt lat="47.95535" lon="-0.53569">
        <ele>72.6</ele>
        <time>2024-04-14T09:29:52Z</time>
      </trkpt>
      <trkpt lat="47.95539" lon="-0.53567">
        <ele>71.8</ele>
        <time>2024-04-14T09:29:53Z</time>
      </trkpt>
      <trkpt lat="47.95542" lon="-0.53565">
        <ele>71.8</ele>
        <time>2024-04-14T09:29:54Z</time>
      </trkpt>
      <trkpt lat="47.95546" lon="-0.53563">
        <ele>71.8</ele>
        <time>2024-04-14T09:29:55Z</time>
      </trkpt>
      <trkpt lat="47.95549" lon="-0.53561">
        <ele>71.8</ele>
        <time>2024-04-14T09:29:56Z</time>
      </trkpt>
      <trkpt lat="47.95552" lon="-0.53557">
        <ele>72</ele>
        <time>2024-04-14T09:29:57Z</time>
      </trkpt>
      <trkpt lat="47.95555" lon="-0.53554">
        <ele>72</ele>
        <time>2024-04-14T09:29:58Z</time>
      </trkpt>
      <trkpt lat="47.95558" lon="-0.5355">
        <ele>72</ele>
        <time>2024-04-14T09:29:59Z</time>
      </trkpt>
      <trkpt lat="47.95561" lon="-0.53547">
        <ele>72</ele>
        <time>2024-04-14T09:30:00Z</time>
      </trkpt>
      <trkpt lat="47.95563" lon="-0.53544">
        <ele>72</ele>
        <time>2024-04-14T09:30:01Z</time>
      </trkpt>
      <trkpt lat="47.95566" lon="-0.5354">
        <ele>72</ele>
        <time>2024-04-14T09:30:02Z</time>
      </trkpt>
      <trkpt lat="47.95568" lon="-0.53536">
        <ele>72</ele>
        <time>2024-04-14T09:30:03Z</time>
      </trkpt>
      <trkpt lat="47.95571" lon="-0.53531">
        <ele>71.6</ele>
        <time>2024-04-14T09:30:04Z</time>
      </trkpt>
      <trkpt lat="47.95574" lon="-0.53526">
        <ele>72</ele>
        <time>2024-04-14T09:30:05Z</time>
      </trkpt>
      <trkpt lat="47.95577" lon="-0.53521">
        <ele>72</ele>
        <time>2024-04-14T09:30:06Z</time>
      </trkpt>
      <trkpt lat="47.9558" lon="-0.53516">
        <ele>72</ele>
        <time>2024-04-14T09:30:07Z</time>
      </trkpt>
      <trkpt lat="47.95583" lon="-0.53512">
        <ele>71.6</ele>
        <time>2024-04-14T09:30:08Z</time>
      </trkpt>
      <trkpt lat="47.95587" lon="-0.53507">
        <ele>71.6</ele>
        <time>2024-04-14T09:30:09Z</time>
      </trkpt>
      <trkpt lat="47.9559" lon="-0.53501">
        <ele>71.6</ele>
        <time>2024-04-14T09:30:10Z</time>
      </trkpt>
      <trkpt lat="47.95593" lon="-0.53496">
        <ele>71.6</ele>
        <time>2024-04-14T09:30:11Z</time>
      </trkpt>
      <trkpt lat="47.95596" lon="-0.53491">
        <ele>71.6</ele>
        <time>2024-04-14T09:30:12Z</time>
      </trkpt>
      <trkpt lat="47.956" lon="-0.53486">
        <ele>71.6</ele>
        <time>2024-04-14T09:30:13Z</time>
      </trkpt>
      <trkpt lat="47.95603" lon="-0.53481">
        <ele>71.6</ele>
        <time>2024-04-14T09:30:14Z</time>
      </trkpt>
      <trkpt lat="47.95606" lon="-0.53476">
        <ele>71.6</ele>
        <time>2024-04-14T09:30:15Z</time>
      </trkpt>
      <trkpt lat="47.9561" lon="-0.53471">
        <ele>72</ele>
        <time>2024-04-14T09:30:16Z</time>
      </trkpt>
      <trkpt lat="47.95613" lon="-0.53466">
        <ele>72.6</ele>
        <time>2024-04-14T09:30:17Z</time>
      </trkpt>
      <trkpt lat="47.95617" lon="-0.53462">
        <ele>72.6</ele>
        <time>2024-04-14T09:30:18Z</time>
      </trkpt>
      <trkpt lat="47.9562" lon="-0.53458">
        <ele>72.6</ele>
        <time>2024-04-14T09:30:19Z</time>
      </trkpt>
      <trkpt lat="47.95624" lon="-0.53454">
        <ele>73.6</ele>
        <time>2024-04-14T09:30:20Z</time>
      </trkpt>
      <trkpt lat="47.95627" lon="-0.5345">
        <ele>74</ele>
        <time>2024-04-14T09:30:21Z</time>
      </trkpt>
      <trkpt lat="47.95631" lon="-0.53447">
        <ele>74</ele>
        <time>2024-04-14T09:30:22Z</time>
      </trkpt>
      <trkpt lat="47.95635" lon="-0.53443">
        <ele>74</ele>
        <time>2024-04-14T09:30:23Z</time>
      </trkpt>
      <trkpt lat="47.95638" lon="-0.5344">
        <ele>74</ele>
        <time>2024-04-14T09:30:24Z</time>
      </trkpt>
      <trkpt lat="47.95642" lon="-0.53436">
        <ele>73.8</ele>
        <time>2024-04-14T09:30:25Z</time>
      </trkpt>
      <trkpt lat="47.95646" lon="-0.53432">
        <ele>73.8</ele>
        <time>2024-04-14T09:30:26Z</time>
      </trkpt>
      <trkpt lat="47.95649" lon="-0.53429">
        <ele>73.8</ele>
        <time>2024-04-14T09:30:27Z</time>
      </trkpt>
      <trkpt lat="47.95653" lon="-0.53425">
        <ele>73.8</ele>
        <time>2024-04-14T09:30:28Z</time>
      </trkpt>
      <trkpt lat="47.95657" lon="-0.53421">
        <ele>74.8</ele>
        <time>2024-04-14T09:30:29Z</time>
      </trkpt>
      <trkpt lat="47.9566" lon="-0.53416">
        <ele>74.8</ele>
        <time>2024-04-14T09:30:30Z</time>
      </trkpt>
      <trkpt lat="47.95663" lon="-0.53411">
        <ele>74.8</ele>
        <time>2024-04-14T09:30:31Z</time>
      </trkpt>
      <trkpt lat="47.95667" lon="-0.53406">
        <ele>74.8</ele>
        <time>2024-04-14T09:30:32Z</time>
      </trkpt>
      <trkpt lat="47.9567" lon="-0.53401">
        <ele>74.4</ele>
        <time>2024-04-14T09:30:33Z</time>
      </trkpt>
      <trkpt lat="47.95673" lon="-0.53396">
        <ele>74.4</ele>
        <time>2024-04-14T09:30:34Z</time>
      </trkpt>
      <trkpt lat="47.95676" lon="-0.5339">
        <ele>74.4</ele>
        <time>2024-04-14T09:30:35Z</time>
      </trkpt>
      <trkpt lat="47.95679" lon="-0.53384">
        <ele>74.4</ele>
        <time>2024-04-14T09:30:36Z</time>
      </trkpt>
      <trkpt lat="47.95682" lon="-0.53378">
        <ele>73.8</ele>
        <time>2024-04-14T09:30:37Z</time>
      </trkpt>
      <trkpt lat="47.95685" lon="-0.53371">
        <ele>73.8</ele>
        <time>2024-04-14T09:30:38Z</time>
      </trkpt>
      <trkpt lat="47.95689" lon="-0.53365">
        <ele>73.8</ele>
        <time>2024-04-14T09:30:39Z</time>
      </trkpt>
      <trkpt lat="47.95692" lon="-0.53358">
        <ele>73.8</ele>
        <time>2024-04-14T09:30:40Z</time>
      </trkpt>
      <trkpt lat="47.95696" lon="-0.53352">
        <ele>73.2</ele>
        <time>2024-04-14T09:30:41Z</time>
      </trkpt>
      <trkpt lat="47.95699" lon="-0.53345">
        <ele>73.2</ele>
        <time>2024-04-14T09:30:42Z</time>
      </trkpt>
      <trkpt lat="47.95703" lon="-0.53339">
        <ele>73.2</ele>
        <time>2024-04-14T09:30:43Z</time>
      </trkpt>
      <trkpt lat="47.95706" lon="-0.53332">
        <ele>73.2</ele>
        <time>2024-04-14T09:30:44Z</time>
      </trkpt>
      <trkpt lat="47.9571" lon="-0.53326">
        <ele>73.4</ele>
        <time>2024-04-14T09:30:45Z</time>
      </trkpt>
      <trkpt lat="47.95713" lon="-0.53319">
        <ele>73.4</ele>
        <time>2024-04-14T09:30:46Z</time>
      </trkpt>
      <trkpt lat="47.95716" lon="-0.53313">
        <ele>73.4</ele>
        <time>2024-04-14T09:30:47Z</time>
      </trkpt>
      <trkpt lat="47.95719" lon="-0.53306">
        <ele>72.8</ele>
        <time>2024-04-14T09:30:48Z</time>
      </trkpt>
      <trkpt lat="47.95723" lon="-0.533">
        <ele>73.2</ele>
        <time>2024-04-14T09:30:49Z</time>
      </trkpt>
      <trkpt lat="47.95726" lon="-0.53294">
        <ele>73.2</ele>
        <time>2024-04-14T09:30:50Z</time>
      </trkpt>
      <trkpt lat="47.95729" lon="-0.53287">
        <ele>73.2</ele>
        <time>2024-04-14T09:30:51Z</time>
      </trkpt>
      <trkpt lat="47.95733" lon="-0.53281">
        <ele>73</ele>
        <time>2024-04-14T09:30:52Z</time>
      </trkpt>
      <trkpt lat="47.95736" lon="-0.53274">
        <ele>73</ele>
        <time>2024-04-14T09:30:53Z</time>
      </trkpt>
      <trkpt lat="47.95739" lon="-0.53268">
        <ele>73</ele>
        <time>2024-04-14T09:30:54Z</time>
      </trkpt>
      <trkpt lat="47.95743" lon="-0.53262">
        <ele>73</ele>
        <time>2024-04-14T09:30:55Z</time>
      </trkpt>
      <trkpt lat="47.95746" lon="-0.53256">
        <ele>73</ele>
        <time>2024-04-14T09:30:56Z</time>
      </trkpt>
      <trkpt lat="47.9575" lon="-0.53249">
        <ele>73</ele>
        <time>2024-04-14T09:30:57Z</time>
      </trkpt>
      <trkpt lat="47.95753" lon="-0.53243">
        <ele>73</ele>
        <time>2024-04-14T09:30:58Z</time>
      </trkpt>
      <trkpt lat="47.95756" lon="-0.53237">
        <ele>73</ele>
        <time>2024-04-14T09:30:59Z</time>
      </trkpt>
      <trkpt lat="47.95759" lon="-0.53231">
        <ele>73.4</ele>
        <time>2024-04-14T09:31:00Z</time>
      </trkpt>
      <trkpt lat="47.95762" lon="-0.53225">
        <ele>72.8</ele>
        <time>2024-04-14T09:31:01Z</time>
      </trkpt>
      <trkpt lat="47.95765" lon="-0.53219">
        <ele>72.8</ele>
        <time>2024-04-14T09:31:02Z</time>
      </trkpt>
      <trkpt lat="47.95769" lon="-0.53213">
        <ele>72.8</ele>
        <time>2024-04-14T09:31:03Z</time>
      </trkpt>
      <trkpt lat="47.95772" lon="-0.53207">
        <ele>73.8</ele>
        <time>2024-04-14T09:31:04Z</time>
      </trkpt>
      <trkpt lat="47.95775" lon="-0.53201">
        <ele>73.4</ele>
        <time>2024-04-14T09:31:05Z</time>
      </trkpt>
      <trkpt lat="47.95778" lon="-0.53195">
        <ele>73.4</ele>
        <time>2024-04-14T09:31:06Z</time>
      </trkpt>
      <trkpt lat="47.95781" lon="-0.5319">
        <ele>73.4</ele>
        <time>2024-04-14T09:31:07Z</time>
      </trkpt>
      <trkpt lat="47.95783" lon="-0.53186">
        <ele>74.4</ele>
        <time>2024-04-14T09:31:08Z</time>
      </trkpt>
      <trkpt lat="47.95783" lon="-0.53182">
        <ele>74.6</ele>
        <time>2024-04-14T09:31:09Z</time>
      </trkpt>
      <trkpt lat="47.95782" lon="-0.5318">
        <ele>74.6</ele>
        <time>2024-04-14T09:31:10Z</time>
      </trkpt>
      <trkpt lat="47.9578" lon="-0.53179">
        <ele>74.6</ele>
        <time>2024-04-14T09:31:11Z</time>
      </trkpt>
      <trkpt lat="47.95778" lon="-0.53178">
        <ele>75.6</ele>
        <time>2024-04-14T09:31:12Z</time>
      </trkpt>
      <trkpt lat="47.95777" lon="-0.53176">
        <ele>75.8</ele>
        <time>2024-04-14T09:31:13Z</time>
      </trkpt>
      <trkpt lat="47.95775" lon="-0.53173">
        <ele>75.8</ele>
        <time>2024-04-14T09:31:14Z</time>
      </trkpt>
      <trkpt lat="47.95773" lon="-0.53169">
        <ele>75.8</ele>
        <time>2024-04-14T09:31:15Z</time>
      </trkpt>
      <trkpt lat="47.95771" lon="-0.53165">
        <ele>75.8</ele>
        <time>2024-04-14T09:31:16Z</time>
      </trkpt>
      <trkpt lat="47.9577" lon="-0.53162">
        <ele>74.6</ele>
        <time>2024-04-14T09:31:17Z</time>
      </trkpt>
      <trkpt lat="47.95768" lon="-0.53158">
        <ele>74.6</ele>
        <time>2024-04-14T09:31:18Z</time>
      </trkpt>
      <trkpt lat="47.95767" lon="-0.53153">
        <ele>74.6</ele>
        <time>2024-04-14T09:31:19Z</time>
      </trkpt>
      <trkpt lat="47.95766" lon="-0.53149">
        <ele>75.6</ele>
        <time>2024-04-14T09:31:20Z</time>
      </trkpt>
      <trkpt lat="47.95765" lon="-0.53145">
        <ele>76.4</ele>
        <time>2024-04-14T09:31:21Z</time>
      </trkpt>
      <trkpt lat="47.95763" lon="-0.53142">
        <ele>76.4</ele>
        <time>2024-04-14T09:31:22Z</time>
      </trkpt>
      <trkpt lat="47.95761" lon="-0.53141">
        <ele>76.4</ele>
        <time>2024-04-14T09:31:23Z</time>
      </trkpt>
      <trkpt lat="47.95757" lon="-0.53141">
        <ele>76.4</ele>
        <time>2024-04-14T09:31:24Z</time>
      </trkpt>
      <trkpt lat="47.95754" lon="-0.53142">
        <ele>78</ele>
        <time>2024-04-14T09:31:25Z</time>
      </trkpt>
      <trkpt lat="47.95751" lon="-0.53143">
        <ele>78</ele>
        <time>2024-04-14T09:31:26Z</time>
      </trkpt>
      <trkpt lat="47.95748" lon="-0.53144">
        <ele>78</ele>
        <time>2024-04-14T09:31:27Z</time>
      </trkpt>
      <trkpt lat="47.95745" lon="-0.53145">
        <ele>77</ele>
        <time>2024-04-14T09:31:28Z</time>
      </trkpt>
      <trkpt lat="47.95742" lon="-0.53147">
        <ele>76</ele>
        <time>2024-04-14T09:31:29Z</time>
      </trkpt>
      <trkpt lat="47.95739" lon="-0.53148">
        <ele>76</ele>
        <time>2024-04-14T09:31:30Z</time>
      </trkpt>
      <trkpt lat="47.95736" lon="-0.53149">
        <ele>76</ele>
        <time>2024-04-14T09:31:31Z</time>
      </trkpt>
      <trkpt lat="47.95732" lon="-0.53149">
        <ele>76</ele>
        <time>2024-04-14T09:31:32Z</time>
      </trkpt>
      <trkpt lat="47.95729" lon="-0.5315">
        <ele>77.8</ele>
        <time>2024-04-14T09:31:33Z</time>
      </trkpt>
      <trkpt lat="47.95725" lon="-0.53151">
        <ele>77.8</ele>
        <time>2024-04-14T09:31:34Z</time>
      </trkpt>
      <trkpt lat="47.95721" lon="-0.53152">
        <ele>77.8</ele>
        <time>2024-04-14T09:31:35Z</time>
      </trkpt>
      <trkpt lat="47.95717" lon="-0.53152">
        <ele>77.2</ele>
        <time>2024-04-14T09:31:36Z</time>
      </trkpt>
      <trkpt lat="47.95714" lon="-0.53153">
        <ele>76.2</ele>
        <time>2024-04-14T09:31:37Z</time>
      </trkpt>
      <trkpt lat="47.9571" lon="-0.53153">
        <ele>76.2</ele>
        <time>2024-04-14T09:31:38Z</time>
      </trkpt>
      <trkpt lat="47.95706" lon="-0.53154">
        <ele>76.2</ele>
        <time>2024-04-14T09:31:39Z</time>
      </trkpt>
      <trkpt lat="47.95703" lon="-0.53154">
        <ele>76.8</ele>
        <time>2024-04-14T09:31:40Z</time>
      </trkpt>
      <trkpt lat="47.95699" lon="-0.53155">
        <ele>76.2</ele>
        <time>2024-04-14T09:31:41Z</time>
      </trkpt>
      <trkpt lat="47.95696" lon="-0.53155">
        <ele>76.2</ele>
        <time>2024-04-14T09:31:42Z</time>
      </trkpt>
      <trkpt lat="47.95692" lon="-0.53155">
        <ele>76.2</ele>
        <time>2024-04-14T09:31:43Z</time>
      </trkpt>
      <trkpt lat="47.95689" lon="-0.53155">
        <ele>77.2</ele>
        <time>2024-04-14T09:31:44Z</time>
      </trkpt>
      <trkpt lat="47.95685" lon="-0.53155">
        <ele>78</ele>
        <time>2024-04-14T09:31:45Z</time>
      </trkpt>
      <trkpt lat="47.95682" lon="-0.53156">
        <ele>78</ele>
        <time>2024-04-14T09:31:46Z</time>
      </trkpt>
      <trkpt lat="47.95679" lon="-0.53156">
        <ele>78</ele>
        <time>2024-04-14T09:31:47Z</time>
      </trkpt>
      <trkpt lat="47.95675" lon="-0.53157">
        <ele>78</ele>
        <time>2024-04-14T09:31:48Z</time>
      </trkpt>
      <trkpt lat="47.95672" lon="-0.53158">
        <ele>78.2</ele>
        <time>2024-04-14T09:31:49Z</time>
      </trkpt>
      <trkpt lat="47.95668" lon="-0.53158">
        <ele>78.2</ele>
        <time>2024-04-14T09:31:50Z</time>
      </trkpt>
      <trkpt lat="47.95665" lon="-0.53159">
        <ele>78.2</ele>
        <time>2024-04-14T09:31:51Z</time>
      </trkpt>
      <trkpt lat="47.95662" lon="-0.53159">
        <ele>78.2</ele>
        <time>2024-04-14T09:31:52Z</time>
      </trkpt>
      <trkpt lat="47.95659" lon="-0.53159">
        <ele>79</ele>
        <time>2024-04-14T09:31:53Z</time>
      </trkpt>
      <trkpt lat="47.95656" lon="-0.5316">
        <ele>79</ele>
        <time>2024-04-14T09:31:54Z</time>
      </trkpt>
      <trkpt lat="47.95653" lon="-0.5316">
        <ele>79</ele>
        <time>2024-04-14T09:31:55Z</time>
      </trkpt>
      <trkpt lat="47.9565" lon="-0.53161">
        <ele>79</ele>
        <time>2024-04-14T09:31:56Z</time>
      </trkpt>
      <trkpt lat="47.95646" lon="-0.53162">
        <ele>78.4</ele>
        <time>2024-04-14T09:31:57Z</time>
      </trkpt>
      <trkpt lat="47.95643" lon="-0.53162">
        <ele>78.4</ele>
        <time>2024-04-14T09:31:58Z</time>
      </trkpt>
      <trkpt lat="47.9564" lon="-0.53162">
        <ele>78.4</ele>
        <time>2024-04-14T09:31:59Z</time>
      </trkpt>
      <trkpt lat="47.95637" lon="-0.53162">
        <ele>78.4</ele>
        <time>2024-04-14T09:32:00Z</time>
      </trkpt>
      <trkpt lat="47.95634" lon="-0.53162">
        <ele>79.6</ele>
        <time>2024-04-14T09:32:01Z</time>
      </trkpt>
      <trkpt lat="47.95631" lon="-0.53161">
        <ele>79.6</ele>
        <time>2024-04-14T09:32:02Z</time>
      </trkpt>
      <trkpt lat="47.95628" lon="-0.53159">
        <ele>79.6</ele>
        <time>2024-04-14T09:32:03Z</time>
      </trkpt>
      <trkpt lat="47.95626" lon="-0.53156">
        <ele>80.6</ele>
        <time>2024-04-14T09:32:04Z</time>
      </trkpt>
      <trkpt lat="47.95624" lon="-0.53152">
        <ele>79.6</ele>
        <time>2024-04-14T09:32:05Z</time>
      </trkpt>
      <trkpt lat="47.95622" lon="-0.53148">
        <ele>79.6</ele>
        <time>2024-04-14T09:32:06Z</time>
      </trkpt>
      <trkpt lat="47.95621" lon="-0.53143">
        <ele>79.6</ele>
        <time>2024-04-14T09:32:07Z</time>
      </trkpt>
      <trkpt lat="47.9562" lon="-0.53139">
        <ele>79.6</ele>
        <time>2024-04-14T09:32:08Z</time>
      </trkpt>
      <trkpt lat="47.95619" lon="-0.53134">
        <ele>79.2</ele>
        <time>2024-04-14T09:32:09Z</time>
      </trkpt>
      <trkpt lat="47.95618" lon="-0.53129">
        <ele>79.2</ele>
        <time>2024-04-14T09:32:10Z</time>
      </trkpt>
      <trkpt lat="47.95618" lon="-0.53124">
        <ele>79.2</ele>
        <time>2024-04-14T09:32:11Z</time>
      </trkpt>
      <trkpt lat="47.95617" lon="-0.5312">
        <ele>79</ele>
        <time>2024-04-14T09:32:12Z</time>
      </trkpt>
      <trkpt lat="47.95616" lon="-0.53115">
        <ele>79.6</ele>
        <time>2024-04-14T09:32:13Z</time>
      </trkpt>
      <trkpt lat="47.95616" lon="-0.53109">
        <ele>79.6</ele>
        <time>2024-04-14T09:32:14Z</time>
      </trkpt>
      <trkpt lat="47.95616" lon="-0.53104">
        <ele>79.6</ele>
        <time>2024-04-14T09:32:15Z</time>
      </trkpt>
      <trkpt lat="47.95615" lon="-0.531">
        <ele>78.8</ele>
        <time>2024-04-14T09:32:16Z</time>
      </trkpt>
      <trkpt lat="47.95615" lon="-0.53095">
        <ele>79.2</ele>
        <time>2024-04-14T09:32:17Z</time>
      </trkpt>
      <trkpt lat="47.95614" lon="-0.5309">
        <ele>79.2</ele>
        <time>2024-04-14T09:32:18Z</time>
      </trkpt>
      <trkpt lat="47.95614" lon="-0.53085">
        <ele>79.2</ele>
        <time>2024-04-14T09:32:19Z</time>
      </trkpt>
      <trkpt lat="47.95613" lon="-0.5308">
        <ele>79.2</ele>
        <time>2024-04-14T09:32:20Z</time>
      </trkpt>
      <trkpt lat="47.95613" lon="-0.53075">
        <ele>79.6</ele>
        <time>2024-04-14T09:32:21Z</time>
      </trkpt>
      <trkpt lat="47.95613" lon="-0.5307">
        <ele>79.6</ele>
        <time>2024-04-14T09:32:22Z</time>
      </trkpt>
      <trkpt lat="47.95612" lon="-0.53065">
        <ele>79.6</ele>
        <time>2024-04-14T09:32:23Z</time>
      </trkpt>
      <trkpt lat="47.95612" lon="-0.53061">
        <ele>79.6</ele>
        <time>2024-04-14T09:32:24Z</time>
      </trkpt>
      <trkpt lat="47.95611" lon="-0.53056">
        <ele>78.6</ele>
        <time>2024-04-14T09:32:25Z</time>
      </trkpt>
      <trkpt lat="47.9561" lon="-0.53051">
        <ele>78.6</ele>
        <time>2024-04-14T09:32:26Z</time>
      </trkpt>
      <trkpt lat="47.95609" lon="-0.53046">
        <ele>78.6</ele>
        <time>2024-04-14T09:32:27Z</time>
      </trkpt>
      <trkpt lat="47.95608" lon="-0.53041">
        <ele>78.2</ele>
        <time>2024-04-14T09:32:28Z</time>
      </trkpt>
      <trkpt lat="47.95607" lon="-0.53036">
        <ele>79</ele>
        <time>2024-04-14T09:32:29Z</time>
      </trkpt>
      <trkpt lat="47.95607" lon="-0.53031">
        <ele>79</ele>
        <time>2024-04-14T09:32:30Z</time>
      </trkpt>
      <trkpt lat="47.95606" lon="-0.53026">
        <ele>79</ele>
        <time>2024-04-14T09:32:31Z</time>
      </trkpt>
      <trkpt lat="47.95605" lon="-0.53021">
        <ele>79</ele>
        <time>2024-04-14T09:32:32Z</time>
      </trkpt>
      <trkpt lat="47.95604" lon="-0.53015">
        <ele>78.8</ele>
        <time>2024-04-14T09:32:33Z</time>
      </trkpt>
      <trkpt lat="47.95604" lon="-0.5301">
        <ele>78.8</ele>
        <time>2024-04-14T09:32:34Z</time>
      </trkpt>
      <trkpt lat="47.95603" lon="-0.53005">
        <ele>78.8</ele>
        <time>2024-04-14T09:32:35Z</time>
      </trkpt>
      <trkpt lat="47.95602" lon="-0.53">
        <ele>78.8</ele>
        <time>2024-04-14T09:32:36Z</time>
      </trkpt>
      <trkpt lat="47.95601" lon="-0.52995">
        <ele>79.4</ele>
        <time>2024-04-14T09:32:37Z</time>
      </trkpt>
      <trkpt lat="47.95601" lon="-0.5299">
        <ele>79.4</ele>
        <time>2024-04-14T09:32:38Z</time>
      </trkpt>
      <trkpt lat="47.956" lon="-0.52985">
        <ele>79.4</ele>
        <time>2024-04-14T09:32:39Z</time>
      </trkpt>
      <trkpt lat="47.95599" lon="-0.5298">
        <ele>79.4</ele>
        <time>2024-04-14T09:32:40Z</time>
      </trkpt>
      <trkpt lat="47.95598" lon="-0.52975">
        <ele>80</ele>
        <time>2024-04-14T09:32:41Z</time>
      </trkpt>
      <trkpt lat="47.95597" lon="-0.5297">
        <ele>80</ele>
        <time>2024-04-14T09:32:42Z</time>
      </trkpt>
      <trkpt lat="47.95597" lon="-0.52965">
        <ele>80</ele>
        <time>2024-04-14T09:32:43Z</time>
      </trkpt>
      <trkpt lat="47.95596" lon="-0.5296">
        <ele>79.2</ele>
        <time>2024-04-14T09:32:44Z</time>
      </trkpt>
      <trkpt lat="47.95596" lon="-0.52955">
        <ele>79.4</ele>
        <time>2024-04-14T09:32:45Z</time>
      </trkpt>
      <trkpt lat="47.95595" lon="-0.5295">
        <ele>79.4</ele>
        <time>2024-04-14T09:32:46Z</time>
      </trkpt>
      <trkpt lat="47.95595" lon="-0.52944">
        <ele>79.4</ele>
        <time>2024-04-14T09:32:47Z</time>
      </trkpt>
      <trkpt lat="47.95594" lon="-0.52939">
        <ele>79.4</ele>
        <time>2024-04-14T09:32:48Z</time>
      </trkpt>
      <trkpt lat="47.95593" lon="-0.52933">
        <ele>78.8</ele>
        <time>2024-04-14T09:32:49Z</time>
      </trkpt>
      <trkpt lat="47.95592" lon="-0.52928">
        <ele>78.8</ele>
        <time>2024-04-14T09:32:50Z</time>
      </trkpt>
      <trkpt lat="47.95591" lon="-0.52923">
        <ele>78.8</ele>
        <time>2024-04-14T09:32:51Z</time>
      </trkpt>
      <trkpt lat="47.9559" lon="-0.52917">
        <ele>78.8</ele>
        <time>2024-04-14T09:32:52Z</time>
      </trkpt>
      <trkpt lat="47.95589" lon="-0.52912">
        <ele>79.4</ele>
        <time>2024-04-14T09:32:53Z</time>
      </trkpt>
      <trkpt lat="47.95588" lon="-0.52906">
        <ele>79.4</ele>
        <time>2024-04-14T09:32:54Z</time>
      </trkpt>
      <trkpt lat="47.95587" lon="-0.529">
        <ele>79.4</ele>
        <time>2024-04-14T09:32:55Z</time>
      </trkpt>
      <trkpt lat="47.95586" lon="-0.52895">
        <ele>78.4</ele>
        <time>2024-04-14T09:32:56Z</time>
      </trkpt>
      <trkpt lat="47.95585" lon="-0.52889">
        <ele>78.6</ele>
        <time>2024-04-14T09:32:57Z</time>
      </trkpt>
      <trkpt lat="47.95584" lon="-0.52884">
        <ele>78.6</ele>
        <time>2024-04-14T09:32:58Z</time>
      </trkpt>
      <trkpt lat="47.95583" lon="-0.52878">
        <ele>78.6</ele>
        <time>2024-04-14T09:32:59Z</time>
      </trkpt>
      <trkpt lat="47.95582" lon="-0.52872">
        <ele>78.6</ele>
        <time>2024-04-14T09:33:00Z</time>
      </trkpt>
      <trkpt lat="47.95581" lon="-0.52867">
        <ele>78.6</ele>
        <time>2024-04-14T09:33:01Z</time>
      </trkpt>
      <trkpt lat="47.9558" lon="-0.52862">
        <ele>78.6</ele>
        <time>2024-04-14T09:33:02Z</time>
      </trkpt>
      <trkpt lat="47.9558" lon="-0.52856">
        <ele>78.6</ele>
        <time>2024-04-14T09:33:03Z</time>
      </trkpt>
      <trkpt lat="47.95579" lon="-0.52851">
        <ele>78.6</ele>
        <time>2024-04-14T09:33:04Z</time>
      </trkpt>
      <trkpt lat="47.95578" lon="-0.52846">
        <ele>78.6</ele>
        <time>2024-04-14T09:33:05Z</time>
      </trkpt>
      <trkpt lat="47.95578" lon="-0.52841">
        <ele>78.6</ele>
        <time>2024-04-14T09:33:06Z</time>
      </trkpt>
      <trkpt lat="47.95577" lon="-0.52836">
        <ele>78.6</ele>
        <time>2024-04-14T09:33:07Z</time>
      </trkpt>
      <trkpt lat="47.95576" lon="-0.52831">
        <ele>78.6</ele>
        <time>2024-04-14T09:33:08Z</time>
      </trkpt>
      <trkpt lat="47.95575" lon="-0.52826">
        <ele>78.2</ele>
        <time>2024-04-14T09:33:09Z</time>
      </trkpt>
      <trkpt lat="47.95574" lon="-0.5282">
        <ele>78.2</ele>
        <time>2024-04-14T09:33:10Z</time>
      </trkpt>
      <trkpt lat="47.95574" lon="-0.52814">
        <ele>78.2</ele>
        <time>2024-04-14T09:33:11Z</time>
      </trkpt>
      <trkpt lat="47.95573" lon="-0.52808">
        <ele>79.2</ele>
        <time>2024-04-14T09:33:12Z</time>
      </trkpt>
      <trkpt lat="47.95572" lon="-0.52803">
        <ele>77.6</ele>
        <time>2024-04-14T09:33:13Z</time>
      </trkpt>
      <trkpt lat="47.95572" lon="-0.52797">
        <ele>77.6</ele>
        <time>2024-04-14T09:33:14Z</time>
      </trkpt>
      <trkpt lat="47.95571" lon="-0.52792">
        <ele>77.6</ele>
        <time>2024-04-14T09:33:15Z</time>
      </trkpt>
      <trkpt lat="47.9557" lon="-0.52786">
        <ele>78.6</ele>
        <time>2024-04-14T09:33:16Z</time>
      </trkpt>
      <trkpt lat="47.9557" lon="-0.52779">
        <ele>78.6</ele>
        <time>2024-04-14T09:33:17Z</time>
      </trkpt>
      <trkpt lat="47.9557" lon="-0.52772">
        <ele>78.6</ele>
        <time>2024-04-14T09:33:18Z</time>
      </trkpt>
      <trkpt lat="47.95571" lon="-0.52765">
        <ele>78.6</ele>
        <time>2024-04-14T09:33:19Z</time>
      </trkpt>
      <trkpt lat="47.95571" lon="-0.52757">
        <ele>78.4</ele>
        <time>2024-04-14T09:33:20Z</time>
      </trkpt>
      <trkpt lat="47.95572" lon="-0.52749">
        <ele>78</ele>
        <time>2024-04-14T09:33:21Z</time>
      </trkpt>
      <trkpt lat="47.95574" lon="-0.52742">
        <ele>78</ele>
        <time>2024-04-14T09:33:22Z</time>
      </trkpt>
      <trkpt lat="47.95575" lon="-0.52735">
        <ele>78</ele>
        <time>2024-04-14T09:33:23Z</time>
      </trkpt>
      <trkpt lat="47.95576" lon="-0.52728">
        <ele>77</ele>
        <time>2024-04-14T09:33:24Z</time>
      </trkpt>
      <trkpt lat="47.95577" lon="-0.52721">
        <ele>76.2</ele>
        <time>2024-04-14T09:33:25Z</time>
      </trkpt>
      <trkpt lat="47.95578" lon="-0.52713">
        <ele>76.2</ele>
        <time>2024-04-14T09:33:26Z</time>
      </trkpt>
      <trkpt lat="47.9558" lon="-0.52707">
        <ele>76.2</ele>
        <time>2024-04-14T09:33:27Z</time>
      </trkpt>
      <trkpt lat="47.95581" lon="-0.527">
        <ele>77</ele>
        <time>2024-04-14T09:33:28Z</time>
      </trkpt>
      <trkpt lat="47.95581" lon="-0.52693">
        <ele>75.2</ele>
        <time>2024-04-14T09:33:29Z</time>
      </trkpt>
      <trkpt lat="47.95581" lon="-0.52686">
        <ele>75.2</ele>
        <time>2024-04-14T09:33:30Z</time>
      </trkpt>
      <trkpt lat="47.95579" lon="-0.5268">
        <ele>75.2</ele>
        <time>2024-04-14T09:33:31Z</time>
      </trkpt>
      <trkpt lat="47.95577" lon="-0.52675">
        <ele>76</ele>
        <time>2024-04-14T09:33:32Z</time>
      </trkpt>
      <trkpt lat="47.95574" lon="-0.5267">
        <ele>78.2</ele>
        <time>2024-04-14T09:33:33Z</time>
      </trkpt>
      <trkpt lat="47.9557" lon="-0.52665">
        <ele>78.2</ele>
        <time>2024-04-14T09:33:34Z</time>
      </trkpt>
      <trkpt lat="47.95566" lon="-0.52661">
        <ele>78.2</ele>
        <time>2024-04-14T09:33:35Z</time>
      </trkpt>
      <trkpt lat="47.95562" lon="-0.52657">
        <ele>78.2</ele>
        <time>2024-04-14T09:33:36Z</time>
      </trkpt>
      <trkpt lat="47.95558" lon="-0.52653">
        <ele>77.8</ele>
        <time>2024-04-14T09:33:37Z</time>
      </trkpt>
      <trkpt lat="47.95553" lon="-0.5265">
        <ele>77.8</ele>
        <time>2024-04-14T09:33:38Z</time>
      </trkpt>
      <trkpt lat="47.95549" lon="-0.52647">
        <ele>77.8</ele>
        <time>2024-04-14T09:33:39Z</time>
      </trkpt>
      <trkpt lat="47.95544" lon="-0.52645">
        <ele>76.8</ele>
        <time>2024-04-14T09:33:40Z</time>
      </trkpt>
      <trkpt lat="47.95539" lon="-0.52645">
        <ele>75.8</ele>
        <time>2024-04-14T09:33:41Z</time>
      </trkpt>
      <trkpt lat="47.95535" lon="-0.52647">
        <ele>75.8</ele>
        <time>2024-04-14T09:33:42Z</time>
      </trkpt>
      <trkpt lat="47.95531" lon="-0.52648">
        <ele>75.8</ele>
        <time>2024-04-14T09:33:43Z</time>
      </trkpt>
      <trkpt lat="47.95527" lon="-0.52648">
        <ele>75.8</ele>
        <time>2024-04-14T09:33:44Z</time>
      </trkpt>
      <trkpt lat="47.95523" lon="-0.5265">
        <ele>77.2</ele>
        <time>2024-04-14T09:33:45Z</time>
      </trkpt>
      <trkpt lat="47.9552" lon="-0.52651">
        <ele>77.2</ele>
        <time>2024-04-14T09:33:46Z</time>
      </trkpt>
      <trkpt lat="47.95516" lon="-0.52654">
        <ele>77.2</ele>
        <time>2024-04-14T09:33:47Z</time>
      </trkpt>
      <trkpt lat="47.95513" lon="-0.52658">
        <ele>77.2</ele>
        <time>2024-04-14T09:33:48Z</time>
      </trkpt>
      <trkpt lat="47.95511" lon="-0.52663">
        <ele>77</ele>
        <time>2024-04-14T09:33:49Z</time>
      </trkpt>
      <trkpt lat="47.95509" lon="-0.52668">
        <ele>77</ele>
        <time>2024-04-14T09:33:50Z</time>
      </trkpt>
      <trkpt lat="47.95507" lon="-0.52673">
        <ele>77</ele>
        <time>2024-04-14T09:33:51Z</time>
      </trkpt>
      <trkpt lat="47.95505" lon="-0.52677">
        <ele>77</ele>
        <time>2024-04-14T09:33:52Z</time>
      </trkpt>
      <trkpt lat="47.95503" lon="-0.52681">
        <ele>77.2</ele>
        <time>2024-04-14T09:33:53Z</time>
      </trkpt>
      <trkpt lat="47.955" lon="-0.52684">
        <ele>77.2</ele>
        <time>2024-04-14T09:33:54Z</time>
      </trkpt>
      <trkpt lat="47.95498" lon="-0.52687">
        <ele>77.2</ele>
        <time>2024-04-14T09:33:55Z</time>
      </trkpt>
      <trkpt lat="47.95495" lon="-0.5269">
        <ele>78.2</ele>
        <time>2024-04-14T09:33:56Z</time>
      </trkpt>
      <trkpt lat="47.95492" lon="-0.52693">
        <ele>78.8</ele>
        <time>2024-04-14T09:33:57Z</time>
      </trkpt>
      <trkpt lat="47.95489" lon="-0.52695">
        <ele>78.8</ele>
        <time>2024-04-14T09:33:58Z</time>
      </trkpt>
      <trkpt lat="47.95486" lon="-0.52697">
        <ele>78.8</ele>
        <time>2024-04-14T09:33:59Z</time>
      </trkpt>
      <trkpt lat="47.95483" lon="-0.527">
        <ele>78.8</ele>
        <time>2024-04-14T09:34:00Z</time>
      </trkpt>
      <trkpt lat="47.95479" lon="-0.52702">
        <ele>78.8</ele>
        <time>2024-04-14T09:34:01Z</time>
      </trkpt>
      <trkpt lat="47.95475" lon="-0.52705">
        <ele>78.8</ele>
        <time>2024-04-14T09:34:02Z</time>
      </trkpt>
      <trkpt lat="47.95472" lon="-0.52707">
        <ele>78.8</ele>
        <time>2024-04-14T09:34:03Z</time>
      </trkpt>
      <trkpt lat="47.95469" lon="-0.52709">
        <ele>78.8</ele>
        <time>2024-04-14T09:34:04Z</time>
      </trkpt>
      <trkpt lat="47.95465" lon="-0.52711">
        <ele>77.6</ele>
        <time>2024-04-14T09:34:05Z</time>
      </trkpt>
      <trkpt lat="47.95462" lon="-0.52712">
        <ele>77.6</ele>
        <time>2024-04-14T09:34:06Z</time>
      </trkpt>
      <trkpt lat="47.95458" lon="-0.52713">
        <ele>77.6</ele>
        <time>2024-04-14T09:34:07Z</time>
      </trkpt>
      <trkpt lat="47.95454" lon="-0.52713">
        <ele>77</ele>
        <time>2024-04-14T09:34:08Z</time>
      </trkpt>
      <trkpt lat="47.9545" lon="-0.52712">
        <ele>76</ele>
        <time>2024-04-14T09:34:09Z</time>
      </trkpt>
      <trkpt lat="47.95447" lon="-0.5271">
        <ele>76</ele>
        <time>2024-04-14T09:34:10Z</time>
      </trkpt>
      <trkpt lat="47.95445" lon="-0.52707">
        <ele>76</ele>
        <time>2024-04-14T09:34:11Z</time>
      </trkpt>
      <trkpt lat="47.95445" lon="-0.52702">
        <ele>76.8</ele>
        <time>2024-04-14T09:34:12Z</time>
      </trkpt>
      <trkpt lat="47.95446" lon="-0.52697">
        <ele>76.8</ele>
        <time>2024-04-14T09:34:13Z</time>
      </trkpt>
      <trkpt lat="47.95446" lon="-0.52692">
        <ele>76.8</ele>
        <time>2024-04-14T09:34:14Z</time>
      </trkpt>
      <trkpt lat="47.95447" lon="-0.52686">
        <ele>76.8</ele>
        <time>2024-04-14T09:34:15Z</time>
      </trkpt>
      <trkpt lat="47.95447" lon="-0.5268">
        <ele>76.8</ele>
        <time>2024-04-14T09:34:16Z</time>
      </trkpt>
      <trkpt lat="47.95448" lon="-0.52675">
        <ele>76.6</ele>
        <time>2024-04-14T09:34:17Z</time>
      </trkpt>
      <trkpt lat="47.95448" lon="-0.52669">
        <ele>76.6</ele>
        <time>2024-04-14T09:34:18Z</time>
      </trkpt>
      <trkpt lat="47.95449" lon="-0.52664">
        <ele>76.6</ele>
        <time>2024-04-14T09:34:19Z</time>
      </trkpt>
      <trkpt lat="47.9545" lon="-0.52658">
        <ele>76.6</ele>
        <time>2024-04-14T09:34:20Z</time>
      </trkpt>
      <trkpt lat="47.9545" lon="-0.52652">
        <ele>76.2</ele>
        <time>2024-04-14T09:34:21Z</time>
      </trkpt>
      <trkpt lat="47.9545" lon="-0.52646">
        <ele>76.2</ele>
        <time>2024-04-14T09:34:22Z</time>
      </trkpt>
      <trkpt lat="47.9545" lon="-0.5264">
        <ele>76.2</ele>
        <time>2024-04-14T09:34:23Z</time>
      </trkpt>
      <trkpt lat="47.9545" lon="-0.52635">
        <ele>76.2</ele>
        <time>2024-04-14T09:34:24Z</time>
      </trkpt>
      <trkpt lat="47.9545" lon="-0.52629">
        <ele>74.4</ele>
        <time>2024-04-14T09:34:25Z</time>
      </trkpt>
      <trkpt lat="47.9545" lon="-0.52624">
        <ele>74.4</ele>
        <time>2024-04-14T09:34:26Z</time>
      </trkpt>
      <trkpt lat="47.9545" lon="-0.52618">
        <ele>74.4</ele>
        <time>2024-04-14T09:34:27Z</time>
      </trkpt>
      <trkpt lat="47.9545" lon="-0.52612">
        <ele>75.4</ele>
        <time>2024-04-14T09:34:28Z</time>
      </trkpt>
      <trkpt lat="47.95451" lon="-0.52606">
        <ele>75.4</ele>
        <time>2024-04-14T09:34:29Z</time>
      </trkpt>
      <trkpt lat="47.95452" lon="-0.52601">
        <ele>75.4</ele>
        <time>2024-04-14T09:34:30Z</time>
      </trkpt>
      <trkpt lat="47.95452" lon="-0.52596">
        <ele>75.4</ele>
        <time>2024-04-14T09:34:31Z</time>
      </trkpt>
      <trkpt lat="47.95452" lon="-0.52591">
        <ele>75.4</ele>
        <time>2024-04-14T09:34:32Z</time>
      </trkpt>
      <trkpt lat="47.95451" lon="-0.52585">
        <ele>74.6</ele>
        <time>2024-04-14T09:34:33Z</time>
      </trkpt>
      <trkpt lat="47.95451" lon="-0.5258">
        <ele>74.6</ele>
        <time>2024-04-14T09:34:34Z</time>
      </trkpt>
      <trkpt lat="47.95452" lon="-0.52574">
        <ele>74.6</ele>
        <time>2024-04-14T09:34:35Z</time>
      </trkpt>
      <trkpt lat="47.95452" lon="-0.52568">
        <ele>74.6</ele>
        <time>2024-04-14T09:34:36Z</time>
      </trkpt>
      <trkpt lat="47.95453" lon="-0.52563">
        <ele>75.2</ele>
        <time>2024-04-14T09:34:37Z</time>
      </trkpt>
      <trkpt lat="47.95453" lon="-0.52557">
        <ele>75.2</ele>
        <time>2024-04-14T09:34:38Z</time>
      </trkpt>
      <trkpt lat="47.95454" lon="-0.52551">
        <ele>75.2</ele>
        <time>2024-04-14T09:34:39Z</time>
      </trkpt>
      <trkpt lat="47.95456" lon="-0.52545">
        <ele>74.4</ele>
        <time>2024-04-14T09:34:40Z</time>
      </trkpt>
      <trkpt lat="47.95458" lon="-0.5254">
        <ele>74.2</ele>
        <time>2024-04-14T09:34:41Z</time>
      </trkpt>
      <trkpt lat="47.9546" lon="-0.52534">
        <ele>74.2</ele>
        <time>2024-04-14T09:34:42Z</time>
      </trkpt>
      <trkpt lat="47.95461" lon="-0.5253">
        <ele>74.2</ele>
        <time>2024-04-14T09:34:43Z</time>
      </trkpt>
      <trkpt lat="47.95464" lon="-0.52524">
        <ele>74.2</ele>
        <time>2024-04-14T09:34:44Z</time>
      </trkpt>
      <trkpt lat="47.95466" lon="-0.52519">
        <ele>72.4</ele>
        <time>2024-04-14T09:34:45Z</time>
      </trkpt>
      <trkpt lat="47.95468" lon="-0.52513">
        <ele>72.4</ele>
        <time>2024-04-14T09:34:46Z</time>
      </trkpt>
      <trkpt lat="47.9547" lon="-0.52507">
        <ele>72.4</ele>
        <time>2024-04-14T09:34:47Z</time>
      </trkpt>
      <trkpt lat="47.95472" lon="-0.52501">
        <ele>73.4</ele>
        <time>2024-04-14T09:34:48Z</time>
      </trkpt>
      <trkpt lat="47.95474" lon="-0.52495">
        <ele>72.6</ele>
        <time>2024-04-14T09:34:49Z</time>
      </trkpt>
      <trkpt lat="47.95476" lon="-0.52489">
        <ele>72.6</ele>
        <time>2024-04-14T09:34:50Z</time>
      </trkpt>
      <trkpt lat="47.95478" lon="-0.52483">
        <ele>72.6</ele>
        <time>2024-04-14T09:34:51Z</time>
      </trkpt>
      <trkpt lat="47.9548" lon="-0.52477">
        <ele>72.6</ele>
        <time>2024-04-14T09:34:52Z</time>
      </trkpt>
      <trkpt lat="47.95482" lon="-0.52471">
        <ele>73.2</ele>
        <time>2024-04-14T09:34:53Z</time>
      </trkpt>
      <trkpt lat="47.95483" lon="-0.52465">
        <ele>73.2</ele>
        <time>2024-04-14T09:34:54Z</time>
      </trkpt>
      <trkpt lat="47.95484" lon="-0.52459">
        <ele>73.2</ele>
        <time>2024-04-14T09:34:55Z</time>
      </trkpt>
      <trkpt lat="47.95486" lon="-0.52453">
        <ele>72.4</ele>
        <time>2024-04-14T09:34:56Z</time>
      </trkpt>
      <trkpt lat="47.95488" lon="-0.52448">
        <ele>71.2</ele>
        <time>2024-04-14T09:34:57Z</time>
      </trkpt>
      <trkpt lat="47.95489" lon="-0.52442">
        <ele>71.2</ele>
        <time>2024-04-14T09:34:58Z</time>
      </trkpt>
      <trkpt lat="47.9549" lon="-0.52437">
        <ele>71.2</ele>
        <time>2024-04-14T09:34:59Z</time>
      </trkpt>
      <trkpt lat="47.95492" lon="-0.52431">
        <ele>71.2</ele>
        <time>2024-04-14T09:35:00Z</time>
      </trkpt>
      <trkpt lat="47.95493" lon="-0.52426">
        <ele>73.8</ele>
        <time>2024-04-14T09:35:01Z</time>
      </trkpt>
      <trkpt lat="47.95494" lon="-0.52421">
        <ele>73.8</ele>
        <time>2024-04-14T09:35:02Z</time>
      </trkpt>
      <trkpt lat="47.95495" lon="-0.52415">
        <ele>73.8</ele>
        <time>2024-04-14T09:35:03Z</time>
      </trkpt>
      <trkpt lat="47.95496" lon="-0.5241">
        <ele>72.8</ele>
        <time>2024-04-14T09:35:04Z</time>
      </trkpt>
      <trkpt lat="47.95497" lon="-0.52405">
        <ele>71.6</ele>
        <time>2024-04-14T09:35:05Z</time>
      </trkpt>
      <trkpt lat="47.95498" lon="-0.52401">
        <ele>71.6</ele>
        <time>2024-04-14T09:35:06Z</time>
      </trkpt>
      <trkpt lat="47.955" lon="-0.52395">
        <ele>71.6</ele>
        <time>2024-04-14T09:35:07Z</time>
      </trkpt>
      <trkpt lat="47.95501" lon="-0.5239">
        <ele>72.6</ele>
        <time>2024-04-14T09:35:08Z</time>
      </trkpt>
      <trkpt lat="47.95502" lon="-0.52385">
        <ele>74.2</ele>
        <time>2024-04-14T09:35:09Z</time>
      </trkpt>
      <trkpt lat="47.95503" lon="-0.52382">
        <ele>74.2</ele>
        <time>2024-04-14T09:35:10Z</time>
      </trkpt>
      <trkpt lat="47.95503" lon="-0.52379">
        <ele>74.2</ele>
        <time>2024-04-14T09:35:11Z</time>
      </trkpt>
      <trkpt lat="47.95504" lon="-0.52377">
        <ele>73.4</ele>
        <time>2024-04-14T09:35:12Z</time>
      </trkpt>
      <trkpt lat="47.95505" lon="-0.52374">
        <ele>73.6</ele>
        <time>2024-04-14T09:35:13Z</time>
      </trkpt>
      <trkpt lat="47.95505" lon="-0.52371">
        <ele>73.6</ele>
        <time>2024-04-14T09:35:14Z</time>
      </trkpt>
      <trkpt lat="47.95507" lon="-0.52368">
        <ele>73.6</ele>
        <time>2024-04-14T09:35:15Z</time>
      </trkpt>
      <trkpt lat="47.95508" lon="-0.52365">
        <ele>73.6</ele>
        <time>2024-04-14T09:35:16Z</time>
      </trkpt>
      <trkpt lat="47.95509" lon="-0.52362">
        <ele>73</ele>
        <time>2024-04-14T09:35:17Z</time>
      </trkpt>
      <trkpt lat="47.9551" lon="-0.52358">
        <ele>73</ele>
        <time>2024-04-14T09:35:18Z</time>
      </trkpt>
      <trkpt lat="47.95511" lon="-0.52354">
        <ele>73</ele>
        <time>2024-04-14T09:35:19Z</time>
      </trkpt>
      <trkpt lat="47.95512" lon="-0.52351">
        <ele>73</ele>
        <time>2024-04-14T09:35:20Z</time>
      </trkpt>
      <trkpt lat="47.95513" lon="-0.52347">
        <ele>73.4</ele>
        <time>2024-04-14T09:35:21Z</time>
      </trkpt>
      <trkpt lat="47.95514" lon="-0.52343">
        <ele>73.4</ele>
        <time>2024-04-14T09:35:22Z</time>
      </trkpt>
      <trkpt lat="47.95515" lon="-0.5234">
        <ele>73.4</ele>
        <time>2024-04-14T09:35:23Z</time>
      </trkpt>
      <trkpt lat="47.95516" lon="-0.52335">
        <ele>73</ele>
        <time>2024-04-14T09:35:24Z</time>
      </trkpt>
      <trkpt lat="47.95518" lon="-0.5233">
        <ele>74</ele>
        <time>2024-04-14T09:35:25Z</time>
      </trkpt>
      <trkpt lat="47.95519" lon="-0.52325">
        <ele>74</ele>
        <time>2024-04-14T09:35:26Z</time>
      </trkpt>
      <trkpt lat="47.95521" lon="-0.5232">
        <ele>74</ele>
        <time>2024-04-14T09:35:27Z</time>
      </trkpt>
      <trkpt lat="47.95522" lon="-0.52316">
        <ele>74</ele>
        <time>2024-04-14T09:35:28Z</time>
      </trkpt>
      <trkpt lat="47.95523" lon="-0.52312">
        <ele>73</ele>
        <time>2024-04-14T09:35:29Z</time>
      </trkpt>
      <trkpt lat="47.95525" lon="-0.52308">
        <ele>73</ele>
        <time>2024-04-14T09:35:30Z</time>
      </trkpt>
      <trkpt lat="47.95526" lon="-0.52304">
        <ele>73</ele>
        <time>2024-04-14T09:35:31Z</time>
      </trkpt>
      <trkpt lat="47.95528" lon="-0.52299">
        <ele>74</ele>
        <time>2024-04-14T09:35:32Z</time>
      </trkpt>
      <trkpt lat="47.95529" lon="-0.52295">
        <ele>74.6</ele>
        <time>2024-04-14T09:35:33Z</time>
      </trkpt>
      <trkpt lat="47.9553" lon="-0.52292">
        <ele>74.6</ele>
        <time>2024-04-14T09:35:34Z</time>
      </trkpt>
      <trkpt lat="47.9553" lon="-0.52289">
        <ele>74.6</ele>
        <time>2024-04-14T09:35:35Z</time>
      </trkpt>
      <trkpt lat="47.95531" lon="-0.52286">
        <ele>73.6</ele>
        <time>2024-04-14T09:35:36Z</time>
      </trkpt>
      <trkpt lat="47.95531" lon="-0.52284">
        <ele>74</ele>
        <time>2024-04-14T09:35:37Z</time>
      </trkpt>
      <trkpt lat="47.9553" lon="-0.52282">
        <ele>74</ele>
        <time>2024-04-14T09:35:38Z</time>
      </trkpt>
      <trkpt lat="47.95529" lon="-0.5228">
        <ele>74</ele>
        <time>2024-04-14T09:35:39Z</time>
      </trkpt>
      <trkpt lat="47.95528" lon="-0.52278">
        <ele>73.8</ele>
        <time>2024-04-14T09:35:40Z</time>
      </trkpt>
      <trkpt lat="47.95527" lon="-0.52277">
        <ele>73.8</ele>
        <time>2024-04-14T09:35:41Z</time>
      </trkpt>
      <trkpt lat="47.95525" lon="-0.52275">
        <ele>73.8</ele>
        <time>2024-04-14T09:35:42Z</time>
      </trkpt>
      <trkpt lat="47.95524" lon="-0.52273">
        <ele>73.8</ele>
        <time>2024-04-14T09:35:43Z</time>
      </trkpt>
      <trkpt lat="47.95523" lon="-0.52272">
        <ele>73.2</ele>
        <time>2024-04-14T09:35:44Z</time>
      </trkpt>
      <trkpt lat="47.95522" lon="-0.52271">
        <ele>72</ele>
        <time>2024-04-14T09:35:45Z</time>
      </trkpt>
      <trkpt lat="47.95522" lon="-0.52271">
        <ele>72</ele>
        <time>2024-04-14T09:35:46Z</time>
      </trkpt>
      <trkpt lat="47.95522" lon="-0.52271">
        <ele>72</ele>
        <time>2024-04-14T09:35:47Z</time>
      </trkpt>
      <trkpt lat="47.95522" lon="-0.52271">
        <ele>72</ele>
        <time>2024-04-14T09:35:48Z</time>
      </trkpt>
      <trkpt lat="47.95518" lon="-0.52266">
        <ele>72.8</ele>
        <time>2024-04-14T09:35:55Z</time>
      </trkpt>
      <trkpt lat="47.95517" lon="-0.52265">
        <ele>72.8</ele>
        <time>2024-04-14T09:35:56Z</time>
      </trkpt>
      <trkpt lat="47.95516" lon="-0.52264">
        <ele>72.8</ele>
        <time>2024-04-14T09:35:57Z</time>
      </trkpt>
      <trkpt lat="47.95516" lon="-0.52264">
        <ele>72.8</ele>
        <time>2024-04-14T09:35:58Z</time>
      </trkpt>
      <trkpt lat="47.95516" lon="-0.52264">
        <ele>72.8</ele>
        <time>2024-04-14T09:35:59Z</time>
      </trkpt>
      <trkpt lat="47.95512" lon="-0.52263">
        <ele>72.4</ele>
        <time>2024-04-14T09:36:08Z</time>
      </trkpt>
      <trkpt lat="47.9551" lon="-0.52263">
        <ele>72.6</ele>
        <time>2024-04-14T09:36:09Z</time>
      </trkpt>
      <trkpt lat="47.95508" lon="-0.52262">
        <ele>72.6</ele>
        <time>2024-04-14T09:36:10Z</time>
      </trkpt>
      <trkpt lat="47.95506" lon="-0.52262">
        <ele>72.6</ele>
        <time>2024-04-14T09:36:11Z</time>
      </trkpt>
      <trkpt lat="47.95504" lon="-0.52262">
        <ele>72.6</ele>
        <time>2024-04-14T09:36:12Z</time>
      </trkpt>
      <trkpt lat="47.95501" lon="-0.52263">
        <ele>73</ele>
        <time>2024-04-14T09:36:13Z</time>
      </trkpt>
      <trkpt lat="47.95499" lon="-0.52263">
        <ele>73</ele>
        <time>2024-04-14T09:36:14Z</time>
      </trkpt>
      <trkpt lat="47.95498" lon="-0.52263">
        <ele>73</ele>
        <time>2024-04-14T09:36:15Z</time>
      </trkpt>
      <trkpt lat="47.95495" lon="-0.52263">
        <ele>72</ele>
        <time>2024-04-14T09:36:16Z</time>
      </trkpt>
      <trkpt lat="47.95493" lon="-0.52262">
        <ele>70.2</ele>
        <time>2024-04-14T09:36:17Z</time>
      </trkpt>
      <trkpt lat="47.95492" lon="-0.52262">
        <ele>70.2</ele>
        <time>2024-04-14T09:36:18Z</time>
      </trkpt>
      <trkpt lat="47.9549" lon="-0.52262">
        <ele>70.2</ele>
        <time>2024-04-14T09:36:19Z</time>
      </trkpt>
      <trkpt lat="47.95488" lon="-0.52261">
        <ele>70.2</ele>
        <time>2024-04-14T09:36:20Z</time>
      </trkpt>
      <trkpt lat="47.95487" lon="-0.52262">
        <ele>71.6</ele>
        <time>2024-04-14T09:36:21Z</time>
      </trkpt>
      <trkpt lat="47.95485" lon="-0.52262">
        <ele>71.6</ele>
        <time>2024-04-14T09:36:22Z</time>
      </trkpt>
      <trkpt lat="47.95483" lon="-0.52262">
        <ele>71.6</ele>
        <time>2024-04-14T09:36:23Z</time>
      </trkpt>
      <trkpt lat="47.95481" lon="-0.52263">
        <ele>71.2</ele>
        <time>2024-04-14T09:36:24Z</time>
      </trkpt>
      <trkpt lat="47.9548" lon="-0.52262">
        <ele>72.2</ele>
        <time>2024-04-14T09:36:25Z</time>
      </trkpt>
      <trkpt lat="47.95479" lon="-0.52262">
        <ele>72.2</ele>
        <time>2024-04-14T09:36:26Z</time>
      </trkpt>
      <trkpt lat="47.95478" lon="-0.52262">
        <ele>72.2</ele>
        <time>2024-04-14T09:36:27Z</time>
      </trkpt>
      <trkpt lat="47.95478" lon="-0.52262">
        <ele>72.2</ele>
        <time>2024-04-14T09:36:28Z</time>
      </trkpt>
      <trkpt lat="47.9547" lon="-0.52262">
        <ele>71.6</ele>
        <time>2024-04-14T09:36:35Z</time>
      </trkpt>
      <trkpt lat="47.95468" lon="-0.52262">
        <ele>72.2</ele>
        <time>2024-04-14T09:36:36Z</time>
      </trkpt>
      <trkpt lat="47.95466" lon="-0.52263">
        <ele>71.8</ele>
        <time>2024-04-14T09:36:37Z</time>
      </trkpt>
      <trkpt lat="47.95464" lon="-0.52264">
        <ele>71.8</ele>
        <time>2024-04-14T09:36:38Z</time>
      </trkpt>
      <trkpt lat="47.95463" lon="-0.52264">
        <ele>71.8</ele>
        <time>2024-04-14T09:36:39Z</time>
      </trkpt>
      <trkpt lat="47.95462" lon="-0.52264">
        <ele>71.8</ele>
        <time>2024-04-14T09:36:40Z</time>
      </trkpt>
      <trkpt lat="47.9546" lon="-0.52264">
        <ele>71.4</ele>
        <time>2024-04-14T09:36:41Z</time>
      </trkpt>
      <trkpt lat="47.95458" lon="-0.52264">
        <ele>71.4</ele>
        <time>2024-04-14T09:36:42Z</time>
      </trkpt>
      <trkpt lat="47.95456" lon="-0.52264">
        <ele>71.4</ele>
        <time>2024-04-14T09:36:43Z</time>
      </trkpt>
      <trkpt lat="47.95454" lon="-0.52264">
        <ele>72.4</ele>
        <time>2024-04-14T09:36:44Z</time>
      </trkpt>
      <trkpt lat="47.95452" lon="-0.52264">
        <ele>72</ele>
        <time>2024-04-14T09:36:45Z</time>
      </trkpt>
      <trkpt lat="47.9545" lon="-0.52264">
        <ele>72</ele>
        <time>2024-04-14T09:36:46Z</time>
      </trkpt>
      <trkpt lat="47.95448" lon="-0.52264">
        <ele>72</ele>
        <time>2024-04-14T09:36:47Z</time>
      </trkpt>
      <trkpt lat="47.95447" lon="-0.52264">
        <ele>72</ele>
        <time>2024-04-14T09:36:48Z</time>
      </trkpt>
      <trkpt lat="47.95444" lon="-0.52263">
        <ele>71.6</ele>
        <time>2024-04-14T09:36:49Z</time>
      </trkpt>
      <trkpt lat="47.95441" lon="-0.52262">
        <ele>71.6</ele>
        <time>2024-04-14T09:36:50Z</time>
      </trkpt>
      <trkpt lat="47.95438" lon="-0.52262">
        <ele>71.6</ele>
        <time>2024-04-14T09:36:51Z</time>
      </trkpt>
      <trkpt lat="47.95435" lon="-0.52261">
        <ele>71.2</ele>
        <time>2024-04-14T09:36:52Z</time>
      </trkpt>
      <trkpt lat="47.95432" lon="-0.5226">
        <ele>71.2</ele>
        <time>2024-04-14T09:36:53Z</time>
      </trkpt>
      <trkpt lat="47.95429" lon="-0.52259">
        <ele>71.2</ele>
        <time>2024-04-14T09:36:54Z</time>
      </trkpt>
      <trkpt lat="47.95426" lon="-0.52258">
        <ele>71.2</ele>
        <time>2024-04-14T09:36:55Z</time>
      </trkpt>
      <trkpt lat="47.95422" lon="-0.52257">
        <ele>71.4</ele>
        <time>2024-04-14T09:36:56Z</time>
      </trkpt>
      <trkpt lat="47.95419" lon="-0.52255">
        <ele>70.6</ele>
        <time>2024-04-14T09:36:57Z</time>
      </trkpt>
      <trkpt lat="47.95415" lon="-0.52254">
        <ele>70.6</ele>
        <time>2024-04-14T09:36:58Z</time>
      </trkpt>
      <trkpt lat="47.95411" lon="-0.52252">
        <ele>70.6</ele>
        <time>2024-04-14T09:36:59Z</time>
      </trkpt>
      <trkpt lat="47.95408" lon="-0.5225">
        <ele>71.6</ele>
        <time>2024-04-14T09:37:00Z</time>
      </trkpt>
      <trkpt lat="47.95404" lon="-0.52249">
        <ele>68.8</ele>
        <time>2024-04-14T09:37:01Z</time>
      </trkpt>
      <trkpt lat="47.954" lon="-0.52248">
        <ele>68.8</ele>
        <time>2024-04-14T09:37:02Z</time>
      </trkpt>
      <trkpt lat="47.95397" lon="-0.52246">
        <ele>68.8</ele>
        <time>2024-04-14T09:37:03Z</time>
      </trkpt>
      <trkpt lat="47.95393" lon="-0.52244">
        <ele>69.8</ele>
        <time>2024-04-14T09:37:04Z</time>
      </trkpt>
      <trkpt lat="47.9539" lon="-0.52242">
        <ele>72</ele>
        <time>2024-04-14T09:37:05Z</time>
      </trkpt>
      <trkpt lat="47.95386" lon="-0.52241">
        <ele>72</ele>
        <time>2024-04-14T09:37:06Z</time>
      </trkpt>
      <trkpt lat="47.95382" lon="-0.52239">
        <ele>72</ele>
        <time>2024-04-14T09:37:07Z</time>
      </trkpt>
      <trkpt lat="47.95378" lon="-0.52238">
        <ele>71.2</ele>
        <time>2024-04-14T09:37:08Z</time>
      </trkpt>
      <trkpt lat="47.95375" lon="-0.52236">
        <ele>73</ele>
        <time>2024-04-14T09:37:09Z</time>
      </trkpt>
      <trkpt lat="47.95371" lon="-0.52234">
        <ele>73</ele>
        <time>2024-04-14T09:37:10Z</time>
      </trkpt>
      <trkpt lat="47.95368" lon="-0.52232">
        <ele>73</ele>
        <time>2024-04-14T09:37:11Z</time>
      </trkpt>
      <trkpt lat="47.95365" lon="-0.52231">
        <ele>73</ele>
        <time>2024-04-14T09:37:12Z</time>
      </trkpt>
      <trkpt lat="47.95362" lon="-0.5223">
        <ele>71.2</ele>
        <time>2024-04-14T09:37:13Z</time>
      </trkpt>
      <trkpt lat="47.95359" lon="-0.52228">
        <ele>71.2</ele>
        <time>2024-04-14T09:37:14Z</time>
      </trkpt>
      <trkpt lat="47.95356" lon="-0.52227">
        <ele>71.2</ele>
        <time>2024-04-14T09:37:15Z</time>
      </trkpt>
      <trkpt lat="47.95352" lon="-0.52226">
        <ele>71.2</ele>
        <time>2024-04-14T09:37:16Z</time>
      </trkpt>
      <trkpt lat="47.95348" lon="-0.52225">
        <ele>72.4</ele>
        <time>2024-04-14T09:37:17Z</time>
      </trkpt>
      <trkpt lat="47.95344" lon="-0.52225">
        <ele>72.4</ele>
        <time>2024-04-14T09:37:18Z</time>
      </trkpt>
      <trkpt lat="47.95341" lon="-0.52224">
        <ele>72.4</ele>
        <time>2024-04-14T09:37:19Z</time>
      </trkpt>
      <trkpt lat="47.95338" lon="-0.52222">
        <ele>72.4</ele>
        <time>2024-04-14T09:37:20Z</time>
      </trkpt>
      <trkpt lat="47.95335" lon="-0.52221">
        <ele>71.8</ele>
        <time>2024-04-14T09:37:21Z</time>
      </trkpt>
      <trkpt lat="47.95332" lon="-0.5222">
        <ele>71.8</ele>
        <time>2024-04-14T09:37:22Z</time>
      </trkpt>
      <trkpt lat="47.9533" lon="-0.52219">
        <ele>71.8</ele>
        <time>2024-04-14T09:37:23Z</time>
      </trkpt>
      <trkpt lat="47.95327" lon="-0.52217">
        <ele>71.8</ele>
        <time>2024-04-14T09:37:24Z</time>
      </trkpt>
      <trkpt lat="47.95324" lon="-0.52217">
        <ele>72.2</ele>
        <time>2024-04-14T09:37:25Z</time>
      </trkpt>
      <trkpt lat="47.95321" lon="-0.52215">
        <ele>72.2</ele>
        <time>2024-04-14T09:37:26Z</time>
      </trkpt>
      <trkpt lat="47.95317" lon="-0.52214">
        <ele>72.2</ele>
        <time>2024-04-14T09:37:27Z</time>
      </trkpt>
      <trkpt lat="47.95313" lon="-0.52212">
        <ele>72.2</ele>
        <time>2024-04-14T09:37:28Z</time>
      </trkpt>
      <trkpt lat="47.9531" lon="-0.52211">
        <ele>71.2</ele>
        <time>2024-04-14T09:37:29Z</time>
      </trkpt>
      <trkpt lat="47.95306" lon="-0.5221">
        <ele>71.2</ele>
        <time>2024-04-14T09:37:30Z</time>
      </trkpt>
      <trkpt lat="47.95303" lon="-0.52208">
        <ele>71.2</ele>
        <time>2024-04-14T09:37:31Z</time>
      </trkpt>
      <trkpt lat="47.953" lon="-0.52207">
        <ele>71.2</ele>
        <time>2024-04-14T09:37:32Z</time>
      </trkpt>
      <trkpt lat="47.95297" lon="-0.52206">
        <ele>72</ele>
        <time>2024-04-14T09:37:33Z</time>
      </trkpt>
      <trkpt lat="47.95293" lon="-0.52205">
        <ele>72</ele>
        <time>2024-04-14T09:37:34Z</time>
      </trkpt>
      <trkpt lat="47.9529" lon="-0.52205">
        <ele>72</ele>
        <time>2024-04-14T09:37:35Z</time>
      </trkpt>
      <trkpt lat="47.95287" lon="-0.52204">
        <ele>72</ele>
        <time>2024-04-14T09:37:36Z</time>
      </trkpt>
      <trkpt lat="47.95284" lon="-0.52203">
        <ele>73</ele>
        <time>2024-04-14T09:37:37Z</time>
      </trkpt>
      <trkpt lat="47.95282" lon="-0.52202">
        <ele>73</ele>
        <time>2024-04-14T09:37:38Z</time>
      </trkpt>
      <trkpt lat="47.95279" lon="-0.52202">
        <ele>73</ele>
        <time>2024-04-14T09:37:39Z</time>
      </trkpt>
      <trkpt lat="47.95276" lon="-0.52201">
        <ele>73</ele>
        <time>2024-04-14T09:37:40Z</time>
      </trkpt>
      <trkpt lat="47.95273" lon="-0.522">
        <ele>74.2</ele>
        <time>2024-04-14T09:37:41Z</time>
      </trkpt>
      <trkpt lat="47.95269" lon="-0.522">
        <ele>74.2</ele>
        <time>2024-04-14T09:37:42Z</time>
      </trkpt>
      <trkpt lat="47.95266" lon="-0.52199">
        <ele>74.2</ele>
        <time>2024-04-14T09:37:43Z</time>
      </trkpt>
      <trkpt lat="47.95263" lon="-0.52199">
        <ele>73.2</ele>
        <time>2024-04-14T09:37:44Z</time>
      </trkpt>
      <trkpt lat="47.95261" lon="-0.52198">
        <ele>74.6</ele>
        <time>2024-04-14T09:37:45Z</time>
      </trkpt>
      <trkpt lat="47.95258" lon="-0.52198">
        <ele>74.6</ele>
        <time>2024-04-14T09:37:46Z</time>
      </trkpt>
      <trkpt lat="47.95255" lon="-0.52197">
        <ele>74.6</ele>
        <time>2024-04-14T09:37:47Z</time>
      </trkpt>
      <trkpt lat="47.95252" lon="-0.52197">
        <ele>73.6</ele>
        <time>2024-04-14T09:37:48Z</time>
      </trkpt>
      <trkpt lat="47.9525" lon="-0.52197">
        <ele>73</ele>
        <time>2024-04-14T09:37:49Z</time>
      </trkpt>
      <trkpt lat="47.95247" lon="-0.52196">
        <ele>73</ele>
        <time>2024-04-14T09:37:50Z</time>
      </trkpt>
      <trkpt lat="47.95244" lon="-0.52195">
        <ele>73</ele>
        <time>2024-04-14T09:37:51Z</time>
      </trkpt>
      <trkpt lat="47.95241" lon="-0.52194">
        <ele>73</ele>
        <time>2024-04-14T09:37:52Z</time>
      </trkpt>
      <trkpt lat="47.95238" lon="-0.52194">
        <ele>73</ele>
        <time>2024-04-14T09:37:53Z</time>
      </trkpt>
      <trkpt lat="47.95235" lon="-0.52194">
        <ele>73</ele>
        <time>2024-04-14T09:37:54Z</time>
      </trkpt>
      <trkpt lat="47.95232" lon="-0.52194">
        <ele>73</ele>
        <time>2024-04-14T09:37:55Z</time>
      </trkpt>
      <trkpt lat="47.95229" lon="-0.52193">
        <ele>73</ele>
        <time>2024-04-14T09:37:56Z</time>
      </trkpt>
      <trkpt lat="47.95226" lon="-0.52192">
        <ele>74.6</ele>
        <time>2024-04-14T09:37:57Z</time>
      </trkpt>
      <trkpt lat="47.95223" lon="-0.52191">
        <ele>74.6</ele>
        <time>2024-04-14T09:37:58Z</time>
      </trkpt>
      <trkpt lat="47.9522" lon="-0.5219">
        <ele>74.6</ele>
        <time>2024-04-14T09:37:59Z</time>
      </trkpt>
      <trkpt lat="47.95217" lon="-0.52189">
        <ele>74.6</ele>
        <time>2024-04-14T09:38:00Z</time>
      </trkpt>
      <trkpt lat="47.95214" lon="-0.52189">
        <ele>73.6</ele>
        <time>2024-04-14T09:38:01Z</time>
      </trkpt>
      <trkpt lat="47.9521" lon="-0.52188">
        <ele>73.6</ele>
        <time>2024-04-14T09:38:02Z</time>
      </trkpt>
      <trkpt lat="47.95208" lon="-0.52187">
        <ele>73.6</ele>
        <time>2024-04-14T09:38:03Z</time>
      </trkpt>
      <trkpt lat="47.95205" lon="-0.52187">
        <ele>74.6</ele>
        <time>2024-04-14T09:38:04Z</time>
      </trkpt>
      <trkpt lat="47.95202" lon="-0.52187">
        <ele>73.4</ele>
        <time>2024-04-14T09:38:05Z</time>
      </trkpt>
      <trkpt lat="47.95199" lon="-0.52187">
        <ele>73.4</ele>
        <time>2024-04-14T09:38:06Z</time>
      </trkpt>
      <trkpt lat="47.95197" lon="-0.52187">
        <ele>73.4</ele>
        <time>2024-04-14T09:38:07Z</time>
      </trkpt>
      <trkpt lat="47.95194" lon="-0.52187">
        <ele>74.4</ele>
        <time>2024-04-14T09:38:08Z</time>
      </trkpt>
      <trkpt lat="47.95191" lon="-0.52187">
        <ele>76.6</ele>
        <time>2024-04-14T09:38:09Z</time>
      </trkpt>
      <trkpt lat="47.95188" lon="-0.52187">
        <ele>76.6</ele>
        <time>2024-04-14T09:38:10Z</time>
      </trkpt>
      <trkpt lat="47.95185" lon="-0.52188">
        <ele>76.6</ele>
        <time>2024-04-14T09:38:11Z</time>
      </trkpt>
      <trkpt lat="47.95183" lon="-0.52188">
        <ele>75.6</ele>
        <time>2024-04-14T09:38:12Z</time>
      </trkpt>
      <trkpt lat="47.9518" lon="-0.52189">
        <ele>76.8</ele>
        <time>2024-04-14T09:38:13Z</time>
      </trkpt>
      <trkpt lat="47.95177" lon="-0.5219">
        <ele>76.8</ele>
        <time>2024-04-14T09:38:14Z</time>
      </trkpt>
      <trkpt lat="47.95175" lon="-0.5219">
        <ele>76.8</ele>
        <time>2024-04-14T09:38:15Z</time>
      </trkpt>
      <trkpt lat="47.95173" lon="-0.5219">
        <ele>76.8</ele>
        <time>2024-04-14T09:38:16Z</time>
      </trkpt>
      <trkpt lat="47.9517" lon="-0.5219">
        <ele>74.6</ele>
        <time>2024-04-14T09:38:17Z</time>
      </trkpt>
      <trkpt lat="47.95168" lon="-0.5219">
        <ele>74.6</ele>
        <time>2024-04-14T09:38:18Z</time>
      </trkpt>
      <trkpt lat="47.95166" lon="-0.52191">
        <ele>74.6</ele>
        <time>2024-04-14T09:38:19Z</time>
      </trkpt>
      <trkpt lat="47.95164" lon="-0.52191">
        <ele>75.6</ele>
        <time>2024-04-14T09:38:20Z</time>
      </trkpt>
      <trkpt lat="47.95162" lon="-0.5219">
        <ele>76.6</ele>
        <time>2024-04-14T09:38:21Z</time>
      </trkpt>
      <trkpt lat="47.9516" lon="-0.5219">
        <ele>76.6</ele>
        <time>2024-04-14T09:38:22Z</time>
      </trkpt>
      <trkpt lat="47.95157" lon="-0.52191">
        <ele>76.6</ele>
        <time>2024-04-14T09:38:23Z</time>
      </trkpt>
      <trkpt lat="47.95155" lon="-0.52192">
        <ele>76.6</ele>
        <time>2024-04-14T09:38:24Z</time>
      </trkpt>
      <trkpt lat="47.95152" lon="-0.52192">
        <ele>76.2</ele>
        <time>2024-04-14T09:38:25Z</time>
      </trkpt>
      <trkpt lat="47.9515" lon="-0.52193">
        <ele>76.2</ele>
        <time>2024-04-14T09:38:26Z</time>
      </trkpt>
      <trkpt lat="47.95147" lon="-0.52194">
        <ele>76.2</ele>
        <time>2024-04-14T09:38:27Z</time>
      </trkpt>
      <trkpt lat="47.95145" lon="-0.52194">
        <ele>77.2</ele>
        <time>2024-04-14T09:38:28Z</time>
      </trkpt>
      <trkpt lat="47.95142" lon="-0.52195">
        <ele>76</ele>
        <time>2024-04-14T09:38:29Z</time>
      </trkpt>
      <trkpt lat="47.95139" lon="-0.52196">
        <ele>76</ele>
        <time>2024-04-14T09:38:30Z</time>
      </trkpt>
      <trkpt lat="47.95137" lon="-0.52197">
        <ele>76</ele>
        <time>2024-04-14T09:38:31Z</time>
      </trkpt>
      <trkpt lat="47.95134" lon="-0.52198">
        <ele>76.8</ele>
        <time>2024-04-14T09:38:32Z</time>
      </trkpt>
      <trkpt lat="47.95132" lon="-0.52198">
        <ele>77.2</ele>
        <time>2024-04-14T09:38:33Z</time>
      </trkpt>
      <trkpt lat="47.95129" lon="-0.52199">
        <ele>77.2</ele>
        <time>2024-04-14T09:38:34Z</time>
      </trkpt>
      <trkpt lat="47.95127" lon="-0.522">
        <ele>77.2</ele>
        <time>2024-04-14T09:38:35Z</time>
      </trkpt>
      <trkpt lat="47.95124" lon="-0.52201">
        <ele>77.2</ele>
        <time>2024-04-14T09:38:36Z</time>
      </trkpt>
      <trkpt lat="47.95122" lon="-0.52202">
        <ele>76.6</ele>
        <time>2024-04-14T09:38:37Z</time>
      </trkpt>
      <trkpt lat="47.95119" lon="-0.52203">
        <ele>76.6</ele>
        <time>2024-04-14T09:38:38Z</time>
      </trkpt>
      <trkpt lat="47.95117" lon="-0.52204">
        <ele>76.6</ele>
        <time>2024-04-14T09:38:39Z</time>
      </trkpt>
      <trkpt lat="47.95115" lon="-0.52205">
        <ele>77.6</ele>
        <time>2024-04-14T09:38:40Z</time>
      </trkpt>
      <trkpt lat="47.95112" lon="-0.52206">
        <ele>77</ele>
        <time>2024-04-14T09:38:41Z</time>
      </trkpt>
      <trkpt lat="47.95111" lon="-0.52207">
        <ele>77</ele>
        <time>2024-04-14T09:38:42Z</time>
      </trkpt>
      <trkpt lat="47.95108" lon="-0.52208">
        <ele>77</ele>
        <time>2024-04-14T09:38:43Z</time>
      </trkpt>
      <trkpt lat="47.95106" lon="-0.52208">
        <ele>78</ele>
        <time>2024-04-14T09:38:44Z</time>
      </trkpt>
      <trkpt lat="47.95104" lon="-0.52209">
        <ele>77.6</ele>
        <time>2024-04-14T09:38:45Z</time>
      </trkpt>
      <trkpt lat="47.95103" lon="-0.52209">
        <ele>77.6</ele>
        <time>2024-04-14T09:38:46Z</time>
      </trkpt>
      <trkpt lat="47.95102" lon="-0.52211">
        <ele>77.6</ele>
        <time>2024-04-14T09:38:47Z</time>
      </trkpt>
      <trkpt lat="47.95101" lon="-0.52211">
        <ele>78</ele>
        <time>2024-04-14T09:38:48Z</time>
      </trkpt>
      <trkpt lat="47.95101" lon="-0.52211">
        <ele>78</ele>
        <time>2024-04-14T09:38:49Z</time>
      </trkpt>
      <trkpt lat="47.95095" lon="-0.5221">
        <ele>78.2</ele>
        <time>2024-04-14T09:38:57Z</time>
      </trkpt>
      <trkpt lat="47.95093" lon="-0.52211">
        <ele>78.2</ele>
        <time>2024-04-14T09:38:58Z</time>
      </trkpt>
      <trkpt lat="47.95091" lon="-0.52211">
        <ele>78.2</ele>
        <time>2024-04-14T09:38:59Z</time>
      </trkpt>
      <trkpt lat="47.95089" lon="-0.52211">
        <ele>78.6</ele>
        <time>2024-04-14T09:39:00Z</time>
      </trkpt>
      <trkpt lat="47.95087" lon="-0.52212">
        <ele>78.8</ele>
        <time>2024-04-14T09:39:01Z</time>
      </trkpt>
      <trkpt lat="47.95085" lon="-0.52212">
        <ele>78.8</ele>
        <time>2024-04-14T09:39:02Z</time>
      </trkpt>
      <trkpt lat="47.95083" lon="-0.52213">
        <ele>78.8</ele>
        <time>2024-04-14T09:39:03Z</time>
      </trkpt>
      <trkpt lat="47.95081" lon="-0.52214">
        <ele>78.8</ele>
        <time>2024-04-14T09:39:04Z</time>
      </trkpt>
      <trkpt lat="47.95079" lon="-0.52215">
        <ele>79.2</ele>
        <time>2024-04-14T09:39:05Z</time>
      </trkpt>
      <trkpt lat="47.95077" lon="-0.52215">
        <ele>79.2</ele>
        <time>2024-04-14T09:39:06Z</time>
      </trkpt>
      <trkpt lat="47.95074" lon="-0.52215">
        <ele>79.2</ele>
        <time>2024-04-14T09:39:07Z</time>
      </trkpt>
      <trkpt lat="47.95072" lon="-0.52215">
        <ele>79.2</ele>
        <time>2024-04-14T09:39:08Z</time>
      </trkpt>
      <trkpt lat="47.9507" lon="-0.52215">
        <ele>80</ele>
        <time>2024-04-14T09:39:09Z</time>
      </trkpt>
      <trkpt lat="47.95068" lon="-0.52215">
        <ele>80</ele>
        <time>2024-04-14T09:39:10Z</time>
      </trkpt>
      <trkpt lat="47.95066" lon="-0.52215">
        <ele>80</ele>
        <time>2024-04-14T09:39:11Z</time>
      </trkpt>
      <trkpt lat="47.95064" lon="-0.52215">
        <ele>80.6</ele>
        <time>2024-04-14T09:39:12Z</time>
      </trkpt>
      <trkpt lat="47.95062" lon="-0.52216">
        <ele>80</ele>
        <time>2024-04-14T09:39:13Z</time>
      </trkpt>
      <trkpt lat="47.9506" lon="-0.52216">
        <ele>80</ele>
        <time>2024-04-14T09:39:14Z</time>
      </trkpt>
      <trkpt lat="47.95058" lon="-0.52216">
        <ele>80</ele>
        <time>2024-04-14T09:39:15Z</time>
      </trkpt>
      <trkpt lat="47.95056" lon="-0.52216">
        <ele>80</ele>
        <time>2024-04-14T09:39:16Z</time>
      </trkpt>
      <trkpt lat="47.95053" lon="-0.52216">
        <ele>80.8</ele>
        <time>2024-04-14T09:39:17Z</time>
      </trkpt>
      <trkpt lat="47.95051" lon="-0.52217">
        <ele>80.8</ele>
        <time>2024-04-14T09:39:18Z</time>
      </trkpt>
      <trkpt lat="47.95049" lon="-0.52217">
        <ele>80.8</ele>
        <time>2024-04-14T09:39:19Z</time>
      </trkpt>
      <trkpt lat="47.95047" lon="-0.52217">
        <ele>80.8</ele>
        <time>2024-04-14T09:39:20Z</time>
      </trkpt>
      <trkpt lat="47.95044" lon="-0.52217">
        <ele>80.4</ele>
        <time>2024-04-14T09:39:21Z</time>
      </trkpt>
      <trkpt lat="47.95042" lon="-0.52217">
        <ele>80.4</ele>
        <time>2024-04-14T09:39:22Z</time>
      </trkpt>
      <trkpt lat="47.9504" lon="-0.52218">
        <ele>80.4</ele>
        <time>2024-04-14T09:39:23Z</time>
      </trkpt>
      <trkpt lat="47.95037" lon="-0.52218">
        <ele>80.8</ele>
        <time>2024-04-14T09:39:24Z</time>
      </trkpt>
      <trkpt lat="47.95035" lon="-0.52218">
        <ele>81.8</ele>
        <time>2024-04-14T09:39:25Z</time>
      </trkpt>
      <trkpt lat="47.95032" lon="-0.52218">
        <ele>81.8</ele>
        <time>2024-04-14T09:39:26Z</time>
      </trkpt>
      <trkpt lat="47.9503" lon="-0.52218">
        <ele>81.8</ele>
        <time>2024-04-14T09:39:27Z</time>
      </trkpt>
      <trkpt lat="47.95028" lon="-0.52218">
        <ele>80.8</ele>
        <time>2024-04-14T09:39:28Z</time>
      </trkpt>
      <trkpt lat="47.95025" lon="-0.52218">
        <ele>80.8</ele>
        <time>2024-04-14T09:39:29Z</time>
      </trkpt>
      <trkpt lat="47.95023" lon="-0.52218">
        <ele>80.8</ele>
        <time>2024-04-14T09:39:30Z</time>
      </trkpt>
      <trkpt lat="47.95021" lon="-0.52218">
        <ele>80.8</ele>
        <time>2024-04-14T09:39:31Z</time>
      </trkpt>
      <trkpt lat="47.95018" lon="-0.52218">
        <ele>80.8</ele>
        <time>2024-04-14T09:39:32Z</time>
      </trkpt>
      <trkpt lat="47.95016" lon="-0.52218">
        <ele>81.8</ele>
        <time>2024-04-14T09:39:33Z</time>
      </trkpt>
      <trkpt lat="47.95013" lon="-0.52217">
        <ele>81.8</ele>
        <time>2024-04-14T09:39:34Z</time>
      </trkpt>
      <trkpt lat="47.95011" lon="-0.52217">
        <ele>81.8</ele>
        <time>2024-04-14T09:39:35Z</time>
      </trkpt>
      <trkpt lat="47.95009" lon="-0.52217">
        <ele>81.6</ele>
        <time>2024-04-14T09:39:36Z</time>
      </trkpt>
      <trkpt lat="47.95007" lon="-0.52216">
        <ele>81.4</ele>
        <time>2024-04-14T09:39:37Z</time>
      </trkpt>
      <trkpt lat="47.95005" lon="-0.52215">
        <ele>81.4</ele>
        <time>2024-04-14T09:39:38Z</time>
      </trkpt>
      <trkpt lat="47.95002" lon="-0.52215">
        <ele>81.4</ele>
        <time>2024-04-14T09:39:39Z</time>
      </trkpt>
      <trkpt lat="47.94999" lon="-0.52214">
        <ele>80.8</ele>
        <time>2024-04-14T09:39:40Z</time>
      </trkpt>
      <trkpt lat="47.94997" lon="-0.52213">
        <ele>81.2</ele>
        <time>2024-04-14T09:39:41Z</time>
      </trkpt>
      <trkpt lat="47.94995" lon="-0.52212">
        <ele>81.2</ele>
        <time>2024-04-14T09:39:42Z</time>
      </trkpt>
      <trkpt lat="47.94993" lon="-0.52211">
        <ele>81.2</ele>
        <time>2024-04-14T09:39:43Z</time>
      </trkpt>
      <trkpt lat="47.94991" lon="-0.5221">
        <ele>81.2</ele>
        <time>2024-04-14T09:39:44Z</time>
      </trkpt>
      <trkpt lat="47.94989" lon="-0.52209">
        <ele>81.4</ele>
        <time>2024-04-14T09:39:45Z</time>
      </trkpt>
      <trkpt lat="47.94987" lon="-0.52208">
        <ele>81.4</ele>
        <time>2024-04-14T09:39:46Z</time>
      </trkpt>
      <trkpt lat="47.94985" lon="-0.52208">
        <ele>81.4</ele>
        <time>2024-04-14T09:39:47Z</time>
      </trkpt>
      <trkpt lat="47.94983" lon="-0.52207">
        <ele>81.4</ele>
        <time>2024-04-14T09:39:48Z</time>
      </trkpt>
      <trkpt lat="47.94981" lon="-0.52206">
        <ele>80.2</ele>
        <time>2024-04-14T09:39:49Z</time>
      </trkpt>
      <trkpt lat="47.94978" lon="-0.52206">
        <ele>80.2</ele>
        <time>2024-04-14T09:39:50Z</time>
      </trkpt>
      <trkpt lat="47.94976" lon="-0.52205">
        <ele>80.2</ele>
        <time>2024-04-14T09:39:51Z</time>
      </trkpt>
      <trkpt lat="47.94974" lon="-0.52205">
        <ele>81.2</ele>
        <time>2024-04-14T09:39:52Z</time>
      </trkpt>
      <trkpt lat="47.94971" lon="-0.52204">
        <ele>82.2</ele>
        <time>2024-04-14T09:39:53Z</time>
      </trkpt>
      <trkpt lat="47.94969" lon="-0.52204">
        <ele>82.2</ele>
        <time>2024-04-14T09:39:54Z</time>
      </trkpt>
      <trkpt lat="47.94966" lon="-0.52203">
        <ele>82.2</ele>
        <time>2024-04-14T09:39:55Z</time>
      </trkpt>
      <trkpt lat="47.94964" lon="-0.52202">
        <ele>82.2</ele>
        <time>2024-04-14T09:39:56Z</time>
      </trkpt>
      <trkpt lat="47.94962" lon="-0.52202">
        <ele>82.4</ele>
        <time>2024-04-14T09:39:57Z</time>
      </trkpt>
      <trkpt lat="47.94959" lon="-0.52201">
        <ele>82.4</ele>
        <time>2024-04-14T09:39:58Z</time>
      </trkpt>
      <trkpt lat="47.94957" lon="-0.522">
        <ele>82.4</ele>
        <time>2024-04-14T09:39:59Z</time>
      </trkpt>
      <trkpt lat="47.94955" lon="-0.52199">
        <ele>82.4</ele>
        <time>2024-04-14T09:40:00Z</time>
      </trkpt>
      <trkpt lat="47.94952" lon="-0.52198">
        <ele>82.6</ele>
        <time>2024-04-14T09:40:01Z</time>
      </trkpt>
      <trkpt lat="47.9495" lon="-0.52198">
        <ele>82.6</ele>
        <time>2024-04-14T09:40:02Z</time>
      </trkpt>
      <trkpt lat="47.94948" lon="-0.52197">
        <ele>82.6</ele>
        <time>2024-04-14T09:40:03Z</time>
      </trkpt>
      <trkpt lat="47.94945" lon="-0.52196">
        <ele>82.6</ele>
        <time>2024-04-14T09:40:04Z</time>
      </trkpt>
      <trkpt lat="47.94943" lon="-0.52195">
        <ele>83</ele>
        <time>2024-04-14T09:40:05Z</time>
      </trkpt>
      <trkpt lat="47.94941" lon="-0.52194">
        <ele>83</ele>
        <time>2024-04-14T09:40:06Z</time>
      </trkpt>
      <trkpt lat="47.94939" lon="-0.52193">
        <ele>83</ele>
        <time>2024-04-14T09:40:07Z</time>
      </trkpt>
      <trkpt lat="47.94936" lon="-0.52192">
        <ele>83</ele>
        <time>2024-04-14T09:40:08Z</time>
      </trkpt>
      <trkpt lat="47.94933" lon="-0.52191">
        <ele>82.8</ele>
        <time>2024-04-14T09:40:09Z</time>
      </trkpt>
      <trkpt lat="47.9493" lon="-0.5219">
        <ele>82.8</ele>
        <time>2024-04-14T09:40:10Z</time>
      </trkpt>
      <trkpt lat="47.94927" lon="-0.52188">
        <ele>82.8</ele>
        <time>2024-04-14T09:40:11Z</time>
      </trkpt>
      <trkpt lat="47.94924" lon="-0.52187">
        <ele>81.8</ele>
        <time>2024-04-14T09:40:12Z</time>
      </trkpt>
      <trkpt lat="47.94921" lon="-0.52186">
        <ele>81.6</ele>
        <time>2024-04-14T09:40:13Z</time>
      </trkpt>
      <trkpt lat="47.94919" lon="-0.52186">
        <ele>81.6</ele>
        <time>2024-04-14T09:40:14Z</time>
      </trkpt>
      <trkpt lat="47.94917" lon="-0.52185">
        <ele>81.6</ele>
        <time>2024-04-14T09:40:15Z</time>
      </trkpt>
      <trkpt lat="47.94915" lon="-0.52183">
        <ele>81.6</ele>
        <time>2024-04-14T09:40:16Z</time>
      </trkpt>
      <trkpt lat="47.94913" lon="-0.52182">
        <ele>83</ele>
        <time>2024-04-14T09:40:17Z</time>
      </trkpt>
      <trkpt lat="47.94912" lon="-0.5218">
        <ele>83</ele>
        <time>2024-04-14T09:40:18Z</time>
      </trkpt>
      <trkpt lat="47.94912" lon="-0.52176">
        <ele>83</ele>
        <time>2024-04-14T09:40:19Z</time>
      </trkpt>
      <trkpt lat="47.94912" lon="-0.52172">
        <ele>83</ele>
        <time>2024-04-14T09:40:20Z</time>
      </trkpt>
      <trkpt lat="47.94912" lon="-0.52168">
        <ele>80.6</ele>
        <time>2024-04-14T09:40:21Z</time>
      </trkpt>
      <trkpt lat="47.94911" lon="-0.52164">
        <ele>80.6</ele>
        <time>2024-04-14T09:40:22Z</time>
      </trkpt>
      <trkpt lat="47.94911" lon="-0.52159">
        <ele>80.6</ele>
        <time>2024-04-14T09:40:23Z</time>
      </trkpt>
      <trkpt lat="47.94911" lon="-0.52154">
        <ele>81.6</ele>
        <time>2024-04-14T09:40:24Z</time>
      </trkpt>
      <trkpt lat="47.94911" lon="-0.52149">
        <ele>80.8</ele>
        <time>2024-04-14T09:40:25Z</time>
      </trkpt>
      <trkpt lat="47.9491" lon="-0.52145">
        <ele>80.8</ele>
        <time>2024-04-14T09:40:26Z</time>
      </trkpt>
      <trkpt lat="47.9491" lon="-0.5214">
        <ele>80.8</ele>
        <time>2024-04-14T09:40:27Z</time>
      </trkpt>
      <trkpt lat="47.94909" lon="-0.52135">
        <ele>81.8</ele>
        <time>2024-04-14T09:40:28Z</time>
      </trkpt>
      <trkpt lat="47.94908" lon="-0.5213">
        <ele>81.2</ele>
        <time>2024-04-14T09:40:29Z</time>
      </trkpt>
      <trkpt lat="47.94907" lon="-0.52124">
        <ele>81.2</ele>
        <time>2024-04-14T09:40:30Z</time>
      </trkpt>
      <trkpt lat="47.94907" lon="-0.52119">
        <ele>81.2</ele>
        <time>2024-04-14T09:40:31Z</time>
      </trkpt>
      <trkpt lat="47.94906" lon="-0.52114">
        <ele>81.2</ele>
        <time>2024-04-14T09:40:32Z</time>
      </trkpt>
      <trkpt lat="47.94905" lon="-0.52109">
        <ele>80.2</ele>
        <time>2024-04-14T09:40:33Z</time>
      </trkpt>
      <trkpt lat="47.94904" lon="-0.52105">
        <ele>80.2</ele>
        <time>2024-04-14T09:40:34Z</time>
      </trkpt>
      <trkpt lat="47.94903" lon="-0.521">
        <ele>80.2</ele>
        <time>2024-04-14T09:40:35Z</time>
      </trkpt>
      <trkpt lat="47.94902" lon="-0.52095">
        <ele>81.2</ele>
        <time>2024-04-14T09:40:36Z</time>
      </trkpt>
      <trkpt lat="47.94901" lon="-0.5209">
        <ele>81.2</ele>
        <time>2024-04-14T09:40:37Z</time>
      </trkpt>
      <trkpt lat="47.94901" lon="-0.52085">
        <ele>81.2</ele>
        <time>2024-04-14T09:40:38Z</time>
      </trkpt>
      <trkpt lat="47.949" lon="-0.5208">
        <ele>81.2</ele>
        <time>2024-04-14T09:40:39Z</time>
      </trkpt>
      <trkpt lat="47.94899" lon="-0.52076">
        <ele>82.2</ele>
        <time>2024-04-14T09:40:40Z</time>
      </trkpt>
      <trkpt lat="47.94898" lon="-0.52071">
        <ele>83.8</ele>
        <time>2024-04-14T09:40:41Z</time>
      </trkpt>
      <trkpt lat="47.94897" lon="-0.52066">
        <ele>83.8</ele>
        <time>2024-04-14T09:40:42Z</time>
      </trkpt>
      <trkpt lat="47.94895" lon="-0.52062">
        <ele>83.8</ele>
        <time>2024-04-14T09:40:43Z</time>
      </trkpt>
      <trkpt lat="47.94895" lon="-0.52057">
        <ele>82.8</ele>
        <time>2024-04-14T09:40:44Z</time>
      </trkpt>
      <trkpt lat="47.94893" lon="-0.52052">
        <ele>78.6</ele>
        <time>2024-04-14T09:40:45Z</time>
      </trkpt>
      <trkpt lat="47.94892" lon="-0.52048">
        <ele>78.6</ele>
        <time>2024-04-14T09:40:46Z</time>
      </trkpt>
      <trkpt lat="47.94891" lon="-0.52044">
        <ele>78.6</ele>
        <time>2024-04-14T09:40:47Z</time>
      </trkpt>
      <trkpt lat="47.9489" lon="-0.52039">
        <ele>79.6</ele>
        <time>2024-04-14T09:40:48Z</time>
      </trkpt>
      <trkpt lat="47.94889" lon="-0.52035">
        <ele>80.8</ele>
        <time>2024-04-14T09:40:49Z</time>
      </trkpt>
      <trkpt lat="47.94888" lon="-0.5203">
        <ele>80.8</ele>
        <time>2024-04-14T09:40:50Z</time>
      </trkpt>
      <trkpt lat="47.94887" lon="-0.52025">
        <ele>80.8</ele>
        <time>2024-04-14T09:40:51Z</time>
      </trkpt>
      <trkpt lat="47.94886" lon="-0.52021">
        <ele>81.8</ele>
        <time>2024-04-14T09:40:52Z</time>
      </trkpt>
      <trkpt lat="47.94885" lon="-0.52016">
        <ele>82.4</ele>
        <time>2024-04-14T09:40:53Z</time>
      </trkpt>
      <trkpt lat="47.94884" lon="-0.52012">
        <ele>82.4</ele>
        <time>2024-04-14T09:40:54Z</time>
      </trkpt>
      <trkpt lat="47.94883" lon="-0.52008">
        <ele>82.4</ele>
        <time>2024-04-14T09:40:55Z</time>
      </trkpt>
      <trkpt lat="47.94881" lon="-0.52005">
        <ele>81.4</ele>
        <time>2024-04-14T09:40:56Z</time>
      </trkpt>
      <trkpt lat="47.9488" lon="-0.52001">
        <ele>79.6</ele>
        <time>2024-04-14T09:40:57Z</time>
      </trkpt>
      <trkpt lat="47.94879" lon="-0.51997">
        <ele>79.6</ele>
        <time>2024-04-14T09:40:58Z</time>
      </trkpt>
      <trkpt lat="47.94878" lon="-0.51992">
        <ele>79.6</ele>
        <time>2024-04-14T09:40:59Z</time>
      </trkpt>
      <trkpt lat="47.94877" lon="-0.51987">
        <ele>80.6</ele>
        <time>2024-04-14T09:41:00Z</time>
      </trkpt>
      <trkpt lat="47.94876" lon="-0.51982">
        <ele>81.2</ele>
        <time>2024-04-14T09:41:01Z</time>
      </trkpt>
      <trkpt lat="47.94875" lon="-0.51977">
        <ele>81.2</ele>
        <time>2024-04-14T09:41:02Z</time>
      </trkpt>
      <trkpt lat="47.94874" lon="-0.51972">
        <ele>81.2</ele>
        <time>2024-04-14T09:41:03Z</time>
      </trkpt>
      <trkpt lat="47.94873" lon="-0.51967">
        <ele>80.2</ele>
        <time>2024-04-14T09:41:04Z</time>
      </trkpt>
      <trkpt lat="47.94872" lon="-0.51962">
        <ele>80.2</ele>
        <time>2024-04-14T09:41:05Z</time>
      </trkpt>
      <trkpt lat="47.9487" lon="-0.51957">
        <ele>80.2</ele>
        <time>2024-04-14T09:41:06Z</time>
      </trkpt>
      <trkpt lat="47.94869" lon="-0.51952">
        <ele>80.2</ele>
        <time>2024-04-14T09:41:07Z</time>
      </trkpt>
      <trkpt lat="47.94869" lon="-0.51947">
        <ele>81.2</ele>
        <time>2024-04-14T09:41:08Z</time>
      </trkpt>
      <trkpt lat="47.94868" lon="-0.51942">
        <ele>80</ele>
        <time>2024-04-14T09:41:09Z</time>
      </trkpt>
      <trkpt lat="47.94867" lon="-0.51937">
        <ele>80</ele>
        <time>2024-04-14T09:41:10Z</time>
      </trkpt>
      <trkpt lat="47.94867" lon="-0.51933">
        <ele>80</ele>
        <time>2024-04-14T09:41:11Z</time>
      </trkpt>
      <trkpt lat="47.94866" lon="-0.51928">
        <ele>80</ele>
        <time>2024-04-14T09:41:12Z</time>
      </trkpt>
      <trkpt lat="47.94865" lon="-0.51922">
        <ele>78.8</ele>
        <time>2024-04-14T09:41:13Z</time>
      </trkpt>
      <trkpt lat="47.94864" lon="-0.51917">
        <ele>78.8</ele>
        <time>2024-04-14T09:41:14Z</time>
      </trkpt>
      <trkpt lat="47.94864" lon="-0.51912">
        <ele>78.8</ele>
        <time>2024-04-14T09:41:15Z</time>
      </trkpt>
      <trkpt lat="47.94863" lon="-0.51907">
        <ele>79.8</ele>
        <time>2024-04-14T09:41:16Z</time>
      </trkpt>
      <trkpt lat="47.94862" lon="-0.51903">
        <ele>80.4</ele>
        <time>2024-04-14T09:41:17Z</time>
      </trkpt>
      <trkpt lat="47.94861" lon="-0.51897">
        <ele>80.4</ele>
        <time>2024-04-14T09:41:18Z</time>
      </trkpt>
      <trkpt lat="47.9486" lon="-0.51892">
        <ele>80.4</ele>
        <time>2024-04-14T09:41:19Z</time>
      </trkpt>
      <trkpt lat="47.94859" lon="-0.51886">
        <ele>80.2</ele>
        <time>2024-04-14T09:41:20Z</time>
      </trkpt>
      <trkpt lat="47.94858" lon="-0.51879">
        <ele>80</ele>
        <time>2024-04-14T09:41:21Z</time>
      </trkpt>
      <trkpt lat="47.94857" lon="-0.51873">
        <ele>80</ele>
        <time>2024-04-14T09:41:22Z</time>
      </trkpt>
      <trkpt lat="47.94856" lon="-0.51866">
        <ele>80</ele>
        <time>2024-04-14T09:41:23Z</time>
      </trkpt>
      <trkpt lat="47.94855" lon="-0.5186">
        <ele>79.6</ele>
        <time>2024-04-14T09:41:24Z</time>
      </trkpt>
      <trkpt lat="47.94854" lon="-0.51853">
        <ele>80.4</ele>
        <time>2024-04-14T09:41:25Z</time>
      </trkpt>
      <trkpt lat="47.94853" lon="-0.51847">
        <ele>80.4</ele>
        <time>2024-04-14T09:41:26Z</time>
      </trkpt>
      <trkpt lat="47.94851" lon="-0.5184">
        <ele>80.4</ele>
        <time>2024-04-14T09:41:27Z</time>
      </trkpt>
      <trkpt lat="47.9485" lon="-0.51834">
        <ele>79.4</ele>
        <time>2024-04-14T09:41:28Z</time>
      </trkpt>
      <trkpt lat="47.94848" lon="-0.51828">
        <ele>79.2</ele>
        <time>2024-04-14T09:41:29Z</time>
      </trkpt>
      <trkpt lat="47.94847" lon="-0.51821">
        <ele>79.2</ele>
        <time>2024-04-14T09:41:30Z</time>
      </trkpt>
      <trkpt lat="47.94846" lon="-0.51815">
        <ele>79.2</ele>
        <time>2024-04-14T09:41:31Z</time>
      </trkpt>
      <trkpt lat="47.94844" lon="-0.51808">
        <ele>80</ele>
        <time>2024-04-14T09:41:32Z</time>
      </trkpt>
      <trkpt lat="47.94843" lon="-0.51802">
        <ele>78.6</ele>
        <time>2024-04-14T09:41:33Z</time>
      </trkpt>
      <trkpt lat="47.94842" lon="-0.51795">
        <ele>78.6</ele>
        <time>2024-04-14T09:41:34Z</time>
      </trkpt>
      <trkpt lat="47.94841" lon="-0.51788">
        <ele>78.6</ele>
        <time>2024-04-14T09:41:35Z</time>
      </trkpt>
      <trkpt lat="47.9484" lon="-0.51781">
        <ele>78.6</ele>
        <time>2024-04-14T09:41:36Z</time>
      </trkpt>
      <trkpt lat="47.94839" lon="-0.51774">
        <ele>80.6</ele>
        <time>2024-04-14T09:41:37Z</time>
      </trkpt>
      <trkpt lat="47.94839" lon="-0.51766">
        <ele>80.6</ele>
        <time>2024-04-14T09:41:38Z</time>
      </trkpt>
      <trkpt lat="47.94838" lon="-0.51758">
        <ele>80.6</ele>
        <time>2024-04-14T09:41:39Z</time>
      </trkpt>
      <trkpt lat="47.94838" lon="-0.51751">
        <ele>80.6</ele>
        <time>2024-04-14T09:41:40Z</time>
      </trkpt>
      <trkpt lat="47.94838" lon="-0.51743">
        <ele>77.6</ele>
        <time>2024-04-14T09:41:41Z</time>
      </trkpt>
      <trkpt lat="47.94839" lon="-0.51735">
        <ele>77.6</ele>
        <time>2024-04-14T09:41:42Z</time>
      </trkpt>
      <trkpt lat="47.9484" lon="-0.51728">
        <ele>77.6</ele>
        <time>2024-04-14T09:41:43Z</time>
      </trkpt>
      <trkpt lat="47.9484" lon="-0.51721">
        <ele>78.2</ele>
        <time>2024-04-14T09:41:44Z</time>
      </trkpt>
      <trkpt lat="47.94841" lon="-0.51713">
        <ele>78.2</ele>
        <time>2024-04-14T09:41:45Z</time>
      </trkpt>
      <trkpt lat="47.94842" lon="-0.51706">
        <ele>78.2</ele>
        <time>2024-04-14T09:41:46Z</time>
      </trkpt>
      <trkpt lat="47.94844" lon="-0.51699">
        <ele>78.2</ele>
        <time>2024-04-14T09:41:47Z</time>
      </trkpt>
      <trkpt lat="47.94845" lon="-0.51692">
        <ele>78.2</ele>
        <time>2024-04-14T09:41:48Z</time>
      </trkpt>
      <trkpt lat="47.94847" lon="-0.51685">
        <ele>77.8</ele>
        <time>2024-04-14T09:41:49Z</time>
      </trkpt>
      <trkpt lat="47.94849" lon="-0.51678">
        <ele>77.8</ele>
        <time>2024-04-14T09:41:50Z</time>
      </trkpt>
      <trkpt lat="47.94851" lon="-0.51671">
        <ele>77.8</ele>
        <time>2024-04-14T09:41:51Z</time>
      </trkpt>
      <trkpt lat="47.94853" lon="-0.51664">
        <ele>77.8</ele>
        <time>2024-04-14T09:41:52Z</time>
      </trkpt>
      <trkpt lat="47.94856" lon="-0.51658">
        <ele>78</ele>
        <time>2024-04-14T09:41:53Z</time>
      </trkpt>
      <trkpt lat="47.94858" lon="-0.51651">
        <ele>78</ele>
        <time>2024-04-14T09:41:54Z</time>
      </trkpt>
      <trkpt lat="47.9486" lon="-0.51644">
        <ele>78</ele>
        <time>2024-04-14T09:41:55Z</time>
      </trkpt>
      <trkpt lat="47.94862" lon="-0.51637">
        <ele>77.6</ele>
        <time>2024-04-14T09:41:56Z</time>
      </trkpt>
      <trkpt lat="47.94864" lon="-0.5163">
        <ele>78.6</ele>
        <time>2024-04-14T09:41:57Z</time>
      </trkpt>
      <trkpt lat="47.94865" lon="-0.51623">
        <ele>78.6</ele>
        <time>2024-04-14T09:41:58Z</time>
      </trkpt>
      <trkpt lat="47.94867" lon="-0.51616">
        <ele>78.6</ele>
        <time>2024-04-14T09:41:59Z</time>
      </trkpt>
      <trkpt lat="47.94868" lon="-0.51609">
        <ele>77.8</ele>
        <time>2024-04-14T09:42:00Z</time>
      </trkpt>
      <trkpt lat="47.9487" lon="-0.51602">
        <ele>77.6</ele>
        <time>2024-04-14T09:42:01Z</time>
      </trkpt>
      <trkpt lat="47.94871" lon="-0.51594">
        <ele>77.6</ele>
        <time>2024-04-14T09:42:02Z</time>
      </trkpt>
      <trkpt lat="47.94872" lon="-0.51586">
        <ele>77.6</ele>
        <time>2024-04-14T09:42:03Z</time>
      </trkpt>
      <trkpt lat="47.94873" lon="-0.51579">
        <ele>77.4</ele>
        <time>2024-04-14T09:42:04Z</time>
      </trkpt>
      <trkpt lat="47.94873" lon="-0.51571">
        <ele>76.4</ele>
        <time>2024-04-14T09:42:05Z</time>
      </trkpt>
      <trkpt lat="47.94874" lon="-0.51563">
        <ele>76.4</ele>
        <time>2024-04-14T09:42:06Z</time>
      </trkpt>
      <trkpt lat="47.94875" lon="-0.51556">
        <ele>76.4</ele>
        <time>2024-04-14T09:42:07Z</time>
      </trkpt>
      <trkpt lat="47.94876" lon="-0.51548">
        <ele>77.2</ele>
        <time>2024-04-14T09:42:08Z</time>
      </trkpt>
      <trkpt lat="47.94877" lon="-0.5154">
        <ele>76.8</ele>
        <time>2024-04-14T09:42:09Z</time>
      </trkpt>
      <trkpt lat="47.94879" lon="-0.51533">
        <ele>76.8</ele>
        <time>2024-04-14T09:42:10Z</time>
      </trkpt>
      <trkpt lat="47.94881" lon="-0.51526">
        <ele>76.8</ele>
        <time>2024-04-14T09:42:11Z</time>
      </trkpt>
      <trkpt lat="47.94883" lon="-0.51518">
        <ele>77</ele>
        <time>2024-04-14T09:42:12Z</time>
      </trkpt>
      <trkpt lat="47.94885" lon="-0.51511">
        <ele>76</ele>
        <time>2024-04-14T09:42:13Z</time>
      </trkpt>
      <trkpt lat="47.94887" lon="-0.51504">
        <ele>76</ele>
        <time>2024-04-14T09:42:14Z</time>
      </trkpt>
      <trkpt lat="47.9489" lon="-0.51497">
        <ele>76</ele>
        <time>2024-04-14T09:42:15Z</time>
      </trkpt>
      <trkpt lat="47.94892" lon="-0.5149">
        <ele>76.8</ele>
        <time>2024-04-14T09:42:16Z</time>
      </trkpt>
      <trkpt lat="47.94894" lon="-0.51482">
        <ele>76.2</ele>
        <time>2024-04-14T09:42:17Z</time>
      </trkpt>
      <trkpt lat="47.94896" lon="-0.51475">
        <ele>76.2</ele>
        <time>2024-04-14T09:42:18Z</time>
      </trkpt>
      <trkpt lat="47.94898" lon="-0.51467">
        <ele>76.2</ele>
        <time>2024-04-14T09:42:19Z</time>
      </trkpt>
      <trkpt lat="47.949" lon="-0.51459">
        <ele>76.2</ele>
        <time>2024-04-14T09:42:20Z</time>
      </trkpt>
      <trkpt lat="47.94901" lon="-0.51452">
        <ele>76.4</ele>
        <time>2024-04-14T09:42:21Z</time>
      </trkpt>
      <trkpt lat="47.94903" lon="-0.51444">
        <ele>76.4</ele>
        <time>2024-04-14T09:42:22Z</time>
      </trkpt>
      <trkpt lat="47.94903" lon="-0.51436">
        <ele>76.4</ele>
        <time>2024-04-14T09:42:23Z</time>
      </trkpt>
      <trkpt lat="47.94904" lon="-0.51428">
        <ele>76.4</ele>
        <time>2024-04-14T09:42:24Z</time>
      </trkpt>
      <trkpt lat="47.94905" lon="-0.5142">
        <ele>76.2</ele>
        <time>2024-04-14T09:42:25Z</time>
      </trkpt>
      <trkpt lat="47.94906" lon="-0.51412">
        <ele>76.2</ele>
        <time>2024-04-14T09:42:26Z</time>
      </trkpt>
      <trkpt lat="47.94907" lon="-0.51403">
        <ele>76.2</ele>
        <time>2024-04-14T09:42:27Z</time>
      </trkpt>
      <trkpt lat="47.94907" lon="-0.51395">
        <ele>76.2</ele>
        <time>2024-04-14T09:42:28Z</time>
      </trkpt>
      <trkpt lat="47.94908" lon="-0.51387">
        <ele>75</ele>
        <time>2024-04-14T09:42:29Z</time>
      </trkpt>
      <trkpt lat="47.94908" lon="-0.51378">
        <ele>75</ele>
        <time>2024-04-14T09:42:30Z</time>
      </trkpt>
      <trkpt lat="47.94908" lon="-0.5137">
        <ele>75</ele>
        <time>2024-04-14T09:42:31Z</time>
      </trkpt>
      <trkpt lat="47.94908" lon="-0.51362">
        <ele>76</ele>
        <time>2024-04-14T09:42:32Z</time>
      </trkpt>
      <trkpt lat="47.94909" lon="-0.51354">
        <ele>75.2</ele>
        <time>2024-04-14T09:42:33Z</time>
      </trkpt>
      <trkpt lat="47.94909" lon="-0.51346">
        <ele>75.2</ele>
        <time>2024-04-14T09:42:34Z</time>
      </trkpt>
      <trkpt lat="47.94909" lon="-0.51337">
        <ele>75.2</ele>
        <time>2024-04-14T09:42:35Z</time>
      </trkpt>
      <trkpt lat="47.94909" lon="-0.51329">
        <ele>75.8</ele>
        <time>2024-04-14T09:42:36Z</time>
      </trkpt>
      <trkpt lat="47.94909" lon="-0.51321">
        <ele>75.4</ele>
        <time>2024-04-14T09:42:37Z</time>
      </trkpt>
      <trkpt lat="47.94909" lon="-0.51313">
        <ele>75.4</ele>
        <time>2024-04-14T09:42:38Z</time>
      </trkpt>
      <trkpt lat="47.94909" lon="-0.51305">
        <ele>75.4</ele>
        <time>2024-04-14T09:42:39Z</time>
      </trkpt>
      <trkpt lat="47.94909" lon="-0.51297">
        <ele>74.6</ele>
        <time>2024-04-14T09:42:40Z</time>
      </trkpt>
      <trkpt lat="47.94909" lon="-0.51289">
        <ele>75</ele>
        <time>2024-04-14T09:42:41Z</time>
      </trkpt>
      <trkpt lat="47.94908" lon="-0.51281">
        <ele>75</ele>
        <time>2024-04-14T09:42:42Z</time>
      </trkpt>
      <trkpt lat="47.94908" lon="-0.51273">
        <ele>75</ele>
        <time>2024-04-14T09:42:43Z</time>
      </trkpt>
      <trkpt lat="47.94908" lon="-0.51265">
        <ele>75</ele>
        <time>2024-04-14T09:42:44Z</time>
      </trkpt>
      <trkpt lat="47.94908" lon="-0.51257">
        <ele>76.2</ele>
        <time>2024-04-14T09:42:45Z</time>
      </trkpt>
      <trkpt lat="47.94908" lon="-0.51249">
        <ele>76.2</ele>
        <time>2024-04-14T09:42:46Z</time>
      </trkpt>
      <trkpt lat="47.94908" lon="-0.51241">
        <ele>76.2</ele>
        <time>2024-04-14T09:42:47Z</time>
      </trkpt>
      <trkpt lat="47.94908" lon="-0.51233">
        <ele>75.2</ele>
        <time>2024-04-14T09:42:48Z</time>
      </trkpt>
      <trkpt lat="47.94908" lon="-0.51225">
        <ele>74</ele>
        <time>2024-04-14T09:42:49Z</time>
      </trkpt>
      <trkpt lat="47.94908" lon="-0.51217">
        <ele>74</ele>
        <time>2024-04-14T09:42:50Z</time>
      </trkpt>
      <trkpt lat="47.94907" lon="-0.51208">
        <ele>74</ele>
        <time>2024-04-14T09:42:51Z</time>
      </trkpt>
      <trkpt lat="47.94907" lon="-0.512">
        <ele>74</ele>
        <time>2024-04-14T09:42:52Z</time>
      </trkpt>
      <trkpt lat="47.94907" lon="-0.51191">
        <ele>72</ele>
        <time>2024-04-14T09:42:53Z</time>
      </trkpt>
      <trkpt lat="47.94907" lon="-0.51183">
        <ele>72</ele>
        <time>2024-04-14T09:42:54Z</time>
      </trkpt>
      <trkpt lat="47.94907" lon="-0.51175">
        <ele>72</ele>
        <time>2024-04-14T09:42:55Z</time>
      </trkpt>
      <trkpt lat="47.94906" lon="-0.51167">
        <ele>73</ele>
        <time>2024-04-14T09:42:56Z</time>
      </trkpt>
      <trkpt lat="47.94906" lon="-0.51158">
        <ele>73.4</ele>
        <time>2024-04-14T09:42:57Z</time>
      </trkpt>
      <trkpt lat="47.94906" lon="-0.5115">
        <ele>73.4</ele>
        <time>2024-04-14T09:42:58Z</time>
      </trkpt>
      <trkpt lat="47.94906" lon="-0.51142">
        <ele>73.4</ele>
        <time>2024-04-14T09:42:59Z</time>
      </trkpt>
      <trkpt lat="47.94905" lon="-0.51135">
        <ele>74.4</ele>
        <time>2024-04-14T09:43:00Z</time>
      </trkpt>
      <trkpt lat="47.94905" lon="-0.51128">
        <ele>75.4</ele>
        <time>2024-04-14T09:43:01Z</time>
      </trkpt>
      <trkpt lat="47.94904" lon="-0.51121">
        <ele>75.4</ele>
        <time>2024-04-14T09:43:02Z</time>
      </trkpt>
      <trkpt lat="47.94903" lon="-0.51114">
        <ele>75.4</ele>
        <time>2024-04-14T09:43:03Z</time>
      </trkpt>
      <trkpt lat="47.94903" lon="-0.51107">
        <ele>75.4</ele>
        <time>2024-04-14T09:43:04Z</time>
      </trkpt>
      <trkpt lat="47.94902" lon="-0.51099">
        <ele>74</ele>
        <time>2024-04-14T09:43:05Z</time>
      </trkpt>
      <trkpt lat="47.94901" lon="-0.51092">
        <ele>74</ele>
        <time>2024-04-14T09:43:06Z</time>
      </trkpt>
      <trkpt lat="47.949" lon="-0.51084">
        <ele>74</ele>
        <time>2024-04-14T09:43:07Z</time>
      </trkpt>
      <trkpt lat="47.94899" lon="-0.51077">
        <ele>74</ele>
        <time>2024-04-14T09:43:08Z</time>
      </trkpt>
      <trkpt lat="47.94897" lon="-0.5107">
        <ele>73.8</ele>
        <time>2024-04-14T09:43:09Z</time>
      </trkpt>
      <trkpt lat="47.94896" lon="-0.51063">
        <ele>73.8</ele>
        <time>2024-04-14T09:43:10Z</time>
      </trkpt>
      <trkpt lat="47.94895" lon="-0.51057">
        <ele>73.8</ele>
        <time>2024-04-14T09:43:11Z</time>
      </trkpt>
      <trkpt lat="47.94894" lon="-0.5105">
        <ele>73.4</ele>
        <time>2024-04-14T09:43:12Z</time>
      </trkpt>
      <trkpt lat="47.94893" lon="-0.51043">
        <ele>74.4</ele>
        <time>2024-04-14T09:43:13Z</time>
      </trkpt>
      <trkpt lat="47.94891" lon="-0.51036">
        <ele>74.4</ele>
        <time>2024-04-14T09:43:14Z</time>
      </trkpt>
      <trkpt lat="47.9489" lon="-0.51028">
        <ele>74.4</ele>
        <time>2024-04-14T09:43:15Z</time>
      </trkpt>
      <trkpt lat="47.94889" lon="-0.51021">
        <ele>73.4</ele>
        <time>2024-04-14T09:43:16Z</time>
      </trkpt>
      <trkpt lat="47.94888" lon="-0.51014">
        <ele>73</ele>
        <time>2024-04-14T09:43:17Z</time>
      </trkpt>
      <trkpt lat="47.94887" lon="-0.51007">
        <ele>73</ele>
        <time>2024-04-14T09:43:18Z</time>
      </trkpt>
      <trkpt lat="47.94886" lon="-0.51">
        <ele>73</ele>
        <time>2024-04-14T09:43:19Z</time>
      </trkpt>
      <trkpt lat="47.94884" lon="-0.50993">
        <ele>73</ele>
        <time>2024-04-14T09:43:20Z</time>
      </trkpt>
      <trkpt lat="47.94882" lon="-0.50987">
        <ele>72.4</ele>
        <time>2024-04-14T09:43:21Z</time>
      </trkpt>
      <trkpt lat="47.9488" lon="-0.50982">
        <ele>72.4</ele>
        <time>2024-04-14T09:43:22Z</time>
      </trkpt>
      <trkpt lat="47.94879" lon="-0.50977">
        <ele>72.4</ele>
        <time>2024-04-14T09:43:23Z</time>
      </trkpt>
      <trkpt lat="47.94877" lon="-0.50973">
        <ele>73.4</ele>
        <time>2024-04-14T09:43:24Z</time>
      </trkpt>
      <trkpt lat="47.94876" lon="-0.50971">
        <ele>73.4</ele>
        <time>2024-04-14T09:43:25Z</time>
      </trkpt>
      <trkpt lat="47.94874" lon="-0.5097">
        <ele>73.4</ele>
        <time>2024-04-14T09:43:26Z</time>
      </trkpt>
      <trkpt lat="47.94873" lon="-0.5097">
        <ele>73.4</ele>
        <time>2024-04-14T09:43:27Z</time>
      </trkpt>
      <trkpt lat="47.94873" lon="-0.5097">
        <ele>73.4</ele>
        <time>2024-04-14T09:43:28Z</time>
      </trkpt>
      <trkpt lat="47.94869" lon="-0.50956">
        <ele>74.2</ele>
        <time>2024-04-14T09:43:59Z</time>
      </trkpt>
      <trkpt lat="47.94868" lon="-0.50955">
        <ele>74.4</ele>
        <time>2024-04-14T09:44:00Z</time>
      </trkpt>
      <trkpt lat="47.94867" lon="-0.50953">
        <ele>74.6</ele>
        <time>2024-04-14T09:44:01Z</time>
      </trkpt>
      <trkpt lat="47.94867" lon="-0.5095">
        <ele>74.6</ele>
        <time>2024-04-14T09:44:02Z</time>
      </trkpt>
      <trkpt lat="47.94866" lon="-0.50947">
        <ele>74.6</ele>
        <time>2024-04-14T09:44:03Z</time>
      </trkpt>
      <trkpt lat="47.94867" lon="-0.50943">
        <ele>74</ele>
        <time>2024-04-14T09:44:04Z</time>
      </trkpt>
      <trkpt lat="47.94868" lon="-0.50939">
        <ele>73.6</ele>
        <time>2024-04-14T09:44:05Z</time>
      </trkpt>
      <trkpt lat="47.9487" lon="-0.50936">
        <ele>73.6</ele>
        <time>2024-04-14T09:44:06Z</time>
      </trkpt>
      <trkpt lat="47.94872" lon="-0.50931">
        <ele>73.6</ele>
        <time>2024-04-14T09:44:07Z</time>
      </trkpt>
      <trkpt lat="47.94875" lon="-0.50927">
        <ele>73.2</ele>
        <time>2024-04-14T09:44:08Z</time>
      </trkpt>
      <trkpt lat="47.94877" lon="-0.50921">
        <ele>73.4</ele>
        <time>2024-04-14T09:44:09Z</time>
      </trkpt>
      <trkpt lat="47.9488" lon="-0.50916">
        <ele>73.4</ele>
        <time>2024-04-14T09:44:10Z</time>
      </trkpt>
      <trkpt lat="47.94883" lon="-0.5091">
        <ele>73.4</ele>
        <time>2024-04-14T09:44:11Z</time>
      </trkpt>
      <trkpt lat="47.94886" lon="-0.50904">
        <ele>72.4</ele>
        <time>2024-04-14T09:44:12Z</time>
      </trkpt>
      <trkpt lat="47.94889" lon="-0.50898">
        <ele>72.2</ele>
        <time>2024-04-14T09:44:13Z</time>
      </trkpt>
      <trkpt lat="47.94892" lon="-0.50891">
        <ele>72.2</ele>
        <time>2024-04-14T09:44:14Z</time>
      </trkpt>
      <trkpt lat="47.94895" lon="-0.50885">
        <ele>72.2</ele>
        <time>2024-04-14T09:44:15Z</time>
      </trkpt>
      <trkpt lat="47.94899" lon="-0.50878">
        <ele>71.4</ele>
        <time>2024-04-14T09:44:16Z</time>
      </trkpt>
      <trkpt lat="47.94902" lon="-0.50872">
        <ele>70.2</ele>
        <time>2024-04-14T09:44:17Z</time>
      </trkpt>
      <trkpt lat="47.94905" lon="-0.50865">
        <ele>70.2</ele>
        <time>2024-04-14T09:44:18Z</time>
      </trkpt>
      <trkpt lat="47.94908" lon="-0.50858">
        <ele>70.2</ele>
        <time>2024-04-14T09:44:19Z</time>
      </trkpt>
      <trkpt lat="47.94911" lon="-0.50852">
        <ele>69.6</ele>
        <time>2024-04-14T09:44:20Z</time>
      </trkpt>
      <trkpt lat="47.94914" lon="-0.50846">
        <ele>69</ele>
        <time>2024-04-14T09:44:21Z</time>
      </trkpt>
      <trkpt lat="47.94918" lon="-0.50839">
        <ele>69</ele>
        <time>2024-04-14T09:44:22Z</time>
      </trkpt>
      <trkpt lat="47.94921" lon="-0.50832">
        <ele>69</ele>
        <time>2024-04-14T09:44:23Z</time>
      </trkpt>
      <trkpt lat="47.94925" lon="-0.50825">
        <ele>69</ele>
        <time>2024-04-14T09:44:24Z</time>
      </trkpt>
      <trkpt lat="47.94928" lon="-0.50819">
        <ele>68.8</ele>
        <time>2024-04-14T09:44:25Z</time>
      </trkpt>
      <trkpt lat="47.94932" lon="-0.50812">
        <ele>68.8</ele>
        <time>2024-04-14T09:44:26Z</time>
      </trkpt>
      <trkpt lat="47.94934" lon="-0.50805">
        <ele>68.8</ele>
        <time>2024-04-14T09:44:27Z</time>
      </trkpt>
      <trkpt lat="47.94936" lon="-0.50796">
        <ele>69.4</ele>
        <time>2024-04-14T09:44:28Z</time>
      </trkpt>
      <trkpt lat="47.94936" lon="-0.50787">
        <ele>69.4</ele>
        <time>2024-04-14T09:44:29Z</time>
      </trkpt>
      <trkpt lat="47.94935" lon="-0.50779">
        <ele>69.4</ele>
        <time>2024-04-14T09:44:30Z</time>
      </trkpt>
      <trkpt lat="47.94934" lon="-0.5077">
        <ele>69.4</ele>
        <time>2024-04-14T09:44:31Z</time>
      </trkpt>
      <trkpt lat="47.94932" lon="-0.50761">
        <ele>69.4</ele>
        <time>2024-04-14T09:44:32Z</time>
      </trkpt>
      <trkpt lat="47.94931" lon="-0.50752">
        <ele>69</ele>
        <time>2024-04-14T09:44:33Z</time>
      </trkpt>
      <trkpt lat="47.94929" lon="-0.50743">
        <ele>69</ele>
        <time>2024-04-14T09:44:34Z</time>
      </trkpt>
      <trkpt lat="47.94928" lon="-0.50734">
        <ele>69</ele>
        <time>2024-04-14T09:44:35Z</time>
      </trkpt>
      <trkpt lat="47.94926" lon="-0.50724">
        <ele>69</ele>
        <time>2024-04-14T09:44:36Z</time>
      </trkpt>
      <trkpt lat="47.94925" lon="-0.50715">
        <ele>68</ele>
        <time>2024-04-14T09:44:37Z</time>
      </trkpt>
      <trkpt lat="47.94923" lon="-0.50706">
        <ele>68</ele>
        <time>2024-04-14T09:44:38Z</time>
      </trkpt>
      <trkpt lat="47.94921" lon="-0.50696">
        <ele>68</ele>
        <time>2024-04-14T09:44:39Z</time>
      </trkpt>
      <trkpt lat="47.94919" lon="-0.50687">
        <ele>68</ele>
        <time>2024-04-14T09:44:40Z</time>
      </trkpt>
      <trkpt lat="47.94916" lon="-0.50679">
        <ele>67</ele>
        <time>2024-04-14T09:44:41Z</time>
      </trkpt>
      <trkpt lat="47.94913" lon="-0.5067">
        <ele>67</ele>
        <time>2024-04-14T09:44:42Z</time>
      </trkpt>
      <trkpt lat="47.94909" lon="-0.50663">
        <ele>67</ele>
        <time>2024-04-14T09:44:43Z</time>
      </trkpt>
      <trkpt lat="47.94905" lon="-0.50655">
        <ele>66</ele>
        <time>2024-04-14T09:44:44Z</time>
      </trkpt>
      <trkpt lat="47.94901" lon="-0.50648">
        <ele>64.8</ele>
        <time>2024-04-14T09:44:45Z</time>
      </trkpt>
      <trkpt lat="47.94895" lon="-0.5064">
        <ele>64.8</ele>
        <time>2024-04-14T09:44:46Z</time>
      </trkpt>
      <trkpt lat="47.9489" lon="-0.50633">
        <ele>64.8</ele>
        <time>2024-04-14T09:44:47Z</time>
      </trkpt>
      <trkpt lat="47.94884" lon="-0.50628">
        <ele>63.8</ele>
        <time>2024-04-14T09:44:48Z</time>
      </trkpt>
      <trkpt lat="47.94877" lon="-0.50621">
        <ele>63.2</ele>
        <time>2024-04-14T09:44:49Z</time>
      </trkpt>
      <trkpt lat="47.94871" lon="-0.50615">
        <ele>63.2</ele>
        <time>2024-04-14T09:44:50Z</time>
      </trkpt>
      <trkpt lat="47.94864" lon="-0.50608">
        <ele>63.2</ele>
        <time>2024-04-14T09:44:51Z</time>
      </trkpt>
      <trkpt lat="47.94858" lon="-0.506">
        <ele>63.2</ele>
        <time>2024-04-14T09:44:52Z</time>
      </trkpt>
      <trkpt lat="47.94852" lon="-0.50592">
        <ele>62</ele>
        <time>2024-04-14T09:44:53Z</time>
      </trkpt>
      <trkpt lat="47.94846" lon="-0.50583">
        <ele>62</ele>
        <time>2024-04-14T09:44:54Z</time>
      </trkpt>
      <trkpt lat="47.94841" lon="-0.50574">
        <ele>62</ele>
        <time>2024-04-14T09:44:55Z</time>
      </trkpt>
      <trkpt lat="47.94836" lon="-0.50564">
        <ele>61.4</ele>
        <time>2024-04-14T09:44:56Z</time>
      </trkpt>
      <trkpt lat="47.94832" lon="-0.50554">
        <ele>60.4</ele>
        <time>2024-04-14T09:44:57Z</time>
      </trkpt>
      <trkpt lat="47.9483" lon="-0.50543">
        <ele>60.4</ele>
        <time>2024-04-14T09:44:58Z</time>
      </trkpt>
      <trkpt lat="47.94827" lon="-0.50533">
        <ele>60.4</ele>
        <time>2024-04-14T09:44:59Z</time>
      </trkpt>
      <trkpt lat="47.94826" lon="-0.50522">
        <ele>61.4</ele>
        <time>2024-04-14T09:45:00Z</time>
      </trkpt>
      <trkpt lat="47.94825" lon="-0.50512">
        <ele>62.6</ele>
        <time>2024-04-14T09:45:01Z</time>
      </trkpt>
      <trkpt lat="47.94824" lon="-0.50503">
        <ele>62.6</ele>
        <time>2024-04-14T09:45:02Z</time>
      </trkpt>
      <trkpt lat="47.94823" lon="-0.50494">
        <ele>62.6</ele>
        <time>2024-04-14T09:45:03Z</time>
      </trkpt>
      <trkpt lat="47.94821" lon="-0.50485">
        <ele>63.6</ele>
        <time>2024-04-14T09:45:04Z</time>
      </trkpt>
      <trkpt lat="47.9482" lon="-0.50477">
        <ele>64.6</ele>
        <time>2024-04-14T09:45:05Z</time>
      </trkpt>
      <trkpt lat="47.94819" lon="-0.50468">
        <ele>64.6</ele>
        <time>2024-04-14T09:45:06Z</time>
      </trkpt>
      <trkpt lat="47.94818" lon="-0.50459">
        <ele>64.6</ele>
        <time>2024-04-14T09:45:07Z</time>
      </trkpt>
      <trkpt lat="47.94817" lon="-0.50451">
        <ele>64.6</ele>
        <time>2024-04-14T09:45:08Z</time>
      </trkpt>
      <trkpt lat="47.94816" lon="-0.50442">
        <ele>65.8</ele>
        <time>2024-04-14T09:45:09Z</time>
      </trkpt>
      <trkpt lat="47.94815" lon="-0.50433">
        <ele>65.8</ele>
        <time>2024-04-14T09:45:10Z</time>
      </trkpt>
      <trkpt lat="47.94813" lon="-0.50424">
        <ele>65.8</ele>
        <time>2024-04-14T09:45:11Z</time>
      </trkpt>
      <trkpt lat="47.94811" lon="-0.50415">
        <ele>65.8</ele>
        <time>2024-04-14T09:45:12Z</time>
      </trkpt>
      <trkpt lat="47.94809" lon="-0.50407">
        <ele>66</ele>
        <time>2024-04-14T09:45:13Z</time>
      </trkpt>
      <trkpt lat="47.94808" lon="-0.50398">
        <ele>66</ele>
        <time>2024-04-14T09:45:14Z</time>
      </trkpt>
      <trkpt lat="47.94806" lon="-0.50389">
        <ele>66</ele>
        <time>2024-04-14T09:45:15Z</time>
      </trkpt>
      <trkpt lat="47.94805" lon="-0.5038">
        <ele>67</ele>
        <time>2024-04-14T09:45:16Z</time>
      </trkpt>
      <trkpt lat="47.94804" lon="-0.50371">
        <ele>67</ele>
        <time>2024-04-14T09:45:17Z</time>
      </trkpt>
      <trkpt lat="47.94802" lon="-0.50362">
        <ele>67</ele>
        <time>2024-04-14T09:45:18Z</time>
      </trkpt>
      <trkpt lat="47.94801" lon="-0.50353">
        <ele>67</ele>
        <time>2024-04-14T09:45:19Z</time>
      </trkpt>
      <trkpt lat="47.94799" lon="-0.50344">
        <ele>66</ele>
        <time>2024-04-14T09:45:20Z</time>
      </trkpt>
      <trkpt lat="47.94797" lon="-0.50335">
        <ele>66.4</ele>
        <time>2024-04-14T09:45:21Z</time>
      </trkpt>
      <trkpt lat="47.94796" lon="-0.50327">
        <ele>66.4</ele>
        <time>2024-04-14T09:45:22Z</time>
      </trkpt>
      <trkpt lat="47.94794" lon="-0.50318">
        <ele>66.4</ele>
        <time>2024-04-14T09:45:23Z</time>
      </trkpt>
      <trkpt lat="47.94792" lon="-0.50309">
        <ele>66.6</ele>
        <time>2024-04-14T09:45:24Z</time>
      </trkpt>
      <trkpt lat="47.94789" lon="-0.50301">
        <ele>66.4</ele>
        <time>2024-04-14T09:45:25Z</time>
      </trkpt>
      <trkpt lat="47.94786" lon="-0.50292">
        <ele>66.4</ele>
        <time>2024-04-14T09:45:26Z</time>
      </trkpt>
      <trkpt lat="47.94783" lon="-0.50284">
        <ele>66.4</ele>
        <time>2024-04-14T09:45:27Z</time>
      </trkpt>
      <trkpt lat="47.9478" lon="-0.50275">
        <ele>66.4</ele>
        <time>2024-04-14T09:45:28Z</time>
      </trkpt>
      <trkpt lat="47.94777" lon="-0.50267">
        <ele>65.2</ele>
        <time>2024-04-14T09:45:29Z</time>
      </trkpt>
      <trkpt lat="47.94773" lon="-0.50259">
        <ele>65.2</ele>
        <time>2024-04-14T09:45:30Z</time>
      </trkpt>
      <trkpt lat="47.94769" lon="-0.50251">
        <ele>65.2</ele>
        <time>2024-04-14T09:45:31Z</time>
      </trkpt>
      <trkpt lat="47.94765" lon="-0.50242">
        <ele>66</ele>
        <time>2024-04-14T09:45:32Z</time>
      </trkpt>
      <trkpt lat="47.94762" lon="-0.50234">
        <ele>65</ele>
        <time>2024-04-14T09:45:33Z</time>
      </trkpt>
      <trkpt lat="47.94758" lon="-0.50225">
        <ele>65</ele>
        <time>2024-04-14T09:45:34Z</time>
      </trkpt>
      <trkpt lat="47.94755" lon="-0.50217">
        <ele>65</ele>
        <time>2024-04-14T09:45:35Z</time>
      </trkpt>
      <trkpt lat="47.94751" lon="-0.50207">
        <ele>64</ele>
        <time>2024-04-14T09:45:36Z</time>
      </trkpt>
      <trkpt lat="47.94748" lon="-0.50197">
        <ele>64</ele>
        <time>2024-04-14T09:45:37Z</time>
      </trkpt>
      <trkpt lat="47.94746" lon="-0.50188">
        <ele>64</ele>
        <time>2024-04-14T09:45:38Z</time>
      </trkpt>
      <trkpt lat="47.94744" lon="-0.50178">
        <ele>64</ele>
        <time>2024-04-14T09:45:39Z</time>
      </trkpt>
      <trkpt lat="47.94743" lon="-0.50168">
        <ele>64</ele>
        <time>2024-04-14T09:45:40Z</time>
      </trkpt>
      <trkpt lat="47.94741" lon="-0.50159">
        <ele>65.8</ele>
        <time>2024-04-14T09:45:41Z</time>
      </trkpt>
      <trkpt lat="47.9474" lon="-0.5015">
        <ele>65.8</ele>
        <time>2024-04-14T09:45:42Z</time>
      </trkpt>
      <trkpt lat="47.94738" lon="-0.50142">
        <ele>65.8</ele>
        <time>2024-04-14T09:45:43Z</time>
      </trkpt>
      <trkpt lat="47.94736" lon="-0.50134">
        <ele>66.8</ele>
        <time>2024-04-14T09:45:44Z</time>
      </trkpt>
      <trkpt lat="47.94734" lon="-0.50126">
        <ele>67.8</ele>
        <time>2024-04-14T09:45:45Z</time>
      </trkpt>
      <trkpt lat="47.94733" lon="-0.50118">
        <ele>67.8</ele>
        <time>2024-04-14T09:45:46Z</time>
      </trkpt>
      <trkpt lat="47.94731" lon="-0.5011">
        <ele>67.8</ele>
        <time>2024-04-14T09:45:47Z</time>
      </trkpt>
      <trkpt lat="47.9473" lon="-0.50103">
        <ele>67.8</ele>
        <time>2024-04-14T09:45:48Z</time>
      </trkpt>
      <trkpt lat="47.94729" lon="-0.50096">
        <ele>67.8</ele>
        <time>2024-04-14T09:45:49Z</time>
      </trkpt>
      <trkpt lat="47.94728" lon="-0.50089">
        <ele>67.8</ele>
        <time>2024-04-14T09:45:50Z</time>
      </trkpt>
      <trkpt lat="47.94727" lon="-0.50081">
        <ele>67.8</ele>
        <time>2024-04-14T09:45:51Z</time>
      </trkpt>
      <trkpt lat="47.94727" lon="-0.50073">
        <ele>68.2</ele>
        <time>2024-04-14T09:45:52Z</time>
      </trkpt>
      <trkpt lat="47.94726" lon="-0.50065">
        <ele>66.8</ele>
        <time>2024-04-14T09:45:53Z</time>
      </trkpt>
      <trkpt lat="47.94725" lon="-0.50057">
        <ele>66.8</ele>
        <time>2024-04-14T09:45:54Z</time>
      </trkpt>
      <trkpt lat="47.94724" lon="-0.50049">
        <ele>66.8</ele>
        <time>2024-04-14T09:45:55Z</time>
      </trkpt>
      <trkpt lat="47.94723" lon="-0.5004">
        <ele>65.8</ele>
        <time>2024-04-14T09:45:56Z</time>
      </trkpt>
      <trkpt lat="47.94723" lon="-0.50031">
        <ele>63.8</ele>
        <time>2024-04-14T09:45:57Z</time>
      </trkpt>
      <trkpt lat="47.94722" lon="-0.50023">
        <ele>63.8</ele>
        <time>2024-04-14T09:45:58Z</time>
      </trkpt>
      <trkpt lat="47.94722" lon="-0.50015">
        <ele>63.8</ele>
        <time>2024-04-14T09:45:59Z</time>
      </trkpt>
      <trkpt lat="47.94721" lon="-0.50005">
        <ele>63.8</ele>
        <time>2024-04-14T09:46:00Z</time>
      </trkpt>
      <trkpt lat="47.9472" lon="-0.49995">
        <ele>61.2</ele>
        <time>2024-04-14T09:46:01Z</time>
      </trkpt>
      <trkpt lat="47.94719" lon="-0.49984">
        <ele>61.2</ele>
        <time>2024-04-14T09:46:02Z</time>
      </trkpt>
      <trkpt lat="47.94719" lon="-0.49972">
        <ele>61.2</ele>
        <time>2024-04-14T09:46:03Z</time>
      </trkpt>
      <trkpt lat="47.94719" lon="-0.4996">
        <ele>61.2</ele>
        <time>2024-04-14T09:46:04Z</time>
      </trkpt>
      <trkpt lat="47.94719" lon="-0.49947">
        <ele>60.6</ele>
        <time>2024-04-14T09:46:05Z</time>
      </trkpt>
      <trkpt lat="47.94719" lon="-0.49934">
        <ele>60.6</ele>
        <time>2024-04-14T09:46:06Z</time>
      </trkpt>
      <trkpt lat="47.94718" lon="-0.49922">
        <ele>60.6</ele>
        <time>2024-04-14T09:46:07Z</time>
      </trkpt>
      <trkpt lat="47.94717" lon="-0.49909">
        <ele>59.6</ele>
        <time>2024-04-14T09:46:08Z</time>
      </trkpt>
      <trkpt lat="47.94715" lon="-0.49896">
        <ele>57.4</ele>
        <time>2024-04-14T09:46:09Z</time>
      </trkpt>
      <trkpt lat="47.94713" lon="-0.49883">
        <ele>57.4</ele>
        <time>2024-04-14T09:46:10Z</time>
      </trkpt>
      <trkpt lat="47.94712" lon="-0.49871">
        <ele>57.4</ele>
        <time>2024-04-14T09:46:11Z</time>
      </trkpt>
      <trkpt lat="47.9471" lon="-0.49859">
        <ele>57.4</ele>
        <time>2024-04-14T09:46:12Z</time>
      </trkpt>
      <trkpt lat="47.9471" lon="-0.49848">
        <ele>58.2</ele>
        <time>2024-04-14T09:46:13Z</time>
      </trkpt>
      <trkpt lat="47.94709" lon="-0.49837">
        <ele>58.2</ele>
        <time>2024-04-14T09:46:14Z</time>
      </trkpt>
      <trkpt lat="47.94707" lon="-0.49826">
        <ele>58.2</ele>
        <time>2024-04-14T09:46:15Z</time>
      </trkpt>
      <trkpt lat="47.94706" lon="-0.49815">
        <ele>58.6</ele>
        <time>2024-04-14T09:46:16Z</time>
      </trkpt>
      <trkpt lat="47.94704" lon="-0.49804">
        <ele>58.2</ele>
        <time>2024-04-14T09:46:17Z</time>
      </trkpt>
      <trkpt lat="47.94703" lon="-0.49794">
        <ele>58.2</ele>
        <time>2024-04-14T09:46:18Z</time>
      </trkpt>
      <trkpt lat="47.94701" lon="-0.49784">
        <ele>58.2</ele>
        <time>2024-04-14T09:46:19Z</time>
      </trkpt>
      <trkpt lat="47.94699" lon="-0.49774">
        <ele>57.2</ele>
        <time>2024-04-14T09:46:20Z</time>
      </trkpt>
      <trkpt lat="47.94697" lon="-0.49763">
        <ele>57</ele>
        <time>2024-04-14T09:46:21Z</time>
      </trkpt>
      <trkpt lat="47.94695" lon="-0.49753">
        <ele>57</ele>
        <time>2024-04-14T09:46:22Z</time>
      </trkpt>
      <trkpt lat="47.94693" lon="-0.49743">
        <ele>57</ele>
        <time>2024-04-14T09:46:23Z</time>
      </trkpt>
      <trkpt lat="47.94691" lon="-0.49733">
        <ele>57.8</ele>
        <time>2024-04-14T09:46:24Z</time>
      </trkpt>
      <trkpt lat="47.94689" lon="-0.49723">
        <ele>57.4</ele>
        <time>2024-04-14T09:46:25Z</time>
      </trkpt>
      <trkpt lat="47.94687" lon="-0.49713">
        <ele>57.4</ele>
        <time>2024-04-14T09:46:26Z</time>
      </trkpt>
      <trkpt lat="47.94686" lon="-0.49704">
        <ele>57.4</ele>
        <time>2024-04-14T09:46:27Z</time>
      </trkpt>
      <trkpt lat="47.94684" lon="-0.49694">
        <ele>58</ele>
        <time>2024-04-14T09:46:28Z</time>
      </trkpt>
      <trkpt lat="47.94682" lon="-0.49685">
        <ele>58.4</ele>
        <time>2024-04-14T09:46:29Z</time>
      </trkpt>
      <trkpt lat="47.9468" lon="-0.49676">
        <ele>58.4</ele>
        <time>2024-04-14T09:46:30Z</time>
      </trkpt>
      <trkpt lat="47.94678" lon="-0.49667">
        <ele>58.4</ele>
        <time>2024-04-14T09:46:31Z</time>
      </trkpt>
      <trkpt lat="47.94676" lon="-0.49658">
        <ele>58.4</ele>
        <time>2024-04-14T09:46:32Z</time>
      </trkpt>
      <trkpt lat="47.94674" lon="-0.49649">
        <ele>58.4</ele>
        <time>2024-04-14T09:46:33Z</time>
      </trkpt>
      <trkpt lat="47.94672" lon="-0.4964">
        <ele>58.4</ele>
        <time>2024-04-14T09:46:34Z</time>
      </trkpt>
      <trkpt lat="47.94671" lon="-0.49631">
        <ele>58.4</ele>
        <time>2024-04-14T09:46:35Z</time>
      </trkpt>
      <trkpt lat="47.9467" lon="-0.49621">
        <ele>58.4</ele>
        <time>2024-04-14T09:46:36Z</time>
      </trkpt>
      <trkpt lat="47.94669" lon="-0.49612">
        <ele>59.4</ele>
        <time>2024-04-14T09:46:37Z</time>
      </trkpt>
      <trkpt lat="47.94668" lon="-0.49603">
        <ele>59.4</ele>
        <time>2024-04-14T09:46:38Z</time>
      </trkpt>
      <trkpt lat="47.94668" lon="-0.49594">
        <ele>59.4</ele>
        <time>2024-04-14T09:46:39Z</time>
      </trkpt>
      <trkpt lat="47.94667" lon="-0.49584">
        <ele>60.2</ele>
        <time>2024-04-14T09:46:40Z</time>
      </trkpt>
      <trkpt lat="47.94667" lon="-0.49575">
        <ele>60</ele>
        <time>2024-04-14T09:46:41Z</time>
      </trkpt>
      <trkpt lat="47.94667" lon="-0.49566">
        <ele>60</ele>
        <time>2024-04-14T09:46:42Z</time>
      </trkpt>
      <trkpt lat="47.94668" lon="-0.49557">
        <ele>60</ele>
        <time>2024-04-14T09:46:43Z</time>
      </trkpt>
      <trkpt lat="47.94669" lon="-0.49548">
        <ele>60</ele>
        <time>2024-04-14T09:46:44Z</time>
      </trkpt>
      <trkpt lat="47.94671" lon="-0.49539">
        <ele>60.8</ele>
        <time>2024-04-14T09:46:45Z</time>
      </trkpt>
      <trkpt lat="47.94672" lon="-0.49531">
        <ele>60.8</ele>
        <time>2024-04-14T09:46:46Z</time>
      </trkpt>
      <trkpt lat="47.94674" lon="-0.49523">
        <ele>60.8</ele>
        <time>2024-04-14T09:46:47Z</time>
      </trkpt>
      <trkpt lat="47.94675" lon="-0.49514">
        <ele>60.8</ele>
        <time>2024-04-14T09:46:48Z</time>
      </trkpt>
      <trkpt lat="47.94677" lon="-0.49506">
        <ele>62.8</ele>
        <time>2024-04-14T09:46:49Z</time>
      </trkpt>
      <trkpt lat="47.94679" lon="-0.49497">
        <ele>62.8</ele>
        <time>2024-04-14T09:46:50Z</time>
      </trkpt>
      <trkpt lat="47.94681" lon="-0.49489">
        <ele>62.8</ele>
        <time>2024-04-14T09:46:51Z</time>
      </trkpt>
      <trkpt lat="47.94682" lon="-0.4948">
        <ele>61.8</ele>
        <time>2024-04-14T09:46:52Z</time>
      </trkpt>
      <trkpt lat="47.94684" lon="-0.49471">
        <ele>61.6</ele>
        <time>2024-04-14T09:46:53Z</time>
      </trkpt>
      <trkpt lat="47.94686" lon="-0.49461">
        <ele>61.6</ele>
        <time>2024-04-14T09:46:54Z</time>
      </trkpt>
      <trkpt lat="47.94688" lon="-0.49451">
        <ele>61.6</ele>
        <time>2024-04-14T09:46:55Z</time>
      </trkpt>
      <trkpt lat="47.9469" lon="-0.49442">
        <ele>60.6</ele>
        <time>2024-04-14T09:46:56Z</time>
      </trkpt>
      <trkpt lat="47.94692" lon="-0.49432">
        <ele>58</ele>
        <time>2024-04-14T09:46:57Z</time>
      </trkpt>
      <trkpt lat="47.94694" lon="-0.49421">
        <ele>58</ele>
        <time>2024-04-14T09:46:58Z</time>
      </trkpt>
      <trkpt lat="47.94696" lon="-0.49411">
        <ele>58</ele>
        <time>2024-04-14T09:46:59Z</time>
      </trkpt>
      <trkpt lat="47.94698" lon="-0.494">
        <ele>58</ele>
        <time>2024-04-14T09:47:00Z</time>
      </trkpt>
      <trkpt lat="47.947" lon="-0.49389">
        <ele>56.4</ele>
        <time>2024-04-14T09:47:01Z</time>
      </trkpt>
      <trkpt lat="47.94702" lon="-0.49379">
        <ele>56.4</ele>
        <time>2024-04-14T09:47:02Z</time>
      </trkpt>
      <trkpt lat="47.94705" lon="-0.49369">
        <ele>56.4</ele>
        <time>2024-04-14T09:47:03Z</time>
      </trkpt>
      <trkpt lat="47.94707" lon="-0.49358">
        <ele>56.4</ele>
        <time>2024-04-14T09:47:04Z</time>
      </trkpt>
      <trkpt lat="47.9471" lon="-0.49348">
        <ele>57.2</ele>
        <time>2024-04-14T09:47:05Z</time>
      </trkpt>
      <trkpt lat="47.94713" lon="-0.49337">
        <ele>57.2</ele>
        <time>2024-04-14T09:47:06Z</time>
      </trkpt>
      <trkpt lat="47.94715" lon="-0.49327">
        <ele>57.2</ele>
        <time>2024-04-14T09:47:07Z</time>
      </trkpt>
      <trkpt lat="47.94717" lon="-0.49317">
        <ele>57.2</ele>
        <time>2024-04-14T09:47:08Z</time>
      </trkpt>
      <trkpt lat="47.94719" lon="-0.49306">
        <ele>57.4</ele>
        <time>2024-04-14T09:47:09Z</time>
      </trkpt>
      <trkpt lat="47.9472" lon="-0.49296">
        <ele>57.4</ele>
        <time>2024-04-14T09:47:10Z</time>
      </trkpt>
      <trkpt lat="47.94721" lon="-0.49285">
        <ele>57.4</ele>
        <time>2024-04-14T09:47:11Z</time>
      </trkpt>
      <trkpt lat="47.94721" lon="-0.49274">
        <ele>56.4</ele>
        <time>2024-04-14T09:47:12Z</time>
      </trkpt>
      <trkpt lat="47.9472" lon="-0.49264">
        <ele>55.6</ele>
        <time>2024-04-14T09:47:13Z</time>
      </trkpt>
      <trkpt lat="47.94719" lon="-0.49254">
        <ele>55.6</ele>
        <time>2024-04-14T09:47:14Z</time>
      </trkpt>
      <trkpt lat="47.94718" lon="-0.49244">
        <ele>55.6</ele>
        <time>2024-04-14T09:47:15Z</time>
      </trkpt>
      <trkpt lat="47.94717" lon="-0.49234">
        <ele>55.6</ele>
        <time>2024-04-14T09:47:16Z</time>
      </trkpt>
      <trkpt lat="47.94715" lon="-0.49225">
        <ele>56.6</ele>
        <time>2024-04-14T09:47:17Z</time>
      </trkpt>
      <trkpt lat="47.94714" lon="-0.49214">
        <ele>56.6</ele>
        <time>2024-04-14T09:47:18Z</time>
      </trkpt>
      <trkpt lat="47.94713" lon="-0.49205">
        <ele>56.6</ele>
        <time>2024-04-14T09:47:19Z</time>
      </trkpt>
      <trkpt lat="47.94712" lon="-0.49195">
        <ele>55.6</ele>
        <time>2024-04-14T09:47:20Z</time>
      </trkpt>
      <trkpt lat="47.94711" lon="-0.49186">
        <ele>55.6</ele>
        <time>2024-04-14T09:47:21Z</time>
      </trkpt>
      <trkpt lat="47.9471" lon="-0.49177">
        <ele>55.6</ele>
        <time>2024-04-14T09:47:22Z</time>
      </trkpt>
      <trkpt lat="47.94708" lon="-0.49168">
        <ele>55.6</ele>
        <time>2024-04-14T09:47:23Z</time>
      </trkpt>
      <trkpt lat="47.94707" lon="-0.49158">
        <ele>55.6</ele>
        <time>2024-04-14T09:47:24Z</time>
      </trkpt>
      <trkpt lat="47.94705" lon="-0.49149">
        <ele>55.8</ele>
        <time>2024-04-14T09:47:25Z</time>
      </trkpt>
      <trkpt lat="47.94703" lon="-0.4914">
        <ele>55.8</ele>
        <time>2024-04-14T09:47:26Z</time>
      </trkpt>
      <trkpt lat="47.94702" lon="-0.49131">
        <ele>55.8</ele>
        <time>2024-04-14T09:47:27Z</time>
      </trkpt>
      <trkpt lat="47.947" lon="-0.49122">
        <ele>55.8</ele>
        <time>2024-04-14T09:47:28Z</time>
      </trkpt>
      <trkpt lat="47.947" lon="-0.49113">
        <ele>56.6</ele>
        <time>2024-04-14T09:47:29Z</time>
      </trkpt>
      <trkpt lat="47.94699" lon="-0.49104">
        <ele>56.6</ele>
        <time>2024-04-14T09:47:30Z</time>
      </trkpt>
      <trkpt lat="47.947" lon="-0.49097">
        <ele>56.6</ele>
        <time>2024-04-14T09:47:31Z</time>
      </trkpt>
      <trkpt lat="47.94702" lon="-0.49091">
        <ele>56.4</ele>
        <time>2024-04-14T09:47:32Z</time>
      </trkpt>
      <trkpt lat="47.94704" lon="-0.49086">
        <ele>56.6</ele>
        <time>2024-04-14T09:47:33Z</time>
      </trkpt>
      <trkpt lat="47.94707" lon="-0.49082">
        <ele>56.6</ele>
        <time>2024-04-14T09:47:34Z</time>
      </trkpt>
      <trkpt lat="47.94711" lon="-0.49078">
        <ele>56.6</ele>
        <time>2024-04-14T09:47:35Z</time>
      </trkpt>
      <trkpt lat="47.94716" lon="-0.49076">
        <ele>57.2</ele>
        <time>2024-04-14T09:47:36Z</time>
      </trkpt>
      <trkpt lat="47.9472" lon="-0.49074">
        <ele>56.4</ele>
        <time>2024-04-14T09:47:37Z</time>
      </trkpt>
      <trkpt lat="47.94725" lon="-0.49072">
        <ele>56.4</ele>
        <time>2024-04-14T09:47:38Z</time>
      </trkpt>
      <trkpt lat="47.94731" lon="-0.49071">
        <ele>56.4</ele>
        <time>2024-04-14T09:47:39Z</time>
      </trkpt>
      <trkpt lat="47.94737" lon="-0.49069">
        <ele>56.4</ele>
        <time>2024-04-14T09:47:40Z</time>
      </trkpt>
      <trkpt lat="47.94743" lon="-0.49066">
        <ele>55.6</ele>
        <time>2024-04-14T09:47:41Z</time>
      </trkpt>
      <trkpt lat="47.94749" lon="-0.49064">
        <ele>55.6</ele>
        <time>2024-04-14T09:47:42Z</time>
      </trkpt>
      <trkpt lat="47.94755" lon="-0.49064">
        <ele>55.6</ele>
        <time>2024-04-14T09:47:43Z</time>
      </trkpt>
      <trkpt lat="47.94761" lon="-0.49065">
        <ele>55.6</ele>
        <time>2024-04-14T09:47:44Z</time>
      </trkpt>
      <trkpt lat="47.94766" lon="-0.49068">
        <ele>58</ele>
        <time>2024-04-14T09:47:45Z</time>
      </trkpt>
      <trkpt lat="47.94771" lon="-0.49071">
        <ele>58</ele>
        <time>2024-04-14T09:47:46Z</time>
      </trkpt>
      <trkpt lat="47.94776" lon="-0.49075">
        <ele>58</ele>
        <time>2024-04-14T09:47:47Z</time>
      </trkpt>
      <trkpt lat="47.9478" lon="-0.4908">
        <ele>58</ele>
        <time>2024-04-14T09:47:48Z</time>
      </trkpt>
      <trkpt lat="47.94785" lon="-0.49084">
        <ele>59.4</ele>
        <time>2024-04-14T09:47:49Z</time>
      </trkpt>
      <trkpt lat="47.94788" lon="-0.49089">
        <ele>59.4</ele>
        <time>2024-04-14T09:47:50Z</time>
      </trkpt>
      <trkpt lat="47.94791" lon="-0.49094">
        <ele>59.4</ele>
        <time>2024-04-14T09:47:51Z</time>
      </trkpt>
      <trkpt lat="47.94795" lon="-0.49099">
        <ele>60.4</ele>
        <time>2024-04-14T09:47:52Z</time>
      </trkpt>
      <trkpt lat="47.94798" lon="-0.49104">
        <ele>61.4</ele>
        <time>2024-04-14T09:47:53Z</time>
      </trkpt>
      <trkpt lat="47.948" lon="-0.49109">
        <ele>61.4</ele>
        <time>2024-04-14T09:47:54Z</time>
      </trkpt>
      <trkpt lat="47.94803" lon="-0.49113">
        <ele>61.4</ele>
        <time>2024-04-14T09:47:55Z</time>
      </trkpt>
      <trkpt lat="47.94806" lon="-0.49117">
        <ele>62.4</ele>
        <time>2024-04-14T09:47:56Z</time>
      </trkpt>
      <trkpt lat="47.94809" lon="-0.49122">
        <ele>62.6</ele>
        <time>2024-04-14T09:47:57Z</time>
      </trkpt>
      <trkpt lat="47.94813" lon="-0.49126">
        <ele>62.6</ele>
        <time>2024-04-14T09:47:58Z</time>
      </trkpt>
      <trkpt lat="47.94816" lon="-0.49129">
        <ele>62.6</ele>
        <time>2024-04-14T09:47:59Z</time>
      </trkpt>
      <trkpt lat="47.94818" lon="-0.49133">
        <ele>63</ele>
        <time>2024-04-14T09:48:00Z</time>
      </trkpt>
      <trkpt lat="47.94821" lon="-0.49137">
        <ele>63.4</ele>
        <time>2024-04-14T09:48:01Z</time>
      </trkpt>
      <trkpt lat="47.94824" lon="-0.49141">
        <ele>63.4</ele>
        <time>2024-04-14T09:48:02Z</time>
      </trkpt>
      <trkpt lat="47.94826" lon="-0.49146">
        <ele>63.4</ele>
        <time>2024-04-14T09:48:03Z</time>
      </trkpt>
      <trkpt lat="47.94829" lon="-0.49149">
        <ele>63.4</ele>
        <time>2024-04-14T09:48:04Z</time>
      </trkpt>
      <trkpt lat="47.94832" lon="-0.49154">
        <ele>63.6</ele>
        <time>2024-04-14T09:48:05Z</time>
      </trkpt>
      <trkpt lat="47.94834" lon="-0.49158">
        <ele>63.6</ele>
        <time>2024-04-14T09:48:06Z</time>
      </trkpt>
      <trkpt lat="47.94837" lon="-0.49162">
        <ele>63.6</ele>
        <time>2024-04-14T09:48:07Z</time>
      </trkpt>
      <trkpt lat="47.9484" lon="-0.49166">
        <ele>64.6</ele>
        <time>2024-04-14T09:48:08Z</time>
      </trkpt>
      <trkpt lat="47.94843" lon="-0.4917">
        <ele>65</ele>
        <time>2024-04-14T09:48:09Z</time>
      </trkpt>
      <trkpt lat="47.94846" lon="-0.49174">
        <ele>65</ele>
        <time>2024-04-14T09:48:10Z</time>
      </trkpt>
      <trkpt lat="47.94849" lon="-0.49179">
        <ele>65</ele>
        <time>2024-04-14T09:48:11Z</time>
      </trkpt>
      <trkpt lat="47.94852" lon="-0.49183">
        <ele>65</ele>
        <time>2024-04-14T09:48:12Z</time>
      </trkpt>
      <trkpt lat="47.94856" lon="-0.49187">
        <ele>65.2</ele>
        <time>2024-04-14T09:48:13Z</time>
      </trkpt>
      <trkpt lat="47.94859" lon="-0.49191">
        <ele>65.2</ele>
        <time>2024-04-14T09:48:14Z</time>
      </trkpt>
      <trkpt lat="47.94862" lon="-0.49195">
        <ele>65.2</ele>
        <time>2024-04-14T09:48:15Z</time>
      </trkpt>
      <trkpt lat="47.94865" lon="-0.49199">
        <ele>66</ele>
        <time>2024-04-14T09:48:16Z</time>
      </trkpt>
      <trkpt lat="47.94868" lon="-0.49203">
        <ele>66.2</ele>
        <time>2024-04-14T09:48:17Z</time>
      </trkpt>
      <trkpt lat="47.94871" lon="-0.49207">
        <ele>66.2</ele>
        <time>2024-04-14T09:48:18Z</time>
      </trkpt>
      <trkpt lat="47.94874" lon="-0.49211">
        <ele>66.2</ele>
        <time>2024-04-14T09:48:19Z</time>
      </trkpt>
      <trkpt lat="47.94877" lon="-0.49216">
        <ele>66</ele>
        <time>2024-04-14T09:48:20Z</time>
      </trkpt>
      <trkpt lat="47.9488" lon="-0.4922">
        <ele>66.8</ele>
        <time>2024-04-14T09:48:21Z</time>
      </trkpt>
      <trkpt lat="47.94883" lon="-0.49224">
        <ele>66.8</ele>
        <time>2024-04-14T09:48:22Z</time>
      </trkpt>
      <trkpt lat="47.94886" lon="-0.49228">
        <ele>66.8</ele>
        <time>2024-04-14T09:48:23Z</time>
      </trkpt>
      <trkpt lat="47.94889" lon="-0.49233">
        <ele>66.8</ele>
        <time>2024-04-14T09:48:24Z</time>
      </trkpt>
      <trkpt lat="47.94891" lon="-0.49237">
        <ele>67.6</ele>
        <time>2024-04-14T09:48:25Z</time>
      </trkpt>
      <trkpt lat="47.94894" lon="-0.49242">
        <ele>67.6</ele>
        <time>2024-04-14T09:48:26Z</time>
      </trkpt>
      <trkpt lat="47.94896" lon="-0.49247">
        <ele>67.6</ele>
        <time>2024-04-14T09:48:27Z</time>
      </trkpt>
      <trkpt lat="47.94899" lon="-0.49251">
        <ele>67.6</ele>
        <time>2024-04-14T09:48:28Z</time>
      </trkpt>
      <trkpt lat="47.94901" lon="-0.49255">
        <ele>67.8</ele>
        <time>2024-04-14T09:48:29Z</time>
      </trkpt>
      <trkpt lat="47.94904" lon="-0.4926">
        <ele>67.8</ele>
        <time>2024-04-14T09:48:30Z</time>
      </trkpt>
      <trkpt lat="47.94906" lon="-0.49265">
        <ele>67.8</ele>
        <time>2024-04-14T09:48:31Z</time>
      </trkpt>
      <trkpt lat="47.94908" lon="-0.4927">
        <ele>68.8</ele>
        <time>2024-04-14T09:48:32Z</time>
      </trkpt>
      <trkpt lat="47.94911" lon="-0.49274">
        <ele>69.2</ele>
        <time>2024-04-14T09:48:33Z</time>
      </trkpt>
      <trkpt lat="47.94913" lon="-0.49279">
        <ele>69.2</ele>
        <time>2024-04-14T09:48:34Z</time>
      </trkpt>
      <trkpt lat="47.94915" lon="-0.49284">
        <ele>69.2</ele>
        <time>2024-04-14T09:48:35Z</time>
      </trkpt>
      <trkpt lat="47.94918" lon="-0.49289">
        <ele>70.2</ele>
        <time>2024-04-14T09:48:36Z</time>
      </trkpt>
      <trkpt lat="47.9492" lon="-0.49294">
        <ele>69.8</ele>
        <time>2024-04-14T09:48:37Z</time>
      </trkpt>
      <trkpt lat="47.94922" lon="-0.49299">
        <ele>69.8</ele>
        <time>2024-04-14T09:48:38Z</time>
      </trkpt>
      <trkpt lat="47.94924" lon="-0.49303">
        <ele>69.8</ele>
        <time>2024-04-14T09:48:39Z</time>
      </trkpt>
      <trkpt lat="47.94926" lon="-0.49308">
        <ele>69.8</ele>
        <time>2024-04-14T09:48:40Z</time>
      </trkpt>
      <trkpt lat="47.94929" lon="-0.49313">
        <ele>70.2</ele>
        <time>2024-04-14T09:48:41Z</time>
      </trkpt>
      <trkpt lat="47.94931" lon="-0.49318">
        <ele>70.2</ele>
        <time>2024-04-14T09:48:42Z</time>
      </trkpt>
      <trkpt lat="47.94933" lon="-0.49323">
        <ele>70.2</ele>
        <time>2024-04-14T09:48:43Z</time>
      </trkpt>
      <trkpt lat="47.94935" lon="-0.49327">
        <ele>70.2</ele>
        <time>2024-04-14T09:48:44Z</time>
      </trkpt>
      <trkpt lat="47.94938" lon="-0.49331">
        <ele>70.8</ele>
        <time>2024-04-14T09:48:45Z</time>
      </trkpt>
      <trkpt lat="47.9494" lon="-0.49335">
        <ele>70.8</ele>
        <time>2024-04-14T09:48:46Z</time>
      </trkpt>
      <trkpt lat="47.94943" lon="-0.4934">
        <ele>70.8</ele>
        <time>2024-04-14T09:48:47Z</time>
      </trkpt>
      <trkpt lat="47.94945" lon="-0.49344">
        <ele>70.8</ele>
        <time>2024-04-14T09:48:48Z</time>
      </trkpt>
      <trkpt lat="47.94947" lon="-0.49349">
        <ele>70.6</ele>
        <time>2024-04-14T09:48:49Z</time>
      </trkpt>
      <trkpt lat="47.94949" lon="-0.49354">
        <ele>70.6</ele>
        <time>2024-04-14T09:48:50Z</time>
      </trkpt>
      <trkpt lat="47.94952" lon="-0.49358">
        <ele>70.6</ele>
        <time>2024-04-14T09:48:51Z</time>
      </trkpt>
      <trkpt lat="47.94955" lon="-0.49363">
        <ele>70.2</ele>
        <time>2024-04-14T09:48:52Z</time>
      </trkpt>
      <trkpt lat="47.94957" lon="-0.49368">
        <ele>69.6</ele>
        <time>2024-04-14T09:48:53Z</time>
      </trkpt>
      <trkpt lat="47.9496" lon="-0.49373">
        <ele>69.6</ele>
        <time>2024-04-14T09:48:54Z</time>
      </trkpt>
      <trkpt lat="47.94963" lon="-0.49379">
        <ele>69.6</ele>
        <time>2024-04-14T09:48:55Z</time>
      </trkpt>
      <trkpt lat="47.94967" lon="-0.49384">
        <ele>68.6</ele>
        <time>2024-04-14T09:48:56Z</time>
      </trkpt>
      <trkpt lat="47.94971" lon="-0.49391">
        <ele>67.4</ele>
        <time>2024-04-14T09:48:57Z</time>
      </trkpt>
      <trkpt lat="47.94975" lon="-0.49397">
        <ele>67.4</ele>
        <time>2024-04-14T09:48:58Z</time>
      </trkpt>
      <trkpt lat="47.94979" lon="-0.49403">
        <ele>67.4</ele>
        <time>2024-04-14T09:48:59Z</time>
      </trkpt>
      <trkpt lat="47.94984" lon="-0.4941">
        <ele>67.4</ele>
        <time>2024-04-14T09:49:00Z</time>
      </trkpt>
      <trkpt lat="47.94989" lon="-0.49415">
        <ele>66.8</ele>
        <time>2024-04-14T09:49:01Z</time>
      </trkpt>
      <trkpt lat="47.94994" lon="-0.49421">
        <ele>66.8</ele>
        <time>2024-04-14T09:49:02Z</time>
      </trkpt>
      <trkpt lat="47.95" lon="-0.49426">
        <ele>66.8</ele>
        <time>2024-04-14T09:49:03Z</time>
      </trkpt>
      <trkpt lat="47.95005" lon="-0.49431">
        <ele>65.8</ele>
        <time>2024-04-14T09:49:04Z</time>
      </trkpt>
      <trkpt lat="47.95011" lon="-0.49435">
        <ele>64.4</ele>
        <time>2024-04-14T09:49:05Z</time>
      </trkpt>
      <trkpt lat="47.95017" lon="-0.49439">
        <ele>64.4</ele>
        <time>2024-04-14T09:49:06Z</time>
      </trkpt>
      <trkpt lat="47.95023" lon="-0.49443">
        <ele>64.4</ele>
        <time>2024-04-14T09:49:07Z</time>
      </trkpt>
      <trkpt lat="47.95029" lon="-0.49446">
        <ele>64</ele>
        <time>2024-04-14T09:49:08Z</time>
      </trkpt>
      <trkpt lat="47.95035" lon="-0.49449">
        <ele>64</ele>
        <time>2024-04-14T09:49:09Z</time>
      </trkpt>
      <trkpt lat="47.95042" lon="-0.49452">
        <ele>64</ele>
        <time>2024-04-14T09:49:10Z</time>
      </trkpt>
      <trkpt lat="47.95049" lon="-0.49454">
        <ele>64</ele>
        <time>2024-04-14T09:49:11Z</time>
      </trkpt>
      <trkpt lat="47.95055" lon="-0.49456">
        <ele>63</ele>
        <time>2024-04-14T09:49:12Z</time>
      </trkpt>
      <trkpt lat="47.95062" lon="-0.49457">
        <ele>62.8</ele>
        <time>2024-04-14T09:49:13Z</time>
      </trkpt>
      <trkpt lat="47.95069" lon="-0.49459">
        <ele>62.8</ele>
        <time>2024-04-14T09:49:14Z</time>
      </trkpt>
      <trkpt lat="47.95077" lon="-0.4946">
        <ele>62.8</ele>
        <time>2024-04-14T09:49:15Z</time>
      </trkpt>
      <trkpt lat="47.95084" lon="-0.49461">
        <ele>61.8</ele>
        <time>2024-04-14T09:49:16Z</time>
      </trkpt>
      <trkpt lat="47.95091" lon="-0.49462">
        <ele>60.8</ele>
        <time>2024-04-14T09:49:17Z</time>
      </trkpt>
      <trkpt lat="47.95098" lon="-0.49463">
        <ele>60.8</ele>
        <time>2024-04-14T09:49:18Z</time>
      </trkpt>
      <trkpt lat="47.95105" lon="-0.49465">
        <ele>60.8</ele>
        <time>2024-04-14T09:49:19Z</time>
      </trkpt>
      <trkpt lat="47.95112" lon="-0.49466">
        <ele>61.2</ele>
        <time>2024-04-14T09:49:20Z</time>
      </trkpt>
      <trkpt lat="47.95119" lon="-0.49468">
        <ele>61</ele>
        <time>2024-04-14T09:49:21Z</time>
      </trkpt>
      <trkpt lat="47.95126" lon="-0.49471">
        <ele>61</ele>
        <time>2024-04-14T09:49:22Z</time>
      </trkpt>
      <trkpt lat="47.95133" lon="-0.49473">
        <ele>61</ele>
        <time>2024-04-14T09:49:23Z</time>
      </trkpt>
      <trkpt lat="47.9514" lon="-0.49476">
        <ele>60.6</ele>
        <time>2024-04-14T09:49:24Z</time>
      </trkpt>
      <trkpt lat="47.95147" lon="-0.49478">
        <ele>60.2</ele>
        <time>2024-04-14T09:49:25Z</time>
      </trkpt>
      <trkpt lat="47.95154" lon="-0.49481">
        <ele>60.2</ele>
        <time>2024-04-14T09:49:26Z</time>
      </trkpt>
      <trkpt lat="47.95161" lon="-0.49484">
        <ele>60.2</ele>
        <time>2024-04-14T09:49:27Z</time>
      </trkpt>
      <trkpt lat="47.95167" lon="-0.49487">
        <ele>59.4</ele>
        <time>2024-04-14T09:49:28Z</time>
      </trkpt>
      <trkpt lat="47.95174" lon="-0.49489">
        <ele>60.6</ele>
        <time>2024-04-14T09:49:29Z</time>
      </trkpt>
      <trkpt lat="47.95181" lon="-0.49492">
        <ele>60.6</ele>
        <time>2024-04-14T09:49:30Z</time>
      </trkpt>
      <trkpt lat="47.95188" lon="-0.49494">
        <ele>60.6</ele>
        <time>2024-04-14T09:49:31Z</time>
      </trkpt>
      <trkpt lat="47.95194" lon="-0.49496">
        <ele>60.2</ele>
        <time>2024-04-14T09:49:32Z</time>
      </trkpt>
      <trkpt lat="47.95201" lon="-0.49498">
        <ele>60</ele>
        <time>2024-04-14T09:49:33Z</time>
      </trkpt>
      <trkpt lat="47.95207" lon="-0.495">
        <ele>60</ele>
        <time>2024-04-14T09:49:34Z</time>
      </trkpt>
      <trkpt lat="47.95214" lon="-0.49502">
        <ele>60</ele>
        <time>2024-04-14T09:49:35Z</time>
      </trkpt>
      <trkpt lat="47.9522" lon="-0.49504">
        <ele>60</ele>
        <time>2024-04-14T09:49:36Z</time>
      </trkpt>
      <trkpt lat="47.95226" lon="-0.49506">
        <ele>60.4</ele>
        <time>2024-04-14T09:49:37Z</time>
      </trkpt>
      <trkpt lat="47.95232" lon="-0.49507">
        <ele>60.4</ele>
        <time>2024-04-14T09:49:38Z</time>
      </trkpt>
      <trkpt lat="47.95239" lon="-0.49509">
        <ele>60.4</ele>
        <time>2024-04-14T09:49:39Z</time>
      </trkpt>
      <trkpt lat="47.95245" lon="-0.49511">
        <ele>59.4</ele>
        <time>2024-04-14T09:49:40Z</time>
      </trkpt>
      <trkpt lat="47.95252" lon="-0.49513">
        <ele>60</ele>
        <time>2024-04-14T09:49:41Z</time>
      </trkpt>
      <trkpt lat="47.95258" lon="-0.49515">
        <ele>60</ele>
        <time>2024-04-14T09:49:42Z</time>
      </trkpt>
      <trkpt lat="47.95265" lon="-0.49518">
        <ele>60</ele>
        <time>2024-04-14T09:49:43Z</time>
      </trkpt>
      <trkpt lat="47.95271" lon="-0.4952">
        <ele>59.6</ele>
        <time>2024-04-14T09:49:44Z</time>
      </trkpt>
      <trkpt lat="47.95278" lon="-0.49521">
        <ele>59</ele>
        <time>2024-04-14T09:49:45Z</time>
      </trkpt>
      <trkpt lat="47.95285" lon="-0.49523">
        <ele>59</ele>
        <time>2024-04-14T09:49:46Z</time>
      </trkpt>
      <trkpt lat="47.95291" lon="-0.49525">
        <ele>59</ele>
        <time>2024-04-14T09:49:47Z</time>
      </trkpt>
      <trkpt lat="47.95298" lon="-0.49527">
        <ele>58.8</ele>
        <time>2024-04-14T09:49:48Z</time>
      </trkpt>
      <trkpt lat="47.95305" lon="-0.49528">
        <ele>58.8</ele>
        <time>2024-04-14T09:49:49Z</time>
      </trkpt>
      <trkpt lat="47.95312" lon="-0.49529">
        <ele>58.8</ele>
        <time>2024-04-14T09:49:50Z</time>
      </trkpt>
      <trkpt lat="47.95319" lon="-0.4953">
        <ele>58.8</ele>
        <time>2024-04-14T09:49:51Z</time>
      </trkpt>
      <trkpt lat="47.95325" lon="-0.4953">
        <ele>58</ele>
        <time>2024-04-14T09:49:52Z</time>
      </trkpt>
      <trkpt lat="47.95332" lon="-0.4953">
        <ele>57.8</ele>
        <time>2024-04-14T09:49:53Z</time>
      </trkpt>
      <trkpt lat="47.95339" lon="-0.49529">
        <ele>57.8</ele>
        <time>2024-04-14T09:49:54Z</time>
      </trkpt>
      <trkpt lat="47.95346" lon="-0.49529">
        <ele>57.8</ele>
        <time>2024-04-14T09:49:55Z</time>
      </trkpt>
      <trkpt lat="47.95352" lon="-0.49527">
        <ele>56.8</ele>
        <time>2024-04-14T09:49:56Z</time>
      </trkpt>
      <trkpt lat="47.95358" lon="-0.49525">
        <ele>56.8</ele>
        <time>2024-04-14T09:49:57Z</time>
      </trkpt>
      <trkpt lat="47.95365" lon="-0.49522">
        <ele>56.8</ele>
        <time>2024-04-14T09:49:58Z</time>
      </trkpt>
      <trkpt lat="47.95371" lon="-0.49519">
        <ele>56.8</ele>
        <time>2024-04-14T09:49:59Z</time>
      </trkpt>
      <trkpt lat="47.95377" lon="-0.49516">
        <ele>56.8</ele>
        <time>2024-04-14T09:50:00Z</time>
      </trkpt>
      <trkpt lat="47.95384" lon="-0.49514">
        <ele>54.4</ele>
        <time>2024-04-14T09:50:01Z</time>
      </trkpt>
      <trkpt lat="47.9539" lon="-0.49511">
        <ele>54.4</ele>
        <time>2024-04-14T09:50:02Z</time>
      </trkpt>
      <trkpt lat="47.95396" lon="-0.49509">
        <ele>54.4</ele>
        <time>2024-04-14T09:50:03Z</time>
      </trkpt>
      <trkpt lat="47.95403" lon="-0.49507">
        <ele>55.4</ele>
        <time>2024-04-14T09:50:04Z</time>
      </trkpt>
      <trkpt lat="47.95409" lon="-0.49506">
        <ele>55.6</ele>
        <time>2024-04-14T09:50:05Z</time>
      </trkpt>
      <trkpt lat="47.95416" lon="-0.49508">
        <ele>55.6</ele>
        <time>2024-04-14T09:50:06Z</time>
      </trkpt>
      <trkpt lat="47.95423" lon="-0.4951">
        <ele>55.6</ele>
        <time>2024-04-14T09:50:07Z</time>
      </trkpt>
      <trkpt lat="47.9543" lon="-0.49513">
        <ele>54.8</ele>
        <time>2024-04-14T09:50:08Z</time>
      </trkpt>
      <trkpt lat="47.95436" lon="-0.49517">
        <ele>54.6</ele>
        <time>2024-04-14T09:50:09Z</time>
      </trkpt>
      <trkpt lat="47.95443" lon="-0.49522">
        <ele>54.6</ele>
        <time>2024-04-14T09:50:10Z</time>
      </trkpt>
      <trkpt lat="47.95449" lon="-0.49528">
        <ele>54.6</ele>
        <time>2024-04-14T09:50:11Z</time>
      </trkpt>
      <trkpt lat="47.95455" lon="-0.49533">
        <ele>54.6</ele>
        <time>2024-04-14T09:50:12Z</time>
      </trkpt>
      <trkpt lat="47.9546" lon="-0.49539">
        <ele>54.6</ele>
        <time>2024-04-14T09:50:13Z</time>
      </trkpt>
      <trkpt lat="47.95465" lon="-0.49546">
        <ele>54.6</ele>
        <time>2024-04-14T09:50:14Z</time>
      </trkpt>
      <trkpt lat="47.95471" lon="-0.49552">
        <ele>54.6</ele>
        <time>2024-04-14T09:50:15Z</time>
      </trkpt>
      <trkpt lat="47.95476" lon="-0.49559">
        <ele>55.6</ele>
        <time>2024-04-14T09:50:16Z</time>
      </trkpt>
      <trkpt lat="47.95481" lon="-0.49565">
        <ele>56</ele>
        <time>2024-04-14T09:50:17Z</time>
      </trkpt>
      <trkpt lat="47.95485" lon="-0.49572">
        <ele>56</ele>
        <time>2024-04-14T09:50:18Z</time>
      </trkpt>
      <trkpt lat="47.9549" lon="-0.49579">
        <ele>56</ele>
        <time>2024-04-14T09:50:19Z</time>
      </trkpt>
      <trkpt lat="47.95494" lon="-0.49585">
        <ele>55.6</ele>
        <time>2024-04-14T09:50:20Z</time>
      </trkpt>
      <trkpt lat="47.95499" lon="-0.49592">
        <ele>55.6</ele>
        <time>2024-04-14T09:50:21Z</time>
      </trkpt>
      <trkpt lat="47.95504" lon="-0.49598">
        <ele>55.6</ele>
        <time>2024-04-14T09:50:22Z</time>
      </trkpt>
      <trkpt lat="47.95509" lon="-0.49604">
        <ele>55.6</ele>
        <time>2024-04-14T09:50:23Z</time>
      </trkpt>
      <trkpt lat="47.95514" lon="-0.49609">
        <ele>55.6</ele>
        <time>2024-04-14T09:50:24Z</time>
      </trkpt>
      <trkpt lat="47.95518" lon="-0.49614">
        <ele>56</ele>
        <time>2024-04-14T09:50:25Z</time>
      </trkpt>
      <trkpt lat="47.95523" lon="-0.49619">
        <ele>56</ele>
        <time>2024-04-14T09:50:26Z</time>
      </trkpt>
      <trkpt lat="47.95528" lon="-0.49624">
        <ele>56</ele>
        <time>2024-04-14T09:50:27Z</time>
      </trkpt>
      <trkpt lat="47.95534" lon="-0.49628">
        <ele>56</ele>
        <time>2024-04-14T09:50:28Z</time>
      </trkpt>
      <trkpt lat="47.95539" lon="-0.49632">
        <ele>56.2</ele>
        <time>2024-04-14T09:50:29Z</time>
      </trkpt>
      <trkpt lat="47.95543" lon="-0.49635">
        <ele>56.2</ele>
        <time>2024-04-14T09:50:30Z</time>
      </trkpt>
      <trkpt lat="47.95548" lon="-0.49638">
        <ele>56.2</ele>
        <time>2024-04-14T09:50:31Z</time>
      </trkpt>
      <trkpt lat="47.95553" lon="-0.49641">
        <ele>56.2</ele>
        <time>2024-04-14T09:50:32Z</time>
      </trkpt>
      <trkpt lat="47.95559" lon="-0.49644">
        <ele>56.4</ele>
        <time>2024-04-14T09:50:33Z</time>
      </trkpt>
      <trkpt lat="47.95564" lon="-0.49646">
        <ele>56.4</ele>
        <time>2024-04-14T09:50:34Z</time>
      </trkpt>
      <trkpt lat="47.95569" lon="-0.49648">
        <ele>56.4</ele>
        <time>2024-04-14T09:50:35Z</time>
      </trkpt>
      <trkpt lat="47.95575" lon="-0.4965">
        <ele>56.4</ele>
        <time>2024-04-14T09:50:36Z</time>
      </trkpt>
      <trkpt lat="47.9558" lon="-0.49652">
        <ele>57</ele>
        <time>2024-04-14T09:50:37Z</time>
      </trkpt>
      <trkpt lat="47.95585" lon="-0.49654">
        <ele>57</ele>
        <time>2024-04-14T09:50:38Z</time>
      </trkpt>
      <trkpt lat="47.9559" lon="-0.49656">
        <ele>57</ele>
        <time>2024-04-14T09:50:39Z</time>
      </trkpt>
      <trkpt lat="47.95595" lon="-0.49658">
        <ele>57</ele>
        <time>2024-04-14T09:50:40Z</time>
      </trkpt>
      <trkpt lat="47.956" lon="-0.49659">
        <ele>57</ele>
        <time>2024-04-14T09:50:41Z</time>
      </trkpt>
      <trkpt lat="47.95605" lon="-0.49661">
        <ele>57</ele>
        <time>2024-04-14T09:50:42Z</time>
      </trkpt>
      <trkpt lat="47.9561" lon="-0.49663">
        <ele>57</ele>
        <time>2024-04-14T09:50:43Z</time>
      </trkpt>
      <trkpt lat="47.95615" lon="-0.49665">
        <ele>57</ele>
        <time>2024-04-14T09:50:44Z</time>
      </trkpt>
      <trkpt lat="47.9562" lon="-0.49667">
        <ele>56.6</ele>
        <time>2024-04-14T09:50:45Z</time>
      </trkpt>
      <trkpt lat="47.95625" lon="-0.49669">
        <ele>56.6</ele>
        <time>2024-04-14T09:50:46Z</time>
      </trkpt>
      <trkpt lat="47.9563" lon="-0.49673">
        <ele>56.6</ele>
        <time>2024-04-14T09:50:47Z</time>
      </trkpt>
      <trkpt lat="47.95635" lon="-0.49677">
        <ele>57.2</ele>
        <time>2024-04-14T09:50:48Z</time>
      </trkpt>
      <trkpt lat="47.95639" lon="-0.49681">
        <ele>57.2</ele>
        <time>2024-04-14T09:50:49Z</time>
      </trkpt>
      <trkpt lat="47.95643" lon="-0.49685">
        <ele>57.2</ele>
        <time>2024-04-14T09:50:50Z</time>
      </trkpt>
      <trkpt lat="47.95646" lon="-0.49689">
        <ele>57.2</ele>
        <time>2024-04-14T09:50:51Z</time>
      </trkpt>
      <trkpt lat="47.95649" lon="-0.49694">
        <ele>57.2</ele>
        <time>2024-04-14T09:50:52Z</time>
      </trkpt>
      <trkpt lat="47.95652" lon="-0.49699">
        <ele>57.4</ele>
        <time>2024-04-14T09:50:53Z</time>
      </trkpt>
      <trkpt lat="47.95655" lon="-0.49703">
        <ele>57.4</ele>
        <time>2024-04-14T09:50:54Z</time>
      </trkpt>
      <trkpt lat="47.95658" lon="-0.49707">
        <ele>57.4</ele>
        <time>2024-04-14T09:50:55Z</time>
      </trkpt>
      <trkpt lat="47.95661" lon="-0.49709">
        <ele>58.4</ele>
        <time>2024-04-14T09:50:56Z</time>
      </trkpt>
      <trkpt lat="47.95663" lon="-0.49711">
        <ele>59.4</ele>
        <time>2024-04-14T09:50:57Z</time>
      </trkpt>
      <trkpt lat="47.95665" lon="-0.49712">
        <ele>59.4</ele>
        <time>2024-04-14T09:50:58Z</time>
      </trkpt>
      <trkpt lat="47.95666" lon="-0.49712">
        <ele>59.4</ele>
        <time>2024-04-14T09:50:59Z</time>
      </trkpt>
      <trkpt lat="47.95667" lon="-0.49712">
        <ele>60.4</ele>
        <time>2024-04-14T09:51:00Z</time>
      </trkpt>
      <trkpt lat="47.95667" lon="-0.49712">
        <ele>61.2</ele>
        <time>2024-04-14T09:51:01Z</time>
      </trkpt>
      <trkpt lat="47.95675" lon="-0.49708">
        <ele>60.4</ele>
        <time>2024-04-14T09:51:07Z</time>
      </trkpt>
      <trkpt lat="47.95679" lon="-0.49706">
        <ele>60.4</ele>
        <time>2024-04-14T09:51:08Z</time>
      </trkpt>
      <trkpt lat="47.95682" lon="-0.49703">
        <ele>60</ele>
        <time>2024-04-14T09:51:09Z</time>
      </trkpt>
      <trkpt lat="47.95686" lon="-0.49701">
        <ele>60</ele>
        <time>2024-04-14T09:51:10Z</time>
      </trkpt>
      <trkpt lat="47.95689" lon="-0.49698">
        <ele>60</ele>
        <time>2024-04-14T09:51:11Z</time>
      </trkpt>
      <trkpt lat="47.95693" lon="-0.49694">
        <ele>60</ele>
        <time>2024-04-14T09:51:12Z</time>
      </trkpt>
      <trkpt lat="47.95696" lon="-0.4969">
        <ele>59.4</ele>
        <time>2024-04-14T09:51:13Z</time>
      </trkpt>
      <trkpt lat="47.957" lon="-0.49686">
        <ele>59.4</ele>
        <time>2024-04-14T09:51:14Z</time>
      </trkpt>
      <trkpt lat="47.95704" lon="-0.49681">
        <ele>59.4</ele>
        <time>2024-04-14T09:51:15Z</time>
      </trkpt>
      <trkpt lat="47.95708" lon="-0.49677">
        <ele>59.4</ele>
        <time>2024-04-14T09:51:16Z</time>
      </trkpt>
      <trkpt lat="47.95713" lon="-0.49673">
        <ele>58</ele>
        <time>2024-04-14T09:51:17Z</time>
      </trkpt>
      <trkpt lat="47.95717" lon="-0.49669">
        <ele>58</ele>
        <time>2024-04-14T09:51:18Z</time>
      </trkpt>
      <trkpt lat="47.95722" lon="-0.49664">
        <ele>58</ele>
        <time>2024-04-14T09:51:19Z</time>
      </trkpt>
      <trkpt lat="47.95726" lon="-0.49659">
        <ele>57.2</ele>
        <time>2024-04-14T09:51:20Z</time>
      </trkpt>
      <trkpt lat="47.95731" lon="-0.49653">
        <ele>57.6</ele>
        <time>2024-04-14T09:51:21Z</time>
      </trkpt>
      <trkpt lat="47.95736" lon="-0.49647">
        <ele>57.6</ele>
        <time>2024-04-14T09:51:22Z</time>
      </trkpt>
      <trkpt lat="47.95741" lon="-0.49641">
        <ele>57.6</ele>
        <time>2024-04-14T09:51:23Z</time>
      </trkpt>
      <trkpt lat="47.95745" lon="-0.49635">
        <ele>56.6</ele>
        <time>2024-04-14T09:51:24Z</time>
      </trkpt>
      <trkpt lat="47.95749" lon="-0.49629">
        <ele>56.6</ele>
        <time>2024-04-14T09:51:25Z</time>
      </trkpt>
      <trkpt lat="47.95752" lon="-0.49622">
        <ele>56.6</ele>
        <time>2024-04-14T09:51:26Z</time>
      </trkpt>
      <trkpt lat="47.95756" lon="-0.49615">
        <ele>56.6</ele>
        <time>2024-04-14T09:51:27Z</time>
      </trkpt>
      <trkpt lat="47.95759" lon="-0.49608">
        <ele>56.6</ele>
        <time>2024-04-14T09:51:28Z</time>
      </trkpt>
      <trkpt lat="47.95762" lon="-0.496">
        <ele>56.4</ele>
        <time>2024-04-14T09:51:29Z</time>
      </trkpt>
      <trkpt lat="47.95765" lon="-0.49593">
        <ele>56.4</ele>
        <time>2024-04-14T09:51:30Z</time>
      </trkpt>
      <trkpt lat="47.95768" lon="-0.49586">
        <ele>56.4</ele>
        <time>2024-04-14T09:51:31Z</time>
      </trkpt>
      <trkpt lat="47.95771" lon="-0.4958">
        <ele>56.8</ele>
        <time>2024-04-14T09:51:32Z</time>
      </trkpt>
      <trkpt lat="47.95773" lon="-0.49572">
        <ele>57.2</ele>
        <time>2024-04-14T09:51:33Z</time>
      </trkpt>
      <trkpt lat="47.95776" lon="-0.49565">
        <ele>57.2</ele>
        <time>2024-04-14T09:51:34Z</time>
      </trkpt>
      <trkpt lat="47.95777" lon="-0.49557">
        <ele>57.2</ele>
        <time>2024-04-14T09:51:35Z</time>
      </trkpt>
      <trkpt lat="47.95779" lon="-0.49549">
        <ele>58.2</ele>
        <time>2024-04-14T09:51:36Z</time>
      </trkpt>
      <trkpt lat="47.95781" lon="-0.49542">
        <ele>58.4</ele>
        <time>2024-04-14T09:51:37Z</time>
      </trkpt>
      <trkpt lat="47.95782" lon="-0.49534">
        <ele>58.4</ele>
        <time>2024-04-14T09:51:38Z</time>
      </trkpt>
      <trkpt lat="47.95783" lon="-0.49527">
        <ele>58.4</ele>
        <time>2024-04-14T09:51:39Z</time>
      </trkpt>
      <trkpt lat="47.95784" lon="-0.49519">
        <ele>58.4</ele>
        <time>2024-04-14T09:51:40Z</time>
      </trkpt>
      <trkpt lat="47.95785" lon="-0.49511">
        <ele>58.8</ele>
        <time>2024-04-14T09:51:41Z</time>
      </trkpt>
      <trkpt lat="47.95787" lon="-0.49503">
        <ele>58.8</ele>
        <time>2024-04-14T09:51:42Z</time>
      </trkpt>
      <trkpt lat="47.95788" lon="-0.49496">
        <ele>58.8</ele>
        <time>2024-04-14T09:51:43Z</time>
      </trkpt>
      <trkpt lat="47.95789" lon="-0.49488">
        <ele>58.2</ele>
        <time>2024-04-14T09:51:44Z</time>
      </trkpt>
      <trkpt lat="47.95791" lon="-0.4948">
        <ele>58.2</ele>
        <time>2024-04-14T09:51:45Z</time>
      </trkpt>
      <trkpt lat="47.95792" lon="-0.49472">
        <ele>58.2</ele>
        <time>2024-04-14T09:51:46Z</time>
      </trkpt>
      <trkpt lat="47.95793" lon="-0.49465">
        <ele>58.2</ele>
        <time>2024-04-14T09:51:47Z</time>
      </trkpt>
      <trkpt lat="47.95794" lon="-0.49457">
        <ele>58.8</ele>
        <time>2024-04-14T09:51:48Z</time>
      </trkpt>
      <trkpt lat="47.95796" lon="-0.4945">
        <ele>59.4</ele>
        <time>2024-04-14T09:51:49Z</time>
      </trkpt>
      <trkpt lat="47.95797" lon="-0.49442">
        <ele>59.4</ele>
        <time>2024-04-14T09:51:50Z</time>
      </trkpt>
      <trkpt lat="47.95797" lon="-0.49434">
        <ele>59.4</ele>
        <time>2024-04-14T09:51:51Z</time>
      </trkpt>
      <trkpt lat="47.95798" lon="-0.49426">
        <ele>59.4</ele>
        <time>2024-04-14T09:51:52Z</time>
      </trkpt>
      <trkpt lat="47.95799" lon="-0.49418">
        <ele>59.6</ele>
        <time>2024-04-14T09:51:53Z</time>
      </trkpt>
      <trkpt lat="47.958" lon="-0.49411">
        <ele>59.6</ele>
        <time>2024-04-14T09:51:54Z</time>
      </trkpt>
      <trkpt lat="47.95801" lon="-0.49403">
        <ele>59.6</ele>
        <time>2024-04-14T09:51:55Z</time>
      </trkpt>
      <trkpt lat="47.95802" lon="-0.49396">
        <ele>60.2</ele>
        <time>2024-04-14T09:51:56Z</time>
      </trkpt>
      <trkpt lat="47.95803" lon="-0.49389">
        <ele>60.6</ele>
        <time>2024-04-14T09:51:57Z</time>
      </trkpt>
      <trkpt lat="47.95804" lon="-0.49381">
        <ele>60.6</ele>
        <time>2024-04-14T09:51:58Z</time>
      </trkpt>
      <trkpt lat="47.95805" lon="-0.49374">
        <ele>60.6</ele>
        <time>2024-04-14T09:51:59Z</time>
      </trkpt>
      <trkpt lat="47.95806" lon="-0.49367">
        <ele>60.6</ele>
        <time>2024-04-14T09:52:00Z</time>
      </trkpt>
      <trkpt lat="47.95808" lon="-0.49361">
        <ele>61.8</ele>
        <time>2024-04-14T09:52:01Z</time>
      </trkpt>
      <trkpt lat="47.95809" lon="-0.49354">
        <ele>61.8</ele>
        <time>2024-04-14T09:52:02Z</time>
      </trkpt>
      <trkpt lat="47.95811" lon="-0.49348">
        <ele>61.8</ele>
        <time>2024-04-14T09:52:03Z</time>
      </trkpt>
      <trkpt lat="47.95813" lon="-0.49341">
        <ele>61.8</ele>
        <time>2024-04-14T09:52:04Z</time>
      </trkpt>
      <trkpt lat="47.95814" lon="-0.49334">
        <ele>61.8</ele>
        <time>2024-04-14T09:52:05Z</time>
      </trkpt>
      <trkpt lat="47.95815" lon="-0.49328">
        <ele>61.8</ele>
        <time>2024-04-14T09:52:06Z</time>
      </trkpt>
      <trkpt lat="47.95816" lon="-0.49321">
        <ele>61.8</ele>
        <time>2024-04-14T09:52:07Z</time>
      </trkpt>
      <trkpt lat="47.95816" lon="-0.49314">
        <ele>62.2</ele>
        <time>2024-04-14T09:52:08Z</time>
      </trkpt>
      <trkpt lat="47.95817" lon="-0.49307">
        <ele>62.6</ele>
        <time>2024-04-14T09:52:09Z</time>
      </trkpt>
      <trkpt lat="47.95817" lon="-0.493">
        <ele>62.6</ele>
        <time>2024-04-14T09:52:10Z</time>
      </trkpt>
      <trkpt lat="47.95818" lon="-0.49293">
        <ele>62.6</ele>
        <time>2024-04-14T09:52:11Z</time>
      </trkpt>
      <trkpt lat="47.95818" lon="-0.49286">
        <ele>62.6</ele>
        <time>2024-04-14T09:52:12Z</time>
      </trkpt>
      <trkpt lat="47.95819" lon="-0.49279">
        <ele>63.8</ele>
        <time>2024-04-14T09:52:13Z</time>
      </trkpt>
      <trkpt lat="47.9582" lon="-0.49273">
        <ele>63.8</ele>
        <time>2024-04-14T09:52:14Z</time>
      </trkpt>
      <trkpt lat="47.9582" lon="-0.49266">
        <ele>63.8</ele>
        <time>2024-04-14T09:52:15Z</time>
      </trkpt>
      <trkpt lat="47.9582" lon="-0.4926">
        <ele>63.6</ele>
        <time>2024-04-14T09:52:16Z</time>
      </trkpt>
      <trkpt lat="47.95818" lon="-0.49254">
        <ele>63.6</ele>
        <time>2024-04-14T09:52:17Z</time>
      </trkpt>
      <trkpt lat="47.95814" lon="-0.49249">
        <ele>63.6</ele>
        <time>2024-04-14T09:52:18Z</time>
      </trkpt>
      <trkpt lat="47.95811" lon="-0.49246">
        <ele>63.6</ele>
        <time>2024-04-14T09:52:19Z</time>
      </trkpt>
      <trkpt lat="47.95808" lon="-0.49242">
        <ele>63.6</ele>
        <time>2024-04-14T09:52:20Z</time>
      </trkpt>
      <trkpt lat="47.95805" lon="-0.49237">
        <ele>63.6</ele>
        <time>2024-04-14T09:52:21Z</time>
      </trkpt>
      <trkpt lat="47.95802" lon="-0.49232">
        <ele>63.6</ele>
        <time>2024-04-14T09:52:22Z</time>
      </trkpt>
      <trkpt lat="47.95799" lon="-0.49227">
        <ele>63.6</ele>
        <time>2024-04-14T09:52:23Z</time>
      </trkpt>
      <trkpt lat="47.95795" lon="-0.49221">
        <ele>63.8</ele>
        <time>2024-04-14T09:52:24Z</time>
      </trkpt>
      <trkpt lat="47.95792" lon="-0.49216">
        <ele>63.6</ele>
        <time>2024-04-14T09:52:25Z</time>
      </trkpt>
      <trkpt lat="47.95788" lon="-0.49211">
        <ele>63.6</ele>
        <time>2024-04-14T09:52:26Z</time>
      </trkpt>
      <trkpt lat="47.95785" lon="-0.49206">
        <ele>63.6</ele>
        <time>2024-04-14T09:52:27Z</time>
      </trkpt>
      <trkpt lat="47.95782" lon="-0.49201">
        <ele>63.6</ele>
        <time>2024-04-14T09:52:28Z</time>
      </trkpt>
      <trkpt lat="47.95778" lon="-0.49196">
        <ele>64.4</ele>
        <time>2024-04-14T09:52:29Z</time>
      </trkpt>
      <trkpt lat="47.95774" lon="-0.49193">
        <ele>64.4</ele>
        <time>2024-04-14T09:52:30Z</time>
      </trkpt>
      <trkpt lat="47.9577" lon="-0.49189">
        <ele>64.4</ele>
        <time>2024-04-14T09:52:31Z</time>
      </trkpt>
      <trkpt lat="47.95766" lon="-0.49185">
        <ele>63.6</ele>
        <time>2024-04-14T09:52:32Z</time>
      </trkpt>
      <trkpt lat="47.95762" lon="-0.49182">
        <ele>63.8</ele>
        <time>2024-04-14T09:52:33Z</time>
      </trkpt>
      <trkpt lat="47.95758" lon="-0.49178">
        <ele>63.8</ele>
        <time>2024-04-14T09:52:34Z</time>
      </trkpt>
      <trkpt lat="47.95754" lon="-0.49173">
        <ele>63.8</ele>
        <time>2024-04-14T09:52:35Z</time>
      </trkpt>
      <trkpt lat="47.95749" lon="-0.49169">
        <ele>63.8</ele>
        <time>2024-04-14T09:52:36Z</time>
      </trkpt>
      <trkpt lat="47.95744" lon="-0.49165">
        <ele>63.4</ele>
        <time>2024-04-14T09:52:37Z</time>
      </trkpt>
      <trkpt lat="47.95739" lon="-0.49161">
        <ele>63.4</ele>
        <time>2024-04-14T09:52:38Z</time>
      </trkpt>
      <trkpt lat="47.95734" lon="-0.49157">
        <ele>63.4</ele>
        <time>2024-04-14T09:52:39Z</time>
      </trkpt>
      <trkpt lat="47.95729" lon="-0.49153">
        <ele>63.4</ele>
        <time>2024-04-14T09:52:40Z</time>
      </trkpt>
      <trkpt lat="47.95724" lon="-0.49148">
        <ele>63.6</ele>
        <time>2024-04-14T09:52:41Z</time>
      </trkpt>
      <trkpt lat="47.95718" lon="-0.49144">
        <ele>63.6</ele>
        <time>2024-04-14T09:52:42Z</time>
      </trkpt>
      <trkpt lat="47.95713" lon="-0.49139">
        <ele>63.6</ele>
        <time>2024-04-14T09:52:43Z</time>
      </trkpt>
      <trkpt lat="47.95707" lon="-0.49135">
        <ele>62.6</ele>
        <time>2024-04-14T09:52:44Z</time>
      </trkpt>
      <trkpt lat="47.95702" lon="-0.4913">
        <ele>60.8</ele>
        <time>2024-04-14T09:52:45Z</time>
      </trkpt>
      <trkpt lat="47.95697" lon="-0.49126">
        <ele>60.8</ele>
        <time>2024-04-14T09:52:46Z</time>
      </trkpt>
      <trkpt lat="47.95691" lon="-0.49121">
        <ele>60.8</ele>
        <time>2024-04-14T09:52:47Z</time>
      </trkpt>
      <trkpt lat="47.95686" lon="-0.49116">
        <ele>61.4</ele>
        <time>2024-04-14T09:52:48Z</time>
      </trkpt>
      <trkpt lat="47.9568" lon="-0.49111">
        <ele>61</ele>
        <time>2024-04-14T09:52:49Z</time>
      </trkpt>
      <trkpt lat="47.95675" lon="-0.49105">
        <ele>61</ele>
        <time>2024-04-14T09:52:50Z</time>
      </trkpt>
      <trkpt lat="47.95669" lon="-0.491">
        <ele>61</ele>
        <time>2024-04-14T09:52:51Z</time>
      </trkpt>
      <trkpt lat="47.95664" lon="-0.49094">
        <ele>61</ele>
        <time>2024-04-14T09:52:52Z</time>
      </trkpt>
      <trkpt lat="47.95659" lon="-0.49089">
        <ele>61</ele>
        <time>2024-04-14T09:52:53Z</time>
      </trkpt>
      <trkpt lat="47.95654" lon="-0.49083">
        <ele>61</ele>
        <time>2024-04-14T09:52:54Z</time>
      </trkpt>
      <trkpt lat="47.95649" lon="-0.49077">
        <ele>61</ele>
        <time>2024-04-14T09:52:55Z</time>
      </trkpt>
      <trkpt lat="47.95644" lon="-0.49071">
        <ele>60.2</ele>
        <time>2024-04-14T09:52:56Z</time>
      </trkpt>
      <trkpt lat="47.95639" lon="-0.49065">
        <ele>59.4</ele>
        <time>2024-04-14T09:52:57Z</time>
      </trkpt>
      <trkpt lat="47.95635" lon="-0.49059">
        <ele>59.4</ele>
        <time>2024-04-14T09:52:58Z</time>
      </trkpt>
      <trkpt lat="47.95631" lon="-0.49053">
        <ele>59.4</ele>
        <time>2024-04-14T09:52:59Z</time>
      </trkpt>
      <trkpt lat="47.95626" lon="-0.49046">
        <ele>60.4</ele>
        <time>2024-04-14T09:53:00Z</time>
      </trkpt>
      <trkpt lat="47.95622" lon="-0.4904">
        <ele>59.4</ele>
        <time>2024-04-14T09:53:01Z</time>
      </trkpt>
      <trkpt lat="47.95617" lon="-0.49033">
        <ele>59.4</ele>
        <time>2024-04-14T09:53:02Z</time>
      </trkpt>
      <trkpt lat="47.95613" lon="-0.49025">
        <ele>59.4</ele>
        <time>2024-04-14T09:53:03Z</time>
      </trkpt>
      <trkpt lat="47.95608" lon="-0.49018">
        <ele>59.4</ele>
        <time>2024-04-14T09:53:04Z</time>
      </trkpt>
      <trkpt lat="47.95603" lon="-0.49011">
        <ele>59.4</ele>
        <time>2024-04-14T09:53:05Z</time>
      </trkpt>
      <trkpt lat="47.95598" lon="-0.49004">
        <ele>59.4</ele>
        <time>2024-04-14T09:53:06Z</time>
      </trkpt>
      <trkpt lat="47.95592" lon="-0.48997">
        <ele>59.4</ele>
        <time>2024-04-14T09:53:07Z</time>
      </trkpt>
      <trkpt lat="47.95587" lon="-0.48989">
        <ele>59.4</ele>
        <time>2024-04-14T09:53:08Z</time>
      </trkpt>
      <trkpt lat="47.95582" lon="-0.48982">
        <ele>59.4</ele>
        <time>2024-04-14T09:53:09Z</time>
      </trkpt>
      <trkpt lat="47.95576" lon="-0.48976">
        <ele>59.4</ele>
        <time>2024-04-14T09:53:10Z</time>
      </trkpt>
      <trkpt lat="47.95571" lon="-0.4897">
        <ele>59.4</ele>
        <time>2024-04-14T09:53:11Z</time>
      </trkpt>
      <trkpt lat="47.95565" lon="-0.48964">
        <ele>58.8</ele>
        <time>2024-04-14T09:53:12Z</time>
      </trkpt>
      <trkpt lat="47.9556" lon="-0.48958">
        <ele>59.2</ele>
        <time>2024-04-14T09:53:13Z</time>
      </trkpt>
      <trkpt lat="47.95554" lon="-0.48953">
        <ele>59.2</ele>
        <time>2024-04-14T09:53:14Z</time>
      </trkpt>
      <trkpt lat="47.95548" lon="-0.48947">
        <ele>59.2</ele>
        <time>2024-04-14T09:53:15Z</time>
      </trkpt>
      <trkpt lat="47.95542" lon="-0.48942">
        <ele>59.2</ele>
        <time>2024-04-14T09:53:16Z</time>
      </trkpt>
      <trkpt lat="47.95536" lon="-0.48938">
        <ele>59.4</ele>
        <time>2024-04-14T09:53:17Z</time>
      </trkpt>
      <trkpt lat="47.9553" lon="-0.48933">
        <ele>59.4</ele>
        <time>2024-04-14T09:53:18Z</time>
      </trkpt>
      <trkpt lat="47.95525" lon="-0.48929">
        <ele>59.4</ele>
        <time>2024-04-14T09:53:19Z</time>
      </trkpt>
      <trkpt lat="47.95519" lon="-0.48924">
        <ele>60.2</ele>
        <time>2024-04-14T09:53:20Z</time>
      </trkpt>
      <trkpt lat="47.95513" lon="-0.4892">
        <ele>60.8</ele>
        <time>2024-04-14T09:53:21Z</time>
      </trkpt>
      <trkpt lat="47.95508" lon="-0.48915">
        <ele>60.8</ele>
        <time>2024-04-14T09:53:22Z</time>
      </trkpt>
      <trkpt lat="47.95502" lon="-0.48911">
        <ele>60.8</ele>
        <time>2024-04-14T09:53:23Z</time>
      </trkpt>
      <trkpt lat="47.95497" lon="-0.48907">
        <ele>60.8</ele>
        <time>2024-04-14T09:53:24Z</time>
      </trkpt>
      <trkpt lat="47.95491" lon="-0.48903">
        <ele>61.6</ele>
        <time>2024-04-14T09:53:25Z</time>
      </trkpt>
      <trkpt lat="47.95486" lon="-0.48899">
        <ele>61.6</ele>
        <time>2024-04-14T09:53:26Z</time>
      </trkpt>
      <trkpt lat="47.95481" lon="-0.48895">
        <ele>61.6</ele>
        <time>2024-04-14T09:53:27Z</time>
      </trkpt>
      <trkpt lat="47.95475" lon="-0.48891">
        <ele>61.6</ele>
        <time>2024-04-14T09:53:28Z</time>
      </trkpt>
      <trkpt lat="47.9547" lon="-0.48887">
        <ele>62.4</ele>
        <time>2024-04-14T09:53:29Z</time>
      </trkpt>
      <trkpt lat="47.95465" lon="-0.48883">
        <ele>62.4</ele>
        <time>2024-04-14T09:53:30Z</time>
      </trkpt>
      <trkpt lat="47.9546" lon="-0.48879">
        <ele>62.4</ele>
        <time>2024-04-14T09:53:31Z</time>
      </trkpt>
      <trkpt lat="47.95454" lon="-0.48875">
        <ele>62.4</ele>
        <time>2024-04-14T09:53:32Z</time>
      </trkpt>
      <trkpt lat="47.95449" lon="-0.48871">
        <ele>62.8</ele>
        <time>2024-04-14T09:53:33Z</time>
      </trkpt>
      <trkpt lat="47.95444" lon="-0.48867">
        <ele>62.8</ele>
        <time>2024-04-14T09:53:34Z</time>
      </trkpt>
      <trkpt lat="47.95439" lon="-0.48863">
        <ele>62.8</ele>
        <time>2024-04-14T09:53:35Z</time>
      </trkpt>
      <trkpt lat="47.95433" lon="-0.48859">
        <ele>62.2</ele>
        <time>2024-04-14T09:53:36Z</time>
      </trkpt>
      <trkpt lat="47.95428" lon="-0.48855">
        <ele>62.2</ele>
        <time>2024-04-14T09:53:37Z</time>
      </trkpt>
      <trkpt lat="47.95422" lon="-0.48851">
        <ele>62.2</ele>
        <time>2024-04-14T09:53:38Z</time>
      </trkpt>
      <trkpt lat="47.95416" lon="-0.48847">
        <ele>62.2</ele>
        <time>2024-04-14T09:53:39Z</time>
      </trkpt>
      <trkpt lat="47.95411" lon="-0.48843">
        <ele>62.2</ele>
        <time>2024-04-14T09:53:40Z</time>
      </trkpt>
      <trkpt lat="47.95405" lon="-0.48838">
        <ele>61.8</ele>
        <time>2024-04-14T09:53:41Z</time>
      </trkpt>
      <trkpt lat="47.95399" lon="-0.48834">
        <ele>61.8</ele>
        <time>2024-04-14T09:53:42Z</time>
      </trkpt>
      <trkpt lat="47.95393" lon="-0.4883">
        <ele>61.8</ele>
        <time>2024-04-14T09:53:43Z</time>
      </trkpt>
      <trkpt lat="47.95387" lon="-0.48825">
        <ele>61.8</ele>
        <time>2024-04-14T09:53:44Z</time>
      </trkpt>
      <trkpt lat="47.95381" lon="-0.48821">
        <ele>61.2</ele>
        <time>2024-04-14T09:53:45Z</time>
      </trkpt>
      <trkpt lat="47.95375" lon="-0.48816">
        <ele>61.2</ele>
        <time>2024-04-14T09:53:46Z</time>
      </trkpt>
      <trkpt lat="47.95369" lon="-0.48811">
        <ele>61.2</ele>
        <time>2024-04-14T09:53:47Z</time>
      </trkpt>
      <trkpt lat="47.95363" lon="-0.48806">
        <ele>60.6</ele>
        <time>2024-04-14T09:53:48Z</time>
      </trkpt>
      <trkpt lat="47.95357" lon="-0.48802">
        <ele>59.6</ele>
        <time>2024-04-14T09:53:49Z</time>
      </trkpt>
      <trkpt lat="47.95351" lon="-0.48797">
        <ele>59.6</ele>
        <time>2024-04-14T09:53:50Z</time>
      </trkpt>
      <trkpt lat="47.95345" lon="-0.48793">
        <ele>59.6</ele>
        <time>2024-04-14T09:53:51Z</time>
      </trkpt>
      <trkpt lat="47.95339" lon="-0.48788">
        <ele>60.2</ele>
        <time>2024-04-14T09:53:52Z</time>
      </trkpt>
      <trkpt lat="47.95334" lon="-0.48784">
        <ele>60.2</ele>
        <time>2024-04-14T09:53:53Z</time>
      </trkpt>
      <trkpt lat="47.95328" lon="-0.4878">
        <ele>60.2</ele>
        <time>2024-04-14T09:53:54Z</time>
      </trkpt>
      <trkpt lat="47.95323" lon="-0.48775">
        <ele>60.2</ele>
        <time>2024-04-14T09:53:55Z</time>
      </trkpt>
      <trkpt lat="47.95317" lon="-0.48771">
        <ele>60.2</ele>
        <time>2024-04-14T09:53:56Z</time>
      </trkpt>
      <trkpt lat="47.95312" lon="-0.48767">
        <ele>60.8</ele>
        <time>2024-04-14T09:53:57Z</time>
      </trkpt>
      <trkpt lat="47.95306" lon="-0.48764">
        <ele>60.8</ele>
        <time>2024-04-14T09:53:58Z</time>
      </trkpt>
      <trkpt lat="47.95301" lon="-0.4876">
        <ele>60.8</ele>
        <time>2024-04-14T09:53:59Z</time>
      </trkpt>
      <trkpt lat="47.95296" lon="-0.48755">
        <ele>60.8</ele>
        <time>2024-04-14T09:54:00Z</time>
      </trkpt>
      <trkpt lat="47.95291" lon="-0.48752">
        <ele>59.8</ele>
        <time>2024-04-14T09:54:01Z</time>
      </trkpt>
      <trkpt lat="47.95286" lon="-0.48748">
        <ele>59.8</ele>
        <time>2024-04-14T09:54:02Z</time>
      </trkpt>
      <trkpt lat="47.95281" lon="-0.48744">
        <ele>59.8</ele>
        <time>2024-04-14T09:54:03Z</time>
      </trkpt>
      <trkpt lat="47.95276" lon="-0.48741">
        <ele>60.8</ele>
        <time>2024-04-14T09:54:04Z</time>
      </trkpt>
      <trkpt lat="47.95271" lon="-0.48737">
        <ele>61.8</ele>
        <time>2024-04-14T09:54:05Z</time>
      </trkpt>
      <trkpt lat="47.95267" lon="-0.48733">
        <ele>61.8</ele>
        <time>2024-04-14T09:54:06Z</time>
      </trkpt>
      <trkpt lat="47.95262" lon="-0.4873">
        <ele>61.8</ele>
        <time>2024-04-14T09:54:07Z</time>
      </trkpt>
      <trkpt lat="47.95257" lon="-0.48726">
        <ele>61.8</ele>
        <time>2024-04-14T09:54:08Z</time>
      </trkpt>
      <trkpt lat="47.95253" lon="-0.48723">
        <ele>61.4</ele>
        <time>2024-04-14T09:54:09Z</time>
      </trkpt>
      <trkpt lat="47.95248" lon="-0.48719">
        <ele>61.4</ele>
        <time>2024-04-14T09:54:10Z</time>
      </trkpt>
      <trkpt lat="47.95244" lon="-0.48716">
        <ele>61.4</ele>
        <time>2024-04-14T09:54:11Z</time>
      </trkpt>
      <trkpt lat="47.95239" lon="-0.48712">
        <ele>62.4</ele>
        <time>2024-04-14T09:54:12Z</time>
      </trkpt>
      <trkpt lat="47.95235" lon="-0.48708">
        <ele>62.2</ele>
        <time>2024-04-14T09:54:13Z</time>
      </trkpt>
      <trkpt lat="47.95231" lon="-0.48704">
        <ele>62.2</ele>
        <time>2024-04-14T09:54:14Z</time>
      </trkpt>
      <trkpt lat="47.95227" lon="-0.48699">
        <ele>62.2</ele>
        <time>2024-04-14T09:54:15Z</time>
      </trkpt>
      <trkpt lat="47.95223" lon="-0.48694">
        <ele>63.2</ele>
        <time>2024-04-14T09:54:16Z</time>
      </trkpt>
      <trkpt lat="47.95219" lon="-0.4869">
        <ele>62.8</ele>
        <time>2024-04-14T09:54:17Z</time>
      </trkpt>
      <trkpt lat="47.95216" lon="-0.48685">
        <ele>62.8</ele>
        <time>2024-04-14T09:54:18Z</time>
      </trkpt>
      <trkpt lat="47.95212" lon="-0.4868">
        <ele>62.8</ele>
        <time>2024-04-14T09:54:19Z</time>
      </trkpt>
      <trkpt lat="47.95209" lon="-0.48675">
        <ele>63.8</ele>
        <time>2024-04-14T09:54:20Z</time>
      </trkpt>
      <trkpt lat="47.95206" lon="-0.4867">
        <ele>64.6</ele>
        <time>2024-04-14T09:54:21Z</time>
      </trkpt>
      <trkpt lat="47.95203" lon="-0.48665">
        <ele>64.6</ele>
        <time>2024-04-14T09:54:22Z</time>
      </trkpt>
      <trkpt lat="47.952" lon="-0.4866">
        <ele>64.6</ele>
        <time>2024-04-14T09:54:23Z</time>
      </trkpt>
      <trkpt lat="47.95197" lon="-0.48655">
        <ele>64.6</ele>
        <time>2024-04-14T09:54:24Z</time>
      </trkpt>
      <trkpt lat="47.95194" lon="-0.4865">
        <ele>66</ele>
        <time>2024-04-14T09:54:25Z</time>
      </trkpt>
      <trkpt lat="47.95191" lon="-0.48645">
        <ele>66</ele>
        <time>2024-04-14T09:54:26Z</time>
      </trkpt>
      <trkpt lat="47.95188" lon="-0.4864">
        <ele>66</ele>
        <time>2024-04-14T09:54:27Z</time>
      </trkpt>
      <trkpt lat="47.95185" lon="-0.48635">
        <ele>66</ele>
        <time>2024-04-14T09:54:28Z</time>
      </trkpt>
      <trkpt lat="47.95182" lon="-0.4863">
        <ele>66.6</ele>
        <time>2024-04-14T09:54:29Z</time>
      </trkpt>
      <trkpt lat="47.95179" lon="-0.48626">
        <ele>66.6</ele>
        <time>2024-04-14T09:54:30Z</time>
      </trkpt>
      <trkpt lat="47.95176" lon="-0.48621">
        <ele>66.6</ele>
        <time>2024-04-14T09:54:31Z</time>
      </trkpt>
      <trkpt lat="47.95173" lon="-0.48616">
        <ele>66.6</ele>
        <time>2024-04-14T09:54:32Z</time>
      </trkpt>
      <trkpt lat="47.9517" lon="-0.48611">
        <ele>66.6</ele>
        <time>2024-04-14T09:54:33Z</time>
      </trkpt>
      <trkpt lat="47.95167" lon="-0.48606">
        <ele>66.6</ele>
        <time>2024-04-14T09:54:34Z</time>
      </trkpt>
      <trkpt lat="47.95164" lon="-0.48601">
        <ele>66.6</ele>
        <time>2024-04-14T09:54:35Z</time>
      </trkpt>
      <trkpt lat="47.95161" lon="-0.48596">
        <ele>66.6</ele>
        <time>2024-04-14T09:54:36Z</time>
      </trkpt>
      <trkpt lat="47.95158" lon="-0.48591">
        <ele>66.6</ele>
        <time>2024-04-14T09:54:37Z</time>
      </trkpt>
      <trkpt lat="47.95155" lon="-0.48586">
        <ele>66.6</ele>
        <time>2024-04-14T09:54:38Z</time>
      </trkpt>
      <trkpt lat="47.95152" lon="-0.48581">
        <ele>66.6</ele>
        <time>2024-04-14T09:54:39Z</time>
      </trkpt>
      <trkpt lat="47.95149" lon="-0.48575">
        <ele>66</ele>
        <time>2024-04-14T09:54:40Z</time>
      </trkpt>
      <trkpt lat="47.95146" lon="-0.4857">
        <ele>65.6</ele>
        <time>2024-04-14T09:54:41Z</time>
      </trkpt>
      <trkpt lat="47.95143" lon="-0.48564">
        <ele>65.6</ele>
        <time>2024-04-14T09:54:42Z</time>
      </trkpt>
      <trkpt lat="47.9514" lon="-0.48559">
        <ele>65.6</ele>
        <time>2024-04-14T09:54:43Z</time>
      </trkpt>
      <trkpt lat="47.95137" lon="-0.48552">
        <ele>65.6</ele>
        <time>2024-04-14T09:54:44Z</time>
      </trkpt>
      <trkpt lat="47.95135" lon="-0.48546">
        <ele>65.4</ele>
        <time>2024-04-14T09:54:45Z</time>
      </trkpt>
      <trkpt lat="47.95132" lon="-0.48538">
        <ele>65.4</ele>
        <time>2024-04-14T09:54:46Z</time>
      </trkpt>
      <trkpt lat="47.95128" lon="-0.48531">
        <ele>65.4</ele>
        <time>2024-04-14T09:54:47Z</time>
      </trkpt>
      <trkpt lat="47.95125" lon="-0.48523">
        <ele>64.6</ele>
        <time>2024-04-14T09:54:48Z</time>
      </trkpt>
      <trkpt lat="47.95122" lon="-0.48515">
        <ele>63.6</ele>
        <time>2024-04-14T09:54:49Z</time>
      </trkpt>
      <trkpt lat="47.95118" lon="-0.48507">
        <ele>63.6</ele>
        <time>2024-04-14T09:54:50Z</time>
      </trkpt>
      <trkpt lat="47.95115" lon="-0.48498">
        <ele>63.6</ele>
        <time>2024-04-14T09:54:51Z</time>
      </trkpt>
      <trkpt lat="47.9511" lon="-0.4849">
        <ele>62.8</ele>
        <time>2024-04-14T09:54:52Z</time>
      </trkpt>
      <trkpt lat="47.95106" lon="-0.48481">
        <ele>62.2</ele>
        <time>2024-04-14T09:54:53Z</time>
      </trkpt>
      <trkpt lat="47.95101" lon="-0.48472">
        <ele>62.2</ele>
        <time>2024-04-14T09:54:54Z</time>
      </trkpt>
      <trkpt lat="47.95095" lon="-0.48463">
        <ele>62.2</ele>
        <time>2024-04-14T09:54:55Z</time>
      </trkpt>
      <trkpt lat="47.95089" lon="-0.48453">
        <ele>61.2</ele>
        <time>2024-04-14T09:54:56Z</time>
      </trkpt>
      <trkpt lat="47.95082" lon="-0.48444">
        <ele>57.4</ele>
        <time>2024-04-14T09:54:57Z</time>
      </trkpt>
      <trkpt lat="47.95075" lon="-0.48435">
        <ele>57.4</ele>
        <time>2024-04-14T09:54:58Z</time>
      </trkpt>
      <trkpt lat="47.95068" lon="-0.48425">
        <ele>57.4</ele>
        <time>2024-04-14T09:54:59Z</time>
      </trkpt>
      <trkpt lat="47.95062" lon="-0.48414">
        <ele>56.4</ele>
        <time>2024-04-14T09:55:00Z</time>
      </trkpt>
      <trkpt lat="47.95055" lon="-0.48402">
        <ele>53.6</ele>
        <time>2024-04-14T09:55:01Z</time>
      </trkpt>
      <trkpt lat="47.9505" lon="-0.4839">
        <ele>53.6</ele>
        <time>2024-04-14T09:55:02Z</time>
      </trkpt>
      <trkpt lat="47.95044" lon="-0.48377">
        <ele>53.6</ele>
        <time>2024-04-14T09:55:03Z</time>
      </trkpt>
      <trkpt lat="47.9504" lon="-0.48363">
        <ele>53.6</ele>
        <time>2024-04-14T09:55:04Z</time>
      </trkpt>
      <trkpt lat="47.95035" lon="-0.4835">
        <ele>51</ele>
        <time>2024-04-14T09:55:05Z</time>
      </trkpt>
      <trkpt lat="47.95031" lon="-0.48336">
        <ele>51</ele>
        <time>2024-04-14T09:55:06Z</time>
      </trkpt>
      <trkpt lat="47.95026" lon="-0.48322">
        <ele>51</ele>
        <time>2024-04-14T09:55:07Z</time>
      </trkpt>
      <trkpt lat="47.95022" lon="-0.48308">
        <ele>50</ele>
        <time>2024-04-14T09:55:08Z</time>
      </trkpt>
      <trkpt lat="47.95018" lon="-0.48295">
        <ele>49.8</ele>
        <time>2024-04-14T09:55:09Z</time>
      </trkpt>
      <trkpt lat="47.95014" lon="-0.48282">
        <ele>49.8</ele>
        <time>2024-04-14T09:55:10Z</time>
      </trkpt>
      <trkpt lat="47.95011" lon="-0.4827">
        <ele>49.8</ele>
        <time>2024-04-14T09:55:11Z</time>
      </trkpt>
      <trkpt lat="47.95007" lon="-0.48257">
        <ele>50.8</ele>
        <time>2024-04-14T09:55:12Z</time>
      </trkpt>
      <trkpt lat="47.95003" lon="-0.48245">
        <ele>51.4</ele>
        <time>2024-04-14T09:55:13Z</time>
      </trkpt>
      <trkpt lat="47.95" lon="-0.48233">
        <ele>51.4</ele>
        <time>2024-04-14T09:55:14Z</time>
      </trkpt>
      <trkpt lat="47.94996" lon="-0.48222">
        <ele>51.4</ele>
        <time>2024-04-14T09:55:15Z</time>
      </trkpt>
      <trkpt lat="47.94993" lon="-0.48211">
        <ele>52.4</ele>
        <time>2024-04-14T09:55:16Z</time>
      </trkpt>
      <trkpt lat="47.9499" lon="-0.482">
        <ele>53.6</ele>
        <time>2024-04-14T09:55:17Z</time>
      </trkpt>
      <trkpt lat="47.94987" lon="-0.48189">
        <ele>53.6</ele>
        <time>2024-04-14T09:55:18Z</time>
      </trkpt>
      <trkpt lat="47.94984" lon="-0.48179">
        <ele>53.6</ele>
        <time>2024-04-14T09:55:19Z</time>
      </trkpt>
      <trkpt lat="47.94981" lon="-0.48169">
        <ele>54.6</ele>
        <time>2024-04-14T09:55:20Z</time>
      </trkpt>
      <trkpt lat="47.94978" lon="-0.4816">
        <ele>55.4</ele>
        <time>2024-04-14T09:55:21Z</time>
      </trkpt>
      <trkpt lat="47.94976" lon="-0.48151">
        <ele>55.4</ele>
        <time>2024-04-14T09:55:22Z</time>
      </trkpt>
      <trkpt lat="47.94973" lon="-0.48142">
        <ele>55.4</ele>
        <time>2024-04-14T09:55:23Z</time>
      </trkpt>
      <trkpt lat="47.94971" lon="-0.48133">
        <ele>56.4</ele>
        <time>2024-04-14T09:55:24Z</time>
      </trkpt>
      <trkpt lat="47.94968" lon="-0.48125">
        <ele>57</ele>
        <time>2024-04-14T09:55:25Z</time>
      </trkpt>
      <trkpt lat="47.94966" lon="-0.48116">
        <ele>57</ele>
        <time>2024-04-14T09:55:26Z</time>
      </trkpt>
      <trkpt lat="47.94964" lon="-0.48108">
        <ele>57</ele>
        <time>2024-04-14T09:55:27Z</time>
      </trkpt>
      <trkpt lat="47.94962" lon="-0.481">
        <ele>57.4</ele>
        <time>2024-04-14T09:55:28Z</time>
      </trkpt>
      <trkpt lat="47.94961" lon="-0.48092">
        <ele>58.8</ele>
        <time>2024-04-14T09:55:29Z</time>
      </trkpt>
      <trkpt lat="47.94959" lon="-0.48084">
        <ele>58.8</ele>
        <time>2024-04-14T09:55:30Z</time>
      </trkpt>
      <trkpt lat="47.94958" lon="-0.48075">
        <ele>58.8</ele>
        <time>2024-04-14T09:55:31Z</time>
      </trkpt>
      <trkpt lat="47.94956" lon="-0.48066">
        <ele>58.8</ele>
        <time>2024-04-14T09:55:32Z</time>
      </trkpt>
      <trkpt lat="47.94954" lon="-0.48058">
        <ele>60.8</ele>
        <time>2024-04-14T09:55:33Z</time>
      </trkpt>
      <trkpt lat="47.94953" lon="-0.4805">
        <ele>60.8</ele>
        <time>2024-04-14T09:55:34Z</time>
      </trkpt>
      <trkpt lat="47.94951" lon="-0.48042">
        <ele>60.8</ele>
        <time>2024-04-14T09:55:35Z</time>
      </trkpt>
      <trkpt lat="47.9495" lon="-0.48034">
        <ele>60.8</ele>
        <time>2024-04-14T09:55:36Z</time>
      </trkpt>
      <trkpt lat="47.94948" lon="-0.48026">
        <ele>61.8</ele>
        <time>2024-04-14T09:55:37Z</time>
      </trkpt>
      <trkpt lat="47.94946" lon="-0.48019">
        <ele>61.8</ele>
        <time>2024-04-14T09:55:38Z</time>
      </trkpt>
      <trkpt lat="47.94943" lon="-0.48012">
        <ele>61.8</ele>
        <time>2024-04-14T09:55:39Z</time>
      </trkpt>
      <trkpt lat="47.94941" lon="-0.48006">
        <ele>61.8</ele>
        <time>2024-04-14T09:55:40Z</time>
      </trkpt>
      <trkpt lat="47.94938" lon="-0.47999">
        <ele>62.2</ele>
        <time>2024-04-14T09:55:41Z</time>
      </trkpt>
      <trkpt lat="47.94936" lon="-0.47992">
        <ele>62.2</ele>
        <time>2024-04-14T09:55:42Z</time>
      </trkpt>
      <trkpt lat="47.94933" lon="-0.47985">
        <ele>62.2</ele>
        <time>2024-04-14T09:55:43Z</time>
      </trkpt>
      <trkpt lat="47.9493" lon="-0.47978">
        <ele>62.2</ele>
        <time>2024-04-14T09:55:44Z</time>
      </trkpt>
      <trkpt lat="47.94927" lon="-0.47971">
        <ele>63</ele>
        <time>2024-04-14T09:55:45Z</time>
      </trkpt>
      <trkpt lat="47.94923" lon="-0.47965">
        <ele>63</ele>
        <time>2024-04-14T09:55:46Z</time>
      </trkpt>
      <trkpt lat="47.9492" lon="-0.47958">
        <ele>63</ele>
        <time>2024-04-14T09:55:47Z</time>
      </trkpt>
      <trkpt lat="47.94917" lon="-0.47952">
        <ele>62.6</ele>
        <time>2024-04-14T09:55:48Z</time>
      </trkpt>
      <trkpt lat="47.94914" lon="-0.47945">
        <ele>63.2</ele>
        <time>2024-04-14T09:55:49Z</time>
      </trkpt>
      <trkpt lat="47.9491" lon="-0.47939">
        <ele>63.2</ele>
        <time>2024-04-14T09:55:50Z</time>
      </trkpt>
      <trkpt lat="47.94907" lon="-0.47932">
        <ele>63.2</ele>
        <time>2024-04-14T09:55:51Z</time>
      </trkpt>
      <trkpt lat="47.94904" lon="-0.47925">
        <ele>62.6</ele>
        <time>2024-04-14T09:55:52Z</time>
      </trkpt>
      <trkpt lat="47.94901" lon="-0.47919">
        <ele>62.4</ele>
        <time>2024-04-14T09:55:53Z</time>
      </trkpt>
      <trkpt lat="47.94898" lon="-0.47913">
        <ele>62.4</ele>
        <time>2024-04-14T09:55:54Z</time>
      </trkpt>
      <trkpt lat="47.94894" lon="-0.47907">
        <ele>62.4</ele>
        <time>2024-04-14T09:55:55Z</time>
      </trkpt>
      <trkpt lat="47.9489" lon="-0.47901">
        <ele>62.8</ele>
        <time>2024-04-14T09:55:56Z</time>
      </trkpt>
      <trkpt lat="47.94886" lon="-0.47895">
        <ele>62.8</ele>
        <time>2024-04-14T09:55:57Z</time>
      </trkpt>
      <trkpt lat="47.94881" lon="-0.47889">
        <ele>62.8</ele>
        <time>2024-04-14T09:55:58Z</time>
      </trkpt>
      <trkpt lat="47.94877" lon="-0.47882">
        <ele>62.8</ele>
        <time>2024-04-14T09:55:59Z</time>
      </trkpt>
      <trkpt lat="47.94872" lon="-0.47876">
        <ele>61.8</ele>
        <time>2024-04-14T09:56:00Z</time>
      </trkpt>
      <trkpt lat="47.94867" lon="-0.47869">
        <ele>61.2</ele>
        <time>2024-04-14T09:56:01Z</time>
      </trkpt>
      <trkpt lat="47.94862" lon="-0.47863">
        <ele>61.2</ele>
        <time>2024-04-14T09:56:02Z</time>
      </trkpt>
      <trkpt lat="47.94857" lon="-0.47856">
        <ele>61.2</ele>
        <time>2024-04-14T09:56:03Z</time>
      </trkpt>
      <trkpt lat="47.94852" lon="-0.4785">
        <ele>60.2</ele>
        <time>2024-04-14T09:56:04Z</time>
      </trkpt>
      <trkpt lat="47.94847" lon="-0.47843">
        <ele>59.4</ele>
        <time>2024-04-14T09:56:05Z</time>
      </trkpt>
      <trkpt lat="47.94841" lon="-0.47836">
        <ele>59.4</ele>
        <time>2024-04-14T09:56:06Z</time>
      </trkpt>
      <trkpt lat="47.94836" lon="-0.47829">
        <ele>59.4</ele>
        <time>2024-04-14T09:56:07Z</time>
      </trkpt>
      <trkpt lat="47.94831" lon="-0.47823">
        <ele>59.4</ele>
        <time>2024-04-14T09:56:08Z</time>
      </trkpt>
      <trkpt lat="47.94825" lon="-0.47816">
        <ele>58.8</ele>
        <time>2024-04-14T09:56:09Z</time>
      </trkpt>
      <trkpt lat="47.9482" lon="-0.47809">
        <ele>58.8</ele>
        <time>2024-04-14T09:56:10Z</time>
      </trkpt>
      <trkpt lat="47.94814" lon="-0.47803">
        <ele>58.8</ele>
        <time>2024-04-14T09:56:11Z</time>
      </trkpt>
      <trkpt lat="47.94809" lon="-0.47798">
        <ele>58.8</ele>
        <time>2024-04-14T09:56:12Z</time>
      </trkpt>
      <trkpt lat="47.94803" lon="-0.47793">
        <ele>59.4</ele>
        <time>2024-04-14T09:56:13Z</time>
      </trkpt>
      <trkpt lat="47.94797" lon="-0.47788">
        <ele>59.4</ele>
        <time>2024-04-14T09:56:14Z</time>
      </trkpt>
      <trkpt lat="47.94791" lon="-0.47785">
        <ele>59.4</ele>
        <time>2024-04-14T09:56:15Z</time>
      </trkpt>
      <trkpt lat="47.94784" lon="-0.47781">
        <ele>59.4</ele>
        <time>2024-04-14T09:56:16Z</time>
      </trkpt>
      <trkpt lat="47.94778" lon="-0.47779">
        <ele>59.8</ele>
        <time>2024-04-14T09:56:17Z</time>
      </trkpt>
      <trkpt lat="47.94773" lon="-0.47777">
        <ele>59.8</ele>
        <time>2024-04-14T09:56:18Z</time>
      </trkpt>
      <trkpt lat="47.94767" lon="-0.47775">
        <ele>59.8</ele>
        <time>2024-04-14T09:56:19Z</time>
      </trkpt>
      <trkpt lat="47.94762" lon="-0.47773">
        <ele>59.8</ele>
        <time>2024-04-14T09:56:20Z</time>
      </trkpt>
      <trkpt lat="47.94757" lon="-0.47771">
        <ele>61.4</ele>
        <time>2024-04-14T09:56:21Z</time>
      </trkpt>
      <trkpt lat="47.94752" lon="-0.4777">
        <ele>61.4</ele>
        <time>2024-04-14T09:56:22Z</time>
      </trkpt>
      <trkpt lat="47.94747" lon="-0.47769">
        <ele>61.4</ele>
        <time>2024-04-14T09:56:23Z</time>
      </trkpt>
      <trkpt lat="47.94742" lon="-0.47768">
        <ele>62.4</ele>
        <time>2024-04-14T09:56:24Z</time>
      </trkpt>
      <trkpt lat="47.94738" lon="-0.47767">
        <ele>62</ele>
        <time>2024-04-14T09:56:25Z</time>
      </trkpt>
      <trkpt lat="47.94733" lon="-0.47767">
        <ele>62</ele>
        <time>2024-04-14T09:56:26Z</time>
      </trkpt>
      <trkpt lat="47.94728" lon="-0.47767">
        <ele>62</ele>
        <time>2024-04-14T09:56:27Z</time>
      </trkpt>
      <trkpt lat="47.94723" lon="-0.47767">
        <ele>63</ele>
        <time>2024-04-14T09:56:28Z</time>
      </trkpt>
      <trkpt lat="47.94719" lon="-0.47766">
        <ele>64.2</ele>
        <time>2024-04-14T09:56:29Z</time>
      </trkpt>
      <trkpt lat="47.94714" lon="-0.47766">
        <ele>64.2</ele>
        <time>2024-04-14T09:56:30Z</time>
      </trkpt>
      <trkpt lat="47.94709" lon="-0.47766">
        <ele>64.2</ele>
        <time>2024-04-14T09:56:31Z</time>
      </trkpt>
      <trkpt lat="47.94704" lon="-0.47767">
        <ele>64.2</ele>
        <time>2024-04-14T09:56:32Z</time>
      </trkpt>
      <trkpt lat="47.94699" lon="-0.47767">
        <ele>64.4</ele>
        <time>2024-04-14T09:56:33Z</time>
      </trkpt>
      <trkpt lat="47.94694" lon="-0.47766">
        <ele>64.4</ele>
        <time>2024-04-14T09:56:34Z</time>
      </trkpt>
      <trkpt lat="47.94689" lon="-0.47767">
        <ele>64.4</ele>
        <time>2024-04-14T09:56:35Z</time>
      </trkpt>
      <trkpt lat="47.94683" lon="-0.47767">
        <ele>65</ele>
        <time>2024-04-14T09:56:36Z</time>
      </trkpt>
      <trkpt lat="47.94678" lon="-0.47767">
        <ele>65</ele>
        <time>2024-04-14T09:56:37Z</time>
      </trkpt>
      <trkpt lat="47.94673" lon="-0.47767">
        <ele>65</ele>
        <time>2024-04-14T09:56:38Z</time>
      </trkpt>
      <trkpt lat="47.94668" lon="-0.47767">
        <ele>65</ele>
        <time>2024-04-14T09:56:39Z</time>
      </trkpt>
      <trkpt lat="47.94663" lon="-0.47767">
        <ele>65.6</ele>
        <time>2024-04-14T09:56:40Z</time>
      </trkpt>
      <trkpt lat="47.94658" lon="-0.47768">
        <ele>65.8</ele>
        <time>2024-04-14T09:56:41Z</time>
      </trkpt>
      <trkpt lat="47.94653" lon="-0.47768">
        <ele>65.8</ele>
        <time>2024-04-14T09:56:42Z</time>
      </trkpt>
      <trkpt lat="47.94647" lon="-0.47769">
        <ele>65.8</ele>
        <time>2024-04-14T09:56:43Z</time>
      </trkpt>
      <trkpt lat="47.94642" lon="-0.4777">
        <ele>65.8</ele>
        <time>2024-04-14T09:56:44Z</time>
      </trkpt>
      <trkpt lat="47.94637" lon="-0.47772">
        <ele>65</ele>
        <time>2024-04-14T09:56:45Z</time>
      </trkpt>
      <trkpt lat="47.94631" lon="-0.47772">
        <ele>65</ele>
        <time>2024-04-14T09:56:46Z</time>
      </trkpt>
      <trkpt lat="47.94625" lon="-0.47772">
        <ele>65</ele>
        <time>2024-04-14T09:56:47Z</time>
      </trkpt>
      <trkpt lat="47.94619" lon="-0.47773">
        <ele>65</ele>
        <time>2024-04-14T09:56:48Z</time>
      </trkpt>
      <trkpt lat="47.94612" lon="-0.47773">
        <ele>64.2</ele>
        <time>2024-04-14T09:56:49Z</time>
      </trkpt>
      <trkpt lat="47.94606" lon="-0.47774">
        <ele>64.2</ele>
        <time>2024-04-14T09:56:50Z</time>
      </trkpt>
      <trkpt lat="47.94599" lon="-0.47774">
        <ele>64.2</ele>
        <time>2024-04-14T09:56:51Z</time>
      </trkpt>
      <trkpt lat="47.94592" lon="-0.47773">
        <ele>63.2</ele>
        <time>2024-04-14T09:56:52Z</time>
      </trkpt>
      <trkpt lat="47.94585" lon="-0.47772">
        <ele>62</ele>
        <time>2024-04-14T09:56:53Z</time>
      </trkpt>
      <trkpt lat="47.94578" lon="-0.47772">
        <ele>62</ele>
        <time>2024-04-14T09:56:54Z</time>
      </trkpt>
      <trkpt lat="47.94571" lon="-0.47771">
        <ele>62</ele>
        <time>2024-04-14T09:56:55Z</time>
      </trkpt>
      <trkpt lat="47.94564" lon="-0.47771">
        <ele>62</ele>
        <time>2024-04-14T09:56:56Z</time>
      </trkpt>
      <trkpt lat="47.94558" lon="-0.47769">
        <ele>62.2</ele>
        <time>2024-04-14T09:56:57Z</time>
      </trkpt>
      <trkpt lat="47.94551" lon="-0.47768">
        <ele>62.2</ele>
        <time>2024-04-14T09:56:58Z</time>
      </trkpt>
      <trkpt lat="47.94545" lon="-0.47766">
        <ele>62.2</ele>
        <time>2024-04-14T09:56:59Z</time>
      </trkpt>
      <trkpt lat="47.9454" lon="-0.47763">
        <ele>62.8</ele>
        <time>2024-04-14T09:57:00Z</time>
      </trkpt>
      <trkpt lat="47.94534" lon="-0.47761">
        <ele>63.2</ele>
        <time>2024-04-14T09:57:01Z</time>
      </trkpt>
      <trkpt lat="47.94529" lon="-0.47759">
        <ele>63.2</ele>
        <time>2024-04-14T09:57:02Z</time>
      </trkpt>
      <trkpt lat="47.94523" lon="-0.47757">
        <ele>63.2</ele>
        <time>2024-04-14T09:57:03Z</time>
      </trkpt>
      <trkpt lat="47.94517" lon="-0.47753">
        <ele>63.2</ele>
        <time>2024-04-14T09:57:04Z</time>
      </trkpt>
      <trkpt lat="47.94512" lon="-0.4775">
        <ele>62.8</ele>
        <time>2024-04-14T09:57:05Z</time>
      </trkpt>
      <trkpt lat="47.94506" lon="-0.47746">
        <ele>62.8</ele>
        <time>2024-04-14T09:57:06Z</time>
      </trkpt>
      <trkpt lat="47.94501" lon="-0.47742">
        <ele>62.8</ele>
        <time>2024-04-14T09:57:07Z</time>
      </trkpt>
      <trkpt lat="47.94495" lon="-0.47738">
        <ele>63.2</ele>
        <time>2024-04-14T09:57:08Z</time>
      </trkpt>
      <trkpt lat="47.9449" lon="-0.47734">
        <ele>62.6</ele>
        <time>2024-04-14T09:57:09Z</time>
      </trkpt>
      <trkpt lat="47.94485" lon="-0.47729">
        <ele>62.6</ele>
        <time>2024-04-14T09:57:10Z</time>
      </trkpt>
      <trkpt lat="47.9448" lon="-0.47725">
        <ele>62.6</ele>
        <time>2024-04-14T09:57:11Z</time>
      </trkpt>
      <trkpt lat="47.94475" lon="-0.4772">
        <ele>62</ele>
        <time>2024-04-14T09:57:12Z</time>
      </trkpt>
      <trkpt lat="47.9447" lon="-0.47714">
        <ele>61.2</ele>
        <time>2024-04-14T09:57:13Z</time>
      </trkpt>
      <trkpt lat="47.94465" lon="-0.47708">
        <ele>61.2</ele>
        <time>2024-04-14T09:57:14Z</time>
      </trkpt>
      <trkpt lat="47.9446" lon="-0.47703">
        <ele>61.2</ele>
        <time>2024-04-14T09:57:15Z</time>
      </trkpt>
      <trkpt lat="47.94455" lon="-0.47697">
        <ele>61.2</ele>
        <time>2024-04-14T09:57:16Z</time>
      </trkpt>
      <trkpt lat="47.94449" lon="-0.47689">
        <ele>58.8</ele>
        <time>2024-04-14T09:57:17Z</time>
      </trkpt>
      <trkpt lat="47.94443" lon="-0.47681">
        <ele>58.8</ele>
        <time>2024-04-14T09:57:18Z</time>
      </trkpt>
      <trkpt lat="47.94437" lon="-0.47673">
        <ele>58.8</ele>
        <time>2024-04-14T09:57:19Z</time>
      </trkpt>
      <trkpt lat="47.94432" lon="-0.47664">
        <ele>57.8</ele>
        <time>2024-04-14T09:57:20Z</time>
      </trkpt>
      <trkpt lat="47.94428" lon="-0.47655">
        <ele>56.4</ele>
        <time>2024-04-14T09:57:21Z</time>
      </trkpt>
      <trkpt lat="47.94423" lon="-0.47645">
        <ele>56.4</ele>
        <time>2024-04-14T09:57:22Z</time>
      </trkpt>
      <trkpt lat="47.94419" lon="-0.47634">
        <ele>56.4</ele>
        <time>2024-04-14T09:57:23Z</time>
      </trkpt>
      <trkpt lat="47.94414" lon="-0.47622">
        <ele>55.4</ele>
        <time>2024-04-14T09:57:24Z</time>
      </trkpt>
      <trkpt lat="47.9441" lon="-0.47611">
        <ele>53</ele>
        <time>2024-04-14T09:57:25Z</time>
      </trkpt>
      <trkpt lat="47.94405" lon="-0.47599">
        <ele>53</ele>
        <time>2024-04-14T09:57:26Z</time>
      </trkpt>
      <trkpt lat="47.944" lon="-0.47587">
        <ele>53</ele>
        <time>2024-04-14T09:57:27Z</time>
      </trkpt>
      <trkpt lat="47.94395" lon="-0.47575">
        <ele>52</ele>
        <time>2024-04-14T09:57:28Z</time>
      </trkpt>
      <trkpt lat="47.9439" lon="-0.47564">
        <ele>50.4</ele>
        <time>2024-04-14T09:57:29Z</time>
      </trkpt>
      <trkpt lat="47.94384" lon="-0.47553">
        <ele>50.4</ele>
        <time>2024-04-14T09:57:30Z</time>
      </trkpt>
      <trkpt lat="47.94377" lon="-0.47543">
        <ele>50.4</ele>
        <time>2024-04-14T09:57:31Z</time>
      </trkpt>
      <trkpt lat="47.94371" lon="-0.47535">
        <ele>49.8</ele>
        <time>2024-04-14T09:57:32Z</time>
      </trkpt>
      <trkpt lat="47.94364" lon="-0.47528">
        <ele>50.4</ele>
        <time>2024-04-14T09:57:33Z</time>
      </trkpt>
      <trkpt lat="47.94356" lon="-0.47522">
        <ele>50.4</ele>
        <time>2024-04-14T09:57:34Z</time>
      </trkpt>
      <trkpt lat="47.94349" lon="-0.47517">
        <ele>50.4</ele>
        <time>2024-04-14T09:57:35Z</time>
      </trkpt>
      <trkpt lat="47.94342" lon="-0.47512">
        <ele>51.4</ele>
        <time>2024-04-14T09:57:36Z</time>
      </trkpt>
      <trkpt lat="47.94336" lon="-0.47508">
        <ele>51.8</ele>
        <time>2024-04-14T09:57:37Z</time>
      </trkpt>
      <trkpt lat="47.9433" lon="-0.47504">
        <ele>51.8</ele>
        <time>2024-04-14T09:57:38Z</time>
      </trkpt>
      <trkpt lat="47.94324" lon="-0.475">
        <ele>51.8</ele>
        <time>2024-04-14T09:57:39Z</time>
      </trkpt>
      <trkpt lat="47.94318" lon="-0.47496">
        <ele>52.8</ele>
        <time>2024-04-14T09:57:40Z</time>
      </trkpt>
      <trkpt lat="47.94313" lon="-0.47492">
        <ele>54</ele>
        <time>2024-04-14T09:57:41Z</time>
      </trkpt>
      <trkpt lat="47.94307" lon="-0.47489">
        <ele>54</ele>
        <time>2024-04-14T09:57:42Z</time>
      </trkpt>
      <trkpt lat="47.94301" lon="-0.47484">
        <ele>54</ele>
        <time>2024-04-14T09:57:43Z</time>
      </trkpt>
      <trkpt lat="47.94295" lon="-0.4748">
        <ele>54</ele>
        <time>2024-04-14T09:57:44Z</time>
      </trkpt>
      <trkpt lat="47.94289" lon="-0.47476">
        <ele>54.4</ele>
        <time>2024-04-14T09:57:45Z</time>
      </trkpt>
      <trkpt lat="47.94284" lon="-0.47472">
        <ele>54.4</ele>
        <time>2024-04-14T09:57:46Z</time>
      </trkpt>
      <trkpt lat="47.94279" lon="-0.47468">
        <ele>54.4</ele>
        <time>2024-04-14T09:57:47Z</time>
      </trkpt>
      <trkpt lat="47.94273" lon="-0.47465">
        <ele>55.4</ele>
        <time>2024-04-14T09:57:48Z</time>
      </trkpt>
      <trkpt lat="47.94268" lon="-0.47461">
        <ele>55.6</ele>
        <time>2024-04-14T09:57:49Z</time>
      </trkpt>
      <trkpt lat="47.94263" lon="-0.47458">
        <ele>55.6</ele>
        <time>2024-04-14T09:57:50Z</time>
      </trkpt>
      <trkpt lat="47.94257" lon="-0.47454">
        <ele>55.6</ele>
        <time>2024-04-14T09:57:51Z</time>
      </trkpt>
      <trkpt lat="47.94252" lon="-0.4745">
        <ele>55.6</ele>
        <time>2024-04-14T09:57:52Z</time>
      </trkpt>
      <trkpt lat="47.94247" lon="-0.47446">
        <ele>55.4</ele>
        <time>2024-04-14T09:57:53Z</time>
      </trkpt>
      <trkpt lat="47.94242" lon="-0.47443">
        <ele>55.4</ele>
        <time>2024-04-14T09:57:54Z</time>
      </trkpt>
      <trkpt lat="47.94237" lon="-0.4744">
        <ele>55.4</ele>
        <time>2024-04-14T09:57:55Z</time>
      </trkpt>
      <trkpt lat="47.94232" lon="-0.47437">
        <ele>56.4</ele>
        <time>2024-04-14T09:57:56Z</time>
      </trkpt>
      <trkpt lat="47.94228" lon="-0.47434">
        <ele>57</ele>
        <time>2024-04-14T09:57:57Z</time>
      </trkpt>
      <trkpt lat="47.94223" lon="-0.47431">
        <ele>57</ele>
        <time>2024-04-14T09:57:58Z</time>
      </trkpt>
      <trkpt lat="47.94219" lon="-0.47428">
        <ele>57</ele>
        <time>2024-04-14T09:57:59Z</time>
      </trkpt>
      <trkpt lat="47.94215" lon="-0.47425">
        <ele>57</ele>
        <time>2024-04-14T09:58:00Z</time>
      </trkpt>
      <trkpt lat="47.94211" lon="-0.47422">
        <ele>58.8</ele>
        <time>2024-04-14T09:58:01Z</time>
      </trkpt>
      <trkpt lat="47.94206" lon="-0.47418">
        <ele>58.8</ele>
        <time>2024-04-14T09:58:02Z</time>
      </trkpt>
      <trkpt lat="47.94201" lon="-0.47415">
        <ele>58.8</ele>
        <time>2024-04-14T09:58:03Z</time>
      </trkpt>
      <trkpt lat="47.94197" lon="-0.47412">
        <ele>58.8</ele>
        <time>2024-04-14T09:58:04Z</time>
      </trkpt>
      <trkpt lat="47.94192" lon="-0.47409">
        <ele>58.6</ele>
        <time>2024-04-14T09:58:05Z</time>
      </trkpt>
      <trkpt lat="47.94187" lon="-0.47406">
        <ele>58.6</ele>
        <time>2024-04-14T09:58:06Z</time>
      </trkpt>
      <trkpt lat="47.94183" lon="-0.47403">
        <ele>58.6</ele>
        <time>2024-04-14T09:58:07Z</time>
      </trkpt>
      <trkpt lat="47.94178" lon="-0.474">
        <ele>59</ele>
        <time>2024-04-14T09:58:08Z</time>
      </trkpt>
      <trkpt lat="47.94174" lon="-0.47398">
        <ele>60</ele>
        <time>2024-04-14T09:58:09Z</time>
      </trkpt>
      <trkpt lat="47.9417" lon="-0.47395">
        <ele>60</ele>
        <time>2024-04-14T09:58:10Z</time>
      </trkpt>
      <trkpt lat="47.94165" lon="-0.47392">
        <ele>60</ele>
        <time>2024-04-14T09:58:11Z</time>
      </trkpt>
      <trkpt lat="47.94161" lon="-0.47388">
        <ele>60.2</ele>
        <time>2024-04-14T09:58:12Z</time>
      </trkpt>
      <trkpt lat="47.94157" lon="-0.47386">
        <ele>60.4</ele>
        <time>2024-04-14T09:58:13Z</time>
      </trkpt>
      <trkpt lat="47.94153" lon="-0.47384">
        <ele>60.4</ele>
        <time>2024-04-14T09:58:14Z</time>
      </trkpt>
      <trkpt lat="47.94149" lon="-0.47381">
        <ele>60.4</ele>
        <time>2024-04-14T09:58:15Z</time>
      </trkpt>
      <trkpt lat="47.94144" lon="-0.47378">
        <ele>60.4</ele>
        <time>2024-04-14T09:58:16Z</time>
      </trkpt>
      <trkpt lat="47.9414" lon="-0.47375">
        <ele>61.2</ele>
        <time>2024-04-14T09:58:17Z</time>
      </trkpt>
      <trkpt lat="47.94135" lon="-0.47372">
        <ele>61.2</ele>
        <time>2024-04-14T09:58:18Z</time>
      </trkpt>
      <trkpt lat="47.94131" lon="-0.47369">
        <ele>61.2</ele>
        <time>2024-04-14T09:58:19Z</time>
      </trkpt>
      <trkpt lat="47.94127" lon="-0.47366">
        <ele>61.2</ele>
        <time>2024-04-14T09:58:20Z</time>
      </trkpt>
      <trkpt lat="47.94122" lon="-0.47363">
        <ele>62.2</ele>
        <time>2024-04-14T09:58:21Z</time>
      </trkpt>
      <trkpt lat="47.94118" lon="-0.4736">
        <ele>62.2</ele>
        <time>2024-04-14T09:58:22Z</time>
      </trkpt>
      <trkpt lat="47.94113" lon="-0.47357">
        <ele>62.2</ele>
        <time>2024-04-14T09:58:23Z</time>
      </trkpt>
      <trkpt lat="47.94108" lon="-0.47353">
        <ele>61.8</ele>
        <time>2024-04-14T09:58:24Z</time>
      </trkpt>
      <trkpt lat="47.94104" lon="-0.47349">
        <ele>61.4</ele>
        <time>2024-04-14T09:58:25Z</time>
      </trkpt>
      <trkpt lat="47.94099" lon="-0.47346">
        <ele>61.4</ele>
        <time>2024-04-14T09:58:26Z</time>
      </trkpt>
      <trkpt lat="47.94094" lon="-0.47343">
        <ele>61.4</ele>
        <time>2024-04-14T09:58:27Z</time>
      </trkpt>
      <trkpt lat="47.9409" lon="-0.4734">
        <ele>61.4</ele>
        <time>2024-04-14T09:58:28Z</time>
      </trkpt>
      <trkpt lat="47.94085" lon="-0.47337">
        <ele>61.2</ele>
        <time>2024-04-14T09:58:29Z</time>
      </trkpt>
      <trkpt lat="47.94079" lon="-0.47333">
        <ele>61.2</ele>
        <time>2024-04-14T09:58:30Z</time>
      </trkpt>
      <trkpt lat="47.94074" lon="-0.4733">
        <ele>61.2</ele>
        <time>2024-04-14T09:58:31Z</time>
      </trkpt>
      <trkpt lat="47.94068" lon="-0.47326">
        <ele>60.2</ele>
        <time>2024-04-14T09:58:32Z</time>
      </trkpt>
      <trkpt lat="47.94062" lon="-0.47322">
        <ele>59.4</ele>
        <time>2024-04-14T09:58:33Z</time>
      </trkpt>
      <trkpt lat="47.94057" lon="-0.47318">
        <ele>59.4</ele>
        <time>2024-04-14T09:58:34Z</time>
      </trkpt>
      <trkpt lat="47.94051" lon="-0.47314">
        <ele>59.4</ele>
        <time>2024-04-14T09:58:35Z</time>
      </trkpt>
      <trkpt lat="47.94045" lon="-0.47311">
        <ele>58.6</ele>
        <time>2024-04-14T09:58:36Z</time>
      </trkpt>
      <trkpt lat="47.94039" lon="-0.47306">
        <ele>58.6</ele>
        <time>2024-04-14T09:58:37Z</time>
      </trkpt>
      <trkpt lat="47.94033" lon="-0.47302">
        <ele>58.6</ele>
        <time>2024-04-14T09:58:38Z</time>
      </trkpt>
      <trkpt lat="47.94027" lon="-0.47298">
        <ele>58.6</ele>
        <time>2024-04-14T09:58:39Z</time>
      </trkpt>
      <trkpt lat="47.94022" lon="-0.47293">
        <ele>59.4</ele>
        <time>2024-04-14T09:58:40Z</time>
      </trkpt>
      <trkpt lat="47.94017" lon="-0.47288">
        <ele>59.4</ele>
        <time>2024-04-14T09:58:41Z</time>
      </trkpt>
      <trkpt lat="47.94012" lon="-0.47284">
        <ele>59.4</ele>
        <time>2024-04-14T09:58:42Z</time>
      </trkpt>
      <trkpt lat="47.94008" lon="-0.47279">
        <ele>59.4</ele>
        <time>2024-04-14T09:58:43Z</time>
      </trkpt>
      <trkpt lat="47.94003" lon="-0.47275">
        <ele>60.2</ele>
        <time>2024-04-14T09:58:44Z</time>
      </trkpt>
      <trkpt lat="47.93999" lon="-0.4727">
        <ele>61</ele>
        <time>2024-04-14T09:58:45Z</time>
      </trkpt>
      <trkpt lat="47.93995" lon="-0.47266">
        <ele>61</ele>
        <time>2024-04-14T09:58:46Z</time>
      </trkpt>
      <trkpt lat="47.93991" lon="-0.47261">
        <ele>61</ele>
        <time>2024-04-14T09:58:47Z</time>
      </trkpt>
      <trkpt lat="47.93987" lon="-0.47256">
        <ele>61</ele>
        <time>2024-04-14T09:58:48Z</time>
      </trkpt>
      <trkpt lat="47.93983" lon="-0.47251">
        <ele>61.2</ele>
        <time>2024-04-14T09:58:49Z</time>
      </trkpt>
      <trkpt lat="47.93978" lon="-0.47246">
        <ele>61.2</ele>
        <time>2024-04-14T09:58:50Z</time>
      </trkpt>
      <trkpt lat="47.93975" lon="-0.47242">
        <ele>61.2</ele>
        <time>2024-04-14T09:58:51Z</time>
      </trkpt>
      <trkpt lat="47.93971" lon="-0.47237">
        <ele>61.8</ele>
        <time>2024-04-14T09:58:52Z</time>
      </trkpt>
      <trkpt lat="47.93967" lon="-0.47233">
        <ele>62.6</ele>
        <time>2024-04-14T09:58:53Z</time>
      </trkpt>
      <trkpt lat="47.93963" lon="-0.47229">
        <ele>62.6</ele>
        <time>2024-04-14T09:58:54Z</time>
      </trkpt>
      <trkpt lat="47.93959" lon="-0.47225">
        <ele>62.6</ele>
        <time>2024-04-14T09:58:55Z</time>
      </trkpt>
      <trkpt lat="47.93955" lon="-0.47222">
        <ele>63.4</ele>
        <time>2024-04-14T09:58:56Z</time>
      </trkpt>
      <trkpt lat="47.93952" lon="-0.47218">
        <ele>63.2</ele>
        <time>2024-04-14T09:58:57Z</time>
      </trkpt>
      <trkpt lat="47.93947" lon="-0.47214">
        <ele>63.2</ele>
        <time>2024-04-14T09:58:58Z</time>
      </trkpt>
      <trkpt lat="47.93943" lon="-0.4721">
        <ele>63.2</ele>
        <time>2024-04-14T09:58:59Z</time>
      </trkpt>
      <trkpt lat="47.93939" lon="-0.47206">
        <ele>63.2</ele>
        <time>2024-04-14T09:59:00Z</time>
      </trkpt>
      <trkpt lat="47.93935" lon="-0.47201">
        <ele>63.8</ele>
        <time>2024-04-14T09:59:01Z</time>
      </trkpt>
      <trkpt lat="47.93931" lon="-0.47197">
        <ele>63.8</ele>
        <time>2024-04-14T09:59:02Z</time>
      </trkpt>
      <trkpt lat="47.93926" lon="-0.47192">
        <ele>63.8</ele>
        <time>2024-04-14T09:59:03Z</time>
      </trkpt>
      <trkpt lat="47.93922" lon="-0.47188">
        <ele>63.2</ele>
        <time>2024-04-14T09:59:04Z</time>
      </trkpt>
      <trkpt lat="47.93917" lon="-0.47183">
        <ele>63.2</ele>
        <time>2024-04-14T09:59:05Z</time>
      </trkpt>
      <trkpt lat="47.93913" lon="-0.47178">
        <ele>63.2</ele>
        <time>2024-04-14T09:59:06Z</time>
      </trkpt>
      <trkpt lat="47.93909" lon="-0.47171">
        <ele>63.2</ele>
        <time>2024-04-14T09:59:07Z</time>
      </trkpt>
      <trkpt lat="47.93905" lon="-0.47165">
        <ele>62.8</ele>
        <time>2024-04-14T09:59:08Z</time>
      </trkpt>
      <trkpt lat="47.939" lon="-0.47158">
        <ele>62.4</ele>
        <time>2024-04-14T09:59:09Z</time>
      </trkpt>
      <trkpt lat="47.93896" lon="-0.47152">
        <ele>62.4</ele>
        <time>2024-04-14T09:59:10Z</time>
      </trkpt>
      <trkpt lat="47.93893" lon="-0.47146">
        <ele>62.4</ele>
        <time>2024-04-14T09:59:11Z</time>
      </trkpt>
      <trkpt lat="47.93889" lon="-0.47139">
        <ele>62.2</ele>
        <time>2024-04-14T09:59:12Z</time>
      </trkpt>
      <trkpt lat="47.93885" lon="-0.47133">
        <ele>61.8</ele>
        <time>2024-04-14T09:59:13Z</time>
      </trkpt>
      <trkpt lat="47.93881" lon="-0.47127">
        <ele>61.8</ele>
        <time>2024-04-14T09:59:14Z</time>
      </trkpt>
      <trkpt lat="47.93878" lon="-0.47121">
        <ele>61.8</ele>
        <time>2024-04-14T09:59:15Z</time>
      </trkpt>
      <trkpt lat="47.93875" lon="-0.47115">
        <ele>62.8</ele>
        <time>2024-04-14T09:59:16Z</time>
      </trkpt>
      <trkpt lat="47.93872" lon="-0.47109">
        <ele>63.2</ele>
        <time>2024-04-14T09:59:17Z</time>
      </trkpt>
      <trkpt lat="47.93868" lon="-0.47103">
        <ele>63.2</ele>
        <time>2024-04-14T09:59:18Z</time>
      </trkpt>
      <trkpt lat="47.93865" lon="-0.47098">
        <ele>63.2</ele>
        <time>2024-04-14T09:59:19Z</time>
      </trkpt>
      <trkpt lat="47.93862" lon="-0.47092">
        <ele>63.2</ele>
        <time>2024-04-14T09:59:20Z</time>
      </trkpt>
      <trkpt lat="47.93859" lon="-0.47087">
        <ele>63.4</ele>
        <time>2024-04-14T09:59:21Z</time>
      </trkpt>
      <trkpt lat="47.93856" lon="-0.47082">
        <ele>63.4</ele>
        <time>2024-04-14T09:59:22Z</time>
      </trkpt>
      <trkpt lat="47.93853" lon="-0.47076">
        <ele>63.4</ele>
        <time>2024-04-14T09:59:23Z</time>
      </trkpt>
      <trkpt lat="47.93849" lon="-0.47071">
        <ele>63.4</ele>
        <time>2024-04-14T09:59:24Z</time>
      </trkpt>
      <trkpt lat="47.93846" lon="-0.47065">
        <ele>64</ele>
        <time>2024-04-14T09:59:25Z</time>
      </trkpt>
      <trkpt lat="47.93843" lon="-0.4706">
        <ele>64</ele>
        <time>2024-04-14T09:59:26Z</time>
      </trkpt>
      <trkpt lat="47.9384" lon="-0.47054">
        <ele>64</ele>
        <time>2024-04-14T09:59:27Z</time>
      </trkpt>
      <trkpt lat="47.93837" lon="-0.47048">
        <ele>64</ele>
        <time>2024-04-14T09:59:28Z</time>
      </trkpt>
      <trkpt lat="47.93833" lon="-0.47042">
        <ele>64.6</ele>
        <time>2024-04-14T09:59:29Z</time>
      </trkpt>
      <trkpt lat="47.9383" lon="-0.47037">
        <ele>64.6</ele>
        <time>2024-04-14T09:59:30Z</time>
      </trkpt>
      <trkpt lat="47.93826" lon="-0.47031">
        <ele>64.6</ele>
        <time>2024-04-14T09:59:31Z</time>
      </trkpt>
      <trkpt lat="47.93823" lon="-0.47026">
        <ele>64.6</ele>
        <time>2024-04-14T09:59:32Z</time>
      </trkpt>
      <trkpt lat="47.9382" lon="-0.4702">
        <ele>65</ele>
        <time>2024-04-14T09:59:33Z</time>
      </trkpt>
      <trkpt lat="47.93816" lon="-0.47015">
        <ele>65</ele>
        <time>2024-04-14T09:59:34Z</time>
      </trkpt>
      <trkpt lat="47.93813" lon="-0.47009">
        <ele>65</ele>
        <time>2024-04-14T09:59:35Z</time>
      </trkpt>
      <trkpt lat="47.9381" lon="-0.47004">
        <ele>65</ele>
        <time>2024-04-14T09:59:36Z</time>
      </trkpt>
      <trkpt lat="47.93807" lon="-0.46998">
        <ele>65.4</ele>
        <time>2024-04-14T09:59:37Z</time>
      </trkpt>
      <trkpt lat="47.93804" lon="-0.46992">
        <ele>65.4</ele>
        <time>2024-04-14T09:59:38Z</time>
      </trkpt>
      <trkpt lat="47.938" lon="-0.46986">
        <ele>65.4</ele>
        <time>2024-04-14T09:59:39Z</time>
      </trkpt>
      <trkpt lat="47.93796" lon="-0.46981">
        <ele>65.4</ele>
        <time>2024-04-14T09:59:40Z</time>
      </trkpt>
      <trkpt lat="47.93793" lon="-0.46975">
        <ele>65.4</ele>
        <time>2024-04-14T09:59:41Z</time>
      </trkpt>
      <trkpt lat="47.93789" lon="-0.46969">
        <ele>65.4</ele>
        <time>2024-04-14T09:59:42Z</time>
      </trkpt>
      <trkpt lat="47.93785" lon="-0.46962">
        <ele>65.4</ele>
        <time>2024-04-14T09:59:43Z</time>
      </trkpt>
      <trkpt lat="47.93782" lon="-0.46957">
        <ele>65.4</ele>
        <time>2024-04-14T09:59:44Z</time>
      </trkpt>
      <trkpt lat="47.93779" lon="-0.46951">
        <ele>66.4</ele>
        <time>2024-04-14T09:59:45Z</time>
      </trkpt>
      <trkpt lat="47.93775" lon="-0.46946">
        <ele>66.4</ele>
        <time>2024-04-14T09:59:46Z</time>
      </trkpt>
      <trkpt lat="47.93772" lon="-0.46941">
        <ele>66.4</ele>
        <time>2024-04-14T09:59:47Z</time>
      </trkpt>
      <trkpt lat="47.93768" lon="-0.46935">
        <ele>66.4</ele>
        <time>2024-04-14T09:59:48Z</time>
      </trkpt>
      <trkpt lat="47.93765" lon="-0.4693">
        <ele>66.8</ele>
        <time>2024-04-14T09:59:49Z</time>
      </trkpt>
      <trkpt lat="47.93762" lon="-0.46924">
        <ele>66.8</ele>
        <time>2024-04-14T09:59:50Z</time>
      </trkpt>
      <trkpt lat="47.93758" lon="-0.46918">
        <ele>66.8</ele>
        <time>2024-04-14T09:59:51Z</time>
      </trkpt>
      <trkpt lat="47.93756" lon="-0.46911">
        <ele>66.8</ele>
        <time>2024-04-14T09:59:52Z</time>
      </trkpt>
      <trkpt lat="47.93753" lon="-0.46905">
        <ele>67.2</ele>
        <time>2024-04-14T09:59:53Z</time>
      </trkpt>
      <trkpt lat="47.9375" lon="-0.469">
        <ele>67.2</ele>
        <time>2024-04-14T09:59:54Z</time>
      </trkpt>
      <trkpt lat="47.93747" lon="-0.46895">
        <ele>67.2</ele>
        <time>2024-04-14T09:59:55Z</time>
      </trkpt>
      <trkpt lat="47.93743" lon="-0.4689">
        <ele>67.2</ele>
        <time>2024-04-14T09:59:56Z</time>
      </trkpt>
      <trkpt lat="47.93739" lon="-0.46887">
        <ele>66.4</ele>
        <time>2024-04-14T09:59:57Z</time>
      </trkpt>
      <trkpt lat="47.93736" lon="-0.46882">
        <ele>66.4</ele>
        <time>2024-04-14T09:59:58Z</time>
      </trkpt>
      <trkpt lat="47.93733" lon="-0.46877">
        <ele>66.4</ele>
        <time>2024-04-14T09:59:59Z</time>
      </trkpt>
      <trkpt lat="47.93729" lon="-0.46873">
        <ele>66.4</ele>
        <time>2024-04-14T10:00:00Z</time>
      </trkpt>
      <trkpt lat="47.93725" lon="-0.4687">
        <ele>66.4</ele>
        <time>2024-04-14T10:00:01Z</time>
      </trkpt>
      <trkpt lat="47.93723" lon="-0.46866">
        <ele>66.4</ele>
        <time>2024-04-14T10:00:02Z</time>
      </trkpt>
      <trkpt lat="47.9372" lon="-0.46862">
        <ele>66.4</ele>
        <time>2024-04-14T10:00:03Z</time>
      </trkpt>
      <trkpt lat="47.93716" lon="-0.46856">
        <ele>66.8</ele>
        <time>2024-04-14T10:00:04Z</time>
      </trkpt>
      <trkpt lat="47.93713" lon="-0.46849">
        <ele>66.8</ele>
        <time>2024-04-14T10:00:05Z</time>
      </trkpt>
      <trkpt lat="47.93709" lon="-0.46843">
        <ele>66.8</ele>
        <time>2024-04-14T10:00:06Z</time>
      </trkpt>
      <trkpt lat="47.93706" lon="-0.46836">
        <ele>66.8</ele>
        <time>2024-04-14T10:00:07Z</time>
      </trkpt>
      <trkpt lat="47.93703" lon="-0.4683">
        <ele>65.8</ele>
        <time>2024-04-14T10:00:08Z</time>
      </trkpt>
      <trkpt lat="47.93699" lon="-0.46822">
        <ele>66.2</ele>
        <time>2024-04-14T10:00:09Z</time>
      </trkpt>
      <trkpt lat="47.93696" lon="-0.46815">
        <ele>66.2</ele>
        <time>2024-04-14T10:00:10Z</time>
      </trkpt>
      <trkpt lat="47.93693" lon="-0.46807">
        <ele>66.2</ele>
        <time>2024-04-14T10:00:11Z</time>
      </trkpt>
      <trkpt lat="47.93689" lon="-0.46799">
        <ele>65.2</ele>
        <time>2024-04-14T10:00:12Z</time>
      </trkpt>
      <trkpt lat="47.93685" lon="-0.46791">
        <ele>64.6</ele>
        <time>2024-04-14T10:00:13Z</time>
      </trkpt>
      <trkpt lat="47.93681" lon="-0.46782">
        <ele>64.6</ele>
        <time>2024-04-14T10:00:14Z</time>
      </trkpt>
      <trkpt lat="47.93678" lon="-0.46773">
        <ele>64.6</ele>
        <time>2024-04-14T10:00:15Z</time>
      </trkpt>
      <trkpt lat="47.93674" lon="-0.46764">
        <ele>64.2</ele>
        <time>2024-04-14T10:00:16Z</time>
      </trkpt>
      <trkpt lat="47.9367" lon="-0.46754">
        <ele>63.8</ele>
        <time>2024-04-14T10:00:17Z</time>
      </trkpt>
      <trkpt lat="47.93667" lon="-0.46744">
        <ele>63.8</ele>
        <time>2024-04-14T10:00:18Z</time>
      </trkpt>
      <trkpt lat="47.93663" lon="-0.46734">
        <ele>63.8</ele>
        <time>2024-04-14T10:00:19Z</time>
      </trkpt>
      <trkpt lat="47.9366" lon="-0.46725">
        <ele>63.8</ele>
        <time>2024-04-14T10:00:20Z</time>
      </trkpt>
      <trkpt lat="47.93656" lon="-0.46715">
        <ele>62.6</ele>
        <time>2024-04-14T10:00:21Z</time>
      </trkpt>
      <trkpt lat="47.93652" lon="-0.46705">
        <ele>62.6</ele>
        <time>2024-04-14T10:00:22Z</time>
      </trkpt>
      <trkpt lat="47.93649" lon="-0.46696">
        <ele>62.6</ele>
        <time>2024-04-14T10:00:23Z</time>
      </trkpt>
      <trkpt lat="47.93645" lon="-0.46686">
        <ele>61.6</ele>
        <time>2024-04-14T10:00:24Z</time>
      </trkpt>
      <trkpt lat="47.93641" lon="-0.46676">
        <ele>61.8</ele>
        <time>2024-04-14T10:00:25Z</time>
      </trkpt>
      <trkpt lat="47.93637" lon="-0.46667">
        <ele>61.8</ele>
        <time>2024-04-14T10:00:26Z</time>
      </trkpt>
      <trkpt lat="47.93634" lon="-0.46658">
        <ele>61.8</ele>
        <time>2024-04-14T10:00:27Z</time>
      </trkpt>
      <trkpt lat="47.9363" lon="-0.46649">
        <ele>61.8</ele>
        <time>2024-04-14T10:00:28Z</time>
      </trkpt>
      <trkpt lat="47.93626" lon="-0.4664">
        <ele>61.2</ele>
        <time>2024-04-14T10:00:29Z</time>
      </trkpt>
      <trkpt lat="47.93622" lon="-0.46634">
        <ele>61.2</ele>
        <time>2024-04-14T10:00:30Z</time>
      </trkpt>
      <trkpt lat="47.93618" lon="-0.46629">
        <ele>61.2</ele>
        <time>2024-04-14T10:00:31Z</time>
      </trkpt>
      <trkpt lat="47.93613" lon="-0.46627">
        <ele>62.2</ele>
        <time>2024-04-14T10:00:32Z</time>
      </trkpt>
      <trkpt lat="47.93609" lon="-0.46627">
        <ele>63.6</ele>
        <time>2024-04-14T10:00:33Z</time>
      </trkpt>
      <trkpt lat="47.93605" lon="-0.46628">
        <ele>63.6</ele>
        <time>2024-04-14T10:00:34Z</time>
      </trkpt>
      <trkpt lat="47.93601" lon="-0.46627">
        <ele>63.6</ele>
        <time>2024-04-14T10:00:35Z</time>
      </trkpt>
      <trkpt lat="47.93597" lon="-0.46626">
        <ele>64.6</ele>
        <time>2024-04-14T10:00:36Z</time>
      </trkpt>
      <trkpt lat="47.93593" lon="-0.46624">
        <ele>64</ele>
        <time>2024-04-14T10:00:37Z</time>
      </trkpt>
      <trkpt lat="47.93589" lon="-0.46621">
        <ele>64</ele>
        <time>2024-04-14T10:00:38Z</time>
      </trkpt>
      <trkpt lat="47.93585" lon="-0.46619">
        <ele>64</ele>
        <time>2024-04-14T10:00:39Z</time>
      </trkpt>
      <trkpt lat="47.9358" lon="-0.46615">
        <ele>64</ele>
        <time>2024-04-14T10:00:40Z</time>
      </trkpt>
      <trkpt lat="47.93575" lon="-0.46612">
        <ele>62.6</ele>
        <time>2024-04-14T10:00:41Z</time>
      </trkpt>
      <trkpt lat="47.93571" lon="-0.46608">
        <ele>62.6</ele>
        <time>2024-04-14T10:00:42Z</time>
      </trkpt>
      <trkpt lat="47.93566" lon="-0.46605">
        <ele>62.6</ele>
        <time>2024-04-14T10:00:43Z</time>
      </trkpt>
      <trkpt lat="47.93561" lon="-0.46601">
        <ele>62.6</ele>
        <time>2024-04-14T10:00:44Z</time>
      </trkpt>
      <trkpt lat="47.93557" lon="-0.46598">
        <ele>65</ele>
        <time>2024-04-14T10:00:45Z</time>
      </trkpt>
      <trkpt lat="47.93552" lon="-0.46594">
        <ele>65</ele>
        <time>2024-04-14T10:00:46Z</time>
      </trkpt>
      <trkpt lat="47.93548" lon="-0.46591">
        <ele>65</ele>
        <time>2024-04-14T10:00:47Z</time>
      </trkpt>
      <trkpt lat="47.93543" lon="-0.46588">
        <ele>64</ele>
        <time>2024-04-14T10:00:48Z</time>
      </trkpt>
      <trkpt lat="47.93539" lon="-0.46585">
        <ele>62</ele>
        <time>2024-04-14T10:00:49Z</time>
      </trkpt>
      <trkpt lat="47.93535" lon="-0.46582">
        <ele>62</ele>
        <time>2024-04-14T10:00:50Z</time>
      </trkpt>
      <trkpt lat="47.93531" lon="-0.46579">
        <ele>62</ele>
        <time>2024-04-14T10:00:51Z</time>
      </trkpt>
      <trkpt lat="47.93527" lon="-0.46577">
        <ele>62</ele>
        <time>2024-04-14T10:00:52Z</time>
      </trkpt>
      <trkpt lat="47.93524" lon="-0.46574">
        <ele>64.6</ele>
        <time>2024-04-14T10:00:53Z</time>
      </trkpt>
      <trkpt lat="47.9352" lon="-0.46571">
        <ele>64.6</ele>
        <time>2024-04-14T10:00:54Z</time>
      </trkpt>
      <trkpt lat="47.93516" lon="-0.46568">
        <ele>64.6</ele>
        <time>2024-04-14T10:00:55Z</time>
      </trkpt>
      <trkpt lat="47.93512" lon="-0.46565">
        <ele>64.6</ele>
        <time>2024-04-14T10:00:56Z</time>
      </trkpt>
      <trkpt lat="47.93508" lon="-0.46561">
        <ele>64.6</ele>
        <time>2024-04-14T10:00:57Z</time>
      </trkpt>
      <trkpt lat="47.93503" lon="-0.46557">
        <ele>64.6</ele>
        <time>2024-04-14T10:00:58Z</time>
      </trkpt>
      <trkpt lat="47.93498" lon="-0.46554">
        <ele>64.6</ele>
        <time>2024-04-14T10:00:59Z</time>
      </trkpt>
      <trkpt lat="47.93493" lon="-0.46551">
        <ele>65.2</ele>
        <time>2024-04-14T10:01:00Z</time>
      </trkpt>
      <trkpt lat="47.93488" lon="-0.46548">
        <ele>65.6</ele>
        <time>2024-04-14T10:01:01Z</time>
      </trkpt>
      <trkpt lat="47.93484" lon="-0.46544">
        <ele>65.6</ele>
        <time>2024-04-14T10:01:02Z</time>
      </trkpt>
      <trkpt lat="47.93479" lon="-0.46541">
        <ele>65.6</ele>
        <time>2024-04-14T10:01:03Z</time>
      </trkpt>
      <trkpt lat="47.93475" lon="-0.46537">
        <ele>65.6</ele>
        <time>2024-04-14T10:01:04Z</time>
      </trkpt>
      <trkpt lat="47.9347" lon="-0.46533">
        <ele>66.6</ele>
        <time>2024-04-14T10:01:05Z</time>
      </trkpt>
      <trkpt lat="47.93466" lon="-0.4653">
        <ele>66.6</ele>
        <time>2024-04-14T10:01:06Z</time>
      </trkpt>
      <trkpt lat="47.93461" lon="-0.46527">
        <ele>66.6</ele>
        <time>2024-04-14T10:01:07Z</time>
      </trkpt>
      <trkpt lat="47.93457" lon="-0.46523">
        <ele>67.4</ele>
        <time>2024-04-14T10:01:08Z</time>
      </trkpt>
      <trkpt lat="47.93453" lon="-0.4652">
        <ele>67.6</ele>
        <time>2024-04-14T10:01:09Z</time>
      </trkpt>
      <trkpt lat="47.93449" lon="-0.46516">
        <ele>67.6</ele>
        <time>2024-04-14T10:01:10Z</time>
      </trkpt>
      <trkpt lat="47.93445" lon="-0.46513">
        <ele>67.6</ele>
        <time>2024-04-14T10:01:11Z</time>
      </trkpt>
      <trkpt lat="47.9344" lon="-0.4651">
        <ele>67.6</ele>
        <time>2024-04-14T10:01:12Z</time>
      </trkpt>
      <trkpt lat="47.93436" lon="-0.46507">
        <ele>68.8</ele>
        <time>2024-04-14T10:01:13Z</time>
      </trkpt>
      <trkpt lat="47.93432" lon="-0.46504">
        <ele>68.8</ele>
        <time>2024-04-14T10:01:14Z</time>
      </trkpt>
      <trkpt lat="47.93427" lon="-0.46501">
        <ele>68.8</ele>
        <time>2024-04-14T10:01:15Z</time>
      </trkpt>
      <trkpt lat="47.93423" lon="-0.46497">
        <ele>68.8</ele>
        <time>2024-04-14T10:01:16Z</time>
      </trkpt>
      <trkpt lat="47.93419" lon="-0.46494">
        <ele>69.4</ele>
        <time>2024-04-14T10:01:17Z</time>
      </trkpt>
      <trkpt lat="47.93415" lon="-0.46491">
        <ele>69.4</ele>
        <time>2024-04-14T10:01:18Z</time>
      </trkpt>
      <trkpt lat="47.93411" lon="-0.46488">
        <ele>69.4</ele>
        <time>2024-04-14T10:01:19Z</time>
      </trkpt>
      <trkpt lat="47.93407" lon="-0.46485">
        <ele>69.4</ele>
        <time>2024-04-14T10:01:20Z</time>
      </trkpt>
      <trkpt lat="47.93403" lon="-0.46482">
        <ele>70</ele>
        <time>2024-04-14T10:01:21Z</time>
      </trkpt>
      <trkpt lat="47.934" lon="-0.4648">
        <ele>70</ele>
        <time>2024-04-14T10:01:22Z</time>
      </trkpt>
      <trkpt lat="47.93396" lon="-0.46477">
        <ele>70</ele>
        <time>2024-04-14T10:01:23Z</time>
      </trkpt>
      <trkpt lat="47.93392" lon="-0.46474">
        <ele>70.2</ele>
        <time>2024-04-14T10:01:24Z</time>
      </trkpt>
      <trkpt lat="47.93389" lon="-0.46472">
        <ele>70.6</ele>
        <time>2024-04-14T10:01:25Z</time>
      </trkpt>
      <trkpt lat="47.93385" lon="-0.4647">
        <ele>70.6</ele>
        <time>2024-04-14T10:01:26Z</time>
      </trkpt>
      <trkpt lat="47.93382" lon="-0.46469">
        <ele>70.6</ele>
        <time>2024-04-14T10:01:27Z</time>
      </trkpt>
      <trkpt lat="47.93379" lon="-0.46467">
        <ele>71.2</ele>
        <time>2024-04-14T10:01:28Z</time>
      </trkpt>
      <trkpt lat="47.93376" lon="-0.46465">
        <ele>71</ele>
        <time>2024-04-14T10:01:29Z</time>
      </trkpt>
      <trkpt lat="47.93373" lon="-0.46464">
        <ele>71</ele>
        <time>2024-04-14T10:01:30Z</time>
      </trkpt>
      <trkpt lat="47.93371" lon="-0.46461">
        <ele>71</ele>
        <time>2024-04-14T10:01:31Z</time>
      </trkpt>
      <trkpt lat="47.93368" lon="-0.46458">
        <ele>71.2</ele>
        <time>2024-04-14T10:01:32Z</time>
      </trkpt>
      <trkpt lat="47.93365" lon="-0.46454">
        <ele>71.2</ele>
        <time>2024-04-14T10:01:33Z</time>
      </trkpt>
      <trkpt lat="47.93362" lon="-0.46451">
        <ele>71.2</ele>
        <time>2024-04-14T10:01:34Z</time>
      </trkpt>
      <trkpt lat="47.93358" lon="-0.46447">
        <ele>71.2</ele>
        <time>2024-04-14T10:01:35Z</time>
      </trkpt>
      <trkpt lat="47.93355" lon="-0.46443">
        <ele>70.6</ele>
        <time>2024-04-14T10:01:36Z</time>
      </trkpt>
      <trkpt lat="47.93351" lon="-0.46439">
        <ele>71.2</ele>
        <time>2024-04-14T10:01:37Z</time>
      </trkpt>
      <trkpt lat="47.93347" lon="-0.46436">
        <ele>71.2</ele>
        <time>2024-04-14T10:01:38Z</time>
      </trkpt>
      <trkpt lat="47.93343" lon="-0.46432">
        <ele>71.2</ele>
        <time>2024-04-14T10:01:39Z</time>
      </trkpt>
      <trkpt lat="47.93339" lon="-0.46428">
        <ele>70.2</ele>
        <time>2024-04-14T10:01:40Z</time>
      </trkpt>
      <trkpt lat="47.93335" lon="-0.46424">
        <ele>71.2</ele>
        <time>2024-04-14T10:01:41Z</time>
      </trkpt>
      <trkpt lat="47.93332" lon="-0.46419">
        <ele>71.2</ele>
        <time>2024-04-14T10:01:42Z</time>
      </trkpt>
      <trkpt lat="47.93328" lon="-0.46414">
        <ele>71.2</ele>
        <time>2024-04-14T10:01:43Z</time>
      </trkpt>
      <trkpt lat="47.93325" lon="-0.46408">
        <ele>70.2</ele>
        <time>2024-04-14T10:01:44Z</time>
      </trkpt>
      <trkpt lat="47.93322" lon="-0.46402">
        <ele>69</ele>
        <time>2024-04-14T10:01:45Z</time>
      </trkpt>
      <trkpt lat="47.93318" lon="-0.46396">
        <ele>69</ele>
        <time>2024-04-14T10:01:46Z</time>
      </trkpt>
      <trkpt lat="47.93315" lon="-0.4639">
        <ele>69</ele>
        <time>2024-04-14T10:01:47Z</time>
      </trkpt>
      <trkpt lat="47.93312" lon="-0.46383">
        <ele>69</ele>
        <time>2024-04-14T10:01:48Z</time>
      </trkpt>
      <trkpt lat="47.93308" lon="-0.46377">
        <ele>68</ele>
        <time>2024-04-14T10:01:49Z</time>
      </trkpt>
      <trkpt lat="47.93304" lon="-0.46369">
        <ele>68</ele>
        <time>2024-04-14T10:01:50Z</time>
      </trkpt>
      <trkpt lat="47.933" lon="-0.46362">
        <ele>68</ele>
        <time>2024-04-14T10:01:51Z</time>
      </trkpt>
      <trkpt lat="47.93296" lon="-0.46355">
        <ele>68</ele>
        <time>2024-04-14T10:01:52Z</time>
      </trkpt>
      <trkpt lat="47.93292" lon="-0.46347">
        <ele>65.4</ele>
        <time>2024-04-14T10:01:53Z</time>
      </trkpt>
      <trkpt lat="47.93288" lon="-0.46338">
        <ele>65.4</ele>
        <time>2024-04-14T10:01:54Z</time>
      </trkpt>
      <trkpt lat="47.93284" lon="-0.4633">
        <ele>65.4</ele>
        <time>2024-04-14T10:01:55Z</time>
      </trkpt>
      <trkpt lat="47.9328" lon="-0.46321">
        <ele>64.4</ele>
        <time>2024-04-14T10:01:56Z</time>
      </trkpt>
      <trkpt lat="47.93275" lon="-0.46312">
        <ele>63</ele>
        <time>2024-04-14T10:01:57Z</time>
      </trkpt>
      <trkpt lat="47.9327" lon="-0.46304">
        <ele>63</ele>
        <time>2024-04-14T10:01:58Z</time>
      </trkpt>
      <trkpt lat="47.93265" lon="-0.46295">
        <ele>63</ele>
        <time>2024-04-14T10:01:59Z</time>
      </trkpt>
      <trkpt lat="47.9326" lon="-0.46285">
        <ele>62</ele>
        <time>2024-04-14T10:02:00Z</time>
      </trkpt>
      <trkpt lat="47.93254" lon="-0.46276">
        <ele>60.2</ele>
        <time>2024-04-14T10:02:01Z</time>
      </trkpt>
      <trkpt lat="47.93248" lon="-0.46267">
        <ele>60.2</ele>
        <time>2024-04-14T10:02:02Z</time>
      </trkpt>
      <trkpt lat="47.93242" lon="-0.46258">
        <ele>60.2</ele>
        <time>2024-04-14T10:02:03Z</time>
      </trkpt>
      <trkpt lat="47.93236" lon="-0.46249">
        <ele>59.2</ele>
        <time>2024-04-14T10:02:04Z</time>
      </trkpt>
      <trkpt lat="47.9323" lon="-0.46241">
        <ele>58.2</ele>
        <time>2024-04-14T10:02:05Z</time>
      </trkpt>
      <trkpt lat="47.93223" lon="-0.46232">
        <ele>58.2</ele>
        <time>2024-04-14T10:02:06Z</time>
      </trkpt>
      <trkpt lat="47.93216" lon="-0.46224">
        <ele>58.2</ele>
        <time>2024-04-14T10:02:07Z</time>
      </trkpt>
      <trkpt lat="47.9321" lon="-0.46215">
        <ele>58.2</ele>
        <time>2024-04-14T10:02:08Z</time>
      </trkpt>
      <trkpt lat="47.93203" lon="-0.46207">
        <ele>58</ele>
        <time>2024-04-14T10:02:09Z</time>
      </trkpt>
      <trkpt lat="47.93197" lon="-0.46199">
        <ele>58</ele>
        <time>2024-04-14T10:02:10Z</time>
      </trkpt>
      <trkpt lat="47.93191" lon="-0.46191">
        <ele>58</ele>
        <time>2024-04-14T10:02:11Z</time>
      </trkpt>
      <trkpt lat="47.93184" lon="-0.46183">
        <ele>57.4</ele>
        <time>2024-04-14T10:02:12Z</time>
      </trkpt>
      <trkpt lat="47.93178" lon="-0.46174">
        <ele>57</ele>
        <time>2024-04-14T10:02:13Z</time>
      </trkpt>
      <trkpt lat="47.93172" lon="-0.46165">
        <ele>57</ele>
        <time>2024-04-14T10:02:14Z</time>
      </trkpt>
      <trkpt lat="47.93167" lon="-0.46156">
        <ele>57</ele>
        <time>2024-04-14T10:02:15Z</time>
      </trkpt>
      <trkpt lat="47.93161" lon="-0.46147">
        <ele>56</ele>
        <time>2024-04-14T10:02:16Z</time>
      </trkpt>
      <trkpt lat="47.93155" lon="-0.46138">
        <ele>55.6</ele>
        <time>2024-04-14T10:02:17Z</time>
      </trkpt>
      <trkpt lat="47.93149" lon="-0.46129">
        <ele>55.6</ele>
        <time>2024-04-14T10:02:18Z</time>
      </trkpt>
      <trkpt lat="47.93144" lon="-0.4612">
        <ele>55.6</ele>
        <time>2024-04-14T10:02:19Z</time>
      </trkpt>
      <trkpt lat="47.93138" lon="-0.46112">
        <ele>55</ele>
        <time>2024-04-14T10:02:20Z</time>
      </trkpt>
      <trkpt lat="47.93131" lon="-0.46103">
        <ele>55</ele>
        <time>2024-04-14T10:02:21Z</time>
      </trkpt>
      <trkpt lat="47.93125" lon="-0.46095">
        <ele>55</ele>
        <time>2024-04-14T10:02:22Z</time>
      </trkpt>
      <trkpt lat="47.93118" lon="-0.46088">
        <ele>55</ele>
        <time>2024-04-14T10:02:23Z</time>
      </trkpt>
      <trkpt lat="47.93112" lon="-0.46082">
        <ele>55</ele>
        <time>2024-04-14T10:02:24Z</time>
      </trkpt>
      <trkpt lat="47.93106" lon="-0.46077">
        <ele>56</ele>
        <time>2024-04-14T10:02:25Z</time>
      </trkpt>
      <trkpt lat="47.931" lon="-0.46072">
        <ele>56</ele>
        <time>2024-04-14T10:02:26Z</time>
      </trkpt>
      <trkpt lat="47.93095" lon="-0.46068">
        <ele>56</ele>
        <time>2024-04-14T10:02:27Z</time>
      </trkpt>
      <trkpt lat="47.9309" lon="-0.46064">
        <ele>57</ele>
        <time>2024-04-14T10:02:28Z</time>
      </trkpt>
      <trkpt lat="47.93085" lon="-0.46061">
        <ele>59.4</ele>
        <time>2024-04-14T10:02:29Z</time>
      </trkpt>
      <trkpt lat="47.93079" lon="-0.46058">
        <ele>59.4</ele>
        <time>2024-04-14T10:02:30Z</time>
      </trkpt>
      <trkpt lat="47.93075" lon="-0.46055">
        <ele>59.4</ele>
        <time>2024-04-14T10:02:31Z</time>
      </trkpt>
      <trkpt lat="47.9307" lon="-0.46052">
        <ele>60.4</ele>
        <time>2024-04-14T10:02:32Z</time>
      </trkpt>
      <trkpt lat="47.93066" lon="-0.46049">
        <ele>60.4</ele>
        <time>2024-04-14T10:02:33Z</time>
      </trkpt>
      <trkpt lat="47.93061" lon="-0.46047">
        <ele>60.4</ele>
        <time>2024-04-14T10:02:34Z</time>
      </trkpt>
      <trkpt lat="47.93057" lon="-0.46044">
        <ele>60.4</ele>
        <time>2024-04-14T10:02:35Z</time>
      </trkpt>
      <trkpt lat="47.93053" lon="-0.46041">
        <ele>61.4</ele>
        <time>2024-04-14T10:02:36Z</time>
      </trkpt>
      <trkpt lat="47.93049" lon="-0.46039">
        <ele>62.4</ele>
        <time>2024-04-14T10:02:37Z</time>
      </trkpt>
      <trkpt lat="47.93045" lon="-0.46037">
        <ele>62.4</ele>
        <time>2024-04-14T10:02:38Z</time>
      </trkpt>
      <trkpt lat="47.93041" lon="-0.46035">
        <ele>62.4</ele>
        <time>2024-04-14T10:02:39Z</time>
      </trkpt>
      <trkpt lat="47.93037" lon="-0.46032">
        <ele>63.2</ele>
        <time>2024-04-14T10:02:40Z</time>
      </trkpt>
      <trkpt lat="47.93033" lon="-0.4603">
        <ele>63.4</ele>
        <time>2024-04-14T10:02:41Z</time>
      </trkpt>
      <trkpt lat="47.93028" lon="-0.46028">
        <ele>63.4</ele>
        <time>2024-04-14T10:02:42Z</time>
      </trkpt>
      <trkpt lat="47.93024" lon="-0.46026">
        <ele>63.4</ele>
        <time>2024-04-14T10:02:43Z</time>
      </trkpt>
      <trkpt lat="47.9302" lon="-0.46025">
        <ele>64.4</ele>
        <time>2024-04-14T10:02:44Z</time>
      </trkpt>
      <trkpt lat="47.93016" lon="-0.46023">
        <ele>65.4</ele>
        <time>2024-04-14T10:02:45Z</time>
      </trkpt>
      <trkpt lat="47.93012" lon="-0.46022">
        <ele>65.4</ele>
        <time>2024-04-14T10:02:46Z</time>
      </trkpt>
      <trkpt lat="47.93008" lon="-0.4602">
        <ele>65.4</ele>
        <time>2024-04-14T10:02:47Z</time>
      </trkpt>
      <trkpt lat="47.93004" lon="-0.46019">
        <ele>65.4</ele>
        <time>2024-04-14T10:02:48Z</time>
      </trkpt>
      <trkpt lat="47.93" lon="-0.46018">
        <ele>66.4</ele>
        <time>2024-04-14T10:02:49Z</time>
      </trkpt>
      <trkpt lat="47.92996" lon="-0.46018">
        <ele>66.4</ele>
        <time>2024-04-14T10:02:50Z</time>
      </trkpt>
      <trkpt lat="47.92992" lon="-0.46017">
        <ele>66.4</ele>
        <time>2024-04-14T10:02:51Z</time>
      </trkpt>
      <trkpt lat="47.92988" lon="-0.46016">
        <ele>66.4</ele>
        <time>2024-04-14T10:02:52Z</time>
      </trkpt>
      <trkpt lat="47.92985" lon="-0.46016">
        <ele>66.8</ele>
        <time>2024-04-14T10:02:53Z</time>
      </trkpt>
      <trkpt lat="47.92981" lon="-0.46015">
        <ele>66.8</ele>
        <time>2024-04-14T10:02:54Z</time>
      </trkpt>
      <trkpt lat="47.92977" lon="-0.46015">
        <ele>66.8</ele>
        <time>2024-04-14T10:02:55Z</time>
      </trkpt>
      <trkpt lat="47.92973" lon="-0.46015">
        <ele>67.8</ele>
        <time>2024-04-14T10:02:56Z</time>
      </trkpt>
      <trkpt lat="47.9297" lon="-0.46015">
        <ele>68.6</ele>
        <time>2024-04-14T10:02:57Z</time>
      </trkpt>
      <trkpt lat="47.92966" lon="-0.46015">
        <ele>68.6</ele>
        <time>2024-04-14T10:02:58Z</time>
      </trkpt>
      <trkpt lat="47.92963" lon="-0.46015">
        <ele>68.6</ele>
        <time>2024-04-14T10:02:59Z</time>
      </trkpt>
      <trkpt lat="47.92959" lon="-0.46015">
        <ele>68.6</ele>
        <time>2024-04-14T10:03:00Z</time>
      </trkpt>
      <trkpt lat="47.92956" lon="-0.46015">
        <ele>69.4</ele>
        <time>2024-04-14T10:03:01Z</time>
      </trkpt>
      <trkpt lat="47.92953" lon="-0.46015">
        <ele>69.4</ele>
        <time>2024-04-14T10:03:02Z</time>
      </trkpt>
      <trkpt lat="47.92949" lon="-0.46016">
        <ele>69.4</ele>
        <time>2024-04-14T10:03:03Z</time>
      </trkpt>
      <trkpt lat="47.92946" lon="-0.46016">
        <ele>69.4</ele>
        <time>2024-04-14T10:03:04Z</time>
      </trkpt>
      <trkpt lat="47.92942" lon="-0.46015">
        <ele>70.2</ele>
        <time>2024-04-14T10:03:05Z</time>
      </trkpt>
      <trkpt lat="47.92939" lon="-0.46015">
        <ele>70.2</ele>
        <time>2024-04-14T10:03:06Z</time>
      </trkpt>
      <trkpt lat="47.92935" lon="-0.46015">
        <ele>70.2</ele>
        <time>2024-04-14T10:03:07Z</time>
      </trkpt>
      <trkpt lat="47.92932" lon="-0.46015">
        <ele>70.2</ele>
        <time>2024-04-14T10:03:08Z</time>
      </trkpt>
      <trkpt lat="47.92928" lon="-0.46014">
        <ele>70.2</ele>
        <time>2024-04-14T10:03:09Z</time>
      </trkpt>
      <trkpt lat="47.92925" lon="-0.46013">
        <ele>70.2</ele>
        <time>2024-04-14T10:03:10Z</time>
      </trkpt>
      <trkpt lat="47.92922" lon="-0.46013">
        <ele>70.2</ele>
        <time>2024-04-14T10:03:11Z</time>
      </trkpt>
      <trkpt lat="47.92918" lon="-0.46012">
        <ele>70.8</ele>
        <time>2024-04-14T10:03:12Z</time>
      </trkpt>
      <trkpt lat="47.92915" lon="-0.46011">
        <ele>71</ele>
        <time>2024-04-14T10:03:13Z</time>
      </trkpt>
      <trkpt lat="47.92912" lon="-0.4601">
        <ele>71</ele>
        <time>2024-04-14T10:03:14Z</time>
      </trkpt>
      <trkpt lat="47.92908" lon="-0.46009">
        <ele>71</ele>
        <time>2024-04-14T10:03:15Z</time>
      </trkpt>
      <trkpt lat="47.92905" lon="-0.46008">
        <ele>71.6</ele>
        <time>2024-04-14T10:03:16Z</time>
      </trkpt>
      <trkpt lat="47.92901" lon="-0.46006">
        <ele>72.2</ele>
        <time>2024-04-14T10:03:17Z</time>
      </trkpt>
      <trkpt lat="47.92898" lon="-0.46004">
        <ele>72.2</ele>
        <time>2024-04-14T10:03:18Z</time>
      </trkpt>
      <trkpt lat="47.92895" lon="-0.46002">
        <ele>72.2</ele>
        <time>2024-04-14T10:03:19Z</time>
      </trkpt>
      <trkpt lat="47.92891" lon="-0.46">
        <ele>72</ele>
        <time>2024-04-14T10:03:20Z</time>
      </trkpt>
      <trkpt lat="47.92888" lon="-0.45997">
        <ele>72</ele>
        <time>2024-04-14T10:03:21Z</time>
      </trkpt>
      <trkpt lat="47.92885" lon="-0.45995">
        <ele>72</ele>
        <time>2024-04-14T10:03:22Z</time>
      </trkpt>
      <trkpt lat="47.92883" lon="-0.45992">
        <ele>72</ele>
        <time>2024-04-14T10:03:23Z</time>
      </trkpt>
      <trkpt lat="47.9288" lon="-0.4599">
        <ele>72.8</ele>
        <time>2024-04-14T10:03:24Z</time>
      </trkpt>
      <trkpt lat="47.92876" lon="-0.45987">
        <ele>73</ele>
        <time>2024-04-14T10:03:25Z</time>
      </trkpt>
      <trkpt lat="47.92873" lon="-0.45985">
        <ele>73</ele>
        <time>2024-04-14T10:03:26Z</time>
      </trkpt>
      <trkpt lat="47.9287" lon="-0.45982">
        <ele>73</ele>
        <time>2024-04-14T10:03:27Z</time>
      </trkpt>
      <trkpt lat="47.92867" lon="-0.45979">
        <ele>73</ele>
        <time>2024-04-14T10:03:28Z</time>
      </trkpt>
      <trkpt lat="47.92864" lon="-0.45976">
        <ele>73.4</ele>
        <time>2024-04-14T10:03:29Z</time>
      </trkpt>
      <trkpt lat="47.92861" lon="-0.45973">
        <ele>73.4</ele>
        <time>2024-04-14T10:03:30Z</time>
      </trkpt>
      <trkpt lat="47.92858" lon="-0.4597">
        <ele>73.4</ele>
        <time>2024-04-14T10:03:31Z</time>
      </trkpt>
      <trkpt lat="47.92855" lon="-0.45967">
        <ele>74.4</ele>
        <time>2024-04-14T10:03:32Z</time>
      </trkpt>
      <trkpt lat="47.92852" lon="-0.45964">
        <ele>74.2</ele>
        <time>2024-04-14T10:03:33Z</time>
      </trkpt>
      <trkpt lat="47.92849" lon="-0.45961">
        <ele>74.2</ele>
        <time>2024-04-14T10:03:34Z</time>
      </trkpt>
      <trkpt lat="47.92846" lon="-0.45958">
        <ele>74.2</ele>
        <time>2024-04-14T10:03:35Z</time>
      </trkpt>
      <trkpt lat="47.92843" lon="-0.45954">
        <ele>74.2</ele>
        <time>2024-04-14T10:03:36Z</time>
      </trkpt>
      <trkpt lat="47.92839" lon="-0.45951">
        <ele>74</ele>
        <time>2024-04-14T10:03:37Z</time>
      </trkpt>
      <trkpt lat="47.92836" lon="-0.45947">
        <ele>74</ele>
        <time>2024-04-14T10:03:38Z</time>
      </trkpt>
      <trkpt lat="47.92832" lon="-0.45943">
        <ele>74</ele>
        <time>2024-04-14T10:03:39Z</time>
      </trkpt>
      <trkpt lat="47.92829" lon="-0.45939">
        <ele>74</ele>
        <time>2024-04-14T10:03:40Z</time>
      </trkpt>
      <trkpt lat="47.92825" lon="-0.45935">
        <ele>73.6</ele>
        <time>2024-04-14T10:03:41Z</time>
      </trkpt>
      <trkpt lat="47.92821" lon="-0.45931">
        <ele>73.6</ele>
        <time>2024-04-14T10:03:42Z</time>
      </trkpt>
      <trkpt lat="47.92817" lon="-0.45927">
        <ele>73.6</ele>
        <time>2024-04-14T10:03:43Z</time>
      </trkpt>
      <trkpt lat="47.92813" lon="-0.45923">
        <ele>73.6</ele>
        <time>2024-04-14T10:03:44Z</time>
      </trkpt>
      <trkpt lat="47.92809" lon="-0.45919">
        <ele>74</ele>
        <time>2024-04-14T10:03:45Z</time>
      </trkpt>
      <trkpt lat="47.92805" lon="-0.45914">
        <ele>74</ele>
        <time>2024-04-14T10:03:46Z</time>
      </trkpt>
      <trkpt lat="47.92801" lon="-0.4591">
        <ele>74</ele>
        <time>2024-04-14T10:03:47Z</time>
      </trkpt>
      <trkpt lat="47.92797" lon="-0.45905">
        <ele>73.2</ele>
        <time>2024-04-14T10:03:48Z</time>
      </trkpt>
      <trkpt lat="47.92792" lon="-0.45901">
        <ele>72.8</ele>
        <time>2024-04-14T10:03:49Z</time>
      </trkpt>
      <trkpt lat="47.92788" lon="-0.45896">
        <ele>72.8</ele>
        <time>2024-04-14T10:03:50Z</time>
      </trkpt>
      <trkpt lat="47.92783" lon="-0.45891">
        <ele>72.8</ele>
        <time>2024-04-14T10:03:51Z</time>
      </trkpt>
      <trkpt lat="47.92779" lon="-0.45887">
        <ele>72.8</ele>
        <time>2024-04-14T10:03:52Z</time>
      </trkpt>
      <trkpt lat="47.92774" lon="-0.45882">
        <ele>72.6</ele>
        <time>2024-04-14T10:03:53Z</time>
      </trkpt>
      <trkpt lat="47.9277" lon="-0.45878">
        <ele>72.6</ele>
        <time>2024-04-14T10:03:54Z</time>
      </trkpt>
      <trkpt lat="47.92765" lon="-0.45873">
        <ele>72.6</ele>
        <time>2024-04-14T10:03:55Z</time>
      </trkpt>
      <trkpt lat="47.9276" lon="-0.45868">
        <ele>72.6</ele>
        <time>2024-04-14T10:03:56Z</time>
      </trkpt>
      <trkpt lat="47.92756" lon="-0.45864">
        <ele>72.4</ele>
        <time>2024-04-14T10:03:57Z</time>
      </trkpt>
      <trkpt lat="47.92751" lon="-0.45859">
        <ele>72.4</ele>
        <time>2024-04-14T10:03:58Z</time>
      </trkpt>
      <trkpt lat="47.92746" lon="-0.45854">
        <ele>72.4</ele>
        <time>2024-04-14T10:03:59Z</time>
      </trkpt>
      <trkpt lat="47.92742" lon="-0.45848">
        <ele>72.4</ele>
        <time>2024-04-14T10:04:00Z</time>
      </trkpt>
      <trkpt lat="47.92737" lon="-0.45844">
        <ele>72.2</ele>
        <time>2024-04-14T10:04:01Z</time>
      </trkpt>
      <trkpt lat="47.92732" lon="-0.45838">
        <ele>72.2</ele>
        <time>2024-04-14T10:04:02Z</time>
      </trkpt>
      <trkpt lat="47.92727" lon="-0.45833">
        <ele>72.2</ele>
        <time>2024-04-14T10:04:03Z</time>
      </trkpt>
      <trkpt lat="47.92723" lon="-0.45828">
        <ele>72.2</ele>
        <time>2024-04-14T10:04:04Z</time>
      </trkpt>
      <trkpt lat="47.92718" lon="-0.45823">
        <ele>72</ele>
        <time>2024-04-14T10:04:05Z</time>
      </trkpt>
      <trkpt lat="47.92712" lon="-0.45818">
        <ele>72</ele>
        <time>2024-04-14T10:04:06Z</time>
      </trkpt>
      <trkpt lat="47.92708" lon="-0.45813">
        <ele>72</ele>
        <time>2024-04-14T10:04:07Z</time>
      </trkpt>
      <trkpt lat="47.92703" lon="-0.45808">
        <ele>72</ele>
        <time>2024-04-14T10:04:08Z</time>
      </trkpt>
      <trkpt lat="47.92698" lon="-0.45802">
        <ele>71.8</ele>
        <time>2024-04-14T10:04:09Z</time>
      </trkpt>
      <trkpt lat="47.92693" lon="-0.45797">
        <ele>71.8</ele>
        <time>2024-04-14T10:04:10Z</time>
      </trkpt>
      <trkpt lat="47.92688" lon="-0.45792">
        <ele>71.8</ele>
        <time>2024-04-14T10:04:11Z</time>
      </trkpt>
      <trkpt lat="47.92684" lon="-0.45787">
        <ele>72.8</ele>
        <time>2024-04-14T10:04:12Z</time>
      </trkpt>
      <trkpt lat="47.92679" lon="-0.45782">
        <ele>72</ele>
        <time>2024-04-14T10:04:13Z</time>
      </trkpt>
      <trkpt lat="47.92675" lon="-0.45777">
        <ele>72</ele>
        <time>2024-04-14T10:04:14Z</time>
      </trkpt>
      <trkpt lat="47.9267" lon="-0.45772">
        <ele>72</ele>
        <time>2024-04-14T10:04:15Z</time>
      </trkpt>
      <trkpt lat="47.92666" lon="-0.45767">
        <ele>72</ele>
        <time>2024-04-14T10:04:16Z</time>
      </trkpt>
      <trkpt lat="47.92661" lon="-0.45762">
        <ele>72.4</ele>
        <time>2024-04-14T10:04:17Z</time>
      </trkpt>
      <trkpt lat="47.92657" lon="-0.45758">
        <ele>72.4</ele>
        <time>2024-04-14T10:04:18Z</time>
      </trkpt>
      <trkpt lat="47.92653" lon="-0.45753">
        <ele>72.4</ele>
        <time>2024-04-14T10:04:19Z</time>
      </trkpt>
      <trkpt lat="47.92648" lon="-0.45748">
        <ele>73.2</ele>
        <time>2024-04-14T10:04:20Z</time>
      </trkpt>
      <trkpt lat="47.92644" lon="-0.45744">
        <ele>73</ele>
        <time>2024-04-14T10:04:21Z</time>
      </trkpt>
      <trkpt lat="47.92639" lon="-0.45739">
        <ele>73</ele>
        <time>2024-04-14T10:04:22Z</time>
      </trkpt>
      <trkpt lat="47.92635" lon="-0.45734">
        <ele>73</ele>
        <time>2024-04-14T10:04:23Z</time>
      </trkpt>
      <trkpt lat="47.9263" lon="-0.4573">
        <ele>73</ele>
        <time>2024-04-14T10:04:24Z</time>
      </trkpt>
      <trkpt lat="47.92626" lon="-0.45725">
        <ele>72.4</ele>
        <time>2024-04-14T10:04:25Z</time>
      </trkpt>
      <trkpt lat="47.92622" lon="-0.45721">
        <ele>72.4</ele>
        <time>2024-04-14T10:04:26Z</time>
      </trkpt>
      <trkpt lat="47.92618" lon="-0.45716">
        <ele>72.4</ele>
        <time>2024-04-14T10:04:27Z</time>
      </trkpt>
      <trkpt lat="47.92613" lon="-0.45712">
        <ele>73.4</ele>
        <time>2024-04-14T10:04:28Z</time>
      </trkpt>
      <trkpt lat="47.92609" lon="-0.45708">
        <ele>74.4</ele>
        <time>2024-04-14T10:04:29Z</time>
      </trkpt>
      <trkpt lat="47.92605" lon="-0.45703">
        <ele>74.4</ele>
        <time>2024-04-14T10:04:30Z</time>
      </trkpt>
      <trkpt lat="47.926" lon="-0.45699">
        <ele>74.4</ele>
        <time>2024-04-14T10:04:31Z</time>
      </trkpt>
      <trkpt lat="47.92596" lon="-0.45695">
        <ele>74.8</ele>
        <time>2024-04-14T10:04:32Z</time>
      </trkpt>
      <trkpt lat="47.92592" lon="-0.4569">
        <ele>75</ele>
        <time>2024-04-14T10:04:33Z</time>
      </trkpt>
      <trkpt lat="47.92588" lon="-0.45686">
        <ele>75</ele>
        <time>2024-04-14T10:04:34Z</time>
      </trkpt>
      <trkpt lat="47.92583" lon="-0.45681">
        <ele>75</ele>
        <time>2024-04-14T10:04:35Z</time>
      </trkpt>
      <trkpt lat="47.92579" lon="-0.45677">
        <ele>75</ele>
        <time>2024-04-14T10:04:36Z</time>
      </trkpt>
      <trkpt lat="47.92575" lon="-0.45673">
        <ele>75.4</ele>
        <time>2024-04-14T10:04:37Z</time>
      </trkpt>
      <trkpt lat="47.92571" lon="-0.45668">
        <ele>75.4</ele>
        <time>2024-04-14T10:04:38Z</time>
      </trkpt>
      <trkpt lat="47.92567" lon="-0.45664">
        <ele>75.4</ele>
        <time>2024-04-14T10:04:39Z</time>
      </trkpt>
      <trkpt lat="47.92563" lon="-0.4566">
        <ele>75.4</ele>
        <time>2024-04-14T10:04:40Z</time>
      </trkpt>
      <trkpt lat="47.92559" lon="-0.45656">
        <ele>75.2</ele>
        <time>2024-04-14T10:04:41Z</time>
      </trkpt>
      <trkpt lat="47.92555" lon="-0.45652">
        <ele>75.2</ele>
        <time>2024-04-14T10:04:42Z</time>
      </trkpt>
      <trkpt lat="47.92551" lon="-0.45648">
        <ele>75.2</ele>
        <time>2024-04-14T10:04:43Z</time>
      </trkpt>
      <trkpt lat="47.92547" lon="-0.45643">
        <ele>75.2</ele>
        <time>2024-04-14T10:04:44Z</time>
      </trkpt>
      <trkpt lat="47.92543" lon="-0.45639">
        <ele>75.4</ele>
        <time>2024-04-14T10:04:45Z</time>
      </trkpt>
      <trkpt lat="47.92539" lon="-0.45635">
        <ele>75.4</ele>
        <time>2024-04-14T10:04:46Z</time>
      </trkpt>
      <trkpt lat="47.92536" lon="-0.45631">
        <ele>75.4</ele>
        <time>2024-04-14T10:04:47Z</time>
      </trkpt>
      <trkpt lat="47.92532" lon="-0.45627">
        <ele>75.8</ele>
        <time>2024-04-14T10:04:48Z</time>
      </trkpt>
      <trkpt lat="47.92528" lon="-0.45623">
        <ele>75.2</ele>
        <time>2024-04-14T10:04:49Z</time>
      </trkpt>
      <trkpt lat="47.92524" lon="-0.45619">
        <ele>75.2</ele>
        <time>2024-04-14T10:04:50Z</time>
      </trkpt>
      <trkpt lat="47.9252" lon="-0.45615">
        <ele>75.2</ele>
        <time>2024-04-14T10:04:51Z</time>
      </trkpt>
      <trkpt lat="47.92516" lon="-0.45611">
        <ele>75.2</ele>
        <time>2024-04-14T10:04:52Z</time>
      </trkpt>
      <trkpt lat="47.92512" lon="-0.45607">
        <ele>75.4</ele>
        <time>2024-04-14T10:04:53Z</time>
      </trkpt>
      <trkpt lat="47.92508" lon="-0.45603">
        <ele>75.4</ele>
        <time>2024-04-14T10:04:54Z</time>
      </trkpt>
      <trkpt lat="47.92504" lon="-0.45598">
        <ele>75.4</ele>
        <time>2024-04-14T10:04:55Z</time>
      </trkpt>
      <trkpt lat="47.925" lon="-0.45594">
        <ele>75.4</ele>
        <time>2024-04-14T10:04:56Z</time>
      </trkpt>
      <trkpt lat="47.92496" lon="-0.45589">
        <ele>75</ele>
        <time>2024-04-14T10:04:57Z</time>
      </trkpt>
      <trkpt lat="47.92492" lon="-0.45585">
        <ele>75</ele>
        <time>2024-04-14T10:04:58Z</time>
      </trkpt>
      <trkpt lat="47.92488" lon="-0.4558">
        <ele>75</ele>
        <time>2024-04-14T10:04:59Z</time>
      </trkpt>
      <trkpt lat="47.92484" lon="-0.45576">
        <ele>74</ele>
        <time>2024-04-14T10:05:00Z</time>
      </trkpt>
      <trkpt lat="47.92479" lon="-0.45572">
        <ele>74.2</ele>
        <time>2024-04-14T10:05:01Z</time>
      </trkpt>
      <trkpt lat="47.92475" lon="-0.45567">
        <ele>74.2</ele>
        <time>2024-04-14T10:05:02Z</time>
      </trkpt>
      <trkpt lat="47.92471" lon="-0.45563">
        <ele>74.2</ele>
        <time>2024-04-14T10:05:03Z</time>
      </trkpt>
      <trkpt lat="47.92467" lon="-0.45559">
        <ele>74.2</ele>
        <time>2024-04-14T10:05:04Z</time>
      </trkpt>
      <trkpt lat="47.92463" lon="-0.45555">
        <ele>73.8</ele>
        <time>2024-04-14T10:05:05Z</time>
      </trkpt>
      <trkpt lat="47.92458" lon="-0.4555">
        <ele>73.8</ele>
        <time>2024-04-14T10:05:06Z</time>
      </trkpt>
      <trkpt lat="47.92454" lon="-0.45546">
        <ele>73.8</ele>
        <time>2024-04-14T10:05:07Z</time>
      </trkpt>
      <trkpt lat="47.9245" lon="-0.45541">
        <ele>73.8</ele>
        <time>2024-04-14T10:05:08Z</time>
      </trkpt>
      <trkpt lat="47.92445" lon="-0.45536">
        <ele>73.2</ele>
        <time>2024-04-14T10:05:09Z</time>
      </trkpt>
      <trkpt lat="47.92441" lon="-0.45531">
        <ele>73.2</ele>
        <time>2024-04-14T10:05:10Z</time>
      </trkpt>
      <trkpt lat="47.92436" lon="-0.45527">
        <ele>73.2</ele>
        <time>2024-04-14T10:05:11Z</time>
      </trkpt>
      <trkpt lat="47.92432" lon="-0.45522">
        <ele>73.2</ele>
        <time>2024-04-14T10:05:12Z</time>
      </trkpt>
      <trkpt lat="47.92427" lon="-0.45517">
        <ele>72.4</ele>
        <time>2024-04-14T10:05:13Z</time>
      </trkpt>
      <trkpt lat="47.92423" lon="-0.45512">
        <ele>72.4</ele>
        <time>2024-04-14T10:05:14Z</time>
      </trkpt>
      <trkpt lat="47.92418" lon="-0.45507">
        <ele>72.4</ele>
        <time>2024-04-14T10:05:15Z</time>
      </trkpt>
      <trkpt lat="47.92413" lon="-0.45503">
        <ele>72.4</ele>
        <time>2024-04-14T10:05:16Z</time>
      </trkpt>
      <trkpt lat="47.92409" lon="-0.45498">
        <ele>71.6</ele>
        <time>2024-04-14T10:05:17Z</time>
      </trkpt>
      <trkpt lat="47.92404" lon="-0.45493">
        <ele>71.6</ele>
        <time>2024-04-14T10:05:18Z</time>
      </trkpt>
      <trkpt lat="47.92399" lon="-0.45489">
        <ele>71.6</ele>
        <time>2024-04-14T10:05:19Z</time>
      </trkpt>
      <trkpt lat="47.92394" lon="-0.45484">
        <ele>71.8</ele>
        <time>2024-04-14T10:05:20Z</time>
      </trkpt>
      <trkpt lat="47.9239" lon="-0.45479">
        <ele>71.2</ele>
        <time>2024-04-14T10:05:21Z</time>
      </trkpt>
      <trkpt lat="47.92385" lon="-0.45475">
        <ele>71.2</ele>
        <time>2024-04-14T10:05:22Z</time>
      </trkpt>
      <trkpt lat="47.9238" lon="-0.4547">
        <ele>71.2</ele>
        <time>2024-04-14T10:05:23Z</time>
      </trkpt>
      <trkpt lat="47.92375" lon="-0.45466">
        <ele>71.2</ele>
        <time>2024-04-14T10:05:24Z</time>
      </trkpt>
      <trkpt lat="47.92371" lon="-0.45461">
        <ele>71.2</ele>
        <time>2024-04-14T10:05:25Z</time>
      </trkpt>
      <trkpt lat="47.92366" lon="-0.45457">
        <ele>71.2</ele>
        <time>2024-04-14T10:05:26Z</time>
      </trkpt>
      <trkpt lat="47.92361" lon="-0.45453">
        <ele>71.2</ele>
        <time>2024-04-14T10:05:27Z</time>
      </trkpt>
      <trkpt lat="47.92356" lon="-0.45449">
        <ele>71.2</ele>
        <time>2024-04-14T10:05:28Z</time>
      </trkpt>
      <trkpt lat="47.92352" lon="-0.45445">
        <ele>71</ele>
        <time>2024-04-14T10:05:29Z</time>
      </trkpt>
      <trkpt lat="47.92347" lon="-0.45441">
        <ele>71</ele>
        <time>2024-04-14T10:05:30Z</time>
      </trkpt>
      <trkpt lat="47.92342" lon="-0.45438">
        <ele>71</ele>
        <time>2024-04-14T10:05:31Z</time>
      </trkpt>
      <trkpt lat="47.92338" lon="-0.45434">
        <ele>70.4</ele>
        <time>2024-04-14T10:05:32Z</time>
      </trkpt>
      <trkpt lat="47.92334" lon="-0.45431">
        <ele>71</ele>
        <time>2024-04-14T10:05:33Z</time>
      </trkpt>
      <trkpt lat="47.9233" lon="-0.45429">
        <ele>71</ele>
        <time>2024-04-14T10:05:34Z</time>
      </trkpt>
      <trkpt lat="47.92328" lon="-0.45428">
        <ele>71</ele>
        <time>2024-04-14T10:05:35Z</time>
      </trkpt>
      <trkpt lat="47.92326" lon="-0.45428">
        <ele>72</ele>
        <time>2024-04-14T10:05:36Z</time>
      </trkpt>
      <trkpt lat="47.92326" lon="-0.45427">
        <ele>72.2</ele>
        <time>2024-04-14T10:05:37Z</time>
      </trkpt>
      <trkpt lat="47.92326" lon="-0.45427">
        <ele>72.2</ele>
        <time>2024-04-14T10:05:38Z</time>
      </trkpt>
      <trkpt lat="47.92326" lon="-0.45427">
        <ele>72.2</ele>
        <time>2024-04-14T10:05:39Z</time>
      </trkpt>
      <trkpt lat="47.92321" lon="-0.45416">
        <ele>72.8</ele>
        <time>2024-04-14T10:06:53Z</time>
      </trkpt>
      <trkpt lat="47.92319" lon="-0.45415">
        <ele>72.8</ele>
        <time>2024-04-14T10:06:54Z</time>
      </trkpt>
      <trkpt lat="47.92317" lon="-0.45413">
        <ele>72.8</ele>
        <time>2024-04-14T10:06:55Z</time>
      </trkpt>
      <trkpt lat="47.92314" lon="-0.45412">
        <ele>72.8</ele>
        <time>2024-04-14T10:06:56Z</time>
      </trkpt>
      <trkpt lat="47.92311" lon="-0.4541">
        <ele>72.6</ele>
        <time>2024-04-14T10:06:57Z</time>
      </trkpt>
      <trkpt lat="47.92308" lon="-0.45408">
        <ele>72.6</ele>
        <time>2024-04-14T10:06:58Z</time>
      </trkpt>
      <trkpt lat="47.92305" lon="-0.45405">
        <ele>72.6</ele>
        <time>2024-04-14T10:06:59Z</time>
      </trkpt>
      <trkpt lat="47.92302" lon="-0.45403">
        <ele>72.6</ele>
        <time>2024-04-14T10:07:00Z</time>
      </trkpt>
      <trkpt lat="47.92298" lon="-0.454">
        <ele>72.6</ele>
        <time>2024-04-14T10:07:01Z</time>
      </trkpt>
      <trkpt lat="47.92294" lon="-0.45398">
        <ele>72.6</ele>
        <time>2024-04-14T10:07:02Z</time>
      </trkpt>
      <trkpt lat="47.9229" lon="-0.45396">
        <ele>72.6</ele>
        <time>2024-04-14T10:07:03Z</time>
      </trkpt>
      <trkpt lat="47.92286" lon="-0.45393">
        <ele>72.4</ele>
        <time>2024-04-14T10:07:04Z</time>
      </trkpt>
      <trkpt lat="47.92281" lon="-0.45391">
        <ele>72.2</ele>
        <time>2024-04-14T10:07:05Z</time>
      </trkpt>
      <trkpt lat="47.92277" lon="-0.45389">
        <ele>72.2</ele>
        <time>2024-04-14T10:07:06Z</time>
      </trkpt>
      <trkpt lat="47.92272" lon="-0.45386">
        <ele>72.2</ele>
        <time>2024-04-14T10:07:07Z</time>
      </trkpt>
      <trkpt lat="47.92268" lon="-0.45384">
        <ele>73.2</ele>
        <time>2024-04-14T10:07:08Z</time>
      </trkpt>
      <trkpt lat="47.92263" lon="-0.45382">
        <ele>72.8</ele>
        <time>2024-04-14T10:07:09Z</time>
      </trkpt>
      <trkpt lat="47.92259" lon="-0.45379">
        <ele>72.8</ele>
        <time>2024-04-14T10:07:10Z</time>
      </trkpt>
      <trkpt lat="47.92254" lon="-0.45377">
        <ele>72.8</ele>
        <time>2024-04-14T10:07:11Z</time>
      </trkpt>
      <trkpt lat="47.92249" lon="-0.45375">
        <ele>73</ele>
        <time>2024-04-14T10:07:12Z</time>
      </trkpt>
      <trkpt lat="47.92244" lon="-0.45372">
        <ele>73.4</ele>
        <time>2024-04-14T10:07:13Z</time>
      </trkpt>
      <trkpt lat="47.9224" lon="-0.4537">
        <ele>73.4</ele>
        <time>2024-04-14T10:07:14Z</time>
      </trkpt>
      <trkpt lat="47.92235" lon="-0.45368">
        <ele>73.4</ele>
        <time>2024-04-14T10:07:15Z</time>
      </trkpt>
      <trkpt lat="47.9223" lon="-0.45365">
        <ele>73.4</ele>
        <time>2024-04-14T10:07:16Z</time>
      </trkpt>
      <trkpt lat="47.92225" lon="-0.45363">
        <ele>73.4</ele>
        <time>2024-04-14T10:07:17Z</time>
      </trkpt>
      <trkpt lat="47.9222" lon="-0.45361">
        <ele>73.4</ele>
        <time>2024-04-14T10:07:18Z</time>
      </trkpt>
      <trkpt lat="47.92215" lon="-0.45358">
        <ele>73.4</ele>
        <time>2024-04-14T10:07:19Z</time>
      </trkpt>
      <trkpt lat="47.92211" lon="-0.45356">
        <ele>74.4</ele>
        <time>2024-04-14T10:07:20Z</time>
      </trkpt>
      <trkpt lat="47.92206" lon="-0.45354">
        <ele>75.2</ele>
        <time>2024-04-14T10:07:21Z</time>
      </trkpt>
      <trkpt lat="47.92201" lon="-0.45351">
        <ele>75.2</ele>
        <time>2024-04-14T10:07:22Z</time>
      </trkpt>
      <trkpt lat="47.92196" lon="-0.45349">
        <ele>75.2</ele>
        <time>2024-04-14T10:07:23Z</time>
      </trkpt>
      <trkpt lat="47.92192" lon="-0.45347">
        <ele>75.2</ele>
        <time>2024-04-14T10:07:24Z</time>
      </trkpt>
      <trkpt lat="47.92187" lon="-0.45344">
        <ele>75.2</ele>
        <time>2024-04-14T10:07:25Z</time>
      </trkpt>
      <trkpt lat="47.92182" lon="-0.45342">
        <ele>75.2</ele>
        <time>2024-04-14T10:07:26Z</time>
      </trkpt>
      <trkpt lat="47.92178" lon="-0.4534">
        <ele>75.2</ele>
        <time>2024-04-14T10:07:27Z</time>
      </trkpt>
      <trkpt lat="47.92173" lon="-0.45338">
        <ele>75.2</ele>
        <time>2024-04-14T10:07:28Z</time>
      </trkpt>
      <trkpt lat="47.92168" lon="-0.45336">
        <ele>75.4</ele>
        <time>2024-04-14T10:07:29Z</time>
      </trkpt>
      <trkpt lat="47.92164" lon="-0.45333">
        <ele>75.4</ele>
        <time>2024-04-14T10:07:30Z</time>
      </trkpt>
      <trkpt lat="47.92159" lon="-0.45331">
        <ele>75.4</ele>
        <time>2024-04-14T10:07:31Z</time>
      </trkpt>
      <trkpt lat="47.92154" lon="-0.45329">
        <ele>74.8</ele>
        <time>2024-04-14T10:07:32Z</time>
      </trkpt>
      <trkpt lat="47.9215" lon="-0.45326">
        <ele>75.2</ele>
        <time>2024-04-14T10:07:33Z</time>
      </trkpt>
      <trkpt lat="47.92145" lon="-0.45324">
        <ele>75.2</ele>
        <time>2024-04-14T10:07:34Z</time>
      </trkpt>
      <trkpt lat="47.9214" lon="-0.45322">
        <ele>75.2</ele>
        <time>2024-04-14T10:07:35Z</time>
      </trkpt>
      <trkpt lat="47.92135" lon="-0.45319">
        <ele>76.2</ele>
        <time>2024-04-14T10:07:36Z</time>
      </trkpt>
      <trkpt lat="47.9213" lon="-0.45316">
        <ele>76.2</ele>
        <time>2024-04-14T10:07:37Z</time>
      </trkpt>
      <trkpt lat="47.92125" lon="-0.45314">
        <ele>76.2</ele>
        <time>2024-04-14T10:07:38Z</time>
      </trkpt>
      <trkpt lat="47.9212" lon="-0.45311">
        <ele>76.2</ele>
        <time>2024-04-14T10:07:39Z</time>
      </trkpt>
      <trkpt lat="47.92115" lon="-0.45309">
        <ele>76.2</ele>
        <time>2024-04-14T10:07:40Z</time>
      </trkpt>
      <trkpt lat="47.92109" lon="-0.45306">
        <ele>75.6</ele>
        <time>2024-04-14T10:07:41Z</time>
      </trkpt>
      <trkpt lat="47.92103" lon="-0.45304">
        <ele>75.6</ele>
        <time>2024-04-14T10:07:42Z</time>
      </trkpt>
      <trkpt lat="47.92098" lon="-0.45301">
        <ele>75.6</ele>
        <time>2024-04-14T10:07:43Z</time>
      </trkpt>
      <trkpt lat="47.92092" lon="-0.45298">
        <ele>75.6</ele>
        <time>2024-04-14T10:07:44Z</time>
      </trkpt>
      <trkpt lat="47.92087" lon="-0.45295">
        <ele>75.4</ele>
        <time>2024-04-14T10:07:45Z</time>
      </trkpt>
      <trkpt lat="47.92082" lon="-0.45292">
        <ele>75.4</ele>
        <time>2024-04-14T10:07:46Z</time>
      </trkpt>
      <trkpt lat="47.92076" lon="-0.45289">
        <ele>75.4</ele>
        <time>2024-04-14T10:07:47Z</time>
      </trkpt>
      <trkpt lat="47.92071" lon="-0.45287">
        <ele>75.4</ele>
        <time>2024-04-14T10:07:48Z</time>
      </trkpt>
      <trkpt lat="47.92065" lon="-0.45284">
        <ele>74.8</ele>
        <time>2024-04-14T10:07:49Z</time>
      </trkpt>
      <trkpt lat="47.92059" lon="-0.45281">
        <ele>74.8</ele>
        <time>2024-04-14T10:07:50Z</time>
      </trkpt>
      <trkpt lat="47.92054" lon="-0.45279">
        <ele>74.8</ele>
        <time>2024-04-14T10:07:51Z</time>
      </trkpt>
      <trkpt lat="47.92048" lon="-0.45276">
        <ele>74.8</ele>
        <time>2024-04-14T10:07:52Z</time>
      </trkpt>
      <trkpt lat="47.92042" lon="-0.45273">
        <ele>75</ele>
        <time>2024-04-14T10:07:53Z</time>
      </trkpt>
      <trkpt lat="47.92036" lon="-0.45271">
        <ele>75</ele>
        <time>2024-04-14T10:07:54Z</time>
      </trkpt>
      <trkpt lat="47.9203" lon="-0.45268">
        <ele>75</ele>
        <time>2024-04-14T10:07:55Z</time>
      </trkpt>
      <trkpt lat="47.92024" lon="-0.45265">
        <ele>75</ele>
        <time>2024-04-14T10:07:56Z</time>
      </trkpt>
      <trkpt lat="47.92019" lon="-0.45261">
        <ele>75</ele>
        <time>2024-04-14T10:07:57Z</time>
      </trkpt>
      <trkpt lat="47.92013" lon="-0.45259">
        <ele>75</ele>
        <time>2024-04-14T10:07:58Z</time>
      </trkpt>
      <trkpt lat="47.92007" lon="-0.45257">
        <ele>75</ele>
        <time>2024-04-14T10:07:59Z</time>
      </trkpt>
      <trkpt lat="47.92002" lon="-0.45254">
        <ele>74</ele>
        <time>2024-04-14T10:08:00Z</time>
      </trkpt>
      <trkpt lat="47.91996" lon="-0.45252">
        <ele>75.8</ele>
        <time>2024-04-14T10:08:01Z</time>
      </trkpt>
      <trkpt lat="47.9199" lon="-0.45249">
        <ele>75.8</ele>
        <time>2024-04-14T10:08:02Z</time>
      </trkpt>
      <trkpt lat="47.91985" lon="-0.45246">
        <ele>75.8</ele>
        <time>2024-04-14T10:08:03Z</time>
      </trkpt>
      <trkpt lat="47.91979" lon="-0.45243">
        <ele>74.8</ele>
        <time>2024-04-14T10:08:04Z</time>
      </trkpt>
      <trkpt lat="47.91974" lon="-0.45239">
        <ele>73.4</ele>
        <time>2024-04-14T10:08:05Z</time>
      </trkpt>
      <trkpt lat="47.91968" lon="-0.45236">
        <ele>73.4</ele>
        <time>2024-04-14T10:08:06Z</time>
      </trkpt>
      <trkpt lat="47.91962" lon="-0.45232">
        <ele>73.4</ele>
        <time>2024-04-14T10:08:07Z</time>
      </trkpt>
      <trkpt lat="47.91956" lon="-0.45228">
        <ele>73.4</ele>
        <time>2024-04-14T10:08:08Z</time>
      </trkpt>
      <trkpt lat="47.9195" lon="-0.45224">
        <ele>73</ele>
        <time>2024-04-14T10:08:09Z</time>
      </trkpt>
      <trkpt lat="47.91945" lon="-0.45219">
        <ele>73</ele>
        <time>2024-04-14T10:08:10Z</time>
      </trkpt>
      <trkpt lat="47.91939" lon="-0.45215">
        <ele>73</ele>
        <time>2024-04-14T10:08:11Z</time>
      </trkpt>
      <trkpt lat="47.91934" lon="-0.45211">
        <ele>73</ele>
        <time>2024-04-14T10:08:12Z</time>
      </trkpt>
      <trkpt lat="47.91928" lon="-0.45207">
        <ele>73.6</ele>
        <time>2024-04-14T10:08:13Z</time>
      </trkpt>
      <trkpt lat="47.91922" lon="-0.45202">
        <ele>73.6</ele>
        <time>2024-04-14T10:08:14Z</time>
      </trkpt>
      <trkpt lat="47.91917" lon="-0.45198">
        <ele>73.6</ele>
        <time>2024-04-14T10:08:15Z</time>
      </trkpt>
      <trkpt lat="47.91912" lon="-0.45194">
        <ele>73.6</ele>
        <time>2024-04-14T10:08:16Z</time>
      </trkpt>
      <trkpt lat="47.91906" lon="-0.45189">
        <ele>73.4</ele>
        <time>2024-04-14T10:08:17Z</time>
      </trkpt>
      <trkpt lat="47.91901" lon="-0.45185">
        <ele>73.4</ele>
        <time>2024-04-14T10:08:18Z</time>
      </trkpt>
      <trkpt lat="47.91895" lon="-0.45181">
        <ele>73.4</ele>
        <time>2024-04-14T10:08:19Z</time>
      </trkpt>
      <trkpt lat="47.9189" lon="-0.45177">
        <ele>73.4</ele>
        <time>2024-04-14T10:08:20Z</time>
      </trkpt>
      <trkpt lat="47.91884" lon="-0.45172">
        <ele>73.4</ele>
        <time>2024-04-14T10:08:21Z</time>
      </trkpt>
      <trkpt lat="47.91879" lon="-0.45168">
        <ele>73.4</ele>
        <time>2024-04-14T10:08:22Z</time>
      </trkpt>
      <trkpt lat="47.91873" lon="-0.45164">
        <ele>73.4</ele>
        <time>2024-04-14T10:08:23Z</time>
      </trkpt>
      <trkpt lat="47.91868" lon="-0.4516">
        <ele>74.4</ele>
        <time>2024-04-14T10:08:24Z</time>
      </trkpt>
      <trkpt lat="47.91863" lon="-0.45156">
        <ele>74.4</ele>
        <time>2024-04-14T10:08:25Z</time>
      </trkpt>
      <trkpt lat="47.91857" lon="-0.45151">
        <ele>74.4</ele>
        <time>2024-04-14T10:08:26Z</time>
      </trkpt>
      <trkpt lat="47.91852" lon="-0.45147">
        <ele>74.4</ele>
        <time>2024-04-14T10:08:27Z</time>
      </trkpt>
      <trkpt lat="47.91846" lon="-0.45144">
        <ele>74.4</ele>
        <time>2024-04-14T10:08:28Z</time>
      </trkpt>
      <trkpt lat="47.91841" lon="-0.4514">
        <ele>73.6</ele>
        <time>2024-04-14T10:08:29Z</time>
      </trkpt>
      <trkpt lat="47.91836" lon="-0.45135">
        <ele>73.6</ele>
        <time>2024-04-14T10:08:30Z</time>
      </trkpt>
      <trkpt lat="47.9183" lon="-0.45131">
        <ele>73.6</ele>
        <time>2024-04-14T10:08:31Z</time>
      </trkpt>
      <trkpt lat="47.91825" lon="-0.45127">
        <ele>73.6</ele>
        <time>2024-04-14T10:08:32Z</time>
      </trkpt>
      <trkpt lat="47.9182" lon="-0.45123">
        <ele>73.4</ele>
        <time>2024-04-14T10:08:33Z</time>
      </trkpt>
      <trkpt lat="47.91814" lon="-0.45119">
        <ele>73.4</ele>
        <time>2024-04-14T10:08:34Z</time>
      </trkpt>
      <trkpt lat="47.91809" lon="-0.45115">
        <ele>73.4</ele>
        <time>2024-04-14T10:08:35Z</time>
      </trkpt>
      <trkpt lat="47.91804" lon="-0.4511">
        <ele>73.4</ele>
        <time>2024-04-14T10:08:36Z</time>
      </trkpt>
      <trkpt lat="47.91798" lon="-0.45106">
        <ele>73.8</ele>
        <time>2024-04-14T10:08:37Z</time>
      </trkpt>
      <trkpt lat="47.91793" lon="-0.45101">
        <ele>73.8</ele>
        <time>2024-04-14T10:08:38Z</time>
      </trkpt>
      <trkpt lat="47.91788" lon="-0.45097">
        <ele>73.8</ele>
        <time>2024-04-14T10:08:39Z</time>
      </trkpt>
      <trkpt lat="47.91782" lon="-0.45092">
        <ele>73.8</ele>
        <time>2024-04-14T10:08:40Z</time>
      </trkpt>
      <trkpt lat="47.91777" lon="-0.45087">
        <ele>73.8</ele>
        <time>2024-04-14T10:08:41Z</time>
      </trkpt>
      <trkpt lat="47.91771" lon="-0.45082">
        <ele>73.8</ele>
        <time>2024-04-14T10:08:42Z</time>
      </trkpt>
      <trkpt lat="47.91766" lon="-0.45077">
        <ele>73.8</ele>
        <time>2024-04-14T10:08:43Z</time>
      </trkpt>
      <trkpt lat="47.9176" lon="-0.45072">
        <ele>73.4</ele>
        <time>2024-04-14T10:08:44Z</time>
      </trkpt>
      <trkpt lat="47.91755" lon="-0.45066">
        <ele>73.4</ele>
        <time>2024-04-14T10:08:45Z</time>
      </trkpt>
      <trkpt lat="47.9175" lon="-0.4506">
        <ele>73.4</ele>
        <time>2024-04-14T10:08:46Z</time>
      </trkpt>
      <trkpt lat="47.91745" lon="-0.45053">
        <ele>73.4</ele>
        <time>2024-04-14T10:08:47Z</time>
      </trkpt>
      <trkpt lat="47.9174" lon="-0.45045">
        <ele>73.2</ele>
        <time>2024-04-14T10:08:48Z</time>
      </trkpt>
      <trkpt lat="47.91736" lon="-0.45036">
        <ele>72.8</ele>
        <time>2024-04-14T10:08:49Z</time>
      </trkpt>
      <trkpt lat="47.91732" lon="-0.45028">
        <ele>72.8</ele>
        <time>2024-04-14T10:08:50Z</time>
      </trkpt>
      <trkpt lat="47.91728" lon="-0.45019">
        <ele>72.8</ele>
        <time>2024-04-14T10:08:51Z</time>
      </trkpt>
      <trkpt lat="47.91724" lon="-0.45009">
        <ele>71.8</ele>
        <time>2024-04-14T10:08:52Z</time>
      </trkpt>
      <trkpt lat="47.91721" lon="-0.45">
        <ele>71.2</ele>
        <time>2024-04-14T10:08:53Z</time>
      </trkpt>
      <trkpt lat="47.91717" lon="-0.4499">
        <ele>71.2</ele>
        <time>2024-04-14T10:08:54Z</time>
      </trkpt>
      <trkpt lat="47.91714" lon="-0.4498">
        <ele>71.2</ele>
        <time>2024-04-14T10:08:55Z</time>
      </trkpt>
      <trkpt lat="47.91711" lon="-0.4497">
        <ele>71.4</ele>
        <time>2024-04-14T10:08:56Z</time>
      </trkpt>
      <trkpt lat="47.91707" lon="-0.4496">
        <ele>71.4</ele>
        <time>2024-04-14T10:08:57Z</time>
      </trkpt>
      <trkpt lat="47.91704" lon="-0.4495">
        <ele>71.4</ele>
        <time>2024-04-14T10:08:58Z</time>
      </trkpt>
      <trkpt lat="47.91701" lon="-0.44939">
        <ele>71.4</ele>
        <time>2024-04-14T10:08:59Z</time>
      </trkpt>
      <trkpt lat="47.91697" lon="-0.44929">
        <ele>70.4</ele>
        <time>2024-04-14T10:09:00Z</time>
      </trkpt>
      <trkpt lat="47.91693" lon="-0.44918">
        <ele>68.8</ele>
        <time>2024-04-14T10:09:01Z</time>
      </trkpt>
      <trkpt lat="47.91689" lon="-0.44907">
        <ele>68.8</ele>
        <time>2024-04-14T10:09:02Z</time>
      </trkpt>
      <trkpt lat="47.91685" lon="-0.44897">
        <ele>68.8</ele>
        <time>2024-04-14T10:09:03Z</time>
      </trkpt>
      <trkpt lat="47.9168" lon="-0.44886">
        <ele>67.8</ele>
        <time>2024-04-14T10:09:04Z</time>
      </trkpt>
      <trkpt lat="47.91675" lon="-0.44876">
        <ele>66</ele>
        <time>2024-04-14T10:09:05Z</time>
      </trkpt>
      <trkpt lat="47.91669" lon="-0.44867">
        <ele>66</ele>
        <time>2024-04-14T10:09:06Z</time>
      </trkpt>
      <trkpt lat="47.91663" lon="-0.44857">
        <ele>66</ele>
        <time>2024-04-14T10:09:07Z</time>
      </trkpt>
      <trkpt lat="47.91655" lon="-0.44848">
        <ele>65</ele>
        <time>2024-04-14T10:09:08Z</time>
      </trkpt>
      <trkpt lat="47.91647" lon="-0.4484">
        <ele>63.4</ele>
        <time>2024-04-14T10:09:09Z</time>
      </trkpt>
      <trkpt lat="47.91639" lon="-0.44833">
        <ele>63.4</ele>
        <time>2024-04-14T10:09:10Z</time>
      </trkpt>
      <trkpt lat="47.9163" lon="-0.44827">
        <ele>63.4</ele>
        <time>2024-04-14T10:09:11Z</time>
      </trkpt>
      <trkpt lat="47.9162" lon="-0.44821">
        <ele>62.4</ele>
        <time>2024-04-14T10:09:12Z</time>
      </trkpt>
      <trkpt lat="47.9161" lon="-0.44817">
        <ele>58.4</ele>
        <time>2024-04-14T10:09:13Z</time>
      </trkpt>
      <trkpt lat="47.916" lon="-0.44814">
        <ele>58.4</ele>
        <time>2024-04-14T10:09:14Z</time>
      </trkpt>
      <trkpt lat="47.9159" lon="-0.44811">
        <ele>58.4</ele>
        <time>2024-04-14T10:09:15Z</time>
      </trkpt>
      <trkpt lat="47.9158" lon="-0.44809">
        <ele>57.4</ele>
        <time>2024-04-14T10:09:16Z</time>
      </trkpt>
      <trkpt lat="47.9157" lon="-0.44807">
        <ele>55.2</ele>
        <time>2024-04-14T10:09:17Z</time>
      </trkpt>
      <trkpt lat="47.9156" lon="-0.44805">
        <ele>55.2</ele>
        <time>2024-04-14T10:09:18Z</time>
      </trkpt>
      <trkpt lat="47.9155" lon="-0.44803">
        <ele>55.2</ele>
        <time>2024-04-14T10:09:19Z</time>
      </trkpt>
      <trkpt lat="47.91539" lon="-0.44802">
        <ele>55.2</ele>
        <time>2024-04-14T10:09:20Z</time>
      </trkpt>
      <trkpt lat="47.91529" lon="-0.44801">
        <ele>54.2</ele>
        <time>2024-04-14T10:09:21Z</time>
      </trkpt>
      <trkpt lat="47.91518" lon="-0.44799">
        <ele>54.2</ele>
        <time>2024-04-14T10:09:22Z</time>
      </trkpt>
      <trkpt lat="47.91508" lon="-0.44797">
        <ele>54.2</ele>
        <time>2024-04-14T10:09:23Z</time>
      </trkpt>
      <trkpt lat="47.91497" lon="-0.44795">
        <ele>53.2</ele>
        <time>2024-04-14T10:09:24Z</time>
      </trkpt>
      <trkpt lat="47.91487" lon="-0.44794">
        <ele>50</ele>
        <time>2024-04-14T10:09:25Z</time>
      </trkpt>
      <trkpt lat="47.91476" lon="-0.44792">
        <ele>50</ele>
        <time>2024-04-14T10:09:26Z</time>
      </trkpt>
      <trkpt lat="47.91466" lon="-0.4479">
        <ele>50</ele>
        <time>2024-04-14T10:09:27Z</time>
      </trkpt>
      <trkpt lat="47.91455" lon="-0.44788">
        <ele>49</ele>
        <time>2024-04-14T10:09:28Z</time>
      </trkpt>
      <trkpt lat="47.91446" lon="-0.44786">
        <ele>49</ele>
        <time>2024-04-14T10:09:29Z</time>
      </trkpt>
      <trkpt lat="47.91436" lon="-0.44785">
        <ele>49</ele>
        <time>2024-04-14T10:09:30Z</time>
      </trkpt>
      <trkpt lat="47.91426" lon="-0.44783">
        <ele>49</ele>
        <time>2024-04-14T10:09:31Z</time>
      </trkpt>
      <trkpt lat="47.91417" lon="-0.44781">
        <ele>50</ele>
        <time>2024-04-14T10:09:32Z</time>
      </trkpt>
      <trkpt lat="47.91409" lon="-0.4478">
        <ele>49.6</ele>
        <time>2024-04-14T10:09:33Z</time>
      </trkpt>
      <trkpt lat="47.914" lon="-0.44778">
        <ele>49.6</ele>
        <time>2024-04-14T10:09:34Z</time>
      </trkpt>
      <trkpt lat="47.91392" lon="-0.44775">
        <ele>49.6</ele>
        <time>2024-04-14T10:09:35Z</time>
      </trkpt>
      <trkpt lat="47.91384" lon="-0.44772">
        <ele>50.6</ele>
        <time>2024-04-14T10:09:36Z</time>
      </trkpt>
      <trkpt lat="47.91377" lon="-0.44768">
        <ele>51.6</ele>
        <time>2024-04-14T10:09:37Z</time>
      </trkpt>
      <trkpt lat="47.9137" lon="-0.44763">
        <ele>51.6</ele>
        <time>2024-04-14T10:09:38Z</time>
      </trkpt>
      <trkpt lat="47.91364" lon="-0.44758">
        <ele>51.6</ele>
        <time>2024-04-14T10:09:39Z</time>
      </trkpt>
      <trkpt lat="47.91359" lon="-0.44753">
        <ele>52.6</ele>
        <time>2024-04-14T10:09:40Z</time>
      </trkpt>
      <trkpt lat="47.91354" lon="-0.44748">
        <ele>54.4</ele>
        <time>2024-04-14T10:09:41Z</time>
      </trkpt>
      <trkpt lat="47.91349" lon="-0.44742">
        <ele>54.4</ele>
        <time>2024-04-14T10:09:42Z</time>
      </trkpt>
      <trkpt lat="47.91345" lon="-0.44736">
        <ele>54.4</ele>
        <time>2024-04-14T10:09:43Z</time>
      </trkpt>
      <trkpt lat="47.91341" lon="-0.44731">
        <ele>55.4</ele>
        <time>2024-04-14T10:09:44Z</time>
      </trkpt>
      <trkpt lat="47.91337" lon="-0.44725">
        <ele>57</ele>
        <time>2024-04-14T10:09:45Z</time>
      </trkpt>
      <trkpt lat="47.91334" lon="-0.44719">
        <ele>57</ele>
        <time>2024-04-14T10:09:46Z</time>
      </trkpt>
      <trkpt lat="47.91331" lon="-0.44713">
        <ele>57</ele>
        <time>2024-04-14T10:09:47Z</time>
      </trkpt>
      <trkpt lat="47.91328" lon="-0.44707">
        <ele>58</ele>
        <time>2024-04-14T10:09:48Z</time>
      </trkpt>
      <trkpt lat="47.91325" lon="-0.44701">
        <ele>59</ele>
        <time>2024-04-14T10:09:49Z</time>
      </trkpt>
      <trkpt lat="47.91322" lon="-0.44695">
        <ele>59</ele>
        <time>2024-04-14T10:09:50Z</time>
      </trkpt>
      <trkpt lat="47.91319" lon="-0.4469">
        <ele>59</ele>
        <time>2024-04-14T10:09:51Z</time>
      </trkpt>
      <trkpt lat="47.91317" lon="-0.44684">
        <ele>59.6</ele>
        <time>2024-04-14T10:09:52Z</time>
      </trkpt>
      <trkpt lat="47.91314" lon="-0.44678">
        <ele>60.2</ele>
        <time>2024-04-14T10:09:53Z</time>
      </trkpt>
      <trkpt lat="47.91312" lon="-0.44672">
        <ele>60.2</ele>
        <time>2024-04-14T10:09:54Z</time>
      </trkpt>
      <trkpt lat="47.91309" lon="-0.44666">
        <ele>60.2</ele>
        <time>2024-04-14T10:09:55Z</time>
      </trkpt>
      <trkpt lat="47.91307" lon="-0.44659">
        <ele>61.2</ele>
        <time>2024-04-14T10:09:56Z</time>
      </trkpt>
      <trkpt lat="47.91304" lon="-0.44653">
        <ele>61.8</ele>
        <time>2024-04-14T10:09:57Z</time>
      </trkpt>
      <trkpt lat="47.91301" lon="-0.44647">
        <ele>61.8</ele>
        <time>2024-04-14T10:09:58Z</time>
      </trkpt>
      <trkpt lat="47.91299" lon="-0.44641">
        <ele>61.8</ele>
        <time>2024-04-14T10:09:59Z</time>
      </trkpt>
      <trkpt lat="47.91296" lon="-0.44635">
        <ele>61.8</ele>
        <time>2024-04-14T10:10:00Z</time>
      </trkpt>
      <trkpt lat="47.91293" lon="-0.4463">
        <ele>62.2</ele>
        <time>2024-04-14T10:10:01Z</time>
      </trkpt>
      <trkpt lat="47.91291" lon="-0.44626">
        <ele>62.2</ele>
        <time>2024-04-14T10:10:02Z</time>
      </trkpt>
      <trkpt lat="47.91289" lon="-0.44621">
        <ele>62.2</ele>
        <time>2024-04-14T10:10:03Z</time>
      </trkpt>
      <trkpt lat="47.91286" lon="-0.44617">
        <ele>63.2</ele>
        <time>2024-04-14T10:10:04Z</time>
      </trkpt>
      <trkpt lat="47.91284" lon="-0.44612">
        <ele>63.6</ele>
        <time>2024-04-14T10:10:05Z</time>
      </trkpt>
      <trkpt lat="47.91282" lon="-0.44608">
        <ele>63.6</ele>
        <time>2024-04-14T10:10:06Z</time>
      </trkpt>
      <trkpt lat="47.9128" lon="-0.44603">
        <ele>63.6</ele>
        <time>2024-04-14T10:10:07Z</time>
      </trkpt>
      <trkpt lat="47.91278" lon="-0.44599">
        <ele>64.2</ele>
        <time>2024-04-14T10:10:08Z</time>
      </trkpt>
      <trkpt lat="47.91276" lon="-0.44595">
        <ele>65</ele>
        <time>2024-04-14T10:10:09Z</time>
      </trkpt>
      <trkpt lat="47.91274" lon="-0.44592">
        <ele>65</ele>
        <time>2024-04-14T10:10:10Z</time>
      </trkpt>
      <trkpt lat="47.91272" lon="-0.44589">
        <ele>65</ele>
        <time>2024-04-14T10:10:11Z</time>
      </trkpt>
      <trkpt lat="47.91271" lon="-0.44588">
        <ele>65.4</ele>
        <time>2024-04-14T10:10:12Z</time>
      </trkpt>
      <trkpt lat="47.9127" lon="-0.44587">
        <ele>66</ele>
        <time>2024-04-14T10:10:13Z</time>
      </trkpt>
      <trkpt lat="47.9127" lon="-0.44586">
        <ele>67.6</ele>
        <time>2024-04-14T10:15:07Z</time>
      </trkpt>
      <trkpt lat="47.91271" lon="-0.44585">
        <ele>66.8</ele>
        <time>2024-04-14T10:15:08Z</time>
      </trkpt>
      <trkpt lat="47.91272" lon="-0.44583">
        <ele>66.4</ele>
        <time>2024-04-14T10:15:09Z</time>
      </trkpt>
      <trkpt lat="47.91273" lon="-0.44582">
        <ele>66.4</ele>
        <time>2024-04-14T10:15:10Z</time>
      </trkpt>
      <trkpt lat="47.91274" lon="-0.4458">
        <ele>66.4</ele>
        <time>2024-04-14T10:15:11Z</time>
      </trkpt>
      <trkpt lat="47.91276" lon="-0.44577">
        <ele>66.4</ele>
        <time>2024-04-14T10:15:12Z</time>
      </trkpt>
      <trkpt lat="47.91278" lon="-0.44574">
        <ele>67</ele>
        <time>2024-04-14T10:15:13Z</time>
      </trkpt>
      <trkpt lat="47.9128" lon="-0.4457">
        <ele>67</ele>
        <time>2024-04-14T10:15:14Z</time>
      </trkpt>
      <trkpt lat="47.91282" lon="-0.44566">
        <ele>67</ele>
        <time>2024-04-14T10:15:15Z</time>
      </trkpt>
      <trkpt lat="47.91284" lon="-0.44561">
        <ele>66.8</ele>
        <time>2024-04-14T10:15:16Z</time>
      </trkpt>
      <trkpt lat="47.91287" lon="-0.44557">
        <ele>66.4</ele>
        <time>2024-04-14T10:15:17Z</time>
      </trkpt>
      <trkpt lat="47.91289" lon="-0.44553">
        <ele>66.4</ele>
        <time>2024-04-14T10:15:18Z</time>
      </trkpt>
      <trkpt lat="47.91292" lon="-0.44548">
        <ele>66.4</ele>
        <time>2024-04-14T10:15:19Z</time>
      </trkpt>
      <trkpt lat="47.91295" lon="-0.44543">
        <ele>65.8</ele>
        <time>2024-04-14T10:15:20Z</time>
      </trkpt>
      <trkpt lat="47.91298" lon="-0.44538">
        <ele>65.6</ele>
        <time>2024-04-14T10:15:21Z</time>
      </trkpt>
      <trkpt lat="47.91301" lon="-0.44532">
        <ele>65.6</ele>
        <time>2024-04-14T10:15:22Z</time>
      </trkpt>
      <trkpt lat="47.91304" lon="-0.44527">
        <ele>65.6</ele>
        <time>2024-04-14T10:15:23Z</time>
      </trkpt>
      <trkpt lat="47.91308" lon="-0.44521">
        <ele>64.8</ele>
        <time>2024-04-14T10:15:24Z</time>
      </trkpt>
      <trkpt lat="47.91311" lon="-0.44515">
        <ele>64.4</ele>
        <time>2024-04-14T10:15:25Z</time>
      </trkpt>
      <trkpt lat="47.91315" lon="-0.44509">
        <ele>64.4</ele>
        <time>2024-04-14T10:15:26Z</time>
      </trkpt>
      <trkpt lat="47.91318" lon="-0.44503">
        <ele>64.4</ele>
        <time>2024-04-14T10:15:27Z</time>
      </trkpt>
      <trkpt lat="47.91321" lon="-0.44496">
        <ele>64.4</ele>
        <time>2024-04-14T10:15:28Z</time>
      </trkpt>
      <trkpt lat="47.91325" lon="-0.4449">
        <ele>65</ele>
        <time>2024-04-14T10:15:29Z</time>
      </trkpt>
      <trkpt lat="47.91329" lon="-0.44484">
        <ele>65</ele>
        <time>2024-04-14T10:15:30Z</time>
      </trkpt>
      <trkpt lat="47.91332" lon="-0.44477">
        <ele>65</ele>
        <time>2024-04-14T10:15:31Z</time>
      </trkpt>
      <trkpt lat="47.91336" lon="-0.44471">
        <ele>64</ele>
        <time>2024-04-14T10:15:32Z</time>
      </trkpt>
      <trkpt lat="47.9134" lon="-0.44464">
        <ele>63.6</ele>
        <time>2024-04-14T10:15:33Z</time>
      </trkpt>
      <trkpt lat="47.91344" lon="-0.44457">
        <ele>63.6</ele>
        <time>2024-04-14T10:15:34Z</time>
      </trkpt>
      <trkpt lat="47.91347" lon="-0.4445">
        <ele>63.6</ele>
        <time>2024-04-14T10:15:35Z</time>
      </trkpt>
      <trkpt lat="47.91351" lon="-0.44443">
        <ele>63.6</ele>
        <time>2024-04-14T10:15:36Z</time>
      </trkpt>
      <trkpt lat="47.91355" lon="-0.44436">
        <ele>62.8</ele>
        <time>2024-04-14T10:15:37Z</time>
      </trkpt>
      <trkpt lat="47.91359" lon="-0.44429">
        <ele>62.8</ele>
        <time>2024-04-14T10:15:38Z</time>
      </trkpt>
      <trkpt lat="47.91363" lon="-0.44422">
        <ele>62.8</ele>
        <time>2024-04-14T10:15:39Z</time>
      </trkpt>
      <trkpt lat="47.91367" lon="-0.44415">
        <ele>63.2</ele>
        <time>2024-04-14T10:15:40Z</time>
      </trkpt>
      <trkpt lat="47.9137" lon="-0.44409">
        <ele>63.2</ele>
        <time>2024-04-14T10:15:41Z</time>
      </trkpt>
      <trkpt lat="47.91374" lon="-0.44402">
        <ele>63.2</ele>
        <time>2024-04-14T10:15:42Z</time>
      </trkpt>
      <trkpt lat="47.91378" lon="-0.44395">
        <ele>63.2</ele>
        <time>2024-04-14T10:15:43Z</time>
      </trkpt>
      <trkpt lat="47.91381" lon="-0.44389">
        <ele>63.6</ele>
        <time>2024-04-14T10:15:44Z</time>
      </trkpt>
      <trkpt lat="47.91385" lon="-0.44382">
        <ele>63.8</ele>
        <time>2024-04-14T10:15:45Z</time>
      </trkpt>
      <trkpt lat="47.91389" lon="-0.44376">
        <ele>63.8</ele>
        <time>2024-04-14T10:15:46Z</time>
      </trkpt>
      <trkpt lat="47.91392" lon="-0.4437">
        <ele>63.8</ele>
        <time>2024-04-14T10:15:47Z</time>
      </trkpt>
      <trkpt lat="47.91395" lon="-0.44364">
        <ele>63.8</ele>
        <time>2024-04-14T10:15:48Z</time>
      </trkpt>
      <trkpt lat="47.91398" lon="-0.44358">
        <ele>65</ele>
        <time>2024-04-14T10:15:49Z</time>
      </trkpt>
      <trkpt lat="47.91401" lon="-0.44352">
        <ele>65</ele>
        <time>2024-04-14T10:15:50Z</time>
      </trkpt>
      <trkpt lat="47.91404" lon="-0.44347">
        <ele>65</ele>
        <time>2024-04-14T10:15:51Z</time>
      </trkpt>
      <trkpt lat="47.91407" lon="-0.44341">
        <ele>64.2</ele>
        <time>2024-04-14T10:15:52Z</time>
      </trkpt>
      <trkpt lat="47.9141" lon="-0.44335">
        <ele>63.8</ele>
        <time>2024-04-14T10:15:53Z</time>
      </trkpt>
      <trkpt lat="47.91413" lon="-0.44329">
        <ele>63.8</ele>
        <time>2024-04-14T10:15:54Z</time>
      </trkpt>
      <trkpt lat="47.91417" lon="-0.44324">
        <ele>63.8</ele>
        <time>2024-04-14T10:15:55Z</time>
      </trkpt>
      <trkpt lat="47.9142" lon="-0.44319">
        <ele>64.6</ele>
        <time>2024-04-14T10:15:56Z</time>
      </trkpt>
      <trkpt lat="47.91423" lon="-0.44314">
        <ele>64.2</ele>
        <time>2024-04-14T10:15:57Z</time>
      </trkpt>
      <trkpt lat="47.91426" lon="-0.44308">
        <ele>64.2</ele>
        <time>2024-04-14T10:15:58Z</time>
      </trkpt>
      <trkpt lat="47.91429" lon="-0.44302">
        <ele>64.2</ele>
        <time>2024-04-14T10:15:59Z</time>
      </trkpt>
      <trkpt lat="47.91432" lon="-0.44297">
        <ele>64.6</ele>
        <time>2024-04-14T10:16:00Z</time>
      </trkpt>
      <trkpt lat="47.91435" lon="-0.44291">
        <ele>64</ele>
        <time>2024-04-14T10:16:01Z</time>
      </trkpt>
      <trkpt lat="47.91437" lon="-0.44286">
        <ele>64</ele>
        <time>2024-04-14T10:16:02Z</time>
      </trkpt>
      <trkpt lat="47.9144" lon="-0.4428">
        <ele>64</ele>
        <time>2024-04-14T10:16:03Z</time>
      </trkpt>
      <trkpt lat="47.91442" lon="-0.44273">
        <ele>64</ele>
        <time>2024-04-14T10:16:04Z</time>
      </trkpt>
      <trkpt lat="47.91445" lon="-0.44266">
        <ele>62.2</ele>
        <time>2024-04-14T10:16:05Z</time>
      </trkpt>
      <trkpt lat="47.91448" lon="-0.4426">
        <ele>62.2</ele>
        <time>2024-04-14T10:16:06Z</time>
      </trkpt>
      <trkpt lat="47.9145" lon="-0.44253">
        <ele>62.2</ele>
        <time>2024-04-14T10:16:07Z</time>
      </trkpt>
      <trkpt lat="47.91451" lon="-0.44245">
        <ele>62.2</ele>
        <time>2024-04-14T10:16:08Z</time>
      </trkpt>
      <trkpt lat="47.91453" lon="-0.44238">
        <ele>62</ele>
        <time>2024-04-14T10:16:09Z</time>
      </trkpt>
      <trkpt lat="47.91453" lon="-0.44231">
        <ele>62</ele>
        <time>2024-04-14T10:16:10Z</time>
      </trkpt>
      <trkpt lat="47.91454" lon="-0.44223">
        <ele>62</ele>
        <time>2024-04-14T10:16:11Z</time>
      </trkpt>
      <trkpt lat="47.91453" lon="-0.44215">
        <ele>62</ele>
        <time>2024-04-14T10:16:12Z</time>
      </trkpt>
      <trkpt lat="47.91451" lon="-0.44206">
        <ele>61.2</ele>
        <time>2024-04-14T10:16:13Z</time>
      </trkpt>
      <trkpt lat="47.9145" lon="-0.44197">
        <ele>61.2</ele>
        <time>2024-04-14T10:16:14Z</time>
      </trkpt>
      <trkpt lat="47.91448" lon="-0.44189">
        <ele>61.2</ele>
        <time>2024-04-14T10:16:15Z</time>
      </trkpt>
      <trkpt lat="47.91446" lon="-0.44181">
        <ele>61.2</ele>
        <time>2024-04-14T10:16:16Z</time>
      </trkpt>
      <trkpt lat="47.91443" lon="-0.44174">
        <ele>61.2</ele>
        <time>2024-04-14T10:16:17Z</time>
      </trkpt>
      <trkpt lat="47.91439" lon="-0.44167">
        <ele>61.2</ele>
        <time>2024-04-14T10:16:18Z</time>
      </trkpt>
      <trkpt lat="47.91436" lon="-0.44161">
        <ele>61.2</ele>
        <time>2024-04-14T10:16:19Z</time>
      </trkpt>
      <trkpt lat="47.91433" lon="-0.44154">
        <ele>60.6</ele>
        <time>2024-04-14T10:16:20Z</time>
      </trkpt>
      <trkpt lat="47.9143" lon="-0.44146">
        <ele>59.4</ele>
        <time>2024-04-14T10:16:21Z</time>
      </trkpt>
      <trkpt lat="47.91427" lon="-0.44139">
        <ele>59.4</ele>
        <time>2024-04-14T10:16:22Z</time>
      </trkpt>
      <trkpt lat="47.91424" lon="-0.44132">
        <ele>59.4</ele>
        <time>2024-04-14T10:16:23Z</time>
      </trkpt>
      <trkpt lat="47.91422" lon="-0.44125">
        <ele>59.4</ele>
        <time>2024-04-14T10:16:24Z</time>
      </trkpt>
      <trkpt lat="47.91419" lon="-0.44118">
        <ele>58.8</ele>
        <time>2024-04-14T10:16:25Z</time>
      </trkpt>
      <trkpt lat="47.91415" lon="-0.44112">
        <ele>58.8</ele>
        <time>2024-04-14T10:16:26Z</time>
      </trkpt>
      <trkpt lat="47.91412" lon="-0.44105">
        <ele>58.8</ele>
        <time>2024-04-14T10:16:27Z</time>
      </trkpt>
      <trkpt lat="47.91409" lon="-0.44099">
        <ele>58.8</ele>
        <time>2024-04-14T10:16:28Z</time>
      </trkpt>
      <trkpt lat="47.91405" lon="-0.44093">
        <ele>57.8</ele>
        <time>2024-04-14T10:16:29Z</time>
      </trkpt>
      <trkpt lat="47.91401" lon="-0.44088">
        <ele>57.8</ele>
        <time>2024-04-14T10:16:30Z</time>
      </trkpt>
      <trkpt lat="47.91397" lon="-0.44082">
        <ele>57.8</ele>
        <time>2024-04-14T10:16:31Z</time>
      </trkpt>
      <trkpt lat="47.91392" lon="-0.44077">
        <ele>58</ele>
        <time>2024-04-14T10:16:32Z</time>
      </trkpt>
      <trkpt lat="47.91388" lon="-0.4407">
        <ele>57.6</ele>
        <time>2024-04-14T10:16:33Z</time>
      </trkpt>
      <trkpt lat="47.91384" lon="-0.44064">
        <ele>57.6</ele>
        <time>2024-04-14T10:16:34Z</time>
      </trkpt>
      <trkpt lat="47.9138" lon="-0.44059">
        <ele>57.6</ele>
        <time>2024-04-14T10:16:35Z</time>
      </trkpt>
      <trkpt lat="47.91376" lon="-0.44053">
        <ele>57.6</ele>
        <time>2024-04-14T10:16:36Z</time>
      </trkpt>
      <trkpt lat="47.91371" lon="-0.44045">
        <ele>55.8</ele>
        <time>2024-04-14T10:16:37Z</time>
      </trkpt>
      <trkpt lat="47.91367" lon="-0.44037">
        <ele>55.8</ele>
        <time>2024-04-14T10:16:38Z</time>
      </trkpt>
      <trkpt lat="47.91362" lon="-0.44031">
        <ele>55.8</ele>
        <time>2024-04-14T10:16:39Z</time>
      </trkpt>
      <trkpt lat="47.91357" lon="-0.44024">
        <ele>56.8</ele>
        <time>2024-04-14T10:16:40Z</time>
      </trkpt>
      <trkpt lat="47.91353" lon="-0.44016">
        <ele>56.6</ele>
        <time>2024-04-14T10:16:41Z</time>
      </trkpt>
      <trkpt lat="47.91349" lon="-0.44008">
        <ele>56.6</ele>
        <time>2024-04-14T10:16:42Z</time>
      </trkpt>
      <trkpt lat="47.91347" lon="-0.43999">
        <ele>56.6</ele>
        <time>2024-04-14T10:16:43Z</time>
      </trkpt>
      <trkpt lat="47.91343" lon="-0.43988">
        <ele>55.6</ele>
        <time>2024-04-14T10:16:44Z</time>
      </trkpt>
      <trkpt lat="47.91341" lon="-0.43977">
        <ele>55.2</ele>
        <time>2024-04-14T10:16:45Z</time>
      </trkpt>
      <trkpt lat="47.91338" lon="-0.43966">
        <ele>55.2</ele>
        <time>2024-04-14T10:16:46Z</time>
      </trkpt>
      <trkpt lat="47.91336" lon="-0.43957">
        <ele>55.2</ele>
        <time>2024-04-14T10:16:47Z</time>
      </trkpt>
      <trkpt lat="47.91333" lon="-0.43946">
        <ele>55.2</ele>
        <time>2024-04-14T10:16:48Z</time>
      </trkpt>
      <trkpt lat="47.91331" lon="-0.43934">
        <ele>53.2</ele>
        <time>2024-04-14T10:16:49Z</time>
      </trkpt>
      <trkpt lat="47.91328" lon="-0.43923">
        <ele>53.2</ele>
        <time>2024-04-14T10:16:50Z</time>
      </trkpt>
      <trkpt lat="47.91327" lon="-0.43913">
        <ele>53.2</ele>
        <time>2024-04-14T10:16:51Z</time>
      </trkpt>
      <trkpt lat="47.91326" lon="-0.43903">
        <ele>53.2</ele>
        <time>2024-04-14T10:16:52Z</time>
      </trkpt>
      <trkpt lat="47.91325" lon="-0.43892">
        <ele>52</ele>
        <time>2024-04-14T10:16:53Z</time>
      </trkpt>
      <trkpt lat="47.91324" lon="-0.43881">
        <ele>52</ele>
        <time>2024-04-14T10:16:54Z</time>
      </trkpt>
      <trkpt lat="47.91325" lon="-0.4387">
        <ele>52</ele>
        <time>2024-04-14T10:16:55Z</time>
      </trkpt>
      <trkpt lat="47.91326" lon="-0.43859">
        <ele>52.4</ele>
        <time>2024-04-14T10:16:56Z</time>
      </trkpt>
      <trkpt lat="47.91327" lon="-0.43848">
        <ele>52</ele>
        <time>2024-04-14T10:16:57Z</time>
      </trkpt>
      <trkpt lat="47.91328" lon="-0.43837">
        <ele>52</ele>
        <time>2024-04-14T10:16:58Z</time>
      </trkpt>
      <trkpt lat="47.91329" lon="-0.43826">
        <ele>52</ele>
        <time>2024-04-14T10:16:59Z</time>
      </trkpt>
      <trkpt lat="47.9133" lon="-0.43815">
        <ele>51</ele>
        <time>2024-04-14T10:17:00Z</time>
      </trkpt>
      <trkpt lat="47.91332" lon="-0.43804">
        <ele>50.6</ele>
        <time>2024-04-14T10:17:01Z</time>
      </trkpt>
      <trkpt lat="47.91333" lon="-0.43793">
        <ele>50.6</ele>
        <time>2024-04-14T10:17:02Z</time>
      </trkpt>
      <trkpt lat="47.91334" lon="-0.43783">
        <ele>50.6</ele>
        <time>2024-04-14T10:17:03Z</time>
      </trkpt>
      <trkpt lat="47.91336" lon="-0.43773">
        <ele>50.6</ele>
        <time>2024-04-14T10:17:04Z</time>
      </trkpt>
      <trkpt lat="47.91338" lon="-0.43764">
        <ele>50.6</ele>
        <time>2024-04-14T10:17:05Z</time>
      </trkpt>
      <trkpt lat="47.9134" lon="-0.43754">
        <ele>50.6</ele>
        <time>2024-04-14T10:17:06Z</time>
      </trkpt>
      <trkpt lat="47.91343" lon="-0.43746">
        <ele>50.6</ele>
        <time>2024-04-14T10:17:07Z</time>
      </trkpt>
      <trkpt lat="47.91344" lon="-0.43738">
        <ele>50.6</ele>
        <time>2024-04-14T10:17:08Z</time>
      </trkpt>
      <trkpt lat="47.91347" lon="-0.43729">
        <ele>50.6</ele>
        <time>2024-04-14T10:17:09Z</time>
      </trkpt>
      <trkpt lat="47.91349" lon="-0.43721">
        <ele>50.6</ele>
        <time>2024-04-14T10:17:10Z</time>
      </trkpt>
      <trkpt lat="47.91351" lon="-0.43712">
        <ele>50.6</ele>
        <time>2024-04-14T10:17:11Z</time>
      </trkpt>
      <trkpt lat="47.91352" lon="-0.43704">
        <ele>50.6</ele>
        <time>2024-04-14T10:17:12Z</time>
      </trkpt>
      <trkpt lat="47.91353" lon="-0.43695">
        <ele>50.2</ele>
        <time>2024-04-14T10:17:13Z</time>
      </trkpt>
      <trkpt lat="47.91353" lon="-0.43686">
        <ele>50.2</ele>
        <time>2024-04-14T10:17:14Z</time>
      </trkpt>
      <trkpt lat="47.91354" lon="-0.43677">
        <ele>50.2</ele>
        <time>2024-04-14T10:17:15Z</time>
      </trkpt>
      <trkpt lat="47.91354" lon="-0.43668">
        <ele>51</ele>
        <time>2024-04-14T10:17:16Z</time>
      </trkpt>
      <trkpt lat="47.91354" lon="-0.43658">
        <ele>50.8</ele>
        <time>2024-04-14T10:17:17Z</time>
      </trkpt>
      <trkpt lat="47.91355" lon="-0.43649">
        <ele>50.8</ele>
        <time>2024-04-14T10:17:18Z</time>
      </trkpt>
      <trkpt lat="47.91356" lon="-0.43641">
        <ele>50.8</ele>
        <time>2024-04-14T10:17:19Z</time>
      </trkpt>
      <trkpt lat="47.91357" lon="-0.43632">
        <ele>51</ele>
        <time>2024-04-14T10:17:20Z</time>
      </trkpt>
      <trkpt lat="47.91358" lon="-0.43622">
        <ele>51</ele>
        <time>2024-04-14T10:17:21Z</time>
      </trkpt>
      <trkpt lat="47.9136" lon="-0.43613">
        <ele>51</ele>
        <time>2024-04-14T10:17:22Z</time>
      </trkpt>
      <trkpt lat="47.91362" lon="-0.43603">
        <ele>51</ele>
        <time>2024-04-14T10:17:23Z</time>
      </trkpt>
      <trkpt lat="47.91365" lon="-0.43595">
        <ele>51</ele>
        <time>2024-04-14T10:17:24Z</time>
      </trkpt>
      <trkpt lat="47.91369" lon="-0.43589">
        <ele>51.2</ele>
        <time>2024-04-14T10:17:25Z</time>
      </trkpt>
      <trkpt lat="47.91375" lon="-0.43586">
        <ele>51.2</ele>
        <time>2024-04-14T10:17:26Z</time>
      </trkpt>
      <trkpt lat="47.91381" lon="-0.43585">
        <ele>51.2</ele>
        <time>2024-04-14T10:17:27Z</time>
      </trkpt>
      <trkpt lat="47.91385" lon="-0.43587">
        <ele>50.4</ele>
        <time>2024-04-14T10:17:28Z</time>
      </trkpt>
      <trkpt lat="47.9139" lon="-0.4359">
        <ele>50.8</ele>
        <time>2024-04-14T10:17:29Z</time>
      </trkpt>
      <trkpt lat="47.91395" lon="-0.43593">
        <ele>50.8</ele>
        <time>2024-04-14T10:17:30Z</time>
      </trkpt>
      <trkpt lat="47.91401" lon="-0.43595">
        <ele>50.8</ele>
        <time>2024-04-14T10:17:31Z</time>
      </trkpt>
      <trkpt lat="47.91407" lon="-0.43598">
        <ele>50</ele>
        <time>2024-04-14T10:17:32Z</time>
      </trkpt>
      <trkpt lat="47.91413" lon="-0.436">
        <ele>50.4</ele>
        <time>2024-04-14T10:17:33Z</time>
      </trkpt>
      <trkpt lat="47.91418" lon="-0.43603">
        <ele>50.4</ele>
        <time>2024-04-14T10:17:34Z</time>
      </trkpt>
      <trkpt lat="47.91424" lon="-0.43605">
        <ele>50.4</ele>
        <time>2024-04-14T10:17:35Z</time>
      </trkpt>
      <trkpt lat="47.91429" lon="-0.43608">
        <ele>50.4</ele>
        <time>2024-04-14T10:17:36Z</time>
      </trkpt>
      <trkpt lat="47.91435" lon="-0.43611">
        <ele>50.6</ele>
        <time>2024-04-14T10:17:37Z</time>
      </trkpt>
      <trkpt lat="47.9144" lon="-0.43613">
        <ele>50.6</ele>
        <time>2024-04-14T10:17:38Z</time>
      </trkpt>
      <trkpt lat="47.91445" lon="-0.43615">
        <ele>50.6</ele>
        <time>2024-04-14T10:17:39Z</time>
      </trkpt>
      <trkpt lat="47.9145" lon="-0.43618">
        <ele>51.4</ele>
        <time>2024-04-14T10:17:40Z</time>
      </trkpt>
      <trkpt lat="47.91455" lon="-0.4362">
        <ele>52</ele>
        <time>2024-04-14T10:17:41Z</time>
      </trkpt>
      <trkpt lat="47.9146" lon="-0.43622">
        <ele>52</ele>
        <time>2024-04-14T10:17:42Z</time>
      </trkpt>
      <trkpt lat="47.91465" lon="-0.43625">
        <ele>52</ele>
        <time>2024-04-14T10:17:43Z</time>
      </trkpt>
      <trkpt lat="47.91469" lon="-0.43627">
        <ele>52.4</ele>
        <time>2024-04-14T10:17:44Z</time>
      </trkpt>
      <trkpt lat="47.91474" lon="-0.4363">
        <ele>53.2</ele>
        <time>2024-04-14T10:17:45Z</time>
      </trkpt>
      <trkpt lat="47.91479" lon="-0.43633">
        <ele>53.2</ele>
        <time>2024-04-14T10:17:46Z</time>
      </trkpt>
      <trkpt lat="47.91483" lon="-0.43635">
        <ele>53.2</ele>
        <time>2024-04-14T10:17:47Z</time>
      </trkpt>
      <trkpt lat="47.91488" lon="-0.43638">
        <ele>52.4</ele>
        <time>2024-04-14T10:17:48Z</time>
      </trkpt>
      <trkpt lat="47.91492" lon="-0.43641">
        <ele>53.2</ele>
        <time>2024-04-14T10:17:49Z</time>
      </trkpt>
      <trkpt lat="47.91497" lon="-0.43643">
        <ele>53.2</ele>
        <time>2024-04-14T10:17:50Z</time>
      </trkpt>
      <trkpt lat="47.91502" lon="-0.43645">
        <ele>53.2</ele>
        <time>2024-04-14T10:17:51Z</time>
      </trkpt>
      <trkpt lat="47.91506" lon="-0.43645">
        <ele>53.2</ele>
        <time>2024-04-14T10:17:52Z</time>
      </trkpt>
      <trkpt lat="47.9151" lon="-0.43643">
        <ele>53.8</ele>
        <time>2024-04-14T10:17:53Z</time>
      </trkpt>
      <trkpt lat="47.91513" lon="-0.43638">
        <ele>53.8</ele>
        <time>2024-04-14T10:17:54Z</time>
      </trkpt>
      <trkpt lat="47.91516" lon="-0.43632">
        <ele>53.8</ele>
        <time>2024-04-14T10:17:55Z</time>
      </trkpt>
      <trkpt lat="47.91518" lon="-0.43626">
        <ele>53.8</ele>
        <time>2024-04-14T10:17:56Z</time>
      </trkpt>
      <trkpt lat="47.91519" lon="-0.43619">
        <ele>53.2</ele>
        <time>2024-04-14T10:17:57Z</time>
      </trkpt>
      <trkpt lat="47.91521" lon="-0.43612">
        <ele>53.2</ele>
        <time>2024-04-14T10:17:58Z</time>
      </trkpt>
      <trkpt lat="47.91522" lon="-0.43605">
        <ele>53.2</ele>
        <time>2024-04-14T10:17:59Z</time>
      </trkpt>
      <trkpt lat="47.91524" lon="-0.43598">
        <ele>53.8</ele>
        <time>2024-04-14T10:18:00Z</time>
      </trkpt>
      <trkpt lat="47.91525" lon="-0.43591">
        <ele>53.8</ele>
        <time>2024-04-14T10:18:01Z</time>
      </trkpt>
      <trkpt lat="47.91526" lon="-0.43583">
        <ele>53.8</ele>
        <time>2024-04-14T10:18:02Z</time>
      </trkpt>
      <trkpt lat="47.91527" lon="-0.43575">
        <ele>53.8</ele>
        <time>2024-04-14T10:18:03Z</time>
      </trkpt>
      <trkpt lat="47.91527" lon="-0.43567">
        <ele>53.8</ele>
        <time>2024-04-14T10:18:04Z</time>
      </trkpt>
      <trkpt lat="47.91528" lon="-0.43559">
        <ele>53.2</ele>
        <time>2024-04-14T10:18:05Z</time>
      </trkpt>
      <trkpt lat="47.91528" lon="-0.43551">
        <ele>53.2</ele>
        <time>2024-04-14T10:18:06Z</time>
      </trkpt>
      <trkpt lat="47.91529" lon="-0.43543">
        <ele>53.2</ele>
        <time>2024-04-14T10:18:07Z</time>
      </trkpt>
      <trkpt lat="47.9153" lon="-0.43535">
        <ele>53.2</ele>
        <time>2024-04-14T10:18:08Z</time>
      </trkpt>
      <trkpt lat="47.91532" lon="-0.43527">
        <ele>52.2</ele>
        <time>2024-04-14T10:18:09Z</time>
      </trkpt>
      <trkpt lat="47.91534" lon="-0.4352">
        <ele>52.2</ele>
        <time>2024-04-14T10:18:10Z</time>
      </trkpt>
      <trkpt lat="47.91536" lon="-0.43513">
        <ele>52.2</ele>
        <time>2024-04-14T10:18:11Z</time>
      </trkpt>
      <trkpt lat="47.91538" lon="-0.43506">
        <ele>52.2</ele>
        <time>2024-04-14T10:18:12Z</time>
      </trkpt>
      <trkpt lat="47.9154" lon="-0.435">
        <ele>53.6</ele>
        <time>2024-04-14T10:18:13Z</time>
      </trkpt>
      <trkpt lat="47.91543" lon="-0.43494">
        <ele>53.6</ele>
        <time>2024-04-14T10:18:14Z</time>
      </trkpt>
      <trkpt lat="47.91545" lon="-0.43488">
        <ele>53.6</ele>
        <time>2024-04-14T10:18:15Z</time>
      </trkpt>
      <trkpt lat="47.91548" lon="-0.43483">
        <ele>54.6</ele>
        <time>2024-04-14T10:18:16Z</time>
      </trkpt>
      <trkpt lat="47.91551" lon="-0.43478">
        <ele>54.4</ele>
        <time>2024-04-14T10:18:17Z</time>
      </trkpt>
      <trkpt lat="47.91554" lon="-0.43474">
        <ele>54.4</ele>
        <time>2024-04-14T10:18:18Z</time>
      </trkpt>
      <trkpt lat="47.91557" lon="-0.4347">
        <ele>54.4</ele>
        <time>2024-04-14T10:18:19Z</time>
      </trkpt>
      <trkpt lat="47.91561" lon="-0.43468">
        <ele>54.4</ele>
        <time>2024-04-14T10:18:20Z</time>
      </trkpt>
      <trkpt lat="47.91565" lon="-0.43467">
        <ele>55.6</ele>
        <time>2024-04-14T10:18:21Z</time>
      </trkpt>
      <trkpt lat="47.91569" lon="-0.43466">
        <ele>55.6</ele>
        <time>2024-04-14T10:18:22Z</time>
      </trkpt>
      <trkpt lat="47.91572" lon="-0.43467">
        <ele>55.6</ele>
        <time>2024-04-14T10:18:23Z</time>
      </trkpt>
      <trkpt lat="47.91576" lon="-0.43468">
        <ele>56.6</ele>
        <time>2024-04-14T10:18:24Z</time>
      </trkpt>
      <trkpt lat="47.9158" lon="-0.4347">
        <ele>55.8</ele>
        <time>2024-04-14T10:18:25Z</time>
      </trkpt>
      <trkpt lat="47.91583" lon="-0.43471">
        <ele>55.8</ele>
        <time>2024-04-14T10:18:26Z</time>
      </trkpt>
      <trkpt lat="47.91587" lon="-0.43472">
        <ele>55.8</ele>
        <time>2024-04-14T10:18:27Z</time>
      </trkpt>
      <trkpt lat="47.91591" lon="-0.43474">
        <ele>56</ele>
        <time>2024-04-14T10:18:28Z</time>
      </trkpt>
      <trkpt lat="47.91594" lon="-0.43475">
        <ele>57.6</ele>
        <time>2024-04-14T10:18:29Z</time>
      </trkpt>
      <trkpt lat="47.91598" lon="-0.43477">
        <ele>57.6</ele>
        <time>2024-04-14T10:18:30Z</time>
      </trkpt>
      <trkpt lat="47.91601" lon="-0.43478">
        <ele>57.6</ele>
        <time>2024-04-14T10:18:31Z</time>
      </trkpt>
      <trkpt lat="47.91605" lon="-0.43479">
        <ele>57.6</ele>
        <time>2024-04-14T10:18:32Z</time>
      </trkpt>
      <trkpt lat="47.91608" lon="-0.43481">
        <ele>57.8</ele>
        <time>2024-04-14T10:18:33Z</time>
      </trkpt>
      <trkpt lat="47.91611" lon="-0.43482">
        <ele>57.8</ele>
        <time>2024-04-14T10:18:34Z</time>
      </trkpt>
      <trkpt lat="47.91615" lon="-0.43483">
        <ele>57.8</ele>
        <time>2024-04-14T10:18:35Z</time>
      </trkpt>
      <trkpt lat="47.91618" lon="-0.43484">
        <ele>57.8</ele>
        <time>2024-04-14T10:18:36Z</time>
      </trkpt>
      <trkpt lat="47.91622" lon="-0.43485">
        <ele>59.4</ele>
        <time>2024-04-14T10:18:37Z</time>
      </trkpt>
      <trkpt lat="47.91624" lon="-0.43486">
        <ele>59.4</ele>
        <time>2024-04-14T10:18:38Z</time>
      </trkpt>
      <trkpt lat="47.91626" lon="-0.43487">
        <ele>59.4</ele>
        <time>2024-04-14T10:18:39Z</time>
      </trkpt>
      <trkpt lat="47.91629" lon="-0.43486">
        <ele>59.4</ele>
        <time>2024-04-14T10:18:40Z</time>
      </trkpt>
      <trkpt lat="47.91631" lon="-0.43486">
        <ele>60.4</ele>
        <time>2024-04-14T10:18:41Z</time>
      </trkpt>
      <trkpt lat="47.91632" lon="-0.43486">
        <ele>60.4</ele>
        <time>2024-04-14T10:18:42Z</time>
      </trkpt>
      <trkpt lat="47.91633" lon="-0.43486">
        <ele>60.4</ele>
        <time>2024-04-14T10:18:43Z</time>
      </trkpt>
      <trkpt lat="47.91633" lon="-0.43486">
        <ele>60.4</ele>
        <time>2024-04-14T10:18:44Z</time>
      </trkpt>
      <trkpt lat="47.91641" lon="-0.43488">
        <ele>60.4</ele>
        <time>2024-04-14T10:19:21Z</time>
      </trkpt>
      <trkpt lat="47.91643" lon="-0.43489">
        <ele>60.4</ele>
        <time>2024-04-14T10:19:22Z</time>
      </trkpt>
      <trkpt lat="47.91645" lon="-0.43489">
        <ele>60.4</ele>
        <time>2024-04-14T10:19:23Z</time>
      </trkpt>
      <trkpt lat="47.91648" lon="-0.4349">
        <ele>59.4</ele>
        <time>2024-04-14T10:19:24Z</time>
      </trkpt>
      <trkpt lat="47.9165" lon="-0.43491">
        <ele>59.8</ele>
        <time>2024-04-14T10:19:25Z</time>
      </trkpt>
      <trkpt lat="47.91653" lon="-0.43492">
        <ele>59.8</ele>
        <time>2024-04-14T10:19:26Z</time>
      </trkpt>
      <trkpt lat="47.91655" lon="-0.43493">
        <ele>59.8</ele>
        <time>2024-04-14T10:19:27Z</time>
      </trkpt>
      <trkpt lat="47.91658" lon="-0.43495">
        <ele>59.8</ele>
        <time>2024-04-14T10:19:28Z</time>
      </trkpt>
      <trkpt lat="47.91661" lon="-0.43496">
        <ele>61.2</ele>
        <time>2024-04-14T10:19:29Z</time>
      </trkpt>
      <trkpt lat="47.91664" lon="-0.43498">
        <ele>61.2</ele>
        <time>2024-04-14T10:19:30Z</time>
      </trkpt>
      <trkpt lat="47.91667" lon="-0.43499">
        <ele>61.2</ele>
        <time>2024-04-14T10:19:31Z</time>
      </trkpt>
      <trkpt lat="47.9167" lon="-0.43501">
        <ele>61.2</ele>
        <time>2024-04-14T10:19:32Z</time>
      </trkpt>
      <trkpt lat="47.91673" lon="-0.43502">
        <ele>61.8</ele>
        <time>2024-04-14T10:19:33Z</time>
      </trkpt>
      <trkpt lat="47.91676" lon="-0.43503">
        <ele>61.8</ele>
        <time>2024-04-14T10:19:34Z</time>
      </trkpt>
      <trkpt lat="47.9168" lon="-0.43505">
        <ele>61.8</ele>
        <time>2024-04-14T10:19:35Z</time>
      </trkpt>
      <trkpt lat="47.91683" lon="-0.43507">
        <ele>61.8</ele>
        <time>2024-04-14T10:19:36Z</time>
      </trkpt>
      <trkpt lat="47.91686" lon="-0.43508">
        <ele>58.6</ele>
        <time>2024-04-14T10:19:37Z</time>
      </trkpt>
      <trkpt lat="47.9169" lon="-0.43509">
        <ele>58.6</ele>
        <time>2024-04-14T10:19:38Z</time>
      </trkpt>
      <trkpt lat="47.91693" lon="-0.4351">
        <ele>58.6</ele>
        <time>2024-04-14T10:19:39Z</time>
      </trkpt>
      <trkpt lat="47.91696" lon="-0.43511">
        <ele>59.6</ele>
        <time>2024-04-14T10:19:40Z</time>
      </trkpt>
      <trkpt lat="47.91699" lon="-0.43511">
        <ele>62.8</ele>
        <time>2024-04-14T10:19:41Z</time>
      </trkpt>
      <trkpt lat="47.91702" lon="-0.43512">
        <ele>62.8</ele>
        <time>2024-04-14T10:19:42Z</time>
      </trkpt>
      <trkpt lat="47.91706" lon="-0.43513">
        <ele>62.8</ele>
        <time>2024-04-14T10:19:43Z</time>
      </trkpt>
      <trkpt lat="47.91709" lon="-0.43514">
        <ele>62.8</ele>
        <time>2024-04-14T10:19:44Z</time>
      </trkpt>
      <trkpt lat="47.91712" lon="-0.43515">
        <ele>63.2</ele>
        <time>2024-04-14T10:19:45Z</time>
      </trkpt>
      <trkpt lat="47.91715" lon="-0.43517">
        <ele>63.2</ele>
        <time>2024-04-14T10:19:46Z</time>
      </trkpt>
      <trkpt lat="47.91718" lon="-0.43518">
        <ele>63.2</ele>
        <time>2024-04-14T10:19:47Z</time>
      </trkpt>
      <trkpt lat="47.9172" lon="-0.43519">
        <ele>63.2</ele>
        <time>2024-04-14T10:19:48Z</time>
      </trkpt>
      <trkpt lat="47.91723" lon="-0.4352">
        <ele>63.6</ele>
        <time>2024-04-14T10:19:49Z</time>
      </trkpt>
      <trkpt lat="47.91726" lon="-0.43522">
        <ele>63.6</ele>
        <time>2024-04-14T10:19:50Z</time>
      </trkpt>
      <trkpt lat="47.91729" lon="-0.43523">
        <ele>63.6</ele>
        <time>2024-04-14T10:19:51Z</time>
      </trkpt>
      <trkpt lat="47.91731" lon="-0.43524">
        <ele>64.6</ele>
        <time>2024-04-14T10:19:52Z</time>
      </trkpt>
      <trkpt lat="47.91734" lon="-0.43526">
        <ele>66.2</ele>
        <time>2024-04-14T10:19:53Z</time>
      </trkpt>
      <trkpt lat="47.91736" lon="-0.43528">
        <ele>66.2</ele>
        <time>2024-04-14T10:19:54Z</time>
      </trkpt>
      <trkpt lat="47.91738" lon="-0.43529">
        <ele>66.2</ele>
        <time>2024-04-14T10:19:55Z</time>
      </trkpt>
      <trkpt lat="47.91741" lon="-0.43531">
        <ele>65.4</ele>
        <time>2024-04-14T10:19:56Z</time>
      </trkpt>
      <trkpt lat="47.91744" lon="-0.43532">
        <ele>66.8</ele>
        <time>2024-04-14T10:19:57Z</time>
      </trkpt>
      <trkpt lat="47.91746" lon="-0.43533">
        <ele>66.8</ele>
        <time>2024-04-14T10:19:58Z</time>
      </trkpt>
      <trkpt lat="47.91749" lon="-0.43534">
        <ele>66.8</ele>
        <time>2024-04-14T10:19:59Z</time>
      </trkpt>
      <trkpt lat="47.91752" lon="-0.43535">
        <ele>66.8</ele>
        <time>2024-04-14T10:20:00Z</time>
      </trkpt>
      <trkpt lat="47.91754" lon="-0.43536">
        <ele>66.6</ele>
        <time>2024-04-14T10:20:01Z</time>
      </trkpt>
      <trkpt lat="47.91757" lon="-0.43537">
        <ele>66.6</ele>
        <time>2024-04-14T10:20:02Z</time>
      </trkpt>
      <trkpt lat="47.91759" lon="-0.43538">
        <ele>66.6</ele>
        <time>2024-04-14T10:20:03Z</time>
      </trkpt>
      <trkpt lat="47.91762" lon="-0.43539">
        <ele>67.6</ele>
        <time>2024-04-14T10:20:04Z</time>
      </trkpt>
      <trkpt lat="47.91765" lon="-0.43541">
        <ele>67.4</ele>
        <time>2024-04-14T10:20:05Z</time>
      </trkpt>
      <trkpt lat="47.91767" lon="-0.43542">
        <ele>67.4</ele>
        <time>2024-04-14T10:20:06Z</time>
      </trkpt>
      <trkpt lat="47.9177" lon="-0.43543">
        <ele>67.4</ele>
        <time>2024-04-14T10:20:07Z</time>
      </trkpt>
      <trkpt lat="47.91772" lon="-0.43544">
        <ele>67.8</ele>
        <time>2024-04-14T10:20:08Z</time>
      </trkpt>
      <trkpt lat="47.91774" lon="-0.43545">
        <ele>68.2</ele>
        <time>2024-04-14T10:20:09Z</time>
      </trkpt>
      <trkpt lat="47.91777" lon="-0.43545">
        <ele>68.2</ele>
        <time>2024-04-14T10:20:10Z</time>
      </trkpt>
      <trkpt lat="47.9178" lon="-0.43546">
        <ele>68.2</ele>
        <time>2024-04-14T10:20:11Z</time>
      </trkpt>
      <trkpt lat="47.91783" lon="-0.43547">
        <ele>68.4</ele>
        <time>2024-04-14T10:20:12Z</time>
      </trkpt>
      <trkpt lat="47.91785" lon="-0.43548">
        <ele>69.6</ele>
        <time>2024-04-14T10:20:13Z</time>
      </trkpt>
      <trkpt lat="47.91788" lon="-0.43549">
        <ele>69.6</ele>
        <time>2024-04-14T10:20:14Z</time>
      </trkpt>
      <trkpt lat="47.9179" lon="-0.43549">
        <ele>69.6</ele>
        <time>2024-04-14T10:20:15Z</time>
      </trkpt>
      <trkpt lat="47.91792" lon="-0.43551">
        <ele>69.6</ele>
        <time>2024-04-14T10:20:16Z</time>
      </trkpt>
      <trkpt lat="47.91795" lon="-0.43552">
        <ele>70.4</ele>
        <time>2024-04-14T10:20:17Z</time>
      </trkpt>
      <trkpt lat="47.91798" lon="-0.43553">
        <ele>70.4</ele>
        <time>2024-04-14T10:20:18Z</time>
      </trkpt>
      <trkpt lat="47.918" lon="-0.43553">
        <ele>70.4</ele>
        <time>2024-04-14T10:20:19Z</time>
      </trkpt>
      <trkpt lat="47.91803" lon="-0.43555">
        <ele>70.4</ele>
        <time>2024-04-14T10:20:20Z</time>
      </trkpt>
      <trkpt lat="47.91805" lon="-0.43556">
        <ele>71</ele>
        <time>2024-04-14T10:20:21Z</time>
      </trkpt>
      <trkpt lat="47.91808" lon="-0.43557">
        <ele>71</ele>
        <time>2024-04-14T10:20:22Z</time>
      </trkpt>
      <trkpt lat="47.9181" lon="-0.43558">
        <ele>71</ele>
        <time>2024-04-14T10:20:23Z</time>
      </trkpt>
      <trkpt lat="47.91813" lon="-0.43559">
        <ele>71</ele>
        <time>2024-04-14T10:20:24Z</time>
      </trkpt>
      <trkpt lat="47.91815" lon="-0.4356">
        <ele>71</ele>
        <time>2024-04-14T10:20:25Z</time>
      </trkpt>
      <trkpt lat="47.91818" lon="-0.43561">
        <ele>71</ele>
        <time>2024-04-14T10:20:26Z</time>
      </trkpt>
      <trkpt lat="47.9182" lon="-0.43562">
        <ele>71</ele>
        <time>2024-04-14T10:20:27Z</time>
      </trkpt>
      <trkpt lat="47.91823" lon="-0.43563">
        <ele>71</ele>
        <time>2024-04-14T10:20:28Z</time>
      </trkpt>
      <trkpt lat="47.91825" lon="-0.43564">
        <ele>71.8</ele>
        <time>2024-04-14T10:20:29Z</time>
      </trkpt>
      <trkpt lat="47.91828" lon="-0.43564">
        <ele>71.8</ele>
        <time>2024-04-14T10:20:30Z</time>
      </trkpt>
      <trkpt lat="47.9183" lon="-0.43565">
        <ele>71.8</ele>
        <time>2024-04-14T10:20:31Z</time>
      </trkpt>
      <trkpt lat="47.91833" lon="-0.43565">
        <ele>72</ele>
        <time>2024-04-14T10:20:32Z</time>
      </trkpt>
      <trkpt lat="47.91835" lon="-0.43566">
        <ele>72.4</ele>
        <time>2024-04-14T10:20:33Z</time>
      </trkpt>
      <trkpt lat="47.91838" lon="-0.43568">
        <ele>72.4</ele>
        <time>2024-04-14T10:20:34Z</time>
      </trkpt>
      <trkpt lat="47.91841" lon="-0.43569">
        <ele>72.4</ele>
        <time>2024-04-14T10:20:35Z</time>
      </trkpt>
      <trkpt lat="47.91843" lon="-0.43569">
        <ele>73</ele>
        <time>2024-04-14T10:20:36Z</time>
      </trkpt>
      <trkpt lat="47.91846" lon="-0.4357">
        <ele>73</ele>
        <time>2024-04-14T10:20:37Z</time>
      </trkpt>
      <trkpt lat="47.91849" lon="-0.43571">
        <ele>73</ele>
        <time>2024-04-14T10:20:38Z</time>
      </trkpt>
      <trkpt lat="47.91852" lon="-0.43573">
        <ele>73</ele>
        <time>2024-04-14T10:20:39Z</time>
      </trkpt>
      <trkpt lat="47.91854" lon="-0.43574">
        <ele>73</ele>
        <time>2024-04-14T10:20:40Z</time>
      </trkpt>
      <trkpt lat="47.91857" lon="-0.43575">
        <ele>73</ele>
        <time>2024-04-14T10:20:41Z</time>
      </trkpt>
      <trkpt lat="47.9186" lon="-0.43576">
        <ele>73</ele>
        <time>2024-04-14T10:20:42Z</time>
      </trkpt>
      <trkpt lat="47.91863" lon="-0.43576">
        <ele>73</ele>
        <time>2024-04-14T10:20:43Z</time>
      </trkpt>
      <trkpt lat="47.91866" lon="-0.43576">
        <ele>73</ele>
        <time>2024-04-14T10:20:44Z</time>
      </trkpt>
      <trkpt lat="47.91868" lon="-0.43576">
        <ele>72.2</ele>
        <time>2024-04-14T10:20:45Z</time>
      </trkpt>
      <trkpt lat="47.91871" lon="-0.43577">
        <ele>72.2</ele>
        <time>2024-04-14T10:20:46Z</time>
      </trkpt>
      <trkpt lat="47.91873" lon="-0.43578">
        <ele>72.2</ele>
        <time>2024-04-14T10:20:47Z</time>
      </trkpt>
      <trkpt lat="47.91876" lon="-0.4358">
        <ele>73.2</ele>
        <time>2024-04-14T10:20:48Z</time>
      </trkpt>
      <trkpt lat="47.91879" lon="-0.43581">
        <ele>73.8</ele>
        <time>2024-04-14T10:20:49Z</time>
      </trkpt>
      <trkpt lat="47.91882" lon="-0.43582">
        <ele>73.8</ele>
        <time>2024-04-14T10:20:50Z</time>
      </trkpt>
      <trkpt lat="47.91885" lon="-0.43584">
        <ele>73.8</ele>
        <time>2024-04-14T10:20:51Z</time>
      </trkpt>
      <trkpt lat="47.91887" lon="-0.43585">
        <ele>73.8</ele>
        <time>2024-04-14T10:20:52Z</time>
      </trkpt>
      <trkpt lat="47.9189" lon="-0.43585">
        <ele>73</ele>
        <time>2024-04-14T10:20:53Z</time>
      </trkpt>
      <trkpt lat="47.91893" lon="-0.43587">
        <ele>73</ele>
        <time>2024-04-14T10:20:54Z</time>
      </trkpt>
      <trkpt lat="47.91896" lon="-0.43588">
        <ele>73</ele>
        <time>2024-04-14T10:20:55Z</time>
      </trkpt>
      <trkpt lat="47.91899" lon="-0.43589">
        <ele>73</ele>
        <time>2024-04-14T10:20:56Z</time>
      </trkpt>
      <trkpt lat="47.91902" lon="-0.4359">
        <ele>73.4</ele>
        <time>2024-04-14T10:20:57Z</time>
      </trkpt>
      <trkpt lat="47.91905" lon="-0.43591">
        <ele>73.4</ele>
        <time>2024-04-14T10:20:58Z</time>
      </trkpt>
      <trkpt lat="47.91908" lon="-0.43593">
        <ele>73.4</ele>
        <time>2024-04-14T10:20:59Z</time>
      </trkpt>
      <trkpt lat="47.91911" lon="-0.43594">
        <ele>73.4</ele>
        <time>2024-04-14T10:21:00Z</time>
      </trkpt>
      <trkpt lat="47.91914" lon="-0.43596">
        <ele>72.8</ele>
        <time>2024-04-14T10:21:01Z</time>
      </trkpt>
      <trkpt lat="47.91917" lon="-0.43598">
        <ele>72.8</ele>
        <time>2024-04-14T10:21:02Z</time>
      </trkpt>
      <trkpt lat="47.9192" lon="-0.43599">
        <ele>72.8</ele>
        <time>2024-04-14T10:21:03Z</time>
      </trkpt>
      <trkpt lat="47.91922" lon="-0.43601">
        <ele>72.8</ele>
        <time>2024-04-14T10:21:04Z</time>
      </trkpt>
      <trkpt lat="47.91925" lon="-0.43603">
        <ele>72.4</ele>
        <time>2024-04-14T10:21:05Z</time>
      </trkpt>
      <trkpt lat="47.91928" lon="-0.43604">
        <ele>72.4</ele>
        <time>2024-04-14T10:21:06Z</time>
      </trkpt>
      <trkpt lat="47.91931" lon="-0.43607">
        <ele>72.4</ele>
        <time>2024-04-14T10:21:07Z</time>
      </trkpt>
      <trkpt lat="47.91933" lon="-0.43609">
        <ele>73.4</ele>
        <time>2024-04-14T10:21:08Z</time>
      </trkpt>
      <trkpt lat="47.91935" lon="-0.43611">
        <ele>72.4</ele>
        <time>2024-04-14T10:21:09Z</time>
      </trkpt>
      <trkpt lat="47.91938" lon="-0.43614">
        <ele>72.4</ele>
        <time>2024-04-14T10:21:10Z</time>
      </trkpt>
      <trkpt lat="47.9194" lon="-0.43616">
        <ele>72.4</ele>
        <time>2024-04-14T10:21:11Z</time>
      </trkpt>
      <trkpt lat="47.91942" lon="-0.43618">
        <ele>72.4</ele>
        <time>2024-04-14T10:21:12Z</time>
      </trkpt>
      <trkpt lat="47.91944" lon="-0.4362">
        <ele>73.4</ele>
        <time>2024-04-14T10:21:13Z</time>
      </trkpt>
      <trkpt lat="47.91947" lon="-0.43623">
        <ele>73.4</ele>
        <time>2024-04-14T10:21:14Z</time>
      </trkpt>
      <trkpt lat="47.91949" lon="-0.43625">
        <ele>73.4</ele>
        <time>2024-04-14T10:21:15Z</time>
      </trkpt>
      <trkpt lat="47.91951" lon="-0.43628">
        <ele>72.4</ele>
        <time>2024-04-14T10:21:16Z</time>
      </trkpt>
      <trkpt lat="47.91953" lon="-0.4363">
        <ele>72.2</ele>
        <time>2024-04-14T10:21:17Z</time>
      </trkpt>
      <trkpt lat="47.91956" lon="-0.43633">
        <ele>72.2</ele>
        <time>2024-04-14T10:21:18Z</time>
      </trkpt>
      <trkpt lat="47.91959" lon="-0.43636">
        <ele>72.2</ele>
        <time>2024-04-14T10:21:19Z</time>
      </trkpt>
      <trkpt lat="47.91961" lon="-0.43639">
        <ele>72.2</ele>
        <time>2024-04-14T10:21:20Z</time>
      </trkpt>
      <trkpt lat="47.91964" lon="-0.43643">
        <ele>71.6</ele>
        <time>2024-04-14T10:21:21Z</time>
      </trkpt>
      <trkpt lat="47.91968" lon="-0.43646">
        <ele>71.6</ele>
        <time>2024-04-14T10:21:22Z</time>
      </trkpt>
      <trkpt lat="47.91971" lon="-0.4365">
        <ele>71.6</ele>
        <time>2024-04-14T10:21:23Z</time>
      </trkpt>
      <trkpt lat="47.91975" lon="-0.43654">
        <ele>71.6</ele>
        <time>2024-04-14T10:21:24Z</time>
      </trkpt>
      <trkpt lat="47.91979" lon="-0.43657">
        <ele>68.2</ele>
        <time>2024-04-14T10:21:25Z</time>
      </trkpt>
      <trkpt lat="47.91982" lon="-0.43662">
        <ele>68.2</ele>
        <time>2024-04-14T10:21:26Z</time>
      </trkpt>
      <trkpt lat="47.91986" lon="-0.43666">
        <ele>68.2</ele>
        <time>2024-04-14T10:21:27Z</time>
      </trkpt>
      <trkpt lat="47.91989" lon="-0.43669">
        <ele>68.2</ele>
        <time>2024-04-14T10:21:28Z</time>
      </trkpt>
      <trkpt lat="47.91993" lon="-0.43673">
        <ele>66.6</ele>
        <time>2024-04-14T10:21:29Z</time>
      </trkpt>
      <trkpt lat="47.91997" lon="-0.43677">
        <ele>66.6</ele>
        <time>2024-04-14T10:21:30Z</time>
      </trkpt>
      <trkpt lat="47.92" lon="-0.43681">
        <ele>66.6</ele>
        <time>2024-04-14T10:21:31Z</time>
      </trkpt>
      <trkpt lat="47.92003" lon="-0.43685">
        <ele>67</ele>
        <time>2024-04-14T10:21:32Z</time>
      </trkpt>
      <trkpt lat="47.92006" lon="-0.43689">
        <ele>68.6</ele>
        <time>2024-04-14T10:21:33Z</time>
      </trkpt>
      <trkpt lat="47.9201" lon="-0.43692">
        <ele>68.6</ele>
        <time>2024-04-14T10:21:34Z</time>
      </trkpt>
      <trkpt lat="47.92014" lon="-0.43696">
        <ele>68.6</ele>
        <time>2024-04-14T10:21:35Z</time>
      </trkpt>
      <trkpt lat="47.92017" lon="-0.437">
        <ele>67.6</ele>
        <time>2024-04-14T10:21:36Z</time>
      </trkpt>
      <trkpt lat="47.9202" lon="-0.43705">
        <ele>65.4</ele>
        <time>2024-04-14T10:21:37Z</time>
      </trkpt>
      <trkpt lat="47.92023" lon="-0.43709">
        <ele>65.4</ele>
        <time>2024-04-14T10:21:38Z</time>
      </trkpt>
      <trkpt lat="47.92025" lon="-0.43713">
        <ele>65.4</ele>
        <time>2024-04-14T10:21:39Z</time>
      </trkpt>
      <trkpt lat="47.92028" lon="-0.43715">
        <ele>65.4</ele>
        <time>2024-04-14T10:21:40Z</time>
      </trkpt>
      <trkpt lat="47.92031" lon="-0.43715">
        <ele>67.2</ele>
        <time>2024-04-14T10:21:41Z</time>
      </trkpt>
      <trkpt lat="47.92034" lon="-0.43713">
        <ele>67.2</ele>
        <time>2024-04-14T10:21:42Z</time>
      </trkpt>
      <trkpt lat="47.92036" lon="-0.4371">
        <ele>67.2</ele>
        <time>2024-04-14T10:21:43Z</time>
      </trkpt>
      <trkpt lat="47.92039" lon="-0.43707">
        <ele>66.2</ele>
        <time>2024-04-14T10:21:44Z</time>
      </trkpt>
      <trkpt lat="47.92042" lon="-0.43703">
        <ele>66.4</ele>
        <time>2024-04-14T10:21:45Z</time>
      </trkpt>
      <trkpt lat="47.92044" lon="-0.437">
        <ele>66.4</ele>
        <time>2024-04-14T10:21:46Z</time>
      </trkpt>
      <trkpt lat="47.92047" lon="-0.43696">
        <ele>66.4</ele>
        <time>2024-04-14T10:21:47Z</time>
      </trkpt>
      <trkpt lat="47.9205" lon="-0.43693">
        <ele>66</ele>
        <time>2024-04-14T10:21:48Z</time>
      </trkpt>
      <trkpt lat="47.92053" lon="-0.43689">
        <ele>65.6</ele>
        <time>2024-04-14T10:21:49Z</time>
      </trkpt>
      <trkpt lat="47.92056" lon="-0.43686">
        <ele>65.6</ele>
        <time>2024-04-14T10:21:50Z</time>
      </trkpt>
      <trkpt lat="47.92059" lon="-0.43682">
        <ele>65.6</ele>
        <time>2024-04-14T10:21:51Z</time>
      </trkpt>
      <trkpt lat="47.92063" lon="-0.43679">
        <ele>65.6</ele>
        <time>2024-04-14T10:21:52Z</time>
      </trkpt>
      <trkpt lat="47.92066" lon="-0.43675">
        <ele>66</ele>
        <time>2024-04-14T10:21:53Z</time>
      </trkpt>
      <trkpt lat="47.92069" lon="-0.43671">
        <ele>66</ele>
        <time>2024-04-14T10:21:54Z</time>
      </trkpt>
      <trkpt lat="47.92072" lon="-0.43668">
        <ele>66</ele>
        <time>2024-04-14T10:21:55Z</time>
      </trkpt>
      <trkpt lat="47.92075" lon="-0.43665">
        <ele>66.6</ele>
        <time>2024-04-14T10:21:56Z</time>
      </trkpt>
      <trkpt lat="47.92078" lon="-0.43661">
        <ele>66.4</ele>
        <time>2024-04-14T10:21:57Z</time>
      </trkpt>
      <trkpt lat="47.92082" lon="-0.43657">
        <ele>66.4</ele>
        <time>2024-04-14T10:21:58Z</time>
      </trkpt>
      <trkpt lat="47.92085" lon="-0.43654">
        <ele>66.4</ele>
        <time>2024-04-14T10:21:59Z</time>
      </trkpt>
      <trkpt lat="47.92089" lon="-0.4365">
        <ele>66.4</ele>
        <time>2024-04-14T10:22:00Z</time>
      </trkpt>
      <trkpt lat="47.92092" lon="-0.43646">
        <ele>67.2</ele>
        <time>2024-04-14T10:22:01Z</time>
      </trkpt>
      <trkpt lat="47.92096" lon="-0.43642">
        <ele>67.2</ele>
        <time>2024-04-14T10:22:02Z</time>
      </trkpt>
      <trkpt lat="47.921" lon="-0.43638">
        <ele>67.2</ele>
        <time>2024-04-14T10:22:03Z</time>
      </trkpt>
      <trkpt lat="47.92104" lon="-0.43634">
        <ele>66.2</ele>
        <time>2024-04-14T10:22:04Z</time>
      </trkpt>
      <trkpt lat="47.92109" lon="-0.43631">
        <ele>66</ele>
        <time>2024-04-14T10:22:05Z</time>
      </trkpt>
      <trkpt lat="47.92113" lon="-0.43627">
        <ele>66</ele>
        <time>2024-04-14T10:22:06Z</time>
      </trkpt>
      <trkpt lat="47.92117" lon="-0.43623">
        <ele>66</ele>
        <time>2024-04-14T10:22:07Z</time>
      </trkpt>
      <trkpt lat="47.92122" lon="-0.43619">
        <ele>66</ele>
        <time>2024-04-14T10:22:08Z</time>
      </trkpt>
      <trkpt lat="47.92126" lon="-0.43615">
        <ele>65.6</ele>
        <time>2024-04-14T10:22:09Z</time>
      </trkpt>
      <trkpt lat="47.92131" lon="-0.43613">
        <ele>65.6</ele>
        <time>2024-04-14T10:22:10Z</time>
      </trkpt>
      <trkpt lat="47.92136" lon="-0.4361">
        <ele>65.6</ele>
        <time>2024-04-14T10:22:11Z</time>
      </trkpt>
      <trkpt lat="47.92141" lon="-0.43608">
        <ele>65.6</ele>
        <time>2024-04-14T10:22:12Z</time>
      </trkpt>
      <trkpt lat="47.92146" lon="-0.43606">
        <ele>65.8</ele>
        <time>2024-04-14T10:22:13Z</time>
      </trkpt>
      <trkpt lat="47.92151" lon="-0.43605">
        <ele>65.8</ele>
        <time>2024-04-14T10:22:14Z</time>
      </trkpt>
      <trkpt lat="47.92156" lon="-0.43603">
        <ele>65.8</ele>
        <time>2024-04-14T10:22:15Z</time>
      </trkpt>
      <trkpt lat="47.9216" lon="-0.43601">
        <ele>65.8</ele>
        <time>2024-04-14T10:22:16Z</time>
      </trkpt>
      <trkpt lat="47.92164" lon="-0.43598">
        <ele>66.4</ele>
        <time>2024-04-14T10:22:17Z</time>
      </trkpt>
      <trkpt lat="47.92168" lon="-0.43595">
        <ele>66.4</ele>
        <time>2024-04-14T10:22:18Z</time>
      </trkpt>
      <trkpt lat="47.92172" lon="-0.43593">
        <ele>66.4</ele>
        <time>2024-04-14T10:22:19Z</time>
      </trkpt>
      <trkpt lat="47.92176" lon="-0.4359">
        <ele>67.4</ele>
        <time>2024-04-14T10:22:20Z</time>
      </trkpt>
      <trkpt lat="47.92179" lon="-0.43587">
        <ele>68.2</ele>
        <time>2024-04-14T10:22:21Z</time>
      </trkpt>
      <trkpt lat="47.92183" lon="-0.43584">
        <ele>68.2</ele>
        <time>2024-04-14T10:22:22Z</time>
      </trkpt>
      <trkpt lat="47.92187" lon="-0.43581">
        <ele>68.2</ele>
        <time>2024-04-14T10:22:23Z</time>
      </trkpt>
      <trkpt lat="47.92191" lon="-0.43578">
        <ele>69</ele>
        <time>2024-04-14T10:22:24Z</time>
      </trkpt>
      <trkpt lat="47.92194" lon="-0.43575">
        <ele>70.2</ele>
        <time>2024-04-14T10:22:25Z</time>
      </trkpt>
      <trkpt lat="47.92198" lon="-0.43573">
        <ele>70.2</ele>
        <time>2024-04-14T10:22:26Z</time>
      </trkpt>
      <trkpt lat="47.92201" lon="-0.4357">
        <ele>70.2</ele>
        <time>2024-04-14T10:22:27Z</time>
      </trkpt>
      <trkpt lat="47.92205" lon="-0.43567">
        <ele>69.2</ele>
        <time>2024-04-14T10:22:28Z</time>
      </trkpt>
      <trkpt lat="47.92208" lon="-0.43564">
        <ele>69.6</ele>
        <time>2024-04-14T10:22:29Z</time>
      </trkpt>
      <trkpt lat="47.92211" lon="-0.43561">
        <ele>69.6</ele>
        <time>2024-04-14T10:22:30Z</time>
      </trkpt>
      <trkpt lat="47.92214" lon="-0.43559">
        <ele>69.6</ele>
        <time>2024-04-14T10:22:31Z</time>
      </trkpt>
      <trkpt lat="47.92217" lon="-0.43557">
        <ele>69.6</ele>
        <time>2024-04-14T10:22:32Z</time>
      </trkpt>
      <trkpt lat="47.92221" lon="-0.43554">
        <ele>70.4</ele>
        <time>2024-04-14T10:22:33Z</time>
      </trkpt>
      <trkpt lat="47.92224" lon="-0.43552">
        <ele>70.4</ele>
        <time>2024-04-14T10:22:34Z</time>
      </trkpt>
      <trkpt lat="47.92227" lon="-0.4355">
        <ele>70.4</ele>
        <time>2024-04-14T10:22:35Z</time>
      </trkpt>
      <trkpt lat="47.9223" lon="-0.43548">
        <ele>70.4</ele>
        <time>2024-04-14T10:22:36Z</time>
      </trkpt>
      <trkpt lat="47.92232" lon="-0.43546">
        <ele>70.6</ele>
        <time>2024-04-14T10:22:37Z</time>
      </trkpt>
      <trkpt lat="47.92234" lon="-0.43543">
        <ele>70.6</ele>
        <time>2024-04-14T10:22:38Z</time>
      </trkpt>
      <trkpt lat="47.92236" lon="-0.43541">
        <ele>70.6</ele>
        <time>2024-04-14T10:22:39Z</time>
      </trkpt>
      <trkpt lat="47.92237" lon="-0.43538">
        <ele>70.6</ele>
        <time>2024-04-14T10:22:40Z</time>
      </trkpt>
      <trkpt lat="47.92237" lon="-0.43534">
        <ele>71.6</ele>
        <time>2024-04-14T10:22:41Z</time>
      </trkpt>
      <trkpt lat="47.92236" lon="-0.43529">
        <ele>71.6</ele>
        <time>2024-04-14T10:22:42Z</time>
      </trkpt>
      <trkpt lat="47.92235" lon="-0.43525">
        <ele>71.6</ele>
        <time>2024-04-14T10:22:43Z</time>
      </trkpt>
      <trkpt lat="47.92233" lon="-0.4352">
        <ele>71.6</ele>
        <time>2024-04-14T10:22:44Z</time>
      </trkpt>
      <trkpt lat="47.92231" lon="-0.43514">
        <ele>70.6</ele>
        <time>2024-04-14T10:22:45Z</time>
      </trkpt>
      <trkpt lat="47.9223" lon="-0.43509">
        <ele>70.6</ele>
        <time>2024-04-14T10:22:46Z</time>
      </trkpt>
      <trkpt lat="47.92228" lon="-0.43503">
        <ele>70.6</ele>
        <time>2024-04-14T10:22:47Z</time>
      </trkpt>
      <trkpt lat="47.92226" lon="-0.43497">
        <ele>70.6</ele>
        <time>2024-04-14T10:22:48Z</time>
      </trkpt>
      <trkpt lat="47.92225" lon="-0.43491">
        <ele>71</ele>
        <time>2024-04-14T10:22:49Z</time>
      </trkpt>
      <trkpt lat="47.92223" lon="-0.43484">
        <ele>71</ele>
        <time>2024-04-14T10:22:50Z</time>
      </trkpt>
      <trkpt lat="47.92221" lon="-0.43476">
        <ele>71</ele>
        <time>2024-04-14T10:22:51Z</time>
      </trkpt>
      <trkpt lat="47.9222" lon="-0.43469">
        <ele>71</ele>
        <time>2024-04-14T10:22:52Z</time>
      </trkpt>
      <trkpt lat="47.92218" lon="-0.43461">
        <ele>71.2</ele>
        <time>2024-04-14T10:22:53Z</time>
      </trkpt>
      <trkpt lat="47.92216" lon="-0.43453">
        <ele>71.2</ele>
        <time>2024-04-14T10:22:54Z</time>
      </trkpt>
      <trkpt lat="47.92215" lon="-0.43445">
        <ele>71.2</ele>
        <time>2024-04-14T10:22:55Z</time>
      </trkpt>
      <trkpt lat="47.92214" lon="-0.43438">
        <ele>70.8</ele>
        <time>2024-04-14T10:22:56Z</time>
      </trkpt>
      <trkpt lat="47.92213" lon="-0.4343">
        <ele>71</ele>
        <time>2024-04-14T10:22:57Z</time>
      </trkpt>
      <trkpt lat="47.92212" lon="-0.43422">
        <ele>71</ele>
        <time>2024-04-14T10:22:58Z</time>
      </trkpt>
      <trkpt lat="47.92211" lon="-0.43415">
        <ele>71</ele>
        <time>2024-04-14T10:22:59Z</time>
      </trkpt>
      <trkpt lat="47.9221" lon="-0.43407">
        <ele>71</ele>
        <time>2024-04-14T10:23:00Z</time>
      </trkpt>
      <trkpt lat="47.92209" lon="-0.434">
        <ele>70.8</ele>
        <time>2024-04-14T10:23:01Z</time>
      </trkpt>
      <trkpt lat="47.92208" lon="-0.43392">
        <ele>70.8</ele>
        <time>2024-04-14T10:23:02Z</time>
      </trkpt>
      <trkpt lat="47.92207" lon="-0.43384">
        <ele>70.8</ele>
        <time>2024-04-14T10:23:03Z</time>
      </trkpt>
      <trkpt lat="47.92206" lon="-0.43377">
        <ele>70.8</ele>
        <time>2024-04-14T10:23:04Z</time>
      </trkpt>
      <trkpt lat="47.92205" lon="-0.43369">
        <ele>71</ele>
        <time>2024-04-14T10:23:05Z</time>
      </trkpt>
      <trkpt lat="47.92204" lon="-0.43361">
        <ele>71</ele>
        <time>2024-04-14T10:23:06Z</time>
      </trkpt>
      <trkpt lat="47.92203" lon="-0.43354">
        <ele>71</ele>
        <time>2024-04-14T10:23:07Z</time>
      </trkpt>
      <trkpt lat="47.92201" lon="-0.43346">
        <ele>71</ele>
        <time>2024-04-14T10:23:08Z</time>
      </trkpt>
      <trkpt lat="47.922" lon="-0.43338">
        <ele>69.6</ele>
        <time>2024-04-14T10:23:09Z</time>
      </trkpt>
      <trkpt lat="47.92199" lon="-0.4333">
        <ele>69.6</ele>
        <time>2024-04-14T10:23:10Z</time>
      </trkpt>
      <trkpt lat="47.92198" lon="-0.43322">
        <ele>69.6</ele>
        <time>2024-04-14T10:23:11Z</time>
      </trkpt>
      <trkpt lat="47.92198" lon="-0.43313">
        <ele>69.6</ele>
        <time>2024-04-14T10:23:12Z</time>
      </trkpt>
      <trkpt lat="47.92197" lon="-0.43305">
        <ele>68.6</ele>
        <time>2024-04-14T10:23:13Z</time>
      </trkpt>
      <trkpt lat="47.92197" lon="-0.43297">
        <ele>68.6</ele>
        <time>2024-04-14T10:23:14Z</time>
      </trkpt>
      <trkpt lat="47.92196" lon="-0.43289">
        <ele>68.6</ele>
        <time>2024-04-14T10:23:15Z</time>
      </trkpt>
      <trkpt lat="47.92194" lon="-0.43281">
        <ele>68.6</ele>
        <time>2024-04-14T10:23:16Z</time>
      </trkpt>
      <trkpt lat="47.92193" lon="-0.43273">
        <ele>69.4</ele>
        <time>2024-04-14T10:23:17Z</time>
      </trkpt>
      <trkpt lat="47.92191" lon="-0.43265">
        <ele>69.4</ele>
        <time>2024-04-14T10:23:18Z</time>
      </trkpt>
      <trkpt lat="47.9219" lon="-0.43257">
        <ele>69.4</ele>
        <time>2024-04-14T10:23:19Z</time>
      </trkpt>
      <trkpt lat="47.92188" lon="-0.43249">
        <ele>69.4</ele>
        <time>2024-04-14T10:23:20Z</time>
      </trkpt>
      <trkpt lat="47.92186" lon="-0.43241">
        <ele>68.8</ele>
        <time>2024-04-14T10:23:21Z</time>
      </trkpt>
      <trkpt lat="47.92184" lon="-0.43233">
        <ele>68.8</ele>
        <time>2024-04-14T10:23:22Z</time>
      </trkpt>
      <trkpt lat="47.92182" lon="-0.43225">
        <ele>68.8</ele>
        <time>2024-04-14T10:23:23Z</time>
      </trkpt>
      <trkpt lat="47.9218" lon="-0.43217">
        <ele>68.8</ele>
        <time>2024-04-14T10:23:24Z</time>
      </trkpt>
      <trkpt lat="47.92178" lon="-0.43208">
        <ele>69.2</ele>
        <time>2024-04-14T10:23:25Z</time>
      </trkpt>
      <trkpt lat="47.92176" lon="-0.432">
        <ele>69.2</ele>
        <time>2024-04-14T10:23:26Z</time>
      </trkpt>
      <trkpt lat="47.92174" lon="-0.43192">
        <ele>69.2</ele>
        <time>2024-04-14T10:23:27Z</time>
      </trkpt>
      <trkpt lat="47.92172" lon="-0.43184">
        <ele>69.2</ele>
        <time>2024-04-14T10:23:28Z</time>
      </trkpt>
      <trkpt lat="47.9217" lon="-0.43177">
        <ele>67.8</ele>
        <time>2024-04-14T10:23:29Z</time>
      </trkpt>
      <trkpt lat="47.92168" lon="-0.43169">
        <ele>67.8</ele>
        <time>2024-04-14T10:23:30Z</time>
      </trkpt>
      <trkpt lat="47.92166" lon="-0.43161">
        <ele>67.8</ele>
        <time>2024-04-14T10:23:31Z</time>
      </trkpt>
      <trkpt lat="47.92164" lon="-0.43153">
        <ele>68.8</ele>
        <time>2024-04-14T10:23:32Z</time>
      </trkpt>
      <trkpt lat="47.92161" lon="-0.43146">
        <ele>68.4</ele>
        <time>2024-04-14T10:23:33Z</time>
      </trkpt>
      <trkpt lat="47.92159" lon="-0.43138">
        <ele>68.4</ele>
        <time>2024-04-14T10:23:34Z</time>
      </trkpt>
      <trkpt lat="47.92157" lon="-0.43131">
        <ele>68.4</ele>
        <time>2024-04-14T10:23:35Z</time>
      </trkpt>
      <trkpt lat="47.92155" lon="-0.43123">
        <ele>67.4</ele>
        <time>2024-04-14T10:23:36Z</time>
      </trkpt>
      <trkpt lat="47.92153" lon="-0.43116">
        <ele>68</ele>
        <time>2024-04-14T10:23:37Z</time>
      </trkpt>
      <trkpt lat="47.9215" lon="-0.43108">
        <ele>68</ele>
        <time>2024-04-14T10:23:38Z</time>
      </trkpt>
      <trkpt lat="47.92148" lon="-0.43101">
        <ele>68</ele>
        <time>2024-04-14T10:23:39Z</time>
      </trkpt>
      <trkpt lat="47.92145" lon="-0.43093">
        <ele>67</ele>
        <time>2024-04-14T10:23:40Z</time>
      </trkpt>
      <trkpt lat="47.92142" lon="-0.43086">
        <ele>67.6</ele>
        <time>2024-04-14T10:23:41Z</time>
      </trkpt>
      <trkpt lat="47.92139" lon="-0.43078">
        <ele>67.6</ele>
        <time>2024-04-14T10:23:42Z</time>
      </trkpt>
      <trkpt lat="47.92136" lon="-0.4307">
        <ele>67.6</ele>
        <time>2024-04-14T10:23:43Z</time>
      </trkpt>
      <trkpt lat="47.92133" lon="-0.43062">
        <ele>66.6</ele>
        <time>2024-04-14T10:23:44Z</time>
      </trkpt>
      <trkpt lat="47.9213" lon="-0.43055">
        <ele>66.4</ele>
        <time>2024-04-14T10:23:45Z</time>
      </trkpt>
      <trkpt lat="47.92127" lon="-0.43048">
        <ele>66.4</ele>
        <time>2024-04-14T10:23:46Z</time>
      </trkpt>
      <trkpt lat="47.92124" lon="-0.4304">
        <ele>66.4</ele>
        <time>2024-04-14T10:23:47Z</time>
      </trkpt>
      <trkpt lat="47.92121" lon="-0.43033">
        <ele>66.4</ele>
        <time>2024-04-14T10:23:48Z</time>
      </trkpt>
      <trkpt lat="47.92119" lon="-0.43026">
        <ele>66.6</ele>
        <time>2024-04-14T10:23:49Z</time>
      </trkpt>
      <trkpt lat="47.92117" lon="-0.43019">
        <ele>66.6</ele>
        <time>2024-04-14T10:23:50Z</time>
      </trkpt>
      <trkpt lat="47.92115" lon="-0.43012">
        <ele>66.6</ele>
        <time>2024-04-14T10:23:51Z</time>
      </trkpt>
      <trkpt lat="47.92113" lon="-0.43006">
        <ele>67.6</ele>
        <time>2024-04-14T10:23:52Z</time>
      </trkpt>
      <trkpt lat="47.92113" lon="-0.43001">
        <ele>67.8</ele>
        <time>2024-04-14T10:23:53Z</time>
      </trkpt>
      <trkpt lat="47.92112" lon="-0.42996">
        <ele>67.8</ele>
        <time>2024-04-14T10:23:54Z</time>
      </trkpt>
      <trkpt lat="47.92112" lon="-0.42991">
        <ele>67.8</ele>
        <time>2024-04-14T10:23:55Z</time>
      </trkpt>
      <trkpt lat="47.92114" lon="-0.42987">
        <ele>68.4</ele>
        <time>2024-04-14T10:23:56Z</time>
      </trkpt>
      <trkpt lat="47.92117" lon="-0.42984">
        <ele>67.8</ele>
        <time>2024-04-14T10:23:57Z</time>
      </trkpt>
      <trkpt lat="47.92121" lon="-0.42981">
        <ele>67.8</ele>
        <time>2024-04-14T10:23:58Z</time>
      </trkpt>
      <trkpt lat="47.92125" lon="-0.42978">
        <ele>67.8</ele>
        <time>2024-04-14T10:23:59Z</time>
      </trkpt>
      <trkpt lat="47.9213" lon="-0.42976">
        <ele>67.8</ele>
        <time>2024-04-14T10:24:00Z</time>
      </trkpt>
      <trkpt lat="47.92134" lon="-0.42974">
        <ele>66.8</ele>
        <time>2024-04-14T10:24:01Z</time>
      </trkpt>
      <trkpt lat="47.9214" lon="-0.42972">
        <ele>66.8</ele>
        <time>2024-04-14T10:24:02Z</time>
      </trkpt>
      <trkpt lat="47.92145" lon="-0.42969">
        <ele>66.8</ele>
        <time>2024-04-14T10:24:03Z</time>
      </trkpt>
      <trkpt lat="47.9215" lon="-0.42966">
        <ele>66.8</ele>
        <time>2024-04-14T10:24:04Z</time>
      </trkpt>
      <trkpt lat="47.92155" lon="-0.42964">
        <ele>66.4</ele>
        <time>2024-04-14T10:24:05Z</time>
      </trkpt>
      <trkpt lat="47.92159" lon="-0.42962">
        <ele>66.4</ele>
        <time>2024-04-14T10:24:06Z</time>
      </trkpt>
      <trkpt lat="47.92164" lon="-0.4296">
        <ele>66.4</ele>
        <time>2024-04-14T10:24:07Z</time>
      </trkpt>
      <trkpt lat="47.92168" lon="-0.42957">
        <ele>66.4</ele>
        <time>2024-04-14T10:24:08Z</time>
      </trkpt>
      <trkpt lat="47.92172" lon="-0.42954">
        <ele>68.2</ele>
        <time>2024-04-14T10:24:09Z</time>
      </trkpt>
      <trkpt lat="47.92175" lon="-0.42952">
        <ele>68.2</ele>
        <time>2024-04-14T10:24:10Z</time>
      </trkpt>
      <trkpt lat="47.92179" lon="-0.42949">
        <ele>68.2</ele>
        <time>2024-04-14T10:24:11Z</time>
      </trkpt>
      <trkpt lat="47.92182" lon="-0.42946">
        <ele>68.2</ele>
        <time>2024-04-14T10:24:12Z</time>
      </trkpt>
      <trkpt lat="47.92184" lon="-0.42944">
        <ele>68.8</ele>
        <time>2024-04-14T10:24:13Z</time>
      </trkpt>
      <trkpt lat="47.92187" lon="-0.42942">
        <ele>68.8</ele>
        <time>2024-04-14T10:24:14Z</time>
      </trkpt>
      <trkpt lat="47.9219" lon="-0.4294">
        <ele>68.8</ele>
        <time>2024-04-14T10:24:15Z</time>
      </trkpt>
      <trkpt lat="47.92192" lon="-0.42939">
        <ele>68.8</ele>
        <time>2024-04-14T10:24:16Z</time>
      </trkpt>
      <trkpt lat="47.92194" lon="-0.42938">
        <ele>68.2</ele>
        <time>2024-04-14T10:24:17Z</time>
      </trkpt>
      <trkpt lat="47.92197" lon="-0.42937">
        <ele>68.2</ele>
        <time>2024-04-14T10:24:18Z</time>
      </trkpt>
      <trkpt lat="47.922" lon="-0.42935">
        <ele>68.2</ele>
        <time>2024-04-14T10:24:19Z</time>
      </trkpt>
      <trkpt lat="47.92203" lon="-0.42933">
        <ele>68.2</ele>
        <time>2024-04-14T10:24:20Z</time>
      </trkpt>
      <trkpt lat="47.92206" lon="-0.42932">
        <ele>68.2</ele>
        <time>2024-04-14T10:24:21Z</time>
      </trkpt>
      <trkpt lat="47.92209" lon="-0.4293">
        <ele>68.2</ele>
        <time>2024-04-14T10:24:22Z</time>
      </trkpt>
      <trkpt lat="47.92212" lon="-0.42929">
        <ele>68.2</ele>
        <time>2024-04-14T10:24:23Z</time>
      </trkpt>
      <trkpt lat="47.92213" lon="-0.42928">
        <ele>68.8</ele>
        <time>2024-04-14T10:24:24Z</time>
      </trkpt>
      <trkpt lat="47.92216" lon="-0.42928">
        <ele>68.6</ele>
        <time>2024-04-14T10:24:25Z</time>
      </trkpt>
      <trkpt lat="47.92219" lon="-0.42927">
        <ele>68.6</ele>
        <time>2024-04-14T10:24:26Z</time>
      </trkpt>
      <trkpt lat="47.92221" lon="-0.42926">
        <ele>68.6</ele>
        <time>2024-04-14T10:24:27Z</time>
      </trkpt>
      <trkpt lat="47.92223" lon="-0.42925">
        <ele>69.2</ele>
        <time>2024-04-14T10:24:28Z</time>
      </trkpt>
      <trkpt lat="47.92225" lon="-0.42924">
        <ele>67.4</ele>
        <time>2024-04-14T10:24:29Z</time>
      </trkpt>
      <trkpt lat="47.92227" lon="-0.42924">
        <ele>67.4</ele>
        <time>2024-04-14T10:24:30Z</time>
      </trkpt>
      <trkpt lat="47.92229" lon="-0.42923">
        <ele>67.4</ele>
        <time>2024-04-14T10:24:31Z</time>
      </trkpt>
      <trkpt lat="47.92232" lon="-0.42923">
        <ele>68.4</ele>
        <time>2024-04-14T10:24:32Z</time>
      </trkpt>
      <trkpt lat="47.92234" lon="-0.42922">
        <ele>69</ele>
        <time>2024-04-14T10:24:33Z</time>
      </trkpt>
      <trkpt lat="47.92236" lon="-0.42921">
        <ele>69</ele>
        <time>2024-04-14T10:24:34Z</time>
      </trkpt>
      <trkpt lat="47.92239" lon="-0.42921">
        <ele>69</ele>
        <time>2024-04-14T10:24:35Z</time>
      </trkpt>
      <trkpt lat="47.92241" lon="-0.42921">
        <ele>69</ele>
        <time>2024-04-14T10:24:36Z</time>
      </trkpt>
      <trkpt lat="47.92244" lon="-0.4292">
        <ele>68.2</ele>
        <time>2024-04-14T10:24:37Z</time>
      </trkpt>
      <trkpt lat="47.92247" lon="-0.42918">
        <ele>68.2</ele>
        <time>2024-04-14T10:24:38Z</time>
      </trkpt>
      <trkpt lat="47.9225" lon="-0.42917">
        <ele>68.2</ele>
        <time>2024-04-14T10:24:39Z</time>
      </trkpt>
      <trkpt lat="47.92253" lon="-0.42916">
        <ele>68.8</ele>
        <time>2024-04-14T10:24:40Z</time>
      </trkpt>
      <trkpt lat="47.92257" lon="-0.42915">
        <ele>68.4</ele>
        <time>2024-04-14T10:24:41Z</time>
      </trkpt>
      <trkpt lat="47.9226" lon="-0.42913">
        <ele>68.4</ele>
        <time>2024-04-14T10:24:42Z</time>
      </trkpt>
      <trkpt lat="47.92263" lon="-0.42912">
        <ele>68.4</ele>
        <time>2024-04-14T10:24:43Z</time>
      </trkpt>
      <trkpt lat="47.92266" lon="-0.42911">
        <ele>68.4</ele>
        <time>2024-04-14T10:24:44Z</time>
      </trkpt>
      <trkpt lat="47.9227" lon="-0.42909">
        <ele>69.2</ele>
        <time>2024-04-14T10:24:45Z</time>
      </trkpt>
      <trkpt lat="47.92274" lon="-0.42908">
        <ele>69.2</ele>
        <time>2024-04-14T10:24:46Z</time>
      </trkpt>
      <trkpt lat="47.92277" lon="-0.42907">
        <ele>69.2</ele>
        <time>2024-04-14T10:24:47Z</time>
      </trkpt>
      <trkpt lat="47.92281" lon="-0.42906">
        <ele>69.4</ele>
        <time>2024-04-14T10:24:48Z</time>
      </trkpt>
      <trkpt lat="47.92284" lon="-0.42904">
        <ele>68.6</ele>
        <time>2024-04-14T10:24:49Z</time>
      </trkpt>
      <trkpt lat="47.92288" lon="-0.42903">
        <ele>68.6</ele>
        <time>2024-04-14T10:24:50Z</time>
      </trkpt>
      <trkpt lat="47.92291" lon="-0.42902">
        <ele>68.6</ele>
        <time>2024-04-14T10:24:51Z</time>
      </trkpt>
      <trkpt lat="47.92294" lon="-0.42901">
        <ele>67.6</ele>
        <time>2024-04-14T10:24:52Z</time>
      </trkpt>
      <trkpt lat="47.92297" lon="-0.42899">
        <ele>68.4</ele>
        <time>2024-04-14T10:24:53Z</time>
      </trkpt>
      <trkpt lat="47.923" lon="-0.42897">
        <ele>68.4</ele>
        <time>2024-04-14T10:24:54Z</time>
      </trkpt>
      <trkpt lat="47.92303" lon="-0.42896">
        <ele>68.4</ele>
        <time>2024-04-14T10:24:55Z</time>
      </trkpt>
      <trkpt lat="47.92306" lon="-0.42895">
        <ele>68.4</ele>
        <time>2024-04-14T10:24:56Z</time>
      </trkpt>
      <trkpt lat="47.92308" lon="-0.42894">
        <ele>68.4</ele>
        <time>2024-04-14T10:24:57Z</time>
      </trkpt>
      <trkpt lat="47.9231" lon="-0.42893">
        <ele>68.4</ele>
        <time>2024-04-14T10:24:58Z</time>
      </trkpt>
      <trkpt lat="47.92313" lon="-0.42892">
        <ele>68.4</ele>
        <time>2024-04-14T10:24:59Z</time>
      </trkpt>
      <trkpt lat="47.92316" lon="-0.4289">
        <ele>69.2</ele>
        <time>2024-04-14T10:25:00Z</time>
      </trkpt>
      <trkpt lat="47.92318" lon="-0.42889">
        <ele>69.4</ele>
        <time>2024-04-14T10:25:01Z</time>
      </trkpt>
      <trkpt lat="47.92321" lon="-0.42887">
        <ele>69.4</ele>
        <time>2024-04-14T10:25:02Z</time>
      </trkpt>
      <trkpt lat="47.92323" lon="-0.42886">
        <ele>69.4</ele>
        <time>2024-04-14T10:25:03Z</time>
      </trkpt>
      <trkpt lat="47.92326" lon="-0.42885">
        <ele>69.4</ele>
        <time>2024-04-14T10:25:04Z</time>
      </trkpt>
      <trkpt lat="47.92328" lon="-0.42884">
        <ele>69.6</ele>
        <time>2024-04-14T10:25:05Z</time>
      </trkpt>
      <trkpt lat="47.92331" lon="-0.42883">
        <ele>69.6</ele>
        <time>2024-04-14T10:25:06Z</time>
      </trkpt>
      <trkpt lat="47.92334" lon="-0.42882">
        <ele>69.6</ele>
        <time>2024-04-14T10:25:07Z</time>
      </trkpt>
      <trkpt lat="47.92336" lon="-0.42881">
        <ele>69.6</ele>
        <time>2024-04-14T10:25:08Z</time>
      </trkpt>
      <trkpt lat="47.92338" lon="-0.42879">
        <ele>69.4</ele>
        <time>2024-04-14T10:25:09Z</time>
      </trkpt>
      <trkpt lat="47.92341" lon="-0.42879">
        <ele>69.4</ele>
        <time>2024-04-14T10:25:10Z</time>
      </trkpt>
      <trkpt lat="47.92342" lon="-0.42878">
        <ele>69.4</ele>
        <time>2024-04-14T10:25:11Z</time>
      </trkpt>
      <trkpt lat="47.92342" lon="-0.42877">
        <ele>69.4</ele>
        <time>2024-04-14T10:25:12Z</time>
      </trkpt>
      <trkpt lat="47.92343" lon="-0.42877">
        <ele>69.8</ele>
        <time>2024-04-14T10:25:13Z</time>
      </trkpt>
      <trkpt lat="47.92344" lon="-0.42876">
        <ele>69.8</ele>
        <time>2024-04-14T10:25:14Z</time>
      </trkpt>
      <trkpt lat="47.92345" lon="-0.42876">
        <ele>69.8</ele>
        <time>2024-04-14T10:25:15Z</time>
      </trkpt>
      <trkpt lat="47.92346" lon="-0.42876">
        <ele>70.2</ele>
        <time>2024-04-14T10:25:16Z</time>
      </trkpt>
      <trkpt lat="47.92347" lon="-0.42875">
        <ele>70.6</ele>
        <time>2024-04-14T10:25:17Z</time>
      </trkpt>
      <trkpt lat="47.92349" lon="-0.42875">
        <ele>70.6</ele>
        <time>2024-04-14T10:25:18Z</time>
      </trkpt>
      <trkpt lat="47.92351" lon="-0.42874">
        <ele>70.6</ele>
        <time>2024-04-14T10:25:19Z</time>
      </trkpt>
      <trkpt lat="47.92353" lon="-0.42874">
        <ele>70.2</ele>
        <time>2024-04-14T10:25:20Z</time>
      </trkpt>
      <trkpt lat="47.92356" lon="-0.42872">
        <ele>70</ele>
        <time>2024-04-14T10:25:21Z</time>
      </trkpt>
      <trkpt lat="47.92359" lon="-0.42871">
        <ele>70</ele>
        <time>2024-04-14T10:25:22Z</time>
      </trkpt>
      <trkpt lat="47.92362" lon="-0.4287">
        <ele>70</ele>
        <time>2024-04-14T10:25:23Z</time>
      </trkpt>
      <trkpt lat="47.92365" lon="-0.42868">
        <ele>69.6</ele>
        <time>2024-04-14T10:25:24Z</time>
      </trkpt>
      <trkpt lat="47.92368" lon="-0.42866">
        <ele>68.8</ele>
        <time>2024-04-14T10:25:25Z</time>
      </trkpt>
      <trkpt lat="47.92371" lon="-0.42865">
        <ele>68.8</ele>
        <time>2024-04-14T10:25:26Z</time>
      </trkpt>
      <trkpt lat="47.92374" lon="-0.42864">
        <ele>68.8</ele>
        <time>2024-04-14T10:25:27Z</time>
      </trkpt>
      <trkpt lat="47.92377" lon="-0.42863">
        <ele>69.4</ele>
        <time>2024-04-14T10:25:28Z</time>
      </trkpt>
      <trkpt lat="47.92379" lon="-0.42862">
        <ele>69</ele>
        <time>2024-04-14T10:25:29Z</time>
      </trkpt>
      <trkpt lat="47.92382" lon="-0.42861">
        <ele>69</ele>
        <time>2024-04-14T10:25:30Z</time>
      </trkpt>
      <trkpt lat="47.92384" lon="-0.4286">
        <ele>69</ele>
        <time>2024-04-14T10:25:31Z</time>
      </trkpt>
      <trkpt lat="47.92386" lon="-0.42859">
        <ele>69.6</ele>
        <time>2024-04-14T10:25:32Z</time>
      </trkpt>
      <trkpt lat="47.92389" lon="-0.42858">
        <ele>69.2</ele>
        <time>2024-04-14T10:25:33Z</time>
      </trkpt>
      <trkpt lat="47.92391" lon="-0.42857">
        <ele>69.2</ele>
        <time>2024-04-14T10:25:34Z</time>
      </trkpt>
      <trkpt lat="47.92394" lon="-0.42855">
        <ele>69.2</ele>
        <time>2024-04-14T10:25:35Z</time>
      </trkpt>
      <trkpt lat="47.92397" lon="-0.42853">
        <ele>69.4</ele>
        <time>2024-04-14T10:25:36Z</time>
      </trkpt>
      <trkpt lat="47.924" lon="-0.42851">
        <ele>70.2</ele>
        <time>2024-04-14T10:25:37Z</time>
      </trkpt>
      <trkpt lat="47.92403" lon="-0.4285">
        <ele>70.2</ele>
        <time>2024-04-14T10:25:38Z</time>
      </trkpt>
      <trkpt lat="47.92407" lon="-0.42849">
        <ele>70.2</ele>
        <time>2024-04-14T10:25:39Z</time>
      </trkpt>
      <trkpt lat="47.92409" lon="-0.42848">
        <ele>70.2</ele>
        <time>2024-04-14T10:25:40Z</time>
      </trkpt>
      <trkpt lat="47.92412" lon="-0.42847">
        <ele>67.2</ele>
        <time>2024-04-14T10:25:41Z</time>
      </trkpt>
      <trkpt lat="47.92415" lon="-0.42846">
        <ele>67.2</ele>
        <time>2024-04-14T10:25:42Z</time>
      </trkpt>
      <trkpt lat="47.92418" lon="-0.42844">
        <ele>67.2</ele>
        <time>2024-04-14T10:25:43Z</time>
      </trkpt>
      <trkpt lat="47.92421" lon="-0.42842">
        <ele>68.2</ele>
        <time>2024-04-14T10:25:44Z</time>
      </trkpt>
      <trkpt lat="47.92424" lon="-0.42841">
        <ele>70.4</ele>
        <time>2024-04-14T10:25:45Z</time>
      </trkpt>
      <trkpt lat="47.92427" lon="-0.42839">
        <ele>70.4</ele>
        <time>2024-04-14T10:25:46Z</time>
      </trkpt>
      <trkpt lat="47.9243" lon="-0.42837">
        <ele>70.4</ele>
        <time>2024-04-14T10:25:47Z</time>
      </trkpt>
      <trkpt lat="47.92432" lon="-0.42836">
        <ele>70.4</ele>
        <time>2024-04-14T10:25:48Z</time>
      </trkpt>
      <trkpt lat="47.92434" lon="-0.42834">
        <ele>70.2</ele>
        <time>2024-04-14T10:25:49Z</time>
      </trkpt>
      <trkpt lat="47.92436" lon="-0.42833">
        <ele>70.2</ele>
        <time>2024-04-14T10:25:50Z</time>
      </trkpt>
      <trkpt lat="47.92438" lon="-0.42832">
        <ele>70.2</ele>
        <time>2024-04-14T10:25:51Z</time>
      </trkpt>
      <trkpt lat="47.92439" lon="-0.42831">
        <ele>70.2</ele>
        <time>2024-04-14T10:25:52Z</time>
      </trkpt>
      <trkpt lat="47.92442" lon="-0.42829">
        <ele>72.6</ele>
        <time>2024-04-14T10:25:53Z</time>
      </trkpt>
      <trkpt lat="47.92444" lon="-0.42828">
        <ele>72.6</ele>
        <time>2024-04-14T10:25:54Z</time>
      </trkpt>
      <trkpt lat="47.92447" lon="-0.42826">
        <ele>72.6</ele>
        <time>2024-04-14T10:25:55Z</time>
      </trkpt>
      <trkpt lat="47.9245" lon="-0.42823">
        <ele>71.6</ele>
        <time>2024-04-14T10:25:56Z</time>
      </trkpt>
      <trkpt lat="47.92453" lon="-0.42821">
        <ele>71.2</ele>
        <time>2024-04-14T10:25:57Z</time>
      </trkpt>
      <trkpt lat="47.92455" lon="-0.42819">
        <ele>71.2</ele>
        <time>2024-04-14T10:25:58Z</time>
      </trkpt>
      <trkpt lat="47.92457" lon="-0.42816">
        <ele>71.2</ele>
        <time>2024-04-14T10:25:59Z</time>
      </trkpt>
      <trkpt lat="47.9246" lon="-0.42814">
        <ele>71.2</ele>
        <time>2024-04-14T10:26:00Z</time>
      </trkpt>
      <trkpt lat="47.92462" lon="-0.42811">
        <ele>71.6</ele>
        <time>2024-04-14T10:26:01Z</time>
      </trkpt>
      <trkpt lat="47.92465" lon="-0.42808">
        <ele>71.6</ele>
        <time>2024-04-14T10:26:02Z</time>
      </trkpt>
      <trkpt lat="47.92467" lon="-0.42806">
        <ele>71.6</ele>
        <time>2024-04-14T10:26:03Z</time>
      </trkpt>
      <trkpt lat="47.9247" lon="-0.42803">
        <ele>71.6</ele>
        <time>2024-04-14T10:26:04Z</time>
      </trkpt>
      <trkpt lat="47.92472" lon="-0.428">
        <ele>72.2</ele>
        <time>2024-04-14T10:26:05Z</time>
      </trkpt>
      <trkpt lat="47.92475" lon="-0.42796">
        <ele>72.2</ele>
        <time>2024-04-14T10:26:06Z</time>
      </trkpt>
      <trkpt lat="47.92478" lon="-0.42794">
        <ele>72.2</ele>
        <time>2024-04-14T10:26:07Z</time>
      </trkpt>
      <trkpt lat="47.92481" lon="-0.42791">
        <ele>71.8</ele>
        <time>2024-04-14T10:26:08Z</time>
      </trkpt>
      <trkpt lat="47.92484" lon="-0.42788">
        <ele>73</ele>
        <time>2024-04-14T10:26:09Z</time>
      </trkpt>
      <trkpt lat="47.92488" lon="-0.42786">
        <ele>73</ele>
        <time>2024-04-14T10:26:10Z</time>
      </trkpt>
      <trkpt lat="47.92491" lon="-0.42783">
        <ele>73</ele>
        <time>2024-04-14T10:26:11Z</time>
      </trkpt>
      <trkpt lat="47.92494" lon="-0.42781">
        <ele>73</ele>
        <time>2024-04-14T10:26:12Z</time>
      </trkpt>
      <trkpt lat="47.92497" lon="-0.42779">
        <ele>71.4</ele>
        <time>2024-04-14T10:26:13Z</time>
      </trkpt>
      <trkpt lat="47.925" lon="-0.42777">
        <ele>71.4</ele>
        <time>2024-04-14T10:26:14Z</time>
      </trkpt>
      <trkpt lat="47.92504" lon="-0.42774">
        <ele>71.4</ele>
        <time>2024-04-14T10:26:15Z</time>
      </trkpt>
      <trkpt lat="47.92507" lon="-0.42772">
        <ele>71.4</ele>
        <time>2024-04-14T10:26:16Z</time>
      </trkpt>
      <trkpt lat="47.9251" lon="-0.42769">
        <ele>71.6</ele>
        <time>2024-04-14T10:26:17Z</time>
      </trkpt>
      <trkpt lat="47.92513" lon="-0.42767">
        <ele>71.6</ele>
        <time>2024-04-14T10:26:18Z</time>
      </trkpt>
      <trkpt lat="47.92516" lon="-0.42764">
        <ele>71.6</ele>
        <time>2024-04-14T10:26:19Z</time>
      </trkpt>
      <trkpt lat="47.92519" lon="-0.42762">
        <ele>70.8</ele>
        <time>2024-04-14T10:26:20Z</time>
      </trkpt>
      <trkpt lat="47.92522" lon="-0.42759">
        <ele>70.2</ele>
        <time>2024-04-14T10:26:21Z</time>
      </trkpt>
      <trkpt lat="47.92525" lon="-0.42757">
        <ele>70.2</ele>
        <time>2024-04-14T10:26:22Z</time>
      </trkpt>
      <trkpt lat="47.92528" lon="-0.42755">
        <ele>70.2</ele>
        <time>2024-04-14T10:26:23Z</time>
      </trkpt>
      <trkpt lat="47.9253" lon="-0.42753">
        <ele>71.2</ele>
        <time>2024-04-14T10:26:24Z</time>
      </trkpt>
      <trkpt lat="47.92532" lon="-0.42751">
        <ele>72</ele>
        <time>2024-04-14T10:26:25Z</time>
      </trkpt>
      <trkpt lat="47.92534" lon="-0.4275">
        <ele>72</ele>
        <time>2024-04-14T10:26:26Z</time>
      </trkpt>
      <trkpt lat="47.92535" lon="-0.42751">
        <ele>72</ele>
        <time>2024-04-14T10:26:27Z</time>
      </trkpt>
      <trkpt lat="47.92535" lon="-0.42751">
        <ele>73</ele>
        <time>2024-04-14T10:26:28Z</time>
      </trkpt>
      <trkpt lat="47.92534" lon="-0.42751">
        <ele>73.6</ele>
        <time>2024-04-14T10:26:29Z</time>
      </trkpt>
      <trkpt lat="47.92534" lon="-0.42751">
        <ele>73.6</ele>
        <time>2024-04-14T10:26:30Z</time>
      </trkpt>
      <trkpt lat="47.92533" lon="-0.42752">
        <ele>73.6</ele>
        <time>2024-04-14T10:26:31Z</time>
      </trkpt>
      <trkpt lat="47.92532" lon="-0.42753">
        <ele>72.6</ele>
        <time>2024-04-14T10:26:32Z</time>
      </trkpt>
      <trkpt lat="47.92531" lon="-0.42753">
        <ele>73.4</ele>
        <time>2024-04-14T10:26:33Z</time>
      </trkpt>
      <trkpt lat="47.92529" lon="-0.42754">
        <ele>73.4</ele>
        <time>2024-04-14T10:26:34Z</time>
      </trkpt>
      <trkpt lat="47.92528" lon="-0.42756">
        <ele>73.4</ele>
        <time>2024-04-14T10:26:35Z</time>
      </trkpt>
      <trkpt lat="47.92526" lon="-0.42758">
        <ele>73.4</ele>
        <time>2024-04-14T10:26:36Z</time>
      </trkpt>
      <trkpt lat="47.92524" lon="-0.42759">
        <ele>73.2</ele>
        <time>2024-04-14T10:26:37Z</time>
      </trkpt>
      <trkpt lat="47.92522" lon="-0.42761">
        <ele>73.2</ele>
        <time>2024-04-14T10:26:38Z</time>
      </trkpt>
      <trkpt lat="47.9252" lon="-0.42762">
        <ele>73.2</ele>
        <time>2024-04-14T10:26:39Z</time>
      </trkpt>
      <trkpt lat="47.92518" lon="-0.42764">
        <ele>73.2</ele>
        <time>2024-04-14T10:26:40Z</time>
      </trkpt>
      <trkpt lat="47.92516" lon="-0.42766">
        <ele>72.8</ele>
        <time>2024-04-14T10:26:41Z</time>
      </trkpt>
      <trkpt lat="47.92513" lon="-0.42768">
        <ele>72.8</ele>
        <time>2024-04-14T10:26:42Z</time>
      </trkpt>
      <trkpt lat="47.9251" lon="-0.42771">
        <ele>72.8</ele>
        <time>2024-04-14T10:26:43Z</time>
      </trkpt>
      <trkpt lat="47.92507" lon="-0.42773">
        <ele>71.8</ele>
        <time>2024-04-14T10:26:44Z</time>
      </trkpt>
      <trkpt lat="47.92504" lon="-0.42775">
        <ele>72.8</ele>
        <time>2024-04-14T10:26:45Z</time>
      </trkpt>
      <trkpt lat="47.925" lon="-0.42778">
        <ele>72.8</ele>
        <time>2024-04-14T10:26:46Z</time>
      </trkpt>
      <trkpt lat="47.92497" lon="-0.4278">
        <ele>72.8</ele>
        <time>2024-04-14T10:26:47Z</time>
      </trkpt>
      <trkpt lat="47.92494" lon="-0.42783">
        <ele>72.8</ele>
        <time>2024-04-14T10:26:48Z</time>
      </trkpt>
      <trkpt lat="47.92492" lon="-0.42785">
        <ele>70.6</ele>
        <time>2024-04-14T10:26:49Z</time>
      </trkpt>
      <trkpt lat="47.92489" lon="-0.42788">
        <ele>70.6</ele>
        <time>2024-04-14T10:26:50Z</time>
      </trkpt>
      <trkpt lat="47.92486" lon="-0.4279">
        <ele>70.6</ele>
        <time>2024-04-14T10:26:51Z</time>
      </trkpt>
      <trkpt lat="47.92483" lon="-0.42792">
        <ele>71.6</ele>
        <time>2024-04-14T10:26:52Z</time>
      </trkpt>
      <trkpt lat="47.92481" lon="-0.42796">
        <ele>71.6</ele>
        <time>2024-04-14T10:26:53Z</time>
      </trkpt>
      <trkpt lat="47.92478" lon="-0.428">
        <ele>71.6</ele>
        <time>2024-04-14T10:26:54Z</time>
      </trkpt>
      <trkpt lat="47.92477" lon="-0.42805">
        <ele>71.6</ele>
        <time>2024-04-14T10:26:55Z</time>
      </trkpt>
      <trkpt lat="47.92478" lon="-0.42811">
        <ele>71.6</ele>
        <time>2024-04-14T10:26:56Z</time>
      </trkpt>
      <trkpt lat="47.9248" lon="-0.42817">
        <ele>71.4</ele>
        <time>2024-04-14T10:26:57Z</time>
      </trkpt>
      <trkpt lat="47.92482" lon="-0.42822">
        <ele>71.4</ele>
        <time>2024-04-14T10:26:58Z</time>
      </trkpt>
      <trkpt lat="47.92485" lon="-0.42827">
        <ele>71.4</ele>
        <time>2024-04-14T10:26:59Z</time>
      </trkpt>
      <trkpt lat="47.92488" lon="-0.42831">
        <ele>71.4</ele>
        <time>2024-04-14T10:27:00Z</time>
      </trkpt>
      <trkpt lat="47.92491" lon="-0.42836">
        <ele>71.6</ele>
        <time>2024-04-14T10:27:01Z</time>
      </trkpt>
      <trkpt lat="47.92495" lon="-0.4284">
        <ele>71.6</ele>
        <time>2024-04-14T10:27:02Z</time>
      </trkpt>
      <trkpt lat="47.92498" lon="-0.42844">
        <ele>71.6</ele>
        <time>2024-04-14T10:27:03Z</time>
      </trkpt>
      <trkpt lat="47.92502" lon="-0.42848">
        <ele>71.6</ele>
        <time>2024-04-14T10:27:04Z</time>
      </trkpt>
      <trkpt lat="47.92505" lon="-0.42852">
        <ele>71.2</ele>
        <time>2024-04-14T10:27:05Z</time>
      </trkpt>
      <trkpt lat="47.92509" lon="-0.42856">
        <ele>71.2</ele>
        <time>2024-04-14T10:27:06Z</time>
      </trkpt>
      <trkpt lat="47.92512" lon="-0.4286">
        <ele>71.2</ele>
        <time>2024-04-14T10:27:07Z</time>
      </trkpt>
      <trkpt lat="47.92516" lon="-0.42863">
        <ele>72.2</ele>
        <time>2024-04-14T10:27:08Z</time>
      </trkpt>
      <trkpt lat="47.9252" lon="-0.42866">
        <ele>72</ele>
        <time>2024-04-14T10:27:09Z</time>
      </trkpt>
      <trkpt lat="47.92524" lon="-0.42869">
        <ele>72</ele>
        <time>2024-04-14T10:27:10Z</time>
      </trkpt>
      <trkpt lat="47.92528" lon="-0.42873">
        <ele>72</ele>
        <time>2024-04-14T10:27:11Z</time>
      </trkpt>
      <trkpt lat="47.92532" lon="-0.42876">
        <ele>72</ele>
        <time>2024-04-14T10:27:12Z</time>
      </trkpt>
      <trkpt lat="47.92536" lon="-0.4288">
        <ele>72.2</ele>
        <time>2024-04-14T10:27:13Z</time>
      </trkpt>
      <trkpt lat="47.9254" lon="-0.42883">
        <ele>72.2</ele>
        <time>2024-04-14T10:27:14Z</time>
      </trkpt>
      <trkpt lat="47.92545" lon="-0.42886">
        <ele>72.2</ele>
        <time>2024-04-14T10:27:15Z</time>
      </trkpt>
      <trkpt lat="47.92549" lon="-0.42889">
        <ele>71.2</ele>
        <time>2024-04-14T10:27:16Z</time>
      </trkpt>
      <trkpt lat="47.92553" lon="-0.42892">
        <ele>71</ele>
        <time>2024-04-14T10:27:17Z</time>
      </trkpt>
      <trkpt lat="47.92558" lon="-0.42894">
        <ele>71</ele>
        <time>2024-04-14T10:27:18Z</time>
      </trkpt>
      <trkpt lat="47.92562" lon="-0.42897">
        <ele>71</ele>
        <time>2024-04-14T10:27:19Z</time>
      </trkpt>
      <trkpt lat="47.92566" lon="-0.429">
        <ele>72</ele>
        <time>2024-04-14T10:27:20Z</time>
      </trkpt>
      <trkpt lat="47.9257" lon="-0.42902">
        <ele>72.4</ele>
        <time>2024-04-14T10:27:21Z</time>
      </trkpt>
      <trkpt lat="47.92574" lon="-0.42905">
        <ele>72.4</ele>
        <time>2024-04-14T10:27:22Z</time>
      </trkpt>
      <trkpt lat="47.92578" lon="-0.42909">
        <ele>72.4</ele>
        <time>2024-04-14T10:27:23Z</time>
      </trkpt>
      <trkpt lat="47.92582" lon="-0.42913">
        <ele>73.4</ele>
        <time>2024-04-14T10:27:24Z</time>
      </trkpt>
      <trkpt lat="47.92585" lon="-0.42917">
        <ele>73.8</ele>
        <time>2024-04-14T10:27:25Z</time>
      </trkpt>
      <trkpt lat="47.92588" lon="-0.42922">
        <ele>73.8</ele>
        <time>2024-04-14T10:27:26Z</time>
      </trkpt>
      <trkpt lat="47.92592" lon="-0.42925">
        <ele>73.8</ele>
        <time>2024-04-14T10:27:27Z</time>
      </trkpt>
      <trkpt lat="47.92595" lon="-0.42929">
        <ele>73</ele>
        <time>2024-04-14T10:27:28Z</time>
      </trkpt>
      <trkpt lat="47.92599" lon="-0.42933">
        <ele>73.2</ele>
        <time>2024-04-14T10:27:29Z</time>
      </trkpt>
      <trkpt lat="47.92603" lon="-0.42937">
        <ele>73.2</ele>
        <time>2024-04-14T10:27:30Z</time>
      </trkpt>
      <trkpt lat="47.92606" lon="-0.4294">
        <ele>73.2</ele>
        <time>2024-04-14T10:27:31Z</time>
      </trkpt>
      <trkpt lat="47.9261" lon="-0.42944">
        <ele>73.2</ele>
        <time>2024-04-14T10:27:32Z</time>
      </trkpt>
      <trkpt lat="47.92613" lon="-0.42948">
        <ele>73.6</ele>
        <time>2024-04-14T10:27:33Z</time>
      </trkpt>
      <trkpt lat="47.92616" lon="-0.42952">
        <ele>73.6</ele>
        <time>2024-04-14T10:27:34Z</time>
      </trkpt>
      <trkpt lat="47.9262" lon="-0.42955">
        <ele>73.6</ele>
        <time>2024-04-14T10:27:35Z</time>
      </trkpt>
      <trkpt lat="47.92623" lon="-0.42959">
        <ele>73.6</ele>
        <time>2024-04-14T10:27:36Z</time>
      </trkpt>
      <trkpt lat="47.92626" lon="-0.42964">
        <ele>74.2</ele>
        <time>2024-04-14T10:27:37Z</time>
      </trkpt>
      <trkpt lat="47.9263" lon="-0.42968">
        <ele>74.2</ele>
        <time>2024-04-14T10:27:38Z</time>
      </trkpt>
      <trkpt lat="47.92633" lon="-0.42972">
        <ele>74.2</ele>
        <time>2024-04-14T10:27:39Z</time>
      </trkpt>
      <trkpt lat="47.92637" lon="-0.42976">
        <ele>74</ele>
        <time>2024-04-14T10:27:40Z</time>
      </trkpt>
      <trkpt lat="47.9264" lon="-0.42981">
        <ele>73.6</ele>
        <time>2024-04-14T10:27:41Z</time>
      </trkpt>
      <trkpt lat="47.92644" lon="-0.42985">
        <ele>73.6</ele>
        <time>2024-04-14T10:27:42Z</time>
      </trkpt>
      <trkpt lat="47.92647" lon="-0.42989">
        <ele>73.6</ele>
        <time>2024-04-14T10:27:43Z</time>
      </trkpt>
      <trkpt lat="47.9265" lon="-0.42994">
        <ele>73.6</ele>
        <time>2024-04-14T10:27:44Z</time>
      </trkpt>
      <trkpt lat="47.92653" lon="-0.42998">
        <ele>73.2</ele>
        <time>2024-04-14T10:27:45Z</time>
      </trkpt>
      <trkpt lat="47.92657" lon="-0.43002">
        <ele>73.2</ele>
        <time>2024-04-14T10:27:46Z</time>
      </trkpt>
      <trkpt lat="47.92661" lon="-0.43005">
        <ele>73.2</ele>
        <time>2024-04-14T10:27:47Z</time>
      </trkpt>
      <trkpt lat="47.92665" lon="-0.43008">
        <ele>73.4</ele>
        <time>2024-04-14T10:27:48Z</time>
      </trkpt>
      <trkpt lat="47.92669" lon="-0.43012">
        <ele>74.8</ele>
        <time>2024-04-14T10:27:49Z</time>
      </trkpt>
      <trkpt lat="47.92672" lon="-0.43015">
        <ele>74.8</ele>
        <time>2024-04-14T10:27:50Z</time>
      </trkpt>
      <trkpt lat="47.92676" lon="-0.43019">
        <ele>74.8</ele>
        <time>2024-04-14T10:27:51Z</time>
      </trkpt>
      <trkpt lat="47.92681" lon="-0.43021">
        <ele>74.8</ele>
        <time>2024-04-14T10:27:52Z</time>
      </trkpt>
      <trkpt lat="47.92685" lon="-0.43024">
        <ele>73.4</ele>
        <time>2024-04-14T10:27:53Z</time>
      </trkpt>
      <trkpt lat="47.92688" lon="-0.43028">
        <ele>73.4</ele>
        <time>2024-04-14T10:27:54Z</time>
      </trkpt>
      <trkpt lat="47.92692" lon="-0.43031">
        <ele>73.4</ele>
        <time>2024-04-14T10:27:55Z</time>
      </trkpt>
      <trkpt lat="47.92696" lon="-0.43034">
        <ele>74.4</ele>
        <time>2024-04-14T10:27:56Z</time>
      </trkpt>
      <trkpt lat="47.92699" lon="-0.43037">
        <ele>75</ele>
        <time>2024-04-14T10:27:57Z</time>
      </trkpt>
      <trkpt lat="47.92703" lon="-0.4304">
        <ele>75</ele>
        <time>2024-04-14T10:27:58Z</time>
      </trkpt>
      <trkpt lat="47.92706" lon="-0.43043">
        <ele>75</ele>
        <time>2024-04-14T10:27:59Z</time>
      </trkpt>
      <trkpt lat="47.9271" lon="-0.43046">
        <ele>76</ele>
        <time>2024-04-14T10:28:00Z</time>
      </trkpt>
      <trkpt lat="47.92713" lon="-0.43049">
        <ele>74.8</ele>
        <time>2024-04-14T10:28:01Z</time>
      </trkpt>
      <trkpt lat="47.92717" lon="-0.43052">
        <ele>74.8</ele>
        <time>2024-04-14T10:28:02Z</time>
      </trkpt>
      <trkpt lat="47.9272" lon="-0.43055">
        <ele>74.8</ele>
        <time>2024-04-14T10:28:03Z</time>
      </trkpt>
      <trkpt lat="47.92724" lon="-0.43058">
        <ele>75.6</ele>
        <time>2024-04-14T10:28:04Z</time>
      </trkpt>
      <trkpt lat="47.92727" lon="-0.43061">
        <ele>76.8</ele>
        <time>2024-04-14T10:28:05Z</time>
      </trkpt>
      <trkpt lat="47.9273" lon="-0.43065">
        <ele>76.8</ele>
        <time>2024-04-14T10:28:06Z</time>
      </trkpt>
      <trkpt lat="47.92733" lon="-0.43069">
        <ele>76.8</ele>
        <time>2024-04-14T10:28:07Z</time>
      </trkpt>
      <trkpt lat="47.92736" lon="-0.43073">
        <ele>76.4</ele>
        <time>2024-04-14T10:28:08Z</time>
      </trkpt>
      <trkpt lat="47.9274" lon="-0.43077">
        <ele>76.4</ele>
        <time>2024-04-14T10:28:09Z</time>
      </trkpt>
      <trkpt lat="47.92743" lon="-0.43081">
        <ele>76.4</ele>
        <time>2024-04-14T10:28:10Z</time>
      </trkpt>
      <trkpt lat="47.92746" lon="-0.43084">
        <ele>76.4</ele>
        <time>2024-04-14T10:28:11Z</time>
      </trkpt>
      <trkpt lat="47.92749" lon="-0.43088">
        <ele>76.4</ele>
        <time>2024-04-14T10:28:12Z</time>
      </trkpt>
      <trkpt lat="47.92753" lon="-0.43092">
        <ele>75.4</ele>
        <time>2024-04-14T10:28:13Z</time>
      </trkpt>
      <trkpt lat="47.92756" lon="-0.43096">
        <ele>75.4</ele>
        <time>2024-04-14T10:28:14Z</time>
      </trkpt>
      <trkpt lat="47.92759" lon="-0.431">
        <ele>75.4</ele>
        <time>2024-04-14T10:28:15Z</time>
      </trkpt>
      <trkpt lat="47.92762" lon="-0.43103">
        <ele>76.4</ele>
        <time>2024-04-14T10:28:16Z</time>
      </trkpt>
      <trkpt lat="47.92766" lon="-0.43107">
        <ele>77.2</ele>
        <time>2024-04-14T10:28:17Z</time>
      </trkpt>
      <trkpt lat="47.92769" lon="-0.43111">
        <ele>77.2</ele>
        <time>2024-04-14T10:28:18Z</time>
      </trkpt>
      <trkpt lat="47.92772" lon="-0.43115">
        <ele>77.2</ele>
        <time>2024-04-14T10:28:19Z</time>
      </trkpt>
      <trkpt lat="47.92775" lon="-0.43119">
        <ele>77.8</ele>
        <time>2024-04-14T10:28:20Z</time>
      </trkpt>
      <trkpt lat="47.92779" lon="-0.43123">
        <ele>77.8</ele>
        <time>2024-04-14T10:28:21Z</time>
      </trkpt>
      <trkpt lat="47.92782" lon="-0.43126">
        <ele>77.8</ele>
        <time>2024-04-14T10:28:22Z</time>
      </trkpt>
      <trkpt lat="47.92786" lon="-0.43129">
        <ele>77.8</ele>
        <time>2024-04-14T10:28:23Z</time>
      </trkpt>
      <trkpt lat="47.92789" lon="-0.43133">
        <ele>77.8</ele>
        <time>2024-04-14T10:28:24Z</time>
      </trkpt>
      <trkpt lat="47.92793" lon="-0.43136">
        <ele>78</ele>
        <time>2024-04-14T10:28:25Z</time>
      </trkpt>
      <trkpt lat="47.92796" lon="-0.43139">
        <ele>78</ele>
        <time>2024-04-14T10:28:26Z</time>
      </trkpt>
      <trkpt lat="47.928" lon="-0.43142">
        <ele>78</ele>
        <time>2024-04-14T10:28:27Z</time>
      </trkpt>
      <trkpt lat="47.92804" lon="-0.43144">
        <ele>78.2</ele>
        <time>2024-04-14T10:28:28Z</time>
      </trkpt>
      <trkpt lat="47.92808" lon="-0.43147">
        <ele>78.2</ele>
        <time>2024-04-14T10:28:29Z</time>
      </trkpt>
      <trkpt lat="47.92811" lon="-0.43149">
        <ele>78.2</ele>
        <time>2024-04-14T10:28:30Z</time>
      </trkpt>
      <trkpt lat="47.92815" lon="-0.43152">
        <ele>78.2</ele>
        <time>2024-04-14T10:28:31Z</time>
      </trkpt>
      <trkpt lat="47.92819" lon="-0.43155">
        <ele>78.2</ele>
        <time>2024-04-14T10:28:32Z</time>
      </trkpt>
      <trkpt lat="47.92823" lon="-0.43158">
        <ele>78.2</ele>
        <time>2024-04-14T10:28:33Z</time>
      </trkpt>
      <trkpt lat="47.92826" lon="-0.43162">
        <ele>78.2</ele>
        <time>2024-04-14T10:28:34Z</time>
      </trkpt>
      <trkpt lat="47.9283" lon="-0.43166">
        <ele>78.2</ele>
        <time>2024-04-14T10:28:35Z</time>
      </trkpt>
      <trkpt lat="47.92833" lon="-0.43171">
        <ele>77.8</ele>
        <time>2024-04-14T10:28:36Z</time>
      </trkpt>
      <trkpt lat="47.92836" lon="-0.43176">
        <ele>77.2</ele>
        <time>2024-04-14T10:28:37Z</time>
      </trkpt>
      <trkpt lat="47.92839" lon="-0.43182">
        <ele>77.2</ele>
        <time>2024-04-14T10:28:38Z</time>
      </trkpt>
      <trkpt lat="47.92842" lon="-0.43188">
        <ele>77.2</ele>
        <time>2024-04-14T10:28:39Z</time>
      </trkpt>
      <trkpt lat="47.92844" lon="-0.43195">
        <ele>77.2</ele>
        <time>2024-04-14T10:28:40Z</time>
      </trkpt>
      <trkpt lat="47.92847" lon="-0.43201">
        <ele>77.4</ele>
        <time>2024-04-14T10:28:41Z</time>
      </trkpt>
      <trkpt lat="47.92849" lon="-0.43209">
        <ele>77.4</ele>
        <time>2024-04-14T10:28:42Z</time>
      </trkpt>
      <trkpt lat="47.92851" lon="-0.43216">
        <ele>77.4</ele>
        <time>2024-04-14T10:28:43Z</time>
      </trkpt>
      <trkpt lat="47.92853" lon="-0.43223">
        <ele>77.4</ele>
        <time>2024-04-14T10:28:44Z</time>
      </trkpt>
      <trkpt lat="47.92856" lon="-0.4323">
        <ele>77.4</ele>
        <time>2024-04-14T10:28:45Z</time>
      </trkpt>
      <trkpt lat="47.92859" lon="-0.43236">
        <ele>77.4</ele>
        <time>2024-04-14T10:28:46Z</time>
      </trkpt>
      <trkpt lat="47.92861" lon="-0.43243">
        <ele>77.4</ele>
        <time>2024-04-14T10:28:47Z</time>
      </trkpt>
      <trkpt lat="47.92863" lon="-0.4325">
        <ele>77.4</ele>
        <time>2024-04-14T10:28:48Z</time>
      </trkpt>
      <trkpt lat="47.92866" lon="-0.43258">
        <ele>76.8</ele>
        <time>2024-04-14T10:28:49Z</time>
      </trkpt>
      <trkpt lat="47.92868" lon="-0.43265">
        <ele>76.8</ele>
        <time>2024-04-14T10:28:50Z</time>
      </trkpt>
      <trkpt lat="47.9287" lon="-0.43273">
        <ele>76.8</ele>
        <time>2024-04-14T10:28:51Z</time>
      </trkpt>
      <trkpt lat="47.92873" lon="-0.43281">
        <ele>76</ele>
        <time>2024-04-14T10:28:52Z</time>
      </trkpt>
      <trkpt lat="47.92875" lon="-0.43289">
        <ele>76</ele>
        <time>2024-04-14T10:28:53Z</time>
      </trkpt>
      <trkpt lat="47.92878" lon="-0.43297">
        <ele>76</ele>
        <time>2024-04-14T10:28:54Z</time>
      </trkpt>
      <trkpt lat="47.9288" lon="-0.43306">
        <ele>76</ele>
        <time>2024-04-14T10:28:55Z</time>
      </trkpt>
      <trkpt lat="47.92882" lon="-0.43314">
        <ele>75.2</ele>
        <time>2024-04-14T10:28:56Z</time>
      </trkpt>
      <trkpt lat="47.92884" lon="-0.43323">
        <ele>75</ele>
        <time>2024-04-14T10:28:57Z</time>
      </trkpt>
      <trkpt lat="47.92887" lon="-0.43332">
        <ele>75</ele>
        <time>2024-04-14T10:28:58Z</time>
      </trkpt>
      <trkpt lat="47.92889" lon="-0.4334">
        <ele>75</ele>
        <time>2024-04-14T10:28:59Z</time>
      </trkpt>
      <trkpt lat="47.92891" lon="-0.43349">
        <ele>75</ele>
        <time>2024-04-14T10:29:00Z</time>
      </trkpt>
      <trkpt lat="47.92894" lon="-0.43358">
        <ele>74.4</ele>
        <time>2024-04-14T10:29:01Z</time>
      </trkpt>
      <trkpt lat="47.92896" lon="-0.43367">
        <ele>74.4</ele>
        <time>2024-04-14T10:29:02Z</time>
      </trkpt>
      <trkpt lat="47.92899" lon="-0.43376">
        <ele>74.4</ele>
        <time>2024-04-14T10:29:03Z</time>
      </trkpt>
      <trkpt lat="47.92902" lon="-0.43384">
        <ele>73.4</ele>
        <time>2024-04-14T10:29:04Z</time>
      </trkpt>
      <trkpt lat="47.92905" lon="-0.43393">
        <ele>73.2</ele>
        <time>2024-04-14T10:29:05Z</time>
      </trkpt>
      <trkpt lat="47.92909" lon="-0.43401">
        <ele>73.2</ele>
        <time>2024-04-14T10:29:06Z</time>
      </trkpt>
      <trkpt lat="47.92913" lon="-0.43408">
        <ele>73.2</ele>
        <time>2024-04-14T10:29:07Z</time>
      </trkpt>
      <trkpt lat="47.92917" lon="-0.43415">
        <ele>72.2</ele>
        <time>2024-04-14T10:29:08Z</time>
      </trkpt>
      <trkpt lat="47.9292" lon="-0.43421">
        <ele>73</ele>
        <time>2024-04-14T10:29:09Z</time>
      </trkpt>
      <trkpt lat="47.92924" lon="-0.43426">
        <ele>73</ele>
        <time>2024-04-14T10:29:10Z</time>
      </trkpt>
      <trkpt lat="47.92928" lon="-0.43428">
        <ele>73</ele>
        <time>2024-04-14T10:29:11Z</time>
      </trkpt>
      <trkpt lat="47.92932" lon="-0.43427">
        <ele>73</ele>
        <time>2024-04-14T10:29:12Z</time>
      </trkpt>
      <trkpt lat="47.92935" lon="-0.43423">
        <ele>72.6</ele>
        <time>2024-04-14T10:29:13Z</time>
      </trkpt>
      <trkpt lat="47.92938" lon="-0.43417">
        <ele>72.6</ele>
        <time>2024-04-14T10:29:14Z</time>
      </trkpt>
      <trkpt lat="47.9294" lon="-0.43411">
        <ele>72.6</ele>
        <time>2024-04-14T10:29:15Z</time>
      </trkpt>
      <trkpt lat="47.92944" lon="-0.43405">
        <ele>72.4</ele>
        <time>2024-04-14T10:29:16Z</time>
      </trkpt>
      <trkpt lat="47.92947" lon="-0.434">
        <ele>72.6</ele>
        <time>2024-04-14T10:29:17Z</time>
      </trkpt>
      <trkpt lat="47.92951" lon="-0.43395">
        <ele>72.6</ele>
        <time>2024-04-14T10:29:18Z</time>
      </trkpt>
      <trkpt lat="47.92955" lon="-0.4339">
        <ele>72.6</ele>
        <time>2024-04-14T10:29:19Z</time>
      </trkpt>
      <trkpt lat="47.92958" lon="-0.43385">
        <ele>72.6</ele>
        <time>2024-04-14T10:29:20Z</time>
      </trkpt>
      <trkpt lat="47.92962" lon="-0.4338">
        <ele>72.4</ele>
        <time>2024-04-14T10:29:21Z</time>
      </trkpt>
      <trkpt lat="47.92966" lon="-0.43374">
        <ele>72.4</ele>
        <time>2024-04-14T10:29:22Z</time>
      </trkpt>
      <trkpt lat="47.9297" lon="-0.43369">
        <ele>72.4</ele>
        <time>2024-04-14T10:29:23Z</time>
      </trkpt>
      <trkpt lat="47.92973" lon="-0.43363">
        <ele>72.4</ele>
        <time>2024-04-14T10:29:24Z</time>
      </trkpt>
      <trkpt lat="47.92977" lon="-0.43359">
        <ele>71.8</ele>
        <time>2024-04-14T10:29:25Z</time>
      </trkpt>
      <trkpt lat="47.9298" lon="-0.43354">
        <ele>71.8</ele>
        <time>2024-04-14T10:29:26Z</time>
      </trkpt>
      <trkpt lat="47.92984" lon="-0.4335">
        <ele>71.8</ele>
        <time>2024-04-14T10:29:27Z</time>
      </trkpt>
      <trkpt lat="47.92988" lon="-0.43346">
        <ele>71.8</ele>
        <time>2024-04-14T10:29:28Z</time>
      </trkpt>
      <trkpt lat="47.92991" lon="-0.43342">
        <ele>73.2</ele>
        <time>2024-04-14T10:29:29Z</time>
      </trkpt>
      <trkpt lat="47.92995" lon="-0.43339">
        <ele>73.2</ele>
        <time>2024-04-14T10:29:30Z</time>
      </trkpt>
      <trkpt lat="47.92999" lon="-0.43335">
        <ele>73.2</ele>
        <time>2024-04-14T10:29:31Z</time>
      </trkpt>
      <trkpt lat="47.93003" lon="-0.43331">
        <ele>73.2</ele>
        <time>2024-04-14T10:29:32Z</time>
      </trkpt>
      <trkpt lat="47.93007" lon="-0.43328">
        <ele>73</ele>
        <time>2024-04-14T10:29:33Z</time>
      </trkpt>
      <trkpt lat="47.93011" lon="-0.43323">
        <ele>73</ele>
        <time>2024-04-14T10:29:34Z</time>
      </trkpt>
      <trkpt lat="47.93015" lon="-0.43319">
        <ele>73</ele>
        <time>2024-04-14T10:29:35Z</time>
      </trkpt>
      <trkpt lat="47.93018" lon="-0.43314">
        <ele>73</ele>
        <time>2024-04-14T10:29:36Z</time>
      </trkpt>
      <trkpt lat="47.93022" lon="-0.4331">
        <ele>71.8</ele>
        <time>2024-04-14T10:29:37Z</time>
      </trkpt>
      <trkpt lat="47.93026" lon="-0.43306">
        <ele>71.8</ele>
        <time>2024-04-14T10:29:38Z</time>
      </trkpt>
      <trkpt lat="47.93031" lon="-0.43301">
        <ele>71.8</ele>
        <time>2024-04-14T10:29:39Z</time>
      </trkpt>
      <trkpt lat="47.93035" lon="-0.43297">
        <ele>72.8</ele>
        <time>2024-04-14T10:29:40Z</time>
      </trkpt>
      <trkpt lat="47.93038" lon="-0.43293">
        <ele>71.6</ele>
        <time>2024-04-14T10:29:41Z</time>
      </trkpt>
      <trkpt lat="47.93042" lon="-0.43289">
        <ele>71.6</ele>
        <time>2024-04-14T10:29:42Z</time>
      </trkpt>
      <trkpt lat="47.93046" lon="-0.43286">
        <ele>71.6</ele>
        <time>2024-04-14T10:29:43Z</time>
      </trkpt>
      <trkpt lat="47.9305" lon="-0.43284">
        <ele>72.6</ele>
        <time>2024-04-14T10:29:44Z</time>
      </trkpt>
      <trkpt lat="47.93054" lon="-0.43283">
        <ele>73.6</ele>
        <time>2024-04-14T10:29:45Z</time>
      </trkpt>
      <trkpt lat="47.93058" lon="-0.43283">
        <ele>73.6</ele>
        <time>2024-04-14T10:29:46Z</time>
      </trkpt>
      <trkpt lat="47.93062" lon="-0.43282">
        <ele>73.6</ele>
        <time>2024-04-14T10:29:47Z</time>
      </trkpt>
      <trkpt lat="47.93066" lon="-0.43281">
        <ele>73.6</ele>
        <time>2024-04-14T10:29:48Z</time>
      </trkpt>
      <trkpt lat="47.9307" lon="-0.4328">
        <ele>74.4</ele>
        <time>2024-04-14T10:29:49Z</time>
      </trkpt>
      <trkpt lat="47.93074" lon="-0.4328">
        <ele>74.4</ele>
        <time>2024-04-14T10:29:50Z</time>
      </trkpt>
      <trkpt lat="47.93078" lon="-0.43279">
        <ele>74.4</ele>
        <time>2024-04-14T10:29:51Z</time>
      </trkpt>
      <trkpt lat="47.93081" lon="-0.43278">
        <ele>74.4</ele>
        <time>2024-04-14T10:29:52Z</time>
      </trkpt>
      <trkpt lat="47.93085" lon="-0.43277">
        <ele>72.6</ele>
        <time>2024-04-14T10:29:53Z</time>
      </trkpt>
      <trkpt lat="47.93088" lon="-0.43277">
        <ele>72.6</ele>
        <time>2024-04-14T10:29:54Z</time>
      </trkpt>
      <trkpt lat="47.93091" lon="-0.43278">
        <ele>72.6</ele>
        <time>2024-04-14T10:29:55Z</time>
      </trkpt>
      <trkpt lat="47.93094" lon="-0.43277">
        <ele>73.6</ele>
        <time>2024-04-14T10:29:56Z</time>
      </trkpt>
      <trkpt lat="47.93098" lon="-0.43277">
        <ele>74.6</ele>
        <time>2024-04-14T10:29:57Z</time>
      </trkpt>
      <trkpt lat="47.93101" lon="-0.43277">
        <ele>74.6</ele>
        <time>2024-04-14T10:29:58Z</time>
      </trkpt>
      <trkpt lat="47.93105" lon="-0.43277">
        <ele>74.6</ele>
        <time>2024-04-14T10:29:59Z</time>
      </trkpt>
      <trkpt lat="47.93108" lon="-0.43277">
        <ele>74.6</ele>
        <time>2024-04-14T10:30:00Z</time>
      </trkpt>
      <trkpt lat="47.93111" lon="-0.43277">
        <ele>74.8</ele>
        <time>2024-04-14T10:30:01Z</time>
      </trkpt>
      <trkpt lat="47.93115" lon="-0.43277">
        <ele>74.8</ele>
        <time>2024-04-14T10:30:02Z</time>
      </trkpt>
      <trkpt lat="47.93118" lon="-0.43277">
        <ele>74.8</ele>
        <time>2024-04-14T10:30:03Z</time>
      </trkpt>
      <trkpt lat="47.93122" lon="-0.43277">
        <ele>74.8</ele>
        <time>2024-04-14T10:30:04Z</time>
      </trkpt>
      <trkpt lat="47.93125" lon="-0.43277">
        <ele>74.4</ele>
        <time>2024-04-14T10:30:05Z</time>
      </trkpt>
      <trkpt lat="47.93128" lon="-0.43277">
        <ele>74.4</ele>
        <time>2024-04-14T10:30:06Z</time>
      </trkpt>
      <trkpt lat="47.93132" lon="-0.43277">
        <ele>74.4</ele>
        <time>2024-04-14T10:30:07Z</time>
      </trkpt>
      <trkpt lat="47.93135" lon="-0.43277">
        <ele>74.4</ele>
        <time>2024-04-14T10:30:08Z</time>
      </trkpt>
      <trkpt lat="47.93137" lon="-0.43277">
        <ele>74.2</ele>
        <time>2024-04-14T10:30:09Z</time>
      </trkpt>
      <trkpt lat="47.9314" lon="-0.43277">
        <ele>74.2</ele>
        <time>2024-04-14T10:30:10Z</time>
      </trkpt>
      <trkpt lat="47.93143" lon="-0.43277">
        <ele>74.2</ele>
        <time>2024-04-14T10:30:11Z</time>
      </trkpt>
      <trkpt lat="47.93145" lon="-0.43277">
        <ele>75.2</ele>
        <time>2024-04-14T10:30:12Z</time>
      </trkpt>
      <trkpt lat="47.93147" lon="-0.43277">
        <ele>75.8</ele>
        <time>2024-04-14T10:30:13Z</time>
      </trkpt>
      <trkpt lat="47.9315" lon="-0.43277">
        <ele>75.8</ele>
        <time>2024-04-14T10:30:14Z</time>
      </trkpt>
      <trkpt lat="47.93153" lon="-0.43277">
        <ele>75.8</ele>
        <time>2024-04-14T10:30:15Z</time>
      </trkpt>
      <trkpt lat="47.93156" lon="-0.43277">
        <ele>75.8</ele>
        <time>2024-04-14T10:30:16Z</time>
      </trkpt>
      <trkpt lat="47.93159" lon="-0.43277">
        <ele>73.4</ele>
        <time>2024-04-14T10:30:17Z</time>
      </trkpt>
      <trkpt lat="47.93163" lon="-0.43277">
        <ele>73.4</ele>
        <time>2024-04-14T10:30:18Z</time>
      </trkpt>
      <trkpt lat="47.93166" lon="-0.43278">
        <ele>73.4</ele>
        <time>2024-04-14T10:30:19Z</time>
      </trkpt>
      <trkpt lat="47.93169" lon="-0.43278">
        <ele>74.4</ele>
        <time>2024-04-14T10:30:20Z</time>
      </trkpt>
      <trkpt lat="47.93172" lon="-0.43279">
        <ele>76.8</ele>
        <time>2024-04-14T10:30:21Z</time>
      </trkpt>
      <trkpt lat="47.93176" lon="-0.43279">
        <ele>76.8</ele>
        <time>2024-04-14T10:30:22Z</time>
      </trkpt>
      <trkpt lat="47.93179" lon="-0.43279">
        <ele>76.8</ele>
        <time>2024-04-14T10:30:23Z</time>
      </trkpt>
      <trkpt lat="47.93182" lon="-0.4328">
        <ele>75.8</ele>
        <time>2024-04-14T10:30:24Z</time>
      </trkpt>
      <trkpt lat="47.93185" lon="-0.43281">
        <ele>75.8</ele>
        <time>2024-04-14T10:30:25Z</time>
      </trkpt>
      <trkpt lat="47.93189" lon="-0.43281">
        <ele>75.8</ele>
        <time>2024-04-14T10:30:26Z</time>
      </trkpt>
      <trkpt lat="47.93192" lon="-0.43281">
        <ele>75.8</ele>
        <time>2024-04-14T10:30:27Z</time>
      </trkpt>
      <trkpt lat="47.93195" lon="-0.43281">
        <ele>75.8</ele>
        <time>2024-04-14T10:30:28Z</time>
      </trkpt>
      <trkpt lat="47.93198" lon="-0.43281">
        <ele>76.8</ele>
        <time>2024-04-14T10:30:29Z</time>
      </trkpt>
      <trkpt lat="47.93202" lon="-0.43282">
        <ele>76.8</ele>
        <time>2024-04-14T10:30:30Z</time>
      </trkpt>
      <trkpt lat="47.93206" lon="-0.43282">
        <ele>76.8</ele>
        <time>2024-04-14T10:30:31Z</time>
      </trkpt>
      <trkpt lat="47.93209" lon="-0.43283">
        <ele>76.8</ele>
        <time>2024-04-14T10:30:32Z</time>
      </trkpt>
      <trkpt lat="47.93213" lon="-0.43284">
        <ele>76.2</ele>
        <time>2024-04-14T10:30:33Z</time>
      </trkpt>
      <trkpt lat="47.93216" lon="-0.43285">
        <ele>76.2</ele>
        <time>2024-04-14T10:30:34Z</time>
      </trkpt>
      <trkpt lat="47.9322" lon="-0.43286">
        <ele>76.2</ele>
        <time>2024-04-14T10:30:35Z</time>
      </trkpt>
      <trkpt lat="47.93223" lon="-0.43287">
        <ele>77.2</ele>
        <time>2024-04-14T10:30:36Z</time>
      </trkpt>
      <trkpt lat="47.93227" lon="-0.43288">
        <ele>77.4</ele>
        <time>2024-04-14T10:30:37Z</time>
      </trkpt>
      <trkpt lat="47.9323" lon="-0.43289">
        <ele>77.4</ele>
        <time>2024-04-14T10:30:38Z</time>
      </trkpt>
      <trkpt lat="47.93234" lon="-0.4329">
        <ele>77.4</ele>
        <time>2024-04-14T10:30:39Z</time>
      </trkpt>
      <trkpt lat="47.93237" lon="-0.43292">
        <ele>77.4</ele>
        <time>2024-04-14T10:30:40Z</time>
      </trkpt>
      <trkpt lat="47.93241" lon="-0.43293">
        <ele>78.8</ele>
        <time>2024-04-14T10:30:41Z</time>
      </trkpt>
      <trkpt lat="47.93244" lon="-0.43294">
        <ele>78.8</ele>
        <time>2024-04-14T10:30:42Z</time>
      </trkpt>
      <trkpt lat="47.93247" lon="-0.43296">
        <ele>78.8</ele>
        <time>2024-04-14T10:30:43Z</time>
      </trkpt>
      <trkpt lat="47.9325" lon="-0.43298">
        <ele>78.8</ele>
        <time>2024-04-14T10:30:44Z</time>
      </trkpt>
      <trkpt lat="47.93254" lon="-0.43299">
        <ele>78.6</ele>
        <time>2024-04-14T10:30:45Z</time>
      </trkpt>
      <trkpt lat="47.93257" lon="-0.43301">
        <ele>78.6</ele>
        <time>2024-04-14T10:30:46Z</time>
      </trkpt>
      <trkpt lat="47.9326" lon="-0.43303">
        <ele>78.6</ele>
        <time>2024-04-14T10:30:47Z</time>
      </trkpt>
      <trkpt lat="47.93263" lon="-0.43305">
        <ele>78.6</ele>
        <time>2024-04-14T10:30:48Z</time>
      </trkpt>
      <trkpt lat="47.93266" lon="-0.43307">
        <ele>78.4</ele>
        <time>2024-04-14T10:30:49Z</time>
      </trkpt>
      <trkpt lat="47.93269" lon="-0.43308">
        <ele>78.4</ele>
        <time>2024-04-14T10:30:50Z</time>
      </trkpt>
      <trkpt lat="47.93272" lon="-0.4331">
        <ele>78.4</ele>
        <time>2024-04-14T10:30:51Z</time>
      </trkpt>
      <trkpt lat="47.93275" lon="-0.43311">
        <ele>79.4</ele>
        <time>2024-04-14T10:30:52Z</time>
      </trkpt>
      <trkpt lat="47.93277" lon="-0.43314">
        <ele>80.2</ele>
        <time>2024-04-14T10:30:53Z</time>
      </trkpt>
      <trkpt lat="47.9328" lon="-0.43316">
        <ele>80.2</ele>
        <time>2024-04-14T10:30:54Z</time>
      </trkpt>
      <trkpt lat="47.93284" lon="-0.43319">
        <ele>80.2</ele>
        <time>2024-04-14T10:30:55Z</time>
      </trkpt>
      <trkpt lat="47.93287" lon="-0.43321">
        <ele>80.2</ele>
        <time>2024-04-14T10:30:56Z</time>
      </trkpt>
      <trkpt lat="47.9329" lon="-0.43324">
        <ele>80.2</ele>
        <time>2024-04-14T10:30:57Z</time>
      </trkpt>
      <trkpt lat="47.93293" lon="-0.43327">
        <ele>80.2</ele>
        <time>2024-04-14T10:30:58Z</time>
      </trkpt>
      <trkpt lat="47.93295" lon="-0.43329">
        <ele>80.2</ele>
        <time>2024-04-14T10:30:59Z</time>
      </trkpt>
      <trkpt lat="47.93298" lon="-0.43332">
        <ele>80.2</ele>
        <time>2024-04-14T10:31:00Z</time>
      </trkpt>
      <trkpt lat="47.93301" lon="-0.43334">
        <ele>80.6</ele>
        <time>2024-04-14T10:31:01Z</time>
      </trkpt>
      <trkpt lat="47.93305" lon="-0.43336">
        <ele>80.6</ele>
        <time>2024-04-14T10:31:02Z</time>
      </trkpt>
      <trkpt lat="47.93308" lon="-0.43338">
        <ele>80.6</ele>
        <time>2024-04-14T10:31:03Z</time>
      </trkpt>
      <trkpt lat="47.93312" lon="-0.4334">
        <ele>80.2</ele>
        <time>2024-04-14T10:31:04Z</time>
      </trkpt>
      <trkpt lat="47.93316" lon="-0.43342">
        <ele>79.4</ele>
        <time>2024-04-14T10:31:05Z</time>
      </trkpt>
      <trkpt lat="47.93319" lon="-0.43344">
        <ele>79.4</ele>
        <time>2024-04-14T10:31:06Z</time>
      </trkpt>
      <trkpt lat="47.93322" lon="-0.43346">
        <ele>79.4</ele>
        <time>2024-04-14T10:31:07Z</time>
      </trkpt>
      <trkpt lat="47.93326" lon="-0.43348">
        <ele>80.4</ele>
        <time>2024-04-14T10:31:08Z</time>
      </trkpt>
      <trkpt lat="47.93329" lon="-0.4335">
        <ele>82.2</ele>
        <time>2024-04-14T10:31:09Z</time>
      </trkpt>
      <trkpt lat="47.93332" lon="-0.43352">
        <ele>82.2</ele>
        <time>2024-04-14T10:31:10Z</time>
      </trkpt>
      <trkpt lat="47.93334" lon="-0.43354">
        <ele>82.2</ele>
        <time>2024-04-14T10:31:11Z</time>
      </trkpt>
      <trkpt lat="47.93337" lon="-0.43357">
        <ele>81.2</ele>
        <time>2024-04-14T10:31:12Z</time>
      </trkpt>
      <trkpt lat="47.9334" lon="-0.43359">
        <ele>80.8</ele>
        <time>2024-04-14T10:31:13Z</time>
      </trkpt>
      <trkpt lat="47.93343" lon="-0.43361">
        <ele>80.8</ele>
        <time>2024-04-14T10:31:14Z</time>
      </trkpt>
      <trkpt lat="47.93347" lon="-0.43364">
        <ele>80.8</ele>
        <time>2024-04-14T10:31:15Z</time>
      </trkpt>
      <trkpt lat="47.9335" lon="-0.43366">
        <ele>80.8</ele>
        <time>2024-04-14T10:31:16Z</time>
      </trkpt>
      <trkpt lat="47.93353" lon="-0.43369">
        <ele>80.6</ele>
        <time>2024-04-14T10:31:17Z</time>
      </trkpt>
      <trkpt lat="47.93356" lon="-0.43371">
        <ele>80.6</ele>
        <time>2024-04-14T10:31:18Z</time>
      </trkpt>
      <trkpt lat="47.93359" lon="-0.43373">
        <ele>80.6</ele>
        <time>2024-04-14T10:31:19Z</time>
      </trkpt>
      <trkpt lat="47.93362" lon="-0.43375">
        <ele>80.6</ele>
        <time>2024-04-14T10:31:20Z</time>
      </trkpt>
      <trkpt lat="47.93365" lon="-0.43377">
        <ele>80.6</ele>
        <time>2024-04-14T10:31:21Z</time>
      </trkpt>
      <trkpt lat="47.93368" lon="-0.43378">
        <ele>80.6</ele>
        <time>2024-04-14T10:31:22Z</time>
      </trkpt>
      <trkpt lat="47.9337" lon="-0.4338">
        <ele>80.6</ele>
        <time>2024-04-14T10:31:23Z</time>
      </trkpt>
      <trkpt lat="47.93373" lon="-0.43382">
        <ele>80.6</ele>
        <time>2024-04-14T10:31:24Z</time>
      </trkpt>
      <trkpt lat="47.93375" lon="-0.43384">
        <ele>80.8</ele>
        <time>2024-04-14T10:31:25Z</time>
      </trkpt>
      <trkpt lat="47.93378" lon="-0.43386">
        <ele>80.8</ele>
        <time>2024-04-14T10:31:26Z</time>
      </trkpt>
      <trkpt lat="47.93381" lon="-0.43388">
        <ele>80.8</ele>
        <time>2024-04-14T10:31:27Z</time>
      </trkpt>
      <trkpt lat="47.93383" lon="-0.43389">
        <ele>80.8</ele>
        <time>2024-04-14T10:31:28Z</time>
      </trkpt>
      <trkpt lat="47.93386" lon="-0.43391">
        <ele>81.4</ele>
        <time>2024-04-14T10:31:29Z</time>
      </trkpt>
      <trkpt lat="47.93389" lon="-0.43393">
        <ele>81.4</ele>
        <time>2024-04-14T10:31:30Z</time>
      </trkpt>
      <trkpt lat="47.93392" lon="-0.43394">
        <ele>81.4</ele>
        <time>2024-04-14T10:31:31Z</time>
      </trkpt>
      <trkpt lat="47.93395" lon="-0.43396">
        <ele>81.4</ele>
        <time>2024-04-14T10:31:32Z</time>
      </trkpt>
      <trkpt lat="47.93398" lon="-0.43397">
        <ele>81.4</ele>
        <time>2024-04-14T10:31:33Z</time>
      </trkpt>
      <trkpt lat="47.934" lon="-0.43398">
        <ele>81.4</ele>
        <time>2024-04-14T10:31:34Z</time>
      </trkpt>
      <trkpt lat="47.93403" lon="-0.434">
        <ele>81.4</ele>
        <time>2024-04-14T10:31:35Z</time>
      </trkpt>
      <trkpt lat="47.93406" lon="-0.43402">
        <ele>81.4</ele>
        <time>2024-04-14T10:31:36Z</time>
      </trkpt>
      <trkpt lat="47.93409" lon="-0.43404">
        <ele>81.2</ele>
        <time>2024-04-14T10:31:37Z</time>
      </trkpt>
      <trkpt lat="47.93413" lon="-0.43407">
        <ele>81.2</ele>
        <time>2024-04-14T10:31:38Z</time>
      </trkpt>
      <trkpt lat="47.93416" lon="-0.43409">
        <ele>81.2</ele>
        <time>2024-04-14T10:31:39Z</time>
      </trkpt>
      <trkpt lat="47.93419" lon="-0.43412">
        <ele>81.2</ele>
        <time>2024-04-14T10:31:40Z</time>
      </trkpt>
      <trkpt lat="47.93423" lon="-0.43415">
        <ele>80.8</ele>
        <time>2024-04-14T10:31:41Z</time>
      </trkpt>
      <trkpt lat="47.93426" lon="-0.43418">
        <ele>80.8</ele>
        <time>2024-04-14T10:31:42Z</time>
      </trkpt>
      <trkpt lat="47.93429" lon="-0.4342">
        <ele>80.8</ele>
        <time>2024-04-14T10:31:43Z</time>
      </trkpt>
      <trkpt lat="47.93432" lon="-0.43422">
        <ele>80.8</ele>
        <time>2024-04-14T10:31:44Z</time>
      </trkpt>
      <trkpt lat="47.93435" lon="-0.43424">
        <ele>81.8</ele>
        <time>2024-04-14T10:31:45Z</time>
      </trkpt>
      <trkpt lat="47.93438" lon="-0.43427">
        <ele>81.8</ele>
        <time>2024-04-14T10:31:46Z</time>
      </trkpt>
      <trkpt lat="47.93442" lon="-0.43429">
        <ele>81.8</ele>
        <time>2024-04-14T10:31:47Z</time>
      </trkpt>
      <trkpt lat="47.93445" lon="-0.43432">
        <ele>80.8</ele>
        <time>2024-04-14T10:31:48Z</time>
      </trkpt>
      <trkpt lat="47.93448" lon="-0.43433">
        <ele>80.6</ele>
        <time>2024-04-14T10:31:49Z</time>
      </trkpt>
      <trkpt lat="47.93451" lon="-0.43434">
        <ele>80.6</ele>
        <time>2024-04-14T10:31:50Z</time>
      </trkpt>
      <trkpt lat="47.93454" lon="-0.43435">
        <ele>80.6</ele>
        <time>2024-04-14T10:31:51Z</time>
      </trkpt>
      <trkpt lat="47.93457" lon="-0.43436">
        <ele>80.6</ele>
        <time>2024-04-14T10:31:52Z</time>
      </trkpt>
      <trkpt lat="47.93461" lon="-0.43437">
        <ele>80.2</ele>
        <time>2024-04-14T10:31:53Z</time>
      </trkpt>
      <trkpt lat="47.93465" lon="-0.43438">
        <ele>80.2</ele>
        <time>2024-04-14T10:31:54Z</time>
      </trkpt>
      <trkpt lat="47.93468" lon="-0.43439">
        <ele>80.2</ele>
        <time>2024-04-14T10:31:55Z</time>
      </trkpt>
      <trkpt lat="47.93472" lon="-0.43441">
        <ele>80.2</ele>
        <time>2024-04-14T10:31:56Z</time>
      </trkpt>
      <trkpt lat="47.93475" lon="-0.43442">
        <ele>80.6</ele>
        <time>2024-04-14T10:31:57Z</time>
      </trkpt>
      <trkpt lat="47.93479" lon="-0.43443">
        <ele>80.6</ele>
        <time>2024-04-14T10:31:58Z</time>
      </trkpt>
      <trkpt lat="47.93483" lon="-0.43445">
        <ele>80.6</ele>
        <time>2024-04-14T10:31:59Z</time>
      </trkpt>
      <trkpt lat="47.93487" lon="-0.43447">
        <ele>80.6</ele>
        <time>2024-04-14T10:32:00Z</time>
      </trkpt>
      <trkpt lat="47.93491" lon="-0.43448">
        <ele>78.8</ele>
        <time>2024-04-14T10:32:01Z</time>
      </trkpt>
      <trkpt lat="47.93496" lon="-0.4345">
        <ele>78.8</ele>
        <time>2024-04-14T10:32:02Z</time>
      </trkpt>
      <trkpt lat="47.935" lon="-0.43451">
        <ele>78.8</ele>
        <time>2024-04-14T10:32:03Z</time>
      </trkpt>
      <trkpt lat="47.93505" lon="-0.43453">
        <ele>79.4</ele>
        <time>2024-04-14T10:32:04Z</time>
      </trkpt>
      <trkpt lat="47.93509" lon="-0.43455">
        <ele>79</ele>
        <time>2024-04-14T10:32:05Z</time>
      </trkpt>
      <trkpt lat="47.93513" lon="-0.43457">
        <ele>79</ele>
        <time>2024-04-14T10:32:06Z</time>
      </trkpt>
      <trkpt lat="47.93517" lon="-0.43459">
        <ele>79</ele>
        <time>2024-04-14T10:32:07Z</time>
      </trkpt>
      <trkpt lat="47.93521" lon="-0.43462">
        <ele>79</ele>
        <time>2024-04-14T10:32:08Z</time>
      </trkpt>
      <trkpt lat="47.93526" lon="-0.43464">
        <ele>78.6</ele>
        <time>2024-04-14T10:32:09Z</time>
      </trkpt>
      <trkpt lat="47.9353" lon="-0.43467">
        <ele>78.6</ele>
        <time>2024-04-14T10:32:10Z</time>
      </trkpt>
      <trkpt lat="47.93534" lon="-0.43469">
        <ele>78.6</ele>
        <time>2024-04-14T10:32:11Z</time>
      </trkpt>
      <trkpt lat="47.93539" lon="-0.43471">
        <ele>79.2</ele>
        <time>2024-04-14T10:32:12Z</time>
      </trkpt>
      <trkpt lat="47.93543" lon="-0.43472">
        <ele>79</ele>
        <time>2024-04-14T10:32:13Z</time>
      </trkpt>
      <trkpt lat="47.93547" lon="-0.43474">
        <ele>79</ele>
        <time>2024-04-14T10:32:14Z</time>
      </trkpt>
      <trkpt lat="47.93551" lon="-0.43476">
        <ele>79</ele>
        <time>2024-04-14T10:32:15Z</time>
      </trkpt>
      <trkpt lat="47.93556" lon="-0.43478">
        <ele>79</ele>
        <time>2024-04-14T10:32:16Z</time>
      </trkpt>
      <trkpt lat="47.9356" lon="-0.4348">
        <ele>78.2</ele>
        <time>2024-04-14T10:32:17Z</time>
      </trkpt>
      <trkpt lat="47.93564" lon="-0.43481">
        <ele>78.2</ele>
        <time>2024-04-14T10:32:18Z</time>
      </trkpt>
      <trkpt lat="47.93568" lon="-0.43483">
        <ele>78.2</ele>
        <time>2024-04-14T10:32:19Z</time>
      </trkpt>
      <trkpt lat="47.93572" lon="-0.43484">
        <ele>78.2</ele>
        <time>2024-04-14T10:32:20Z</time>
      </trkpt>
      <trkpt lat="47.93576" lon="-0.43485">
        <ele>79.2</ele>
        <time>2024-04-14T10:32:21Z</time>
      </trkpt>
      <trkpt lat="47.93579" lon="-0.43485">
        <ele>79.2</ele>
        <time>2024-04-14T10:32:22Z</time>
      </trkpt>
      <trkpt lat="47.93583" lon="-0.43485">
        <ele>79.2</ele>
        <time>2024-04-14T10:32:23Z</time>
      </trkpt>
      <trkpt lat="47.93586" lon="-0.43487">
        <ele>79.2</ele>
        <time>2024-04-14T10:32:24Z</time>
      </trkpt>
      <trkpt lat="47.93589" lon="-0.43491">
        <ele>78.8</ele>
        <time>2024-04-14T10:32:25Z</time>
      </trkpt>
      <trkpt lat="47.93591" lon="-0.43496">
        <ele>78.8</ele>
        <time>2024-04-14T10:32:26Z</time>
      </trkpt>
      <trkpt lat="47.93594" lon="-0.43502">
        <ele>78.8</ele>
        <time>2024-04-14T10:32:27Z</time>
      </trkpt>
      <trkpt lat="47.93596" lon="-0.43508">
        <ele>77.8</ele>
        <time>2024-04-14T10:32:28Z</time>
      </trkpt>
      <trkpt lat="47.93598" lon="-0.43514">
        <ele>77.6</ele>
        <time>2024-04-14T10:32:29Z</time>
      </trkpt>
      <trkpt lat="47.93601" lon="-0.43521">
        <ele>77.6</ele>
        <time>2024-04-14T10:32:30Z</time>
      </trkpt>
      <trkpt lat="47.93603" lon="-0.43527">
        <ele>77.6</ele>
        <time>2024-04-14T10:32:31Z</time>
      </trkpt>
      <trkpt lat="47.93605" lon="-0.43534">
        <ele>77.6</ele>
        <time>2024-04-14T10:32:32Z</time>
      </trkpt>
      <trkpt lat="47.93608" lon="-0.43542">
        <ele>76.8</ele>
        <time>2024-04-14T10:32:33Z</time>
      </trkpt>
      <trkpt lat="47.9361" lon="-0.43549">
        <ele>76.8</ele>
        <time>2024-04-14T10:32:34Z</time>
      </trkpt>
      <trkpt lat="47.93613" lon="-0.43557">
        <ele>76.8</ele>
        <time>2024-04-14T10:32:35Z</time>
      </trkpt>
      <trkpt lat="47.93616" lon="-0.43565">
        <ele>76.8</ele>
        <time>2024-04-14T10:32:36Z</time>
      </trkpt>
      <trkpt lat="47.93619" lon="-0.43574">
        <ele>76.4</ele>
        <time>2024-04-14T10:32:37Z</time>
      </trkpt>
      <trkpt lat="47.93621" lon="-0.43583">
        <ele>76.4</ele>
        <time>2024-04-14T10:32:38Z</time>
      </trkpt>
      <trkpt lat="47.93624" lon="-0.43591">
        <ele>76.4</ele>
        <time>2024-04-14T10:32:39Z</time>
      </trkpt>
      <trkpt lat="47.93626" lon="-0.43601">
        <ele>75.4</ele>
        <time>2024-04-14T10:32:40Z</time>
      </trkpt>
      <trkpt lat="47.93629" lon="-0.4361">
        <ele>74.8</ele>
        <time>2024-04-14T10:32:41Z</time>
      </trkpt>
      <trkpt lat="47.9363" lon="-0.4362">
        <ele>74.8</ele>
        <time>2024-04-14T10:32:42Z</time>
      </trkpt>
      <trkpt lat="47.93632" lon="-0.4363">
        <ele>74.8</ele>
        <time>2024-04-14T10:32:43Z</time>
      </trkpt>
      <trkpt lat="47.93634" lon="-0.4364">
        <ele>73.8</ele>
        <time>2024-04-14T10:32:44Z</time>
      </trkpt>
      <trkpt lat="47.93636" lon="-0.43649">
        <ele>72.2</ele>
        <time>2024-04-14T10:32:45Z</time>
      </trkpt>
      <trkpt lat="47.9364" lon="-0.43655">
        <ele>72.2</ele>
        <time>2024-04-14T10:32:46Z</time>
      </trkpt>
      <trkpt lat="47.93645" lon="-0.43659">
        <ele>72.2</ele>
        <time>2024-04-14T10:32:47Z</time>
      </trkpt>
      <trkpt lat="47.93651" lon="-0.4366">
        <ele>72.8</ele>
        <time>2024-04-14T10:32:48Z</time>
      </trkpt>
      <trkpt lat="47.93656" lon="-0.43659">
        <ele>73</ele>
        <time>2024-04-14T10:32:49Z</time>
      </trkpt>
      <trkpt lat="47.93662" lon="-0.43657">
        <ele>73</ele>
        <time>2024-04-14T10:32:50Z</time>
      </trkpt>
      <trkpt lat="47.93668" lon="-0.43656">
        <ele>73</ele>
        <time>2024-04-14T10:32:51Z</time>
      </trkpt>
      <trkpt lat="47.93674" lon="-0.43655">
        <ele>73</ele>
        <time>2024-04-14T10:32:52Z</time>
      </trkpt>
      <trkpt lat="47.93679" lon="-0.43653">
        <ele>74.4</ele>
        <time>2024-04-14T10:32:53Z</time>
      </trkpt>
      <trkpt lat="47.93685" lon="-0.43652">
        <ele>74.4</ele>
        <time>2024-04-14T10:32:54Z</time>
      </trkpt>
      <trkpt lat="47.9369" lon="-0.43651">
        <ele>74.4</ele>
        <time>2024-04-14T10:32:55Z</time>
      </trkpt>
      <trkpt lat="47.93696" lon="-0.4365">
        <ele>73.6</ele>
        <time>2024-04-14T10:32:56Z</time>
      </trkpt>
      <trkpt lat="47.93701" lon="-0.43649">
        <ele>73.8</ele>
        <time>2024-04-14T10:32:57Z</time>
      </trkpt>
      <trkpt lat="47.93707" lon="-0.43648">
        <ele>73.8</ele>
        <time>2024-04-14T10:32:58Z</time>
      </trkpt>
      <trkpt lat="47.93712" lon="-0.43646">
        <ele>73.8</ele>
        <time>2024-04-14T10:32:59Z</time>
      </trkpt>
      <trkpt lat="47.93718" lon="-0.43645">
        <ele>73.8</ele>
        <time>2024-04-14T10:33:00Z</time>
      </trkpt>
      <trkpt lat="47.93723" lon="-0.43644">
        <ele>74.8</ele>
        <time>2024-04-14T10:33:01Z</time>
      </trkpt>
      <trkpt lat="47.93729" lon="-0.43643">
        <ele>74.8</ele>
        <time>2024-04-14T10:33:02Z</time>
      </trkpt>
      <trkpt lat="47.93734" lon="-0.43641">
        <ele>74.8</ele>
        <time>2024-04-14T10:33:03Z</time>
      </trkpt>
      <trkpt lat="47.93739" lon="-0.4364">
        <ele>74.4</ele>
        <time>2024-04-14T10:33:04Z</time>
      </trkpt>
      <trkpt lat="47.93744" lon="-0.43639">
        <ele>74.8</ele>
        <time>2024-04-14T10:33:05Z</time>
      </trkpt>
      <trkpt lat="47.9375" lon="-0.43638">
        <ele>74.8</ele>
        <time>2024-04-14T10:33:06Z</time>
      </trkpt>
      <trkpt lat="47.93755" lon="-0.43637">
        <ele>74.8</ele>
        <time>2024-04-14T10:33:07Z</time>
      </trkpt>
      <trkpt lat="47.9376" lon="-0.43636">
        <ele>74.8</ele>
        <time>2024-04-14T10:33:08Z</time>
      </trkpt>
      <trkpt lat="47.93765" lon="-0.43635">
        <ele>75.2</ele>
        <time>2024-04-14T10:33:09Z</time>
      </trkpt>
      <trkpt lat="47.9377" lon="-0.43634">
        <ele>75.2</ele>
        <time>2024-04-14T10:33:10Z</time>
      </trkpt>
      <trkpt lat="47.93775" lon="-0.43633">
        <ele>75.2</ele>
        <time>2024-04-14T10:33:11Z</time>
      </trkpt>
      <trkpt lat="47.9378" lon="-0.43632">
        <ele>75.2</ele>
        <time>2024-04-14T10:33:12Z</time>
      </trkpt>
      <trkpt lat="47.93785" lon="-0.43632">
        <ele>76.2</ele>
        <time>2024-04-14T10:33:13Z</time>
      </trkpt>
      <trkpt lat="47.9379" lon="-0.43632">
        <ele>76.2</ele>
        <time>2024-04-14T10:33:14Z</time>
      </trkpt>
      <trkpt lat="47.93795" lon="-0.43632">
        <ele>76.2</ele>
        <time>2024-04-14T10:33:15Z</time>
      </trkpt>
      <trkpt lat="47.938" lon="-0.43632">
        <ele>76.2</ele>
        <time>2024-04-14T10:33:16Z</time>
      </trkpt>
      <trkpt lat="47.93805" lon="-0.43632">
        <ele>77</ele>
        <time>2024-04-14T10:33:17Z</time>
      </trkpt>
      <trkpt lat="47.9381" lon="-0.43632">
        <ele>77</ele>
        <time>2024-04-14T10:33:18Z</time>
      </trkpt>
      <trkpt lat="47.93814" lon="-0.43632">
        <ele>77</ele>
        <time>2024-04-14T10:33:19Z</time>
      </trkpt>
      <trkpt lat="47.93819" lon="-0.43633">
        <ele>77</ele>
        <time>2024-04-14T10:33:20Z</time>
      </trkpt>
      <trkpt lat="47.93824" lon="-0.43633">
        <ele>77.8</ele>
        <time>2024-04-14T10:33:21Z</time>
      </trkpt>
      <trkpt lat="47.93828" lon="-0.43634">
        <ele>77.8</ele>
        <time>2024-04-14T10:33:22Z</time>
      </trkpt>
      <trkpt lat="47.93833" lon="-0.43634">
        <ele>77.8</ele>
        <time>2024-04-14T10:33:23Z</time>
      </trkpt>
      <trkpt lat="47.93837" lon="-0.43635">
        <ele>78.8</ele>
        <time>2024-04-14T10:33:24Z</time>
      </trkpt>
      <trkpt lat="47.93842" lon="-0.43635">
        <ele>78.6</ele>
        <time>2024-04-14T10:33:25Z</time>
      </trkpt>
      <trkpt lat="47.93846" lon="-0.43635">
        <ele>78.6</ele>
        <time>2024-04-14T10:33:26Z</time>
      </trkpt>
      <trkpt lat="47.93851" lon="-0.43635">
        <ele>78.6</ele>
        <time>2024-04-14T10:33:27Z</time>
      </trkpt>
      <trkpt lat="47.93856" lon="-0.43635">
        <ele>78.6</ele>
        <time>2024-04-14T10:33:28Z</time>
      </trkpt>
      <trkpt lat="47.9386" lon="-0.43635">
        <ele>79.2</ele>
        <time>2024-04-14T10:33:29Z</time>
      </trkpt>
      <trkpt lat="47.93864" lon="-0.43635">
        <ele>79.2</ele>
        <time>2024-04-14T10:33:30Z</time>
      </trkpt>
      <trkpt lat="47.93869" lon="-0.43634">
        <ele>79.2</ele>
        <time>2024-04-14T10:33:31Z</time>
      </trkpt>
      <trkpt lat="47.93873" lon="-0.43634">
        <ele>80.2</ele>
        <time>2024-04-14T10:33:32Z</time>
      </trkpt>
      <trkpt lat="47.93878" lon="-0.43634">
        <ele>80</ele>
        <time>2024-04-14T10:33:33Z</time>
      </trkpt>
      <trkpt lat="47.93882" lon="-0.43634">
        <ele>80</ele>
        <time>2024-04-14T10:33:34Z</time>
      </trkpt>
      <trkpt lat="47.93886" lon="-0.43633">
        <ele>80</ele>
        <time>2024-04-14T10:33:35Z</time>
      </trkpt>
      <trkpt lat="47.9389" lon="-0.43633">
        <ele>80</ele>
        <time>2024-04-14T10:33:36Z</time>
      </trkpt>
      <trkpt lat="47.93895" lon="-0.43633">
        <ele>79.6</ele>
        <time>2024-04-14T10:33:37Z</time>
      </trkpt>
      <trkpt lat="47.93899" lon="-0.43632">
        <ele>79.6</ele>
        <time>2024-04-14T10:33:38Z</time>
      </trkpt>
      <trkpt lat="47.93903" lon="-0.43632">
        <ele>79.6</ele>
        <time>2024-04-14T10:33:39Z</time>
      </trkpt>
      <trkpt lat="47.93908" lon="-0.43631">
        <ele>80.6</ele>
        <time>2024-04-14T10:33:40Z</time>
      </trkpt>
      <trkpt lat="47.93912" lon="-0.43631">
        <ele>80.8</ele>
        <time>2024-04-14T10:33:41Z</time>
      </trkpt>
      <trkpt lat="47.93916" lon="-0.43631">
        <ele>80.8</ele>
        <time>2024-04-14T10:33:42Z</time>
      </trkpt>
      <trkpt lat="47.93921" lon="-0.43631">
        <ele>80.8</ele>
        <time>2024-04-14T10:33:43Z</time>
      </trkpt>
      <trkpt lat="47.93925" lon="-0.4363">
        <ele>81</ele>
        <time>2024-04-14T10:33:44Z</time>
      </trkpt>
      <trkpt lat="47.93929" lon="-0.4363">
        <ele>81</ele>
        <time>2024-04-14T10:33:45Z</time>
      </trkpt>
      <trkpt lat="47.93934" lon="-0.4363">
        <ele>81</ele>
        <time>2024-04-14T10:33:46Z</time>
      </trkpt>
      <trkpt lat="47.93938" lon="-0.4363">
        <ele>81</ele>
        <time>2024-04-14T10:33:47Z</time>
      </trkpt>
      <trkpt lat="47.93943" lon="-0.43631">
        <ele>81</ele>
        <time>2024-04-14T10:33:48Z</time>
      </trkpt>
      <trkpt lat="47.93948" lon="-0.43631">
        <ele>81</ele>
        <time>2024-04-14T10:33:49Z</time>
      </trkpt>
      <trkpt lat="47.93952" lon="-0.43632">
        <ele>81</ele>
        <time>2024-04-14T10:33:50Z</time>
      </trkpt>
      <trkpt lat="47.93957" lon="-0.43633">
        <ele>81</ele>
        <time>2024-04-14T10:33:51Z</time>
      </trkpt>
      <trkpt lat="47.93962" lon="-0.43634">
        <ele>80.6</ele>
        <time>2024-04-14T10:33:52Z</time>
      </trkpt>
      <trkpt lat="47.93967" lon="-0.43635">
        <ele>80.6</ele>
        <time>2024-04-14T10:33:53Z</time>
      </trkpt>
      <trkpt lat="47.93972" lon="-0.43636">
        <ele>80.6</ele>
        <time>2024-04-14T10:33:54Z</time>
      </trkpt>
      <trkpt lat="47.93976" lon="-0.43637">
        <ele>80.6</ele>
        <time>2024-04-14T10:33:55Z</time>
      </trkpt>
      <trkpt lat="47.93981" lon="-0.43639">
        <ele>80.6</ele>
        <time>2024-04-14T10:33:56Z</time>
      </trkpt>
      <trkpt lat="47.93986" lon="-0.4364">
        <ele>80.2</ele>
        <time>2024-04-14T10:33:57Z</time>
      </trkpt>
      <trkpt lat="47.93992" lon="-0.43641">
        <ele>80.2</ele>
        <time>2024-04-14T10:33:58Z</time>
      </trkpt>
      <trkpt lat="47.93997" lon="-0.43643">
        <ele>80.2</ele>
        <time>2024-04-14T10:33:59Z</time>
      </trkpt>
      <trkpt lat="47.94002" lon="-0.43644">
        <ele>79.6</ele>
        <time>2024-04-14T10:34:00Z</time>
      </trkpt>
      <trkpt lat="47.94007" lon="-0.43645">
        <ele>79.6</ele>
        <time>2024-04-14T10:34:01Z</time>
      </trkpt>
      <trkpt lat="47.94012" lon="-0.43646">
        <ele>79.6</ele>
        <time>2024-04-14T10:34:02Z</time>
      </trkpt>
      <trkpt lat="47.94018" lon="-0.43647">
        <ele>79.6</ele>
        <time>2024-04-14T10:34:03Z</time>
      </trkpt>
      <trkpt lat="47.94023" lon="-0.43648">
        <ele>79.6</ele>
        <time>2024-04-14T10:34:04Z</time>
      </trkpt>
      <trkpt lat="47.94028" lon="-0.43649">
        <ele>79.6</ele>
        <time>2024-04-14T10:34:05Z</time>
      </trkpt>
      <trkpt lat="47.94033" lon="-0.4365">
        <ele>79.6</ele>
        <time>2024-04-14T10:34:06Z</time>
      </trkpt>
      <trkpt lat="47.94039" lon="-0.43651">
        <ele>79.6</ele>
        <time>2024-04-14T10:34:07Z</time>
      </trkpt>
      <trkpt lat="47.94044" lon="-0.43652">
        <ele>79.4</ele>
        <time>2024-04-14T10:34:08Z</time>
      </trkpt>
      <trkpt lat="47.9405" lon="-0.43653">
        <ele>78.8</ele>
        <time>2024-04-14T10:34:09Z</time>
      </trkpt>
      <trkpt lat="47.94055" lon="-0.43653">
        <ele>78.8</ele>
        <time>2024-04-14T10:34:10Z</time>
      </trkpt>
      <trkpt lat="47.94061" lon="-0.43654">
        <ele>78.8</ele>
        <time>2024-04-14T10:34:11Z</time>
      </trkpt>
      <trkpt lat="47.94066" lon="-0.43655">
        <ele>78.8</ele>
        <time>2024-04-14T10:34:12Z</time>
      </trkpt>
      <trkpt lat="47.94072" lon="-0.43656">
        <ele>79</ele>
        <time>2024-04-14T10:34:13Z</time>
      </trkpt>
      <trkpt lat="47.94078" lon="-0.43657">
        <ele>79</ele>
        <time>2024-04-14T10:34:14Z</time>
      </trkpt>
      <trkpt lat="47.94084" lon="-0.43657">
        <ele>79</ele>
        <time>2024-04-14T10:34:15Z</time>
      </trkpt>
      <trkpt lat="47.9409" lon="-0.43658">
        <ele>79.2</ele>
        <time>2024-04-14T10:34:16Z</time>
      </trkpt>
      <trkpt lat="47.94096" lon="-0.43659">
        <ele>78.2</ele>
        <time>2024-04-14T10:34:17Z</time>
      </trkpt>
      <trkpt lat="47.94101" lon="-0.4366">
        <ele>78.2</ele>
        <time>2024-04-14T10:34:18Z</time>
      </trkpt>
      <trkpt lat="47.94107" lon="-0.4366">
        <ele>78.2</ele>
        <time>2024-04-14T10:34:19Z</time>
      </trkpt>
      <trkpt lat="47.94113" lon="-0.43661">
        <ele>78.2</ele>
        <time>2024-04-14T10:34:20Z</time>
      </trkpt>
      <trkpt lat="47.94119" lon="-0.43661">
        <ele>77.8</ele>
        <time>2024-04-14T10:34:21Z</time>
      </trkpt>
      <trkpt lat="47.94125" lon="-0.43662">
        <ele>77.8</ele>
        <time>2024-04-14T10:34:22Z</time>
      </trkpt>
      <trkpt lat="47.9413" lon="-0.43662">
        <ele>77.8</ele>
        <time>2024-04-14T10:34:23Z</time>
      </trkpt>
      <trkpt lat="47.94136" lon="-0.43663">
        <ele>77.8</ele>
        <time>2024-04-14T10:34:24Z</time>
      </trkpt>
      <trkpt lat="47.94142" lon="-0.43664">
        <ele>77</ele>
        <time>2024-04-14T10:34:25Z</time>
      </trkpt>
      <trkpt lat="47.94148" lon="-0.43665">
        <ele>77</ele>
        <time>2024-04-14T10:34:26Z</time>
      </trkpt>
      <trkpt lat="47.94154" lon="-0.43667">
        <ele>77</ele>
        <time>2024-04-14T10:34:27Z</time>
      </trkpt>
      <trkpt lat="47.94161" lon="-0.43669">
        <ele>77.6</ele>
        <time>2024-04-14T10:34:28Z</time>
      </trkpt>
      <trkpt lat="47.94167" lon="-0.4367">
        <ele>76.6</ele>
        <time>2024-04-14T10:34:29Z</time>
      </trkpt>
      <trkpt lat="47.94173" lon="-0.43672">
        <ele>76.6</ele>
        <time>2024-04-14T10:34:30Z</time>
      </trkpt>
      <trkpt lat="47.9418" lon="-0.43673">
        <ele>76.6</ele>
        <time>2024-04-14T10:34:31Z</time>
      </trkpt>
      <trkpt lat="47.94186" lon="-0.43675">
        <ele>75.6</ele>
        <time>2024-04-14T10:34:32Z</time>
      </trkpt>
      <trkpt lat="47.94193" lon="-0.43676">
        <ele>74.2</ele>
        <time>2024-04-14T10:34:33Z</time>
      </trkpt>
      <trkpt lat="47.942" lon="-0.43678">
        <ele>74.2</ele>
        <time>2024-04-14T10:34:34Z</time>
      </trkpt>
      <trkpt lat="47.94206" lon="-0.4368">
        <ele>74.2</ele>
        <time>2024-04-14T10:34:35Z</time>
      </trkpt>
      <trkpt lat="47.94213" lon="-0.43682">
        <ele>74.2</ele>
        <time>2024-04-14T10:34:36Z</time>
      </trkpt>
      <trkpt lat="47.9422" lon="-0.43684">
        <ele>74.4</ele>
        <time>2024-04-14T10:34:37Z</time>
      </trkpt>
      <trkpt lat="47.94226" lon="-0.43685">
        <ele>74.4</ele>
        <time>2024-04-14T10:34:38Z</time>
      </trkpt>
      <trkpt lat="47.94233" lon="-0.43687">
        <ele>74.4</ele>
        <time>2024-04-14T10:34:39Z</time>
      </trkpt>
      <trkpt lat="47.9424" lon="-0.43688">
        <ele>74.4</ele>
        <time>2024-04-14T10:34:40Z</time>
      </trkpt>
      <trkpt lat="47.94246" lon="-0.43689">
        <ele>73.8</ele>
        <time>2024-04-14T10:34:41Z</time>
      </trkpt>
      <trkpt lat="47.94253" lon="-0.4369">
        <ele>73.8</ele>
        <time>2024-04-14T10:34:42Z</time>
      </trkpt>
      <trkpt lat="47.94259" lon="-0.4369">
        <ele>73.8</ele>
        <time>2024-04-14T10:34:43Z</time>
      </trkpt>
      <trkpt lat="47.94266" lon="-0.43689">
        <ele>74.2</ele>
        <time>2024-04-14T10:34:44Z</time>
      </trkpt>
      <trkpt lat="47.94272" lon="-0.43688">
        <ele>74.4</ele>
        <time>2024-04-14T10:34:45Z</time>
      </trkpt>
      <trkpt lat="47.94279" lon="-0.43687">
        <ele>74.4</ele>
        <time>2024-04-14T10:34:46Z</time>
      </trkpt>
      <trkpt lat="47.94286" lon="-0.43686">
        <ele>74.4</ele>
        <time>2024-04-14T10:34:47Z</time>
      </trkpt>
      <trkpt lat="47.94292" lon="-0.43684">
        <ele>73.4</ele>
        <time>2024-04-14T10:34:48Z</time>
      </trkpt>
      <trkpt lat="47.94299" lon="-0.43682">
        <ele>73.6</ele>
        <time>2024-04-14T10:34:49Z</time>
      </trkpt>
      <trkpt lat="47.94305" lon="-0.4368">
        <ele>73.6</ele>
        <time>2024-04-14T10:34:50Z</time>
      </trkpt>
      <trkpt lat="47.94312" lon="-0.43678">
        <ele>73.6</ele>
        <time>2024-04-14T10:34:51Z</time>
      </trkpt>
      <trkpt lat="47.94318" lon="-0.43676">
        <ele>73.6</ele>
        <time>2024-04-14T10:34:52Z</time>
      </trkpt>
      <trkpt lat="47.94325" lon="-0.43674">
        <ele>73</ele>
        <time>2024-04-14T10:34:53Z</time>
      </trkpt>
      <trkpt lat="47.94332" lon="-0.43673">
        <ele>73</ele>
        <time>2024-04-14T10:34:54Z</time>
      </trkpt>
      <trkpt lat="47.94339" lon="-0.43671">
        <ele>73</ele>
        <time>2024-04-14T10:34:55Z</time>
      </trkpt>
      <trkpt lat="47.94345" lon="-0.4367">
        <ele>73</ele>
        <time>2024-04-14T10:34:56Z</time>
      </trkpt>
      <trkpt lat="47.94352" lon="-0.43669">
        <ele>72</ele>
        <time>2024-04-14T10:34:57Z</time>
      </trkpt>
      <trkpt lat="47.94358" lon="-0.43668">
        <ele>72</ele>
        <time>2024-04-14T10:34:58Z</time>
      </trkpt>
      <trkpt lat="47.94365" lon="-0.43667">
        <ele>72</ele>
        <time>2024-04-14T10:34:59Z</time>
      </trkpt>
      <trkpt lat="47.94371" lon="-0.43667">
        <ele>73</ele>
        <time>2024-04-14T10:35:00Z</time>
      </trkpt>
      <trkpt lat="47.94377" lon="-0.43667">
        <ele>72.6</ele>
        <time>2024-04-14T10:35:01Z</time>
      </trkpt>
      <trkpt lat="47.94384" lon="-0.43668">
        <ele>72.6</ele>
        <time>2024-04-14T10:35:02Z</time>
      </trkpt>
      <trkpt lat="47.9439" lon="-0.43668">
        <ele>72.6</ele>
        <time>2024-04-14T10:35:03Z</time>
      </trkpt>
      <trkpt lat="47.94396" lon="-0.43669">
        <ele>72.2</ele>
        <time>2024-04-14T10:35:04Z</time>
      </trkpt>
      <trkpt lat="47.94403" lon="-0.4367">
        <ele>71.4</ele>
        <time>2024-04-14T10:35:05Z</time>
      </trkpt>
      <trkpt lat="47.94409" lon="-0.43671">
        <ele>71.4</ele>
        <time>2024-04-14T10:35:06Z</time>
      </trkpt>
      <trkpt lat="47.94415" lon="-0.43671">
        <ele>71.4</ele>
        <time>2024-04-14T10:35:07Z</time>
      </trkpt>
      <trkpt lat="47.9442" lon="-0.43672">
        <ele>71.4</ele>
        <time>2024-04-14T10:35:08Z</time>
      </trkpt>
      <trkpt lat="47.94426" lon="-0.43673">
        <ele>72.8</ele>
        <time>2024-04-14T10:35:09Z</time>
      </trkpt>
      <trkpt lat="47.94432" lon="-0.43676">
        <ele>72.8</ele>
        <time>2024-04-14T10:35:10Z</time>
      </trkpt>
      <trkpt lat="47.94438" lon="-0.43681">
        <ele>72.8</ele>
        <time>2024-04-14T10:35:11Z</time>
      </trkpt>
      <trkpt lat="47.94443" lon="-0.43686">
        <ele>71.8</ele>
        <time>2024-04-14T10:35:12Z</time>
      </trkpt>
      <trkpt lat="47.94448" lon="-0.43691">
        <ele>71.2</ele>
        <time>2024-04-14T10:35:13Z</time>
      </trkpt>
      <trkpt lat="47.94453" lon="-0.43696">
        <ele>71.2</ele>
        <time>2024-04-14T10:35:14Z</time>
      </trkpt>
      <trkpt lat="47.94459" lon="-0.43703">
        <ele>71.2</ele>
        <time>2024-04-14T10:35:15Z</time>
      </trkpt>
      <trkpt lat="47.94463" lon="-0.43709">
        <ele>70.8</ele>
        <time>2024-04-14T10:35:16Z</time>
      </trkpt>
      <trkpt lat="47.94468" lon="-0.43716">
        <ele>70.8</ele>
        <time>2024-04-14T10:35:17Z</time>
      </trkpt>
      <trkpt lat="47.94472" lon="-0.43724">
        <ele>70.8</ele>
        <time>2024-04-14T10:35:18Z</time>
      </trkpt>
      <trkpt lat="47.94476" lon="-0.43731">
        <ele>70.8</ele>
        <time>2024-04-14T10:35:19Z</time>
      </trkpt>
      <trkpt lat="47.94481" lon="-0.43738">
        <ele>70.2</ele>
        <time>2024-04-14T10:35:20Z</time>
      </trkpt>
      <trkpt lat="47.94485" lon="-0.43746">
        <ele>70.6</ele>
        <time>2024-04-14T10:35:21Z</time>
      </trkpt>
      <trkpt lat="47.9449" lon="-0.43753">
        <ele>70.6</ele>
        <time>2024-04-14T10:35:22Z</time>
      </trkpt>
      <trkpt lat="47.94495" lon="-0.4376">
        <ele>70.6</ele>
        <time>2024-04-14T10:35:23Z</time>
      </trkpt>
      <trkpt lat="47.945" lon="-0.43766">
        <ele>70.2</ele>
        <time>2024-04-14T10:35:24Z</time>
      </trkpt>
      <trkpt lat="47.94506" lon="-0.43771">
        <ele>68.6</ele>
        <time>2024-04-14T10:35:25Z</time>
      </trkpt>
      <trkpt lat="47.94512" lon="-0.43775">
        <ele>68.6</ele>
        <time>2024-04-14T10:35:26Z</time>
      </trkpt>
      <trkpt lat="47.94518" lon="-0.4378">
        <ele>68.6</ele>
        <time>2024-04-14T10:35:27Z</time>
      </trkpt>
      <trkpt lat="47.94523" lon="-0.43784">
        <ele>68.6</ele>
        <time>2024-04-14T10:35:28Z</time>
      </trkpt>
      <trkpt lat="47.94529" lon="-0.43789">
        <ele>69.2</ele>
        <time>2024-04-14T10:35:29Z</time>
      </trkpt>
      <trkpt lat="47.94534" lon="-0.43794">
        <ele>69.2</ele>
        <time>2024-04-14T10:35:30Z</time>
      </trkpt>
      <trkpt lat="47.9454" lon="-0.43799">
        <ele>69.2</ele>
        <time>2024-04-14T10:35:31Z</time>
      </trkpt>
      <trkpt lat="47.94545" lon="-0.43804">
        <ele>69.2</ele>
        <time>2024-04-14T10:35:32Z</time>
      </trkpt>
      <trkpt lat="47.94551" lon="-0.43809">
        <ele>69.4</ele>
        <time>2024-04-14T10:35:33Z</time>
      </trkpt>
      <trkpt lat="47.94556" lon="-0.43814">
        <ele>69.4</ele>
        <time>2024-04-14T10:35:34Z</time>
      </trkpt>
      <trkpt lat="47.94561" lon="-0.43819">
        <ele>69.4</ele>
        <time>2024-04-14T10:35:35Z</time>
      </trkpt>
      <trkpt lat="47.94566" lon="-0.43824">
        <ele>69.4</ele>
        <time>2024-04-14T10:35:36Z</time>
      </trkpt>
      <trkpt lat="47.9457" lon="-0.43829">
        <ele>70</ele>
        <time>2024-04-14T10:35:37Z</time>
      </trkpt>
      <trkpt lat="47.94575" lon="-0.43834">
        <ele>70</ele>
        <time>2024-04-14T10:35:38Z</time>
      </trkpt>
      <trkpt lat="47.9458" lon="-0.43839">
        <ele>70</ele>
        <time>2024-04-14T10:35:39Z</time>
      </trkpt>
      <trkpt lat="47.94584" lon="-0.43845">
        <ele>70</ele>
        <time>2024-04-14T10:35:40Z</time>
      </trkpt>
      <trkpt lat="47.94589" lon="-0.4385">
        <ele>70.2</ele>
        <time>2024-04-14T10:35:41Z</time>
      </trkpt>
      <trkpt lat="47.94593" lon="-0.43855">
        <ele>70.2</ele>
        <time>2024-04-14T10:35:42Z</time>
      </trkpt>
      <trkpt lat="47.94598" lon="-0.4386">
        <ele>70.2</ele>
        <time>2024-04-14T10:35:43Z</time>
      </trkpt>
      <trkpt lat="47.94602" lon="-0.43865">
        <ele>70.2</ele>
        <time>2024-04-14T10:35:44Z</time>
      </trkpt>
      <trkpt lat="47.94607" lon="-0.43871">
        <ele>70.2</ele>
        <time>2024-04-14T10:35:45Z</time>
      </trkpt>
      <trkpt lat="47.94611" lon="-0.43875">
        <ele>70.2</ele>
        <time>2024-04-14T10:35:46Z</time>
      </trkpt>
      <trkpt lat="47.94616" lon="-0.4388">
        <ele>70.2</ele>
        <time>2024-04-14T10:35:47Z</time>
      </trkpt>
      <trkpt lat="47.9462" lon="-0.43885">
        <ele>70.2</ele>
        <time>2024-04-14T10:35:48Z</time>
      </trkpt>
      <trkpt lat="47.94624" lon="-0.43891">
        <ele>70.2</ele>
        <time>2024-04-14T10:35:49Z</time>
      </trkpt>
      <trkpt lat="47.94629" lon="-0.43896">
        <ele>70.2</ele>
        <time>2024-04-14T10:35:50Z</time>
      </trkpt>
      <trkpt lat="47.94633" lon="-0.43901">
        <ele>70.2</ele>
        <time>2024-04-14T10:35:51Z</time>
      </trkpt>
      <trkpt lat="47.94638" lon="-0.43906">
        <ele>69.6</ele>
        <time>2024-04-14T10:35:52Z</time>
      </trkpt>
      <trkpt lat="47.94643" lon="-0.4391">
        <ele>70.4</ele>
        <time>2024-04-14T10:35:53Z</time>
      </trkpt>
      <trkpt lat="47.94648" lon="-0.43914">
        <ele>70.4</ele>
        <time>2024-04-14T10:35:54Z</time>
      </trkpt>
      <trkpt lat="47.94652" lon="-0.43918">
        <ele>70.4</ele>
        <time>2024-04-14T10:35:55Z</time>
      </trkpt>
      <trkpt lat="47.94657" lon="-0.43922">
        <ele>69.6</ele>
        <time>2024-04-14T10:35:56Z</time>
      </trkpt>
      <trkpt lat="47.94662" lon="-0.43926">
        <ele>70.6</ele>
        <time>2024-04-14T10:35:57Z</time>
      </trkpt>
      <trkpt lat="47.94667" lon="-0.43929">
        <ele>70.6</ele>
        <time>2024-04-14T10:35:58Z</time>
      </trkpt>
      <trkpt lat="47.94672" lon="-0.43934">
        <ele>70.6</ele>
        <time>2024-04-14T10:35:59Z</time>
      </trkpt>
      <trkpt lat="47.94676" lon="-0.43938">
        <ele>69.8</ele>
        <time>2024-04-14T10:36:00Z</time>
      </trkpt>
      <trkpt lat="47.94681" lon="-0.43943">
        <ele>69.6</ele>
        <time>2024-04-14T10:36:01Z</time>
      </trkpt>
      <trkpt lat="47.94686" lon="-0.43948">
        <ele>69.6</ele>
        <time>2024-04-14T10:36:02Z</time>
      </trkpt>
      <trkpt lat="47.9469" lon="-0.43953">
        <ele>69.6</ele>
        <time>2024-04-14T10:36:03Z</time>
      </trkpt>
      <trkpt lat="47.94694" lon="-0.43959">
        <ele>69.4</ele>
        <time>2024-04-14T10:36:04Z</time>
      </trkpt>
      <trkpt lat="47.94698" lon="-0.43966">
        <ele>69.2</ele>
        <time>2024-04-14T10:36:05Z</time>
      </trkpt>
      <trkpt lat="47.94702" lon="-0.43972">
        <ele>69.2</ele>
        <time>2024-04-14T10:36:06Z</time>
      </trkpt>
      <trkpt lat="47.94706" lon="-0.43978">
        <ele>69.2</ele>
        <time>2024-04-14T10:36:07Z</time>
      </trkpt>
      <trkpt lat="47.94709" lon="-0.43984">
        <ele>70.2</ele>
        <time>2024-04-14T10:36:08Z</time>
      </trkpt>
      <trkpt lat="47.94713" lon="-0.4399">
        <ele>68.8</ele>
        <time>2024-04-14T10:36:09Z</time>
      </trkpt>
      <trkpt lat="47.94717" lon="-0.43997">
        <ele>68.8</ele>
        <time>2024-04-14T10:36:10Z</time>
      </trkpt>
      <trkpt lat="47.94721" lon="-0.44003">
        <ele>68.8</ele>
        <time>2024-04-14T10:36:11Z</time>
      </trkpt>
      <trkpt lat="47.94725" lon="-0.44009">
        <ele>68.8</ele>
        <time>2024-04-14T10:36:12Z</time>
      </trkpt>
      <trkpt lat="47.94729" lon="-0.44016">
        <ele>68.4</ele>
        <time>2024-04-14T10:36:13Z</time>
      </trkpt>
      <trkpt lat="47.94733" lon="-0.44022">
        <ele>68.4</ele>
        <time>2024-04-14T10:36:14Z</time>
      </trkpt>
      <trkpt lat="47.94737" lon="-0.44028">
        <ele>68.4</ele>
        <time>2024-04-14T10:36:15Z</time>
      </trkpt>
      <trkpt lat="47.9474" lon="-0.44034">
        <ele>68.4</ele>
        <time>2024-04-14T10:36:16Z</time>
      </trkpt>
      <trkpt lat="47.94744" lon="-0.4404">
        <ele>68.6</ele>
        <time>2024-04-14T10:36:17Z</time>
      </trkpt>
      <trkpt lat="47.94748" lon="-0.44046">
        <ele>68.6</ele>
        <time>2024-04-14T10:36:18Z</time>
      </trkpt>
      <trkpt lat="47.94751" lon="-0.44053">
        <ele>68.6</ele>
        <time>2024-04-14T10:36:19Z</time>
      </trkpt>
      <trkpt lat="47.94755" lon="-0.44059">
        <ele>68.6</ele>
        <time>2024-04-14T10:36:20Z</time>
      </trkpt>
      <trkpt lat="47.94759" lon="-0.44066">
        <ele>67.8</ele>
        <time>2024-04-14T10:36:21Z</time>
      </trkpt>
      <trkpt lat="47.94763" lon="-0.44072">
        <ele>67.8</ele>
        <time>2024-04-14T10:36:22Z</time>
      </trkpt>
      <trkpt lat="47.94767" lon="-0.44079">
        <ele>67.8</ele>
        <time>2024-04-14T10:36:23Z</time>
      </trkpt>
      <trkpt lat="47.9477" lon="-0.44085">
        <ele>67.8</ele>
        <time>2024-04-14T10:36:24Z</time>
      </trkpt>
      <trkpt lat="47.94774" lon="-0.44092">
        <ele>67.4</ele>
        <time>2024-04-14T10:36:25Z</time>
      </trkpt>
      <trkpt lat="47.94777" lon="-0.44099">
        <ele>67.4</ele>
        <time>2024-04-14T10:36:26Z</time>
      </trkpt>
      <trkpt lat="47.94781" lon="-0.44107">
        <ele>67.4</ele>
        <time>2024-04-14T10:36:27Z</time>
      </trkpt>
      <trkpt lat="47.94784" lon="-0.44113">
        <ele>66.8</ele>
        <time>2024-04-14T10:36:28Z</time>
      </trkpt>
      <trkpt lat="47.94788" lon="-0.4412">
        <ele>66.6</ele>
        <time>2024-04-14T10:36:29Z</time>
      </trkpt>
      <trkpt lat="47.94791" lon="-0.44127">
        <ele>66.6</ele>
        <time>2024-04-14T10:36:30Z</time>
      </trkpt>
      <trkpt lat="47.94795" lon="-0.44134">
        <ele>66.6</ele>
        <time>2024-04-14T10:36:31Z</time>
      </trkpt>
      <trkpt lat="47.94798" lon="-0.4414">
        <ele>66.4</ele>
        <time>2024-04-14T10:36:32Z</time>
      </trkpt>
      <trkpt lat="47.94802" lon="-0.44147">
        <ele>65.6</ele>
        <time>2024-04-14T10:36:33Z</time>
      </trkpt>
      <trkpt lat="47.94807" lon="-0.44154">
        <ele>65.6</ele>
        <time>2024-04-14T10:36:34Z</time>
      </trkpt>
      <trkpt lat="47.94811" lon="-0.4416">
        <ele>65.6</ele>
        <time>2024-04-14T10:36:35Z</time>
      </trkpt>
      <trkpt lat="47.94815" lon="-0.44166">
        <ele>66.2</ele>
        <time>2024-04-14T10:36:36Z</time>
      </trkpt>
      <trkpt lat="47.9482" lon="-0.44172">
        <ele>65.6</ele>
        <time>2024-04-14T10:36:37Z</time>
      </trkpt>
      <trkpt lat="47.94825" lon="-0.44177">
        <ele>65.6</ele>
        <time>2024-04-14T10:36:38Z</time>
      </trkpt>
      <trkpt lat="47.9483" lon="-0.44183">
        <ele>65.6</ele>
        <time>2024-04-14T10:36:39Z</time>
      </trkpt>
      <trkpt lat="47.94835" lon="-0.44188">
        <ele>65.6</ele>
        <time>2024-04-14T10:36:40Z</time>
      </trkpt>
      <trkpt lat="47.9484" lon="-0.44193">
        <ele>66.6</ele>
        <time>2024-04-14T10:36:41Z</time>
      </trkpt>
      <trkpt lat="47.94846" lon="-0.44197">
        <ele>66.6</ele>
        <time>2024-04-14T10:36:42Z</time>
      </trkpt>
      <trkpt lat="47.94852" lon="-0.44202">
        <ele>66.6</ele>
        <time>2024-04-14T10:36:43Z</time>
      </trkpt>
      <trkpt lat="47.94858" lon="-0.44206">
        <ele>65.6</ele>
        <time>2024-04-14T10:36:44Z</time>
      </trkpt>
      <trkpt lat="47.94864" lon="-0.4421">
        <ele>66</ele>
        <time>2024-04-14T10:36:45Z</time>
      </trkpt>
      <trkpt lat="47.9487" lon="-0.44214">
        <ele>66</ele>
        <time>2024-04-14T10:36:46Z</time>
      </trkpt>
      <trkpt lat="47.94876" lon="-0.44219">
        <ele>66</ele>
        <time>2024-04-14T10:36:47Z</time>
      </trkpt>
      <trkpt lat="47.94882" lon="-0.44224">
        <ele>66</ele>
        <time>2024-04-14T10:36:48Z</time>
      </trkpt>
      <trkpt lat="47.94887" lon="-0.44229">
        <ele>64</ele>
        <time>2024-04-14T10:36:49Z</time>
      </trkpt>
      <trkpt lat="47.94893" lon="-0.44234">
        <ele>64</ele>
        <time>2024-04-14T10:36:50Z</time>
      </trkpt>
      <trkpt lat="47.94899" lon="-0.44239">
        <ele>64</ele>
        <time>2024-04-14T10:36:51Z</time>
      </trkpt>
      <trkpt lat="47.94904" lon="-0.44244">
        <ele>65</ele>
        <time>2024-04-14T10:36:52Z</time>
      </trkpt>
      <trkpt lat="47.94909" lon="-0.44249">
        <ele>64.4</ele>
        <time>2024-04-14T10:36:53Z</time>
      </trkpt>
      <trkpt lat="47.94915" lon="-0.44255">
        <ele>64.4</ele>
        <time>2024-04-14T10:36:54Z</time>
      </trkpt>
      <trkpt lat="47.9492" lon="-0.4426">
        <ele>64.4</ele>
        <time>2024-04-14T10:36:55Z</time>
      </trkpt>
      <trkpt lat="47.94925" lon="-0.44266">
        <ele>64.4</ele>
        <time>2024-04-14T10:36:56Z</time>
      </trkpt>
      <trkpt lat="47.9493" lon="-0.44272">
        <ele>64</ele>
        <time>2024-04-14T10:36:57Z</time>
      </trkpt>
      <trkpt lat="47.94935" lon="-0.44278">
        <ele>64</ele>
        <time>2024-04-14T10:36:58Z</time>
      </trkpt>
      <trkpt lat="47.9494" lon="-0.44283">
        <ele>64</ele>
        <time>2024-04-14T10:36:59Z</time>
      </trkpt>
      <trkpt lat="47.94944" lon="-0.44289">
        <ele>64</ele>
        <time>2024-04-14T10:37:00Z</time>
      </trkpt>
      <trkpt lat="47.94949" lon="-0.44295">
        <ele>64</ele>
        <time>2024-04-14T10:37:01Z</time>
      </trkpt>
      <trkpt lat="47.94953" lon="-0.44301">
        <ele>64</ele>
        <time>2024-04-14T10:37:02Z</time>
      </trkpt>
      <trkpt lat="47.94958" lon="-0.44307">
        <ele>64</ele>
        <time>2024-04-14T10:37:03Z</time>
      </trkpt>
      <trkpt lat="47.94962" lon="-0.44313">
        <ele>65</ele>
        <time>2024-04-14T10:37:04Z</time>
      </trkpt>
      <trkpt lat="47.94966" lon="-0.44318">
        <ele>64.4</ele>
        <time>2024-04-14T10:37:05Z</time>
      </trkpt>
      <trkpt lat="47.9497" lon="-0.44324">
        <ele>64.4</ele>
        <time>2024-04-14T10:37:06Z</time>
      </trkpt>
      <trkpt lat="47.94974" lon="-0.4433">
        <ele>64.4</ele>
        <time>2024-04-14T10:37:07Z</time>
      </trkpt>
      <trkpt lat="47.94978" lon="-0.44335">
        <ele>65.4</ele>
        <time>2024-04-14T10:37:08Z</time>
      </trkpt>
      <trkpt lat="47.94981" lon="-0.4434">
        <ele>66.6</ele>
        <time>2024-04-14T10:37:09Z</time>
      </trkpt>
      <trkpt lat="47.94985" lon="-0.44345">
        <ele>66.6</ele>
        <time>2024-04-14T10:37:10Z</time>
      </trkpt>
      <trkpt lat="47.94989" lon="-0.4435">
        <ele>66.6</ele>
        <time>2024-04-14T10:37:11Z</time>
      </trkpt>
      <trkpt lat="47.94992" lon="-0.44355">
        <ele>66.4</ele>
        <time>2024-04-14T10:37:12Z</time>
      </trkpt>
      <trkpt lat="47.94996" lon="-0.44359">
        <ele>67.6</ele>
        <time>2024-04-14T10:37:13Z</time>
      </trkpt>
      <trkpt lat="47.95001" lon="-0.44363">
        <ele>67.6</ele>
        <time>2024-04-14T10:37:14Z</time>
      </trkpt>
      <trkpt lat="47.95005" lon="-0.44367">
        <ele>67.6</ele>
        <time>2024-04-14T10:37:15Z</time>
      </trkpt>
      <trkpt lat="47.95009" lon="-0.44371">
        <ele>67.6</ele>
        <time>2024-04-14T10:37:16Z</time>
      </trkpt>
      <trkpt lat="47.95013" lon="-0.44375">
        <ele>68.8</ele>
        <time>2024-04-14T10:37:17Z</time>
      </trkpt>
      <trkpt lat="47.95017" lon="-0.44379">
        <ele>68.8</ele>
        <time>2024-04-14T10:37:18Z</time>
      </trkpt>
      <trkpt lat="47.95021" lon="-0.44382">
        <ele>68.8</ele>
        <time>2024-04-14T10:37:19Z</time>
      </trkpt>
      <trkpt lat="47.95025" lon="-0.44386">
        <ele>67.8</ele>
        <time>2024-04-14T10:37:20Z</time>
      </trkpt>
      <trkpt lat="47.95029" lon="-0.4439">
        <ele>68.6</ele>
        <time>2024-04-14T10:37:21Z</time>
      </trkpt>
      <trkpt lat="47.95033" lon="-0.44394">
        <ele>68.6</ele>
        <time>2024-04-14T10:37:22Z</time>
      </trkpt>
      <trkpt lat="47.95037" lon="-0.44398">
        <ele>68.6</ele>
        <time>2024-04-14T10:37:23Z</time>
      </trkpt>
      <trkpt lat="47.95041" lon="-0.44402">
        <ele>68.6</ele>
        <time>2024-04-14T10:37:24Z</time>
      </trkpt>
      <trkpt lat="47.95044" lon="-0.44406">
        <ele>69.2</ele>
        <time>2024-04-14T10:37:25Z</time>
      </trkpt>
      <trkpt lat="47.95047" lon="-0.44411">
        <ele>69.2</ele>
        <time>2024-04-14T10:37:26Z</time>
      </trkpt>
      <trkpt lat="47.9505" lon="-0.44416">
        <ele>69.2</ele>
        <time>2024-04-14T10:37:27Z</time>
      </trkpt>
      <trkpt lat="47.95052" lon="-0.44421">
        <ele>69.4</ele>
        <time>2024-04-14T10:37:28Z</time>
      </trkpt>
      <trkpt lat="47.95054" lon="-0.44426">
        <ele>70.2</ele>
        <time>2024-04-14T10:37:29Z</time>
      </trkpt>
      <trkpt lat="47.95056" lon="-0.44432">
        <ele>70.2</ele>
        <time>2024-04-14T10:37:30Z</time>
      </trkpt>
      <trkpt lat="47.95058" lon="-0.44437">
        <ele>70.2</ele>
        <time>2024-04-14T10:37:31Z</time>
      </trkpt>
      <trkpt lat="47.95059" lon="-0.44442">
        <ele>70.2</ele>
        <time>2024-04-14T10:37:32Z</time>
      </trkpt>
      <trkpt lat="47.95061" lon="-0.44447">
        <ele>70.4</ele>
        <time>2024-04-14T10:37:33Z</time>
      </trkpt>
      <trkpt lat="47.95062" lon="-0.44452">
        <ele>70.4</ele>
        <time>2024-04-14T10:37:34Z</time>
      </trkpt>
      <trkpt lat="47.95064" lon="-0.44457">
        <ele>70.4</ele>
        <time>2024-04-14T10:37:35Z</time>
      </trkpt>
      <trkpt lat="47.95065" lon="-0.44463">
        <ele>70.6</ele>
        <time>2024-04-14T10:37:36Z</time>
      </trkpt>
      <trkpt lat="47.95067" lon="-0.44468">
        <ele>70.8</ele>
        <time>2024-04-14T10:37:37Z</time>
      </trkpt>
      <trkpt lat="47.95069" lon="-0.44473">
        <ele>70.8</ele>
        <time>2024-04-14T10:37:38Z</time>
      </trkpt>
      <trkpt lat="47.95071" lon="-0.44479">
        <ele>70.8</ele>
        <time>2024-04-14T10:37:39Z</time>
      </trkpt>
      <trkpt lat="47.95072" lon="-0.44485">
        <ele>69.8</ele>
        <time>2024-04-14T10:37:40Z</time>
      </trkpt>
      <trkpt lat="47.95074" lon="-0.4449">
        <ele>70</ele>
        <time>2024-04-14T10:37:41Z</time>
      </trkpt>
      <trkpt lat="47.95076" lon="-0.44496">
        <ele>70</ele>
        <time>2024-04-14T10:37:42Z</time>
      </trkpt>
      <trkpt lat="47.95077" lon="-0.44503">
        <ele>70</ele>
        <time>2024-04-14T10:37:43Z</time>
      </trkpt>
      <trkpt lat="47.95079" lon="-0.44509">
        <ele>70.6</ele>
        <time>2024-04-14T10:37:44Z</time>
      </trkpt>
      <trkpt lat="47.95081" lon="-0.44515">
        <ele>70.2</ele>
        <time>2024-04-14T10:37:45Z</time>
      </trkpt>
      <trkpt lat="47.95083" lon="-0.44521">
        <ele>70.2</ele>
        <time>2024-04-14T10:37:46Z</time>
      </trkpt>
      <trkpt lat="47.95085" lon="-0.44527">
        <ele>70.2</ele>
        <time>2024-04-14T10:37:47Z</time>
      </trkpt>
      <trkpt lat="47.95087" lon="-0.44533">
        <ele>70.8</ele>
        <time>2024-04-14T10:37:48Z</time>
      </trkpt>
      <trkpt lat="47.95089" lon="-0.44539">
        <ele>70.8</ele>
        <time>2024-04-14T10:37:49Z</time>
      </trkpt>
      <trkpt lat="47.95091" lon="-0.44546">
        <ele>70.8</ele>
        <time>2024-04-14T10:37:50Z</time>
      </trkpt>
      <trkpt lat="47.95092" lon="-0.44553">
        <ele>70.8</ele>
        <time>2024-04-14T10:37:51Z</time>
      </trkpt>
      <trkpt lat="47.95094" lon="-0.44559">
        <ele>70.8</ele>
        <time>2024-04-14T10:37:52Z</time>
      </trkpt>
      <trkpt lat="47.95096" lon="-0.44566">
        <ele>70.6</ele>
        <time>2024-04-14T10:37:53Z</time>
      </trkpt>
      <trkpt lat="47.95098" lon="-0.44573">
        <ele>70.6</ele>
        <time>2024-04-14T10:37:54Z</time>
      </trkpt>
      <trkpt lat="47.95101" lon="-0.4458">
        <ele>70.6</ele>
        <time>2024-04-14T10:37:55Z</time>
      </trkpt>
      <trkpt lat="47.95103" lon="-0.44587">
        <ele>69.8</ele>
        <time>2024-04-14T10:37:56Z</time>
      </trkpt>
      <trkpt lat="47.95104" lon="-0.44594">
        <ele>70.4</ele>
        <time>2024-04-14T10:37:57Z</time>
      </trkpt>
      <trkpt lat="47.95106" lon="-0.44601">
        <ele>70.4</ele>
        <time>2024-04-14T10:37:58Z</time>
      </trkpt>
      <trkpt lat="47.95109" lon="-0.44608">
        <ele>70.4</ele>
        <time>2024-04-14T10:37:59Z</time>
      </trkpt>
      <trkpt lat="47.95111" lon="-0.44615">
        <ele>70.6</ele>
        <time>2024-04-14T10:38:00Z</time>
      </trkpt>
      <trkpt lat="47.95113" lon="-0.44623">
        <ele>69.6</ele>
        <time>2024-04-14T10:38:01Z</time>
      </trkpt>
      <trkpt lat="47.95115" lon="-0.4463">
        <ele>69.6</ele>
        <time>2024-04-14T10:38:02Z</time>
      </trkpt>
      <trkpt lat="47.95117" lon="-0.44637">
        <ele>69.6</ele>
        <time>2024-04-14T10:38:03Z</time>
      </trkpt>
      <trkpt lat="47.95119" lon="-0.44645">
        <ele>69.6</ele>
        <time>2024-04-14T10:38:04Z</time>
      </trkpt>
      <trkpt lat="47.95121" lon="-0.44652">
        <ele>70</ele>
        <time>2024-04-14T10:38:05Z</time>
      </trkpt>
      <trkpt lat="47.95123" lon="-0.44659">
        <ele>70</ele>
        <time>2024-04-14T10:38:06Z</time>
      </trkpt>
      <trkpt lat="47.95125" lon="-0.44667">
        <ele>70</ele>
        <time>2024-04-14T10:38:07Z</time>
      </trkpt>
      <trkpt lat="47.95128" lon="-0.44675">
        <ele>70</ele>
        <time>2024-04-14T10:38:08Z</time>
      </trkpt>
      <trkpt lat="47.9513" lon="-0.44682">
        <ele>69.4</ele>
        <time>2024-04-14T10:38:09Z</time>
      </trkpt>
      <trkpt lat="47.95132" lon="-0.4469">
        <ele>69.4</ele>
        <time>2024-04-14T10:38:10Z</time>
      </trkpt>
      <trkpt lat="47.95134" lon="-0.44698">
        <ele>69.4</ele>
        <time>2024-04-14T10:38:11Z</time>
      </trkpt>
      <trkpt lat="47.95136" lon="-0.44705">
        <ele>69.4</ele>
        <time>2024-04-14T10:38:12Z</time>
      </trkpt>
      <trkpt lat="47.95139" lon="-0.44712">
        <ele>68.8</ele>
        <time>2024-04-14T10:38:13Z</time>
      </trkpt>
      <trkpt lat="47.95141" lon="-0.44719">
        <ele>68.8</ele>
        <time>2024-04-14T10:38:14Z</time>
      </trkpt>
      <trkpt lat="47.95143" lon="-0.44727">
        <ele>68.8</ele>
        <time>2024-04-14T10:38:15Z</time>
      </trkpt>
      <trkpt lat="47.95145" lon="-0.44734">
        <ele>69</ele>
        <time>2024-04-14T10:38:16Z</time>
      </trkpt>
      <trkpt lat="47.95147" lon="-0.44741">
        <ele>69</ele>
        <time>2024-04-14T10:38:17Z</time>
      </trkpt>
      <trkpt lat="47.95149" lon="-0.44748">
        <ele>69</ele>
        <time>2024-04-14T10:38:18Z</time>
      </trkpt>
      <trkpt lat="47.95151" lon="-0.44755">
        <ele>69</ele>
        <time>2024-04-14T10:38:19Z</time>
      </trkpt>
      <trkpt lat="47.95153" lon="-0.44762">
        <ele>69.4</ele>
        <time>2024-04-14T10:38:20Z</time>
      </trkpt>
      <trkpt lat="47.95155" lon="-0.44768">
        <ele>70.8</ele>
        <time>2024-04-14T10:38:21Z</time>
      </trkpt>
      <trkpt lat="47.95157" lon="-0.44775">
        <ele>70.8</ele>
        <time>2024-04-14T10:38:22Z</time>
      </trkpt>
      <trkpt lat="47.95159" lon="-0.44782">
        <ele>70.8</ele>
        <time>2024-04-14T10:38:23Z</time>
      </trkpt>
      <trkpt lat="47.95161" lon="-0.44789">
        <ele>70.6</ele>
        <time>2024-04-14T10:38:24Z</time>
      </trkpt>
      <trkpt lat="47.95162" lon="-0.44796">
        <ele>71.2</ele>
        <time>2024-04-14T10:38:25Z</time>
      </trkpt>
      <trkpt lat="47.95164" lon="-0.44803">
        <ele>71.2</ele>
        <time>2024-04-14T10:38:26Z</time>
      </trkpt>
      <trkpt lat="47.95165" lon="-0.44811">
        <ele>71.2</ele>
        <time>2024-04-14T10:38:27Z</time>
      </trkpt>
      <trkpt lat="47.95166" lon="-0.44818">
        <ele>71.8</ele>
        <time>2024-04-14T10:38:28Z</time>
      </trkpt>
      <trkpt lat="47.95166" lon="-0.44826">
        <ele>72</ele>
        <time>2024-04-14T10:38:29Z</time>
      </trkpt>
      <trkpt lat="47.95165" lon="-0.44834">
        <ele>72</ele>
        <time>2024-04-14T10:38:30Z</time>
      </trkpt>
      <trkpt lat="47.95163" lon="-0.44841">
        <ele>72</ele>
        <time>2024-04-14T10:38:31Z</time>
      </trkpt>
      <trkpt lat="47.95161" lon="-0.44848">
        <ele>72</ele>
        <time>2024-04-14T10:38:32Z</time>
      </trkpt>
      <trkpt lat="47.95157" lon="-0.44855">
        <ele>71.8</ele>
        <time>2024-04-14T10:38:33Z</time>
      </trkpt>
      <trkpt lat="47.95154" lon="-0.44861">
        <ele>71.8</ele>
        <time>2024-04-14T10:38:34Z</time>
      </trkpt>
      <trkpt lat="47.9515" lon="-0.44867">
        <ele>71.8</ele>
        <time>2024-04-14T10:38:35Z</time>
      </trkpt>
      <trkpt lat="47.95146" lon="-0.44873">
        <ele>71.4</ele>
        <time>2024-04-14T10:38:36Z</time>
      </trkpt>
      <trkpt lat="47.95142" lon="-0.44878">
        <ele>71.6</ele>
        <time>2024-04-14T10:38:37Z</time>
      </trkpt>
      <trkpt lat="47.95137" lon="-0.44884">
        <ele>71.6</ele>
        <time>2024-04-14T10:38:38Z</time>
      </trkpt>
      <trkpt lat="47.95133" lon="-0.4489">
        <ele>71.6</ele>
        <time>2024-04-14T10:38:39Z</time>
      </trkpt>
      <trkpt lat="47.95129" lon="-0.44895">
        <ele>70.6</ele>
        <time>2024-04-14T10:38:40Z</time>
      </trkpt>
      <trkpt lat="47.95124" lon="-0.44901">
        <ele>71.2</ele>
        <time>2024-04-14T10:38:41Z</time>
      </trkpt>
      <trkpt lat="47.9512" lon="-0.44907">
        <ele>71.2</ele>
        <time>2024-04-14T10:38:42Z</time>
      </trkpt>
      <trkpt lat="47.95115" lon="-0.44912">
        <ele>71.2</ele>
        <time>2024-04-14T10:38:43Z</time>
      </trkpt>
      <trkpt lat="47.95111" lon="-0.44918">
        <ele>70.2</ele>
        <time>2024-04-14T10:38:44Z</time>
      </trkpt>
      <trkpt lat="47.95107" lon="-0.44924">
        <ele>70.4</ele>
        <time>2024-04-14T10:38:45Z</time>
      </trkpt>
      <trkpt lat="47.95102" lon="-0.4493">
        <ele>70.4</ele>
        <time>2024-04-14T10:38:46Z</time>
      </trkpt>
      <trkpt lat="47.95098" lon="-0.44935">
        <ele>70.4</ele>
        <time>2024-04-14T10:38:47Z</time>
      </trkpt>
      <trkpt lat="47.95093" lon="-0.4494">
        <ele>69.6</ele>
        <time>2024-04-14T10:38:48Z</time>
      </trkpt>
      <trkpt lat="47.95088" lon="-0.44944">
        <ele>69.6</ele>
        <time>2024-04-14T10:38:49Z</time>
      </trkpt>
      <trkpt lat="47.95083" lon="-0.44948">
        <ele>69.6</ele>
        <time>2024-04-14T10:38:50Z</time>
      </trkpt>
      <trkpt lat="47.95078" lon="-0.44952">
        <ele>69.6</ele>
        <time>2024-04-14T10:38:51Z</time>
      </trkpt>
      <trkpt lat="47.95073" lon="-0.44957">
        <ele>69.8</ele>
        <time>2024-04-14T10:38:52Z</time>
      </trkpt>
      <trkpt lat="47.95069" lon="-0.44963">
        <ele>69.6</ele>
        <time>2024-04-14T10:38:53Z</time>
      </trkpt>
      <trkpt lat="47.95067" lon="-0.4497">
        <ele>69.6</ele>
        <time>2024-04-14T10:38:54Z</time>
      </trkpt>
      <trkpt lat="47.95067" lon="-0.44978">
        <ele>69.6</ele>
        <time>2024-04-14T10:38:55Z</time>
      </trkpt>
      <trkpt lat="47.95069" lon="-0.44985">
        <ele>70.2</ele>
        <time>2024-04-14T10:38:56Z</time>
      </trkpt>
      <trkpt lat="47.95072" lon="-0.4499">
        <ele>70</ele>
        <time>2024-04-14T10:38:57Z</time>
      </trkpt>
      <trkpt lat="47.95076" lon="-0.44991">
        <ele>70</ele>
        <time>2024-04-14T10:38:58Z</time>
      </trkpt>
      <trkpt lat="47.95081" lon="-0.4499">
        <ele>70</ele>
        <time>2024-04-14T10:38:59Z</time>
      </trkpt>
      <trkpt lat="47.95084" lon="-0.44988">
        <ele>71</ele>
        <time>2024-04-14T10:39:00Z</time>
      </trkpt>
      <trkpt lat="47.95087" lon="-0.44985">
        <ele>71.8</ele>
        <time>2024-04-14T10:39:01Z</time>
      </trkpt>
      <trkpt lat="47.9509" lon="-0.44981">
        <ele>71.8</ele>
        <time>2024-04-14T10:39:02Z</time>
      </trkpt>
      <trkpt lat="47.95094" lon="-0.44978">
        <ele>71.8</ele>
        <time>2024-04-14T10:39:03Z</time>
      </trkpt>
      <trkpt lat="47.95097" lon="-0.44975">
        <ele>72.8</ele>
        <time>2024-04-14T10:39:04Z</time>
      </trkpt>
      <trkpt lat="47.951" lon="-0.44972">
        <ele>73.4</ele>
        <time>2024-04-14T10:39:05Z</time>
      </trkpt>
      <trkpt lat="47.95104" lon="-0.44969">
        <ele>73.4</ele>
        <time>2024-04-14T10:39:06Z</time>
      </trkpt>
      <trkpt lat="47.95107" lon="-0.44966">
        <ele>73.4</ele>
        <time>2024-04-14T10:39:07Z</time>
      </trkpt>
      <trkpt lat="47.9511" lon="-0.44962">
        <ele>73.4</ele>
        <time>2024-04-14T10:39:08Z</time>
      </trkpt>
      <trkpt lat="47.95113" lon="-0.44959">
        <ele>75.2</ele>
        <time>2024-04-14T10:39:09Z</time>
      </trkpt>
      <trkpt lat="47.95116" lon="-0.44955">
        <ele>75.2</ele>
        <time>2024-04-14T10:39:10Z</time>
      </trkpt>
      <trkpt lat="47.95119" lon="-0.44952">
        <ele>75.2</ele>
        <time>2024-04-14T10:39:11Z</time>
      </trkpt>
      <trkpt lat="47.95122" lon="-0.44949">
        <ele>75.2</ele>
        <time>2024-04-14T10:39:12Z</time>
      </trkpt>
      <trkpt lat="47.95125" lon="-0.44947">
        <ele>76.2</ele>
        <time>2024-04-14T10:39:13Z</time>
      </trkpt>
      <trkpt lat="47.95128" lon="-0.44944">
        <ele>76.2</ele>
        <time>2024-04-14T10:39:14Z</time>
      </trkpt>
      <trkpt lat="47.95131" lon="-0.44941">
        <ele>76.2</ele>
        <time>2024-04-14T10:39:15Z</time>
      </trkpt>
      <trkpt lat="47.95134" lon="-0.44938">
        <ele>77.2</ele>
        <time>2024-04-14T10:39:16Z</time>
      </trkpt>
      <trkpt lat="47.95137" lon="-0.44935">
        <ele>77.8</ele>
        <time>2024-04-14T10:39:17Z</time>
      </trkpt>
      <trkpt lat="47.95141" lon="-0.44933">
        <ele>77.8</ele>
        <time>2024-04-14T10:39:18Z</time>
      </trkpt>
      <trkpt lat="47.95144" lon="-0.4493">
        <ele>77.8</ele>
        <time>2024-04-14T10:39:19Z</time>
      </trkpt>
      <trkpt lat="47.95147" lon="-0.44927">
        <ele>78.4</ele>
        <time>2024-04-14T10:39:20Z</time>
      </trkpt>
      <trkpt lat="47.95151" lon="-0.44925">
        <ele>78.4</ele>
        <time>2024-04-14T10:39:21Z</time>
      </trkpt>
      <trkpt lat="47.95154" lon="-0.44922">
        <ele>78.4</ele>
        <time>2024-04-14T10:39:22Z</time>
      </trkpt>
      <trkpt lat="47.95157" lon="-0.4492">
        <ele>78.4</ele>
        <time>2024-04-14T10:39:23Z</time>
      </trkpt>
      <trkpt lat="47.9516" lon="-0.44918">
        <ele>79.4</ele>
        <time>2024-04-14T10:39:24Z</time>
      </trkpt>
      <trkpt lat="47.95163" lon="-0.44916">
        <ele>79.4</ele>
        <time>2024-04-14T10:39:25Z</time>
      </trkpt>
      <trkpt lat="47.95166" lon="-0.44913">
        <ele>79.4</ele>
        <time>2024-04-14T10:39:26Z</time>
      </trkpt>
      <trkpt lat="47.95169" lon="-0.44911">
        <ele>79.4</ele>
        <time>2024-04-14T10:39:27Z</time>
      </trkpt>
      <trkpt lat="47.95171" lon="-0.44908">
        <ele>79.4</ele>
        <time>2024-04-14T10:39:28Z</time>
      </trkpt>
      <trkpt lat="47.95174" lon="-0.44906">
        <ele>80.2</ele>
        <time>2024-04-14T10:39:29Z</time>
      </trkpt>
      <trkpt lat="47.95177" lon="-0.44904">
        <ele>80.2</ele>
        <time>2024-04-14T10:39:30Z</time>
      </trkpt>
      <trkpt lat="47.9518" lon="-0.44902">
        <ele>80.2</ele>
        <time>2024-04-14T10:39:31Z</time>
      </trkpt>
      <trkpt lat="47.95183" lon="-0.44899">
        <ele>80.2</ele>
        <time>2024-04-14T10:39:32Z</time>
      </trkpt>
      <trkpt lat="47.95186" lon="-0.44897">
        <ele>80.2</ele>
        <time>2024-04-14T10:39:33Z</time>
      </trkpt>
      <trkpt lat="47.95189" lon="-0.44895">
        <ele>80.2</ele>
        <time>2024-04-14T10:39:34Z</time>
      </trkpt>
      <trkpt lat="47.95192" lon="-0.44893">
        <ele>80.2</ele>
        <time>2024-04-14T10:39:35Z</time>
      </trkpt>
      <trkpt lat="47.95195" lon="-0.4489">
        <ele>81</ele>
        <time>2024-04-14T10:39:36Z</time>
      </trkpt>
      <trkpt lat="47.95198" lon="-0.44888">
        <ele>81.2</ele>
        <time>2024-04-14T10:39:37Z</time>
      </trkpt>
      <trkpt lat="47.95201" lon="-0.44885">
        <ele>81.2</ele>
        <time>2024-04-14T10:39:38Z</time>
      </trkpt>
      <trkpt lat="47.95204" lon="-0.44883">
        <ele>81.2</ele>
        <time>2024-04-14T10:39:39Z</time>
      </trkpt>
      <trkpt lat="47.95207" lon="-0.44881">
        <ele>81.2</ele>
        <time>2024-04-14T10:39:40Z</time>
      </trkpt>
      <trkpt lat="47.95211" lon="-0.44878">
        <ele>81.2</ele>
        <time>2024-04-14T10:39:41Z</time>
      </trkpt>
      <trkpt lat="47.95214" lon="-0.44876">
        <ele>81.2</ele>
        <time>2024-04-14T10:39:42Z</time>
      </trkpt>
      <trkpt lat="47.95217" lon="-0.44873">
        <ele>81.2</ele>
        <time>2024-04-14T10:39:43Z</time>
      </trkpt>
      <trkpt lat="47.9522" lon="-0.4487">
        <ele>81.2</ele>
        <time>2024-04-14T10:39:44Z</time>
      </trkpt>
      <trkpt lat="47.95223" lon="-0.44867">
        <ele>80.8</ele>
        <time>2024-04-14T10:39:45Z</time>
      </trkpt>
      <trkpt lat="47.95227" lon="-0.44864">
        <ele>80.8</ele>
        <time>2024-04-14T10:39:46Z</time>
      </trkpt>
      <trkpt lat="47.9523" lon="-0.44862">
        <ele>80.8</ele>
        <time>2024-04-14T10:39:47Z</time>
      </trkpt>
      <trkpt lat="47.95233" lon="-0.44859">
        <ele>80.8</ele>
        <time>2024-04-14T10:39:48Z</time>
      </trkpt>
      <trkpt lat="47.95237" lon="-0.44856">
        <ele>81</ele>
        <time>2024-04-14T10:39:49Z</time>
      </trkpt>
      <trkpt lat="47.95241" lon="-0.44853">
        <ele>81</ele>
        <time>2024-04-14T10:39:50Z</time>
      </trkpt>
      <trkpt lat="47.95244" lon="-0.4485">
        <ele>81</ele>
        <time>2024-04-14T10:39:51Z</time>
      </trkpt>
      <trkpt lat="47.95248" lon="-0.44846">
        <ele>81</ele>
        <time>2024-04-14T10:39:52Z</time>
      </trkpt>
      <trkpt lat="47.95251" lon="-0.44843">
        <ele>81.2</ele>
        <time>2024-04-14T10:39:53Z</time>
      </trkpt>
      <trkpt lat="47.95255" lon="-0.44839">
        <ele>81.2</ele>
        <time>2024-04-14T10:39:54Z</time>
      </trkpt>
      <trkpt lat="47.95259" lon="-0.44835">
        <ele>81.2</ele>
        <time>2024-04-14T10:39:55Z</time>
      </trkpt>
      <trkpt lat="47.95263" lon="-0.44831">
        <ele>81.2</ele>
        <time>2024-04-14T10:39:56Z</time>
      </trkpt>
      <trkpt lat="47.95267" lon="-0.44826">
        <ele>80.6</ele>
        <time>2024-04-14T10:39:57Z</time>
      </trkpt>
      <trkpt lat="47.95271" lon="-0.44821">
        <ele>80.6</ele>
        <time>2024-04-14T10:39:58Z</time>
      </trkpt>
      <trkpt lat="47.95275" lon="-0.44816">
        <ele>80.6</ele>
        <time>2024-04-14T10:39:59Z</time>
      </trkpt>
      <trkpt lat="47.9528" lon="-0.44811">
        <ele>80.6</ele>
        <time>2024-04-14T10:40:00Z</time>
      </trkpt>
      <trkpt lat="47.95284" lon="-0.44805">
        <ele>79.2</ele>
        <time>2024-04-14T10:40:01Z</time>
      </trkpt>
      <trkpt lat="47.95288" lon="-0.44798">
        <ele>79.2</ele>
        <time>2024-04-14T10:40:02Z</time>
      </trkpt>
      <trkpt lat="47.95293" lon="-0.44792">
        <ele>79.2</ele>
        <time>2024-04-14T10:40:03Z</time>
      </trkpt>
      <trkpt lat="47.95298" lon="-0.44785">
        <ele>78.2</ele>
        <time>2024-04-14T10:40:04Z</time>
      </trkpt>
      <trkpt lat="47.95302" lon="-0.44778">
        <ele>78.2</ele>
        <time>2024-04-14T10:40:05Z</time>
      </trkpt>
      <trkpt lat="47.95307" lon="-0.4477">
        <ele>78.2</ele>
        <time>2024-04-14T10:40:06Z</time>
      </trkpt>
      <trkpt lat="47.95312" lon="-0.44763">
        <ele>78.2</ele>
        <time>2024-04-14T10:40:07Z</time>
      </trkpt>
      <trkpt lat="47.95317" lon="-0.44756">
        <ele>77.2</ele>
        <time>2024-04-14T10:40:08Z</time>
      </trkpt>
      <trkpt lat="47.95322" lon="-0.44749">
        <ele>76.4</ele>
        <time>2024-04-14T10:40:09Z</time>
      </trkpt>
      <trkpt lat="47.95327" lon="-0.44741">
        <ele>76.4</ele>
        <time>2024-04-14T10:40:10Z</time>
      </trkpt>
      <trkpt lat="47.95332" lon="-0.44734">
        <ele>76.4</ele>
        <time>2024-04-14T10:40:11Z</time>
      </trkpt>
      <trkpt lat="47.95338" lon="-0.44726">
        <ele>75.6</ele>
        <time>2024-04-14T10:40:12Z</time>
      </trkpt>
      <trkpt lat="47.95343" lon="-0.44719">
        <ele>76.2</ele>
        <time>2024-04-14T10:40:13Z</time>
      </trkpt>
      <trkpt lat="47.95347" lon="-0.44712">
        <ele>76.2</ele>
        <time>2024-04-14T10:40:14Z</time>
      </trkpt>
      <trkpt lat="47.95352" lon="-0.44705">
        <ele>76.2</ele>
        <time>2024-04-14T10:40:15Z</time>
      </trkpt>
      <trkpt lat="47.95357" lon="-0.44699">
        <ele>76.2</ele>
        <time>2024-04-14T10:40:16Z</time>
      </trkpt>
      <trkpt lat="47.95361" lon="-0.44692">
        <ele>76.6</ele>
        <time>2024-04-14T10:40:17Z</time>
      </trkpt>
      <trkpt lat="47.95365" lon="-0.44686">
        <ele>76.6</ele>
        <time>2024-04-14T10:40:18Z</time>
      </trkpt>
      <trkpt lat="47.95369" lon="-0.4468">
        <ele>76.6</ele>
        <time>2024-04-14T10:40:19Z</time>
      </trkpt>
      <trkpt lat="47.95374" lon="-0.44673">
        <ele>76.6</ele>
        <time>2024-04-14T10:40:20Z</time>
      </trkpt>
      <trkpt lat="47.95378" lon="-0.44667">
        <ele>77.4</ele>
        <time>2024-04-14T10:40:21Z</time>
      </trkpt>
      <trkpt lat="47.95382" lon="-0.44661">
        <ele>77.4</ele>
        <time>2024-04-14T10:40:22Z</time>
      </trkpt>
      <trkpt lat="47.95386" lon="-0.44655">
        <ele>77.4</ele>
        <time>2024-04-14T10:40:23Z</time>
      </trkpt>
      <trkpt lat="47.9539" lon="-0.44649">
        <ele>76.6</ele>
        <time>2024-04-14T10:40:24Z</time>
      </trkpt>
      <trkpt lat="47.95394" lon="-0.44643">
        <ele>77.4</ele>
        <time>2024-04-14T10:40:25Z</time>
      </trkpt>
      <trkpt lat="47.95398" lon="-0.44637">
        <ele>77.4</ele>
        <time>2024-04-14T10:40:26Z</time>
      </trkpt>
      <trkpt lat="47.95403" lon="-0.44631">
        <ele>77.4</ele>
        <time>2024-04-14T10:40:27Z</time>
      </trkpt>
      <trkpt lat="47.95407" lon="-0.44625">
        <ele>77.8</ele>
        <time>2024-04-14T10:40:28Z</time>
      </trkpt>
      <trkpt lat="47.95411" lon="-0.4462">
        <ele>78</ele>
        <time>2024-04-14T10:40:29Z</time>
      </trkpt>
      <trkpt lat="47.95416" lon="-0.44614">
        <ele>78</ele>
        <time>2024-04-14T10:40:30Z</time>
      </trkpt>
      <trkpt lat="47.9542" lon="-0.44609">
        <ele>78</ele>
        <time>2024-04-14T10:40:31Z</time>
      </trkpt>
      <trkpt lat="47.95425" lon="-0.44604">
        <ele>78</ele>
        <time>2024-04-14T10:40:32Z</time>
      </trkpt>
      <trkpt lat="47.9543" lon="-0.446">
        <ele>77.8</ele>
        <time>2024-04-14T10:40:33Z</time>
      </trkpt>
      <trkpt lat="47.95435" lon="-0.44595">
        <ele>77.8</ele>
        <time>2024-04-14T10:40:34Z</time>
      </trkpt>
      <trkpt lat="47.9544" lon="-0.44591">
        <ele>77.8</ele>
        <time>2024-04-14T10:40:35Z</time>
      </trkpt>
      <trkpt lat="47.95446" lon="-0.44587">
        <ele>77.8</ele>
        <time>2024-04-14T10:40:36Z</time>
      </trkpt>
      <trkpt lat="47.95451" lon="-0.44583">
        <ele>76.2</ele>
        <time>2024-04-14T10:40:37Z</time>
      </trkpt>
      <trkpt lat="47.95457" lon="-0.44579">
        <ele>76.2</ele>
        <time>2024-04-14T10:40:38Z</time>
      </trkpt>
      <trkpt lat="47.95463" lon="-0.44575">
        <ele>76.2</ele>
        <time>2024-04-14T10:40:39Z</time>
      </trkpt>
      <trkpt lat="47.95468" lon="-0.4457">
        <ele>75.2</ele>
        <time>2024-04-14T10:40:40Z</time>
      </trkpt>
      <trkpt lat="47.95474" lon="-0.44566">
        <ele>76</ele>
        <time>2024-04-14T10:40:41Z</time>
      </trkpt>
      <trkpt lat="47.9548" lon="-0.44562">
        <ele>76</ele>
        <time>2024-04-14T10:40:42Z</time>
      </trkpt>
      <trkpt lat="47.95486" lon="-0.44558">
        <ele>76</ele>
        <time>2024-04-14T10:40:43Z</time>
      </trkpt>
      <trkpt lat="47.95491" lon="-0.44554">
        <ele>75</ele>
        <time>2024-04-14T10:40:44Z</time>
      </trkpt>
      <trkpt lat="47.95497" lon="-0.4455">
        <ele>75.4</ele>
        <time>2024-04-14T10:40:45Z</time>
      </trkpt>
      <trkpt lat="47.95503" lon="-0.44546">
        <ele>75.4</ele>
        <time>2024-04-14T10:40:46Z</time>
      </trkpt>
      <trkpt lat="47.95509" lon="-0.44542">
        <ele>75.4</ele>
        <time>2024-04-14T10:40:47Z</time>
      </trkpt>
      <trkpt lat="47.95514" lon="-0.44539">
        <ele>74.8</ele>
        <time>2024-04-14T10:40:48Z</time>
      </trkpt>
      <trkpt lat="47.95519" lon="-0.44536">
        <ele>75.2</ele>
        <time>2024-04-14T10:40:49Z</time>
      </trkpt>
      <trkpt lat="47.95522" lon="-0.44533">
        <ele>75.2</ele>
        <time>2024-04-14T10:40:50Z</time>
      </trkpt>
      <trkpt lat="47.95524" lon="-0.44528">
        <ele>75.2</ele>
        <time>2024-04-14T10:40:51Z</time>
      </trkpt>
      <trkpt lat="47.95524" lon="-0.44524">
        <ele>76.2</ele>
        <time>2024-04-14T10:40:52Z</time>
      </trkpt>
      <trkpt lat="47.95523" lon="-0.4452">
        <ele>75.4</ele>
        <time>2024-04-14T10:40:53Z</time>
      </trkpt>
      <trkpt lat="47.95522" lon="-0.44516">
        <ele>75.4</ele>
        <time>2024-04-14T10:40:54Z</time>
      </trkpt>
      <trkpt lat="47.95522" lon="-0.4451">
        <ele>75.4</ele>
        <time>2024-04-14T10:40:55Z</time>
      </trkpt>
      <trkpt lat="47.95522" lon="-0.44505">
        <ele>75.4</ele>
        <time>2024-04-14T10:40:56Z</time>
      </trkpt>
      <trkpt lat="47.95521" lon="-0.445">
        <ele>74.4</ele>
        <time>2024-04-14T10:40:57Z</time>
      </trkpt>
      <trkpt lat="47.9552" lon="-0.44495">
        <ele>74.4</ele>
        <time>2024-04-14T10:40:58Z</time>
      </trkpt>
      <trkpt lat="47.9552" lon="-0.44491">
        <ele>74.4</ele>
        <time>2024-04-14T10:40:59Z</time>
      </trkpt>
      <trkpt lat="47.9552" lon="-0.44486">
        <ele>74.4</ele>
        <time>2024-04-14T10:41:00Z</time>
      </trkpt>
      <trkpt lat="47.95519" lon="-0.44481">
        <ele>74.8</ele>
        <time>2024-04-14T10:41:01Z</time>
      </trkpt>
      <trkpt lat="47.95519" lon="-0.44477">
        <ele>74.8</ele>
        <time>2024-04-14T10:41:02Z</time>
      </trkpt>
      <trkpt lat="47.95518" lon="-0.44473">
        <ele>74.8</ele>
        <time>2024-04-14T10:41:03Z</time>
      </trkpt>
      <trkpt lat="47.95518" lon="-0.44469">
        <ele>74.6</ele>
        <time>2024-04-14T10:41:04Z</time>
      </trkpt>
      <trkpt lat="47.95517" lon="-0.44466">
        <ele>74.4</ele>
        <time>2024-04-14T10:41:05Z</time>
      </trkpt>
      <trkpt lat="47.95517" lon="-0.44461">
        <ele>74.4</ele>
        <time>2024-04-14T10:41:06Z</time>
      </trkpt>
      <trkpt lat="47.95515" lon="-0.44458">
        <ele>74.4</ele>
        <time>2024-04-14T10:41:07Z</time>
      </trkpt>
      <trkpt lat="47.95514" lon="-0.44454">
        <ele>74.4</ele>
        <time>2024-04-14T10:41:08Z</time>
      </trkpt>
      <trkpt lat="47.95512" lon="-0.4445">
        <ele>75.2</ele>
        <time>2024-04-14T10:41:09Z</time>
      </trkpt>
      <trkpt lat="47.95511" lon="-0.44445">
        <ele>75.2</ele>
        <time>2024-04-14T10:41:10Z</time>
      </trkpt>
      <trkpt lat="47.95509" lon="-0.4444">
        <ele>75.2</ele>
        <time>2024-04-14T10:41:11Z</time>
      </trkpt>
      <trkpt lat="47.95508" lon="-0.44435">
        <ele>74.6</ele>
        <time>2024-04-14T10:41:12Z</time>
      </trkpt>
      <trkpt lat="47.95507" lon="-0.44432">
        <ele>72.6</ele>
        <time>2024-04-14T10:41:13Z</time>
      </trkpt>
      <trkpt lat="47.95506" lon="-0.44428">
        <ele>72.6</ele>
        <time>2024-04-14T10:41:14Z</time>
      </trkpt>
      <trkpt lat="47.95505" lon="-0.44424">
        <ele>72.6</ele>
        <time>2024-04-14T10:41:15Z</time>
      </trkpt>
      <trkpt lat="47.95504" lon="-0.4442">
        <ele>72.6</ele>
        <time>2024-04-14T10:41:16Z</time>
      </trkpt>
      <trkpt lat="47.95502" lon="-0.44416">
        <ele>74.4</ele>
        <time>2024-04-14T10:41:17Z</time>
      </trkpt>
      <trkpt lat="47.95501" lon="-0.44412">
        <ele>74.4</ele>
        <time>2024-04-14T10:41:18Z</time>
      </trkpt>
      <trkpt lat="47.95499" lon="-0.44408">
        <ele>74.4</ele>
        <time>2024-04-14T10:41:19Z</time>
      </trkpt>
      <trkpt lat="47.95496" lon="-0.44403">
        <ele>73.4</ele>
        <time>2024-04-14T10:41:20Z</time>
      </trkpt>
      <trkpt lat="47.95495" lon="-0.44398">
        <ele>73.4</ele>
        <time>2024-04-14T10:41:21Z</time>
      </trkpt>
      <trkpt lat="47.95493" lon="-0.44394">
        <ele>73.4</ele>
        <time>2024-04-14T10:41:22Z</time>
      </trkpt>
      <trkpt lat="47.95491" lon="-0.44389">
        <ele>73.4</ele>
        <time>2024-04-14T10:41:23Z</time>
      </trkpt>
      <trkpt lat="47.95489" lon="-0.44384">
        <ele>73.4</ele>
        <time>2024-04-14T10:41:24Z</time>
      </trkpt>
      <trkpt lat="47.95488" lon="-0.44379">
        <ele>71.6</ele>
        <time>2024-04-14T10:41:25Z</time>
      </trkpt>
      <trkpt lat="47.95486" lon="-0.44375">
        <ele>71.6</ele>
        <time>2024-04-14T10:41:26Z</time>
      </trkpt>
      <trkpt lat="47.95484" lon="-0.44371">
        <ele>71.6</ele>
        <time>2024-04-14T10:41:27Z</time>
      </trkpt>
      <trkpt lat="47.95482" lon="-0.44365">
        <ele>71.6</ele>
        <time>2024-04-14T10:41:28Z</time>
      </trkpt>
      <trkpt lat="47.9548" lon="-0.4436">
        <ele>71</ele>
        <time>2024-04-14T10:41:29Z</time>
      </trkpt>
      <trkpt lat="47.95479" lon="-0.44355">
        <ele>71</ele>
        <time>2024-04-14T10:41:30Z</time>
      </trkpt>
      <trkpt lat="47.95477" lon="-0.44351">
        <ele>71</ele>
        <time>2024-04-14T10:41:31Z</time>
      </trkpt>
      <trkpt lat="47.95476" lon="-0.44345">
        <ele>72</ele>
        <time>2024-04-14T10:41:32Z</time>
      </trkpt>
      <trkpt lat="47.95474" lon="-0.44339">
        <ele>73.4</ele>
        <time>2024-04-14T10:41:33Z</time>
      </trkpt>
      <trkpt lat="47.95473" lon="-0.44334">
        <ele>73.4</ele>
        <time>2024-04-14T10:41:34Z</time>
      </trkpt>
      <trkpt lat="47.95471" lon="-0.44328">
        <ele>73.4</ele>
        <time>2024-04-14T10:41:35Z</time>
      </trkpt>
      <trkpt lat="47.9547" lon="-0.44322">
        <ele>73</ele>
        <time>2024-04-14T10:41:36Z</time>
      </trkpt>
      <trkpt lat="47.95469" lon="-0.44315">
        <ele>70.2</ele>
        <time>2024-04-14T10:41:37Z</time>
      </trkpt>
      <trkpt lat="47.95467" lon="-0.44309">
        <ele>70.2</ele>
        <time>2024-04-14T10:41:38Z</time>
      </trkpt>
      <trkpt lat="47.95465" lon="-0.44304">
        <ele>70.2</ele>
        <time>2024-04-14T10:41:39Z</time>
      </trkpt>
      <trkpt lat="47.95463" lon="-0.44297">
        <ele>71.2</ele>
        <time>2024-04-14T10:41:40Z</time>
      </trkpt>
      <trkpt lat="47.95461" lon="-0.44292">
        <ele>73</ele>
        <time>2024-04-14T10:41:41Z</time>
      </trkpt>
      <trkpt lat="47.95459" lon="-0.44286">
        <ele>73</ele>
        <time>2024-04-14T10:41:42Z</time>
      </trkpt>
      <trkpt lat="47.95458" lon="-0.44282">
        <ele>73</ele>
        <time>2024-04-14T10:41:43Z</time>
      </trkpt>
      <trkpt lat="47.95457" lon="-0.44277">
        <ele>72</ele>
        <time>2024-04-14T10:41:44Z</time>
      </trkpt>
      <trkpt lat="47.95455" lon="-0.44273">
        <ele>72.6</ele>
        <time>2024-04-14T10:41:45Z</time>
      </trkpt>
      <trkpt lat="47.95454" lon="-0.4427">
        <ele>72.6</ele>
        <time>2024-04-14T10:41:46Z</time>
      </trkpt>
      <trkpt lat="47.95452" lon="-0.44266">
        <ele>72.6</ele>
        <time>2024-04-14T10:41:47Z</time>
      </trkpt>
      <trkpt lat="47.9545" lon="-0.44263">
        <ele>72.6</ele>
        <time>2024-04-14T10:41:48Z</time>
      </trkpt>
      <trkpt lat="47.95448" lon="-0.4426">
        <ele>71.4</ele>
        <time>2024-04-14T10:41:49Z</time>
      </trkpt>
      <trkpt lat="47.95445" lon="-0.44259">
        <ele>71.4</ele>
        <time>2024-04-14T10:41:50Z</time>
      </trkpt>
      <trkpt lat="47.95443" lon="-0.44258">
        <ele>71.4</ele>
        <time>2024-04-14T10:41:51Z</time>
      </trkpt>
      <trkpt lat="47.95441" lon="-0.44258">
        <ele>72.4</ele>
        <time>2024-04-14T10:41:52Z</time>
      </trkpt>
      <trkpt lat="47.9544" lon="-0.44258">
        <ele>73.4</ele>
        <time>2024-04-14T10:41:53Z</time>
      </trkpt>
      <trkpt lat="47.95438" lon="-0.44257">
        <ele>73.4</ele>
        <time>2024-04-14T10:41:54Z</time>
      </trkpt>
      <trkpt lat="47.95435" lon="-0.44257">
        <ele>73.4</ele>
        <time>2024-04-14T10:41:55Z</time>
      </trkpt>
      <trkpt lat="47.95433" lon="-0.44257">
        <ele>73.4</ele>
        <time>2024-04-14T10:41:56Z</time>
      </trkpt>
      <trkpt lat="47.95431" lon="-0.44257">
        <ele>72.6</ele>
        <time>2024-04-14T10:41:57Z</time>
      </trkpt>
      <trkpt lat="47.9543" lon="-0.44258">
        <ele>72.6</ele>
        <time>2024-04-14T10:41:58Z</time>
      </trkpt>
      <trkpt lat="47.95428" lon="-0.44258">
        <ele>72.6</ele>
        <time>2024-04-14T10:41:59Z</time>
      </trkpt>
      <trkpt lat="47.95426" lon="-0.44259">
        <ele>73</ele>
        <time>2024-04-14T10:42:00Z</time>
      </trkpt>
      <trkpt lat="47.95425" lon="-0.44259">
        <ele>73</ele>
        <time>2024-04-14T10:42:01Z</time>
      </trkpt>
      <trkpt lat="47.95423" lon="-0.4426">
        <ele>73</ele>
        <time>2024-04-14T10:42:02Z</time>
      </trkpt>
      <trkpt lat="47.95421" lon="-0.44261">
        <ele>73</ele>
        <time>2024-04-14T10:42:03Z</time>
      </trkpt>
      <trkpt lat="47.9542" lon="-0.44261">
        <ele>73.4</ele>
        <time>2024-04-14T10:42:04Z</time>
      </trkpt>
      <trkpt lat="47.95418" lon="-0.44262">
        <ele>73.4</ele>
        <time>2024-04-14T10:42:05Z</time>
      </trkpt>
      <trkpt lat="47.95417" lon="-0.44263">
        <ele>73.4</ele>
        <time>2024-04-14T10:42:06Z</time>
      </trkpt>
      <trkpt lat="47.95417" lon="-0.44264">
        <ele>73.4</ele>
        <time>2024-04-14T10:42:07Z</time>
      </trkpt>
      <trkpt lat="47.95417" lon="-0.44264">
        <ele>74.2</ele>
        <time>2024-04-14T10:42:08Z</time>
      </trkpt>
      <trkpt lat="47.95411" lon="-0.44269">
        <ele>73.6</ele>
        <time>2024-04-14T10:42:18Z</time>
      </trkpt>
      <trkpt lat="47.9541" lon="-0.44271">
        <ele>73.6</ele>
        <time>2024-04-14T10:42:19Z</time>
      </trkpt>
      <trkpt lat="47.95409" lon="-0.44272">
        <ele>74.4</ele>
        <time>2024-04-14T10:42:20Z</time>
      </trkpt>
      <trkpt lat="47.95407" lon="-0.44272">
        <ele>74.6</ele>
        <time>2024-04-14T10:42:21Z</time>
      </trkpt>
      <trkpt lat="47.95406" lon="-0.44273">
        <ele>74.6</ele>
        <time>2024-04-14T10:42:22Z</time>
      </trkpt>
      <trkpt lat="47.95405" lon="-0.44274">
        <ele>74.6</ele>
        <time>2024-04-14T10:42:23Z</time>
      </trkpt>
      <trkpt lat="47.95404" lon="-0.44274">
        <ele>74.6</ele>
        <time>2024-04-14T10:42:24Z</time>
      </trkpt>
      <trkpt lat="47.95403" lon="-0.44275">
        <ele>74.4</ele>
        <time>2024-04-14T10:42:25Z</time>
      </trkpt>
      <trkpt lat="47.95403" lon="-0.44276">
        <ele>74.4</ele>
        <time>2024-04-14T10:42:26Z</time>
      </trkpt>
      <trkpt lat="47.95402" lon="-0.44276">
        <ele>74.4</ele>
        <time>2024-04-14T10:42:27Z</time>
      </trkpt>
      <trkpt lat="47.95401" lon="-0.44277">
        <ele>75.2</ele>
        <time>2024-04-14T10:42:28Z</time>
      </trkpt>
      <trkpt lat="47.954" lon="-0.44277">
        <ele>74.4</ele>
        <time>2024-04-14T10:42:29Z</time>
      </trkpt>
      <trkpt lat="47.95399" lon="-0.44278">
        <ele>74.4</ele>
        <time>2024-04-14T10:42:30Z</time>
      </trkpt>
      <trkpt lat="47.95397" lon="-0.44278">
        <ele>74.4</ele>
        <time>2024-04-14T10:42:31Z</time>
      </trkpt>
      <trkpt lat="47.95396" lon="-0.44279">
        <ele>75</ele>
        <time>2024-04-14T10:42:32Z</time>
      </trkpt>
      <trkpt lat="47.95395" lon="-0.4428">
        <ele>75</ele>
        <time>2024-04-14T10:42:33Z</time>
      </trkpt>
      <trkpt lat="47.95394" lon="-0.44281">
        <ele>75</ele>
        <time>2024-04-14T10:42:34Z</time>
      </trkpt>
      <trkpt lat="47.95392" lon="-0.44283">
        <ele>75</ele>
        <time>2024-04-14T10:42:35Z</time>
      </trkpt>
      <trkpt lat="47.95391" lon="-0.44284">
        <ele>75</ele>
        <time>2024-04-14T10:42:36Z</time>
      </trkpt>
      <trkpt lat="47.9539" lon="-0.44285">
        <ele>74.4</ele>
        <time>2024-04-14T10:42:37Z</time>
      </trkpt>
      <trkpt lat="47.95389" lon="-0.44286">
        <ele>74.4</ele>
        <time>2024-04-14T10:42:38Z</time>
      </trkpt>
      <trkpt lat="47.95389" lon="-0.44287">
        <ele>74.4</ele>
        <time>2024-04-14T10:42:39Z</time>
      </trkpt>
      <trkpt lat="47.95388" lon="-0.44288">
        <ele>75</ele>
        <time>2024-04-14T10:42:40Z</time>
      </trkpt>
      <trkpt lat="47.95387" lon="-0.44289">
        <ele>75</ele>
        <time>2024-04-14T10:42:41Z</time>
      </trkpt>
      <trkpt lat="47.95385" lon="-0.44289">
        <ele>75</ele>
        <time>2024-04-14T10:42:42Z</time>
      </trkpt>
      <trkpt lat="47.95384" lon="-0.4429">
        <ele>75</ele>
        <time>2024-04-14T10:42:43Z</time>
      </trkpt>
      <trkpt lat="47.95383" lon="-0.44291">
        <ele>75.6</ele>
        <time>2024-04-14T10:42:44Z</time>
      </trkpt>
      <trkpt lat="47.95381" lon="-0.44291">
        <ele>75.2</ele>
        <time>2024-04-14T10:42:45Z</time>
      </trkpt>
      <trkpt lat="47.9538" lon="-0.44291">
        <ele>75.2</ele>
        <time>2024-04-14T10:42:46Z</time>
      </trkpt>
      <trkpt lat="47.95379" lon="-0.44291">
        <ele>75.2</ele>
        <time>2024-04-14T10:42:47Z</time>
      </trkpt>
      <trkpt lat="47.95377" lon="-0.44291">
        <ele>75.4</ele>
        <time>2024-04-14T10:42:48Z</time>
      </trkpt>
      <trkpt lat="47.95375" lon="-0.44291">
        <ele>74.8</ele>
        <time>2024-04-14T10:42:49Z</time>
      </trkpt>
      <trkpt lat="47.95374" lon="-0.44291">
        <ele>74.8</ele>
        <time>2024-04-14T10:42:50Z</time>
      </trkpt>
      <trkpt lat="47.95374" lon="-0.44291">
        <ele>74.8</ele>
        <time>2024-04-14T10:42:51Z</time>
      </trkpt>
      <trkpt lat="47.95368" lon="-0.44284">
        <ele>75.2</ele>
        <time>2024-04-14T10:43:22Z</time>
      </trkpt>
      <trkpt lat="47.95367" lon="-0.44282">
        <ele>75.2</ele>
        <time>2024-04-14T10:43:23Z</time>
      </trkpt>
      <trkpt lat="47.95366" lon="-0.4428">
        <ele>75.2</ele>
        <time>2024-04-14T10:43:24Z</time>
      </trkpt>
      <trkpt lat="47.95365" lon="-0.44277">
        <ele>74.2</ele>
        <time>2024-04-14T10:43:25Z</time>
      </trkpt>
      <trkpt lat="47.95364" lon="-0.44274">
        <ele>74.2</ele>
        <time>2024-04-14T10:43:26Z</time>
      </trkpt>
      <trkpt lat="47.95363" lon="-0.4427">
        <ele>74.2</ele>
        <time>2024-04-14T10:43:27Z</time>
      </trkpt>
      <trkpt lat="47.95362" lon="-0.44267">
        <ele>74.2</ele>
        <time>2024-04-14T10:43:28Z</time>
      </trkpt>
      <trkpt lat="47.95361" lon="-0.44263">
        <ele>75.2</ele>
        <time>2024-04-14T10:43:29Z</time>
      </trkpt>
      <trkpt lat="47.9536" lon="-0.4426">
        <ele>75.2</ele>
        <time>2024-04-14T10:43:30Z</time>
      </trkpt>
      <trkpt lat="47.95359" lon="-0.44257">
        <ele>75.2</ele>
        <time>2024-04-14T10:43:31Z</time>
      </trkpt>
      <trkpt lat="47.95358" lon="-0.44254">
        <ele>74.4</ele>
        <time>2024-04-14T10:43:32Z</time>
      </trkpt>
      <trkpt lat="47.95357" lon="-0.44251">
        <ele>74.8</ele>
        <time>2024-04-14T10:43:33Z</time>
      </trkpt>
      <trkpt lat="47.95356" lon="-0.44247">
        <ele>74.8</ele>
        <time>2024-04-14T10:43:34Z</time>
      </trkpt>
      <trkpt lat="47.95355" lon="-0.44244">
        <ele>74.8</ele>
        <time>2024-04-14T10:43:35Z</time>
      </trkpt>
      <trkpt lat="47.95354" lon="-0.4424">
        <ele>74.2</ele>
        <time>2024-04-14T10:43:36Z</time>
      </trkpt>
      <trkpt lat="47.95353" lon="-0.44237">
        <ele>73.8</ele>
        <time>2024-04-14T10:43:37Z</time>
      </trkpt>
      <trkpt lat="47.95351" lon="-0.44234">
        <ele>73.8</ele>
        <time>2024-04-14T10:43:38Z</time>
      </trkpt>
      <trkpt lat="47.9535" lon="-0.44231">
        <ele>73.8</ele>
        <time>2024-04-14T10:43:39Z</time>
      </trkpt>
      <trkpt lat="47.95349" lon="-0.44228">
        <ele>74</ele>
        <time>2024-04-14T10:43:40Z</time>
      </trkpt>
      <trkpt lat="47.95348" lon="-0.44224">
        <ele>74.4</ele>
        <time>2024-04-14T10:43:41Z</time>
      </trkpt>
      <trkpt lat="47.95347" lon="-0.44221">
        <ele>74.4</ele>
        <time>2024-04-14T10:43:42Z</time>
      </trkpt>
      <trkpt lat="47.95346" lon="-0.44217">
        <ele>74.4</ele>
        <time>2024-04-14T10:43:43Z</time>
      </trkpt>
      <trkpt lat="47.95345" lon="-0.44214">
        <ele>73.4</ele>
        <time>2024-04-14T10:43:44Z</time>
      </trkpt>
      <trkpt lat="47.95344" lon="-0.44211">
        <ele>74</ele>
        <time>2024-04-14T10:43:45Z</time>
      </trkpt>
      <trkpt lat="47.95343" lon="-0.44208">
        <ele>74</ele>
        <time>2024-04-14T10:43:46Z</time>
      </trkpt>
      <trkpt lat="47.95342" lon="-0.44205">
        <ele>74</ele>
        <time>2024-04-14T10:43:47Z</time>
      </trkpt>
      <trkpt lat="47.95342" lon="-0.44202">
        <ele>74</ele>
        <time>2024-04-14T10:43:48Z</time>
      </trkpt>
      <trkpt lat="47.95341" lon="-0.44199">
        <ele>73.4</ele>
        <time>2024-04-14T10:43:49Z</time>
      </trkpt>
      <trkpt lat="47.95341" lon="-0.44196">
        <ele>73.4</ele>
        <time>2024-04-14T10:43:50Z</time>
      </trkpt>
      <trkpt lat="47.9534" lon="-0.44192">
        <ele>73.4</ele>
        <time>2024-04-14T10:43:51Z</time>
      </trkpt>
      <trkpt lat="47.95339" lon="-0.44188">
        <ele>73.4</ele>
        <time>2024-04-14T10:43:52Z</time>
      </trkpt>
      <trkpt lat="47.95337" lon="-0.44184">
        <ele>73.8</ele>
        <time>2024-04-14T10:43:53Z</time>
      </trkpt>
      <trkpt lat="47.95337" lon="-0.44181">
        <ele>73.8</ele>
        <time>2024-04-14T10:43:54Z</time>
      </trkpt>
      <trkpt lat="47.95336" lon="-0.44177">
        <ele>73.8</ele>
        <time>2024-04-14T10:43:55Z</time>
      </trkpt>
      <trkpt lat="47.95335" lon="-0.44173">
        <ele>73</ele>
        <time>2024-04-14T10:43:56Z</time>
      </trkpt>
      <trkpt lat="47.95334" lon="-0.44169">
        <ele>73.2</ele>
        <time>2024-04-14T10:43:57Z</time>
      </trkpt>
      <trkpt lat="47.95333" lon="-0.44165">
        <ele>73.2</ele>
        <time>2024-04-14T10:43:58Z</time>
      </trkpt>
      <trkpt lat="47.95332" lon="-0.44161">
        <ele>73.2</ele>
        <time>2024-04-14T10:43:59Z</time>
      </trkpt>
      <trkpt lat="47.95331" lon="-0.44158">
        <ele>73.2</ele>
        <time>2024-04-14T10:44:00Z</time>
      </trkpt>
      <trkpt lat="47.9533" lon="-0.44154">
        <ele>73</ele>
        <time>2024-04-14T10:44:01Z</time>
      </trkpt>
      <trkpt lat="47.95329" lon="-0.44151">
        <ele>73</ele>
        <time>2024-04-14T10:44:02Z</time>
      </trkpt>
      <trkpt lat="47.95328" lon="-0.44147">
        <ele>73</ele>
        <time>2024-04-14T10:44:03Z</time>
      </trkpt>
      <trkpt lat="47.95327" lon="-0.44143">
        <ele>72.6</ele>
        <time>2024-04-14T10:44:04Z</time>
      </trkpt>
      <trkpt lat="47.95326" lon="-0.4414">
        <ele>72.6</ele>
        <time>2024-04-14T10:44:05Z</time>
      </trkpt>
      <trkpt lat="47.95325" lon="-0.44137">
        <ele>72.6</ele>
        <time>2024-04-14T10:44:06Z</time>
      </trkpt>
      <trkpt lat="47.95324" lon="-0.44133">
        <ele>72.6</ele>
        <time>2024-04-14T10:44:07Z</time>
      </trkpt>
      <trkpt lat="47.95323" lon="-0.4413">
        <ele>72.6</ele>
        <time>2024-04-14T10:44:08Z</time>
      </trkpt>
      <trkpt lat="47.95322" lon="-0.44126">
        <ele>73</ele>
        <time>2024-04-14T10:44:09Z</time>
      </trkpt>
      <trkpt lat="47.95321" lon="-0.44123">
        <ele>73</ele>
        <time>2024-04-14T10:44:10Z</time>
      </trkpt>
      <trkpt lat="47.9532" lon="-0.4412">
        <ele>73</ele>
        <time>2024-04-14T10:44:11Z</time>
      </trkpt>
      <trkpt lat="47.95319" lon="-0.44116">
        <ele>72.6</ele>
        <time>2024-04-14T10:44:12Z</time>
      </trkpt>
      <trkpt lat="47.95318" lon="-0.44113">
        <ele>71.6</ele>
        <time>2024-04-14T10:44:13Z</time>
      </trkpt>
      <trkpt lat="47.95318" lon="-0.4411">
        <ele>71.6</ele>
        <time>2024-04-14T10:44:14Z</time>
      </trkpt>
      <trkpt lat="47.95317" lon="-0.44107">
        <ele>71.6</ele>
        <time>2024-04-14T10:44:15Z</time>
      </trkpt>
      <trkpt lat="47.95316" lon="-0.44104">
        <ele>71.8</ele>
        <time>2024-04-14T10:44:16Z</time>
      </trkpt>
      <trkpt lat="47.95315" lon="-0.44101">
        <ele>72.2</ele>
        <time>2024-04-14T10:44:17Z</time>
      </trkpt>
      <trkpt lat="47.95314" lon="-0.44098">
        <ele>72.2</ele>
        <time>2024-04-14T10:44:18Z</time>
      </trkpt>
      <trkpt lat="47.95313" lon="-0.44094">
        <ele>72.2</ele>
        <time>2024-04-14T10:44:19Z</time>
      </trkpt>
      <trkpt lat="47.95313" lon="-0.44091">
        <ele>71.2</ele>
        <time>2024-04-14T10:44:20Z</time>
      </trkpt>
      <trkpt lat="47.95312" lon="-0.44088">
        <ele>71.6</ele>
        <time>2024-04-14T10:44:21Z</time>
      </trkpt>
      <trkpt lat="47.95311" lon="-0.44085">
        <ele>71.6</ele>
        <time>2024-04-14T10:44:22Z</time>
      </trkpt>
      <trkpt lat="47.9531" lon="-0.44082">
        <ele>71.6</ele>
        <time>2024-04-14T10:44:23Z</time>
      </trkpt>
      <trkpt lat="47.9531" lon="-0.4408">
        <ele>71.6</ele>
        <time>2024-04-14T10:44:24Z</time>
      </trkpt>
      <trkpt lat="47.95309" lon="-0.44078">
        <ele>71.6</ele>
        <time>2024-04-14T10:44:25Z</time>
      </trkpt>
      <trkpt lat="47.95308" lon="-0.44075">
        <ele>71.6</ele>
        <time>2024-04-14T10:44:26Z</time>
      </trkpt>
      <trkpt lat="47.95307" lon="-0.44072">
        <ele>71.6</ele>
        <time>2024-04-14T10:44:27Z</time>
      </trkpt>
      <trkpt lat="47.95306" lon="-0.44069">
        <ele>71.4</ele>
        <time>2024-04-14T10:44:28Z</time>
      </trkpt>
      <trkpt lat="47.95306" lon="-0.44066">
        <ele>71.2</ele>
        <time>2024-04-14T10:44:29Z</time>
      </trkpt>
      <trkpt lat="47.95305" lon="-0.44063">
        <ele>71.2</ele>
        <time>2024-04-14T10:44:30Z</time>
      </trkpt>
      <trkpt lat="47.95304" lon="-0.4406">
        <ele>71.2</ele>
        <time>2024-04-14T10:44:31Z</time>
      </trkpt>
      <trkpt lat="47.95303" lon="-0.44057">
        <ele>71.2</ele>
        <time>2024-04-14T10:44:32Z</time>
      </trkpt>
      <trkpt lat="47.95302" lon="-0.44054">
        <ele>71.2</ele>
        <time>2024-04-14T10:44:33Z</time>
      </trkpt>
      <trkpt lat="47.95301" lon="-0.4405">
        <ele>71.2</ele>
        <time>2024-04-14T10:44:34Z</time>
      </trkpt>
      <trkpt lat="47.95301" lon="-0.44047">
        <ele>71.2</ele>
        <time>2024-04-14T10:44:35Z</time>
      </trkpt>
      <trkpt lat="47.95299" lon="-0.44044">
        <ele>71.2</ele>
        <time>2024-04-14T10:44:36Z</time>
      </trkpt>
      <trkpt lat="47.95298" lon="-0.44041">
        <ele>70.8</ele>
        <time>2024-04-14T10:44:37Z</time>
      </trkpt>
      <trkpt lat="47.95297" lon="-0.44038">
        <ele>70.8</ele>
        <time>2024-04-14T10:44:38Z</time>
      </trkpt>
      <trkpt lat="47.95297" lon="-0.44035">
        <ele>70.8</ele>
        <time>2024-04-14T10:44:39Z</time>
      </trkpt>
      <trkpt lat="47.95296" lon="-0.44033">
        <ele>70.8</ele>
        <time>2024-04-14T10:44:40Z</time>
      </trkpt>
      <trkpt lat="47.95295" lon="-0.4403">
        <ele>70.8</ele>
        <time>2024-04-14T10:44:41Z</time>
      </trkpt>
      <trkpt lat="47.95294" lon="-0.44027">
        <ele>70.8</ele>
        <time>2024-04-14T10:44:42Z</time>
      </trkpt>
      <trkpt lat="47.95293" lon="-0.44022">
        <ele>70.8</ele>
        <time>2024-04-14T10:44:43Z</time>
      </trkpt>
      <trkpt lat="47.95292" lon="-0.44019">
        <ele>70.4</ele>
        <time>2024-04-14T10:44:44Z</time>
      </trkpt>
      <trkpt lat="47.95292" lon="-0.44015">
        <ele>70.6</ele>
        <time>2024-04-14T10:44:45Z</time>
      </trkpt>
      <trkpt lat="47.95291" lon="-0.4401">
        <ele>70.6</ele>
        <time>2024-04-14T10:44:46Z</time>
      </trkpt>
      <trkpt lat="47.95292" lon="-0.44006">
        <ele>70.6</ele>
        <time>2024-04-14T10:44:47Z</time>
      </trkpt>
      <trkpt lat="47.95293" lon="-0.44003">
        <ele>70.2</ele>
        <time>2024-04-14T10:44:48Z</time>
      </trkpt>
      <trkpt lat="47.95294" lon="-0.44">
        <ele>70.6</ele>
        <time>2024-04-14T10:44:49Z</time>
      </trkpt>
      <trkpt lat="47.95296" lon="-0.43997">
        <ele>70.6</ele>
        <time>2024-04-14T10:44:50Z</time>
      </trkpt>
      <trkpt lat="47.95298" lon="-0.43994">
        <ele>70.6</ele>
        <time>2024-04-14T10:44:51Z</time>
      </trkpt>
      <trkpt lat="47.95299" lon="-0.43991">
        <ele>70.6</ele>
        <time>2024-04-14T10:44:52Z</time>
      </trkpt>
      <trkpt lat="47.953" lon="-0.43988">
        <ele>70.2</ele>
        <time>2024-04-14T10:44:53Z</time>
      </trkpt>
      <trkpt lat="47.953" lon="-0.43985">
        <ele>70.2</ele>
        <time>2024-04-14T10:44:54Z</time>
      </trkpt>
      <trkpt lat="47.95301" lon="-0.43981">
        <ele>70.2</ele>
        <time>2024-04-14T10:44:55Z</time>
      </trkpt>
      <trkpt lat="47.95301" lon="-0.43978">
        <ele>70.2</ele>
        <time>2024-04-14T10:44:56Z</time>
      </trkpt>
      <trkpt lat="47.95302" lon="-0.43977">
        <ele>70.2</ele>
        <time>2024-04-14T10:44:57Z</time>
      </trkpt>
      <trkpt lat="47.95302" lon="-0.43977">
        <ele>70.2</ele>
        <time>2024-04-14T10:44:58Z</time>
      </trkpt>
      <trkpt lat="47.95303" lon="-0.43971">
        <ele>69.8</ele>
        <time>2024-04-14T10:45:02Z</time>
      </trkpt>
      <trkpt lat="47.95303" lon="-0.43969">
        <ele>69.8</ele>
        <time>2024-04-14T10:45:03Z</time>
      </trkpt>
      <trkpt lat="47.95303" lon="-0.43966">
        <ele>69.8</ele>
        <time>2024-04-14T10:45:04Z</time>
      </trkpt>
      <trkpt lat="47.95304" lon="-0.43964">
        <ele>70</ele>
        <time>2024-04-14T10:45:05Z</time>
      </trkpt>
      <trkpt lat="47.95304" lon="-0.43962">
        <ele>70</ele>
        <time>2024-04-14T10:45:06Z</time>
      </trkpt>
      <trkpt lat="47.95304" lon="-0.4396">
        <ele>70</ele>
        <time>2024-04-14T10:45:07Z</time>
      </trkpt>
      <trkpt lat="47.95305" lon="-0.43958">
        <ele>70.2</ele>
        <time>2024-04-14T10:45:08Z</time>
      </trkpt>
      <trkpt lat="47.95305" lon="-0.43957">
        <ele>70.2</ele>
        <time>2024-04-14T10:45:09Z</time>
      </trkpt>
      <trkpt lat="47.95305" lon="-0.43955">
        <ele>70.2</ele>
        <time>2024-04-14T10:45:10Z</time>
      </trkpt>
      <trkpt lat="47.95305" lon="-0.43953">
        <ele>70.2</ele>
        <time>2024-04-14T10:45:11Z</time>
      </trkpt>
      <trkpt lat="47.95306" lon="-0.43951">
        <ele>70.8</ele>
        <time>2024-04-14T10:45:12Z</time>
      </trkpt>
      <trkpt lat="47.95306" lon="-0.43949">
        <ele>70.4</ele>
        <time>2024-04-14T10:45:13Z</time>
      </trkpt>
      <trkpt lat="47.95307" lon="-0.43948">
        <ele>70.4</ele>
        <time>2024-04-14T10:45:14Z</time>
      </trkpt>
      <trkpt lat="47.95307" lon="-0.43946">
        <ele>70.4</ele>
        <time>2024-04-14T10:45:15Z</time>
      </trkpt>
      <trkpt lat="47.95307" lon="-0.43944">
        <ele>71.2</ele>
        <time>2024-04-14T10:45:16Z</time>
      </trkpt>
      <trkpt lat="47.95307" lon="-0.43942">
        <ele>70.8</ele>
        <time>2024-04-14T10:45:17Z</time>
      </trkpt>
      <trkpt lat="47.95307" lon="-0.43941">
        <ele>70.8</ele>
        <time>2024-04-14T10:45:18Z</time>
      </trkpt>
      <trkpt lat="47.95307" lon="-0.43939">
        <ele>70.8</ele>
        <time>2024-04-14T10:45:19Z</time>
      </trkpt>
      <trkpt lat="47.95307" lon="-0.43937">
        <ele>70.8</ele>
        <time>2024-04-14T10:45:20Z</time>
      </trkpt>
      <trkpt lat="47.95306" lon="-0.43936">
        <ele>71.2</ele>
        <time>2024-04-14T10:45:21Z</time>
      </trkpt>
      <trkpt lat="47.95306" lon="-0.43934">
        <ele>71.2</ele>
        <time>2024-04-14T10:45:22Z</time>
      </trkpt>
      <trkpt lat="47.95306" lon="-0.43933">
        <ele>71.2</ele>
        <time>2024-04-14T10:45:23Z</time>
      </trkpt>
      <trkpt lat="47.95306" lon="-0.43931">
        <ele>71.2</ele>
        <time>2024-04-14T10:45:24Z</time>
      </trkpt>
      <trkpt lat="47.95306" lon="-0.4393">
        <ele>71</ele>
        <time>2024-04-14T10:45:25Z</time>
      </trkpt>
      <trkpt lat="47.95305" lon="-0.43928">
        <ele>71</ele>
        <time>2024-04-14T10:45:26Z</time>
      </trkpt>
      <trkpt lat="47.95305" lon="-0.43926">
        <ele>71</ele>
        <time>2024-04-14T10:45:27Z</time>
      </trkpt>
      <trkpt lat="47.95305" lon="-0.43925">
        <ele>71.4</ele>
        <time>2024-04-14T10:45:28Z</time>
      </trkpt>
      <trkpt lat="47.95304" lon="-0.43923">
        <ele>71.4</ele>
        <time>2024-04-14T10:45:29Z</time>
      </trkpt>
      <trkpt lat="47.95304" lon="-0.43922">
        <ele>71.4</ele>
        <time>2024-04-14T10:45:30Z</time>
      </trkpt>
      <trkpt lat="47.95304" lon="-0.4392">
        <ele>71.4</ele>
        <time>2024-04-14T10:45:31Z</time>
      </trkpt>
      <trkpt lat="47.95304" lon="-0.43918">
        <ele>71.6</ele>
        <time>2024-04-14T10:45:32Z</time>
      </trkpt>
      <trkpt lat="47.95304" lon="-0.43916">
        <ele>71.6</ele>
        <time>2024-04-14T10:45:33Z</time>
      </trkpt>
      <trkpt lat="47.95303" lon="-0.43914">
        <ele>71.6</ele>
        <time>2024-04-14T10:45:34Z</time>
      </trkpt>
      <trkpt lat="47.95302" lon="-0.43912">
        <ele>71.6</ele>
        <time>2024-04-14T10:45:35Z</time>
      </trkpt>
      <trkpt lat="47.95302" lon="-0.4391">
        <ele>71.8</ele>
        <time>2024-04-14T10:45:36Z</time>
      </trkpt>
      <trkpt lat="47.95302" lon="-0.43908">
        <ele>71.4</ele>
        <time>2024-04-14T10:45:37Z</time>
      </trkpt>
      <trkpt lat="47.95302" lon="-0.43906">
        <ele>71.4</ele>
        <time>2024-04-14T10:45:38Z</time>
      </trkpt>
      <trkpt lat="47.95301" lon="-0.43904">
        <ele>71.4</ele>
        <time>2024-04-14T10:45:39Z</time>
      </trkpt>
      <trkpt lat="47.95301" lon="-0.43902">
        <ele>71.8</ele>
        <time>2024-04-14T10:45:40Z</time>
      </trkpt>
      <trkpt lat="47.95301" lon="-0.439">
        <ele>72.6</ele>
        <time>2024-04-14T10:45:41Z</time>
      </trkpt>
      <trkpt lat="47.95301" lon="-0.43898">
        <ele>72.6</ele>
        <time>2024-04-14T10:45:42Z</time>
      </trkpt>
      <trkpt lat="47.95301" lon="-0.43896">
        <ele>72.6</ele>
        <time>2024-04-14T10:45:43Z</time>
      </trkpt>
      <trkpt lat="47.95301" lon="-0.43895">
        <ele>72</ele>
        <time>2024-04-14T10:45:44Z</time>
      </trkpt>
      <trkpt lat="47.953" lon="-0.43893">
        <ele>72.6</ele>
        <time>2024-04-14T10:45:45Z</time>
      </trkpt>
      <trkpt lat="47.953" lon="-0.43891">
        <ele>72.6</ele>
        <time>2024-04-14T10:45:46Z</time>
      </trkpt>
      <trkpt lat="47.953" lon="-0.43889">
        <ele>72.6</ele>
        <time>2024-04-14T10:45:47Z</time>
      </trkpt>
      <trkpt lat="47.953" lon="-0.43888">
        <ele>72.6</ele>
        <time>2024-04-14T10:45:48Z</time>
      </trkpt>
      <trkpt lat="47.953" lon="-0.43886">
        <ele>73</ele>
        <time>2024-04-14T10:45:49Z</time>
      </trkpt>
      <trkpt lat="47.953" lon="-0.43884">
        <ele>73</ele>
        <time>2024-04-14T10:45:50Z</time>
      </trkpt>
      <trkpt lat="47.95299" lon="-0.43881">
        <ele>73</ele>
        <time>2024-04-14T10:45:51Z</time>
      </trkpt>
      <trkpt lat="47.95299" lon="-0.4388">
        <ele>73</ele>
        <time>2024-04-14T10:45:52Z</time>
      </trkpt>
      <trkpt lat="47.95299" lon="-0.43878">
        <ele>73.4</ele>
        <time>2024-04-14T10:45:53Z</time>
      </trkpt>
      <trkpt lat="47.95298" lon="-0.43876">
        <ele>73.4</ele>
        <time>2024-04-14T10:45:54Z</time>
      </trkpt>
      <trkpt lat="47.95298" lon="-0.43874">
        <ele>73.4</ele>
        <time>2024-04-14T10:45:55Z</time>
      </trkpt>
      <trkpt lat="47.95297" lon="-0.43873">
        <ele>73.4</ele>
        <time>2024-04-14T10:45:56Z</time>
      </trkpt>
      <trkpt lat="47.95297" lon="-0.43871">
        <ele>73.4</ele>
        <time>2024-04-14T10:45:57Z</time>
      </trkpt>
      <trkpt lat="47.95297" lon="-0.43869">
        <ele>73.4</ele>
        <time>2024-04-14T10:45:58Z</time>
      </trkpt>
      <trkpt lat="47.95297" lon="-0.43867">
        <ele>73.4</ele>
        <time>2024-04-14T10:45:59Z</time>
      </trkpt>
      <trkpt lat="47.95297" lon="-0.43865">
        <ele>73.4</ele>
        <time>2024-04-14T10:46:00Z</time>
      </trkpt>
      <trkpt lat="47.95297" lon="-0.43864">
        <ele>72.8</ele>
        <time>2024-04-14T10:46:01Z</time>
      </trkpt>
      <trkpt lat="47.95296" lon="-0.43862">
        <ele>72.8</ele>
        <time>2024-04-14T10:46:02Z</time>
      </trkpt>
      <trkpt lat="47.95296" lon="-0.43861">
        <ele>72.8</ele>
        <time>2024-04-14T10:46:03Z</time>
      </trkpt>
      <trkpt lat="47.95296" lon="-0.43859">
        <ele>72.8</ele>
        <time>2024-04-14T10:46:04Z</time>
      </trkpt>
      <trkpt lat="47.95296" lon="-0.43858">
        <ele>73.2</ele>
        <time>2024-04-14T10:46:05Z</time>
      </trkpt>
      <trkpt lat="47.95296" lon="-0.43858">
        <ele>73.2</ele>
        <time>2024-04-14T10:46:06Z</time>
      </trkpt>
      <trkpt lat="47.95295" lon="-0.43851">
        <ele>73.2</ele>
        <time>2024-04-14T10:46:16Z</time>
      </trkpt>
      <trkpt lat="47.95295" lon="-0.43849">
        <ele>73</ele>
        <time>2024-04-14T10:46:17Z</time>
      </trkpt>
      <trkpt lat="47.95295" lon="-0.43846">
        <ele>73</ele>
        <time>2024-04-14T10:46:18Z</time>
      </trkpt>
      <trkpt lat="47.95294" lon="-0.43843">
        <ele>73</ele>
        <time>2024-04-14T10:46:19Z</time>
      </trkpt>
      <trkpt lat="47.95294" lon="-0.4384">
        <ele>73</ele>
        <time>2024-04-14T10:46:20Z</time>
      </trkpt>
      <trkpt lat="47.95294" lon="-0.43836">
        <ele>72.6</ele>
        <time>2024-04-14T10:46:21Z</time>
      </trkpt>
      <trkpt lat="47.95294" lon="-0.43833">
        <ele>72.6</ele>
        <time>2024-04-14T10:46:22Z</time>
      </trkpt>
      <trkpt lat="47.95294" lon="-0.4383">
        <ele>72.6</ele>
        <time>2024-04-14T10:46:23Z</time>
      </trkpt>
      <trkpt lat="47.95293" lon="-0.43827">
        <ele>73.4</ele>
        <time>2024-04-14T10:46:24Z</time>
      </trkpt>
      <trkpt lat="47.95293" lon="-0.43823">
        <ele>73.8</ele>
        <time>2024-04-14T10:46:25Z</time>
      </trkpt>
      <trkpt lat="47.95293" lon="-0.4382">
        <ele>73.8</ele>
        <time>2024-04-14T10:46:26Z</time>
      </trkpt>
      <trkpt lat="47.95292" lon="-0.43816">
        <ele>73.8</ele>
        <time>2024-04-14T10:46:27Z</time>
      </trkpt>
      <trkpt lat="47.95292" lon="-0.43813">
        <ele>73.8</ele>
        <time>2024-04-14T10:46:28Z</time>
      </trkpt>
      <trkpt lat="47.95292" lon="-0.4381">
        <ele>72.8</ele>
        <time>2024-04-14T10:46:29Z</time>
      </trkpt>
      <trkpt lat="47.95291" lon="-0.43807">
        <ele>72.8</ele>
        <time>2024-04-14T10:46:30Z</time>
      </trkpt>
      <trkpt lat="47.95291" lon="-0.43804">
        <ele>72.8</ele>
        <time>2024-04-14T10:46:31Z</time>
      </trkpt>
      <trkpt lat="47.9529" lon="-0.43801">
        <ele>73.2</ele>
        <time>2024-04-14T10:46:32Z</time>
      </trkpt>
      <trkpt lat="47.9529" lon="-0.43798">
        <ele>73.8</ele>
        <time>2024-04-14T10:46:33Z</time>
      </trkpt>
      <trkpt lat="47.95289" lon="-0.43795">
        <ele>73.8</ele>
        <time>2024-04-14T10:46:34Z</time>
      </trkpt>
      <trkpt lat="47.95289" lon="-0.43792">
        <ele>73.8</ele>
        <time>2024-04-14T10:46:35Z</time>
      </trkpt>
      <trkpt lat="47.9529" lon="-0.43789">
        <ele>73.8</ele>
        <time>2024-04-14T10:46:36Z</time>
      </trkpt>
      <trkpt lat="47.95291" lon="-0.43786">
        <ele>74</ele>
        <time>2024-04-14T10:46:37Z</time>
      </trkpt>
      <trkpt lat="47.95292" lon="-0.43785">
        <ele>74</ele>
        <time>2024-04-14T10:46:38Z</time>
      </trkpt>
      <trkpt lat="47.95294" lon="-0.43784">
        <ele>74</ele>
        <time>2024-04-14T10:46:39Z</time>
      </trkpt>
      <trkpt lat="47.95296" lon="-0.43783">
        <ele>74</ele>
        <time>2024-04-14T10:46:40Z</time>
      </trkpt>
      <trkpt lat="47.95298" lon="-0.43783">
        <ele>74.8</ele>
        <time>2024-04-14T10:46:41Z</time>
      </trkpt>
      <trkpt lat="47.953" lon="-0.43783">
        <ele>74.8</ele>
        <time>2024-04-14T10:46:42Z</time>
      </trkpt>
      <trkpt lat="47.95303" lon="-0.43782">
        <ele>74.8</ele>
        <time>2024-04-14T10:46:43Z</time>
      </trkpt>
      <trkpt lat="47.95305" lon="-0.43782">
        <ele>74.2</ele>
        <time>2024-04-14T10:46:44Z</time>
      </trkpt>
      <trkpt lat="47.95307" lon="-0.43782">
        <ele>75.4</ele>
        <time>2024-04-14T10:46:45Z</time>
      </trkpt>
      <trkpt lat="47.9531" lon="-0.43782">
        <ele>75.4</ele>
        <time>2024-04-14T10:46:46Z</time>
      </trkpt>
      <trkpt lat="47.95312" lon="-0.43782">
        <ele>75.4</ele>
        <time>2024-04-14T10:46:47Z</time>
      </trkpt>
      <trkpt lat="47.95315" lon="-0.43782">
        <ele>74.8</ele>
        <time>2024-04-14T10:46:48Z</time>
      </trkpt>
      <trkpt lat="47.95317" lon="-0.43782">
        <ele>75</ele>
        <time>2024-04-14T10:46:49Z</time>
      </trkpt>
      <trkpt lat="47.9532" lon="-0.43781">
        <ele>75</ele>
        <time>2024-04-14T10:46:50Z</time>
      </trkpt>
      <trkpt lat="47.95322" lon="-0.43781">
        <ele>75</ele>
        <time>2024-04-14T10:46:51Z</time>
      </trkpt>
      <trkpt lat="47.95324" lon="-0.43781">
        <ele>75.2</ele>
        <time>2024-04-14T10:46:52Z</time>
      </trkpt>
      <trkpt lat="47.95326" lon="-0.4378">
        <ele>74.4</ele>
        <time>2024-04-14T10:46:53Z</time>
      </trkpt>
      <trkpt lat="47.95329" lon="-0.4378">
        <ele>74.4</ele>
        <time>2024-04-14T10:46:54Z</time>
      </trkpt>
      <trkpt lat="47.95331" lon="-0.4378">
        <ele>74.4</ele>
        <time>2024-04-14T10:46:55Z</time>
      </trkpt>
      <trkpt lat="47.95333" lon="-0.4378">
        <ele>75.4</ele>
        <time>2024-04-14T10:46:56Z</time>
      </trkpt>
      <trkpt lat="47.95336" lon="-0.4378">
        <ele>74.8</ele>
        <time>2024-04-14T10:46:57Z</time>
      </trkpt>
      <trkpt lat="47.95338" lon="-0.4378">
        <ele>74.8</ele>
        <time>2024-04-14T10:46:58Z</time>
      </trkpt>
      <trkpt lat="47.95341" lon="-0.43779">
        <ele>74.8</ele>
        <time>2024-04-14T10:46:59Z</time>
      </trkpt>
      <trkpt lat="47.95343" lon="-0.43779">
        <ele>75.4</ele>
        <time>2024-04-14T10:47:00Z</time>
      </trkpt>
      <trkpt lat="47.95345" lon="-0.43779">
        <ele>76</ele>
        <time>2024-04-14T10:47:01Z</time>
      </trkpt>
      <trkpt lat="47.95347" lon="-0.43779">
        <ele>76</ele>
        <time>2024-04-14T10:47:02Z</time>
      </trkpt>
      <trkpt lat="47.9535" lon="-0.43777">
        <ele>76</ele>
        <time>2024-04-14T10:47:03Z</time>
      </trkpt>
      <trkpt lat="47.95352" lon="-0.43776">
        <ele>75.4</ele>
        <time>2024-04-14T10:47:04Z</time>
      </trkpt>
      <trkpt lat="47.95354" lon="-0.43775">
        <ele>75.4</ele>
        <time>2024-04-14T10:47:05Z</time>
      </trkpt>
      <trkpt lat="47.95355" lon="-0.43773">
        <ele>75.4</ele>
        <time>2024-04-14T10:47:06Z</time>
      </trkpt>
      <trkpt lat="47.95357" lon="-0.43771">
        <ele>75.4</ele>
        <time>2024-04-14T10:47:07Z</time>
      </trkpt>
      <trkpt lat="47.95358" lon="-0.43769">
        <ele>75.4</ele>
        <time>2024-04-14T10:47:08Z</time>
      </trkpt>
      <trkpt lat="47.9536" lon="-0.43767">
        <ele>75.4</ele>
        <time>2024-04-14T10:47:09Z</time>
      </trkpt>
      <trkpt lat="47.95362" lon="-0.43764">
        <ele>75.4</ele>
        <time>2024-04-14T10:47:10Z</time>
      </trkpt>
      <trkpt lat="47.95364" lon="-0.43762">
        <ele>75.4</ele>
        <time>2024-04-14T10:47:11Z</time>
      </trkpt>
      <trkpt lat="47.95366" lon="-0.43759">
        <ele>75.4</ele>
        <time>2024-04-14T10:47:12Z</time>
      </trkpt>
      <trkpt lat="47.95368" lon="-0.43758">
        <ele>76</ele>
        <time>2024-04-14T10:47:13Z</time>
      </trkpt>
      <trkpt lat="47.9537" lon="-0.43756">
        <ele>76</ele>
        <time>2024-04-14T10:47:14Z</time>
      </trkpt>
      <trkpt lat="47.95372" lon="-0.43754">
        <ele>76</ele>
        <time>2024-04-14T10:47:15Z</time>
      </trkpt>
      <trkpt lat="47.95375" lon="-0.43752">
        <ele>76</ele>
        <time>2024-04-14T10:47:16Z</time>
      </trkpt>
      <trkpt lat="47.95377" lon="-0.43751">
        <ele>75.8</ele>
        <time>2024-04-14T10:47:17Z</time>
      </trkpt>
      <trkpt lat="47.95379" lon="-0.43749">
        <ele>75.8</ele>
        <time>2024-04-14T10:47:18Z</time>
      </trkpt>
      <trkpt lat="47.95381" lon="-0.43747">
        <ele>75.8</ele>
        <time>2024-04-14T10:47:19Z</time>
      </trkpt>
      <trkpt lat="47.95383" lon="-0.43745">
        <ele>75.8</ele>
        <time>2024-04-14T10:47:20Z</time>
      </trkpt>
      <trkpt lat="47.95386" lon="-0.43743">
        <ele>75.8</ele>
        <time>2024-04-14T10:47:21Z</time>
      </trkpt>
      <trkpt lat="47.95388" lon="-0.43742">
        <ele>75.8</ele>
        <time>2024-04-14T10:47:22Z</time>
      </trkpt>
      <trkpt lat="47.9539" lon="-0.4374">
        <ele>75.8</ele>
        <time>2024-04-14T10:47:23Z</time>
      </trkpt>
      <trkpt lat="47.95392" lon="-0.43737">
        <ele>76.2</ele>
        <time>2024-04-14T10:47:24Z</time>
      </trkpt>
      <trkpt lat="47.95394" lon="-0.43735">
        <ele>75.8</ele>
        <time>2024-04-14T10:47:25Z</time>
      </trkpt>
      <trkpt lat="47.95396" lon="-0.43733">
        <ele>75.8</ele>
        <time>2024-04-14T10:47:26Z</time>
      </trkpt>
      <trkpt lat="47.95398" lon="-0.4373">
        <ele>75.8</ele>
        <time>2024-04-14T10:47:27Z</time>
      </trkpt>
      <trkpt lat="47.95399" lon="-0.43728">
        <ele>76.2</ele>
        <time>2024-04-14T10:47:28Z</time>
      </trkpt>
      <trkpt lat="47.95401" lon="-0.43726">
        <ele>76</ele>
        <time>2024-04-14T10:47:29Z</time>
      </trkpt>
      <trkpt lat="47.95403" lon="-0.43724">
        <ele>76</ele>
        <time>2024-04-14T10:47:30Z</time>
      </trkpt>
      <trkpt lat="47.95405" lon="-0.43722">
        <ele>76</ele>
        <time>2024-04-14T10:47:31Z</time>
      </trkpt>
      <trkpt lat="47.95407" lon="-0.43719">
        <ele>76.2</ele>
        <time>2024-04-14T10:47:32Z</time>
      </trkpt>
      <trkpt lat="47.95409" lon="-0.43717">
        <ele>77</ele>
        <time>2024-04-14T10:47:33Z</time>
      </trkpt>
      <trkpt lat="47.95411" lon="-0.43714">
        <ele>77</ele>
        <time>2024-04-14T10:47:34Z</time>
      </trkpt>
      <trkpt lat="47.95413" lon="-0.43711">
        <ele>77</ele>
        <time>2024-04-14T10:47:35Z</time>
      </trkpt>
      <trkpt lat="47.95414" lon="-0.43709">
        <ele>76.8</ele>
        <time>2024-04-14T10:47:36Z</time>
      </trkpt>
      <trkpt lat="47.95415" lon="-0.43706">
        <ele>77.8</ele>
        <time>2024-04-14T10:47:37Z</time>
      </trkpt>
      <trkpt lat="47.95416" lon="-0.43704">
        <ele>77.8</ele>
        <time>2024-04-14T10:47:38Z</time>
      </trkpt>
      <trkpt lat="47.95418" lon="-0.43702">
        <ele>77.8</ele>
        <time>2024-04-14T10:47:39Z</time>
      </trkpt>
      <trkpt lat="47.9542" lon="-0.437">
        <ele>77.4</ele>
        <time>2024-04-14T10:47:40Z</time>
      </trkpt>
      <trkpt lat="47.95421" lon="-0.43698">
        <ele>77.8</ele>
        <time>2024-04-14T10:47:41Z</time>
      </trkpt>
      <trkpt lat="47.95423" lon="-0.43696">
        <ele>77.8</ele>
        <time>2024-04-14T10:47:42Z</time>
      </trkpt>
      <trkpt lat="47.95425" lon="-0.43693">
        <ele>77.8</ele>
        <time>2024-04-14T10:47:43Z</time>
      </trkpt>
      <trkpt lat="47.95426" lon="-0.43691">
        <ele>77.8</ele>
        <time>2024-04-14T10:47:44Z</time>
      </trkpt>
      <trkpt lat="47.95428" lon="-0.43688">
        <ele>77.2</ele>
        <time>2024-04-14T10:47:45Z</time>
      </trkpt>
      <trkpt lat="47.9543" lon="-0.43686">
        <ele>77.2</ele>
        <time>2024-04-14T10:47:46Z</time>
      </trkpt>
      <trkpt lat="47.95432" lon="-0.43684">
        <ele>77.2</ele>
        <time>2024-04-14T10:47:47Z</time>
      </trkpt>
      <trkpt lat="47.95434" lon="-0.43682">
        <ele>77.2</ele>
        <time>2024-04-14T10:47:48Z</time>
      </trkpt>
      <trkpt lat="47.95436" lon="-0.43679">
        <ele>78</ele>
        <time>2024-04-14T10:47:49Z</time>
      </trkpt>
      <trkpt lat="47.95437" lon="-0.43677">
        <ele>78</ele>
        <time>2024-04-14T10:47:50Z</time>
      </trkpt>
      <trkpt lat="47.95439" lon="-0.43674">
        <ele>78</ele>
        <time>2024-04-14T10:47:51Z</time>
      </trkpt>
      <trkpt lat="47.95441" lon="-0.43672">
        <ele>78</ele>
        <time>2024-04-14T10:47:52Z</time>
      </trkpt>
      <trkpt lat="47.95443" lon="-0.4367">
        <ele>78.6</ele>
        <time>2024-04-14T10:47:53Z</time>
      </trkpt>
      <trkpt lat="47.95445" lon="-0.43668">
        <ele>78.6</ele>
        <time>2024-04-14T10:47:54Z</time>
      </trkpt>
      <trkpt lat="47.95447" lon="-0.43665">
        <ele>78.6</ele>
        <time>2024-04-14T10:47:55Z</time>
      </trkpt>
      <trkpt lat="47.95448" lon="-0.43663">
        <ele>78</ele>
        <time>2024-04-14T10:47:56Z</time>
      </trkpt>
      <trkpt lat="47.9545" lon="-0.43661">
        <ele>79</ele>
        <time>2024-04-14T10:47:57Z</time>
      </trkpt>
      <trkpt lat="47.95452" lon="-0.43658">
        <ele>79</ele>
        <time>2024-04-14T10:47:58Z</time>
      </trkpt>
      <trkpt lat="47.95454" lon="-0.43656">
        <ele>79</ele>
        <time>2024-04-14T10:47:59Z</time>
      </trkpt>
      <trkpt lat="47.95456" lon="-0.43654">
        <ele>78.2</ele>
        <time>2024-04-14T10:48:00Z</time>
      </trkpt>
      <trkpt lat="47.95457" lon="-0.43652">
        <ele>78.4</ele>
        <time>2024-04-14T10:48:01Z</time>
      </trkpt>
      <trkpt lat="47.95459" lon="-0.43649">
        <ele>78.4</ele>
        <time>2024-04-14T10:48:02Z</time>
      </trkpt>
      <trkpt lat="47.9546" lon="-0.43647">
        <ele>78.4</ele>
        <time>2024-04-14T10:48:03Z</time>
      </trkpt>
      <trkpt lat="47.95462" lon="-0.43645">
        <ele>78.4</ele>
        <time>2024-04-14T10:48:04Z</time>
      </trkpt>
      <trkpt lat="47.95463" lon="-0.43643">
        <ele>79</ele>
        <time>2024-04-14T10:48:05Z</time>
      </trkpt>
      <trkpt lat="47.95465" lon="-0.43641">
        <ele>79</ele>
        <time>2024-04-14T10:48:06Z</time>
      </trkpt>
      <trkpt lat="47.95466" lon="-0.43639">
        <ele>79</ele>
        <time>2024-04-14T10:48:07Z</time>
      </trkpt>
      <trkpt lat="47.95467" lon="-0.43636">
        <ele>79</ele>
        <time>2024-04-14T10:48:08Z</time>
      </trkpt>
      <trkpt lat="47.95467" lon="-0.43633">
        <ele>79</ele>
        <time>2024-04-14T10:48:09Z</time>
      </trkpt>
      <trkpt lat="47.95468" lon="-0.4363">
        <ele>79</ele>
        <time>2024-04-14T10:48:10Z</time>
      </trkpt>
      <trkpt lat="47.95467" lon="-0.43627">
        <ele>79</ele>
        <time>2024-04-14T10:48:11Z</time>
      </trkpt>
      <trkpt lat="47.95466" lon="-0.43625">
        <ele>79</ele>
        <time>2024-04-14T10:48:12Z</time>
      </trkpt>
      <trkpt lat="47.95465" lon="-0.43622">
        <ele>79.6</ele>
        <time>2024-04-14T10:48:13Z</time>
      </trkpt>
      <trkpt lat="47.95464" lon="-0.4362">
        <ele>79.6</ele>
        <time>2024-04-14T10:48:14Z</time>
      </trkpt>
      <trkpt lat="47.95463" lon="-0.43618">
        <ele>79.6</ele>
        <time>2024-04-14T10:48:15Z</time>
      </trkpt>
      <trkpt lat="47.95463" lon="-0.43618">
        <ele>79.6</ele>
        <time>2024-04-14T10:48:16Z</time>
      </trkpt>
      <trkpt lat="47.95463" lon="-0.43618">
        <ele>79.6</ele>
        <time>2024-04-14T10:48:17Z</time>
      </trkpt>
      <trkpt lat="47.95463" lon="-0.43617">
        <ele>79.6</ele>
        <time>2024-04-14T10:48:18Z</time>
      </trkpt>
      <trkpt lat="47.95463" lon="-0.43617">
        <ele>79.6</ele>
        <time>2024-04-14T10:48:19Z</time>
      </trkpt>
      <trkpt lat="47.95463" lon="-0.43616">
        <ele>79.6</ele>
        <time>2024-04-14T10:48:20Z</time>
      </trkpt>
      <trkpt lat="47.95463" lon="-0.43615">
        <ele>79.8</ele>
        <time>2024-04-14T10:48:21Z</time>
      </trkpt>
      <trkpt lat="47.95463" lon="-0.43615">
        <ele>79.8</ele>
        <time>2024-04-14T10:48:22Z</time>
      </trkpt>
      <trkpt lat="47.95462" lon="-0.43614">
        <ele>79.8</ele>
        <time>2024-04-14T10:48:23Z</time>
      </trkpt>
      <trkpt lat="47.95462" lon="-0.43613">
        <ele>79.8</ele>
        <time>2024-04-14T10:48:24Z</time>
      </trkpt>
      <trkpt lat="47.95462" lon="-0.43613">
        <ele>79.8</ele>
        <time>2024-04-14T10:48:25Z</time>
      </trkpt>
      <trkpt lat="47.95461" lon="-0.43599">
        <ele>80</ele>
        <time>2024-04-14T10:50:16Z</time>
      </trkpt>
      <trkpt lat="47.9546" lon="-0.43597">
        <ele>79.6</ele>
        <time>2024-04-14T10:50:17Z</time>
      </trkpt>
      <trkpt lat="47.95459" lon="-0.43595">
        <ele>79.6</ele>
        <time>2024-04-14T10:50:18Z</time>
      </trkpt>
      <trkpt lat="47.95458" lon="-0.43593">
        <ele>79.6</ele>
        <time>2024-04-14T10:50:19Z</time>
      </trkpt>
      <trkpt lat="47.95457" lon="-0.43591">
        <ele>79.6</ele>
        <time>2024-04-14T10:50:20Z</time>
      </trkpt>
      <trkpt lat="47.95457" lon="-0.43589">
        <ele>79.4</ele>
        <time>2024-04-14T10:50:21Z</time>
      </trkpt>
      <trkpt lat="47.95456" lon="-0.43586">
        <ele>79.4</ele>
        <time>2024-04-14T10:50:22Z</time>
      </trkpt>
      <trkpt lat="47.95455" lon="-0.43584">
        <ele>79.4</ele>
        <time>2024-04-14T10:50:23Z</time>
      </trkpt>
      <trkpt lat="47.95455" lon="-0.43583">
        <ele>79.4</ele>
        <time>2024-04-14T10:50:24Z</time>
      </trkpt>
      <trkpt lat="47.95454" lon="-0.43581">
        <ele>79.8</ele>
        <time>2024-04-14T10:50:25Z</time>
      </trkpt>
      <trkpt lat="47.95453" lon="-0.43578">
        <ele>79.8</ele>
        <time>2024-04-14T10:50:26Z</time>
      </trkpt>
      <trkpt lat="47.95452" lon="-0.43576">
        <ele>79.8</ele>
        <time>2024-04-14T10:50:27Z</time>
      </trkpt>
      <trkpt lat="47.95452" lon="-0.43575">
        <ele>79.8</ele>
        <time>2024-04-14T10:50:28Z</time>
      </trkpt>
      <trkpt lat="47.95451" lon="-0.43573">
        <ele>80</ele>
        <time>2024-04-14T10:50:29Z</time>
      </trkpt>
      <trkpt lat="47.95451" lon="-0.43571">
        <ele>80</ele>
        <time>2024-04-14T10:50:30Z</time>
      </trkpt>
      <trkpt lat="47.95451" lon="-0.43569">
        <ele>80</ele>
        <time>2024-04-14T10:50:31Z</time>
      </trkpt>
      <trkpt lat="47.95451" lon="-0.43567">
        <ele>79.8</ele>
        <time>2024-04-14T10:50:32Z</time>
      </trkpt>
      <trkpt lat="47.9545" lon="-0.43565">
        <ele>80.6</ele>
        <time>2024-04-14T10:50:33Z</time>
      </trkpt>
      <trkpt lat="47.9545" lon="-0.43563">
        <ele>80.6</ele>
        <time>2024-04-14T10:50:34Z</time>
      </trkpt>
      <trkpt lat="47.95449" lon="-0.43561">
        <ele>80.6</ele>
        <time>2024-04-14T10:50:35Z</time>
      </trkpt>
      <trkpt lat="47.95449" lon="-0.43558">
        <ele>80.6</ele>
        <time>2024-04-14T10:50:36Z</time>
      </trkpt>
      <trkpt lat="47.95448" lon="-0.43556">
        <ele>80</ele>
        <time>2024-04-14T10:50:37Z</time>
      </trkpt>
      <trkpt lat="47.95447" lon="-0.43554">
        <ele>80</ele>
        <time>2024-04-14T10:50:38Z</time>
      </trkpt>
      <trkpt lat="47.95446" lon="-0.43551">
        <ele>80</ele>
        <time>2024-04-14T10:50:39Z</time>
      </trkpt>
      <trkpt lat="47.95446" lon="-0.43548">
        <ele>80</ele>
        <time>2024-04-14T10:50:40Z</time>
      </trkpt>
      <trkpt lat="47.95445" lon="-0.43546">
        <ele>79.6</ele>
        <time>2024-04-14T10:50:41Z</time>
      </trkpt>
      <trkpt lat="47.95444" lon="-0.43544">
        <ele>79.6</ele>
        <time>2024-04-14T10:50:42Z</time>
      </trkpt>
      <trkpt lat="47.95444" lon="-0.43543">
        <ele>79.6</ele>
        <time>2024-04-14T10:50:43Z</time>
      </trkpt>
      <trkpt lat="47.95443" lon="-0.43541">
        <ele>79.6</ele>
        <time>2024-04-14T10:50:44Z</time>
      </trkpt>
      <trkpt lat="47.95443" lon="-0.43539">
        <ele>79.8</ele>
        <time>2024-04-14T10:50:45Z</time>
      </trkpt>
      <trkpt lat="47.95443" lon="-0.43538">
        <ele>79.8</ele>
        <time>2024-04-14T10:50:46Z</time>
      </trkpt>
      <trkpt lat="47.95443" lon="-0.43536">
        <ele>79.8</ele>
        <time>2024-04-14T10:50:47Z</time>
      </trkpt>
      <trkpt lat="47.95442" lon="-0.43533">
        <ele>79.8</ele>
        <time>2024-04-14T10:50:48Z</time>
      </trkpt>
      <trkpt lat="47.95441" lon="-0.43531">
        <ele>80.6</ele>
        <time>2024-04-14T10:50:49Z</time>
      </trkpt>
      <trkpt lat="47.95441" lon="-0.4353">
        <ele>80.6</ele>
        <time>2024-04-14T10:50:50Z</time>
      </trkpt>
      <trkpt lat="47.9544" lon="-0.43528">
        <ele>80.6</ele>
        <time>2024-04-14T10:50:51Z</time>
      </trkpt>
      <trkpt lat="47.9544" lon="-0.43526">
        <ele>79.6</ele>
        <time>2024-04-14T10:50:52Z</time>
      </trkpt>
      <trkpt lat="47.95439" lon="-0.43524">
        <ele>80</ele>
        <time>2024-04-14T10:50:53Z</time>
      </trkpt>
      <trkpt lat="47.95439" lon="-0.43522">
        <ele>80</ele>
        <time>2024-04-14T10:50:54Z</time>
      </trkpt>
      <trkpt lat="47.95438" lon="-0.4352">
        <ele>80</ele>
        <time>2024-04-14T10:50:55Z</time>
      </trkpt>
      <trkpt lat="47.95437" lon="-0.43518">
        <ele>79.6</ele>
        <time>2024-04-14T10:50:56Z</time>
      </trkpt>
      <trkpt lat="47.95437" lon="-0.43517">
        <ele>80.2</ele>
        <time>2024-04-14T10:50:57Z</time>
      </trkpt>
      <trkpt lat="47.95437" lon="-0.43517">
        <ele>80.2</ele>
        <time>2024-04-14T10:50:58Z</time>
      </trkpt>
      <trkpt lat="47.95421" lon="-0.43483">
        <ele>80.6</ele>
        <time>2024-04-14T10:51:29Z</time>
      </trkpt>
      <trkpt lat="47.9542" lon="-0.43483">
        <ele>80.6</ele>
        <time>2024-04-14T10:51:30Z</time>
      </trkpt>
      <trkpt lat="47.95419" lon="-0.43484">
        <ele>80.6</ele>
        <time>2024-04-14T10:51:31Z</time>
      </trkpt>
      <trkpt lat="47.95418" lon="-0.43484">
        <ele>80.2</ele>
        <time>2024-04-14T10:51:32Z</time>
      </trkpt>
      <trkpt lat="47.95417" lon="-0.43484">
        <ele>80</ele>
        <time>2024-04-14T10:51:33Z</time>
      </trkpt>
      <trkpt lat="47.95416" lon="-0.43484">
        <ele>80</ele>
        <time>2024-04-14T10:51:34Z</time>
      </trkpt>
      <trkpt lat="47.95415" lon="-0.43484">
        <ele>80</ele>
        <time>2024-04-14T10:51:35Z</time>
      </trkpt>
      <trkpt lat="47.95414" lon="-0.43484">
        <ele>80</ele>
        <time>2024-04-14T10:51:36Z</time>
      </trkpt>
      <trkpt lat="47.95413" lon="-0.43484">
        <ele>80</ele>
        <time>2024-04-14T10:51:37Z</time>
      </trkpt>
      <trkpt lat="47.95412" lon="-0.43484">
        <ele>80</ele>
        <time>2024-04-14T10:51:38Z</time>
      </trkpt>
      <trkpt lat="47.95412" lon="-0.43483">
        <ele>80</ele>
        <time>2024-04-14T10:51:39Z</time>
      </trkpt>
      <trkpt lat="47.95411" lon="-0.43483">
        <ele>80</ele>
        <time>2024-04-14T10:51:40Z</time>
      </trkpt>
      <trkpt lat="47.95409" lon="-0.43482">
        <ele>80.8</ele>
        <time>2024-04-14T10:51:41Z</time>
      </trkpt>
      <trkpt lat="47.95408" lon="-0.43481">
        <ele>80.8</ele>
        <time>2024-04-14T10:51:42Z</time>
      </trkpt>
      <trkpt lat="47.95407" lon="-0.4348">
        <ele>80.8</ele>
        <time>2024-04-14T10:51:43Z</time>
      </trkpt>
      <trkpt lat="47.95406" lon="-0.43478">
        <ele>80.8</ele>
        <time>2024-04-14T10:51:44Z</time>
      </trkpt>
      <trkpt lat="47.95406" lon="-0.43477">
        <ele>71.2</ele>
        <time>2024-04-14T10:51:45Z</time>
      </trkpt>
      <trkpt lat="47.95405" lon="-0.43475">
        <ele>71.2</ele>
        <time>2024-04-14T10:51:46Z</time>
      </trkpt>
      <trkpt lat="47.95404" lon="-0.43473">
        <ele>71.2</ele>
        <time>2024-04-14T10:51:47Z</time>
      </trkpt>
      <trkpt lat="47.95403" lon="-0.43471">
        <ele>72.2</ele>
        <time>2024-04-14T10:51:48Z</time>
      </trkpt>
      <trkpt lat="47.95403" lon="-0.4347">
        <ele>80</ele>
        <time>2024-04-14T10:51:49Z</time>
      </trkpt>
      <trkpt lat="47.95403" lon="-0.43468">
        <ele>80</ele>
        <time>2024-04-14T10:51:50Z</time>
      </trkpt>
      <trkpt lat="47.95402" lon="-0.43467">
        <ele>80</ele>
        <time>2024-04-14T10:51:51Z</time>
      </trkpt>
      <trkpt lat="47.95402" lon="-0.43465">
        <ele>80.2</ele>
        <time>2024-04-14T10:51:52Z</time>
      </trkpt>
      <trkpt lat="47.95402" lon="-0.43463">
        <ele>80.2</ele>
        <time>2024-04-14T10:51:53Z</time>
      </trkpt>
      <trkpt lat="47.95401" lon="-0.43461">
        <ele>80.2</ele>
        <time>2024-04-14T10:51:54Z</time>
      </trkpt>
      <trkpt lat="47.95401" lon="-0.43459">
        <ele>80.2</ele>
        <time>2024-04-14T10:51:55Z</time>
      </trkpt>
      <trkpt lat="47.954" lon="-0.43457">
        <ele>80</ele>
        <time>2024-04-14T10:51:56Z</time>
      </trkpt>
      <trkpt lat="47.954" lon="-0.43456">
        <ele>79.8</ele>
        <time>2024-04-14T10:51:57Z</time>
      </trkpt>
      <trkpt lat="47.95399" lon="-0.43454">
        <ele>79.8</ele>
        <time>2024-04-14T10:51:58Z</time>
      </trkpt>
      <trkpt lat="47.95399" lon="-0.43452">
        <ele>79.8</ele>
        <time>2024-04-14T10:51:59Z</time>
      </trkpt>
      <trkpt lat="47.95398" lon="-0.43451">
        <ele>79.6</ele>
        <time>2024-04-14T10:52:00Z</time>
      </trkpt>
      <trkpt lat="47.95398" lon="-0.43449">
        <ele>80</ele>
        <time>2024-04-14T10:52:01Z</time>
      </trkpt>
      <trkpt lat="47.95397" lon="-0.43448">
        <ele>80</ele>
        <time>2024-04-14T10:52:02Z</time>
      </trkpt>
      <trkpt lat="47.95396" lon="-0.43446">
        <ele>80</ele>
        <time>2024-04-14T10:52:03Z</time>
      </trkpt>
      <trkpt lat="47.95396" lon="-0.43445">
        <ele>80</ele>
        <time>2024-04-14T10:52:04Z</time>
      </trkpt>
      <trkpt lat="47.95395" lon="-0.43444">
        <ele>80</ele>
        <time>2024-04-14T10:52:05Z</time>
      </trkpt>
      <trkpt lat="47.95395" lon="-0.43443">
        <ele>80</ele>
        <time>2024-04-14T10:52:06Z</time>
      </trkpt>
      <trkpt lat="47.95395" lon="-0.43443">
        <ele>80</ele>
        <time>2024-04-14T10:52:07Z</time>
      </trkpt>
      <trkpt lat="47.95394" lon="-0.43441">
        <ele>80</ele>
        <time>2024-04-14T10:52:08Z</time>
      </trkpt>
      <trkpt lat="47.95393" lon="-0.4344">
        <ele>79.6</ele>
        <time>2024-04-14T10:52:09Z</time>
      </trkpt>
      <trkpt lat="47.95393" lon="-0.43438">
        <ele>79.6</ele>
        <time>2024-04-14T10:52:10Z</time>
      </trkpt>
      <trkpt lat="47.95392" lon="-0.43437">
        <ele>79.6</ele>
        <time>2024-04-14T10:52:11Z</time>
      </trkpt>
      <trkpt lat="47.95391" lon="-0.43435">
        <ele>80</ele>
        <time>2024-04-14T10:52:12Z</time>
      </trkpt>
      <trkpt lat="47.95391" lon="-0.43433">
        <ele>80</ele>
        <time>2024-04-14T10:52:13Z</time>
      </trkpt>
      <trkpt lat="47.9539" lon="-0.43431">
        <ele>80</ele>
        <time>2024-04-14T10:52:14Z</time>
      </trkpt>
      <trkpt lat="47.9539" lon="-0.43429">
        <ele>80</ele>
        <time>2024-04-14T10:52:15Z</time>
      </trkpt>
      <trkpt lat="47.95389" lon="-0.43427">
        <ele>79.6</ele>
        <time>2024-04-14T10:52:16Z</time>
      </trkpt>
      <trkpt lat="47.95389" lon="-0.43426">
        <ele>79.6</ele>
        <time>2024-04-14T10:52:17Z</time>
      </trkpt>
      <trkpt lat="47.95388" lon="-0.43424">
        <ele>79.6</ele>
        <time>2024-04-14T10:52:18Z</time>
      </trkpt>
      <trkpt lat="47.95387" lon="-0.43422">
        <ele>79.6</ele>
        <time>2024-04-14T10:52:19Z</time>
      </trkpt>
      <trkpt lat="47.95386" lon="-0.4342">
        <ele>79.2</ele>
        <time>2024-04-14T10:52:20Z</time>
      </trkpt>
      <trkpt lat="47.95386" lon="-0.43418">
        <ele>79</ele>
        <time>2024-04-14T10:52:21Z</time>
      </trkpt>
      <trkpt lat="47.95385" lon="-0.43416">
        <ele>79</ele>
        <time>2024-04-14T10:52:22Z</time>
      </trkpt>
      <trkpt lat="47.95385" lon="-0.43414">
        <ele>79</ele>
        <time>2024-04-14T10:52:23Z</time>
      </trkpt>
      <trkpt lat="47.95384" lon="-0.43412">
        <ele>79</ele>
        <time>2024-04-14T10:52:24Z</time>
      </trkpt>
      <trkpt lat="47.95384" lon="-0.4341">
        <ele>79.6</ele>
        <time>2024-04-14T10:52:25Z</time>
      </trkpt>
      <trkpt lat="47.95384" lon="-0.43407">
        <ele>79.6</ele>
        <time>2024-04-14T10:52:26Z</time>
      </trkpt>
      <trkpt lat="47.95384" lon="-0.43405">
        <ele>79.6</ele>
        <time>2024-04-14T10:52:27Z</time>
      </trkpt>
      <trkpt lat="47.95385" lon="-0.43403">
        <ele>79.6</ele>
        <time>2024-04-14T10:52:28Z</time>
      </trkpt>
      <trkpt lat="47.95385" lon="-0.43402">
        <ele>78.6</ele>
        <time>2024-04-14T10:52:29Z</time>
      </trkpt>
      <trkpt lat="47.95386" lon="-0.434">
        <ele>78.6</ele>
        <time>2024-04-14T10:52:30Z</time>
      </trkpt>
      <trkpt lat="47.95387" lon="-0.43399">
        <ele>78.6</ele>
        <time>2024-04-14T10:52:31Z</time>
      </trkpt>
      <trkpt lat="47.95388" lon="-0.43398">
        <ele>79.6</ele>
        <time>2024-04-14T10:52:32Z</time>
      </trkpt>
      <trkpt lat="47.95389" lon="-0.43397">
        <ele>79.2</ele>
        <time>2024-04-14T10:52:33Z</time>
      </trkpt>
      <trkpt lat="47.95389" lon="-0.43396">
        <ele>79.2</ele>
        <time>2024-04-14T10:52:34Z</time>
      </trkpt>
      <trkpt lat="47.95389" lon="-0.43396">
        <ele>79.2</ele>
        <time>2024-04-14T10:52:35Z</time>
      </trkpt>
      <trkpt lat="47.95392" lon="-0.4339">
        <ele>78.6</ele>
        <time>2024-04-14T10:52:41Z</time>
      </trkpt>
      <trkpt lat="47.95393" lon="-0.43388">
        <ele>78.6</ele>
        <time>2024-04-14T10:52:42Z</time>
      </trkpt>
      <trkpt lat="47.95394" lon="-0.43386">
        <ele>78.6</ele>
        <time>2024-04-14T10:52:43Z</time>
      </trkpt>
      <trkpt lat="47.95396" lon="-0.43384">
        <ele>78.6</ele>
        <time>2024-04-14T10:52:44Z</time>
      </trkpt>
      <trkpt lat="47.95398" lon="-0.43382">
        <ele>78.2</ele>
        <time>2024-04-14T10:52:45Z</time>
      </trkpt>
      <trkpt lat="47.95399" lon="-0.4338">
        <ele>78.2</ele>
        <time>2024-04-14T10:52:46Z</time>
      </trkpt>
      <trkpt lat="47.95401" lon="-0.43378">
        <ele>78.2</ele>
        <time>2024-04-14T10:52:47Z</time>
      </trkpt>
      <trkpt lat="47.95403" lon="-0.43376">
        <ele>78.2</ele>
        <time>2024-04-14T10:52:48Z</time>
      </trkpt>
      <trkpt lat="47.95405" lon="-0.43374">
        <ele>78.8</ele>
        <time>2024-04-14T10:52:49Z</time>
      </trkpt>
      <trkpt lat="47.95407" lon="-0.43372">
        <ele>78.8</ele>
        <time>2024-04-14T10:52:50Z</time>
      </trkpt>
      <trkpt lat="47.95409" lon="-0.43369">
        <ele>78.8</ele>
        <time>2024-04-14T10:52:51Z</time>
      </trkpt>
      <trkpt lat="47.9541" lon="-0.43367">
        <ele>77.8</ele>
        <time>2024-04-14T10:52:52Z</time>
      </trkpt>
      <trkpt lat="47.95413" lon="-0.43364">
        <ele>78.2</ele>
        <time>2024-04-14T10:52:53Z</time>
      </trkpt>
      <trkpt lat="47.95415" lon="-0.43362">
        <ele>78.2</ele>
        <time>2024-04-14T10:52:54Z</time>
      </trkpt>
      <trkpt lat="47.95417" lon="-0.4336">
        <ele>78.2</ele>
        <time>2024-04-14T10:52:55Z</time>
      </trkpt>
      <trkpt lat="47.95419" lon="-0.43358">
        <ele>78.2</ele>
        <time>2024-04-14T10:52:56Z</time>
      </trkpt>
      <trkpt lat="47.95421" lon="-0.43355">
        <ele>78.2</ele>
        <time>2024-04-14T10:52:57Z</time>
      </trkpt>
      <trkpt lat="47.95424" lon="-0.43353">
        <ele>78.2</ele>
        <time>2024-04-14T10:52:58Z</time>
      </trkpt>
      <trkpt lat="47.95427" lon="-0.43351">
        <ele>78.2</ele>
        <time>2024-04-14T10:52:59Z</time>
      </trkpt>
      <trkpt lat="47.95429" lon="-0.43348">
        <ele>78.2</ele>
        <time>2024-04-14T10:53:00Z</time>
      </trkpt>
      <trkpt lat="47.95432" lon="-0.43346">
        <ele>77.6</ele>
        <time>2024-04-14T10:53:01Z</time>
      </trkpt>
      <trkpt lat="47.95434" lon="-0.43343">
        <ele>77.6</ele>
        <time>2024-04-14T10:53:02Z</time>
      </trkpt>
      <trkpt lat="47.95437" lon="-0.4334">
        <ele>77.6</ele>
        <time>2024-04-14T10:53:03Z</time>
      </trkpt>
      <trkpt lat="47.95439" lon="-0.43338">
        <ele>77.6</ele>
        <time>2024-04-14T10:53:04Z</time>
      </trkpt>
      <trkpt lat="47.95441" lon="-0.43336">
        <ele>76.4</ele>
        <time>2024-04-14T10:53:05Z</time>
      </trkpt>
      <trkpt lat="47.95443" lon="-0.43334">
        <ele>76.4</ele>
        <time>2024-04-14T10:53:06Z</time>
      </trkpt>
      <trkpt lat="47.95445" lon="-0.43332">
        <ele>76.4</ele>
        <time>2024-04-14T10:53:07Z</time>
      </trkpt>
      <trkpt lat="47.95447" lon="-0.4333">
        <ele>76.8</ele>
        <time>2024-04-14T10:53:08Z</time>
      </trkpt>
      <trkpt lat="47.95449" lon="-0.43327">
        <ele>75.4</ele>
        <time>2024-04-14T10:53:09Z</time>
      </trkpt>
      <trkpt lat="47.95451" lon="-0.43325">
        <ele>75.4</ele>
        <time>2024-04-14T10:53:10Z</time>
      </trkpt>
      <trkpt lat="47.95453" lon="-0.43324">
        <ele>75.4</ele>
        <time>2024-04-14T10:53:11Z</time>
      </trkpt>
      <trkpt lat="47.95455" lon="-0.43321">
        <ele>75.8</ele>
        <time>2024-04-14T10:53:12Z</time>
      </trkpt>
      <trkpt lat="47.95457" lon="-0.43319">
        <ele>76.2</ele>
        <time>2024-04-14T10:53:13Z</time>
      </trkpt>
      <trkpt lat="47.95459" lon="-0.43316">
        <ele>76.2</ele>
        <time>2024-04-14T10:53:14Z</time>
      </trkpt>
      <trkpt lat="47.95461" lon="-0.43313">
        <ele>76.2</ele>
        <time>2024-04-14T10:53:15Z</time>
      </trkpt>
      <trkpt lat="47.95463" lon="-0.4331">
        <ele>76.2</ele>
        <time>2024-04-14T10:53:16Z</time>
      </trkpt>
      <trkpt lat="47.95466" lon="-0.43307">
        <ele>75.4</ele>
        <time>2024-04-14T10:53:17Z</time>
      </trkpt>
      <trkpt lat="47.95468" lon="-0.43304">
        <ele>75.4</ele>
        <time>2024-04-14T10:53:18Z</time>
      </trkpt>
      <trkpt lat="47.9547" lon="-0.43302">
        <ele>75.4</ele>
        <time>2024-04-14T10:53:19Z</time>
      </trkpt>
      <trkpt lat="47.95472" lon="-0.43299">
        <ele>76.4</ele>
        <time>2024-04-14T10:53:20Z</time>
      </trkpt>
      <trkpt lat="47.95474" lon="-0.43297">
        <ele>75.8</ele>
        <time>2024-04-14T10:53:21Z</time>
      </trkpt>
      <trkpt lat="47.95476" lon="-0.43295">
        <ele>75.8</ele>
        <time>2024-04-14T10:53:22Z</time>
      </trkpt>
      <trkpt lat="47.95478" lon="-0.43293">
        <ele>75.8</ele>
        <time>2024-04-14T10:53:23Z</time>
      </trkpt>
      <trkpt lat="47.9548" lon="-0.43293">
        <ele>75.8</ele>
        <time>2024-04-14T10:53:24Z</time>
      </trkpt>
      <trkpt lat="47.95482" lon="-0.43293">
        <ele>76.4</ele>
        <time>2024-04-14T10:53:25Z</time>
      </trkpt>
      <trkpt lat="47.95484" lon="-0.43294">
        <ele>76.4</ele>
        <time>2024-04-14T10:53:26Z</time>
      </trkpt>
      <trkpt lat="47.95486" lon="-0.43296">
        <ele>76.4</ele>
        <time>2024-04-14T10:53:27Z</time>
      </trkpt>
      <trkpt lat="47.95487" lon="-0.43297">
        <ele>76.4</ele>
        <time>2024-04-14T10:53:28Z</time>
      </trkpt>
      <trkpt lat="47.95489" lon="-0.43299">
        <ele>76.6</ele>
        <time>2024-04-14T10:53:29Z</time>
      </trkpt>
      <trkpt lat="47.9549" lon="-0.43299">
        <ele>76.6</ele>
        <time>2024-04-14T10:53:30Z</time>
      </trkpt>
      <trkpt lat="47.9549" lon="-0.43299">
        <ele>76.6</ele>
        <time>2024-04-14T10:53:31Z</time>
      </trkpt>
      <trkpt lat="47.9549" lon="-0.43299">
        <ele>76.2</ele>
        <time>2024-04-14T10:53:32Z</time>
      </trkpt>
      <trkpt lat="47.95492" lon="-0.43302">
        <ele>76.2</ele>
        <time>2024-04-14T10:53:36Z</time>
      </trkpt>
      <trkpt lat="47.95493" lon="-0.43304">
        <ele>76</ele>
        <time>2024-04-14T10:53:37Z</time>
      </trkpt>
      <trkpt lat="47.95494" lon="-0.43305">
        <ele>76</ele>
        <time>2024-04-14T10:53:38Z</time>
      </trkpt>
      <trkpt lat="47.95494" lon="-0.43306">
        <ele>76</ele>
        <time>2024-04-14T10:53:39Z</time>
      </trkpt>
      <trkpt lat="47.95495" lon="-0.43308">
        <ele>76.4</ele>
        <time>2024-04-14T10:53:40Z</time>
      </trkpt>
      <trkpt lat="47.95496" lon="-0.43309">
        <ele>76.4</ele>
        <time>2024-04-14T10:53:41Z</time>
      </trkpt>
      <trkpt lat="47.95496" lon="-0.43309">
        <ele>76.4</ele>
        <time>2024-04-14T10:53:42Z</time>
      </trkpt>
      <trkpt lat="47.95497" lon="-0.4331">
        <ele>76.4</ele>
        <time>2024-04-14T10:53:43Z</time>
      </trkpt>
      <trkpt lat="47.95498" lon="-0.43311">
        <ele>76.4</ele>
        <time>2024-04-14T10:53:44Z</time>
      </trkpt>
      <trkpt lat="47.95498" lon="-0.43312">
        <ele>76.2</ele>
        <time>2024-04-14T10:53:45Z</time>
      </trkpt>
      <trkpt lat="47.95499" lon="-0.43312">
        <ele>76.2</ele>
        <time>2024-04-14T10:53:46Z</time>
      </trkpt>
      <trkpt lat="47.955" lon="-0.43313">
        <ele>76.2</ele>
        <time>2024-04-14T10:53:47Z</time>
      </trkpt>
      <trkpt lat="47.955" lon="-0.43313">
        <ele>76.6</ele>
        <time>2024-04-14T10:53:48Z</time>
      </trkpt>
      <trkpt lat="47.95501" lon="-0.43314">
        <ele>77</ele>
        <time>2024-04-14T10:53:49Z</time>
      </trkpt>
      <trkpt lat="47.95502" lon="-0.43315">
        <ele>77</ele>
        <time>2024-04-14T10:53:50Z</time>
      </trkpt>
      <trkpt lat="47.95503" lon="-0.43315">
        <ele>77</ele>
        <time>2024-04-14T10:53:51Z</time>
      </trkpt>
      <trkpt lat="47.95504" lon="-0.43316">
        <ele>77</ele>
        <time>2024-04-14T10:53:52Z</time>
      </trkpt>
      <trkpt lat="47.95504" lon="-0.43317">
        <ele>77</ele>
        <time>2024-04-14T10:53:53Z</time>
      </trkpt>
      <trkpt lat="47.95505" lon="-0.43317">
        <ele>77</ele>
        <time>2024-04-14T10:53:54Z</time>
      </trkpt>
      <trkpt lat="47.95506" lon="-0.43317">
        <ele>77</ele>
        <time>2024-04-14T10:53:55Z</time>
      </trkpt>
      <trkpt lat="47.95506" lon="-0.43318">
        <ele>77</ele>
        <time>2024-04-14T10:53:56Z</time>
      </trkpt>
      <trkpt lat="47.95507" lon="-0.43318">
        <ele>77</ele>
        <time>2024-04-14T10:53:57Z</time>
      </trkpt>
      <trkpt lat="47.95508" lon="-0.43319">
        <ele>77</ele>
        <time>2024-04-14T10:53:58Z</time>
      </trkpt>
      <trkpt lat="47.95509" lon="-0.4332">
        <ele>77</ele>
        <time>2024-04-14T10:53:59Z</time>
      </trkpt>
      <trkpt lat="47.9551" lon="-0.43321">
        <ele>77.2</ele>
        <time>2024-04-14T10:54:00Z</time>
      </trkpt>
      <trkpt lat="47.95511" lon="-0.43322">
        <ele>77.8</ele>
        <time>2024-04-14T10:54:01Z</time>
      </trkpt>
      <trkpt lat="47.95511" lon="-0.43323">
        <ele>77.8</ele>
        <time>2024-04-14T10:54:02Z</time>
      </trkpt>
      <trkpt lat="47.95512" lon="-0.43323">
        <ele>77.8</ele>
        <time>2024-04-14T10:54:03Z</time>
      </trkpt>
      <trkpt lat="47.95513" lon="-0.43323">
        <ele>77.6</ele>
        <time>2024-04-14T10:54:04Z</time>
      </trkpt>
      <trkpt lat="47.95514" lon="-0.43324">
        <ele>77.6</ele>
        <time>2024-04-14T10:54:05Z</time>
      </trkpt>
      <trkpt lat="47.95515" lon="-0.43325">
        <ele>77.6</ele>
        <time>2024-04-14T10:54:06Z</time>
      </trkpt>
      <trkpt lat="47.95516" lon="-0.43326">
        <ele>77.6</ele>
        <time>2024-04-14T10:54:07Z</time>
      </trkpt>
      <trkpt lat="47.95517" lon="-0.43327">
        <ele>77.6</ele>
        <time>2024-04-14T10:54:08Z</time>
      </trkpt>
      <trkpt lat="47.95518" lon="-0.43328">
        <ele>78</ele>
        <time>2024-04-14T10:54:09Z</time>
      </trkpt>
      <trkpt lat="47.95519" lon="-0.43329">
        <ele>78</ele>
        <time>2024-04-14T10:54:10Z</time>
      </trkpt>
      <trkpt lat="47.9552" lon="-0.4333">
        <ele>78</ele>
        <time>2024-04-14T10:54:11Z</time>
      </trkpt>
      <trkpt lat="47.95521" lon="-0.43331">
        <ele>78</ele>
        <time>2024-04-14T10:54:12Z</time>
      </trkpt>
      <trkpt lat="47.95521" lon="-0.43332">
        <ele>77.2</ele>
        <time>2024-04-14T10:54:13Z</time>
      </trkpt>
      <trkpt lat="47.95522" lon="-0.43334">
        <ele>77.2</ele>
        <time>2024-04-14T10:54:14Z</time>
      </trkpt>
      <trkpt lat="47.95523" lon="-0.43335">
        <ele>77.2</ele>
        <time>2024-04-14T10:54:15Z</time>
      </trkpt>
      <trkpt lat="47.95524" lon="-0.43336">
        <ele>77.2</ele>
        <time>2024-04-14T10:54:16Z</time>
      </trkpt>
      <trkpt lat="47.95525" lon="-0.43337">
        <ele>77.8</ele>
        <time>2024-04-14T10:54:17Z</time>
      </trkpt>
      <trkpt lat="47.95525" lon="-0.43339">
        <ele>77.8</ele>
        <time>2024-04-14T10:54:18Z</time>
      </trkpt>
      <trkpt lat="47.95526" lon="-0.4334">
        <ele>77.8</ele>
        <time>2024-04-14T10:54:19Z</time>
      </trkpt>
      <trkpt lat="47.95527" lon="-0.43342">
        <ele>77.8</ele>
        <time>2024-04-14T10:54:20Z</time>
      </trkpt>
      <trkpt lat="47.95528" lon="-0.43343">
        <ele>77.8</ele>
        <time>2024-04-14T10:54:21Z</time>
      </trkpt>
      <trkpt lat="47.95528" lon="-0.43344">
        <ele>77.8</ele>
        <time>2024-04-14T10:54:22Z</time>
      </trkpt>
      <trkpt lat="47.95529" lon="-0.43346">
        <ele>77.8</ele>
        <time>2024-04-14T10:54:23Z</time>
      </trkpt>
      <trkpt lat="47.9553" lon="-0.43347">
        <ele>77.8</ele>
        <time>2024-04-14T10:54:24Z</time>
      </trkpt>
      <trkpt lat="47.95531" lon="-0.43348">
        <ele>78.2</ele>
        <time>2024-04-14T10:54:25Z</time>
      </trkpt>
      <trkpt lat="47.95532" lon="-0.43349">
        <ele>78.2</ele>
        <time>2024-04-14T10:54:26Z</time>
      </trkpt>
      <trkpt lat="47.95532" lon="-0.43351">
        <ele>78.2</ele>
        <time>2024-04-14T10:54:27Z</time>
      </trkpt>
      <trkpt lat="47.95533" lon="-0.43353">
        <ele>77.6</ele>
        <time>2024-04-14T10:54:28Z</time>
      </trkpt>
      <trkpt lat="47.95534" lon="-0.43354">
        <ele>78</ele>
        <time>2024-04-14T10:54:29Z</time>
      </trkpt>
      <trkpt lat="47.95535" lon="-0.43356">
        <ele>78</ele>
        <time>2024-04-14T10:54:30Z</time>
      </trkpt>
      <trkpt lat="47.95536" lon="-0.43357">
        <ele>78</ele>
        <time>2024-04-14T10:54:31Z</time>
      </trkpt>
      <trkpt lat="47.95537" lon="-0.43358">
        <ele>77.8</ele>
        <time>2024-04-14T10:54:32Z</time>
      </trkpt>
      <trkpt lat="47.95538" lon="-0.43359">
        <ele>78</ele>
        <time>2024-04-14T10:54:33Z</time>
      </trkpt>
      <trkpt lat="47.95538" lon="-0.4336">
        <ele>78</ele>
        <time>2024-04-14T10:54:34Z</time>
      </trkpt>
      <trkpt lat="47.95539" lon="-0.43361">
        <ele>78</ele>
        <time>2024-04-14T10:54:35Z</time>
      </trkpt>
      <trkpt lat="47.9554" lon="-0.43362">
        <ele>78</ele>
        <time>2024-04-14T10:54:36Z</time>
      </trkpt>
      <trkpt lat="47.95541" lon="-0.43363">
        <ele>78</ele>
        <time>2024-04-14T10:54:37Z</time>
      </trkpt>
      <trkpt lat="47.95542" lon="-0.43364">
        <ele>78</ele>
        <time>2024-04-14T10:54:38Z</time>
      </trkpt>
      <trkpt lat="47.95542" lon="-0.43365">
        <ele>78</ele>
        <time>2024-04-14T10:54:39Z</time>
      </trkpt>
      <trkpt lat="47.95543" lon="-0.43367">
        <ele>78</ele>
        <time>2024-04-14T10:54:40Z</time>
      </trkpt>
      <trkpt lat="47.95544" lon="-0.43368">
        <ele>78.2</ele>
        <time>2024-04-14T10:54:41Z</time>
      </trkpt>
      <trkpt lat="47.95544" lon="-0.4337">
        <ele>78.2</ele>
        <time>2024-04-14T10:54:42Z</time>
      </trkpt>
      <trkpt lat="47.95546" lon="-0.43372">
        <ele>78.2</ele>
        <time>2024-04-14T10:54:43Z</time>
      </trkpt>
      <trkpt lat="47.95547" lon="-0.43373">
        <ele>78.2</ele>
        <time>2024-04-14T10:54:44Z</time>
      </trkpt>
      <trkpt lat="47.95547" lon="-0.43375">
        <ele>78.6</ele>
        <time>2024-04-14T10:54:45Z</time>
      </trkpt>
      <trkpt lat="47.95548" lon="-0.43377">
        <ele>78.6</ele>
        <time>2024-04-14T10:54:46Z</time>
      </trkpt>
      <trkpt lat="47.95549" lon="-0.43377">
        <ele>78.6</ele>
        <time>2024-04-14T10:54:47Z</time>
      </trkpt>
      <trkpt lat="47.9555" lon="-0.43378">
        <ele>78.6</ele>
        <time>2024-04-14T10:54:48Z</time>
      </trkpt>
      <trkpt lat="47.95551" lon="-0.43379">
        <ele>78.8</ele>
        <time>2024-04-14T10:54:49Z</time>
      </trkpt>
      <trkpt lat="47.95552" lon="-0.4338">
        <ele>78.8</ele>
        <time>2024-04-14T10:54:50Z</time>
      </trkpt>
      <trkpt lat="47.95553" lon="-0.43382">
        <ele>78.8</ele>
        <time>2024-04-14T10:54:51Z</time>
      </trkpt>
      <trkpt lat="47.95554" lon="-0.43383">
        <ele>78.6</ele>
        <time>2024-04-14T10:54:52Z</time>
      </trkpt>
      <trkpt lat="47.95555" lon="-0.43384">
        <ele>78.6</ele>
        <time>2024-04-14T10:54:53Z</time>
      </trkpt>
      <trkpt lat="47.95556" lon="-0.43385">
        <ele>78.6</ele>
        <time>2024-04-14T10:54:54Z</time>
      </trkpt>
      <trkpt lat="47.95557" lon="-0.43386">
        <ele>78.6</ele>
        <time>2024-04-14T10:54:55Z</time>
      </trkpt>
      <trkpt lat="47.95558" lon="-0.43388">
        <ele>78.6</ele>
        <time>2024-04-14T10:54:56Z</time>
      </trkpt>
      <trkpt lat="47.95559" lon="-0.43389">
        <ele>78.2</ele>
        <time>2024-04-14T10:54:57Z</time>
      </trkpt>
      <trkpt lat="47.9556" lon="-0.4339">
        <ele>78.2</ele>
        <time>2024-04-14T10:54:58Z</time>
      </trkpt>
      <trkpt lat="47.95561" lon="-0.4339">
        <ele>78.2</ele>
        <time>2024-04-14T10:54:59Z</time>
      </trkpt>
      <trkpt lat="47.95562" lon="-0.43391">
        <ele>78.2</ele>
        <time>2024-04-14T10:55:00Z</time>
      </trkpt>
      <trkpt lat="47.95563" lon="-0.43393">
        <ele>78.6</ele>
        <time>2024-04-14T10:55:01Z</time>
      </trkpt>
      <trkpt lat="47.95564" lon="-0.43394">
        <ele>78.6</ele>
        <time>2024-04-14T10:55:02Z</time>
      </trkpt>
      <trkpt lat="47.95564" lon="-0.43395">
        <ele>78.6</ele>
        <time>2024-04-14T10:55:03Z</time>
      </trkpt>
      <trkpt lat="47.95565" lon="-0.43396">
        <ele>78.6</ele>
        <time>2024-04-14T10:55:04Z</time>
      </trkpt>
      <trkpt lat="47.95566" lon="-0.43397">
        <ele>78.6</ele>
        <time>2024-04-14T10:55:05Z</time>
      </trkpt>
      <trkpt lat="47.95567" lon="-0.43398">
        <ele>78.6</ele>
        <time>2024-04-14T10:55:06Z</time>
      </trkpt>
      <trkpt lat="47.95567" lon="-0.43399">
        <ele>78.6</ele>
        <time>2024-04-14T10:55:07Z</time>
      </trkpt>
      <trkpt lat="47.95568" lon="-0.434">
        <ele>78.6</ele>
        <time>2024-04-14T10:55:08Z</time>
      </trkpt>
      <trkpt lat="47.95569" lon="-0.43401">
        <ele>78.6</ele>
        <time>2024-04-14T10:55:09Z</time>
      </trkpt>
      <trkpt lat="47.95569" lon="-0.43402">
        <ele>78.6</ele>
        <time>2024-04-14T10:55:10Z</time>
      </trkpt>
      <trkpt lat="47.9557" lon="-0.43403">
        <ele>78.6</ele>
        <time>2024-04-14T10:55:11Z</time>
      </trkpt>
      <trkpt lat="47.95571" lon="-0.43404">
        <ele>78.6</ele>
        <time>2024-04-14T10:55:12Z</time>
      </trkpt>
      <trkpt lat="47.95571" lon="-0.43405">
        <ele>79.2</ele>
        <time>2024-04-14T10:55:13Z</time>
      </trkpt>
      <trkpt lat="47.95572" lon="-0.43407">
        <ele>79.2</ele>
        <time>2024-04-14T10:55:14Z</time>
      </trkpt>
      <trkpt lat="47.95573" lon="-0.43408">
        <ele>79.2</ele>
        <time>2024-04-14T10:55:15Z</time>
      </trkpt>
      <trkpt lat="47.95573" lon="-0.43409">
        <ele>79.2</ele>
        <time>2024-04-14T10:55:16Z</time>
      </trkpt>
      <trkpt lat="47.95574" lon="-0.4341">
        <ele>79</ele>
        <time>2024-04-14T10:55:17Z</time>
      </trkpt>
      <trkpt lat="47.95575" lon="-0.43411">
        <ele>79</ele>
        <time>2024-04-14T10:55:18Z</time>
      </trkpt>
      <trkpt lat="47.95575" lon="-0.43413">
        <ele>79</ele>
        <time>2024-04-14T10:55:19Z</time>
      </trkpt>
      <trkpt lat="47.95576" lon="-0.43414">
        <ele>79</ele>
        <time>2024-04-14T10:55:20Z</time>
      </trkpt>
      <trkpt lat="47.95577" lon="-0.43415">
        <ele>79.4</ele>
        <time>2024-04-14T10:55:21Z</time>
      </trkpt>
      <trkpt lat="47.95578" lon="-0.43416">
        <ele>79.4</ele>
        <time>2024-04-14T10:55:22Z</time>
      </trkpt>
      <trkpt lat="47.95578" lon="-0.43418">
        <ele>79.4</ele>
        <time>2024-04-14T10:55:23Z</time>
      </trkpt>
      <trkpt lat="47.95579" lon="-0.43419">
        <ele>79.4</ele>
        <time>2024-04-14T10:55:24Z</time>
      </trkpt>
      <trkpt lat="47.9558" lon="-0.43421">
        <ele>79.6</ele>
        <time>2024-04-14T10:55:25Z</time>
      </trkpt>
      <trkpt lat="47.9558" lon="-0.43422">
        <ele>79.6</ele>
        <time>2024-04-14T10:55:26Z</time>
      </trkpt>
      <trkpt lat="47.95581" lon="-0.43424">
        <ele>79.6</ele>
        <time>2024-04-14T10:55:27Z</time>
      </trkpt>
      <trkpt lat="47.95581" lon="-0.43426">
        <ele>79.6</ele>
        <time>2024-04-14T10:55:28Z</time>
      </trkpt>
      <trkpt lat="47.95582" lon="-0.43428">
        <ele>80</ele>
        <time>2024-04-14T10:55:29Z</time>
      </trkpt>
      <trkpt lat="47.95583" lon="-0.4343">
        <ele>80</ele>
        <time>2024-04-14T10:55:30Z</time>
      </trkpt>
      <trkpt lat="47.95583" lon="-0.43432">
        <ele>80</ele>
        <time>2024-04-14T10:55:31Z</time>
      </trkpt>
      <trkpt lat="47.95584" lon="-0.43434">
        <ele>80</ele>
        <time>2024-04-14T10:55:32Z</time>
      </trkpt>
      <trkpt lat="47.95585" lon="-0.43435">
        <ele>80.6</ele>
        <time>2024-04-14T10:55:33Z</time>
      </trkpt>
      <trkpt lat="47.95585" lon="-0.43436">
        <ele>80.6</ele>
        <time>2024-04-14T10:55:34Z</time>
      </trkpt>
      <trkpt lat="47.95586" lon="-0.43438">
        <ele>80.6</ele>
        <time>2024-04-14T10:55:35Z</time>
      </trkpt>
      <trkpt lat="47.95587" lon="-0.4344">
        <ele>80.6</ele>
        <time>2024-04-14T10:55:36Z</time>
      </trkpt>
      <trkpt lat="47.95587" lon="-0.43442">
        <ele>80</ele>
        <time>2024-04-14T10:55:37Z</time>
      </trkpt>
      <trkpt lat="47.95588" lon="-0.43443">
        <ele>80</ele>
        <time>2024-04-14T10:55:38Z</time>
      </trkpt>
      <trkpt lat="47.95589" lon="-0.43445">
        <ele>80</ele>
        <time>2024-04-14T10:55:39Z</time>
      </trkpt>
      <trkpt lat="47.95589" lon="-0.43446">
        <ele>80.6</ele>
        <time>2024-04-14T10:55:40Z</time>
      </trkpt>
      <trkpt lat="47.95589" lon="-0.43447">
        <ele>80.4</ele>
        <time>2024-04-14T10:55:41Z</time>
      </trkpt>
      <trkpt lat="47.9559" lon="-0.43448">
        <ele>80.4</ele>
        <time>2024-04-14T10:55:42Z</time>
      </trkpt>
      <trkpt lat="47.9559" lon="-0.43449">
        <ele>80.4</ele>
        <time>2024-04-14T10:55:43Z</time>
      </trkpt>
      <trkpt lat="47.95591" lon="-0.4345">
        <ele>80.4</ele>
        <time>2024-04-14T10:55:44Z</time>
      </trkpt>
      <trkpt lat="47.95591" lon="-0.43452">
        <ele>80.6</ele>
        <time>2024-04-14T10:55:45Z</time>
      </trkpt>
      <trkpt lat="47.95592" lon="-0.43453">
        <ele>80.6</ele>
        <time>2024-04-14T10:55:46Z</time>
      </trkpt>
      <trkpt lat="47.95592" lon="-0.43455">
        <ele>80.6</ele>
        <time>2024-04-14T10:55:47Z</time>
      </trkpt>
      <trkpt lat="47.95592" lon="-0.43456">
        <ele>81</ele>
        <time>2024-04-14T10:55:48Z</time>
      </trkpt>
      <trkpt lat="47.95593" lon="-0.43458">
        <ele>80</ele>
        <time>2024-04-14T10:55:49Z</time>
      </trkpt>
      <trkpt lat="47.95594" lon="-0.4346">
        <ele>80</ele>
        <time>2024-04-14T10:55:50Z</time>
      </trkpt>
      <trkpt lat="47.95594" lon="-0.43462">
        <ele>80</ele>
        <time>2024-04-14T10:55:51Z</time>
      </trkpt>
      <trkpt lat="47.95595" lon="-0.43464">
        <ele>81</ele>
        <time>2024-04-14T10:55:52Z</time>
      </trkpt>
      <trkpt lat="47.95595" lon="-0.43466">
        <ele>81</ele>
        <time>2024-04-14T10:55:53Z</time>
      </trkpt>
      <trkpt lat="47.95595" lon="-0.43468">
        <ele>81</ele>
        <time>2024-04-14T10:55:54Z</time>
      </trkpt>
      <trkpt lat="47.95596" lon="-0.4347">
        <ele>81</ele>
        <time>2024-04-14T10:55:55Z</time>
      </trkpt>
      <trkpt lat="47.95596" lon="-0.43472">
        <ele>81</ele>
        <time>2024-04-14T10:55:56Z</time>
      </trkpt>
      <trkpt lat="47.95597" lon="-0.43474">
        <ele>81.6</ele>
        <time>2024-04-14T10:55:57Z</time>
      </trkpt>
      <trkpt lat="47.95597" lon="-0.43475">
        <ele>81.6</ele>
        <time>2024-04-14T10:55:58Z</time>
      </trkpt>
      <trkpt lat="47.95597" lon="-0.43477">
        <ele>81.6</ele>
        <time>2024-04-14T10:55:59Z</time>
      </trkpt>
      <trkpt lat="47.95598" lon="-0.43479">
        <ele>81</ele>
        <time>2024-04-14T10:56:00Z</time>
      </trkpt>
      <trkpt lat="47.95598" lon="-0.4348">
        <ele>81.2</ele>
        <time>2024-04-14T10:56:01Z</time>
      </trkpt>
      <trkpt lat="47.95598" lon="-0.43481">
        <ele>81.2</ele>
        <time>2024-04-14T10:56:02Z</time>
      </trkpt>
      <trkpt lat="47.95599" lon="-0.43483">
        <ele>81.2</ele>
        <time>2024-04-14T10:56:03Z</time>
      </trkpt>
      <trkpt lat="47.95599" lon="-0.43484">
        <ele>80.6</ele>
        <time>2024-04-14T10:56:04Z</time>
      </trkpt>
      <trkpt lat="47.95599" lon="-0.43486">
        <ele>81</ele>
        <time>2024-04-14T10:56:05Z</time>
      </trkpt>
      <trkpt lat="47.956" lon="-0.43488">
        <ele>81</ele>
        <time>2024-04-14T10:56:06Z</time>
      </trkpt>
      <trkpt lat="47.956" lon="-0.43489">
        <ele>81</ele>
        <time>2024-04-14T10:56:07Z</time>
      </trkpt>
      <trkpt lat="47.95601" lon="-0.4349">
        <ele>81</ele>
        <time>2024-04-14T10:56:08Z</time>
      </trkpt>
      <trkpt lat="47.95601" lon="-0.43491">
        <ele>81</ele>
        <time>2024-04-14T10:56:09Z</time>
      </trkpt>
      <trkpt lat="47.95601" lon="-0.43493">
        <ele>81</ele>
        <time>2024-04-14T10:56:10Z</time>
      </trkpt>
      <trkpt lat="47.95602" lon="-0.43493">
        <ele>81</ele>
        <time>2024-04-14T10:56:11Z</time>
      </trkpt>
      <trkpt lat="47.95602" lon="-0.43495">
        <ele>81.4</ele>
        <time>2024-04-14T10:56:12Z</time>
      </trkpt>
      <trkpt lat="47.95602" lon="-0.43496">
        <ele>81.4</ele>
        <time>2024-04-14T10:56:13Z</time>
      </trkpt>
      <trkpt lat="47.95602" lon="-0.43497">
        <ele>81.4</ele>
        <time>2024-04-14T10:56:14Z</time>
      </trkpt>
      <trkpt lat="47.95603" lon="-0.43498">
        <ele>81.4</ele>
        <time>2024-04-14T10:56:15Z</time>
      </trkpt>
      <trkpt lat="47.95604" lon="-0.435">
        <ele>80.4</ele>
        <time>2024-04-14T10:56:16Z</time>
      </trkpt>
      <trkpt lat="47.95604" lon="-0.43502">
        <ele>81.6</ele>
        <time>2024-04-14T10:56:17Z</time>
      </trkpt>
      <trkpt lat="47.95605" lon="-0.43503">
        <ele>81.6</ele>
        <time>2024-04-14T10:56:18Z</time>
      </trkpt>
      <trkpt lat="47.95605" lon="-0.43505">
        <ele>81.6</ele>
        <time>2024-04-14T10:56:19Z</time>
      </trkpt>
      <trkpt lat="47.95605" lon="-0.43506">
        <ele>81.6</ele>
        <time>2024-04-14T10:56:20Z</time>
      </trkpt>
      <trkpt lat="47.95606" lon="-0.43507">
        <ele>81.6</ele>
        <time>2024-04-14T10:56:21Z</time>
      </trkpt>
      <trkpt lat="47.95606" lon="-0.43508">
        <ele>81.6</ele>
        <time>2024-04-14T10:56:22Z</time>
      </trkpt>
      <trkpt lat="47.95606" lon="-0.4351">
        <ele>81.6</ele>
        <time>2024-04-14T10:56:23Z</time>
      </trkpt>
      <trkpt lat="47.95606" lon="-0.43511">
        <ele>81.8</ele>
        <time>2024-04-14T10:56:24Z</time>
      </trkpt>
      <trkpt lat="47.95606" lon="-0.43512">
        <ele>81.2</ele>
        <time>2024-04-14T10:56:25Z</time>
      </trkpt>
      <trkpt lat="47.95606" lon="-0.43514">
        <ele>81.2</ele>
        <time>2024-04-14T10:56:26Z</time>
      </trkpt>
      <trkpt lat="47.95606" lon="-0.43516">
        <ele>81.2</ele>
        <time>2024-04-14T10:56:27Z</time>
      </trkpt>
      <trkpt lat="47.95607" lon="-0.43518">
        <ele>82</ele>
        <time>2024-04-14T10:56:28Z</time>
      </trkpt>
      <trkpt lat="47.95607" lon="-0.43519">
        <ele>81.6</ele>
        <time>2024-04-14T10:56:29Z</time>
      </trkpt>
      <trkpt lat="47.95607" lon="-0.43521">
        <ele>81.6</ele>
        <time>2024-04-14T10:56:30Z</time>
      </trkpt>
      <trkpt lat="47.95608" lon="-0.43523">
        <ele>81.6</ele>
        <time>2024-04-14T10:56:31Z</time>
      </trkpt>
      <trkpt lat="47.95608" lon="-0.43525">
        <ele>82.2</ele>
        <time>2024-04-14T10:56:32Z</time>
      </trkpt>
      <trkpt lat="47.95608" lon="-0.43527">
        <ele>82</ele>
        <time>2024-04-14T10:56:33Z</time>
      </trkpt>
      <trkpt lat="47.95609" lon="-0.43529">
        <ele>82</ele>
        <time>2024-04-14T10:56:34Z</time>
      </trkpt>
      <trkpt lat="47.95609" lon="-0.4353">
        <ele>82</ele>
        <time>2024-04-14T10:56:35Z</time>
      </trkpt>
      <trkpt lat="47.95609" lon="-0.43532">
        <ele>81.8</ele>
        <time>2024-04-14T10:56:36Z</time>
      </trkpt>
      <trkpt lat="47.9561" lon="-0.43534">
        <ele>82</ele>
        <time>2024-04-14T10:56:37Z</time>
      </trkpt>
      <trkpt lat="47.9561" lon="-0.43536">
        <ele>82</ele>
        <time>2024-04-14T10:56:38Z</time>
      </trkpt>
      <trkpt lat="47.95611" lon="-0.43537">
        <ele>82</ele>
        <time>2024-04-14T10:56:39Z</time>
      </trkpt>
      <trkpt lat="47.95611" lon="-0.43539">
        <ele>82</ele>
        <time>2024-04-14T10:56:40Z</time>
      </trkpt>
      <trkpt lat="47.95612" lon="-0.4354">
        <ele>82</ele>
        <time>2024-04-14T10:56:41Z</time>
      </trkpt>
      <trkpt lat="47.95613" lon="-0.43542">
        <ele>82</ele>
        <time>2024-04-14T10:56:42Z</time>
      </trkpt>
      <trkpt lat="47.95613" lon="-0.43544">
        <ele>82</ele>
        <time>2024-04-14T10:56:43Z</time>
      </trkpt>
      <trkpt lat="47.95614" lon="-0.43546">
        <ele>82</ele>
        <time>2024-04-14T10:56:44Z</time>
      </trkpt>
      <trkpt lat="47.95615" lon="-0.43547">
        <ele>81.8</ele>
        <time>2024-04-14T10:56:45Z</time>
      </trkpt>
      <trkpt lat="47.95615" lon="-0.43549">
        <ele>81.8</ele>
        <time>2024-04-14T10:56:46Z</time>
      </trkpt>
      <trkpt lat="47.95616" lon="-0.4355">
        <ele>81.8</ele>
        <time>2024-04-14T10:56:47Z</time>
      </trkpt>
      <trkpt lat="47.95616" lon="-0.43552">
        <ele>81.8</ele>
        <time>2024-04-14T10:56:48Z</time>
      </trkpt>
      <trkpt lat="47.95617" lon="-0.43553">
        <ele>80.6</ele>
        <time>2024-04-14T10:56:49Z</time>
      </trkpt>
      <trkpt lat="47.95617" lon="-0.43555">
        <ele>80.6</ele>
        <time>2024-04-14T10:56:50Z</time>
      </trkpt>
      <trkpt lat="47.95618" lon="-0.43557">
        <ele>80.6</ele>
        <time>2024-04-14T10:56:51Z</time>
      </trkpt>
      <trkpt lat="47.95619" lon="-0.43558">
        <ele>81.6</ele>
        <time>2024-04-14T10:56:52Z</time>
      </trkpt>
      <trkpt lat="47.9562" lon="-0.4356">
        <ele>81.6</ele>
        <time>2024-04-14T10:56:53Z</time>
      </trkpt>
      <trkpt lat="47.9562" lon="-0.43561">
        <ele>81.6</ele>
        <time>2024-04-14T10:56:54Z</time>
      </trkpt>
      <trkpt lat="47.95621" lon="-0.43563">
        <ele>81.6</ele>
        <time>2024-04-14T10:56:55Z</time>
      </trkpt>
      <trkpt lat="47.95621" lon="-0.43564">
        <ele>81.6</ele>
        <time>2024-04-14T10:56:56Z</time>
      </trkpt>
      <trkpt lat="47.95622" lon="-0.43566">
        <ele>81.4</ele>
        <time>2024-04-14T10:56:57Z</time>
      </trkpt>
      <trkpt lat="47.95623" lon="-0.43567">
        <ele>81.4</ele>
        <time>2024-04-14T10:56:58Z</time>
      </trkpt>
      <trkpt lat="47.95624" lon="-0.43569">
        <ele>81.4</ele>
        <time>2024-04-14T10:56:59Z</time>
      </trkpt>
      <trkpt lat="47.95625" lon="-0.4357">
        <ele>81.4</ele>
        <time>2024-04-14T10:57:00Z</time>
      </trkpt>
      <trkpt lat="47.95626" lon="-0.43571">
        <ele>81.6</ele>
        <time>2024-04-14T10:57:01Z</time>
      </trkpt>
      <trkpt lat="47.95626" lon="-0.43572">
        <ele>81.6</ele>
        <time>2024-04-14T10:57:02Z</time>
      </trkpt>
      <trkpt lat="47.95627" lon="-0.43572">
        <ele>81.6</ele>
        <time>2024-04-14T10:57:03Z</time>
      </trkpt>
      <trkpt lat="47.95628" lon="-0.43573">
        <ele>81.6</ele>
        <time>2024-04-14T10:57:04Z</time>
      </trkpt>
      <trkpt lat="47.95628" lon="-0.43574">
        <ele>82.2</ele>
        <time>2024-04-14T10:57:05Z</time>
      </trkpt>
      <trkpt lat="47.95629" lon="-0.43574">
        <ele>82.2</ele>
        <time>2024-04-14T10:57:06Z</time>
      </trkpt>
      <trkpt lat="47.9563" lon="-0.43574">
        <ele>82.2</ele>
        <time>2024-04-14T10:57:07Z</time>
      </trkpt>
      <trkpt lat="47.95631" lon="-0.43574">
        <ele>82</ele>
        <time>2024-04-14T10:57:08Z</time>
      </trkpt>
      <trkpt lat="47.95632" lon="-0.43575">
        <ele>82</ele>
        <time>2024-04-14T10:57:09Z</time>
      </trkpt>
      <trkpt lat="47.95633" lon="-0.43575">
        <ele>82</ele>
        <time>2024-04-14T10:57:10Z</time>
      </trkpt>
      <trkpt lat="47.95634" lon="-0.43575">
        <ele>82</ele>
        <time>2024-04-14T10:57:11Z</time>
      </trkpt>
      <trkpt lat="47.95635" lon="-0.43575">
        <ele>82</ele>
        <time>2024-04-14T10:57:12Z</time>
      </trkpt>
      <trkpt lat="47.95635" lon="-0.43575">
        <ele>82.6</ele>
        <time>2024-04-14T10:57:13Z</time>
      </trkpt>
      <trkpt lat="47.95636" lon="-0.43575">
        <ele>82.6</ele>
        <time>2024-04-14T10:57:14Z</time>
      </trkpt>
      <trkpt lat="47.95637" lon="-0.43574">
        <ele>82.6</ele>
        <time>2024-04-14T10:57:15Z</time>
      </trkpt>
      <trkpt lat="47.95638" lon="-0.43574">
        <ele>81.8</ele>
        <time>2024-04-14T10:57:16Z</time>
      </trkpt>
      <trkpt lat="47.95638" lon="-0.43574">
        <ele>82.8</ele>
        <time>2024-04-14T10:57:17Z</time>
      </trkpt>
      <trkpt lat="47.95639" lon="-0.43574">
        <ele>82.8</ele>
        <time>2024-04-14T10:57:18Z</time>
      </trkpt>
      <trkpt lat="47.95639" lon="-0.43574">
        <ele>82.8</ele>
        <time>2024-04-14T10:57:19Z</time>
      </trkpt>
      <trkpt lat="47.95649" lon="-0.43572">
        <ele>83.4</ele>
        <time>2024-04-14T10:57:30Z</time>
      </trkpt>
      <trkpt lat="47.9565" lon="-0.43572">
        <ele>83.4</ele>
        <time>2024-04-14T10:57:31Z</time>
      </trkpt>
      <trkpt lat="47.95651" lon="-0.43571">
        <ele>83.4</ele>
        <time>2024-04-14T10:57:32Z</time>
      </trkpt>
      <trkpt lat="47.95652" lon="-0.43571">
        <ele>83</ele>
        <time>2024-04-14T10:57:33Z</time>
      </trkpt>
      <trkpt lat="47.95652" lon="-0.43571">
        <ele>83</ele>
        <time>2024-04-14T10:57:34Z</time>
      </trkpt>
      <trkpt lat="47.9566" lon="-0.4357">
        <ele>83.4</ele>
        <time>2024-04-14T10:57:50Z</time>
      </trkpt>
      <trkpt lat="47.95662" lon="-0.4357">
        <ele>83.4</ele>
        <time>2024-04-14T10:57:51Z</time>
      </trkpt>
      <trkpt lat="47.95663" lon="-0.4357">
        <ele>83.4</ele>
        <time>2024-04-14T10:57:52Z</time>
      </trkpt>
      <trkpt lat="47.95665" lon="-0.43569">
        <ele>83.6</ele>
        <time>2024-04-14T10:57:53Z</time>
      </trkpt>
      <trkpt lat="47.95666" lon="-0.43569">
        <ele>83.6</ele>
        <time>2024-04-14T10:57:54Z</time>
      </trkpt>
      <trkpt lat="47.95668" lon="-0.43569">
        <ele>83.6</ele>
        <time>2024-04-14T10:57:55Z</time>
      </trkpt>
      <trkpt lat="47.95669" lon="-0.43569">
        <ele>83.6</ele>
        <time>2024-04-14T10:57:56Z</time>
      </trkpt>
      <trkpt lat="47.9567" lon="-0.43569">
        <ele>84.6</ele>
        <time>2024-04-14T10:57:57Z</time>
      </trkpt>
      <trkpt lat="47.95671" lon="-0.43569">
        <ele>84.6</ele>
        <time>2024-04-14T10:57:58Z</time>
      </trkpt>
      <trkpt lat="47.95673" lon="-0.43568">
        <ele>84.6</ele>
        <time>2024-04-14T10:57:59Z</time>
      </trkpt>
      <trkpt lat="47.95674" lon="-0.43567">
        <ele>83.6</ele>
        <time>2024-04-14T10:58:00Z</time>
      </trkpt>
      <trkpt lat="47.95676" lon="-0.43566">
        <ele>83.8</ele>
        <time>2024-04-14T10:58:01Z</time>
      </trkpt>
      <trkpt lat="47.95678" lon="-0.43564">
        <ele>83.8</ele>
        <time>2024-04-14T10:58:02Z</time>
      </trkpt>
      <trkpt lat="47.9568" lon="-0.43563">
        <ele>83.8</ele>
        <time>2024-04-14T10:58:03Z</time>
      </trkpt>
      <trkpt lat="47.95683" lon="-0.43562">
        <ele>83.2</ele>
        <time>2024-04-14T10:58:04Z</time>
      </trkpt>
      <trkpt lat="47.95685" lon="-0.43561">
        <ele>83.4</ele>
        <time>2024-04-14T10:58:05Z</time>
      </trkpt>
      <trkpt lat="47.95688" lon="-0.4356">
        <ele>83.4</ele>
        <time>2024-04-14T10:58:06Z</time>
      </trkpt>
      <trkpt lat="47.9569" lon="-0.43559">
        <ele>83.4</ele>
        <time>2024-04-14T10:58:07Z</time>
      </trkpt>
      <trkpt lat="47.95691" lon="-0.43557">
        <ele>83.4</ele>
        <time>2024-04-14T10:58:08Z</time>
      </trkpt>
      <trkpt lat="47.95693" lon="-0.43556">
        <ele>82.4</ele>
        <time>2024-04-14T10:58:09Z</time>
      </trkpt>
      <trkpt lat="47.95695" lon="-0.43555">
        <ele>82.4</ele>
        <time>2024-04-14T10:58:10Z</time>
      </trkpt>
      <trkpt lat="47.95697" lon="-0.43555">
        <ele>82.4</ele>
        <time>2024-04-14T10:58:11Z</time>
      </trkpt>
      <trkpt lat="47.95699" lon="-0.43554">
        <ele>83.2</ele>
        <time>2024-04-14T10:58:12Z</time>
      </trkpt>
      <trkpt lat="47.957" lon="-0.43553">
        <ele>83</ele>
        <time>2024-04-14T10:58:13Z</time>
      </trkpt>
      <trkpt lat="47.95701" lon="-0.43552">
        <ele>83</ele>
        <time>2024-04-14T10:58:14Z</time>
      </trkpt>
      <trkpt lat="47.95702" lon="-0.43551">
        <ele>83</ele>
        <time>2024-04-14T10:58:15Z</time>
      </trkpt>
      <trkpt lat="47.95703" lon="-0.43551">
        <ele>82.6</ele>
        <time>2024-04-14T10:58:16Z</time>
      </trkpt>
      <trkpt lat="47.95704" lon="-0.4355">
        <ele>83</ele>
        <time>2024-04-14T10:58:17Z</time>
      </trkpt>
      <trkpt lat="47.95705" lon="-0.4355">
        <ele>83</ele>
        <time>2024-04-14T10:58:18Z</time>
      </trkpt>
      <trkpt lat="47.95707" lon="-0.43549">
        <ele>83</ele>
        <time>2024-04-14T10:58:19Z</time>
      </trkpt>
      <trkpt lat="47.95709" lon="-0.43547">
        <ele>83</ele>
        <time>2024-04-14T10:58:20Z</time>
      </trkpt>
      <trkpt lat="47.95711" lon="-0.43546">
        <ele>83.4</ele>
        <time>2024-04-14T10:58:21Z</time>
      </trkpt>
      <trkpt lat="47.95712" lon="-0.43545">
        <ele>83.4</ele>
        <time>2024-04-14T10:58:22Z</time>
      </trkpt>
      <trkpt lat="47.95714" lon="-0.43544">
        <ele>83.4</ele>
        <time>2024-04-14T10:58:23Z</time>
      </trkpt>
      <trkpt lat="47.95715" lon="-0.43543">
        <ele>83.4</ele>
        <time>2024-04-14T10:58:24Z</time>
      </trkpt>
      <trkpt lat="47.95717" lon="-0.43542">
        <ele>83.4</ele>
        <time>2024-04-14T10:58:25Z</time>
      </trkpt>
      <trkpt lat="47.95719" lon="-0.43541">
        <ele>83.4</ele>
        <time>2024-04-14T10:58:26Z</time>
      </trkpt>
      <trkpt lat="47.95721" lon="-0.4354">
        <ele>83.4</ele>
        <time>2024-04-14T10:58:27Z</time>
      </trkpt>
      <trkpt lat="47.95722" lon="-0.43539">
        <ele>83.4</ele>
        <time>2024-04-14T10:58:28Z</time>
      </trkpt>
      <trkpt lat="47.95724" lon="-0.43538">
        <ele>83.4</ele>
        <time>2024-04-14T10:58:29Z</time>
      </trkpt>
      <trkpt lat="47.95725" lon="-0.43538">
        <ele>83.4</ele>
        <time>2024-04-14T10:58:30Z</time>
      </trkpt>
      <trkpt lat="47.95726" lon="-0.43538">
        <ele>83.4</ele>
        <time>2024-04-14T10:58:31Z</time>
      </trkpt>
      <trkpt lat="47.95726" lon="-0.43538">
        <ele>83.4</ele>
        <time>2024-04-14T10:58:32Z</time>
      </trkpt>
      <trkpt lat="47.9574" lon="-0.4353">
        <ele>83.2</ele>
        <time>2024-04-14T10:58:47Z</time>
      </trkpt>
      <trkpt lat="47.95742" lon="-0.43529">
        <ele>83.6</ele>
        <time>2024-04-14T10:58:48Z</time>
      </trkpt>
      <trkpt lat="47.95743" lon="-0.43528">
        <ele>83.2</ele>
        <time>2024-04-14T10:58:49Z</time>
      </trkpt>
      <trkpt lat="47.95744" lon="-0.43527">
        <ele>83.2</ele>
        <time>2024-04-14T10:58:50Z</time>
      </trkpt>
      <trkpt lat="47.95745" lon="-0.43527">
        <ele>83.2</ele>
        <time>2024-04-14T10:58:51Z</time>
      </trkpt>
      <trkpt lat="47.95746" lon="-0.43526">
        <ele>83.2</ele>
        <time>2024-04-14T10:58:52Z</time>
      </trkpt>
      <trkpt lat="47.95748" lon="-0.43525">
        <ele>83</ele>
        <time>2024-04-14T10:58:53Z</time>
      </trkpt>
      <trkpt lat="47.95749" lon="-0.43525">
        <ele>83</ele>
        <time>2024-04-14T10:58:54Z</time>
      </trkpt>
      <trkpt lat="47.9575" lon="-0.43524">
        <ele>83</ele>
        <time>2024-04-14T10:58:55Z</time>
      </trkpt>
      <trkpt lat="47.9575" lon="-0.43524">
        <ele>83.4</ele>
        <time>2024-04-14T10:58:56Z</time>
      </trkpt>
      <trkpt lat="47.9575" lon="-0.43524">
        <ele>83.4</ele>
        <time>2024-04-14T10:58:57Z</time>
      </trkpt>
      <trkpt lat="47.95759" lon="-0.43518">
        <ele>82.8</ele>
        <time>2024-04-14T10:59:09Z</time>
      </trkpt>
      <trkpt lat="47.9576" lon="-0.43517">
        <ele>82.8</ele>
        <time>2024-04-14T10:59:10Z</time>
      </trkpt>
      <trkpt lat="47.95761" lon="-0.43516">
        <ele>82.8</ele>
        <time>2024-04-14T10:59:11Z</time>
      </trkpt>
      <trkpt lat="47.95763" lon="-0.43515">
        <ele>83</ele>
        <time>2024-04-14T10:59:12Z</time>
      </trkpt>
      <trkpt lat="47.95764" lon="-0.43514">
        <ele>83.2</ele>
        <time>2024-04-14T10:59:13Z</time>
      </trkpt>
      <trkpt lat="47.95766" lon="-0.43513">
        <ele>83.2</ele>
        <time>2024-04-14T10:59:14Z</time>
      </trkpt>
      <trkpt lat="47.95767" lon="-0.43513">
        <ele>83.2</ele>
        <time>2024-04-14T10:59:15Z</time>
      </trkpt>
      <trkpt lat="47.95768" lon="-0.43512">
        <ele>83</ele>
        <time>2024-04-14T10:59:16Z</time>
      </trkpt>
      <trkpt lat="47.95769" lon="-0.43511">
        <ele>83.2</ele>
        <time>2024-04-14T10:59:17Z</time>
      </trkpt>
      <trkpt lat="47.9577" lon="-0.43511">
        <ele>83.2</ele>
        <time>2024-04-14T10:59:18Z</time>
      </trkpt>
      <trkpt lat="47.95771" lon="-0.4351">
        <ele>83.2</ele>
        <time>2024-04-14T10:59:19Z</time>
      </trkpt>
      <trkpt lat="47.95772" lon="-0.43509">
        <ele>83.2</ele>
        <time>2024-04-14T10:59:20Z</time>
      </trkpt>
      <trkpt lat="47.95773" lon="-0.43508">
        <ele>83.2</ele>
        <time>2024-04-14T10:59:21Z</time>
      </trkpt>
      <trkpt lat="47.95774" lon="-0.43507">
        <ele>83.2</ele>
        <time>2024-04-14T10:59:22Z</time>
      </trkpt>
      <trkpt lat="47.95775" lon="-0.43506">
        <ele>83.2</ele>
        <time>2024-04-14T10:59:23Z</time>
      </trkpt>
      <trkpt lat="47.95776" lon="-0.43505">
        <ele>83.2</ele>
        <time>2024-04-14T10:59:24Z</time>
      </trkpt>
      <trkpt lat="47.95778" lon="-0.43505">
        <ele>83.2</ele>
        <time>2024-04-14T10:59:25Z</time>
      </trkpt>
      <trkpt lat="47.95779" lon="-0.43504">
        <ele>83.2</ele>
        <time>2024-04-14T10:59:26Z</time>
      </trkpt>
      <trkpt lat="47.9578" lon="-0.43503">
        <ele>83.2</ele>
        <time>2024-04-14T10:59:27Z</time>
      </trkpt>
      <trkpt lat="47.95781" lon="-0.43502">
        <ele>83.2</ele>
        <time>2024-04-14T10:59:28Z</time>
      </trkpt>
      <trkpt lat="47.95783" lon="-0.43501">
        <ele>83.4</ele>
        <time>2024-04-14T10:59:29Z</time>
      </trkpt>
      <trkpt lat="47.95784" lon="-0.435">
        <ele>83.4</ele>
        <time>2024-04-14T10:59:30Z</time>
      </trkpt>
      <trkpt lat="47.95785" lon="-0.435">
        <ele>83.4</ele>
        <time>2024-04-14T10:59:31Z</time>
      </trkpt>
      <trkpt lat="47.95786" lon="-0.43499">
        <ele>83.4</ele>
        <time>2024-04-14T10:59:32Z</time>
      </trkpt>
      <trkpt lat="47.95787" lon="-0.43497">
        <ele>83.6</ele>
        <time>2024-04-14T10:59:33Z</time>
      </trkpt>
      <trkpt lat="47.95788" lon="-0.43496">
        <ele>83.6</ele>
        <time>2024-04-14T10:59:34Z</time>
      </trkpt>
      <trkpt lat="47.95789" lon="-0.43495">
        <ele>83.6</ele>
        <time>2024-04-14T10:59:35Z</time>
      </trkpt>
      <trkpt lat="47.9579" lon="-0.43493">
        <ele>83.6</ele>
        <time>2024-04-14T10:59:36Z</time>
      </trkpt>
      <trkpt lat="47.95791" lon="-0.43492">
        <ele>83.8</ele>
        <time>2024-04-14T10:59:37Z</time>
      </trkpt>
      <trkpt lat="47.95792" lon="-0.43491">
        <ele>83.8</ele>
        <time>2024-04-14T10:59:38Z</time>
      </trkpt>
      <trkpt lat="47.95793" lon="-0.4349">
        <ele>83.8</ele>
        <time>2024-04-14T10:59:39Z</time>
      </trkpt>
      <trkpt lat="47.95794" lon="-0.43489">
        <ele>83.4</ele>
        <time>2024-04-14T10:59:40Z</time>
      </trkpt>
      <trkpt lat="47.95795" lon="-0.43488">
        <ele>83.4</ele>
        <time>2024-04-14T10:59:41Z</time>
      </trkpt>
      <trkpt lat="47.95795" lon="-0.43488">
        <ele>83.4</ele>
        <time>2024-04-14T10:59:42Z</time>
      </trkpt>
      <trkpt lat="47.95796" lon="-0.43487">
        <ele>83.4</ele>
        <time>2024-04-14T10:59:43Z</time>
      </trkpt>
      <trkpt lat="47.95797" lon="-0.43485">
        <ele>83.4</ele>
        <time>2024-04-14T10:59:44Z</time>
      </trkpt>
      <trkpt lat="47.95798" lon="-0.43484">
        <ele>83.4</ele>
        <time>2024-04-14T10:59:45Z</time>
      </trkpt>
      <trkpt lat="47.958" lon="-0.43483">
        <ele>83.4</ele>
        <time>2024-04-14T10:59:46Z</time>
      </trkpt>
      <trkpt lat="47.95801" lon="-0.43483">
        <ele>83.4</ele>
        <time>2024-04-14T10:59:47Z</time>
      </trkpt>
      <trkpt lat="47.95803" lon="-0.43482">
        <ele>83.4</ele>
        <time>2024-04-14T10:59:48Z</time>
      </trkpt>
      <trkpt lat="47.95805" lon="-0.43481">
        <ele>83</ele>
        <time>2024-04-14T10:59:49Z</time>
      </trkpt>
      <trkpt lat="47.95807" lon="-0.4348">
        <ele>83</ele>
        <time>2024-04-14T10:59:50Z</time>
      </trkpt>
      <trkpt lat="47.95809" lon="-0.43479">
        <ele>83</ele>
        <time>2024-04-14T10:59:51Z</time>
      </trkpt>
      <trkpt lat="47.95812" lon="-0.43478">
        <ele>83</ele>
        <time>2024-04-14T10:59:52Z</time>
      </trkpt>
      <trkpt lat="47.95814" lon="-0.43477">
        <ele>83</ele>
        <time>2024-04-14T10:59:53Z</time>
      </trkpt>
      <trkpt lat="47.95817" lon="-0.43476">
        <ele>83</ele>
        <time>2024-04-14T10:59:54Z</time>
      </trkpt>
      <trkpt lat="47.9582" lon="-0.43475">
        <ele>83</ele>
        <time>2024-04-14T10:59:55Z</time>
      </trkpt>
      <trkpt lat="47.95823" lon="-0.43474">
        <ele>82.6</ele>
        <time>2024-04-14T10:59:56Z</time>
      </trkpt>
      <trkpt lat="47.95827" lon="-0.43474">
        <ele>83</ele>
        <time>2024-04-14T10:59:57Z</time>
      </trkpt>
      <trkpt lat="47.9583" lon="-0.43473">
        <ele>83</ele>
        <time>2024-04-14T10:59:58Z</time>
      </trkpt>
      <trkpt lat="47.95834" lon="-0.43472">
        <ele>83</ele>
        <time>2024-04-14T10:59:59Z</time>
      </trkpt>
      <trkpt lat="47.95838" lon="-0.43472">
        <ele>82.4</ele>
        <time>2024-04-14T11:00:00Z</time>
      </trkpt>
      <trkpt lat="47.95842" lon="-0.43471">
        <ele>82.4</ele>
        <time>2024-04-14T11:00:01Z</time>
      </trkpt>
      <trkpt lat="47.95846" lon="-0.43469">
        <ele>82.4</ele>
        <time>2024-04-14T11:00:02Z</time>
      </trkpt>
      <trkpt lat="47.9585" lon="-0.43468">
        <ele>82.4</ele>
        <time>2024-04-14T11:00:03Z</time>
      </trkpt>
      <trkpt lat="47.95854" lon="-0.43467">
        <ele>82.4</ele>
        <time>2024-04-14T11:00:04Z</time>
      </trkpt>
      <trkpt lat="47.95858" lon="-0.43465">
        <ele>82.6</ele>
        <time>2024-04-14T11:00:05Z</time>
      </trkpt>
      <trkpt lat="47.95862" lon="-0.43464">
        <ele>82.6</ele>
        <time>2024-04-14T11:00:06Z</time>
      </trkpt>
      <trkpt lat="47.95866" lon="-0.43463">
        <ele>82.6</ele>
        <time>2024-04-14T11:00:07Z</time>
      </trkpt>
      <trkpt lat="47.9587" lon="-0.43462">
        <ele>83</ele>
        <time>2024-04-14T11:00:08Z</time>
      </trkpt>
      <trkpt lat="47.95874" lon="-0.43462">
        <ele>83.2</ele>
        <time>2024-04-14T11:00:09Z</time>
      </trkpt>
      <trkpt lat="47.95879" lon="-0.43461">
        <ele>83.2</ele>
        <time>2024-04-14T11:00:10Z</time>
      </trkpt>
      <trkpt lat="47.95883" lon="-0.4346">
        <ele>83.2</ele>
        <time>2024-04-14T11:00:11Z</time>
      </trkpt>
      <trkpt lat="47.95888" lon="-0.43459">
        <ele>83.2</ele>
        <time>2024-04-14T11:00:12Z</time>
      </trkpt>
      <trkpt lat="47.95893" lon="-0.43458">
        <ele>83.4</ele>
        <time>2024-04-14T11:00:13Z</time>
      </trkpt>
      <trkpt lat="47.95897" lon="-0.43456">
        <ele>83.4</ele>
        <time>2024-04-14T11:00:14Z</time>
      </trkpt>
      <trkpt lat="47.95902" lon="-0.43455">
        <ele>83.4</ele>
        <time>2024-04-14T11:00:15Z</time>
      </trkpt>
      <trkpt lat="47.95906" lon="-0.43454">
        <ele>83.4</ele>
        <time>2024-04-14T11:00:16Z</time>
      </trkpt>
      <trkpt lat="47.95911" lon="-0.43453">
        <ele>84</ele>
        <time>2024-04-14T11:00:17Z</time>
      </trkpt>
      <trkpt lat="47.95915" lon="-0.43453">
        <ele>84</ele>
        <time>2024-04-14T11:00:18Z</time>
      </trkpt>
      <trkpt lat="47.9592" lon="-0.43452">
        <ele>84</ele>
        <time>2024-04-14T11:00:19Z</time>
      </trkpt>
      <trkpt lat="47.95924" lon="-0.43452">
        <ele>83.6</ele>
        <time>2024-04-14T11:00:20Z</time>
      </trkpt>
      <trkpt lat="47.95929" lon="-0.43452">
        <ele>83.2</ele>
        <time>2024-04-14T11:00:21Z</time>
      </trkpt>
      <trkpt lat="47.95934" lon="-0.43452">
        <ele>83.2</ele>
        <time>2024-04-14T11:00:22Z</time>
      </trkpt>
      <trkpt lat="47.95939" lon="-0.43451">
        <ele>83.2</ele>
        <time>2024-04-14T11:00:23Z</time>
      </trkpt>
      <trkpt lat="47.95943" lon="-0.43451">
        <ele>83.2</ele>
        <time>2024-04-14T11:00:24Z</time>
      </trkpt>
      <trkpt lat="47.95948" lon="-0.43449">
        <ele>83.6</ele>
        <time>2024-04-14T11:00:25Z</time>
      </trkpt>
      <trkpt lat="47.95952" lon="-0.43448">
        <ele>83.6</ele>
        <time>2024-04-14T11:00:26Z</time>
      </trkpt>
      <trkpt lat="47.95957" lon="-0.43446">
        <ele>83.6</ele>
        <time>2024-04-14T11:00:27Z</time>
      </trkpt>
      <trkpt lat="47.95961" lon="-0.43444">
        <ele>83.6</ele>
        <time>2024-04-14T11:00:28Z</time>
      </trkpt>
      <trkpt lat="47.95966" lon="-0.43441">
        <ele>83.2</ele>
        <time>2024-04-14T11:00:29Z</time>
      </trkpt>
      <trkpt lat="47.9597" lon="-0.43439">
        <ele>83.2</ele>
        <time>2024-04-14T11:00:30Z</time>
      </trkpt>
      <trkpt lat="47.95974" lon="-0.43437">
        <ele>83.2</ele>
        <time>2024-04-14T11:00:31Z</time>
      </trkpt>
      <trkpt lat="47.95979" lon="-0.43435">
        <ele>83.6</ele>
        <time>2024-04-14T11:00:32Z</time>
      </trkpt>
      <trkpt lat="47.95983" lon="-0.43433">
        <ele>83.4</ele>
        <time>2024-04-14T11:00:33Z</time>
      </trkpt>
      <trkpt lat="47.95987" lon="-0.4343">
        <ele>83.4</ele>
        <time>2024-04-14T11:00:34Z</time>
      </trkpt>
      <trkpt lat="47.9599" lon="-0.43427">
        <ele>83.4</ele>
        <time>2024-04-14T11:00:35Z</time>
      </trkpt>
      <trkpt lat="47.95993" lon="-0.43422">
        <ele>83.4</ele>
        <time>2024-04-14T11:00:36Z</time>
      </trkpt>
      <trkpt lat="47.95996" lon="-0.43417">
        <ele>83.4</ele>
        <time>2024-04-14T11:00:37Z</time>
      </trkpt>
      <trkpt lat="47.95998" lon="-0.4341">
        <ele>83</ele>
        <time>2024-04-14T11:00:38Z</time>
      </trkpt>
      <trkpt lat="47.95999" lon="-0.43403">
        <ele>83</ele>
        <time>2024-04-14T11:00:39Z</time>
      </trkpt>
      <trkpt lat="47.95999" lon="-0.43396">
        <ele>83</ele>
        <time>2024-04-14T11:00:40Z</time>
      </trkpt>
      <trkpt lat="47.95999" lon="-0.43389">
        <ele>83</ele>
        <time>2024-04-14T11:00:41Z</time>
      </trkpt>
      <trkpt lat="47.95999" lon="-0.43382">
        <ele>82</ele>
        <time>2024-04-14T11:00:42Z</time>
      </trkpt>
      <trkpt lat="47.95998" lon="-0.43375">
        <ele>82</ele>
        <time>2024-04-14T11:00:43Z</time>
      </trkpt>
      <trkpt lat="47.95997" lon="-0.43368">
        <ele>82</ele>
        <time>2024-04-14T11:00:44Z</time>
      </trkpt>
      <trkpt lat="47.95996" lon="-0.43361">
        <ele>81.6</ele>
        <time>2024-04-14T11:00:45Z</time>
      </trkpt>
      <trkpt lat="47.95995" lon="-0.43353">
        <ele>82</ele>
        <time>2024-04-14T11:00:46Z</time>
      </trkpt>
      <trkpt lat="47.95993" lon="-0.43346">
        <ele>82</ele>
        <time>2024-04-14T11:00:47Z</time>
      </trkpt>
      <trkpt lat="47.95991" lon="-0.43339">
        <ele>82</ele>
        <time>2024-04-14T11:00:48Z</time>
      </trkpt>
      <trkpt lat="47.95988" lon="-0.43332">
        <ele>82</ele>
        <time>2024-04-14T11:00:49Z</time>
      </trkpt>
      <trkpt lat="47.95986" lon="-0.43325">
        <ele>81.2</ele>
        <time>2024-04-14T11:00:50Z</time>
      </trkpt>
      <trkpt lat="47.95983" lon="-0.43318">
        <ele>81.2</ele>
        <time>2024-04-14T11:00:51Z</time>
      </trkpt>
      <trkpt lat="47.9598" lon="-0.43311">
        <ele>81.2</ele>
        <time>2024-04-14T11:00:52Z</time>
      </trkpt>
      <trkpt lat="47.95977" lon="-0.43304">
        <ele>80.2</ele>
        <time>2024-04-14T11:00:53Z</time>
      </trkpt>
      <trkpt lat="47.95975" lon="-0.43297">
        <ele>79.6</ele>
        <time>2024-04-14T11:00:54Z</time>
      </trkpt>
      <trkpt lat="47.95972" lon="-0.4329">
        <ele>79.6</ele>
        <time>2024-04-14T11:00:55Z</time>
      </trkpt>
      <trkpt lat="47.95969" lon="-0.43283">
        <ele>79.6</ele>
        <time>2024-04-14T11:00:56Z</time>
      </trkpt>
      <trkpt lat="47.95966" lon="-0.43276">
        <ele>80.6</ele>
        <time>2024-04-14T11:00:57Z</time>
      </trkpt>
      <trkpt lat="47.95963" lon="-0.43268">
        <ele>80.6</ele>
        <time>2024-04-14T11:00:58Z</time>
      </trkpt>
      <trkpt lat="47.95961" lon="-0.4326">
        <ele>80.6</ele>
        <time>2024-04-14T11:00:59Z</time>
      </trkpt>
      <trkpt lat="47.95958" lon="-0.43253">
        <ele>80.6</ele>
        <time>2024-04-14T11:01:00Z</time>
      </trkpt>
      <trkpt lat="47.95955" lon="-0.43245">
        <ele>80.8</ele>
        <time>2024-04-14T11:01:01Z</time>
      </trkpt>
      <trkpt lat="47.95952" lon="-0.43237">
        <ele>80</ele>
        <time>2024-04-14T11:01:02Z</time>
      </trkpt>
      <trkpt lat="47.95948" lon="-0.43229">
        <ele>80</ele>
        <time>2024-04-14T11:01:03Z</time>
      </trkpt>
      <trkpt lat="47.95944" lon="-0.43222">
        <ele>80</ele>
        <time>2024-04-14T11:01:04Z</time>
      </trkpt>
      <trkpt lat="47.9594" lon="-0.43215">
        <ele>80</ele>
        <time>2024-04-14T11:01:05Z</time>
      </trkpt>
      <trkpt lat="47.95936" lon="-0.43208">
        <ele>79.6</ele>
        <time>2024-04-14T11:01:06Z</time>
      </trkpt>
      <trkpt lat="47.95931" lon="-0.43201">
        <ele>79.6</ele>
        <time>2024-04-14T11:01:07Z</time>
      </trkpt>
      <trkpt lat="47.95926" lon="-0.43195">
        <ele>79.6</ele>
        <time>2024-04-14T11:01:08Z</time>
      </trkpt>
      <trkpt lat="47.95921" lon="-0.43189">
        <ele>79.6</ele>
        <time>2024-04-14T11:01:09Z</time>
      </trkpt>
      <trkpt lat="47.95916" lon="-0.43184">
        <ele>79.4</ele>
        <time>2024-04-14T11:01:10Z</time>
      </trkpt>
      <trkpt lat="47.95911" lon="-0.43179">
        <ele>79.4</ele>
        <time>2024-04-14T11:01:11Z</time>
      </trkpt>
      <trkpt lat="47.95905" lon="-0.43174">
        <ele>79.4</ele>
        <time>2024-04-14T11:01:12Z</time>
      </trkpt>
      <trkpt lat="47.959" lon="-0.43168">
        <ele>79.4</ele>
        <time>2024-04-14T11:01:13Z</time>
      </trkpt>
      <trkpt lat="47.95895" lon="-0.43162">
        <ele>79</ele>
        <time>2024-04-14T11:01:14Z</time>
      </trkpt>
      <trkpt lat="47.9589" lon="-0.43156">
        <ele>79</ele>
        <time>2024-04-14T11:01:15Z</time>
      </trkpt>
      <trkpt lat="47.95886" lon="-0.43149">
        <ele>79</ele>
        <time>2024-04-14T11:01:16Z</time>
      </trkpt>
      <trkpt lat="47.95881" lon="-0.43142">
        <ele>79</ele>
        <time>2024-04-14T11:01:17Z</time>
      </trkpt>
      <trkpt lat="47.95877" lon="-0.43135">
        <ele>79.2</ele>
        <time>2024-04-14T11:01:18Z</time>
      </trkpt>
      <trkpt lat="47.95872" lon="-0.43128">
        <ele>79.2</ele>
        <time>2024-04-14T11:01:19Z</time>
      </trkpt>
      <trkpt lat="47.95868" lon="-0.4312">
        <ele>79.2</ele>
        <time>2024-04-14T11:01:20Z</time>
      </trkpt>
      <trkpt lat="47.95864" lon="-0.43113">
        <ele>78.2</ele>
        <time>2024-04-14T11:01:21Z</time>
      </trkpt>
      <trkpt lat="47.95859" lon="-0.43105">
        <ele>78.6</ele>
        <time>2024-04-14T11:01:22Z</time>
      </trkpt>
      <trkpt lat="47.95854" lon="-0.43097">
        <ele>78.6</ele>
        <time>2024-04-14T11:01:23Z</time>
      </trkpt>
      <trkpt lat="47.9585" lon="-0.4309">
        <ele>78.6</ele>
        <time>2024-04-14T11:01:24Z</time>
      </trkpt>
      <trkpt lat="47.95846" lon="-0.43082">
        <ele>77.6</ele>
        <time>2024-04-14T11:01:25Z</time>
      </trkpt>
      <trkpt lat="47.95842" lon="-0.43074">
        <ele>77.2</ele>
        <time>2024-04-14T11:01:26Z</time>
      </trkpt>
      <trkpt lat="47.95837" lon="-0.43067">
        <ele>77.2</ele>
        <time>2024-04-14T11:01:27Z</time>
      </trkpt>
      <trkpt lat="47.95833" lon="-0.43059">
        <ele>77.2</ele>
        <time>2024-04-14T11:01:28Z</time>
      </trkpt>
      <trkpt lat="47.95829" lon="-0.43051">
        <ele>77.2</ele>
        <time>2024-04-14T11:01:29Z</time>
      </trkpt>
      <trkpt lat="47.95825" lon="-0.43043">
        <ele>76</ele>
        <time>2024-04-14T11:01:30Z</time>
      </trkpt>
      <trkpt lat="47.95821" lon="-0.43035">
        <ele>76</ele>
        <time>2024-04-14T11:01:31Z</time>
      </trkpt>
      <trkpt lat="47.95817" lon="-0.43027">
        <ele>76</ele>
        <time>2024-04-14T11:01:32Z</time>
      </trkpt>
      <trkpt lat="47.95814" lon="-0.43019">
        <ele>76</ele>
        <time>2024-04-14T11:01:33Z</time>
      </trkpt>
      <trkpt lat="47.9581" lon="-0.4301">
        <ele>76.4</ele>
        <time>2024-04-14T11:01:34Z</time>
      </trkpt>
      <trkpt lat="47.95807" lon="-0.43002">
        <ele>76.4</ele>
        <time>2024-04-14T11:01:35Z</time>
      </trkpt>
      <trkpt lat="47.95804" lon="-0.42994">
        <ele>76.4</ele>
        <time>2024-04-14T11:01:36Z</time>
      </trkpt>
      <trkpt lat="47.95801" lon="-0.42985">
        <ele>75.4</ele>
        <time>2024-04-14T11:01:37Z</time>
      </trkpt>
      <trkpt lat="47.95798" lon="-0.42977">
        <ele>75.6</ele>
        <time>2024-04-14T11:01:38Z</time>
      </trkpt>
      <trkpt lat="47.95795" lon="-0.42969">
        <ele>75.6</ele>
        <time>2024-04-14T11:01:39Z</time>
      </trkpt>
      <trkpt lat="47.95792" lon="-0.42961">
        <ele>75.6</ele>
        <time>2024-04-14T11:01:40Z</time>
      </trkpt>
      <trkpt lat="47.95789" lon="-0.42953">
        <ele>76.4</ele>
        <time>2024-04-14T11:01:41Z</time>
      </trkpt>
      <trkpt lat="47.95787" lon="-0.42945">
        <ele>76.2</ele>
        <time>2024-04-14T11:01:42Z</time>
      </trkpt>
      <trkpt lat="47.95784" lon="-0.42937">
        <ele>76.2</ele>
        <time>2024-04-14T11:01:43Z</time>
      </trkpt>
      <trkpt lat="47.95781" lon="-0.42929">
        <ele>76.2</ele>
        <time>2024-04-14T11:01:44Z</time>
      </trkpt>
      <trkpt lat="47.95779" lon="-0.42921">
        <ele>76.2</ele>
        <time>2024-04-14T11:01:45Z</time>
      </trkpt>
      <trkpt lat="47.95778" lon="-0.42913">
        <ele>76.8</ele>
        <time>2024-04-14T11:01:46Z</time>
      </trkpt>
      <trkpt lat="47.95779" lon="-0.42905">
        <ele>76.8</ele>
        <time>2024-04-14T11:01:47Z</time>
      </trkpt>
      <trkpt lat="47.95782" lon="-0.42898">
        <ele>76.8</ele>
        <time>2024-04-14T11:01:48Z</time>
      </trkpt>
      <trkpt lat="47.95785" lon="-0.42892">
        <ele>75.8</ele>
        <time>2024-04-14T11:01:49Z</time>
      </trkpt>
      <trkpt lat="47.95789" lon="-0.42886">
        <ele>76.8</ele>
        <time>2024-04-14T11:01:50Z</time>
      </trkpt>
      <trkpt lat="47.95793" lon="-0.4288">
        <ele>76.8</ele>
        <time>2024-04-14T11:01:51Z</time>
      </trkpt>
      <trkpt lat="47.95796" lon="-0.42874">
        <ele>76.8</ele>
        <time>2024-04-14T11:01:52Z</time>
      </trkpt>
      <trkpt lat="47.95799" lon="-0.42867">
        <ele>76.2</ele>
        <time>2024-04-14T11:01:53Z</time>
      </trkpt>
      <trkpt lat="47.95801" lon="-0.42859">
        <ele>76.2</ele>
        <time>2024-04-14T11:01:54Z</time>
      </trkpt>
      <trkpt lat="47.95803" lon="-0.42852">
        <ele>76.2</ele>
        <time>2024-04-14T11:01:55Z</time>
      </trkpt>
      <trkpt lat="47.95804" lon="-0.42844">
        <ele>76.2</ele>
        <time>2024-04-14T11:01:56Z</time>
      </trkpt>
      <trkpt lat="47.95805" lon="-0.42837">
        <ele>76.8</ele>
        <time>2024-04-14T11:01:57Z</time>
      </trkpt>
      <trkpt lat="47.95806" lon="-0.42829">
        <ele>77</ele>
        <time>2024-04-14T11:01:58Z</time>
      </trkpt>
      <trkpt lat="47.95806" lon="-0.42821">
        <ele>77</ele>
        <time>2024-04-14T11:01:59Z</time>
      </trkpt>
      <trkpt lat="47.95806" lon="-0.42814">
        <ele>77</ele>
        <time>2024-04-14T11:02:00Z</time>
      </trkpt>
      <trkpt lat="47.95805" lon="-0.42806">
        <ele>77</ele>
        <time>2024-04-14T11:02:01Z</time>
      </trkpt>
      <trkpt lat="47.95805" lon="-0.42799">
        <ele>77.6</ele>
        <time>2024-04-14T11:02:02Z</time>
      </trkpt>
      <trkpt lat="47.95806" lon="-0.42793">
        <ele>77.6</ele>
        <time>2024-04-14T11:02:03Z</time>
      </trkpt>
      <trkpt lat="47.95806" lon="-0.42786">
        <ele>77.6</ele>
        <time>2024-04-14T11:02:04Z</time>
      </trkpt>
      <trkpt lat="47.95806" lon="-0.4278">
        <ele>78.6</ele>
        <time>2024-04-14T11:02:05Z</time>
      </trkpt>
      <trkpt lat="47.95805" lon="-0.42773">
        <ele>78.4</ele>
        <time>2024-04-14T11:02:06Z</time>
      </trkpt>
      <trkpt lat="47.95805" lon="-0.42767">
        <ele>78.4</ele>
        <time>2024-04-14T11:02:07Z</time>
      </trkpt>
      <trkpt lat="47.95805" lon="-0.42762">
        <ele>78.4</ele>
        <time>2024-04-14T11:02:08Z</time>
      </trkpt>
      <trkpt lat="47.95805" lon="-0.42757">
        <ele>78.6</ele>
        <time>2024-04-14T11:02:09Z</time>
      </trkpt>
      <trkpt lat="47.95804" lon="-0.42752">
        <ele>78.8</ele>
        <time>2024-04-14T11:02:10Z</time>
      </trkpt>
      <trkpt lat="47.95804" lon="-0.42749">
        <ele>78.8</ele>
        <time>2024-04-14T11:02:11Z</time>
      </trkpt>
      <trkpt lat="47.95805" lon="-0.42746">
        <ele>78.8</ele>
        <time>2024-04-14T11:02:12Z</time>
      </trkpt>
      <trkpt lat="47.95806" lon="-0.42744">
        <ele>79.6</ele>
        <time>2024-04-14T11:02:13Z</time>
      </trkpt>
      <trkpt lat="47.95809" lon="-0.42742">
        <ele>80.2</ele>
        <time>2024-04-14T11:02:14Z</time>
      </trkpt>
      <trkpt lat="47.95812" lon="-0.42741">
        <ele>80.2</ele>
        <time>2024-04-14T11:02:15Z</time>
      </trkpt>
      <trkpt lat="47.95816" lon="-0.4274">
        <ele>80.2</ele>
        <time>2024-04-14T11:02:16Z</time>
      </trkpt>
      <trkpt lat="47.95821" lon="-0.42741">
        <ele>80.2</ele>
        <time>2024-04-14T11:02:17Z</time>
      </trkpt>
      <trkpt lat="47.95825" lon="-0.42741">
        <ele>80</ele>
        <time>2024-04-14T11:02:18Z</time>
      </trkpt>
      <trkpt lat="47.9583" lon="-0.42741">
        <ele>80</ele>
        <time>2024-04-14T11:02:19Z</time>
      </trkpt>
      <trkpt lat="47.95834" lon="-0.42741">
        <ele>80</ele>
        <time>2024-04-14T11:02:20Z</time>
      </trkpt>
      <trkpt lat="47.95839" lon="-0.42742">
        <ele>80</ele>
        <time>2024-04-14T11:02:21Z</time>
      </trkpt>
      <trkpt lat="47.95843" lon="-0.42742">
        <ele>80.8</ele>
        <time>2024-04-14T11:02:22Z</time>
      </trkpt>
      <trkpt lat="47.95848" lon="-0.42743">
        <ele>80.8</ele>
        <time>2024-04-14T11:02:23Z</time>
      </trkpt>
      <trkpt lat="47.95852" lon="-0.42744">
        <ele>80.8</ele>
        <time>2024-04-14T11:02:24Z</time>
      </trkpt>
      <trkpt lat="47.95857" lon="-0.42744">
        <ele>80.8</ele>
        <time>2024-04-14T11:02:25Z</time>
      </trkpt>
      <trkpt lat="47.95862" lon="-0.42745">
        <ele>81</ele>
        <time>2024-04-14T11:02:26Z</time>
      </trkpt>
      <trkpt lat="47.95866" lon="-0.42746">
        <ele>81</ele>
        <time>2024-04-14T11:02:27Z</time>
      </trkpt>
      <trkpt lat="47.95871" lon="-0.42747">
        <ele>81</ele>
        <time>2024-04-14T11:02:28Z</time>
      </trkpt>
      <trkpt lat="47.95875" lon="-0.42748">
        <ele>81.2</ele>
        <time>2024-04-14T11:02:29Z</time>
      </trkpt>
      <trkpt lat="47.9588" lon="-0.42748">
        <ele>80.8</ele>
        <time>2024-04-14T11:02:30Z</time>
      </trkpt>
      <trkpt lat="47.95885" lon="-0.42749">
        <ele>80.8</ele>
        <time>2024-04-14T11:02:31Z</time>
      </trkpt>
      <trkpt lat="47.95889" lon="-0.4275">
        <ele>80.8</ele>
        <time>2024-04-14T11:02:32Z</time>
      </trkpt>
      <trkpt lat="47.95894" lon="-0.42751">
        <ele>81</ele>
        <time>2024-04-14T11:02:33Z</time>
      </trkpt>
      <trkpt lat="47.95899" lon="-0.42752">
        <ele>81.6</ele>
        <time>2024-04-14T11:02:34Z</time>
      </trkpt>
      <trkpt lat="47.95903" lon="-0.42753">
        <ele>81.6</ele>
        <time>2024-04-14T11:02:35Z</time>
      </trkpt>
      <trkpt lat="47.95908" lon="-0.42754">
        <ele>81.6</ele>
        <time>2024-04-14T11:02:36Z</time>
      </trkpt>
      <trkpt lat="47.95912" lon="-0.42755">
        <ele>82</ele>
        <time>2024-04-14T11:02:37Z</time>
      </trkpt>
      <trkpt lat="47.95917" lon="-0.42756">
        <ele>81.8</ele>
        <time>2024-04-14T11:02:38Z</time>
      </trkpt>
      <trkpt lat="47.95922" lon="-0.42757">
        <ele>81.8</ele>
        <time>2024-04-14T11:02:39Z</time>
      </trkpt>
      <trkpt lat="47.95927" lon="-0.42758">
        <ele>81.8</ele>
        <time>2024-04-14T11:02:40Z</time>
      </trkpt>
      <trkpt lat="47.95931" lon="-0.42759">
        <ele>82.6</ele>
        <time>2024-04-14T11:02:41Z</time>
      </trkpt>
      <trkpt lat="47.95936" lon="-0.4276">
        <ele>83.2</ele>
        <time>2024-04-14T11:02:42Z</time>
      </trkpt>
      <trkpt lat="47.9594" lon="-0.42761">
        <ele>83.2</ele>
        <time>2024-04-14T11:02:43Z</time>
      </trkpt>
      <trkpt lat="47.95945" lon="-0.42762">
        <ele>83.2</ele>
        <time>2024-04-14T11:02:44Z</time>
      </trkpt>
      <trkpt lat="47.95949" lon="-0.42763">
        <ele>83.2</ele>
        <time>2024-04-14T11:02:45Z</time>
      </trkpt>
      <trkpt lat="47.95954" lon="-0.42765">
        <ele>83.2</ele>
        <time>2024-04-14T11:02:46Z</time>
      </trkpt>
      <trkpt lat="47.95958" lon="-0.42766">
        <ele>83.2</ele>
        <time>2024-04-14T11:02:47Z</time>
      </trkpt>
      <trkpt lat="47.95962" lon="-0.42768">
        <ele>83.2</ele>
        <time>2024-04-14T11:02:48Z</time>
      </trkpt>
      <trkpt lat="47.95966" lon="-0.4277">
        <ele>83.2</ele>
        <time>2024-04-14T11:02:49Z</time>
      </trkpt>
      <trkpt lat="47.9597" lon="-0.42771">
        <ele>84.2</ele>
        <time>2024-04-14T11:02:50Z</time>
      </trkpt>
      <trkpt lat="47.95974" lon="-0.42773">
        <ele>84.2</ele>
        <time>2024-04-14T11:02:51Z</time>
      </trkpt>
      <trkpt lat="47.95978" lon="-0.42775">
        <ele>84.2</ele>
        <time>2024-04-14T11:02:52Z</time>
      </trkpt>
      <trkpt lat="47.95982" lon="-0.42777">
        <ele>84.2</ele>
        <time>2024-04-14T11:02:53Z</time>
      </trkpt>
      <trkpt lat="47.95986" lon="-0.4278">
        <ele>84.6</ele>
        <time>2024-04-14T11:02:54Z</time>
      </trkpt>
      <trkpt lat="47.95991" lon="-0.42782">
        <ele>84.6</ele>
        <time>2024-04-14T11:02:55Z</time>
      </trkpt>
      <trkpt lat="47.95995" lon="-0.42784">
        <ele>84.6</ele>
        <time>2024-04-14T11:02:56Z</time>
      </trkpt>
      <trkpt lat="47.95999" lon="-0.42787">
        <ele>85.6</ele>
        <time>2024-04-14T11:02:57Z</time>
      </trkpt>
      <trkpt lat="47.96003" lon="-0.42789">
        <ele>85.4</ele>
        <time>2024-04-14T11:02:58Z</time>
      </trkpt>
      <trkpt lat="47.96007" lon="-0.42792">
        <ele>85.4</ele>
        <time>2024-04-14T11:02:59Z</time>
      </trkpt>
      <trkpt lat="47.96011" lon="-0.42794">
        <ele>85.4</ele>
        <time>2024-04-14T11:03:00Z</time>
      </trkpt>
      <trkpt lat="47.96015" lon="-0.42797">
        <ele>85.4</ele>
        <time>2024-04-14T11:03:01Z</time>
      </trkpt>
      <trkpt lat="47.96019" lon="-0.42799">
        <ele>85.4</ele>
        <time>2024-04-14T11:03:02Z</time>
      </trkpt>
      <trkpt lat="47.96023" lon="-0.42802">
        <ele>85.4</ele>
        <time>2024-04-14T11:03:03Z</time>
      </trkpt>
      <trkpt lat="47.96027" lon="-0.42805">
        <ele>85.4</ele>
        <time>2024-04-14T11:03:04Z</time>
      </trkpt>
      <trkpt lat="47.96031" lon="-0.42807">
        <ele>86.4</ele>
        <time>2024-04-14T11:03:05Z</time>
      </trkpt>
      <trkpt lat="47.96034" lon="-0.4281">
        <ele>86.6</ele>
        <time>2024-04-14T11:03:06Z</time>
      </trkpt>
      <trkpt lat="47.96038" lon="-0.42813">
        <ele>86.6</ele>
        <time>2024-04-14T11:03:07Z</time>
      </trkpt>
      <trkpt lat="47.96042" lon="-0.42815">
        <ele>86.6</ele>
        <time>2024-04-14T11:03:08Z</time>
      </trkpt>
      <trkpt lat="47.96046" lon="-0.42818">
        <ele>86.6</ele>
        <time>2024-04-14T11:03:09Z</time>
      </trkpt>
      <trkpt lat="47.9605" lon="-0.42821">
        <ele>87</ele>
        <time>2024-04-14T11:03:10Z</time>
      </trkpt>
      <trkpt lat="47.96054" lon="-0.42823">
        <ele>87</ele>
        <time>2024-04-14T11:03:11Z</time>
      </trkpt>
      <trkpt lat="47.96058" lon="-0.42826">
        <ele>87</ele>
        <time>2024-04-14T11:03:12Z</time>
      </trkpt>
      <trkpt lat="47.96062" lon="-0.42829">
        <ele>87</ele>
        <time>2024-04-14T11:03:13Z</time>
      </trkpt>
      <trkpt lat="47.96066" lon="-0.42832">
        <ele>87</ele>
        <time>2024-04-14T11:03:14Z</time>
      </trkpt>
      <trkpt lat="47.9607" lon="-0.42835">
        <ele>87</ele>
        <time>2024-04-14T11:03:15Z</time>
      </trkpt>
      <trkpt lat="47.96074" lon="-0.42838">
        <ele>87</ele>
        <time>2024-04-14T11:03:16Z</time>
      </trkpt>
      <trkpt lat="47.96078" lon="-0.42841">
        <ele>87.6</ele>
        <time>2024-04-14T11:03:17Z</time>
      </trkpt>
      <trkpt lat="47.96082" lon="-0.42844">
        <ele>87.2</ele>
        <time>2024-04-14T11:03:18Z</time>
      </trkpt>
      <trkpt lat="47.96087" lon="-0.42846">
        <ele>87.2</ele>
        <time>2024-04-14T11:03:19Z</time>
      </trkpt>
      <trkpt lat="47.96091" lon="-0.42849">
        <ele>87.2</ele>
        <time>2024-04-14T11:03:20Z</time>
      </trkpt>
      <trkpt lat="47.96095" lon="-0.42852">
        <ele>88.2</ele>
        <time>2024-04-14T11:03:21Z</time>
      </trkpt>
      <trkpt lat="47.961" lon="-0.42855">
        <ele>87.6</ele>
        <time>2024-04-14T11:03:22Z</time>
      </trkpt>
      <trkpt lat="47.96104" lon="-0.42857">
        <ele>87.6</ele>
        <time>2024-04-14T11:03:23Z</time>
      </trkpt>
      <trkpt lat="47.96109" lon="-0.4286">
        <ele>87.6</ele>
        <time>2024-04-14T11:03:24Z</time>
      </trkpt>
      <trkpt lat="47.96113" lon="-0.42864">
        <ele>87.6</ele>
        <time>2024-04-14T11:03:25Z</time>
      </trkpt>
      <trkpt lat="47.96118" lon="-0.42867">
        <ele>88.2</ele>
        <time>2024-04-14T11:03:26Z</time>
      </trkpt>
      <trkpt lat="47.96123" lon="-0.4287">
        <ele>88.2</ele>
        <time>2024-04-14T11:03:27Z</time>
      </trkpt>
      <trkpt lat="47.96127" lon="-0.42873">
        <ele>88.2</ele>
        <time>2024-04-14T11:03:28Z</time>
      </trkpt>
      <trkpt lat="47.96132" lon="-0.42876">
        <ele>88.2</ele>
        <time>2024-04-14T11:03:29Z</time>
      </trkpt>
      <trkpt lat="47.96137" lon="-0.42879">
        <ele>87.8</ele>
        <time>2024-04-14T11:03:30Z</time>
      </trkpt>
      <trkpt lat="47.96142" lon="-0.42882">
        <ele>87.8</ele>
        <time>2024-04-14T11:03:31Z</time>
      </trkpt>
      <trkpt lat="47.96146" lon="-0.42885">
        <ele>87.8</ele>
        <time>2024-04-14T11:03:32Z</time>
      </trkpt>
      <trkpt lat="47.96151" lon="-0.42888">
        <ele>87</ele>
        <time>2024-04-14T11:03:33Z</time>
      </trkpt>
      <trkpt lat="47.96156" lon="-0.42892">
        <ele>87.4</ele>
        <time>2024-04-14T11:03:34Z</time>
      </trkpt>
      <trkpt lat="47.96161" lon="-0.42895">
        <ele>87.4</ele>
        <time>2024-04-14T11:03:35Z</time>
      </trkpt>
      <trkpt lat="47.96166" lon="-0.42898">
        <ele>87.4</ele>
        <time>2024-04-14T11:03:36Z</time>
      </trkpt>
      <trkpt lat="47.9617" lon="-0.42901">
        <ele>87.4</ele>
        <time>2024-04-14T11:03:37Z</time>
      </trkpt>
      <trkpt lat="47.96175" lon="-0.42904">
        <ele>87.6</ele>
        <time>2024-04-14T11:03:38Z</time>
      </trkpt>
      <trkpt lat="47.9618" lon="-0.42907">
        <ele>87.6</ele>
        <time>2024-04-14T11:03:39Z</time>
      </trkpt>
      <trkpt lat="47.96185" lon="-0.4291">
        <ele>87.6</ele>
        <time>2024-04-14T11:03:40Z</time>
      </trkpt>
      <trkpt lat="47.96189" lon="-0.42914">
        <ele>87.6</ele>
        <time>2024-04-14T11:03:41Z</time>
      </trkpt>
      <trkpt lat="47.96194" lon="-0.42917">
        <ele>87.6</ele>
        <time>2024-04-14T11:03:42Z</time>
      </trkpt>
      <trkpt lat="47.96198" lon="-0.4292">
        <ele>87.6</ele>
        <time>2024-04-14T11:03:43Z</time>
      </trkpt>
      <trkpt lat="47.96203" lon="-0.42923">
        <ele>87.6</ele>
        <time>2024-04-14T11:03:44Z</time>
      </trkpt>
      <trkpt lat="47.96208" lon="-0.42926">
        <ele>87.8</ele>
        <time>2024-04-14T11:03:45Z</time>
      </trkpt>
      <trkpt lat="47.96213" lon="-0.42929">
        <ele>88</ele>
        <time>2024-04-14T11:03:46Z</time>
      </trkpt>
      <trkpt lat="47.96218" lon="-0.42932">
        <ele>88</ele>
        <time>2024-04-14T11:03:47Z</time>
      </trkpt>
      <trkpt lat="47.96222" lon="-0.42935">
        <ele>88</ele>
        <time>2024-04-14T11:03:48Z</time>
      </trkpt>
      <trkpt lat="47.96227" lon="-0.42939">
        <ele>88</ele>
        <time>2024-04-14T11:03:49Z</time>
      </trkpt>
      <trkpt lat="47.96232" lon="-0.42942">
        <ele>87.8</ele>
        <time>2024-04-14T11:03:50Z</time>
      </trkpt>
      <trkpt lat="47.96237" lon="-0.42945">
        <ele>87.8</ele>
        <time>2024-04-14T11:03:51Z</time>
      </trkpt>
      <trkpt lat="47.96242" lon="-0.42949">
        <ele>87.8</ele>
        <time>2024-04-14T11:03:52Z</time>
      </trkpt>
      <trkpt lat="47.96247" lon="-0.42952">
        <ele>87.8</ele>
        <time>2024-04-14T11:03:53Z</time>
      </trkpt>
      <trkpt lat="47.96252" lon="-0.42955">
        <ele>87.6</ele>
        <time>2024-04-14T11:03:54Z</time>
      </trkpt>
      <trkpt lat="47.96257" lon="-0.42958">
        <ele>87.6</ele>
        <time>2024-04-14T11:03:55Z</time>
      </trkpt>
      <trkpt lat="47.96262" lon="-0.42961">
        <ele>87.6</ele>
        <time>2024-04-14T11:03:56Z</time>
      </trkpt>
      <trkpt lat="47.96267" lon="-0.42965">
        <ele>87.6</ele>
        <time>2024-04-14T11:03:57Z</time>
      </trkpt>
      <trkpt lat="47.96273" lon="-0.42968">
        <ele>87.6</ele>
        <time>2024-04-14T11:03:58Z</time>
      </trkpt>
      <trkpt lat="47.96278" lon="-0.42972">
        <ele>87.6</ele>
        <time>2024-04-14T11:03:59Z</time>
      </trkpt>
      <trkpt lat="47.96283" lon="-0.42975">
        <ele>87.6</ele>
        <time>2024-04-14T11:04:00Z</time>
      </trkpt>
      <trkpt lat="47.96289" lon="-0.42979">
        <ele>87</ele>
        <time>2024-04-14T11:04:01Z</time>
      </trkpt>
      <trkpt lat="47.96294" lon="-0.42982">
        <ele>87</ele>
        <time>2024-04-14T11:04:02Z</time>
      </trkpt>
      <trkpt lat="47.96299" lon="-0.42986">
        <ele>87</ele>
        <time>2024-04-14T11:04:03Z</time>
      </trkpt>
      <trkpt lat="47.96305" lon="-0.4299">
        <ele>87</ele>
        <time>2024-04-14T11:04:04Z</time>
      </trkpt>
      <trkpt lat="47.96311" lon="-0.42994">
        <ele>87</ele>
        <time>2024-04-14T11:04:05Z</time>
      </trkpt>
      <trkpt lat="47.96317" lon="-0.42998">
        <ele>86.4</ele>
        <time>2024-04-14T11:04:06Z</time>
      </trkpt>
      <trkpt lat="47.96322" lon="-0.43001">
        <ele>86.4</ele>
        <time>2024-04-14T11:04:07Z</time>
      </trkpt>
      <trkpt lat="47.96328" lon="-0.43005">
        <ele>86.4</ele>
        <time>2024-04-14T11:04:08Z</time>
      </trkpt>
      <trkpt lat="47.96334" lon="-0.43009">
        <ele>85.4</ele>
        <time>2024-04-14T11:04:09Z</time>
      </trkpt>
      <trkpt lat="47.96341" lon="-0.43013">
        <ele>85.6</ele>
        <time>2024-04-14T11:04:10Z</time>
      </trkpt>
      <trkpt lat="47.96347" lon="-0.43017">
        <ele>85.6</ele>
        <time>2024-04-14T11:04:11Z</time>
      </trkpt>
      <trkpt lat="47.96353" lon="-0.43021">
        <ele>85.6</ele>
        <time>2024-04-14T11:04:12Z</time>
      </trkpt>
      <trkpt lat="47.9636" lon="-0.43025">
        <ele>84.6</ele>
        <time>2024-04-14T11:04:13Z</time>
      </trkpt>
      <trkpt lat="47.96367" lon="-0.4303">
        <ele>84.2</ele>
        <time>2024-04-14T11:04:14Z</time>
      </trkpt>
      <trkpt lat="47.96373" lon="-0.43034">
        <ele>84.2</ele>
        <time>2024-04-14T11:04:15Z</time>
      </trkpt>
      <trkpt lat="47.9638" lon="-0.43039">
        <ele>84.2</ele>
        <time>2024-04-14T11:04:16Z</time>
      </trkpt>
      <trkpt lat="47.96387" lon="-0.43043">
        <ele>83.2</ele>
        <time>2024-04-14T11:04:17Z</time>
      </trkpt>
      <trkpt lat="47.96394" lon="-0.43048">
        <ele>82.4</ele>
        <time>2024-04-14T11:04:18Z</time>
      </trkpt>
      <trkpt lat="47.96401" lon="-0.43052">
        <ele>82.4</ele>
        <time>2024-04-14T11:04:19Z</time>
      </trkpt>
      <trkpt lat="47.96408" lon="-0.43057">
        <ele>82.4</ele>
        <time>2024-04-14T11:04:20Z</time>
      </trkpt>
      <trkpt lat="47.96415" lon="-0.43062">
        <ele>81.6</ele>
        <time>2024-04-14T11:04:21Z</time>
      </trkpt>
      <trkpt lat="47.96422" lon="-0.43066">
        <ele>81</ele>
        <time>2024-04-14T11:04:22Z</time>
      </trkpt>
      <trkpt lat="47.96429" lon="-0.43071">
        <ele>81</ele>
        <time>2024-04-14T11:04:23Z</time>
      </trkpt>
      <trkpt lat="47.96436" lon="-0.43076">
        <ele>81</ele>
        <time>2024-04-14T11:04:24Z</time>
      </trkpt>
      <trkpt lat="47.96443" lon="-0.43081">
        <ele>80</ele>
        <time>2024-04-14T11:04:25Z</time>
      </trkpt>
      <trkpt lat="47.96451" lon="-0.43086">
        <ele>79.6</ele>
        <time>2024-04-14T11:04:26Z</time>
      </trkpt>
      <trkpt lat="47.96458" lon="-0.43091">
        <ele>79.6</ele>
        <time>2024-04-14T11:04:27Z</time>
      </trkpt>
      <trkpt lat="47.96466" lon="-0.43095">
        <ele>79.6</ele>
        <time>2024-04-14T11:04:28Z</time>
      </trkpt>
      <trkpt lat="47.96473" lon="-0.43101">
        <ele>78.6</ele>
        <time>2024-04-14T11:04:29Z</time>
      </trkpt>
      <trkpt lat="47.9648" lon="-0.43105">
        <ele>78.2</ele>
        <time>2024-04-14T11:04:30Z</time>
      </trkpt>
      <trkpt lat="47.96488" lon="-0.4311">
        <ele>78.2</ele>
        <time>2024-04-14T11:04:31Z</time>
      </trkpt>
      <trkpt lat="47.96495" lon="-0.43115">
        <ele>78.2</ele>
        <time>2024-04-14T11:04:32Z</time>
      </trkpt>
      <trkpt lat="47.96502" lon="-0.4312">
        <ele>77.8</ele>
        <time>2024-04-14T11:04:33Z</time>
      </trkpt>
      <trkpt lat="47.9651" lon="-0.43125">
        <ele>78</ele>
        <time>2024-04-14T11:04:34Z</time>
      </trkpt>
      <trkpt lat="47.96517" lon="-0.4313">
        <ele>78</ele>
        <time>2024-04-14T11:04:35Z</time>
      </trkpt>
      <trkpt lat="47.96524" lon="-0.43135">
        <ele>78</ele>
        <time>2024-04-14T11:04:36Z</time>
      </trkpt>
      <trkpt lat="47.96532" lon="-0.4314">
        <ele>78</ele>
        <time>2024-04-14T11:04:37Z</time>
      </trkpt>
      <trkpt lat="47.96539" lon="-0.43145">
        <ele>77.8</ele>
        <time>2024-04-14T11:04:38Z</time>
      </trkpt>
      <trkpt lat="47.96546" lon="-0.43149">
        <ele>77.8</ele>
        <time>2024-04-14T11:04:39Z</time>
      </trkpt>
      <trkpt lat="47.96553" lon="-0.43154">
        <ele>77.8</ele>
        <time>2024-04-14T11:04:40Z</time>
      </trkpt>
      <trkpt lat="47.9656" lon="-0.43159">
        <ele>77.2</ele>
        <time>2024-04-14T11:04:41Z</time>
      </trkpt>
      <trkpt lat="47.96567" lon="-0.43163">
        <ele>76.8</ele>
        <time>2024-04-14T11:04:42Z</time>
      </trkpt>
      <trkpt lat="47.96574" lon="-0.43168">
        <ele>76.8</ele>
        <time>2024-04-14T11:04:43Z</time>
      </trkpt>
      <trkpt lat="47.9658" lon="-0.43172">
        <ele>76.8</ele>
        <time>2024-04-14T11:04:44Z</time>
      </trkpt>
      <trkpt lat="47.96587" lon="-0.43177">
        <ele>77</ele>
        <time>2024-04-14T11:04:45Z</time>
      </trkpt>
      <trkpt lat="47.96594" lon="-0.43181">
        <ele>76.8</ele>
        <time>2024-04-14T11:04:46Z</time>
      </trkpt>
      <trkpt lat="47.966" lon="-0.43185">
        <ele>76.8</ele>
        <time>2024-04-14T11:04:47Z</time>
      </trkpt>
      <trkpt lat="47.96606" lon="-0.4319">
        <ele>76.8</ele>
        <time>2024-04-14T11:04:48Z</time>
      </trkpt>
      <trkpt lat="47.96613" lon="-0.43194">
        <ele>77.4</ele>
        <time>2024-04-14T11:04:49Z</time>
      </trkpt>
      <trkpt lat="47.96619" lon="-0.43198">
        <ele>77.4</ele>
        <time>2024-04-14T11:04:50Z</time>
      </trkpt>
      <trkpt lat="47.96625" lon="-0.43202">
        <ele>77.4</ele>
        <time>2024-04-14T11:04:51Z</time>
      </trkpt>
      <trkpt lat="47.96631" lon="-0.43206">
        <ele>77.4</ele>
        <time>2024-04-14T11:04:52Z</time>
      </trkpt>
      <trkpt lat="47.96637" lon="-0.43209">
        <ele>77.4</ele>
        <time>2024-04-14T11:04:53Z</time>
      </trkpt>
      <trkpt lat="47.96643" lon="-0.43213">
        <ele>78.6</ele>
        <time>2024-04-14T11:04:54Z</time>
      </trkpt>
      <trkpt lat="47.96648" lon="-0.43216">
        <ele>78.6</ele>
        <time>2024-04-14T11:04:55Z</time>
      </trkpt>
      <trkpt lat="47.96654" lon="-0.4322">
        <ele>78.6</ele>
        <time>2024-04-14T11:04:56Z</time>
      </trkpt>
      <trkpt lat="47.9666" lon="-0.43224">
        <ele>78.6</ele>
        <time>2024-04-14T11:04:57Z</time>
      </trkpt>
      <trkpt lat="47.96665" lon="-0.43227">
        <ele>78.2</ele>
        <time>2024-04-14T11:04:58Z</time>
      </trkpt>
      <trkpt lat="47.9667" lon="-0.43231">
        <ele>78.2</ele>
        <time>2024-04-14T11:04:59Z</time>
      </trkpt>
      <trkpt lat="47.96676" lon="-0.43235">
        <ele>78.2</ele>
        <time>2024-04-14T11:05:00Z</time>
      </trkpt>
      <trkpt lat="47.96681" lon="-0.43238">
        <ele>78.8</ele>
        <time>2024-04-14T11:05:01Z</time>
      </trkpt>
      <trkpt lat="47.96686" lon="-0.43242">
        <ele>79.6</ele>
        <time>2024-04-14T11:05:02Z</time>
      </trkpt>
      <trkpt lat="47.96692" lon="-0.43246">
        <ele>79.6</ele>
        <time>2024-04-14T11:05:03Z</time>
      </trkpt>
      <trkpt lat="47.96697" lon="-0.43249">
        <ele>79.6</ele>
        <time>2024-04-14T11:05:04Z</time>
      </trkpt>
      <trkpt lat="47.96702" lon="-0.43253">
        <ele>79.6</ele>
        <time>2024-04-14T11:05:05Z</time>
      </trkpt>
      <trkpt lat="47.96707" lon="-0.43256">
        <ele>79.6</ele>
        <time>2024-04-14T11:05:06Z</time>
      </trkpt>
      <trkpt lat="47.96712" lon="-0.43259">
        <ele>79.6</ele>
        <time>2024-04-14T11:05:07Z</time>
      </trkpt>
      <trkpt lat="47.96717" lon="-0.43262">
        <ele>79.6</ele>
        <time>2024-04-14T11:05:08Z</time>
      </trkpt>
      <trkpt lat="47.96722" lon="-0.43265">
        <ele>80.4</ele>
        <time>2024-04-14T11:05:09Z</time>
      </trkpt>
      <trkpt lat="47.96726" lon="-0.43268">
        <ele>80.2</ele>
        <time>2024-04-14T11:05:10Z</time>
      </trkpt>
      <trkpt lat="47.96731" lon="-0.43272">
        <ele>80.2</ele>
        <time>2024-04-14T11:05:11Z</time>
      </trkpt>
      <trkpt lat="47.96736" lon="-0.43275">
        <ele>80.2</ele>
        <time>2024-04-14T11:05:12Z</time>
      </trkpt>
      <trkpt lat="47.96741" lon="-0.43278">
        <ele>80.8</ele>
        <time>2024-04-14T11:05:13Z</time>
      </trkpt>
      <trkpt lat="47.96746" lon="-0.43281">
        <ele>81.2</ele>
        <time>2024-04-14T11:05:14Z</time>
      </trkpt>
      <trkpt lat="47.9675" lon="-0.43284">
        <ele>81.2</ele>
        <time>2024-04-14T11:05:15Z</time>
      </trkpt>
      <trkpt lat="47.96755" lon="-0.43287">
        <ele>81.2</ele>
        <time>2024-04-14T11:05:16Z</time>
      </trkpt>
      <trkpt lat="47.9676" lon="-0.4329">
        <ele>81.2</ele>
        <time>2024-04-14T11:05:17Z</time>
      </trkpt>
      <trkpt lat="47.96764" lon="-0.43294">
        <ele>81.6</ele>
        <time>2024-04-14T11:05:18Z</time>
      </trkpt>
      <trkpt lat="47.96769" lon="-0.43297">
        <ele>81.6</ele>
        <time>2024-04-14T11:05:19Z</time>
      </trkpt>
      <trkpt lat="47.96774" lon="-0.433">
        <ele>81.6</ele>
        <time>2024-04-14T11:05:20Z</time>
      </trkpt>
      <trkpt lat="47.96778" lon="-0.43303">
        <ele>81.8</ele>
        <time>2024-04-14T11:05:21Z</time>
      </trkpt>
      <trkpt lat="47.96783" lon="-0.43306">
        <ele>82</ele>
        <time>2024-04-14T11:05:22Z</time>
      </trkpt>
      <trkpt lat="47.96788" lon="-0.43309">
        <ele>82</ele>
        <time>2024-04-14T11:05:23Z</time>
      </trkpt>
      <trkpt lat="47.96792" lon="-0.43312">
        <ele>82</ele>
        <time>2024-04-14T11:05:24Z</time>
      </trkpt>
      <trkpt lat="47.96797" lon="-0.43315">
        <ele>82</ele>
        <time>2024-04-14T11:05:25Z</time>
      </trkpt>
      <trkpt lat="47.96802" lon="-0.43319">
        <ele>82.4</ele>
        <time>2024-04-14T11:05:26Z</time>
      </trkpt>
      <trkpt lat="47.96806" lon="-0.43322">
        <ele>82.4</ele>
        <time>2024-04-14T11:05:27Z</time>
      </trkpt>
      <trkpt lat="47.96811" lon="-0.43326">
        <ele>82.4</ele>
        <time>2024-04-14T11:05:28Z</time>
      </trkpt>
      <trkpt lat="47.96816" lon="-0.43329">
        <ele>82.2</ele>
        <time>2024-04-14T11:05:29Z</time>
      </trkpt>
      <trkpt lat="47.9682" lon="-0.43332">
        <ele>82.8</ele>
        <time>2024-04-14T11:05:30Z</time>
      </trkpt>
      <trkpt lat="47.96825" lon="-0.43336">
        <ele>82.8</ele>
        <time>2024-04-14T11:05:31Z</time>
      </trkpt>
      <trkpt lat="47.9683" lon="-0.43339">
        <ele>82.8</ele>
        <time>2024-04-14T11:05:32Z</time>
      </trkpt>
      <trkpt lat="47.96834" lon="-0.43342">
        <ele>82.4</ele>
        <time>2024-04-14T11:05:33Z</time>
      </trkpt>
      <trkpt lat="47.96839" lon="-0.43344">
        <ele>82.8</ele>
        <time>2024-04-14T11:05:34Z</time>
      </trkpt>
      <trkpt lat="47.96844" lon="-0.43347">
        <ele>82.8</ele>
        <time>2024-04-14T11:05:35Z</time>
      </trkpt>
      <trkpt lat="47.96849" lon="-0.4335">
        <ele>82.8</ele>
        <time>2024-04-14T11:05:36Z</time>
      </trkpt>
      <trkpt lat="47.96853" lon="-0.43353">
        <ele>82.8</ele>
        <time>2024-04-14T11:05:37Z</time>
      </trkpt>
      <trkpt lat="47.96858" lon="-0.43356">
        <ele>83</ele>
        <time>2024-04-14T11:05:38Z</time>
      </trkpt>
      <trkpt lat="47.96863" lon="-0.4336">
        <ele>83</ele>
        <time>2024-04-14T11:05:39Z</time>
      </trkpt>
      <trkpt lat="47.96867" lon="-0.43363">
        <ele>83</ele>
        <time>2024-04-14T11:05:40Z</time>
      </trkpt>
      <trkpt lat="47.96872" lon="-0.43366">
        <ele>83</ele>
        <time>2024-04-14T11:05:41Z</time>
      </trkpt>
      <trkpt lat="47.96877" lon="-0.43369">
        <ele>83</ele>
        <time>2024-04-14T11:05:42Z</time>
      </trkpt>
      <trkpt lat="47.96882" lon="-0.43372">
        <ele>83</ele>
        <time>2024-04-14T11:05:43Z</time>
      </trkpt>
      <trkpt lat="47.96887" lon="-0.43375">
        <ele>83</ele>
        <time>2024-04-14T11:05:44Z</time>
      </trkpt>
      <trkpt lat="47.96892" lon="-0.43379">
        <ele>83</ele>
        <time>2024-04-14T11:05:45Z</time>
      </trkpt>
      <trkpt lat="47.96897" lon="-0.43382">
        <ele>82.6</ele>
        <time>2024-04-14T11:05:46Z</time>
      </trkpt>
      <trkpt lat="47.96902" lon="-0.43385">
        <ele>82.6</ele>
        <time>2024-04-14T11:05:47Z</time>
      </trkpt>
      <trkpt lat="47.96907" lon="-0.43389">
        <ele>82.6</ele>
        <time>2024-04-14T11:05:48Z</time>
      </trkpt>
      <trkpt lat="47.96912" lon="-0.43392">
        <ele>82.6</ele>
        <time>2024-04-14T11:05:49Z</time>
      </trkpt>
      <trkpt lat="47.96917" lon="-0.43395">
        <ele>82.8</ele>
        <time>2024-04-14T11:05:50Z</time>
      </trkpt>
      <trkpt lat="47.96922" lon="-0.43398">
        <ele>82.8</ele>
        <time>2024-04-14T11:05:51Z</time>
      </trkpt>
      <trkpt lat="47.96927" lon="-0.43402">
        <ele>82.8</ele>
        <time>2024-04-14T11:05:52Z</time>
      </trkpt>
      <trkpt lat="47.96931" lon="-0.43405">
        <ele>83.4</ele>
        <time>2024-04-14T11:05:53Z</time>
      </trkpt>
      <trkpt lat="47.96936" lon="-0.43409">
        <ele>83.4</ele>
        <time>2024-04-14T11:05:54Z</time>
      </trkpt>
      <trkpt lat="47.96941" lon="-0.43412">
        <ele>83.4</ele>
        <time>2024-04-14T11:05:55Z</time>
      </trkpt>
      <trkpt lat="47.96946" lon="-0.43415">
        <ele>83.4</ele>
        <time>2024-04-14T11:05:56Z</time>
      </trkpt>
      <trkpt lat="47.96951" lon="-0.43418">
        <ele>83.4</ele>
        <time>2024-04-14T11:05:57Z</time>
      </trkpt>
      <trkpt lat="47.96956" lon="-0.43421">
        <ele>83</ele>
        <time>2024-04-14T11:05:58Z</time>
      </trkpt>
      <trkpt lat="47.96961" lon="-0.43424">
        <ele>83</ele>
        <time>2024-04-14T11:05:59Z</time>
      </trkpt>
      <trkpt lat="47.96966" lon="-0.43427">
        <ele>83</ele>
        <time>2024-04-14T11:06:00Z</time>
      </trkpt>
      <trkpt lat="47.96971" lon="-0.4343">
        <ele>83.4</ele>
        <time>2024-04-14T11:06:01Z</time>
      </trkpt>
      <trkpt lat="47.96975" lon="-0.43433">
        <ele>83.6</ele>
        <time>2024-04-14T11:06:02Z</time>
      </trkpt>
      <trkpt lat="47.9698" lon="-0.43436">
        <ele>83.6</ele>
        <time>2024-04-14T11:06:03Z</time>
      </trkpt>
      <trkpt lat="47.96985" lon="-0.43439">
        <ele>83.6</ele>
        <time>2024-04-14T11:06:04Z</time>
      </trkpt>
      <trkpt lat="47.96989" lon="-0.43442">
        <ele>83.6</ele>
        <time>2024-04-14T11:06:05Z</time>
      </trkpt>
      <trkpt lat="47.96994" lon="-0.43445">
        <ele>84.4</ele>
        <time>2024-04-14T11:06:06Z</time>
      </trkpt>
      <trkpt lat="47.96998" lon="-0.43448">
        <ele>84.4</ele>
        <time>2024-04-14T11:06:07Z</time>
      </trkpt>
      <trkpt lat="47.97002" lon="-0.43452">
        <ele>84.4</ele>
        <time>2024-04-14T11:06:08Z</time>
      </trkpt>
      <trkpt lat="47.97007" lon="-0.43455">
        <ele>84.4</ele>
        <time>2024-04-14T11:06:09Z</time>
      </trkpt>
      <trkpt lat="47.97011" lon="-0.43458">
        <ele>84.4</ele>
        <time>2024-04-14T11:06:10Z</time>
      </trkpt>
      <trkpt lat="47.97015" lon="-0.43461">
        <ele>84.4</ele>
        <time>2024-04-14T11:06:11Z</time>
      </trkpt>
      <trkpt lat="47.97019" lon="-0.43465">
        <ele>84.4</ele>
        <time>2024-04-14T11:06:12Z</time>
      </trkpt>
      <trkpt lat="47.97023" lon="-0.43468">
        <ele>85.2</ele>
        <time>2024-04-14T11:06:13Z</time>
      </trkpt>
      <trkpt lat="47.97027" lon="-0.43472">
        <ele>85.4</ele>
        <time>2024-04-14T11:06:14Z</time>
      </trkpt>
      <trkpt lat="47.97031" lon="-0.43475">
        <ele>85.4</ele>
        <time>2024-04-14T11:06:15Z</time>
      </trkpt>
      <trkpt lat="47.97035" lon="-0.43478">
        <ele>85.4</ele>
        <time>2024-04-14T11:06:16Z</time>
      </trkpt>
      <trkpt lat="47.97038" lon="-0.43482">
        <ele>85.8</ele>
        <time>2024-04-14T11:06:17Z</time>
      </trkpt>
      <trkpt lat="47.97042" lon="-0.43485">
        <ele>85.6</ele>
        <time>2024-04-14T11:06:18Z</time>
      </trkpt>
      <trkpt lat="47.97046" lon="-0.43488">
        <ele>85.6</ele>
        <time>2024-04-14T11:06:19Z</time>
      </trkpt>
      <trkpt lat="47.97049" lon="-0.43492">
        <ele>85.6</ele>
        <time>2024-04-14T11:06:20Z</time>
      </trkpt>
      <trkpt lat="47.97053" lon="-0.43496">
        <ele>86.4</ele>
        <time>2024-04-14T11:06:21Z</time>
      </trkpt>
      <trkpt lat="47.97056" lon="-0.435">
        <ele>87</ele>
        <time>2024-04-14T11:06:22Z</time>
      </trkpt>
      <trkpt lat="47.9706" lon="-0.43503">
        <ele>87</ele>
        <time>2024-04-14T11:06:23Z</time>
      </trkpt>
      <trkpt lat="47.97063" lon="-0.43507">
        <ele>87</ele>
        <time>2024-04-14T11:06:24Z</time>
      </trkpt>
      <trkpt lat="47.97067" lon="-0.4351">
        <ele>87</ele>
        <time>2024-04-14T11:06:25Z</time>
      </trkpt>
      <trkpt lat="47.9707" lon="-0.43513">
        <ele>87.4</ele>
        <time>2024-04-14T11:06:26Z</time>
      </trkpt>
      <trkpt lat="47.97073" lon="-0.43517">
        <ele>87.4</ele>
        <time>2024-04-14T11:06:27Z</time>
      </trkpt>
      <trkpt lat="47.97075" lon="-0.43521">
        <ele>87.4</ele>
        <time>2024-04-14T11:06:28Z</time>
      </trkpt>
      <trkpt lat="47.97078" lon="-0.43525">
        <ele>88.2</ele>
        <time>2024-04-14T11:06:29Z</time>
      </trkpt>
      <trkpt lat="47.97081" lon="-0.43529">
        <ele>88.6</ele>
        <time>2024-04-14T11:06:30Z</time>
      </trkpt>
      <trkpt lat="47.97084" lon="-0.43533">
        <ele>88.6</ele>
        <time>2024-04-14T11:06:31Z</time>
      </trkpt>
      <trkpt lat="47.97086" lon="-0.43537">
        <ele>88.6</ele>
        <time>2024-04-14T11:06:32Z</time>
      </trkpt>
      <trkpt lat="47.97089" lon="-0.4354">
        <ele>88.6</ele>
        <time>2024-04-14T11:06:33Z</time>
      </trkpt>
      <trkpt lat="47.97092" lon="-0.43544">
        <ele>89.2</ele>
        <time>2024-04-14T11:06:34Z</time>
      </trkpt>
      <trkpt lat="47.97095" lon="-0.43548">
        <ele>89.2</ele>
        <time>2024-04-14T11:06:35Z</time>
      </trkpt>
      <trkpt lat="47.97098" lon="-0.43551">
        <ele>89.2</ele>
        <time>2024-04-14T11:06:36Z</time>
      </trkpt>
      <trkpt lat="47.971" lon="-0.43555">
        <ele>89.2</ele>
        <time>2024-04-14T11:06:37Z</time>
      </trkpt>
      <trkpt lat="47.97103" lon="-0.43558">
        <ele>89.2</ele>
        <time>2024-04-14T11:06:38Z</time>
      </trkpt>
      <trkpt lat="47.97106" lon="-0.43562">
        <ele>89.2</ele>
        <time>2024-04-14T11:06:39Z</time>
      </trkpt>
      <trkpt lat="47.97108" lon="-0.43566">
        <ele>89.2</ele>
        <time>2024-04-14T11:06:40Z</time>
      </trkpt>
      <trkpt lat="47.97112" lon="-0.4357">
        <ele>89</ele>
        <time>2024-04-14T11:06:41Z</time>
      </trkpt>
      <trkpt lat="47.97115" lon="-0.43574">
        <ele>88.4</ele>
        <time>2024-04-14T11:06:42Z</time>
      </trkpt>
      <trkpt lat="47.97118" lon="-0.43578">
        <ele>88.4</ele>
        <time>2024-04-14T11:06:43Z</time>
      </trkpt>
      <trkpt lat="47.97121" lon="-0.43582">
        <ele>88.4</ele>
        <time>2024-04-14T11:06:44Z</time>
      </trkpt>
      <trkpt lat="47.97125" lon="-0.43587">
        <ele>88.8</ele>
        <time>2024-04-14T11:06:45Z</time>
      </trkpt>
      <trkpt lat="47.97128" lon="-0.43591">
        <ele>88.4</ele>
        <time>2024-04-14T11:06:46Z</time>
      </trkpt>
      <trkpt lat="47.97132" lon="-0.43596">
        <ele>88.4</ele>
        <time>2024-04-14T11:06:47Z</time>
      </trkpt>
      <trkpt lat="47.97136" lon="-0.43601">
        <ele>88.4</ele>
        <time>2024-04-14T11:06:48Z</time>
      </trkpt>
      <trkpt lat="47.9714" lon="-0.43606">
        <ele>88.4</ele>
        <time>2024-04-14T11:06:49Z</time>
      </trkpt>
      <trkpt lat="47.97144" lon="-0.43611">
        <ele>87.6</ele>
        <time>2024-04-14T11:06:50Z</time>
      </trkpt>
      <trkpt lat="47.97147" lon="-0.43617">
        <ele>87.6</ele>
        <time>2024-04-14T11:06:51Z</time>
      </trkpt>
      <trkpt lat="47.97151" lon="-0.43623">
        <ele>87.6</ele>
        <time>2024-04-14T11:06:52Z</time>
      </trkpt>
      <trkpt lat="47.97156" lon="-0.43629">
        <ele>87.6</ele>
        <time>2024-04-14T11:06:53Z</time>
      </trkpt>
      <trkpt lat="47.97161" lon="-0.43635">
        <ele>87</ele>
        <time>2024-04-14T11:06:54Z</time>
      </trkpt>
      <trkpt lat="47.97165" lon="-0.43641">
        <ele>87</ele>
        <time>2024-04-14T11:06:55Z</time>
      </trkpt>
      <trkpt lat="47.9717" lon="-0.43647">
        <ele>87</ele>
        <time>2024-04-14T11:06:56Z</time>
      </trkpt>
      <trkpt lat="47.97175" lon="-0.43655">
        <ele>86</ele>
        <time>2024-04-14T11:06:57Z</time>
      </trkpt>
      <trkpt lat="47.9718" lon="-0.43662">
        <ele>84.4</ele>
        <time>2024-04-14T11:06:58Z</time>
      </trkpt>
      <trkpt lat="47.97186" lon="-0.4367">
        <ele>84.4</ele>
        <time>2024-04-14T11:06:59Z</time>
      </trkpt>
      <trkpt lat="47.97191" lon="-0.43677">
        <ele>84.4</ele>
        <time>2024-04-14T11:07:00Z</time>
      </trkpt>
      <trkpt lat="47.97197" lon="-0.43685">
        <ele>84.4</ele>
        <time>2024-04-14T11:07:01Z</time>
      </trkpt>
      <trkpt lat="47.97203" lon="-0.43693">
        <ele>81.2</ele>
        <time>2024-04-14T11:07:02Z</time>
      </trkpt>
      <trkpt lat="47.97209" lon="-0.43701">
        <ele>81.2</ele>
        <time>2024-04-14T11:07:03Z</time>
      </trkpt>
      <trkpt lat="47.97215" lon="-0.43709">
        <ele>81.2</ele>
        <time>2024-04-14T11:07:04Z</time>
      </trkpt>
      <trkpt lat="47.97221" lon="-0.43717">
        <ele>80.2</ele>
        <time>2024-04-14T11:07:05Z</time>
      </trkpt>
      <trkpt lat="47.97227" lon="-0.43725">
        <ele>79.6</ele>
        <time>2024-04-14T11:07:06Z</time>
      </trkpt>
      <trkpt lat="47.97234" lon="-0.43733">
        <ele>79.6</ele>
        <time>2024-04-14T11:07:07Z</time>
      </trkpt>
      <trkpt lat="47.9724" lon="-0.43741">
        <ele>79.6</ele>
        <time>2024-04-14T11:07:08Z</time>
      </trkpt>
      <trkpt lat="47.97245" lon="-0.43748">
        <ele>78.6</ele>
        <time>2024-04-14T11:07:09Z</time>
      </trkpt>
      <trkpt lat="47.97251" lon="-0.43756">
        <ele>78.2</ele>
        <time>2024-04-14T11:07:10Z</time>
      </trkpt>
      <trkpt lat="47.97257" lon="-0.43764">
        <ele>78.2</ele>
        <time>2024-04-14T11:07:11Z</time>
      </trkpt>
      <trkpt lat="47.97262" lon="-0.43771">
        <ele>78.2</ele>
        <time>2024-04-14T11:07:12Z</time>
      </trkpt>
      <trkpt lat="47.97267" lon="-0.43777">
        <ele>79.2</ele>
        <time>2024-04-14T11:07:13Z</time>
      </trkpt>
      <trkpt lat="47.97272" lon="-0.43784">
        <ele>79.8</ele>
        <time>2024-04-14T11:07:14Z</time>
      </trkpt>
      <trkpt lat="47.97276" lon="-0.43789">
        <ele>79.8</ele>
        <time>2024-04-14T11:07:15Z</time>
      </trkpt>
      <trkpt lat="47.97281" lon="-0.43796">
        <ele>79.8</ele>
        <time>2024-04-14T11:07:16Z</time>
      </trkpt>
      <trkpt lat="47.97285" lon="-0.43802">
        <ele>80.8</ele>
        <time>2024-04-14T11:07:17Z</time>
      </trkpt>
      <trkpt lat="47.9729" lon="-0.43808">
        <ele>81.6</ele>
        <time>2024-04-14T11:07:18Z</time>
      </trkpt>
      <trkpt lat="47.97293" lon="-0.43813">
        <ele>81.6</ele>
        <time>2024-04-14T11:07:19Z</time>
      </trkpt>
      <trkpt lat="47.97297" lon="-0.43819">
        <ele>81.6</ele>
        <time>2024-04-14T11:07:20Z</time>
      </trkpt>
      <trkpt lat="47.97301" lon="-0.43823">
        <ele>82.6</ele>
        <time>2024-04-14T11:07:21Z</time>
      </trkpt>
      <trkpt lat="47.97305" lon="-0.43828">
        <ele>83</ele>
        <time>2024-04-14T11:07:22Z</time>
      </trkpt>
      <trkpt lat="47.97308" lon="-0.43832">
        <ele>83</ele>
        <time>2024-04-14T11:07:23Z</time>
      </trkpt>
      <trkpt lat="47.97312" lon="-0.43836">
        <ele>83</ele>
        <time>2024-04-14T11:07:24Z</time>
      </trkpt>
      <trkpt lat="47.97315" lon="-0.4384">
        <ele>84</ele>
        <time>2024-04-14T11:07:25Z</time>
      </trkpt>
      <trkpt lat="47.97319" lon="-0.43843">
        <ele>84.4</ele>
        <time>2024-04-14T11:07:26Z</time>
      </trkpt>
      <trkpt lat="47.97323" lon="-0.43843">
        <ele>84.4</ele>
        <time>2024-04-14T11:07:27Z</time>
      </trkpt>
      <trkpt lat="47.97328" lon="-0.43842">
        <ele>84.4</ele>
        <time>2024-04-14T11:07:28Z</time>
      </trkpt>
      <trkpt lat="47.97332" lon="-0.43839">
        <ele>84.4</ele>
        <time>2024-04-14T11:07:29Z</time>
      </trkpt>
      <trkpt lat="47.97336" lon="-0.43836">
        <ele>84.4</ele>
        <time>2024-04-14T11:07:30Z</time>
      </trkpt>
      <trkpt lat="47.9734" lon="-0.43832">
        <ele>84.4</ele>
        <time>2024-04-14T11:07:31Z</time>
      </trkpt>
      <trkpt lat="47.97345" lon="-0.43828">
        <ele>84.4</ele>
        <time>2024-04-14T11:07:32Z</time>
      </trkpt>
      <trkpt lat="47.97349" lon="-0.43824">
        <ele>84.4</ele>
        <time>2024-04-14T11:07:33Z</time>
      </trkpt>
      <trkpt lat="47.97355" lon="-0.4382">
        <ele>82.6</ele>
        <time>2024-04-14T11:07:34Z</time>
      </trkpt>
      <trkpt lat="47.9736" lon="-0.43816">
        <ele>82.6</ele>
        <time>2024-04-14T11:07:35Z</time>
      </trkpt>
      <trkpt lat="47.97366" lon="-0.43811">
        <ele>82.6</ele>
        <time>2024-04-14T11:07:36Z</time>
      </trkpt>
      <trkpt lat="47.97372" lon="-0.43806">
        <ele>82.4</ele>
        <time>2024-04-14T11:07:37Z</time>
      </trkpt>
      <trkpt lat="47.97378" lon="-0.438">
        <ele>80</ele>
        <time>2024-04-14T11:07:38Z</time>
      </trkpt>
      <trkpt lat="47.97384" lon="-0.43794">
        <ele>80</ele>
        <time>2024-04-14T11:07:39Z</time>
      </trkpt>
      <trkpt lat="47.9739" lon="-0.43788">
        <ele>80</ele>
        <time>2024-04-14T11:07:40Z</time>
      </trkpt>
      <trkpt lat="47.97397" lon="-0.43781">
        <ele>79</ele>
        <time>2024-04-14T11:07:41Z</time>
      </trkpt>
      <trkpt lat="47.97403" lon="-0.43776">
        <ele>75.8</ele>
        <time>2024-04-14T11:07:42Z</time>
      </trkpt>
      <trkpt lat="47.97411" lon="-0.43773">
        <ele>75.8</ele>
        <time>2024-04-14T11:07:43Z</time>
      </trkpt>
      <trkpt lat="47.97418" lon="-0.43773">
        <ele>75.8</ele>
        <time>2024-04-14T11:07:44Z</time>
      </trkpt>
      <trkpt lat="47.97424" lon="-0.43773">
        <ele>75.8</ele>
        <time>2024-04-14T11:07:45Z</time>
      </trkpt>
      <trkpt lat="47.97431" lon="-0.43774">
        <ele>76</ele>
        <time>2024-04-14T11:07:46Z</time>
      </trkpt>
      <trkpt lat="47.97438" lon="-0.43775">
        <ele>76</ele>
        <time>2024-04-14T11:07:47Z</time>
      </trkpt>
      <trkpt lat="47.97445" lon="-0.43778">
        <ele>76</ele>
        <time>2024-04-14T11:07:48Z</time>
      </trkpt>
      <trkpt lat="47.97451" lon="-0.4378">
        <ele>77</ele>
        <time>2024-04-14T11:07:49Z</time>
      </trkpt>
      <trkpt lat="47.97457" lon="-0.43782">
        <ele>80.8</ele>
        <time>2024-04-14T11:07:50Z</time>
      </trkpt>
      <trkpt lat="47.97463" lon="-0.43783">
        <ele>80.8</ele>
        <time>2024-04-14T11:07:51Z</time>
      </trkpt>
      <trkpt lat="47.97468" lon="-0.43785">
        <ele>80.8</ele>
        <time>2024-04-14T11:07:52Z</time>
      </trkpt>
      <trkpt lat="47.97473" lon="-0.43786">
        <ele>80.8</ele>
        <time>2024-04-14T11:07:53Z</time>
      </trkpt>
      <trkpt lat="47.97477" lon="-0.43788">
        <ele>82.6</ele>
        <time>2024-04-14T11:07:54Z</time>
      </trkpt>
      <trkpt lat="47.97481" lon="-0.43788">
        <ele>82.6</ele>
        <time>2024-04-14T11:07:55Z</time>
      </trkpt>
      <trkpt lat="47.97485" lon="-0.43789">
        <ele>82.6</ele>
        <time>2024-04-14T11:07:56Z</time>
      </trkpt>
      <trkpt lat="47.9749" lon="-0.4379">
        <ele>83</ele>
        <time>2024-04-14T11:07:57Z</time>
      </trkpt>
      <trkpt lat="47.97495" lon="-0.43792">
        <ele>83.4</ele>
        <time>2024-04-14T11:07:58Z</time>
      </trkpt>
      <trkpt lat="47.97499" lon="-0.43793">
        <ele>83.4</ele>
        <time>2024-04-14T11:07:59Z</time>
      </trkpt>
      <trkpt lat="47.97504" lon="-0.43794">
        <ele>83.4</ele>
        <time>2024-04-14T11:08:00Z</time>
      </trkpt>
      <trkpt lat="47.97509" lon="-0.43795">
        <ele>83.4</ele>
        <time>2024-04-14T11:08:01Z</time>
      </trkpt>
      <trkpt lat="47.97513" lon="-0.43795">
        <ele>83</ele>
        <time>2024-04-14T11:08:02Z</time>
      </trkpt>
      <trkpt lat="47.97518" lon="-0.43796">
        <ele>83</ele>
        <time>2024-04-14T11:08:03Z</time>
      </trkpt>
      <trkpt lat="47.97523" lon="-0.43797">
        <ele>83</ele>
        <time>2024-04-14T11:08:04Z</time>
      </trkpt>
      <trkpt lat="47.97528" lon="-0.43797">
        <ele>83</ele>
        <time>2024-04-14T11:08:05Z</time>
      </trkpt>
      <trkpt lat="47.97533" lon="-0.43797">
        <ele>82.6</ele>
        <time>2024-04-14T11:08:06Z</time>
      </trkpt>
      <trkpt lat="47.97538" lon="-0.43797">
        <ele>82.6</ele>
        <time>2024-04-14T11:08:07Z</time>
      </trkpt>
      <trkpt lat="47.97543" lon="-0.43797">
        <ele>82.6</ele>
        <time>2024-04-14T11:08:08Z</time>
      </trkpt>
      <trkpt lat="47.97548" lon="-0.43797">
        <ele>82.6</ele>
        <time>2024-04-14T11:08:09Z</time>
      </trkpt>
      <trkpt lat="47.97553" lon="-0.43797">
        <ele>82.6</ele>
        <time>2024-04-14T11:08:10Z</time>
      </trkpt>
      <trkpt lat="47.97558" lon="-0.43797">
        <ele>82.6</ele>
        <time>2024-04-14T11:08:11Z</time>
      </trkpt>
      <trkpt lat="47.97562" lon="-0.43797">
        <ele>82.6</ele>
        <time>2024-04-14T11:08:12Z</time>
      </trkpt>
      <trkpt lat="47.97567" lon="-0.43797">
        <ele>83</ele>
        <time>2024-04-14T11:08:13Z</time>
      </trkpt>
      <trkpt lat="47.97572" lon="-0.43797">
        <ele>83.2</ele>
        <time>2024-04-14T11:08:14Z</time>
      </trkpt>
      <trkpt lat="47.97577" lon="-0.43796">
        <ele>83.2</ele>
        <time>2024-04-14T11:08:15Z</time>
      </trkpt>
      <trkpt lat="47.97582" lon="-0.43796">
        <ele>83.2</ele>
        <time>2024-04-14T11:08:16Z</time>
      </trkpt>
      <trkpt lat="47.97587" lon="-0.43796">
        <ele>83.6</ele>
        <time>2024-04-14T11:08:17Z</time>
      </trkpt>
      <trkpt lat="47.97592" lon="-0.43796">
        <ele>84.4</ele>
        <time>2024-04-14T11:08:18Z</time>
      </trkpt>
      <trkpt lat="47.97597" lon="-0.43796">
        <ele>84.4</ele>
        <time>2024-04-14T11:08:19Z</time>
      </trkpt>
      <trkpt lat="47.97601" lon="-0.43796">
        <ele>84.4</ele>
        <time>2024-04-14T11:08:20Z</time>
      </trkpt>
      <trkpt lat="47.97606" lon="-0.43797">
        <ele>84.2</ele>
        <time>2024-04-14T11:08:21Z</time>
      </trkpt>
      <trkpt lat="47.97609" lon="-0.43796">
        <ele>85.8</ele>
        <time>2024-04-14T11:08:22Z</time>
      </trkpt>
      <trkpt lat="47.97612" lon="-0.43795">
        <ele>85.8</ele>
        <time>2024-04-14T11:08:23Z</time>
      </trkpt>
      <trkpt lat="47.97614" lon="-0.43794">
        <ele>85.8</ele>
        <time>2024-04-14T11:08:24Z</time>
      </trkpt>
      <trkpt lat="47.97615" lon="-0.43793">
        <ele>86.8</ele>
        <time>2024-04-14T11:08:25Z</time>
      </trkpt>
      <trkpt lat="47.97616" lon="-0.43792">
        <ele>86.8</ele>
        <time>2024-04-14T11:08:26Z</time>
      </trkpt>
      <trkpt lat="47.97616" lon="-0.43792">
        <ele>86.8</ele>
        <time>2024-04-14T11:08:27Z</time>
      </trkpt>
      <trkpt lat="47.97616" lon="-0.43792">
        <ele>86.8</ele>
        <time>2024-04-14T11:08:28Z</time>
      </trkpt>
      <trkpt lat="47.97621" lon="-0.43793">
        <ele>87.2</ele>
        <time>2024-04-14T11:08:32Z</time>
      </trkpt>
      <trkpt lat="47.97622" lon="-0.43795">
        <ele>87.2</ele>
        <time>2024-04-14T11:08:33Z</time>
      </trkpt>
      <trkpt lat="47.97624" lon="-0.43799">
        <ele>87.2</ele>
        <time>2024-04-14T11:08:34Z</time>
      </trkpt>
      <trkpt lat="47.97626" lon="-0.43802">
        <ele>87.2</ele>
        <time>2024-04-14T11:08:35Z</time>
      </trkpt>
      <trkpt lat="47.97628" lon="-0.43806">
        <ele>87.2</ele>
        <time>2024-04-14T11:08:36Z</time>
      </trkpt>
      <trkpt lat="47.97631" lon="-0.43811">
        <ele>87.2</ele>
        <time>2024-04-14T11:08:37Z</time>
      </trkpt>
      <trkpt lat="47.97633" lon="-0.43816">
        <ele>86.8</ele>
        <time>2024-04-14T11:08:38Z</time>
      </trkpt>
      <trkpt lat="47.97636" lon="-0.43822">
        <ele>86.8</ele>
        <time>2024-04-14T11:08:39Z</time>
      </trkpt>
      <trkpt lat="47.97639" lon="-0.43827">
        <ele>86.8</ele>
        <time>2024-04-14T11:08:40Z</time>
      </trkpt>
      <trkpt lat="47.97642" lon="-0.43833">
        <ele>85.8</ele>
        <time>2024-04-14T11:08:41Z</time>
      </trkpt>
      <trkpt lat="47.97645" lon="-0.43839">
        <ele>85.6</ele>
        <time>2024-04-14T11:08:42Z</time>
      </trkpt>
      <trkpt lat="47.97648" lon="-0.43845">
        <ele>85.6</ele>
        <time>2024-04-14T11:08:43Z</time>
      </trkpt>
      <trkpt lat="47.97652" lon="-0.43851">
        <ele>85.6</ele>
        <time>2024-04-14T11:08:44Z</time>
      </trkpt>
      <trkpt lat="47.97656" lon="-0.43857">
        <ele>85.6</ele>
        <time>2024-04-14T11:08:45Z</time>
      </trkpt>
      <trkpt lat="47.9766" lon="-0.43863">
        <ele>83.8</ele>
        <time>2024-04-14T11:08:46Z</time>
      </trkpt>
      <trkpt lat="47.97663" lon="-0.43869">
        <ele>83.8</ele>
        <time>2024-04-14T11:08:47Z</time>
      </trkpt>
      <trkpt lat="47.97667" lon="-0.43875">
        <ele>83.8</ele>
        <time>2024-04-14T11:08:48Z</time>
      </trkpt>
      <trkpt lat="47.9767" lon="-0.43882">
        <ele>83.8</ele>
        <time>2024-04-14T11:08:49Z</time>
      </trkpt>
      <trkpt lat="47.97674" lon="-0.43888">
        <ele>83.8</ele>
        <time>2024-04-14T11:08:50Z</time>
      </trkpt>
      <trkpt lat="47.97678" lon="-0.43894">
        <ele>83.8</ele>
        <time>2024-04-14T11:08:51Z</time>
      </trkpt>
      <trkpt lat="47.97682" lon="-0.439">
        <ele>83.8</ele>
        <time>2024-04-14T11:08:52Z</time>
      </trkpt>
      <trkpt lat="47.97685" lon="-0.43907">
        <ele>83.8</ele>
        <time>2024-04-14T11:08:53Z</time>
      </trkpt>
      <trkpt lat="47.97689" lon="-0.43913">
        <ele>84.2</ele>
        <time>2024-04-14T11:08:54Z</time>
      </trkpt>
      <trkpt lat="47.97692" lon="-0.43919">
        <ele>84.2</ele>
        <time>2024-04-14T11:08:55Z</time>
      </trkpt>
      <trkpt lat="47.97696" lon="-0.43923">
        <ele>84.2</ele>
        <time>2024-04-14T11:08:56Z</time>
      </trkpt>
      <trkpt lat="47.97701" lon="-0.43925">
        <ele>84.2</ele>
        <time>2024-04-14T11:08:57Z</time>
      </trkpt>
      <trkpt lat="47.97706" lon="-0.43926">
        <ele>82.4</ele>
        <time>2024-04-14T11:08:58Z</time>
      </trkpt>
      <trkpt lat="47.97712" lon="-0.43926">
        <ele>82.4</ele>
        <time>2024-04-14T11:08:59Z</time>
      </trkpt>
      <trkpt lat="47.97718" lon="-0.43928">
        <ele>82.4</ele>
        <time>2024-04-14T11:09:00Z</time>
      </trkpt>
      <trkpt lat="47.97724" lon="-0.43931">
        <ele>81.4</ele>
        <time>2024-04-14T11:09:01Z</time>
      </trkpt>
      <trkpt lat="47.97729" lon="-0.43935">
        <ele>79.2</ele>
        <time>2024-04-14T11:09:02Z</time>
      </trkpt>
      <trkpt lat="47.97734" lon="-0.4394">
        <ele>79.2</ele>
        <time>2024-04-14T11:09:03Z</time>
      </trkpt>
      <trkpt lat="47.97739" lon="-0.43945">
        <ele>79.2</ele>
        <time>2024-04-14T11:09:04Z</time>
      </trkpt>
      <trkpt lat="47.97744" lon="-0.4395">
        <ele>80.2</ele>
        <time>2024-04-14T11:09:05Z</time>
      </trkpt>
      <trkpt lat="47.9775" lon="-0.43952">
        <ele>80.8</ele>
        <time>2024-04-14T11:09:06Z</time>
      </trkpt>
      <trkpt lat="47.97755" lon="-0.43952">
        <ele>80.8</ele>
        <time>2024-04-14T11:09:07Z</time>
      </trkpt>
      <trkpt lat="47.9776" lon="-0.43952">
        <ele>80.8</ele>
        <time>2024-04-14T11:09:08Z</time>
      </trkpt>
      <trkpt lat="47.97764" lon="-0.43952">
        <ele>80.8</ele>
        <time>2024-04-14T11:09:09Z</time>
      </trkpt>
      <trkpt lat="47.97769" lon="-0.43951">
        <ele>83</ele>
        <time>2024-04-14T11:09:10Z</time>
      </trkpt>
      <trkpt lat="47.97773" lon="-0.43951">
        <ele>83</ele>
        <time>2024-04-14T11:09:11Z</time>
      </trkpt>
      <trkpt lat="47.97776" lon="-0.43953">
        <ele>83</ele>
        <time>2024-04-14T11:09:12Z</time>
      </trkpt>
      <trkpt lat="47.97779" lon="-0.43956">
        <ele>83</ele>
        <time>2024-04-14T11:09:13Z</time>
      </trkpt>
      <trkpt lat="47.97781" lon="-0.4396">
        <ele>83.4</ele>
        <time>2024-04-14T11:09:14Z</time>
      </trkpt>
      <trkpt lat="47.97784" lon="-0.43965">
        <ele>83.4</ele>
        <time>2024-04-14T11:09:15Z</time>
      </trkpt>
      <trkpt lat="47.97787" lon="-0.43969">
        <ele>83.4</ele>
        <time>2024-04-14T11:09:16Z</time>
      </trkpt>
      <trkpt lat="47.97789" lon="-0.43974">
        <ele>84.4</ele>
        <time>2024-04-14T11:09:17Z</time>
      </trkpt>
      <trkpt lat="47.97791" lon="-0.43978">
        <ele>86.8</ele>
        <time>2024-04-14T11:09:18Z</time>
      </trkpt>
      <trkpt lat="47.97793" lon="-0.43982">
        <ele>86.8</ele>
        <time>2024-04-14T11:09:19Z</time>
      </trkpt>
      <trkpt lat="47.97795" lon="-0.43986">
        <ele>86.8</ele>
        <time>2024-04-14T11:09:20Z</time>
      </trkpt>
      <trkpt lat="47.97797" lon="-0.4399">
        <ele>86.8</ele>
        <time>2024-04-14T11:09:21Z</time>
      </trkpt>
      <trkpt lat="47.97799" lon="-0.43993">
        <ele>87.8</ele>
        <time>2024-04-14T11:09:22Z</time>
      </trkpt>
      <trkpt lat="47.978" lon="-0.43998">
        <ele>87.8</ele>
        <time>2024-04-14T11:09:23Z</time>
      </trkpt>
      <trkpt lat="47.978" lon="-0.44003">
        <ele>87.8</ele>
        <time>2024-04-14T11:09:24Z</time>
      </trkpt>
      <trkpt lat="47.97799" lon="-0.44007">
        <ele>87.8</ele>
        <time>2024-04-14T11:09:25Z</time>
      </trkpt>
      <trkpt lat="47.97798" lon="-0.44012">
        <ele>88.2</ele>
        <time>2024-04-14T11:09:26Z</time>
      </trkpt>
      <trkpt lat="47.97797" lon="-0.44016">
        <ele>88.2</ele>
        <time>2024-04-14T11:09:27Z</time>
      </trkpt>
      <trkpt lat="47.97798" lon="-0.4402">
        <ele>88.2</ele>
        <time>2024-04-14T11:09:28Z</time>
      </trkpt>
      <trkpt lat="47.978" lon="-0.44024">
        <ele>88.6</ele>
        <time>2024-04-14T11:09:29Z</time>
      </trkpt>
      <trkpt lat="47.97802" lon="-0.44028">
        <ele>89</ele>
        <time>2024-04-14T11:09:30Z</time>
      </trkpt>
      <trkpt lat="47.97803" lon="-0.44031">
        <ele>89</ele>
        <time>2024-04-14T11:09:31Z</time>
      </trkpt>
      <trkpt lat="47.97806" lon="-0.44034">
        <ele>89</ele>
        <time>2024-04-14T11:09:32Z</time>
      </trkpt>
      <trkpt lat="47.97807" lon="-0.44037">
        <ele>89</ele>
        <time>2024-04-14T11:09:33Z</time>
      </trkpt>
      <trkpt lat="47.97809" lon="-0.44041">
        <ele>89.2</ele>
        <time>2024-04-14T11:09:34Z</time>
      </trkpt>
      <trkpt lat="47.97811" lon="-0.44044">
        <ele>89.2</ele>
        <time>2024-04-14T11:09:35Z</time>
      </trkpt>
      <trkpt lat="47.97813" lon="-0.44047">
        <ele>89.2</ele>
        <time>2024-04-14T11:09:36Z</time>
      </trkpt>
      <trkpt lat="47.97815" lon="-0.44051">
        <ele>90.2</ele>
        <time>2024-04-14T11:09:37Z</time>
      </trkpt>
      <trkpt lat="47.97816" lon="-0.44055">
        <ele>92</ele>
        <time>2024-04-14T11:09:38Z</time>
      </trkpt>
      <trkpt lat="47.97818" lon="-0.44059">
        <ele>92</ele>
        <time>2024-04-14T11:09:39Z</time>
      </trkpt>
      <trkpt lat="47.97819" lon="-0.44063">
        <ele>92</ele>
        <time>2024-04-14T11:09:40Z</time>
      </trkpt>
      <trkpt lat="47.9782" lon="-0.44067">
        <ele>91.4</ele>
        <time>2024-04-14T11:09:41Z</time>
      </trkpt>
      <trkpt lat="47.97821" lon="-0.44071">
        <ele>91.6</ele>
        <time>2024-04-14T11:09:42Z</time>
      </trkpt>
      <trkpt lat="47.97822" lon="-0.44076">
        <ele>91.6</ele>
        <time>2024-04-14T11:09:43Z</time>
      </trkpt>
      <trkpt lat="47.97823" lon="-0.4408">
        <ele>91.6</ele>
        <time>2024-04-14T11:09:44Z</time>
      </trkpt>
      <trkpt lat="47.97824" lon="-0.44084">
        <ele>91.6</ele>
        <time>2024-04-14T11:09:45Z</time>
      </trkpt>
      <trkpt lat="47.97825" lon="-0.44088">
        <ele>91.6</ele>
        <time>2024-04-14T11:09:46Z</time>
      </trkpt>
      <trkpt lat="47.97825" lon="-0.44092">
        <ele>91.6</ele>
        <time>2024-04-14T11:09:47Z</time>
      </trkpt>
      <trkpt lat="47.97826" lon="-0.44096">
        <ele>91.6</ele>
        <time>2024-04-14T11:09:48Z</time>
      </trkpt>
      <trkpt lat="47.97827" lon="-0.44101">
        <ele>92.4</ele>
        <time>2024-04-14T11:09:49Z</time>
      </trkpt>
      <trkpt lat="47.97829" lon="-0.44105">
        <ele>92</ele>
        <time>2024-04-14T11:09:50Z</time>
      </trkpt>
      <trkpt lat="47.97831" lon="-0.44108">
        <ele>92</ele>
        <time>2024-04-14T11:09:51Z</time>
      </trkpt>
      <trkpt lat="47.97833" lon="-0.44112">
        <ele>92</ele>
        <time>2024-04-14T11:09:52Z</time>
      </trkpt>
      <trkpt lat="47.97835" lon="-0.44116">
        <ele>92</ele>
        <time>2024-04-14T11:09:53Z</time>
      </trkpt>
      <trkpt lat="47.97837" lon="-0.4412">
        <ele>92.4</ele>
        <time>2024-04-14T11:09:54Z</time>
      </trkpt>
      <trkpt lat="47.9784" lon="-0.44123">
        <ele>92.4</ele>
        <time>2024-04-14T11:09:55Z</time>
      </trkpt>
      <trkpt lat="47.97842" lon="-0.44128">
        <ele>92.4</ele>
        <time>2024-04-14T11:09:56Z</time>
      </trkpt>
      <trkpt lat="47.97845" lon="-0.44131">
        <ele>92.4</ele>
        <time>2024-04-14T11:09:57Z</time>
      </trkpt>
      <trkpt lat="47.97847" lon="-0.44135">
        <ele>92.6</ele>
        <time>2024-04-14T11:09:58Z</time>
      </trkpt>
      <trkpt lat="47.9785" lon="-0.44139">
        <ele>92.6</ele>
        <time>2024-04-14T11:09:59Z</time>
      </trkpt>
      <trkpt lat="47.97852" lon="-0.44143">
        <ele>92.6</ele>
        <time>2024-04-14T11:10:00Z</time>
      </trkpt>
      <trkpt lat="47.97855" lon="-0.44146">
        <ele>92.8</ele>
        <time>2024-04-14T11:10:01Z</time>
      </trkpt>
      <trkpt lat="47.97858" lon="-0.4415">
        <ele>93.2</ele>
        <time>2024-04-14T11:10:02Z</time>
      </trkpt>
      <trkpt lat="47.97861" lon="-0.44153">
        <ele>93.2</ele>
        <time>2024-04-14T11:10:03Z</time>
      </trkpt>
      <trkpt lat="47.97864" lon="-0.44156">
        <ele>93.2</ele>
        <time>2024-04-14T11:10:04Z</time>
      </trkpt>
      <trkpt lat="47.97866" lon="-0.44159">
        <ele>93.2</ele>
        <time>2024-04-14T11:10:05Z</time>
      </trkpt>
      <trkpt lat="47.9787" lon="-0.44162">
        <ele>93.4</ele>
        <time>2024-04-14T11:10:06Z</time>
      </trkpt>
      <trkpt lat="47.97873" lon="-0.44164">
        <ele>93.4</ele>
        <time>2024-04-14T11:10:07Z</time>
      </trkpt>
      <trkpt lat="47.97876" lon="-0.44167">
        <ele>93.4</ele>
        <time>2024-04-14T11:10:08Z</time>
      </trkpt>
      <trkpt lat="47.97879" lon="-0.4417">
        <ele>93.4</ele>
        <time>2024-04-14T11:10:09Z</time>
      </trkpt>
      <trkpt lat="47.97882" lon="-0.44173">
        <ele>93.4</ele>
        <time>2024-04-14T11:10:10Z</time>
      </trkpt>
      <trkpt lat="47.97884" lon="-0.44177">
        <ele>93.4</ele>
        <time>2024-04-14T11:10:11Z</time>
      </trkpt>
      <trkpt lat="47.97884" lon="-0.44182">
        <ele>93.4</ele>
        <time>2024-04-14T11:10:12Z</time>
      </trkpt>
      <trkpt lat="47.97883" lon="-0.44186">
        <ele>93.4</ele>
        <time>2024-04-14T11:10:13Z</time>
      </trkpt>
      <trkpt lat="47.97882" lon="-0.44191">
        <ele>93.4</ele>
        <time>2024-04-14T11:10:14Z</time>
      </trkpt>
      <trkpt lat="47.9788" lon="-0.44196">
        <ele>93.4</ele>
        <time>2024-04-14T11:10:15Z</time>
      </trkpt>
      <trkpt lat="47.97878" lon="-0.442">
        <ele>93.4</ele>
        <time>2024-04-14T11:10:16Z</time>
      </trkpt>
      <trkpt lat="47.97876" lon="-0.44205">
        <ele>92.8</ele>
        <time>2024-04-14T11:10:17Z</time>
      </trkpt>
      <trkpt lat="47.97874" lon="-0.4421">
        <ele>92.2</ele>
        <time>2024-04-14T11:10:18Z</time>
      </trkpt>
      <trkpt lat="47.97874" lon="-0.44216">
        <ele>92.2</ele>
        <time>2024-04-14T11:10:19Z</time>
      </trkpt>
      <trkpt lat="47.97874" lon="-0.4422">
        <ele>92.2</ele>
        <time>2024-04-14T11:10:20Z</time>
      </trkpt>
      <trkpt lat="47.97875" lon="-0.44224">
        <ele>92.8</ele>
        <time>2024-04-14T11:10:21Z</time>
      </trkpt>
      <trkpt lat="47.97876" lon="-0.44227">
        <ele>92.4</ele>
        <time>2024-04-14T11:10:22Z</time>
      </trkpt>
      <trkpt lat="47.97878" lon="-0.44231">
        <ele>92.4</ele>
        <time>2024-04-14T11:10:23Z</time>
      </trkpt>
      <trkpt lat="47.97881" lon="-0.44234">
        <ele>92.4</ele>
        <time>2024-04-14T11:10:24Z</time>
      </trkpt>
      <trkpt lat="47.97884" lon="-0.44237">
        <ele>92.4</ele>
        <time>2024-04-14T11:10:25Z</time>
      </trkpt>
      <trkpt lat="47.97887" lon="-0.4424">
        <ele>92.8</ele>
        <time>2024-04-14T11:10:26Z</time>
      </trkpt>
      <trkpt lat="47.97891" lon="-0.44243">
        <ele>92.8</ele>
        <time>2024-04-14T11:10:27Z</time>
      </trkpt>
      <trkpt lat="47.97895" lon="-0.44245">
        <ele>92.8</ele>
        <time>2024-04-14T11:10:28Z</time>
      </trkpt>
      <trkpt lat="47.97899" lon="-0.44247">
        <ele>92.8</ele>
        <time>2024-04-14T11:10:29Z</time>
      </trkpt>
      <trkpt lat="47.97903" lon="-0.44249">
        <ele>92.4</ele>
        <time>2024-04-14T11:10:30Z</time>
      </trkpt>
      <trkpt lat="47.97907" lon="-0.44251">
        <ele>92.4</ele>
        <time>2024-04-14T11:10:31Z</time>
      </trkpt>
      <trkpt lat="47.97911" lon="-0.44253">
        <ele>92.4</ele>
        <time>2024-04-14T11:10:32Z</time>
      </trkpt>
      <trkpt lat="47.97915" lon="-0.44255">
        <ele>92</ele>
        <time>2024-04-14T11:10:33Z</time>
      </trkpt>
      <trkpt lat="47.9792" lon="-0.44258">
        <ele>92.4</ele>
        <time>2024-04-14T11:10:34Z</time>
      </trkpt>
      <trkpt lat="47.97924" lon="-0.44261">
        <ele>92.4</ele>
        <time>2024-04-14T11:10:35Z</time>
      </trkpt>
      <trkpt lat="47.97928" lon="-0.44264">
        <ele>92.4</ele>
        <time>2024-04-14T11:10:36Z</time>
      </trkpt>
      <trkpt lat="47.97933" lon="-0.44267">
        <ele>92.4</ele>
        <time>2024-04-14T11:10:37Z</time>
      </trkpt>
      <trkpt lat="47.97937" lon="-0.4427">
        <ele>92.4</ele>
        <time>2024-04-14T11:10:38Z</time>
      </trkpt>
      <trkpt lat="47.97941" lon="-0.44273">
        <ele>92.4</ele>
        <time>2024-04-14T11:10:39Z</time>
      </trkpt>
      <trkpt lat="47.97946" lon="-0.44275">
        <ele>92.4</ele>
        <time>2024-04-14T11:10:40Z</time>
      </trkpt>
      <trkpt lat="47.9795" lon="-0.44278">
        <ele>93</ele>
        <time>2024-04-14T11:10:41Z</time>
      </trkpt>
      <trkpt lat="47.97955" lon="-0.4428">
        <ele>93</ele>
        <time>2024-04-14T11:10:42Z</time>
      </trkpt>
      <trkpt lat="47.97959" lon="-0.44284">
        <ele>93</ele>
        <time>2024-04-14T11:10:43Z</time>
      </trkpt>
      <trkpt lat="47.97964" lon="-0.44287">
        <ele>93</ele>
        <time>2024-04-14T11:10:44Z</time>
      </trkpt>
      <trkpt lat="47.97969" lon="-0.44289">
        <ele>93.4</ele>
        <time>2024-04-14T11:10:45Z</time>
      </trkpt>
      <trkpt lat="47.97973" lon="-0.44292">
        <ele>93.8</ele>
        <time>2024-04-14T11:10:46Z</time>
      </trkpt>
      <trkpt lat="47.97978" lon="-0.44296">
        <ele>93.8</ele>
        <time>2024-04-14T11:10:47Z</time>
      </trkpt>
      <trkpt lat="47.97982" lon="-0.44299">
        <ele>93.8</ele>
        <time>2024-04-14T11:10:48Z</time>
      </trkpt>
      <trkpt lat="47.97987" lon="-0.44302">
        <ele>93.8</ele>
        <time>2024-04-14T11:10:49Z</time>
      </trkpt>
      <trkpt lat="47.97992" lon="-0.44305">
        <ele>93.6</ele>
        <time>2024-04-14T11:10:50Z</time>
      </trkpt>
      <trkpt lat="47.97996" lon="-0.44309">
        <ele>93.6</ele>
        <time>2024-04-14T11:10:51Z</time>
      </trkpt>
      <trkpt lat="47.98001" lon="-0.44312">
        <ele>93.6</ele>
        <time>2024-04-14T11:10:52Z</time>
      </trkpt>
      <trkpt lat="47.98006" lon="-0.44315">
        <ele>93.4</ele>
        <time>2024-04-14T11:10:53Z</time>
      </trkpt>
      <trkpt lat="47.9801" lon="-0.44318">
        <ele>93.8</ele>
        <time>2024-04-14T11:10:54Z</time>
      </trkpt>
      <trkpt lat="47.98015" lon="-0.44321">
        <ele>93.8</ele>
        <time>2024-04-14T11:10:55Z</time>
      </trkpt>
      <trkpt lat="47.98021" lon="-0.44323">
        <ele>93.8</ele>
        <time>2024-04-14T11:10:56Z</time>
      </trkpt>
      <trkpt lat="47.98026" lon="-0.44324">
        <ele>93.8</ele>
        <time>2024-04-14T11:10:57Z</time>
      </trkpt>
      <trkpt lat="47.98031" lon="-0.44326">
        <ele>93.4</ele>
        <time>2024-04-14T11:10:58Z</time>
      </trkpt>
      <trkpt lat="47.98036" lon="-0.44329">
        <ele>93.4</ele>
        <time>2024-04-14T11:10:59Z</time>
      </trkpt>
      <trkpt lat="47.9804" lon="-0.44332">
        <ele>93.4</ele>
        <time>2024-04-14T11:11:00Z</time>
      </trkpt>
      <trkpt lat="47.98044" lon="-0.44337">
        <ele>93.8</ele>
        <time>2024-04-14T11:11:01Z</time>
      </trkpt>
      <trkpt lat="47.98046" lon="-0.44344">
        <ele>93.4</ele>
        <time>2024-04-14T11:11:02Z</time>
      </trkpt>
      <trkpt lat="47.98046" lon="-0.44352">
        <ele>93.4</ele>
        <time>2024-04-14T11:11:03Z</time>
      </trkpt>
      <trkpt lat="47.98045" lon="-0.44359">
        <ele>93.4</ele>
        <time>2024-04-14T11:11:04Z</time>
      </trkpt>
      <trkpt lat="47.98045" lon="-0.44367">
        <ele>93.4</ele>
        <time>2024-04-14T11:11:05Z</time>
      </trkpt>
      <trkpt lat="47.98044" lon="-0.44374">
        <ele>94</ele>
        <time>2024-04-14T11:11:06Z</time>
      </trkpt>
      <trkpt lat="47.98043" lon="-0.44382">
        <ele>94</ele>
        <time>2024-04-14T11:11:07Z</time>
      </trkpt>
      <trkpt lat="47.98043" lon="-0.4439">
        <ele>94</ele>
        <time>2024-04-14T11:11:08Z</time>
      </trkpt>
      <trkpt lat="47.98044" lon="-0.44398">
        <ele>94</ele>
        <time>2024-04-14T11:11:09Z</time>
      </trkpt>
      <trkpt lat="47.98045" lon="-0.44406">
        <ele>94.2</ele>
        <time>2024-04-14T11:11:10Z</time>
      </trkpt>
      <trkpt lat="47.98047" lon="-0.44414">
        <ele>94.2</ele>
        <time>2024-04-14T11:11:11Z</time>
      </trkpt>
      <trkpt lat="47.98048" lon="-0.44421">
        <ele>94.2</ele>
        <time>2024-04-14T11:11:12Z</time>
      </trkpt>
      <trkpt lat="47.9805" lon="-0.44428">
        <ele>94.6</ele>
        <time>2024-04-14T11:11:13Z</time>
      </trkpt>
      <trkpt lat="47.98052" lon="-0.44435">
        <ele>94.2</ele>
        <time>2024-04-14T11:11:14Z</time>
      </trkpt>
      <trkpt lat="47.98054" lon="-0.44442">
        <ele>94.2</ele>
        <time>2024-04-14T11:11:15Z</time>
      </trkpt>
      <trkpt lat="47.98056" lon="-0.44448">
        <ele>94.2</ele>
        <time>2024-04-14T11:11:16Z</time>
      </trkpt>
      <trkpt lat="47.98059" lon="-0.44455">
        <ele>94.4</ele>
        <time>2024-04-14T11:11:17Z</time>
      </trkpt>
      <trkpt lat="47.98062" lon="-0.44461">
        <ele>95</ele>
        <time>2024-04-14T11:11:18Z</time>
      </trkpt>
      <trkpt lat="47.98065" lon="-0.44467">
        <ele>95</ele>
        <time>2024-04-14T11:11:19Z</time>
      </trkpt>
      <trkpt lat="47.98068" lon="-0.44474">
        <ele>95</ele>
        <time>2024-04-14T11:11:20Z</time>
      </trkpt>
      <trkpt lat="47.98071" lon="-0.4448">
        <ele>95</ele>
        <time>2024-04-14T11:11:21Z</time>
      </trkpt>
      <trkpt lat="47.98074" lon="-0.44486">
        <ele>94.8</ele>
        <time>2024-04-14T11:11:22Z</time>
      </trkpt>
      <trkpt lat="47.98077" lon="-0.44493">
        <ele>94.8</ele>
        <time>2024-04-14T11:11:23Z</time>
      </trkpt>
      <trkpt lat="47.9808" lon="-0.44499">
        <ele>94.8</ele>
        <time>2024-04-14T11:11:24Z</time>
      </trkpt>
      <trkpt lat="47.98083" lon="-0.44505">
        <ele>95.2</ele>
        <time>2024-04-14T11:11:25Z</time>
      </trkpt>
      <trkpt lat="47.98086" lon="-0.44512">
        <ele>94.8</ele>
        <time>2024-04-14T11:11:26Z</time>
      </trkpt>
      <trkpt lat="47.98088" lon="-0.44518">
        <ele>94.8</ele>
        <time>2024-04-14T11:11:27Z</time>
      </trkpt>
      <trkpt lat="47.98091" lon="-0.44524">
        <ele>94.8</ele>
        <time>2024-04-14T11:11:28Z</time>
      </trkpt>
      <trkpt lat="47.98094" lon="-0.4453">
        <ele>94.8</ele>
        <time>2024-04-14T11:11:29Z</time>
      </trkpt>
      <trkpt lat="47.98096" lon="-0.44537">
        <ele>95.2</ele>
        <time>2024-04-14T11:11:30Z</time>
      </trkpt>
      <trkpt lat="47.98098" lon="-0.44543">
        <ele>95.2</ele>
        <time>2024-04-14T11:11:31Z</time>
      </trkpt>
      <trkpt lat="47.981" lon="-0.4455">
        <ele>95.2</ele>
        <time>2024-04-14T11:11:32Z</time>
      </trkpt>
      <trkpt lat="47.98102" lon="-0.44557">
        <ele>95.2</ele>
        <time>2024-04-14T11:11:33Z</time>
      </trkpt>
      <trkpt lat="47.98104" lon="-0.44563">
        <ele>95.6</ele>
        <time>2024-04-14T11:11:34Z</time>
      </trkpt>
      <trkpt lat="47.98106" lon="-0.4457">
        <ele>95.6</ele>
        <time>2024-04-14T11:11:35Z</time>
      </trkpt>
      <trkpt lat="47.98108" lon="-0.44576">
        <ele>95.6</ele>
        <time>2024-04-14T11:11:36Z</time>
      </trkpt>
      <trkpt lat="47.9811" lon="-0.44583">
        <ele>95.6</ele>
        <time>2024-04-14T11:11:37Z</time>
      </trkpt>
      <trkpt lat="47.98112" lon="-0.44589">
        <ele>95.8</ele>
        <time>2024-04-14T11:11:38Z</time>
      </trkpt>
      <trkpt lat="47.98113" lon="-0.44595">
        <ele>95.8</ele>
        <time>2024-04-14T11:11:39Z</time>
      </trkpt>
      <trkpt lat="47.98115" lon="-0.44601">
        <ele>95.8</ele>
        <time>2024-04-14T11:11:40Z</time>
      </trkpt>
      <trkpt lat="47.98117" lon="-0.44608">
        <ele>95.8</ele>
        <time>2024-04-14T11:11:41Z</time>
      </trkpt>
      <trkpt lat="47.98119" lon="-0.44614">
        <ele>95.8</ele>
        <time>2024-04-14T11:11:42Z</time>
      </trkpt>
      <trkpt lat="47.98121" lon="-0.44621">
        <ele>95.8</ele>
        <time>2024-04-14T11:11:43Z</time>
      </trkpt>
      <trkpt lat="47.98123" lon="-0.44627">
        <ele>95.8</ele>
        <time>2024-04-14T11:11:44Z</time>
      </trkpt>
      <trkpt lat="47.98125" lon="-0.44633">
        <ele>96</ele>
        <time>2024-04-14T11:11:45Z</time>
      </trkpt>
      <trkpt lat="47.98128" lon="-0.44639">
        <ele>96.2</ele>
        <time>2024-04-14T11:11:46Z</time>
      </trkpt>
      <trkpt lat="47.9813" lon="-0.44646">
        <ele>96.2</ele>
        <time>2024-04-14T11:11:47Z</time>
      </trkpt>
      <trkpt lat="47.98132" lon="-0.44652">
        <ele>96.2</ele>
        <time>2024-04-14T11:11:48Z</time>
      </trkpt>
      <trkpt lat="47.98135" lon="-0.44657">
        <ele>96.2</ele>
        <time>2024-04-14T11:11:49Z</time>
      </trkpt>
      <trkpt lat="47.98138" lon="-0.44663">
        <ele>96.6</ele>
        <time>2024-04-14T11:11:50Z</time>
      </trkpt>
      <trkpt lat="47.98141" lon="-0.44668">
        <ele>96.6</ele>
        <time>2024-04-14T11:11:51Z</time>
      </trkpt>
      <trkpt lat="47.98144" lon="-0.44673">
        <ele>96.6</ele>
        <time>2024-04-14T11:11:52Z</time>
      </trkpt>
      <trkpt lat="47.98147" lon="-0.44678">
        <ele>96.6</ele>
        <time>2024-04-14T11:11:53Z</time>
      </trkpt>
      <trkpt lat="47.9815" lon="-0.44683">
        <ele>97.6</ele>
        <time>2024-04-14T11:11:54Z</time>
      </trkpt>
      <trkpt lat="47.98153" lon="-0.44688">
        <ele>97.6</ele>
        <time>2024-04-14T11:11:55Z</time>
      </trkpt>
      <trkpt lat="47.98156" lon="-0.44694">
        <ele>97.6</ele>
        <time>2024-04-14T11:11:56Z</time>
      </trkpt>
      <trkpt lat="47.98158" lon="-0.44699">
        <ele>97</ele>
        <time>2024-04-14T11:11:57Z</time>
      </trkpt>
      <trkpt lat="47.98161" lon="-0.44703">
        <ele>97.2</ele>
        <time>2024-04-14T11:11:58Z</time>
      </trkpt>
      <trkpt lat="47.98165" lon="-0.44707">
        <ele>97.2</ele>
        <time>2024-04-14T11:11:59Z</time>
      </trkpt>
      <trkpt lat="47.98168" lon="-0.44712">
        <ele>97.2</ele>
        <time>2024-04-14T11:12:00Z</time>
      </trkpt>
      <trkpt lat="47.98171" lon="-0.44717">
        <ele>97.2</ele>
        <time>2024-04-14T11:12:01Z</time>
      </trkpt>
      <trkpt lat="47.98173" lon="-0.44722">
        <ele>97.4</ele>
        <time>2024-04-14T11:12:02Z</time>
      </trkpt>
      <trkpt lat="47.98176" lon="-0.44727">
        <ele>97.4</ele>
        <time>2024-04-14T11:12:03Z</time>
      </trkpt>
      <trkpt lat="47.98179" lon="-0.44732">
        <ele>97.4</ele>
        <time>2024-04-14T11:12:04Z</time>
      </trkpt>
      <trkpt lat="47.98182" lon="-0.44737">
        <ele>97.8</ele>
        <time>2024-04-14T11:12:05Z</time>
      </trkpt>
      <trkpt lat="47.98185" lon="-0.44742">
        <ele>98</ele>
        <time>2024-04-14T11:12:06Z</time>
      </trkpt>
      <trkpt lat="47.98188" lon="-0.44747">
        <ele>98</ele>
        <time>2024-04-14T11:12:07Z</time>
      </trkpt>
      <trkpt lat="47.9819" lon="-0.44752">
        <ele>98</ele>
        <time>2024-04-14T11:12:08Z</time>
      </trkpt>
      <trkpt lat="47.98193" lon="-0.44757">
        <ele>99</ele>
        <time>2024-04-14T11:12:09Z</time>
      </trkpt>
      <trkpt lat="47.98196" lon="-0.44762">
        <ele>98.6</ele>
        <time>2024-04-14T11:12:10Z</time>
      </trkpt>
      <trkpt lat="47.98199" lon="-0.44767">
        <ele>98.6</ele>
        <time>2024-04-14T11:12:11Z</time>
      </trkpt>
      <trkpt lat="47.98202" lon="-0.44771">
        <ele>98.6</ele>
        <time>2024-04-14T11:12:12Z</time>
      </trkpt>
      <trkpt lat="47.98205" lon="-0.44776">
        <ele>99.2</ele>
        <time>2024-04-14T11:12:13Z</time>
      </trkpt>
      <trkpt lat="47.98208" lon="-0.44781">
        <ele>98.6</ele>
        <time>2024-04-14T11:12:14Z</time>
      </trkpt>
      <trkpt lat="47.9821" lon="-0.44785">
        <ele>98.6</ele>
        <time>2024-04-14T11:12:15Z</time>
      </trkpt>
      <trkpt lat="47.98213" lon="-0.4479">
        <ele>98.6</ele>
        <time>2024-04-14T11:12:16Z</time>
      </trkpt>
      <trkpt lat="47.98216" lon="-0.44795">
        <ele>99.4</ele>
        <time>2024-04-14T11:12:17Z</time>
      </trkpt>
      <trkpt lat="47.98219" lon="-0.44799">
        <ele>99</ele>
        <time>2024-04-14T11:12:18Z</time>
      </trkpt>
      <trkpt lat="47.98222" lon="-0.44804">
        <ele>99</ele>
        <time>2024-04-14T11:12:19Z</time>
      </trkpt>
      <trkpt lat="47.98225" lon="-0.44808">
        <ele>99</ele>
        <time>2024-04-14T11:12:20Z</time>
      </trkpt>
      <trkpt lat="47.98228" lon="-0.44813">
        <ele>99.8</ele>
        <time>2024-04-14T11:12:21Z</time>
      </trkpt>
      <trkpt lat="47.98231" lon="-0.44817">
        <ele>99.4</ele>
        <time>2024-04-14T11:12:22Z</time>
      </trkpt>
      <trkpt lat="47.98233" lon="-0.44822">
        <ele>99.4</ele>
        <time>2024-04-14T11:12:23Z</time>
      </trkpt>
      <trkpt lat="47.98236" lon="-0.44826">
        <ele>99.4</ele>
        <time>2024-04-14T11:12:24Z</time>
      </trkpt>
      <trkpt lat="47.9824" lon="-0.4483">
        <ele>100.4</ele>
        <time>2024-04-14T11:12:25Z</time>
      </trkpt>
      <trkpt lat="47.98243" lon="-0.44835">
        <ele>100.6</ele>
        <time>2024-04-14T11:12:26Z</time>
      </trkpt>
      <trkpt lat="47.98246" lon="-0.44839">
        <ele>100.6</ele>
        <time>2024-04-14T11:12:27Z</time>
      </trkpt>
      <trkpt lat="47.98249" lon="-0.44843">
        <ele>100.6</ele>
        <time>2024-04-14T11:12:28Z</time>
      </trkpt>
      <trkpt lat="47.98252" lon="-0.44847">
        <ele>100.6</ele>
        <time>2024-04-14T11:12:29Z</time>
      </trkpt>
      <trkpt lat="47.98255" lon="-0.44851">
        <ele>100.4</ele>
        <time>2024-04-14T11:12:30Z</time>
      </trkpt>
      <trkpt lat="47.98258" lon="-0.44855">
        <ele>100.4</ele>
        <time>2024-04-14T11:12:31Z</time>
      </trkpt>
      <trkpt lat="47.98262" lon="-0.44859">
        <ele>100.4</ele>
        <time>2024-04-14T11:12:32Z</time>
      </trkpt>
      <trkpt lat="47.98265" lon="-0.44862">
        <ele>101.2</ele>
        <time>2024-04-14T11:12:33Z</time>
      </trkpt>
      <trkpt lat="47.98268" lon="-0.44866">
        <ele>100.8</ele>
        <time>2024-04-14T11:12:34Z</time>
      </trkpt>
      <trkpt lat="47.98272" lon="-0.4487">
        <ele>100.8</ele>
        <time>2024-04-14T11:12:35Z</time>
      </trkpt>
      <trkpt lat="47.98275" lon="-0.44873">
        <ele>100.8</ele>
        <time>2024-04-14T11:12:36Z</time>
      </trkpt>
      <trkpt lat="47.98279" lon="-0.44877">
        <ele>101.2</ele>
        <time>2024-04-14T11:12:37Z</time>
      </trkpt>
      <trkpt lat="47.98282" lon="-0.44881">
        <ele>101</ele>
        <time>2024-04-14T11:12:38Z</time>
      </trkpt>
      <trkpt lat="47.98286" lon="-0.44884">
        <ele>101</ele>
        <time>2024-04-14T11:12:39Z</time>
      </trkpt>
      <trkpt lat="47.98289" lon="-0.44888">
        <ele>101</ele>
        <time>2024-04-14T11:12:40Z</time>
      </trkpt>
      <trkpt lat="47.98292" lon="-0.44891">
        <ele>101.6</ele>
        <time>2024-04-14T11:12:41Z</time>
      </trkpt>
      <trkpt lat="47.98296" lon="-0.44895">
        <ele>101.4</ele>
        <time>2024-04-14T11:12:42Z</time>
      </trkpt>
      <trkpt lat="47.98299" lon="-0.44899">
        <ele>101.4</ele>
        <time>2024-04-14T11:12:43Z</time>
      </trkpt>
      <trkpt lat="47.98302" lon="-0.44903">
        <ele>101.4</ele>
        <time>2024-04-14T11:12:44Z</time>
      </trkpt>
      <trkpt lat="47.98306" lon="-0.44907">
        <ele>101.4</ele>
        <time>2024-04-14T11:12:45Z</time>
      </trkpt>
      <trkpt lat="47.98309" lon="-0.44911">
        <ele>101.6</ele>
        <time>2024-04-14T11:12:46Z</time>
      </trkpt>
      <trkpt lat="47.98312" lon="-0.44916">
        <ele>101.6</ele>
        <time>2024-04-14T11:12:47Z</time>
      </trkpt>
      <trkpt lat="47.98315" lon="-0.44921">
        <ele>101.6</ele>
        <time>2024-04-14T11:12:48Z</time>
      </trkpt>
      <trkpt lat="47.98318" lon="-0.44926">
        <ele>101.8</ele>
        <time>2024-04-14T11:12:49Z</time>
      </trkpt>
      <trkpt lat="47.98321" lon="-0.44931">
        <ele>101.2</ele>
        <time>2024-04-14T11:12:50Z</time>
      </trkpt>
      <trkpt lat="47.98324" lon="-0.44936">
        <ele>101.2</ele>
        <time>2024-04-14T11:12:51Z</time>
      </trkpt>
      <trkpt lat="47.98327" lon="-0.44942">
        <ele>101.2</ele>
        <time>2024-04-14T11:12:52Z</time>
      </trkpt>
      <trkpt lat="47.9833" lon="-0.44947">
        <ele>101.6</ele>
        <time>2024-04-14T11:12:53Z</time>
      </trkpt>
      <trkpt lat="47.98333" lon="-0.44953">
        <ele>101.8</ele>
        <time>2024-04-14T11:12:54Z</time>
      </trkpt>
      <trkpt lat="47.98335" lon="-0.44958">
        <ele>101.8</ele>
        <time>2024-04-14T11:12:55Z</time>
      </trkpt>
      <trkpt lat="47.98338" lon="-0.44964">
        <ele>101.8</ele>
        <time>2024-04-14T11:12:56Z</time>
      </trkpt>
      <trkpt lat="47.98341" lon="-0.44969">
        <ele>101.8</ele>
        <time>2024-04-14T11:12:57Z</time>
      </trkpt>
      <trkpt lat="47.98344" lon="-0.44974">
        <ele>101.6</ele>
        <time>2024-04-14T11:12:58Z</time>
      </trkpt>
      <trkpt lat="47.98347" lon="-0.44979">
        <ele>101.6</ele>
        <time>2024-04-14T11:12:59Z</time>
      </trkpt>
      <trkpt lat="47.9835" lon="-0.44985">
        <ele>101.6</ele>
        <time>2024-04-14T11:13:00Z</time>
      </trkpt>
      <trkpt lat="47.98352" lon="-0.4499">
        <ele>102</ele>
        <time>2024-04-14T11:13:01Z</time>
      </trkpt>
      <trkpt lat="47.98355" lon="-0.44995">
        <ele>102</ele>
        <time>2024-04-14T11:13:02Z</time>
      </trkpt>
      <trkpt lat="47.98358" lon="-0.45">
        <ele>102</ele>
        <time>2024-04-14T11:13:03Z</time>
      </trkpt>
      <trkpt lat="47.98361" lon="-0.45006">
        <ele>102</ele>
        <time>2024-04-14T11:13:04Z</time>
      </trkpt>
      <trkpt lat="47.98363" lon="-0.45011">
        <ele>102</ele>
        <time>2024-04-14T11:13:05Z</time>
      </trkpt>
      <trkpt lat="47.98366" lon="-0.45017">
        <ele>102.2</ele>
        <time>2024-04-14T11:13:06Z</time>
      </trkpt>
      <trkpt lat="47.98369" lon="-0.45022">
        <ele>102.2</ele>
        <time>2024-04-14T11:13:07Z</time>
      </trkpt>
      <trkpt lat="47.98373" lon="-0.45027">
        <ele>102.2</ele>
        <time>2024-04-14T11:13:08Z</time>
      </trkpt>
      <trkpt lat="47.98376" lon="-0.45032">
        <ele>102.2</ele>
        <time>2024-04-14T11:13:09Z</time>
      </trkpt>
      <trkpt lat="47.98379" lon="-0.45037">
        <ele>102</ele>
        <time>2024-04-14T11:13:10Z</time>
      </trkpt>
      <trkpt lat="47.98383" lon="-0.45042">
        <ele>102</ele>
        <time>2024-04-14T11:13:11Z</time>
      </trkpt>
      <trkpt lat="47.98387" lon="-0.45047">
        <ele>102</ele>
        <time>2024-04-14T11:13:12Z</time>
      </trkpt>
      <trkpt lat="47.98391" lon="-0.45051">
        <ele>102.8</ele>
        <time>2024-04-14T11:13:13Z</time>
      </trkpt>
      <trkpt lat="47.98394" lon="-0.45055">
        <ele>102.6</ele>
        <time>2024-04-14T11:13:14Z</time>
      </trkpt>
      <trkpt lat="47.98398" lon="-0.4506">
        <ele>102.6</ele>
        <time>2024-04-14T11:13:15Z</time>
      </trkpt>
      <trkpt lat="47.98403" lon="-0.45063">
        <ele>102.6</ele>
        <time>2024-04-14T11:13:16Z</time>
      </trkpt>
      <trkpt lat="47.98407" lon="-0.45066">
        <ele>102.8</ele>
        <time>2024-04-14T11:13:17Z</time>
      </trkpt>
      <trkpt lat="47.98412" lon="-0.4507">
        <ele>102.8</ele>
        <time>2024-04-14T11:13:18Z</time>
      </trkpt>
      <trkpt lat="47.98417" lon="-0.45073">
        <ele>102.8</ele>
        <time>2024-04-14T11:13:19Z</time>
      </trkpt>
      <trkpt lat="47.98421" lon="-0.45075">
        <ele>102.8</ele>
        <time>2024-04-14T11:13:20Z</time>
      </trkpt>
      <trkpt lat="47.98426" lon="-0.45078">
        <ele>102.8</ele>
        <time>2024-04-14T11:13:21Z</time>
      </trkpt>
      <trkpt lat="47.98431" lon="-0.45081">
        <ele>102.8</ele>
        <time>2024-04-14T11:13:22Z</time>
      </trkpt>
      <trkpt lat="47.98435" lon="-0.45083">
        <ele>102.8</ele>
        <time>2024-04-14T11:13:23Z</time>
      </trkpt>
      <trkpt lat="47.9844" lon="-0.45086">
        <ele>102.8</ele>
        <time>2024-04-14T11:13:24Z</time>
      </trkpt>
      <trkpt lat="47.98445" lon="-0.45088">
        <ele>102.8</ele>
        <time>2024-04-14T11:13:25Z</time>
      </trkpt>
      <trkpt lat="47.9845" lon="-0.4509">
        <ele>103</ele>
        <time>2024-04-14T11:13:26Z</time>
      </trkpt>
      <trkpt lat="47.98454" lon="-0.45093">
        <ele>103</ele>
        <time>2024-04-14T11:13:27Z</time>
      </trkpt>
      <trkpt lat="47.98459" lon="-0.45095">
        <ele>103</ele>
        <time>2024-04-14T11:13:28Z</time>
      </trkpt>
      <trkpt lat="47.98464" lon="-0.45097">
        <ele>103</ele>
        <time>2024-04-14T11:13:29Z</time>
      </trkpt>
      <trkpt lat="47.98468" lon="-0.451">
        <ele>102.8</ele>
        <time>2024-04-14T11:13:30Z</time>
      </trkpt>
      <trkpt lat="47.98473" lon="-0.45102">
        <ele>102.8</ele>
        <time>2024-04-14T11:13:31Z</time>
      </trkpt>
      <trkpt lat="47.98477" lon="-0.45104">
        <ele>102.8</ele>
        <time>2024-04-14T11:13:32Z</time>
      </trkpt>
      <trkpt lat="47.98482" lon="-0.45107">
        <ele>103.8</ele>
        <time>2024-04-14T11:13:33Z</time>
      </trkpt>
      <trkpt lat="47.98486" lon="-0.45109">
        <ele>104</ele>
        <time>2024-04-14T11:13:34Z</time>
      </trkpt>
      <trkpt lat="47.98491" lon="-0.45111">
        <ele>104</ele>
        <time>2024-04-14T11:13:35Z</time>
      </trkpt>
      <trkpt lat="47.98496" lon="-0.45114">
        <ele>104</ele>
        <time>2024-04-14T11:13:36Z</time>
      </trkpt>
      <trkpt lat="47.985" lon="-0.45116">
        <ele>103.8</ele>
        <time>2024-04-14T11:13:37Z</time>
      </trkpt>
      <trkpt lat="47.98504" lon="-0.45118">
        <ele>104</ele>
        <time>2024-04-14T11:13:38Z</time>
      </trkpt>
      <trkpt lat="47.98509" lon="-0.45121">
        <ele>104</ele>
        <time>2024-04-14T11:13:39Z</time>
      </trkpt>
      <trkpt lat="47.98513" lon="-0.45123">
        <ele>104</ele>
        <time>2024-04-14T11:13:40Z</time>
      </trkpt>
      <trkpt lat="47.98518" lon="-0.45125">
        <ele>104</ele>
        <time>2024-04-14T11:13:41Z</time>
      </trkpt>
      <trkpt lat="47.98522" lon="-0.45127">
        <ele>104</ele>
        <time>2024-04-14T11:13:42Z</time>
      </trkpt>
      <trkpt lat="47.98527" lon="-0.4513">
        <ele>104</ele>
        <time>2024-04-14T11:13:43Z</time>
      </trkpt>
      <trkpt lat="47.98531" lon="-0.45132">
        <ele>104</ele>
        <time>2024-04-14T11:13:44Z</time>
      </trkpt>
      <trkpt lat="47.98536" lon="-0.45135">
        <ele>104</ele>
        <time>2024-04-14T11:13:45Z</time>
      </trkpt>
      <trkpt lat="47.9854" lon="-0.45137">
        <ele>104.4</ele>
        <time>2024-04-14T11:13:46Z</time>
      </trkpt>
      <trkpt lat="47.98545" lon="-0.45139">
        <ele>104.4</ele>
        <time>2024-04-14T11:13:47Z</time>
      </trkpt>
      <trkpt lat="47.98549" lon="-0.45141">
        <ele>104.4</ele>
        <time>2024-04-14T11:13:48Z</time>
      </trkpt>
      <trkpt lat="47.98554" lon="-0.45144">
        <ele>104.4</ele>
        <time>2024-04-14T11:13:49Z</time>
      </trkpt>
      <trkpt lat="47.98558" lon="-0.45146">
        <ele>104.6</ele>
        <time>2024-04-14T11:13:50Z</time>
      </trkpt>
      <trkpt lat="47.98563" lon="-0.45149">
        <ele>104.6</ele>
        <time>2024-04-14T11:13:51Z</time>
      </trkpt>
      <trkpt lat="47.98567" lon="-0.45151">
        <ele>104.6</ele>
        <time>2024-04-14T11:13:52Z</time>
      </trkpt>
      <trkpt lat="47.98572" lon="-0.45153">
        <ele>105</ele>
        <time>2024-04-14T11:13:53Z</time>
      </trkpt>
      <trkpt lat="47.98577" lon="-0.45156">
        <ele>104.6</ele>
        <time>2024-04-14T11:13:54Z</time>
      </trkpt>
      <trkpt lat="47.98581" lon="-0.45158">
        <ele>104.6</ele>
        <time>2024-04-14T11:13:55Z</time>
      </trkpt>
      <trkpt lat="47.98586" lon="-0.45161">
        <ele>104.6</ele>
        <time>2024-04-14T11:13:56Z</time>
      </trkpt>
      <trkpt lat="47.98591" lon="-0.45163">
        <ele>104.4</ele>
        <time>2024-04-14T11:13:57Z</time>
      </trkpt>
      <trkpt lat="47.98595" lon="-0.45166">
        <ele>104.8</ele>
        <time>2024-04-14T11:13:58Z</time>
      </trkpt>
      <trkpt lat="47.986" lon="-0.45168">
        <ele>104.8</ele>
        <time>2024-04-14T11:13:59Z</time>
      </trkpt>
      <trkpt lat="47.98604" lon="-0.45171">
        <ele>104.8</ele>
        <time>2024-04-14T11:14:00Z</time>
      </trkpt>
      <trkpt lat="47.98609" lon="-0.45173">
        <ele>104.4</ele>
        <time>2024-04-14T11:14:01Z</time>
      </trkpt>
      <trkpt lat="47.98614" lon="-0.45175">
        <ele>104.4</ele>
        <time>2024-04-14T11:14:02Z</time>
      </trkpt>
      <trkpt lat="47.98618" lon="-0.45177">
        <ele>104.4</ele>
        <time>2024-04-14T11:14:03Z</time>
      </trkpt>
      <trkpt lat="47.98623" lon="-0.4518">
        <ele>104.4</ele>
        <time>2024-04-14T11:14:04Z</time>
      </trkpt>
      <trkpt lat="47.98627" lon="-0.45182">
        <ele>104.4</ele>
        <time>2024-04-14T11:14:05Z</time>
      </trkpt>
      <trkpt lat="47.98631" lon="-0.45185">
        <ele>104.6</ele>
        <time>2024-04-14T11:14:06Z</time>
      </trkpt>
      <trkpt lat="47.98636" lon="-0.45187">
        <ele>104.6</ele>
        <time>2024-04-14T11:14:07Z</time>
      </trkpt>
      <trkpt lat="47.9864" lon="-0.4519">
        <ele>104.6</ele>
        <time>2024-04-14T11:14:08Z</time>
      </trkpt>
      <trkpt lat="47.98645" lon="-0.45193">
        <ele>104.6</ele>
        <time>2024-04-14T11:14:09Z</time>
      </trkpt>
      <trkpt lat="47.98649" lon="-0.45196">
        <ele>104.8</ele>
        <time>2024-04-14T11:14:10Z</time>
      </trkpt>
      <trkpt lat="47.98654" lon="-0.45199">
        <ele>104.8</ele>
        <time>2024-04-14T11:14:11Z</time>
      </trkpt>
      <trkpt lat="47.98658" lon="-0.45203">
        <ele>104.8</ele>
        <time>2024-04-14T11:14:12Z</time>
      </trkpt>
      <trkpt lat="47.98663" lon="-0.45206">
        <ele>105</ele>
        <time>2024-04-14T11:14:13Z</time>
      </trkpt>
      <trkpt lat="47.98667" lon="-0.45209">
        <ele>104.8</ele>
        <time>2024-04-14T11:14:14Z</time>
      </trkpt>
      <trkpt lat="47.98672" lon="-0.45213">
        <ele>104.8</ele>
        <time>2024-04-14T11:14:15Z</time>
      </trkpt>
      <trkpt lat="47.98676" lon="-0.45217">
        <ele>104.8</ele>
        <time>2024-04-14T11:14:16Z</time>
      </trkpt>
      <trkpt lat="47.98681" lon="-0.45221">
        <ele>104.8</ele>
        <time>2024-04-14T11:14:17Z</time>
      </trkpt>
      <trkpt lat="47.98685" lon="-0.45225">
        <ele>105</ele>
        <time>2024-04-14T11:14:18Z</time>
      </trkpt>
      <trkpt lat="47.98689" lon="-0.4523">
        <ele>105</ele>
        <time>2024-04-14T11:14:19Z</time>
      </trkpt>
      <trkpt lat="47.98693" lon="-0.45234">
        <ele>105</ele>
        <time>2024-04-14T11:14:20Z</time>
      </trkpt>
      <trkpt lat="47.98697" lon="-0.45239">
        <ele>105.2</ele>
        <time>2024-04-14T11:14:21Z</time>
      </trkpt>
      <trkpt lat="47.98701" lon="-0.45245">
        <ele>105.2</ele>
        <time>2024-04-14T11:14:22Z</time>
      </trkpt>
      <trkpt lat="47.98705" lon="-0.45251">
        <ele>105.2</ele>
        <time>2024-04-14T11:14:23Z</time>
      </trkpt>
      <trkpt lat="47.98708" lon="-0.45257">
        <ele>105.2</ele>
        <time>2024-04-14T11:14:24Z</time>
      </trkpt>
      <trkpt lat="47.98711" lon="-0.45263">
        <ele>105.2</ele>
        <time>2024-04-14T11:14:25Z</time>
      </trkpt>
      <trkpt lat="47.98714" lon="-0.45269">
        <ele>105.4</ele>
        <time>2024-04-14T11:14:26Z</time>
      </trkpt>
      <trkpt lat="47.98717" lon="-0.45276">
        <ele>105.4</ele>
        <time>2024-04-14T11:14:27Z</time>
      </trkpt>
      <trkpt lat="47.98719" lon="-0.45282">
        <ele>105.4</ele>
        <time>2024-04-14T11:14:28Z</time>
      </trkpt>
      <trkpt lat="47.98722" lon="-0.45289">
        <ele>105.4</ele>
        <time>2024-04-14T11:14:29Z</time>
      </trkpt>
      <trkpt lat="47.98724" lon="-0.45296">
        <ele>105.8</ele>
        <time>2024-04-14T11:14:30Z</time>
      </trkpt>
      <trkpt lat="47.98727" lon="-0.45302">
        <ele>105.8</ele>
        <time>2024-04-14T11:14:31Z</time>
      </trkpt>
      <trkpt lat="47.98729" lon="-0.45308">
        <ele>105.8</ele>
        <time>2024-04-14T11:14:32Z</time>
      </trkpt>
      <trkpt lat="47.98732" lon="-0.45315">
        <ele>106.4</ele>
        <time>2024-04-14T11:14:33Z</time>
      </trkpt>
      <trkpt lat="47.98735" lon="-0.45322">
        <ele>105.8</ele>
        <time>2024-04-14T11:14:34Z</time>
      </trkpt>
      <trkpt lat="47.98738" lon="-0.45328">
        <ele>105.8</ele>
        <time>2024-04-14T11:14:35Z</time>
      </trkpt>
      <trkpt lat="47.9874" lon="-0.45335">
        <ele>105.8</ele>
        <time>2024-04-14T11:14:36Z</time>
      </trkpt>
      <trkpt lat="47.98742" lon="-0.45342">
        <ele>106.4</ele>
        <time>2024-04-14T11:14:37Z</time>
      </trkpt>
      <trkpt lat="47.98745" lon="-0.45348">
        <ele>105.8</ele>
        <time>2024-04-14T11:14:38Z</time>
      </trkpt>
      <trkpt lat="47.98748" lon="-0.45355">
        <ele>105.8</ele>
        <time>2024-04-14T11:14:39Z</time>
      </trkpt>
      <trkpt lat="47.9875" lon="-0.45362">
        <ele>105.8</ele>
        <time>2024-04-14T11:14:40Z</time>
      </trkpt>
      <trkpt lat="47.98752" lon="-0.45368">
        <ele>105</ele>
        <time>2024-04-14T11:14:41Z</time>
      </trkpt>
      <trkpt lat="47.98755" lon="-0.45375">
        <ele>106</ele>
        <time>2024-04-14T11:14:42Z</time>
      </trkpt>
      <trkpt lat="47.98757" lon="-0.45382">
        <ele>106</ele>
        <time>2024-04-14T11:14:43Z</time>
      </trkpt>
      <trkpt lat="47.9876" lon="-0.45388">
        <ele>106</ele>
        <time>2024-04-14T11:14:44Z</time>
      </trkpt>
      <trkpt lat="47.98763" lon="-0.45394">
        <ele>106</ele>
        <time>2024-04-14T11:14:45Z</time>
      </trkpt>
      <trkpt lat="47.98765" lon="-0.45401">
        <ele>106</ele>
        <time>2024-04-14T11:14:46Z</time>
      </trkpt>
      <trkpt lat="47.98767" lon="-0.45408">
        <ele>106</ele>
        <time>2024-04-14T11:14:47Z</time>
      </trkpt>
      <trkpt lat="47.9877" lon="-0.45414">
        <ele>106</ele>
        <time>2024-04-14T11:14:48Z</time>
      </trkpt>
      <trkpt lat="47.98772" lon="-0.4542">
        <ele>106</ele>
        <time>2024-04-14T11:14:49Z</time>
      </trkpt>
      <trkpt lat="47.98775" lon="-0.45427">
        <ele>106.4</ele>
        <time>2024-04-14T11:14:50Z</time>
      </trkpt>
      <trkpt lat="47.98778" lon="-0.45433">
        <ele>106.4</ele>
        <time>2024-04-14T11:14:51Z</time>
      </trkpt>
      <trkpt lat="47.9878" lon="-0.4544">
        <ele>106.4</ele>
        <time>2024-04-14T11:14:52Z</time>
      </trkpt>
      <trkpt lat="47.98783" lon="-0.45446">
        <ele>105.8</ele>
        <time>2024-04-14T11:14:53Z</time>
      </trkpt>
      <trkpt lat="47.98785" lon="-0.45453">
        <ele>105.6</ele>
        <time>2024-04-14T11:14:54Z</time>
      </trkpt>
      <trkpt lat="47.98788" lon="-0.4546">
        <ele>105.6</ele>
        <time>2024-04-14T11:14:55Z</time>
      </trkpt>
      <trkpt lat="47.98791" lon="-0.45466">
        <ele>105.6</ele>
        <time>2024-04-14T11:14:56Z</time>
      </trkpt>
      <trkpt lat="47.98794" lon="-0.45473">
        <ele>106</ele>
        <time>2024-04-14T11:14:57Z</time>
      </trkpt>
      <trkpt lat="47.98796" lon="-0.4548">
        <ele>106.2</ele>
        <time>2024-04-14T11:14:58Z</time>
      </trkpt>
      <trkpt lat="47.98799" lon="-0.45487">
        <ele>106.2</ele>
        <time>2024-04-14T11:14:59Z</time>
      </trkpt>
      <trkpt lat="47.98802" lon="-0.45494">
        <ele>106.2</ele>
        <time>2024-04-14T11:15:00Z</time>
      </trkpt>
      <trkpt lat="47.98805" lon="-0.45501">
        <ele>105.2</ele>
        <time>2024-04-14T11:15:01Z</time>
      </trkpt>
      <trkpt lat="47.98807" lon="-0.45508">
        <ele>105</ele>
        <time>2024-04-14T11:15:02Z</time>
      </trkpt>
      <trkpt lat="47.9881" lon="-0.45515">
        <ele>105</ele>
        <time>2024-04-14T11:15:03Z</time>
      </trkpt>
      <trkpt lat="47.98813" lon="-0.45522">
        <ele>105</ele>
        <time>2024-04-14T11:15:04Z</time>
      </trkpt>
      <trkpt lat="47.98815" lon="-0.45528">
        <ele>105</ele>
        <time>2024-04-14T11:15:05Z</time>
      </trkpt>
      <trkpt lat="47.98818" lon="-0.45535">
        <ele>104.8</ele>
        <time>2024-04-14T11:15:06Z</time>
      </trkpt>
      <trkpt lat="47.98821" lon="-0.45542">
        <ele>104.8</ele>
        <time>2024-04-14T11:15:07Z</time>
      </trkpt>
      <trkpt lat="47.98824" lon="-0.45549">
        <ele>104.8</ele>
        <time>2024-04-14T11:15:08Z</time>
      </trkpt>
      <trkpt lat="47.98826" lon="-0.45556">
        <ele>104.8</ele>
        <time>2024-04-14T11:15:09Z</time>
      </trkpt>
      <trkpt lat="47.98829" lon="-0.45563">
        <ele>105.4</ele>
        <time>2024-04-14T11:15:10Z</time>
      </trkpt>
      <trkpt lat="47.98831" lon="-0.4557">
        <ele>105.4</ele>
        <time>2024-04-14T11:15:11Z</time>
      </trkpt>
      <trkpt lat="47.98834" lon="-0.45577">
        <ele>105.4</ele>
        <time>2024-04-14T11:15:12Z</time>
      </trkpt>
      <trkpt lat="47.98836" lon="-0.45584">
        <ele>105.4</ele>
        <time>2024-04-14T11:15:13Z</time>
      </trkpt>
      <trkpt lat="47.98838" lon="-0.45591">
        <ele>106</ele>
        <time>2024-04-14T11:15:14Z</time>
      </trkpt>
      <trkpt lat="47.98841" lon="-0.45599">
        <ele>106</ele>
        <time>2024-04-14T11:15:15Z</time>
      </trkpt>
      <trkpt lat="47.98843" lon="-0.45606">
        <ele>106</ele>
        <time>2024-04-14T11:15:16Z</time>
      </trkpt>
      <trkpt lat="47.98845" lon="-0.45614">
        <ele>105.4</ele>
        <time>2024-04-14T11:15:17Z</time>
      </trkpt>
      <trkpt lat="47.98847" lon="-0.45621">
        <ele>105.8</ele>
        <time>2024-04-14T11:15:18Z</time>
      </trkpt>
      <trkpt lat="47.98849" lon="-0.45629">
        <ele>105.8</ele>
        <time>2024-04-14T11:15:19Z</time>
      </trkpt>
      <trkpt lat="47.98851" lon="-0.45637">
        <ele>105.8</ele>
        <time>2024-04-14T11:15:20Z</time>
      </trkpt>
      <trkpt lat="47.98852" lon="-0.45645">
        <ele>105.8</ele>
        <time>2024-04-14T11:15:21Z</time>
      </trkpt>
      <trkpt lat="47.98854" lon="-0.45652">
        <ele>105.4</ele>
        <time>2024-04-14T11:15:22Z</time>
      </trkpt>
      <trkpt lat="47.98856" lon="-0.4566">
        <ele>105.4</ele>
        <time>2024-04-14T11:15:23Z</time>
      </trkpt>
      <trkpt lat="47.98858" lon="-0.45668">
        <ele>105.4</ele>
        <time>2024-04-14T11:15:24Z</time>
      </trkpt>
      <trkpt lat="47.98859" lon="-0.45676">
        <ele>105.4</ele>
        <time>2024-04-14T11:15:25Z</time>
      </trkpt>
      <trkpt lat="47.98861" lon="-0.45683">
        <ele>105.8</ele>
        <time>2024-04-14T11:15:26Z</time>
      </trkpt>
      <trkpt lat="47.98863" lon="-0.45691">
        <ele>105.8</ele>
        <time>2024-04-14T11:15:27Z</time>
      </trkpt>
      <trkpt lat="47.98865" lon="-0.45699">
        <ele>105.8</ele>
        <time>2024-04-14T11:15:28Z</time>
      </trkpt>
      <trkpt lat="47.98866" lon="-0.45707">
        <ele>105.8</ele>
        <time>2024-04-14T11:15:29Z</time>
      </trkpt>
      <trkpt lat="47.98868" lon="-0.45715">
        <ele>105.4</ele>
        <time>2024-04-14T11:15:30Z</time>
      </trkpt>
      <trkpt lat="47.9887" lon="-0.45722">
        <ele>105.4</ele>
        <time>2024-04-14T11:15:31Z</time>
      </trkpt>
      <trkpt lat="47.98872" lon="-0.4573">
        <ele>105.4</ele>
        <time>2024-04-14T11:15:32Z</time>
      </trkpt>
      <trkpt lat="47.98874" lon="-0.45738">
        <ele>106.4</ele>
        <time>2024-04-14T11:15:33Z</time>
      </trkpt>
      <trkpt lat="47.98876" lon="-0.45746">
        <ele>106</ele>
        <time>2024-04-14T11:15:34Z</time>
      </trkpt>
      <trkpt lat="47.98878" lon="-0.45753">
        <ele>106</ele>
        <time>2024-04-14T11:15:35Z</time>
      </trkpt>
      <trkpt lat="47.98881" lon="-0.45761">
        <ele>106</ele>
        <time>2024-04-14T11:15:36Z</time>
      </trkpt>
      <trkpt lat="47.98883" lon="-0.45769">
        <ele>106.2</ele>
        <time>2024-04-14T11:15:37Z</time>
      </trkpt>
      <trkpt lat="47.98885" lon="-0.45777">
        <ele>106.2</ele>
        <time>2024-04-14T11:15:38Z</time>
      </trkpt>
      <trkpt lat="47.98888" lon="-0.45784">
        <ele>106.2</ele>
        <time>2024-04-14T11:15:39Z</time>
      </trkpt>
      <trkpt lat="47.9889" lon="-0.45792">
        <ele>106.2</ele>
        <time>2024-04-14T11:15:40Z</time>
      </trkpt>
      <trkpt lat="47.98893" lon="-0.458">
        <ele>105.8</ele>
        <time>2024-04-14T11:15:41Z</time>
      </trkpt>
      <trkpt lat="47.98895" lon="-0.45808">
        <ele>106.4</ele>
        <time>2024-04-14T11:15:42Z</time>
      </trkpt>
      <trkpt lat="47.98898" lon="-0.45816">
        <ele>106.4</ele>
        <time>2024-04-14T11:15:43Z</time>
      </trkpt>
      <trkpt lat="47.989" lon="-0.45824">
        <ele>106.4</ele>
        <time>2024-04-14T11:15:44Z</time>
      </trkpt>
      <trkpt lat="47.98903" lon="-0.45831">
        <ele>105.4</ele>
        <time>2024-04-14T11:15:45Z</time>
      </trkpt>
      <trkpt lat="47.98906" lon="-0.4584">
        <ele>105.4</ele>
        <time>2024-04-14T11:15:46Z</time>
      </trkpt>
      <trkpt lat="47.98909" lon="-0.45847">
        <ele>105.4</ele>
        <time>2024-04-14T11:15:47Z</time>
      </trkpt>
      <trkpt lat="47.98912" lon="-0.45855">
        <ele>105.4</ele>
        <time>2024-04-14T11:15:48Z</time>
      </trkpt>
      <trkpt lat="47.98915" lon="-0.45863">
        <ele>104.4</ele>
        <time>2024-04-14T11:15:49Z</time>
      </trkpt>
      <trkpt lat="47.98918" lon="-0.45872">
        <ele>104.6</ele>
        <time>2024-04-14T11:15:50Z</time>
      </trkpt>
      <trkpt lat="47.98921" lon="-0.4588">
        <ele>104.6</ele>
        <time>2024-04-14T11:15:51Z</time>
      </trkpt>
      <trkpt lat="47.98924" lon="-0.45889">
        <ele>104.6</ele>
        <time>2024-04-14T11:15:52Z</time>
      </trkpt>
      <trkpt lat="47.98926" lon="-0.45897">
        <ele>103.6</ele>
        <time>2024-04-14T11:15:53Z</time>
      </trkpt>
      <trkpt lat="47.98929" lon="-0.45906">
        <ele>104</ele>
        <time>2024-04-14T11:15:54Z</time>
      </trkpt>
      <trkpt lat="47.98932" lon="-0.45915">
        <ele>104</ele>
        <time>2024-04-14T11:15:55Z</time>
      </trkpt>
      <trkpt lat="47.98935" lon="-0.45924">
        <ele>104</ele>
        <time>2024-04-14T11:15:56Z</time>
      </trkpt>
      <trkpt lat="47.98938" lon="-0.45934">
        <ele>104</ele>
        <time>2024-04-14T11:15:57Z</time>
      </trkpt>
      <trkpt lat="47.98941" lon="-0.45943">
        <ele>103.6</ele>
        <time>2024-04-14T11:15:58Z</time>
      </trkpt>
      <trkpt lat="47.98944" lon="-0.45952">
        <ele>103.6</ele>
        <time>2024-04-14T11:15:59Z</time>
      </trkpt>
      <trkpt lat="47.98947" lon="-0.45962">
        <ele>103.6</ele>
        <time>2024-04-14T11:16:00Z</time>
      </trkpt>
      <trkpt lat="47.9895" lon="-0.45971">
        <ele>102.8</ele>
        <time>2024-04-14T11:16:01Z</time>
      </trkpt>
      <trkpt lat="47.98953" lon="-0.45981">
        <ele>102.4</ele>
        <time>2024-04-14T11:16:02Z</time>
      </trkpt>
      <trkpt lat="47.98956" lon="-0.4599">
        <ele>102.4</ele>
        <time>2024-04-14T11:16:03Z</time>
      </trkpt>
      <trkpt lat="47.98959" lon="-0.46">
        <ele>102.4</ele>
        <time>2024-04-14T11:16:04Z</time>
      </trkpt>
      <trkpt lat="47.98962" lon="-0.4601">
        <ele>102.4</ele>
        <time>2024-04-14T11:16:05Z</time>
      </trkpt>
      <trkpt lat="47.98966" lon="-0.46019">
        <ele>101.8</ele>
        <time>2024-04-14T11:16:06Z</time>
      </trkpt>
      <trkpt lat="47.98969" lon="-0.46029">
        <ele>101.8</ele>
        <time>2024-04-14T11:16:07Z</time>
      </trkpt>
      <trkpt lat="47.98973" lon="-0.46039">
        <ele>101.8</ele>
        <time>2024-04-14T11:16:08Z</time>
      </trkpt>
      <trkpt lat="47.98976" lon="-0.46048">
        <ele>101.8</ele>
        <time>2024-04-14T11:16:09Z</time>
      </trkpt>
      <trkpt lat="47.9898" lon="-0.46058">
        <ele>101</ele>
        <time>2024-04-14T11:16:10Z</time>
      </trkpt>
      <trkpt lat="47.98984" lon="-0.46067">
        <ele>101</ele>
        <time>2024-04-14T11:16:11Z</time>
      </trkpt>
      <trkpt lat="47.98988" lon="-0.46076">
        <ele>101</ele>
        <time>2024-04-14T11:16:12Z</time>
      </trkpt>
      <trkpt lat="47.98992" lon="-0.46085">
        <ele>101</ele>
        <time>2024-04-14T11:16:13Z</time>
      </trkpt>
      <trkpt lat="47.98997" lon="-0.46094">
        <ele>99.8</ele>
        <time>2024-04-14T11:16:14Z</time>
      </trkpt>
      <trkpt lat="47.99001" lon="-0.46103">
        <ele>99.8</ele>
        <time>2024-04-14T11:16:15Z</time>
      </trkpt>
      <trkpt lat="47.99006" lon="-0.46112">
        <ele>99.8</ele>
        <time>2024-04-14T11:16:16Z</time>
      </trkpt>
      <trkpt lat="47.9901" lon="-0.4612">
        <ele>99.8</ele>
        <time>2024-04-14T11:16:17Z</time>
      </trkpt>
      <trkpt lat="47.99014" lon="-0.46129">
        <ele>99.2</ele>
        <time>2024-04-14T11:16:18Z</time>
      </trkpt>
      <trkpt lat="47.99019" lon="-0.46138">
        <ele>99.2</ele>
        <time>2024-04-14T11:16:19Z</time>
      </trkpt>
      <trkpt lat="47.99023" lon="-0.46146">
        <ele>99.2</ele>
        <time>2024-04-14T11:16:20Z</time>
      </trkpt>
      <trkpt lat="47.99027" lon="-0.46154">
        <ele>98.8</ele>
        <time>2024-04-14T11:16:21Z</time>
      </trkpt>
      <trkpt lat="47.99031" lon="-0.46163">
        <ele>99.2</ele>
        <time>2024-04-14T11:16:22Z</time>
      </trkpt>
      <trkpt lat="47.99035" lon="-0.46172">
        <ele>99.2</ele>
        <time>2024-04-14T11:16:23Z</time>
      </trkpt>
      <trkpt lat="47.99038" lon="-0.46181">
        <ele>99.2</ele>
        <time>2024-04-14T11:16:24Z</time>
      </trkpt>
      <trkpt lat="47.99042" lon="-0.46191">
        <ele>98.4</ele>
        <time>2024-04-14T11:16:25Z</time>
      </trkpt>
      <trkpt lat="47.99044" lon="-0.46201">
        <ele>98.6</ele>
        <time>2024-04-14T11:16:26Z</time>
      </trkpt>
      <trkpt lat="47.99047" lon="-0.46211">
        <ele>98.6</ele>
        <time>2024-04-14T11:16:27Z</time>
      </trkpt>
      <trkpt lat="47.9905" lon="-0.46222">
        <ele>98.6</ele>
        <time>2024-04-14T11:16:28Z</time>
      </trkpt>
      <trkpt lat="47.99052" lon="-0.46232">
        <ele>98.2</ele>
        <time>2024-04-14T11:16:29Z</time>
      </trkpt>
      <trkpt lat="47.99055" lon="-0.46242">
        <ele>97</ele>
        <time>2024-04-14T11:16:30Z</time>
      </trkpt>
      <trkpt lat="47.99058" lon="-0.46252">
        <ele>97</ele>
        <time>2024-04-14T11:16:31Z</time>
      </trkpt>
      <trkpt lat="47.99061" lon="-0.46263">
        <ele>97</ele>
        <time>2024-04-14T11:16:32Z</time>
      </trkpt>
      <trkpt lat="47.99064" lon="-0.46273">
        <ele>96.8</ele>
        <time>2024-04-14T11:16:33Z</time>
      </trkpt>
      <trkpt lat="47.99067" lon="-0.46284">
        <ele>97.2</ele>
        <time>2024-04-14T11:16:34Z</time>
      </trkpt>
      <trkpt lat="47.9907" lon="-0.46294">
        <ele>97.2</ele>
        <time>2024-04-14T11:16:35Z</time>
      </trkpt>
      <trkpt lat="47.99073" lon="-0.46305">
        <ele>97.2</ele>
        <time>2024-04-14T11:16:36Z</time>
      </trkpt>
      <trkpt lat="47.99076" lon="-0.46316">
        <ele>96.2</ele>
        <time>2024-04-14T11:16:37Z</time>
      </trkpt>
      <trkpt lat="47.9908" lon="-0.46326">
        <ele>96</ele>
        <time>2024-04-14T11:16:38Z</time>
      </trkpt>
      <trkpt lat="47.99083" lon="-0.46336">
        <ele>96</ele>
        <time>2024-04-14T11:16:39Z</time>
      </trkpt>
      <trkpt lat="47.99087" lon="-0.46346">
        <ele>96</ele>
        <time>2024-04-14T11:16:40Z</time>
      </trkpt>
      <trkpt lat="47.99091" lon="-0.46356">
        <ele>96</ele>
        <time>2024-04-14T11:16:41Z</time>
      </trkpt>
      <trkpt lat="47.99095" lon="-0.46366">
        <ele>95.4</ele>
        <time>2024-04-14T11:16:42Z</time>
      </trkpt>
      <trkpt lat="47.99098" lon="-0.46376">
        <ele>95.4</ele>
        <time>2024-04-14T11:16:43Z</time>
      </trkpt>
      <trkpt lat="47.99102" lon="-0.46387">
        <ele>95.4</ele>
        <time>2024-04-14T11:16:44Z</time>
      </trkpt>
      <trkpt lat="47.99106" lon="-0.46397">
        <ele>94.4</ele>
        <time>2024-04-14T11:16:45Z</time>
      </trkpt>
      <trkpt lat="47.9911" lon="-0.46407">
        <ele>94</ele>
        <time>2024-04-14T11:16:46Z</time>
      </trkpt>
      <trkpt lat="47.99114" lon="-0.46417">
        <ele>94</ele>
        <time>2024-04-14T11:16:47Z</time>
      </trkpt>
      <trkpt lat="47.99117" lon="-0.46428">
        <ele>94</ele>
        <time>2024-04-14T11:16:48Z</time>
      </trkpt>
      <trkpt lat="47.99121" lon="-0.46438">
        <ele>93.8</ele>
        <time>2024-04-14T11:16:49Z</time>
      </trkpt>
      <trkpt lat="47.99125" lon="-0.46449">
        <ele>93.4</ele>
        <time>2024-04-14T11:16:50Z</time>
      </trkpt>
      <trkpt lat="47.99129" lon="-0.46459">
        <ele>93.4</ele>
        <time>2024-04-14T11:16:51Z</time>
      </trkpt>
      <trkpt lat="47.99133" lon="-0.46469">
        <ele>93.4</ele>
        <time>2024-04-14T11:16:52Z</time>
      </trkpt>
      <trkpt lat="47.99137" lon="-0.46479">
        <ele>93.4</ele>
        <time>2024-04-14T11:16:53Z</time>
      </trkpt>
      <trkpt lat="47.9914" lon="-0.4649">
        <ele>93.6</ele>
        <time>2024-04-14T11:16:54Z</time>
      </trkpt>
      <trkpt lat="47.99144" lon="-0.465">
        <ele>93.6</ele>
        <time>2024-04-14T11:16:55Z</time>
      </trkpt>
      <trkpt lat="47.99148" lon="-0.46511">
        <ele>93.6</ele>
        <time>2024-04-14T11:16:56Z</time>
      </trkpt>
      <trkpt lat="47.99151" lon="-0.46521">
        <ele>92.6</ele>
        <time>2024-04-14T11:16:57Z</time>
      </trkpt>
      <trkpt lat="47.99155" lon="-0.46532">
        <ele>92.4</ele>
        <time>2024-04-14T11:16:58Z</time>
      </trkpt>
      <trkpt lat="47.99158" lon="-0.46542">
        <ele>92.4</ele>
        <time>2024-04-14T11:16:59Z</time>
      </trkpt>
      <trkpt lat="47.99161" lon="-0.46553">
        <ele>92.4</ele>
        <time>2024-04-14T11:17:00Z</time>
      </trkpt>
      <trkpt lat="47.99164" lon="-0.46563">
        <ele>92.4</ele>
        <time>2024-04-14T11:17:01Z</time>
      </trkpt>
      <trkpt lat="47.99167" lon="-0.46574">
        <ele>92.6</ele>
        <time>2024-04-14T11:17:02Z</time>
      </trkpt>
      <trkpt lat="47.9917" lon="-0.46585">
        <ele>92.6</ele>
        <time>2024-04-14T11:17:03Z</time>
      </trkpt>
      <trkpt lat="47.99173" lon="-0.46595">
        <ele>92.6</ele>
        <time>2024-04-14T11:17:04Z</time>
      </trkpt>
      <trkpt lat="47.99176" lon="-0.46605">
        <ele>92</ele>
        <time>2024-04-14T11:17:05Z</time>
      </trkpt>
      <trkpt lat="47.99179" lon="-0.46616">
        <ele>92.6</ele>
        <time>2024-04-14T11:17:06Z</time>
      </trkpt>
      <trkpt lat="47.99182" lon="-0.46626">
        <ele>92.6</ele>
        <time>2024-04-14T11:17:07Z</time>
      </trkpt>
      <trkpt lat="47.99184" lon="-0.46636">
        <ele>92.6</ele>
        <time>2024-04-14T11:17:08Z</time>
      </trkpt>
      <trkpt lat="47.99187" lon="-0.46646">
        <ele>91.6</ele>
        <time>2024-04-14T11:17:09Z</time>
      </trkpt>
      <trkpt lat="47.9919" lon="-0.46655">
        <ele>91.4</ele>
        <time>2024-04-14T11:17:10Z</time>
      </trkpt>
      <trkpt lat="47.99194" lon="-0.46664">
        <ele>91.4</ele>
        <time>2024-04-14T11:17:11Z</time>
      </trkpt>
      <trkpt lat="47.99197" lon="-0.46674">
        <ele>91.4</ele>
        <time>2024-04-14T11:17:12Z</time>
      </trkpt>
      <trkpt lat="47.992" lon="-0.46683">
        <ele>91</ele>
        <time>2024-04-14T11:17:13Z</time>
      </trkpt>
      <trkpt lat="47.99204" lon="-0.46692">
        <ele>90.8</ele>
        <time>2024-04-14T11:17:14Z</time>
      </trkpt>
      <trkpt lat="47.99207" lon="-0.467">
        <ele>90.8</ele>
        <time>2024-04-14T11:17:15Z</time>
      </trkpt>
      <trkpt lat="47.99211" lon="-0.46708">
        <ele>90.8</ele>
        <time>2024-04-14T11:17:16Z</time>
      </trkpt>
      <trkpt lat="47.99215" lon="-0.46716">
        <ele>91.8</ele>
        <time>2024-04-14T11:17:17Z</time>
      </trkpt>
      <trkpt lat="47.99219" lon="-0.46724">
        <ele>91</ele>
        <time>2024-04-14T11:17:18Z</time>
      </trkpt>
      <trkpt lat="47.99223" lon="-0.46732">
        <ele>91</ele>
        <time>2024-04-14T11:17:19Z</time>
      </trkpt>
      <trkpt lat="47.99226" lon="-0.46741">
        <ele>91</ele>
        <time>2024-04-14T11:17:20Z</time>
      </trkpt>
      <trkpt lat="47.9923" lon="-0.46749">
        <ele>91.2</ele>
        <time>2024-04-14T11:17:21Z</time>
      </trkpt>
      <trkpt lat="47.99234" lon="-0.46757">
        <ele>91.4</ele>
        <time>2024-04-14T11:17:22Z</time>
      </trkpt>
      <trkpt lat="47.99237" lon="-0.46765">
        <ele>91.4</ele>
        <time>2024-04-14T11:17:23Z</time>
      </trkpt>
      <trkpt lat="47.99241" lon="-0.46773">
        <ele>91.4</ele>
        <time>2024-04-14T11:17:24Z</time>
      </trkpt>
      <trkpt lat="47.99244" lon="-0.46781">
        <ele>91.4</ele>
        <time>2024-04-14T11:17:25Z</time>
      </trkpt>
      <trkpt lat="47.99248" lon="-0.4679">
        <ele>91.6</ele>
        <time>2024-04-14T11:17:26Z</time>
      </trkpt>
      <trkpt lat="47.99251" lon="-0.46798">
        <ele>91.6</ele>
        <time>2024-04-14T11:17:27Z</time>
      </trkpt>
      <trkpt lat="47.99254" lon="-0.46807">
        <ele>91.6</ele>
        <time>2024-04-14T11:17:28Z</time>
      </trkpt>
      <trkpt lat="47.99256" lon="-0.46816">
        <ele>91.6</ele>
        <time>2024-04-14T11:17:29Z</time>
      </trkpt>
      <trkpt lat="47.99259" lon="-0.46825">
        <ele>92</ele>
        <time>2024-04-14T11:17:30Z</time>
      </trkpt>
      <trkpt lat="47.9926" lon="-0.46833">
        <ele>92</ele>
        <time>2024-04-14T11:17:31Z</time>
      </trkpt>
      <trkpt lat="47.99261" lon="-0.46843">
        <ele>92</ele>
        <time>2024-04-14T11:17:32Z</time>
      </trkpt>
      <trkpt lat="47.99262" lon="-0.46852">
        <ele>92</ele>
        <time>2024-04-14T11:17:33Z</time>
      </trkpt>
      <trkpt lat="47.99263" lon="-0.46862">
        <ele>92</ele>
        <time>2024-04-14T11:17:34Z</time>
      </trkpt>
      <trkpt lat="47.99263" lon="-0.46871">
        <ele>92</ele>
        <time>2024-04-14T11:17:35Z</time>
      </trkpt>
      <trkpt lat="47.99262" lon="-0.46881">
        <ele>92</ele>
        <time>2024-04-14T11:17:36Z</time>
      </trkpt>
      <trkpt lat="47.99262" lon="-0.46891">
        <ele>92.2</ele>
        <time>2024-04-14T11:17:37Z</time>
      </trkpt>
      <trkpt lat="47.99262" lon="-0.469">
        <ele>92</ele>
        <time>2024-04-14T11:17:38Z</time>
      </trkpt>
      <trkpt lat="47.99261" lon="-0.46909">
        <ele>92</ele>
        <time>2024-04-14T11:17:39Z</time>
      </trkpt>
      <trkpt lat="47.99261" lon="-0.46919">
        <ele>92</ele>
        <time>2024-04-14T11:17:40Z</time>
      </trkpt>
      <trkpt lat="47.9926" lon="-0.46928">
        <ele>92</ele>
        <time>2024-04-14T11:17:41Z</time>
      </trkpt>
      <trkpt lat="47.9926" lon="-0.46937">
        <ele>92.2</ele>
        <time>2024-04-14T11:17:42Z</time>
      </trkpt>
      <trkpt lat="47.9926" lon="-0.46947">
        <ele>92.2</ele>
        <time>2024-04-14T11:17:43Z</time>
      </trkpt>
      <trkpt lat="47.9926" lon="-0.46956">
        <ele>92.2</ele>
        <time>2024-04-14T11:17:44Z</time>
      </trkpt>
      <trkpt lat="47.9926" lon="-0.46965">
        <ele>92.2</ele>
        <time>2024-04-14T11:17:45Z</time>
      </trkpt>
      <trkpt lat="47.9926" lon="-0.46974">
        <ele>92.4</ele>
        <time>2024-04-14T11:17:46Z</time>
      </trkpt>
      <trkpt lat="47.9926" lon="-0.46982">
        <ele>92.4</ele>
        <time>2024-04-14T11:17:47Z</time>
      </trkpt>
      <trkpt lat="47.9926" lon="-0.46991">
        <ele>92.4</ele>
        <time>2024-04-14T11:17:48Z</time>
      </trkpt>
      <trkpt lat="47.99261" lon="-0.47001">
        <ele>93</ele>
        <time>2024-04-14T11:17:49Z</time>
      </trkpt>
      <trkpt lat="47.99262" lon="-0.47009">
        <ele>92.8</ele>
        <time>2024-04-14T11:17:50Z</time>
      </trkpt>
      <trkpt lat="47.99263" lon="-0.47018">
        <ele>92.8</ele>
        <time>2024-04-14T11:17:51Z</time>
      </trkpt>
      <trkpt lat="47.99264" lon="-0.47027">
        <ele>92.8</ele>
        <time>2024-04-14T11:17:52Z</time>
      </trkpt>
      <trkpt lat="47.99265" lon="-0.47036">
        <ele>92.8</ele>
        <time>2024-04-14T11:17:53Z</time>
      </trkpt>
      <trkpt lat="47.99267" lon="-0.47044">
        <ele>92.2</ele>
        <time>2024-04-14T11:17:54Z</time>
      </trkpt>
      <trkpt lat="47.99268" lon="-0.47053">
        <ele>92.2</ele>
        <time>2024-04-14T11:17:55Z</time>
      </trkpt>
      <trkpt lat="47.9927" lon="-0.47061">
        <ele>92.2</ele>
        <time>2024-04-14T11:17:56Z</time>
      </trkpt>
      <trkpt lat="47.99272" lon="-0.47069">
        <ele>92.8</ele>
        <time>2024-04-14T11:17:57Z</time>
      </trkpt>
      <trkpt lat="47.99274" lon="-0.47077">
        <ele>93</ele>
        <time>2024-04-14T11:17:58Z</time>
      </trkpt>
      <trkpt lat="47.99276" lon="-0.47084">
        <ele>93</ele>
        <time>2024-04-14T11:17:59Z</time>
      </trkpt>
      <trkpt lat="47.99279" lon="-0.47092">
        <ele>93</ele>
        <time>2024-04-14T11:18:00Z</time>
      </trkpt>
      <trkpt lat="47.99282" lon="-0.471">
        <ele>92.8</ele>
        <time>2024-04-14T11:18:01Z</time>
      </trkpt>
      <trkpt lat="47.99285" lon="-0.47107">
        <ele>93</ele>
        <time>2024-04-14T11:18:02Z</time>
      </trkpt>
      <trkpt lat="47.99288" lon="-0.47115">
        <ele>93</ele>
        <time>2024-04-14T11:18:03Z</time>
      </trkpt>
      <trkpt lat="47.99291" lon="-0.47122">
        <ele>93</ele>
        <time>2024-04-14T11:18:04Z</time>
      </trkpt>
      <trkpt lat="47.99294" lon="-0.4713">
        <ele>92.6</ele>
        <time>2024-04-14T11:18:05Z</time>
      </trkpt>
      <trkpt lat="47.99298" lon="-0.47137">
        <ele>93</ele>
        <time>2024-04-14T11:18:06Z</time>
      </trkpt>
      <trkpt lat="47.99302" lon="-0.47144">
        <ele>93</ele>
        <time>2024-04-14T11:18:07Z</time>
      </trkpt>
      <trkpt lat="47.99306" lon="-0.47151">
        <ele>93</ele>
        <time>2024-04-14T11:18:08Z</time>
      </trkpt>
      <trkpt lat="47.9931" lon="-0.47157">
        <ele>92.6</ele>
        <time>2024-04-14T11:18:09Z</time>
      </trkpt>
      <trkpt lat="47.99314" lon="-0.47164">
        <ele>93.4</ele>
        <time>2024-04-14T11:18:10Z</time>
      </trkpt>
      <trkpt lat="47.99318" lon="-0.4717">
        <ele>93.4</ele>
        <time>2024-04-14T11:18:11Z</time>
      </trkpt>
      <trkpt lat="47.99322" lon="-0.47176">
        <ele>93.4</ele>
        <time>2024-04-14T11:18:12Z</time>
      </trkpt>
      <trkpt lat="47.99326" lon="-0.47182">
        <ele>92.4</ele>
        <time>2024-04-14T11:18:13Z</time>
      </trkpt>
      <trkpt lat="47.99331" lon="-0.47188">
        <ele>92.2</ele>
        <time>2024-04-14T11:18:14Z</time>
      </trkpt>
      <trkpt lat="47.99335" lon="-0.47194">
        <ele>92.2</ele>
        <time>2024-04-14T11:18:15Z</time>
      </trkpt>
      <trkpt lat="47.9934" lon="-0.472">
        <ele>92.2</ele>
        <time>2024-04-14T11:18:16Z</time>
      </trkpt>
      <trkpt lat="47.99344" lon="-0.47206">
        <ele>92.6</ele>
        <time>2024-04-14T11:18:17Z</time>
      </trkpt>
      <trkpt lat="47.99348" lon="-0.47212">
        <ele>92.4</ele>
        <time>2024-04-14T11:18:18Z</time>
      </trkpt>
      <trkpt lat="47.99353" lon="-0.47218">
        <ele>92.4</ele>
        <time>2024-04-14T11:18:19Z</time>
      </trkpt>
      <trkpt lat="47.99357" lon="-0.47224">
        <ele>92.4</ele>
        <time>2024-04-14T11:18:20Z</time>
      </trkpt>
      <trkpt lat="47.99361" lon="-0.4723">
        <ele>92.4</ele>
        <time>2024-04-14T11:18:21Z</time>
      </trkpt>
      <trkpt lat="47.99366" lon="-0.47236">
        <ele>91.8</ele>
        <time>2024-04-14T11:18:22Z</time>
      </trkpt>
      <trkpt lat="47.99371" lon="-0.47243">
        <ele>91.8</ele>
        <time>2024-04-14T11:18:23Z</time>
      </trkpt>
      <trkpt lat="47.99375" lon="-0.47249">
        <ele>91.8</ele>
        <time>2024-04-14T11:18:24Z</time>
      </trkpt>
      <trkpt lat="47.99379" lon="-0.47255">
        <ele>91.8</ele>
        <time>2024-04-14T11:18:25Z</time>
      </trkpt>
      <trkpt lat="47.99384" lon="-0.47262">
        <ele>92</ele>
        <time>2024-04-14T11:18:26Z</time>
      </trkpt>
      <trkpt lat="47.99389" lon="-0.47268">
        <ele>92</ele>
        <time>2024-04-14T11:18:27Z</time>
      </trkpt>
      <trkpt lat="47.99393" lon="-0.47275">
        <ele>92</ele>
        <time>2024-04-14T11:18:28Z</time>
      </trkpt>
      <trkpt lat="47.99398" lon="-0.47281">
        <ele>91.4</ele>
        <time>2024-04-14T11:18:29Z</time>
      </trkpt>
      <trkpt lat="47.99402" lon="-0.47287">
        <ele>91.4</ele>
        <time>2024-04-14T11:18:30Z</time>
      </trkpt>
      <trkpt lat="47.99407" lon="-0.47294">
        <ele>91.4</ele>
        <time>2024-04-14T11:18:31Z</time>
      </trkpt>
      <trkpt lat="47.99412" lon="-0.473">
        <ele>91.4</ele>
        <time>2024-04-14T11:18:32Z</time>
      </trkpt>
      <trkpt lat="47.99416" lon="-0.47306">
        <ele>91.4</ele>
        <time>2024-04-14T11:18:33Z</time>
      </trkpt>
      <trkpt lat="47.99421" lon="-0.47313">
        <ele>91.4</ele>
        <time>2024-04-14T11:18:34Z</time>
      </trkpt>
      <trkpt lat="47.99426" lon="-0.47319">
        <ele>91.4</ele>
        <time>2024-04-14T11:18:35Z</time>
      </trkpt>
      <trkpt lat="47.9943" lon="-0.47325">
        <ele>91.4</ele>
        <time>2024-04-14T11:18:36Z</time>
      </trkpt>
      <trkpt lat="47.99435" lon="-0.47332">
        <ele>91.4</ele>
        <time>2024-04-14T11:18:37Z</time>
      </trkpt>
      <trkpt lat="47.9944" lon="-0.47338">
        <ele>91</ele>
        <time>2024-04-14T11:18:38Z</time>
      </trkpt>
      <trkpt lat="47.99445" lon="-0.47345">
        <ele>91</ele>
        <time>2024-04-14T11:18:39Z</time>
      </trkpt>
      <trkpt lat="47.99449" lon="-0.47351">
        <ele>91</ele>
        <time>2024-04-14T11:18:40Z</time>
      </trkpt>
      <trkpt lat="47.99454" lon="-0.47358">
        <ele>91</ele>
        <time>2024-04-14T11:18:41Z</time>
      </trkpt>
      <trkpt lat="47.99459" lon="-0.47365">
        <ele>90.2</ele>
        <time>2024-04-14T11:18:42Z</time>
      </trkpt>
      <trkpt lat="47.99463" lon="-0.47371">
        <ele>90.2</ele>
        <time>2024-04-14T11:18:43Z</time>
      </trkpt>
      <trkpt lat="47.99468" lon="-0.47378">
        <ele>90.2</ele>
        <time>2024-04-14T11:18:44Z</time>
      </trkpt>
      <trkpt lat="47.99473" lon="-0.47384">
        <ele>89.4</ele>
        <time>2024-04-14T11:18:45Z</time>
      </trkpt>
      <trkpt lat="47.99477" lon="-0.4739">
        <ele>90</ele>
        <time>2024-04-14T11:18:46Z</time>
      </trkpt>
      <trkpt lat="47.99482" lon="-0.47396">
        <ele>90</ele>
        <time>2024-04-14T11:18:47Z</time>
      </trkpt>
      <trkpt lat="47.99486" lon="-0.47402">
        <ele>90</ele>
        <time>2024-04-14T11:18:48Z</time>
      </trkpt>
      <trkpt lat="47.99491" lon="-0.47408">
        <ele>90</ele>
        <time>2024-04-14T11:18:49Z</time>
      </trkpt>
      <trkpt lat="47.99496" lon="-0.47415">
        <ele>89.6</ele>
        <time>2024-04-14T11:18:50Z</time>
      </trkpt>
      <trkpt lat="47.995" lon="-0.47421">
        <ele>89.6</ele>
        <time>2024-04-14T11:18:51Z</time>
      </trkpt>
      <trkpt lat="47.99505" lon="-0.47427">
        <ele>89.6</ele>
        <time>2024-04-14T11:18:52Z</time>
      </trkpt>
      <trkpt lat="47.99509" lon="-0.47434">
        <ele>89.6</ele>
        <time>2024-04-14T11:18:53Z</time>
      </trkpt>
      <trkpt lat="47.99514" lon="-0.4744">
        <ele>89.8</ele>
        <time>2024-04-14T11:18:54Z</time>
      </trkpt>
      <trkpt lat="47.99518" lon="-0.47446">
        <ele>89.8</ele>
        <time>2024-04-14T11:18:55Z</time>
      </trkpt>
      <trkpt lat="47.99523" lon="-0.47452">
        <ele>89.8</ele>
        <time>2024-04-14T11:18:56Z</time>
      </trkpt>
      <trkpt lat="47.99527" lon="-0.47459">
        <ele>89.8</ele>
        <time>2024-04-14T11:18:57Z</time>
      </trkpt>
      <trkpt lat="47.99532" lon="-0.47465">
        <ele>89.6</ele>
        <time>2024-04-14T11:18:58Z</time>
      </trkpt>
      <trkpt lat="47.99536" lon="-0.47471">
        <ele>89.6</ele>
        <time>2024-04-14T11:18:59Z</time>
      </trkpt>
      <trkpt lat="47.99541" lon="-0.47477">
        <ele>89.6</ele>
        <time>2024-04-14T11:19:00Z</time>
      </trkpt>
      <trkpt lat="47.99545" lon="-0.47483">
        <ele>90.2</ele>
        <time>2024-04-14T11:19:01Z</time>
      </trkpt>
      <trkpt lat="47.99549" lon="-0.47489">
        <ele>89.6</ele>
        <time>2024-04-14T11:19:02Z</time>
      </trkpt>
      <trkpt lat="47.99554" lon="-0.47495">
        <ele>89.6</ele>
        <time>2024-04-14T11:19:03Z</time>
      </trkpt>
      <trkpt lat="47.99558" lon="-0.47501">
        <ele>89.6</ele>
        <time>2024-04-14T11:19:04Z</time>
      </trkpt>
      <trkpt lat="47.99562" lon="-0.47507">
        <ele>89.6</ele>
        <time>2024-04-14T11:19:05Z</time>
      </trkpt>
      <trkpt lat="47.99567" lon="-0.47512">
        <ele>89.6</ele>
        <time>2024-04-14T11:19:06Z</time>
      </trkpt>
      <trkpt lat="47.99571" lon="-0.47518">
        <ele>89.6</ele>
        <time>2024-04-14T11:19:07Z</time>
      </trkpt>
      <trkpt lat="47.99575" lon="-0.47523">
        <ele>89.6</ele>
        <time>2024-04-14T11:19:08Z</time>
      </trkpt>
      <trkpt lat="47.99579" lon="-0.47529">
        <ele>90.6</ele>
        <time>2024-04-14T11:19:09Z</time>
      </trkpt>
      <trkpt lat="47.99583" lon="-0.47533">
        <ele>91.2</ele>
        <time>2024-04-14T11:19:10Z</time>
      </trkpt>
      <trkpt lat="47.99587" lon="-0.47538">
        <ele>91.2</ele>
        <time>2024-04-14T11:19:11Z</time>
      </trkpt>
      <trkpt lat="47.99592" lon="-0.47543">
        <ele>91.2</ele>
        <time>2024-04-14T11:19:12Z</time>
      </trkpt>
      <trkpt lat="47.99596" lon="-0.47547">
        <ele>91.2</ele>
        <time>2024-04-14T11:19:13Z</time>
      </trkpt>
      <trkpt lat="47.99601" lon="-0.47552">
        <ele>91.4</ele>
        <time>2024-04-14T11:19:14Z</time>
      </trkpt>
      <trkpt lat="47.99605" lon="-0.47556">
        <ele>91.4</ele>
        <time>2024-04-14T11:19:15Z</time>
      </trkpt>
      <trkpt lat="47.9961" lon="-0.47561">
        <ele>91.4</ele>
        <time>2024-04-14T11:19:16Z</time>
      </trkpt>
      <trkpt lat="47.99614" lon="-0.47565">
        <ele>91.4</ele>
        <time>2024-04-14T11:19:17Z</time>
      </trkpt>
      <trkpt lat="47.99619" lon="-0.4757">
        <ele>91</ele>
        <time>2024-04-14T11:19:18Z</time>
      </trkpt>
      <trkpt lat="47.99623" lon="-0.47574">
        <ele>91</ele>
        <time>2024-04-14T11:19:19Z</time>
      </trkpt>
      <trkpt lat="47.99627" lon="-0.47579">
        <ele>91</ele>
        <time>2024-04-14T11:19:20Z</time>
      </trkpt>
      <trkpt lat="47.99632" lon="-0.47583">
        <ele>91.4</ele>
        <time>2024-04-14T11:19:21Z</time>
      </trkpt>
      <trkpt lat="47.99636" lon="-0.47587">
        <ele>92</ele>
        <time>2024-04-14T11:19:22Z</time>
      </trkpt>
      <trkpt lat="47.9964" lon="-0.47591">
        <ele>92</ele>
        <time>2024-04-14T11:19:23Z</time>
      </trkpt>
      <trkpt lat="47.99644" lon="-0.47596">
        <ele>92</ele>
        <time>2024-04-14T11:19:24Z</time>
      </trkpt>
      <trkpt lat="47.99649" lon="-0.476">
        <ele>92.4</ele>
        <time>2024-04-14T11:19:25Z</time>
      </trkpt>
      <trkpt lat="47.99653" lon="-0.47604">
        <ele>93</ele>
        <time>2024-04-14T11:19:26Z</time>
      </trkpt>
      <trkpt lat="47.99657" lon="-0.47609">
        <ele>93</ele>
        <time>2024-04-14T11:19:27Z</time>
      </trkpt>
      <trkpt lat="47.99661" lon="-0.47614">
        <ele>93</ele>
        <time>2024-04-14T11:19:28Z</time>
      </trkpt>
      <trkpt lat="47.99666" lon="-0.47618">
        <ele>93</ele>
        <time>2024-04-14T11:19:29Z</time>
      </trkpt>
      <trkpt lat="47.9967" lon="-0.47623">
        <ele>91.4</ele>
        <time>2024-04-14T11:19:30Z</time>
      </trkpt>
      <trkpt lat="47.99674" lon="-0.47627">
        <ele>91.4</ele>
        <time>2024-04-14T11:19:31Z</time>
      </trkpt>
      <trkpt lat="47.99678" lon="-0.47632">
        <ele>91.4</ele>
        <time>2024-04-14T11:19:32Z</time>
      </trkpt>
      <trkpt lat="47.99682" lon="-0.47637">
        <ele>91.4</ele>
        <time>2024-04-14T11:19:33Z</time>
      </trkpt>
      <trkpt lat="47.99687" lon="-0.47642">
        <ele>91.4</ele>
        <time>2024-04-14T11:19:34Z</time>
      </trkpt>
      <trkpt lat="47.99691" lon="-0.47647">
        <ele>91.4</ele>
        <time>2024-04-14T11:19:35Z</time>
      </trkpt>
      <trkpt lat="47.99695" lon="-0.47652">
        <ele>91.4</ele>
        <time>2024-04-14T11:19:36Z</time>
      </trkpt>
      <trkpt lat="47.99699" lon="-0.47657">
        <ele>91.4</ele>
        <time>2024-04-14T11:19:37Z</time>
      </trkpt>
      <trkpt lat="47.99704" lon="-0.47662">
        <ele>91.4</ele>
        <time>2024-04-14T11:19:38Z</time>
      </trkpt>
      <trkpt lat="47.99708" lon="-0.47667">
        <ele>91.4</ele>
        <time>2024-04-14T11:19:39Z</time>
      </trkpt>
      <trkpt lat="47.99712" lon="-0.47672">
        <ele>91.4</ele>
        <time>2024-04-14T11:19:40Z</time>
      </trkpt>
      <trkpt lat="47.99716" lon="-0.47678">
        <ele>91.4</ele>
        <time>2024-04-14T11:19:41Z</time>
      </trkpt>
      <trkpt lat="47.99721" lon="-0.47684">
        <ele>91.8</ele>
        <time>2024-04-14T11:19:42Z</time>
      </trkpt>
      <trkpt lat="47.99725" lon="-0.47689">
        <ele>91.8</ele>
        <time>2024-04-14T11:19:43Z</time>
      </trkpt>
      <trkpt lat="47.9973" lon="-0.47695">
        <ele>91.8</ele>
        <time>2024-04-14T11:19:44Z</time>
      </trkpt>
      <trkpt lat="47.99734" lon="-0.477">
        <ele>91</ele>
        <time>2024-04-14T11:19:45Z</time>
      </trkpt>
      <trkpt lat="47.99739" lon="-0.47706">
        <ele>91.4</ele>
        <time>2024-04-14T11:19:46Z</time>
      </trkpt>
      <trkpt lat="47.99744" lon="-0.47711">
        <ele>91.4</ele>
        <time>2024-04-14T11:19:47Z</time>
      </trkpt>
      <trkpt lat="47.99749" lon="-0.47716">
        <ele>91.4</ele>
        <time>2024-04-14T11:19:48Z</time>
      </trkpt>
      <trkpt lat="47.99754" lon="-0.4772">
        <ele>90.4</ele>
        <time>2024-04-14T11:19:49Z</time>
      </trkpt>
      <trkpt lat="47.99759" lon="-0.47725">
        <ele>90.6</ele>
        <time>2024-04-14T11:19:50Z</time>
      </trkpt>
      <trkpt lat="47.99764" lon="-0.47729">
        <ele>90.6</ele>
        <time>2024-04-14T11:19:51Z</time>
      </trkpt>
      <trkpt lat="47.99769" lon="-0.47733">
        <ele>90.6</ele>
        <time>2024-04-14T11:19:52Z</time>
      </trkpt>
      <trkpt lat="47.99774" lon="-0.47737">
        <ele>90.6</ele>
        <time>2024-04-14T11:19:53Z</time>
      </trkpt>
      <trkpt lat="47.99779" lon="-0.47741">
        <ele>90.4</ele>
        <time>2024-04-14T11:19:54Z</time>
      </trkpt>
      <trkpt lat="47.99784" lon="-0.47746">
        <ele>90.4</ele>
        <time>2024-04-14T11:19:55Z</time>
      </trkpt>
      <trkpt lat="47.99789" lon="-0.4775">
        <ele>90.4</ele>
        <time>2024-04-14T11:19:56Z</time>
      </trkpt>
      <trkpt lat="47.99795" lon="-0.47754">
        <ele>90.4</ele>
        <time>2024-04-14T11:19:57Z</time>
      </trkpt>
      <trkpt lat="47.998" lon="-0.47757">
        <ele>90.6</ele>
        <time>2024-04-14T11:19:58Z</time>
      </trkpt>
      <trkpt lat="47.99805" lon="-0.47761">
        <ele>90.6</ele>
        <time>2024-04-14T11:19:59Z</time>
      </trkpt>
      <trkpt lat="47.9981" lon="-0.47765">
        <ele>90.6</ele>
        <time>2024-04-14T11:20:00Z</time>
      </trkpt>
      <trkpt lat="47.99815" lon="-0.47769">
        <ele>90.6</ele>
        <time>2024-04-14T11:20:01Z</time>
      </trkpt>
      <trkpt lat="47.9982" lon="-0.47774">
        <ele>90.8</ele>
        <time>2024-04-14T11:20:02Z</time>
      </trkpt>
      <trkpt lat="47.99825" lon="-0.47779">
        <ele>90.8</ele>
        <time>2024-04-14T11:20:03Z</time>
      </trkpt>
      <trkpt lat="47.99829" lon="-0.47784">
        <ele>90.8</ele>
        <time>2024-04-14T11:20:04Z</time>
      </trkpt>
      <trkpt lat="47.99833" lon="-0.47789">
        <ele>90.8</ele>
        <time>2024-04-14T11:20:05Z</time>
      </trkpt>
      <trkpt lat="47.99837" lon="-0.47796">
        <ele>90.8</ele>
        <time>2024-04-14T11:20:06Z</time>
      </trkpt>
      <trkpt lat="47.9984" lon="-0.47803">
        <ele>90.8</ele>
        <time>2024-04-14T11:20:07Z</time>
      </trkpt>
      <trkpt lat="47.99843" lon="-0.4781">
        <ele>90.8</ele>
        <time>2024-04-14T11:20:08Z</time>
      </trkpt>
      <trkpt lat="47.99846" lon="-0.47817">
        <ele>90.8</ele>
        <time>2024-04-14T11:20:09Z</time>
      </trkpt>
      <trkpt lat="47.99848" lon="-0.47825">
        <ele>90.6</ele>
        <time>2024-04-14T11:20:10Z</time>
      </trkpt>
      <trkpt lat="47.9985" lon="-0.47833">
        <ele>90.6</ele>
        <time>2024-04-14T11:20:11Z</time>
      </trkpt>
      <trkpt lat="47.99853" lon="-0.47842">
        <ele>90.6</ele>
        <time>2024-04-14T11:20:12Z</time>
      </trkpt>
      <trkpt lat="47.99855" lon="-0.4785">
        <ele>90.6</ele>
        <time>2024-04-14T11:20:13Z</time>
      </trkpt>
      <trkpt lat="47.99857" lon="-0.47858">
        <ele>90.6</ele>
        <time>2024-04-14T11:20:14Z</time>
      </trkpt>
      <trkpt lat="47.99859" lon="-0.47866">
        <ele>90.6</ele>
        <time>2024-04-14T11:20:15Z</time>
      </trkpt>
      <trkpt lat="47.99861" lon="-0.47874">
        <ele>90.6</ele>
        <time>2024-04-14T11:20:16Z</time>
      </trkpt>
      <trkpt lat="47.99863" lon="-0.47882">
        <ele>91</ele>
        <time>2024-04-14T11:20:17Z</time>
      </trkpt>
      <trkpt lat="47.99865" lon="-0.47891">
        <ele>90.8</ele>
        <time>2024-04-14T11:20:18Z</time>
      </trkpt>
      <trkpt lat="47.99867" lon="-0.47899">
        <ele>90.8</ele>
        <time>2024-04-14T11:20:19Z</time>
      </trkpt>
      <trkpt lat="47.99869" lon="-0.47907">
        <ele>90.8</ele>
        <time>2024-04-14T11:20:20Z</time>
      </trkpt>
      <trkpt lat="47.99871" lon="-0.47915">
        <ele>90.6</ele>
        <time>2024-04-14T11:20:21Z</time>
      </trkpt>
      <trkpt lat="47.99873" lon="-0.47923">
        <ele>90.6</ele>
        <time>2024-04-14T11:20:22Z</time>
      </trkpt>
      <trkpt lat="47.99875" lon="-0.47931">
        <ele>90.6</ele>
        <time>2024-04-14T11:20:23Z</time>
      </trkpt>
      <trkpt lat="47.99877" lon="-0.47939">
        <ele>90.6</ele>
        <time>2024-04-14T11:20:24Z</time>
      </trkpt>
      <trkpt lat="47.99879" lon="-0.47947">
        <ele>90</ele>
        <time>2024-04-14T11:20:25Z</time>
      </trkpt>
      <trkpt lat="47.99881" lon="-0.47955">
        <ele>90.2</ele>
        <time>2024-04-14T11:20:26Z</time>
      </trkpt>
      <trkpt lat="47.99883" lon="-0.47963">
        <ele>90.2</ele>
        <time>2024-04-14T11:20:27Z</time>
      </trkpt>
      <trkpt lat="47.99885" lon="-0.4797">
        <ele>90.2</ele>
        <time>2024-04-14T11:20:28Z</time>
      </trkpt>
      <trkpt lat="47.99887" lon="-0.47978">
        <ele>91.2</ele>
        <time>2024-04-14T11:20:29Z</time>
      </trkpt>
      <trkpt lat="47.99889" lon="-0.47986">
        <ele>90.4</ele>
        <time>2024-04-14T11:20:30Z</time>
      </trkpt>
      <trkpt lat="47.99891" lon="-0.47994">
        <ele>90.4</ele>
        <time>2024-04-14T11:20:31Z</time>
      </trkpt>
      <trkpt lat="47.99893" lon="-0.48002">
        <ele>90.4</ele>
        <time>2024-04-14T11:20:32Z</time>
      </trkpt>
      <trkpt lat="47.99895" lon="-0.4801">
        <ele>90.4</ele>
        <time>2024-04-14T11:20:33Z</time>
      </trkpt>
      <trkpt lat="47.99897" lon="-0.48018">
        <ele>90.6</ele>
        <time>2024-04-14T11:20:34Z</time>
      </trkpt>
      <trkpt lat="47.99899" lon="-0.48026">
        <ele>90.6</ele>
        <time>2024-04-14T11:20:35Z</time>
      </trkpt>
      <trkpt lat="47.99901" lon="-0.48034">
        <ele>90.6</ele>
        <time>2024-04-14T11:20:36Z</time>
      </trkpt>
      <trkpt lat="47.99903" lon="-0.48043">
        <ele>90.6</ele>
        <time>2024-04-14T11:20:37Z</time>
      </trkpt>
      <trkpt lat="47.99905" lon="-0.48051">
        <ele>90.6</ele>
        <time>2024-04-14T11:20:38Z</time>
      </trkpt>
      <trkpt lat="47.99907" lon="-0.4806">
        <ele>90.6</ele>
        <time>2024-04-14T11:20:39Z</time>
      </trkpt>
      <trkpt lat="47.99909" lon="-0.48068">
        <ele>90.6</ele>
        <time>2024-04-14T11:20:40Z</time>
      </trkpt>
      <trkpt lat="47.99912" lon="-0.48077">
        <ele>90</ele>
        <time>2024-04-14T11:20:41Z</time>
      </trkpt>
      <trkpt lat="47.99914" lon="-0.48085">
        <ele>89.6</ele>
        <time>2024-04-14T11:20:42Z</time>
      </trkpt>
      <trkpt lat="47.99916" lon="-0.48094">
        <ele>89.6</ele>
        <time>2024-04-14T11:20:43Z</time>
      </trkpt>
      <trkpt lat="47.99918" lon="-0.48102">
        <ele>89.6</ele>
        <time>2024-04-14T11:20:44Z</time>
      </trkpt>
      <trkpt lat="47.9992" lon="-0.48111">
        <ele>89.6</ele>
        <time>2024-04-14T11:20:45Z</time>
      </trkpt>
      <trkpt lat="47.99923" lon="-0.48119">
        <ele>89.6</ele>
        <time>2024-04-14T11:20:46Z</time>
      </trkpt>
      <trkpt lat="47.99925" lon="-0.48128">
        <ele>89.6</ele>
        <time>2024-04-14T11:20:47Z</time>
      </trkpt>
      <trkpt lat="47.99927" lon="-0.48136">
        <ele>89.6</ele>
        <time>2024-04-14T11:20:48Z</time>
      </trkpt>
      <trkpt lat="47.99929" lon="-0.48145">
        <ele>89.6</ele>
        <time>2024-04-14T11:20:49Z</time>
      </trkpt>
      <trkpt lat="47.99931" lon="-0.48153">
        <ele>88.8</ele>
        <time>2024-04-14T11:20:50Z</time>
      </trkpt>
      <trkpt lat="47.99933" lon="-0.48162">
        <ele>88.8</ele>
        <time>2024-04-14T11:20:51Z</time>
      </trkpt>
      <trkpt lat="47.99935" lon="-0.4817">
        <ele>88.8</ele>
        <time>2024-04-14T11:20:52Z</time>
      </trkpt>
      <trkpt lat="47.99938" lon="-0.48178">
        <ele>88.8</ele>
        <time>2024-04-14T11:20:53Z</time>
      </trkpt>
      <trkpt lat="47.9994" lon="-0.48187">
        <ele>88.6</ele>
        <time>2024-04-14T11:20:54Z</time>
      </trkpt>
      <trkpt lat="47.99943" lon="-0.48196">
        <ele>88.6</ele>
        <time>2024-04-14T11:20:55Z</time>
      </trkpt>
      <trkpt lat="47.99945" lon="-0.48205">
        <ele>88.6</ele>
        <time>2024-04-14T11:20:56Z</time>
      </trkpt>
      <trkpt lat="47.99947" lon="-0.48214">
        <ele>88.6</ele>
        <time>2024-04-14T11:20:57Z</time>
      </trkpt>
      <trkpt lat="47.9995" lon="-0.48224">
        <ele>87.8</ele>
        <time>2024-04-14T11:20:58Z</time>
      </trkpt>
      <trkpt lat="47.99952" lon="-0.48233">
        <ele>87.8</ele>
        <time>2024-04-14T11:20:59Z</time>
      </trkpt>
      <trkpt lat="47.99955" lon="-0.48243">
        <ele>87.8</ele>
        <time>2024-04-14T11:21:00Z</time>
      </trkpt>
      <trkpt lat="47.99957" lon="-0.48253">
        <ele>86.8</ele>
        <time>2024-04-14T11:21:01Z</time>
      </trkpt>
      <trkpt lat="47.9996" lon="-0.48262">
        <ele>86.8</ele>
        <time>2024-04-14T11:21:02Z</time>
      </trkpt>
      <trkpt lat="47.99963" lon="-0.48272">
        <ele>86.8</ele>
        <time>2024-04-14T11:21:03Z</time>
      </trkpt>
      <trkpt lat="47.99966" lon="-0.48282">
        <ele>86.8</ele>
        <time>2024-04-14T11:21:04Z</time>
      </trkpt>
      <trkpt lat="47.99969" lon="-0.48292">
        <ele>85.8</ele>
        <time>2024-04-14T11:21:05Z</time>
      </trkpt>
      <trkpt lat="47.99971" lon="-0.48303">
        <ele>85.8</ele>
        <time>2024-04-14T11:21:06Z</time>
      </trkpt>
      <trkpt lat="47.99974" lon="-0.48313">
        <ele>85.8</ele>
        <time>2024-04-14T11:21:07Z</time>
      </trkpt>
      <trkpt lat="47.99977" lon="-0.48323">
        <ele>85.8</ele>
        <time>2024-04-14T11:21:08Z</time>
      </trkpt>
      <trkpt lat="47.99979" lon="-0.48334">
        <ele>85.8</ele>
        <time>2024-04-14T11:21:09Z</time>
      </trkpt>
      <trkpt lat="47.99982" lon="-0.48344">
        <ele>83.6</ele>
        <time>2024-04-14T11:21:10Z</time>
      </trkpt>
      <trkpt lat="47.99985" lon="-0.48354">
        <ele>83.6</ele>
        <time>2024-04-14T11:21:11Z</time>
      </trkpt>
      <trkpt lat="47.99987" lon="-0.48365">
        <ele>83.6</ele>
        <time>2024-04-14T11:21:12Z</time>
      </trkpt>
      <trkpt lat="47.9999" lon="-0.48375">
        <ele>84</ele>
        <time>2024-04-14T11:21:13Z</time>
      </trkpt>
      <trkpt lat="47.99992" lon="-0.48386">
        <ele>83.2</ele>
        <time>2024-04-14T11:21:14Z</time>
      </trkpt>
      <trkpt lat="47.99995" lon="-0.48396">
        <ele>83.2</ele>
        <time>2024-04-14T11:21:15Z</time>
      </trkpt>
      <trkpt lat="47.99997" lon="-0.48407">
        <ele>83.2</ele>
        <time>2024-04-14T11:21:16Z</time>
      </trkpt>
      <trkpt lat="47.99999" lon="-0.48418">
        <ele>83.2</ele>
        <time>2024-04-14T11:21:17Z</time>
      </trkpt>
      <trkpt lat="48.00001" lon="-0.4843">
        <ele>81.4</ele>
        <time>2024-04-14T11:21:18Z</time>
      </trkpt>
      <trkpt lat="48.00001" lon="-0.48442">
        <ele>81.4</ele>
        <time>2024-04-14T11:21:19Z</time>
      </trkpt>
      <trkpt lat="48.00001" lon="-0.48454">
        <ele>81.4</ele>
        <time>2024-04-14T11:21:20Z</time>
      </trkpt>
      <trkpt lat="47.99999" lon="-0.48466">
        <ele>81.4</ele>
        <time>2024-04-14T11:21:21Z</time>
      </trkpt>
      <trkpt lat="47.99998" lon="-0.48478">
        <ele>80.4</ele>
        <time>2024-04-14T11:21:22Z</time>
      </trkpt>
      <trkpt lat="47.99996" lon="-0.48489">
        <ele>80.4</ele>
        <time>2024-04-14T11:21:23Z</time>
      </trkpt>
      <trkpt lat="47.99994" lon="-0.48501">
        <ele>80.4</ele>
        <time>2024-04-14T11:21:24Z</time>
      </trkpt>
      <trkpt lat="47.99991" lon="-0.48512">
        <ele>80.4</ele>
        <time>2024-04-14T11:21:25Z</time>
      </trkpt>
      <trkpt lat="47.9999" lon="-0.48522">
        <ele>80.4</ele>
        <time>2024-04-14T11:21:26Z</time>
      </trkpt>
      <trkpt lat="47.99988" lon="-0.48533">
        <ele>80.4</ele>
        <time>2024-04-14T11:21:27Z</time>
      </trkpt>
      <trkpt lat="47.99986" lon="-0.48543">
        <ele>80.4</ele>
        <time>2024-04-14T11:21:28Z</time>
      </trkpt>
      <trkpt lat="47.99984" lon="-0.48554">
        <ele>80.4</ele>
        <time>2024-04-14T11:21:29Z</time>
      </trkpt>
      <trkpt lat="47.99984" lon="-0.48564">
        <ele>81</ele>
        <time>2024-04-14T11:21:30Z</time>
      </trkpt>
      <trkpt lat="47.99984" lon="-0.48574">
        <ele>81</ele>
        <time>2024-04-14T11:21:31Z</time>
      </trkpt>
      <trkpt lat="47.99985" lon="-0.48584">
        <ele>81</ele>
        <time>2024-04-14T11:21:32Z</time>
      </trkpt>
      <trkpt lat="47.99988" lon="-0.48593">
        <ele>81</ele>
        <time>2024-04-14T11:21:33Z</time>
      </trkpt>
      <trkpt lat="47.99991" lon="-0.48602">
        <ele>81.6</ele>
        <time>2024-04-14T11:21:34Z</time>
      </trkpt>
      <trkpt lat="47.99994" lon="-0.4861">
        <ele>81.6</ele>
        <time>2024-04-14T11:21:35Z</time>
      </trkpt>
      <trkpt lat="47.99998" lon="-0.48616">
        <ele>81.6</ele>
        <time>2024-04-14T11:21:36Z</time>
      </trkpt>
      <trkpt lat="48.00003" lon="-0.48622">
        <ele>81.6</ele>
        <time>2024-04-14T11:21:37Z</time>
      </trkpt>
      <trkpt lat="48.00008" lon="-0.48626">
        <ele>82.8</ele>
        <time>2024-04-14T11:21:38Z</time>
      </trkpt>
      <trkpt lat="48.00013" lon="-0.48631">
        <ele>82.8</ele>
        <time>2024-04-14T11:21:39Z</time>
      </trkpt>
      <trkpt lat="48.00017" lon="-0.48635">
        <ele>82.8</ele>
        <time>2024-04-14T11:21:40Z</time>
      </trkpt>
      <trkpt lat="48.00022" lon="-0.4864">
        <ele>83.8</ele>
        <time>2024-04-14T11:21:41Z</time>
      </trkpt>
      <trkpt lat="48.00026" lon="-0.48644">
        <ele>83.6</ele>
        <time>2024-04-14T11:21:42Z</time>
      </trkpt>
      <trkpt lat="48.00031" lon="-0.48648">
        <ele>83.6</ele>
        <time>2024-04-14T11:21:43Z</time>
      </trkpt>
      <trkpt lat="48.00035" lon="-0.48653">
        <ele>83.6</ele>
        <time>2024-04-14T11:21:44Z</time>
      </trkpt>
      <trkpt lat="48.00039" lon="-0.48657">
        <ele>84</ele>
        <time>2024-04-14T11:21:45Z</time>
      </trkpt>
      <trkpt lat="48.00043" lon="-0.48662">
        <ele>83.8</ele>
        <time>2024-04-14T11:21:46Z</time>
      </trkpt>
      <trkpt lat="48.00047" lon="-0.48666">
        <ele>83.8</ele>
        <time>2024-04-14T11:21:47Z</time>
      </trkpt>
      <trkpt lat="48.00052" lon="-0.4867">
        <ele>83.8</ele>
        <time>2024-04-14T11:21:48Z</time>
      </trkpt>
      <trkpt lat="48.00056" lon="-0.48675">
        <ele>84.8</ele>
        <time>2024-04-14T11:21:49Z</time>
      </trkpt>
      <trkpt lat="48.0006" lon="-0.48679">
        <ele>85.6</ele>
        <time>2024-04-14T11:21:50Z</time>
      </trkpt>
      <trkpt lat="48.00064" lon="-0.48683">
        <ele>85.6</ele>
        <time>2024-04-14T11:21:51Z</time>
      </trkpt>
      <trkpt lat="48.00068" lon="-0.48687">
        <ele>85.6</ele>
        <time>2024-04-14T11:21:52Z</time>
      </trkpt>
      <trkpt lat="48.00072" lon="-0.48691">
        <ele>86.6</ele>
        <time>2024-04-14T11:21:53Z</time>
      </trkpt>
      <trkpt lat="48.00076" lon="-0.48694">
        <ele>86.8</ele>
        <time>2024-04-14T11:21:54Z</time>
      </trkpt>
      <trkpt lat="48.0008" lon="-0.48697">
        <ele>86.8</ele>
        <time>2024-04-14T11:21:55Z</time>
      </trkpt>
      <trkpt lat="48.00084" lon="-0.487">
        <ele>86.8</ele>
        <time>2024-04-14T11:21:56Z</time>
      </trkpt>
      <trkpt lat="48.00088" lon="-0.48703">
        <ele>87.4</ele>
        <time>2024-04-14T11:21:57Z</time>
      </trkpt>
      <trkpt lat="48.00092" lon="-0.48706">
        <ele>87.8</ele>
        <time>2024-04-14T11:21:58Z</time>
      </trkpt>
      <trkpt lat="48.00095" lon="-0.48709">
        <ele>87.8</ele>
        <time>2024-04-14T11:21:59Z</time>
      </trkpt>
      <trkpt lat="48.00098" lon="-0.48712">
        <ele>87.8</ele>
        <time>2024-04-14T11:22:00Z</time>
      </trkpt>
      <trkpt lat="48.00101" lon="-0.48715">
        <ele>88.2</ele>
        <time>2024-04-14T11:22:01Z</time>
      </trkpt>
      <trkpt lat="48.00105" lon="-0.48719">
        <ele>88.8</ele>
        <time>2024-04-14T11:22:02Z</time>
      </trkpt>
      <trkpt lat="48.00108" lon="-0.48722">
        <ele>88.8</ele>
        <time>2024-04-14T11:22:03Z</time>
      </trkpt>
      <trkpt lat="48.00111" lon="-0.48725">
        <ele>88.8</ele>
        <time>2024-04-14T11:22:04Z</time>
      </trkpt>
      <trkpt lat="48.00115" lon="-0.48728">
        <ele>89.4</ele>
        <time>2024-04-14T11:22:05Z</time>
      </trkpt>
      <trkpt lat="48.00118" lon="-0.48732">
        <ele>88.8</ele>
        <time>2024-04-14T11:22:06Z</time>
      </trkpt>
      <trkpt lat="48.00121" lon="-0.48736">
        <ele>88.8</ele>
        <time>2024-04-14T11:22:07Z</time>
      </trkpt>
      <trkpt lat="48.00124" lon="-0.48739">
        <ele>88.8</ele>
        <time>2024-04-14T11:22:08Z</time>
      </trkpt>
      <trkpt lat="48.00127" lon="-0.48742">
        <ele>89.6</ele>
        <time>2024-04-14T11:22:09Z</time>
      </trkpt>
      <trkpt lat="48.0013" lon="-0.48745">
        <ele>89.8</ele>
        <time>2024-04-14T11:22:10Z</time>
      </trkpt>
      <trkpt lat="48.00133" lon="-0.48748">
        <ele>89.8</ele>
        <time>2024-04-14T11:22:11Z</time>
      </trkpt>
      <trkpt lat="48.00136" lon="-0.4875">
        <ele>89.8</ele>
        <time>2024-04-14T11:22:12Z</time>
      </trkpt>
      <trkpt lat="48.00139" lon="-0.48752">
        <ele>89.8</ele>
        <time>2024-04-14T11:22:13Z</time>
      </trkpt>
      <trkpt lat="48.00143" lon="-0.48753">
        <ele>90.6</ele>
        <time>2024-04-14T11:22:14Z</time>
      </trkpt>
      <trkpt lat="48.00147" lon="-0.48754">
        <ele>90.6</ele>
        <time>2024-04-14T11:22:15Z</time>
      </trkpt>
      <trkpt lat="48.0015" lon="-0.48754">
        <ele>90.6</ele>
        <time>2024-04-14T11:22:16Z</time>
      </trkpt>
      <trkpt lat="48.00154" lon="-0.48754">
        <ele>90</ele>
        <time>2024-04-14T11:22:17Z</time>
      </trkpt>
      <trkpt lat="48.00158" lon="-0.48754">
        <ele>89.8</ele>
        <time>2024-04-14T11:22:18Z</time>
      </trkpt>
      <trkpt lat="48.00162" lon="-0.48753">
        <ele>89.8</ele>
        <time>2024-04-14T11:22:19Z</time>
      </trkpt>
      <trkpt lat="48.00167" lon="-0.48752">
        <ele>89.8</ele>
        <time>2024-04-14T11:22:20Z</time>
      </trkpt>
      <trkpt lat="48.0017" lon="-0.48751">
        <ele>89.4</ele>
        <time>2024-04-14T11:22:21Z</time>
      </trkpt>
      <trkpt lat="48.00174" lon="-0.48748">
        <ele>89.2</ele>
        <time>2024-04-14T11:22:22Z</time>
      </trkpt>
      <trkpt lat="48.00175" lon="-0.48744">
        <ele>89.2</ele>
        <time>2024-04-14T11:22:23Z</time>
      </trkpt>
      <trkpt lat="48.00176" lon="-0.48738">
        <ele>89.2</ele>
        <time>2024-04-14T11:22:24Z</time>
      </trkpt>
      <trkpt lat="48.00177" lon="-0.48733">
        <ele>88.2</ele>
        <time>2024-04-14T11:22:25Z</time>
      </trkpt>
      <trkpt lat="48.00177" lon="-0.48728">
        <ele>88.6</ele>
        <time>2024-04-14T11:22:26Z</time>
      </trkpt>
      <trkpt lat="48.00177" lon="-0.48724">
        <ele>88.6</ele>
        <time>2024-04-14T11:22:27Z</time>
      </trkpt>
      <trkpt lat="48.00177" lon="-0.48721">
        <ele>88.6</ele>
        <time>2024-04-14T11:22:28Z</time>
      </trkpt>
      <trkpt lat="48.00177" lon="-0.4872">
        <ele>87.8</ele>
        <time>2024-04-14T11:22:29Z</time>
      </trkpt>
      <trkpt lat="48.00177" lon="-0.48719">
        <ele>88.2</ele>
        <time>2024-04-14T11:22:30Z</time>
      </trkpt>
      <trkpt lat="48.00177" lon="-0.48719">
        <ele>88.2</ele>
        <time>2024-04-14T11:22:31Z</time>
      </trkpt>
    </trkseg>
  </trk>
</gpx>